JPL-Sats

  Home –  History –  Credit –  Support –  Last_Sats –  Future_Sats –  C95_Ephs –  M58_Ephs –  I98_Ephs(T18) –  Q62_Ephs(T33) –  U94_Ephs(T68) –  Q20_Ephs –  Legal –  Privacy
Home   
History   
Credit   
Support   
Last_Sats   
Future_Sats   
C95_Ephs   
M58_Ephs   
I98_Ephs(T18)   
Q62_Ephs(T33)   
U94_Ephs(T68)   
Q20_Ephs   
Legal   
Privacy   

Index of all used observable objects

Wind (-8) JUICE (-28) TESS (-95) Chandra Observatory (-151) James Webb Space Telescope (-170) INTEGRAL (-198) Spektr-R Observatory (-557) Euclid (-680) CAPSTONE (-1176) Titan-3C RB (-102770) Gaia (-139479) MMS-1 (-140482) MMS-2 (-140483) MMS-3 (-140484) MMS-4 (-140485)

Missions with actual ephemerides

The ephemeris are downloaded by JPL Horizont:

  • Start of interval: 2024-07-14 00:00:00.
  • End of interval: 2024-07-28 00:00:00.
  • Time of interval: 10 min.
  • Station: Q62.
  • Created: 2024-Jul-14 03:16:04 UTC.

Wind (JPL-ID: -8)

   Date (UTC) HH:MM   RA              Dec         delta   r     elong SM  mag  '/hr    PA   alt  az moo ill
   ---- -- -- -----  -------------   -----------  ------ ------ ----- --  --- ------ ------ --- --- --- ---
   2024 07 20 20:30  07 10 48.48    +25 08 57.9   0.0112 1.0051  12.5 Nm  21?   1.04 345.6    0  59 175  99
   2024 07 20 20:40  07 10 48.25    +25 09 07.8   0.0112 1.0051  12.5 Cm  21?   1.06 339.0    2  58 175  99
   2024 07 20 20:50  07 10 47.92    +25 09 17.6   0.0112 1.0051  12.5 Cm  21?   1.09 332.7    4  56 175  99
   ................
   2024 07 21 20:20  07 11 56.66    +25 04 28.1   0.0112 1.0051  13.2 Nr  21?   1.01 352.1    0  60 162  99
   2024 07 21 20:30  07 11 56.51    +25 04 38.0   0.0112 1.0051  13.2 Nm  21?   1.02 345.1    1  59 162  99
   2024 07 21 20:40  07 11 56.27    +25 04 47.8   0.0112 1.0051  13.2 Cm  21?   1.04 338.5    3  58 161  99
   2024 07 21 20:50  07 11 55.95    +25 04 57.4   0.0112 1.0051  13.2 Cm  21?   1.07 332.2    4  56 161  99
   ................
   2024 07 22 20:20  07 13 08.28    +24 59 53.7   0.0112 1.0050  13.8 Nr  21?   1.00 352.1    0  60 147  97
   2024 07 22 20:30  07 13 08.13    +25 00 03.5   0.0112 1.0050  13.8 Nm  21?   1.00 345.1    1  59 147  97
   2024 07 22 20:40  07 13 07.90    +25 00 13.1   0.0112 1.0050  13.8 Cm  21?   1.02 338.3    3  57 147  97
   2024 07 22 20:50  07 13 07.57    +25 00 22.5   0.0112 1.0050  13.8 Cm  21?   1.05 331.9    5  56 147  97
   ................
   2024 07 23 20:20  07 14 24.15    +24 55 03.2   0.0112 1.0050  14.5 Nm  21?   0.98 352.6    0  60 133  92
   2024 07 23 20:30  07 14 24.01    +24 55 12.8   0.0112 1.0050  14.5 Nm  21?   0.98 345.4    2  58 133  92
   2024 07 23 20:40  07 14 23.78    +24 55 22.2   0.0112 1.0050  14.5 Cm  21?   1.00 338.5    4  57 133  92
   2024 07 23 20:50  07 14 23.47    +24 55 31.3   0.0112 1.0050  14.5 Cm  21?   1.03 331.9    6  55 133  92
   ................
   2024 07 24 20:20  07 15 44.86    +24 49 54.8   0.0112 1.0049  15.1 Nm  21?   0.95 353.4    1  59 119  84
   2024 07 24 20:30  07 15 44.73    +24 50 04.2   0.0112 1.0049  15.1 Nm  21?   0.96 346.1    2  58 119  84
   2024 07 24 20:40  07 15 44.51    +24 50 13.4   0.0112 1.0049  15.1 Cm  21?   0.97 339.0    4  57 118  84
   2024 07 24 20:50  07 15 44.21    +24 50 22.3   0.0112 1.0049  15.1 Cm  21?   1.00 332.2    6  55 118  84
   ................
   2024 07 25 20:10  07 17 10.89    +24 44 17.8   0.0112 1.0049  15.7 Nr  21?   0.94   2.1    0  60 104  75
   2024 07 25 20:20  07 17 10.87    +24 44 27.1   0.0112 1.0049  15.7 Nm  21?   0.93 354.6    1  59 104  75
   2024 07 25 20:30  07 17 10.76    +24 44 36.3   0.0112 1.0049  15.7 Cm  21?   0.93 347.0    3  58 104  75
   2024 07 25 20:40  07 17 10.56    +24 44 45.3   0.0112 1.0049  15.7 Cm  21?   0.95 339.7    5  56 104  75
   ................
   2024 07 26 20:10  07 18 42.50    +24 38 29.6   0.0112 1.0048  16.3 Nm  21?   0.92   3.7    0  60  90  64
   2024 07 26 20:20  07 18 42.50    +24 38 38.7   0.0112 1.0048  16.3 Nm  21?   0.90 356.0    2  59  90  64
   2024 07 26 20:30  07 18 42.40    +24 38 47.7   0.0112 1.0048  16.3 Cm  21?   0.90 348.3    3  57  90  64
   2024 07 26 20:40  07 18 42.22    +24 38 56.4   0.0112 1.0048  16.3 Cm  21?   0.91 340.7    5  56  90  64
   ................
   2024 07 27 20:10  07 20 19.88    +24 32 19.6   0.0112 1.0048  16.8 Nm  21?   0.90   5.5    0  60  76  53
   2024 07 27 20:20  07 20 19.90    +24 32 28.5   0.0112 1.0048  16.8 Nm  21?   0.88 357.6    2  59  76  53
   2024 07 27 20:30  07 20 19.83    +24 32 37.2   0.0112 1.0048  16.8 Cm  21?   0.87 349.7    4  57  76  53
   2024 07 27 20:40  07 20 19.67    +24 32 45.7   0.0112 1.0048  16.8 Cm  21?   0.88 341.9    6  56  76  53
   ................
   

JUICE (JPL-ID: -28)

   Date (UTC) HH:MM   RA              Dec         delta   r     elong SM  mag  '/hr    PA   alt  az moo ill
   ---- -- -- -----  -------------   -----------  ------ ------ ----- --  --- ------ ------ --- --- --- ---
   2024 07 14 10:40  22 24 18.10    -10 12 17.4   0.0725 1.0715 138.0  m  20?   0.60  78.1    1 100 127  54
   2024 07 14 10:50  22 24 18.49    -10 12 16.2   0.0725 1.0715 138.0  m  20?   0.58  77.7    3  99 127  54
   2024 07 14 11:00  22 24 18.87    -10 12 14.9   0.0725 1.0715 138.0  m  20?   0.56  77.3    5  98 127  54
   2024 07 14 11:10  22 24 19.23    -10 12 13.7   0.0725 1.0715 138.0  m  20?   0.54  76.8    7  97 126  54
   2024 07 14 11:20  22 24 19.59    -10 12 12.5   0.0724 1.0715 138.0  m  20?   0.52  76.3    9  95 126  54
   2024 07 14 11:30  22 24 19.92    -10 12 11.2   0.0724 1.0715 138.0  m  20?   0.50  75.7   11  94 126  54
   2024 07 14 11:40  22 24 20.25    -10 12 10.0   0.0724 1.0715 138.0  m  20?   0.49  75.1   14  93 126  54
   2024 07 14 11:50  22 24 20.56    -10 12 08.7   0.0724 1.0715 138.0  m  20?   0.47  74.4   16  92 126  54
   2024 07 14 12:00  22 24 20.86    -10 12 07.5   0.0724 1.0715 138.0  m  20?   0.45  73.7   18  90 126  54
   2024 07 14 12:10  22 24 21.14    -10 12 06.2   0.0724 1.0715 138.0  m  20?   0.43  72.8   20  89 126  54
   2024 07 14 12:20  22 24 21.41    -10 12 05.0   0.0724 1.0714 138.0  m  20?   0.41  71.9   22  88 126  54
   2024 07 14 12:30  22 24 21.67    -10 12 03.7   0.0723 1.0714 138.0  m  20?   0.40  70.9   24  86 126  54
   2024 07 14 12:40  22 24 21.92    -10 12 02.4   0.0723 1.0714 138.0  m  20?   0.38  69.8   26  85 126  54
   2024 07 14 12:50  22 24 22.15    -10 12 01.1   0.0723 1.0714 138.0  m  20?   0.36  68.6   29  84 126  54
   2024 07 14 13:00  22 24 22.38    -10 11 59.7   0.0723 1.0714 138.1  m  20?   0.35  67.3   31  82 126  55
   2024 07 14 13:10  22 24 22.59    -10 11 58.4   0.0723 1.0714 138.1  m  20?   0.33  65.8   33  81 126  55
   2024 07 14 13:20  22 24 22.79    -10 11 57.0   0.0723 1.0714 138.1  m  20?   0.32  64.3   35  79 126  55
   2024 07 14 13:30  22 24 22.97    -10 11 55.6   0.0722 1.0714 138.1  m  20?   0.30  62.6   37  77 126  55
   2024 07 14 13:40  22 24 23.15    -10 11 54.2   0.0722 1.0714 138.1  m  20?   0.29  60.8   39  76 125  55
   2024 07 14 13:50  22 24 23.32    -10 11 52.8   0.0722 1.0714 138.1  m  20?   0.28  58.9   41  74 125  55
   2024 07 14 14:00  22 24 23.48    -10 11 51.4   0.0722 1.0714 138.1  m  20?   0.27  56.9   43  72 125  55
   2024 07 14 14:10  22 24 23.62    -10 11 49.9   0.0722 1.0714 138.1  m  20?   0.26  54.7   45  70 125  55
   2024 07 14 14:20  22 24 23.76    -10 11 48.4   0.0722 1.0713 138.1  m  20?   0.25  52.5   47  68 125  55
   2024 07 14 14:30  22 24 23.89    -10 11 46.9   0.0721 1.0713 138.1  m  20?   0.24  50.1   49  66 125  55
   2024 07 14 14:40  22 24 24.01    -10 11 45.3   0.0721 1.0713 138.1  m  20?   0.23  47.7   51  63 125  55
   2024 07 14 14:50  22 24 24.12    -10 11 43.7   0.0721 1.0713 138.1  m  20?   0.23  45.3   53  61 125  55
   2024 07 14 15:00  22 24 24.23    -10 11 42.1   0.0721 1.0713 138.1     20?   0.22  42.8   55  58 125  55
   2024 07 14 15:10  22 24 24.33    -10 11 40.5   0.0721 1.0713 138.1     20?   0.22  40.4   57  55 125  55
   2024 07 14 15:20  22 24 24.42    -10 11 38.8   0.0721 1.0713 138.1     20?   0.21  38.1   59  52 125  55
   2024 07 14 15:30  22 24 24.51    -10 11 37.1   0.0720 1.0713 138.1     20?   0.21  35.8   60  48 125  56
   2024 07 14 15:40  22 24 24.59    -10 11 35.4   0.0720 1.0713 138.1     20?   0.21  33.7   62  44 124  56
   2024 07 14 15:50  22 24 24.67    -10 11 33.6   0.0720 1.0713 138.2     20?   0.21  31.7   63  40 124  56
   2024 07 14 16:00  22 24 24.74    -10 11 31.8   0.0720 1.0713 138.2     20?   0.21  29.9   64  35 124  56
   2024 07 14 16:10  22 24 24.81    -10 11 30.0   0.0720 1.0713 138.2     20?   0.21  28.3   66  29 124  56
   2024 07 14 16:20  22 24 24.87    -10 11 28.1   0.0720 1.0713 138.2     20?   0.21  26.9   67  24 124  56
   2024 07 14 16:30  22 24 24.94    -10 11 26.2   0.0720 1.0712 138.2     20?   0.21  25.8   67  18 124  56
   2024 07 14 16:40  22 24 25.00    -10 11 24.3   0.0719 1.0712 138.2     20?   0.22  24.8   68  11 124  56
   2024 07 14 16:50  22 24 25.06    -10 11 22.3   0.0719 1.0712 138.2     20?   0.22  24.1   68   4 124  56
   2024 07 14 17:00  22 24 25.12    -10 11 20.3   0.0719 1.0712 138.2  t  20?   0.22  23.6   68 358 124  56
   2024 07 14 17:10  22 24 25.18    -10 11 18.3   0.0719 1.0712 138.2     20?   0.22  23.4   68 351 124  56
   2024 07 14 17:20  22 24 25.24    -10 11 16.2   0.0719 1.0712 138.2     20?   0.23  23.3   68 344 124  56
   2024 07 14 17:30  22 24 25.30    -10 11 14.1   0.0719 1.0712 138.2     20?   0.23  23.4   67 338 123  56
   2024 07 14 17:40  22 24 25.37    -10 11 12.0   0.0719 1.0712 138.2     20?   0.24  23.8   66 332 123  57
   2024 07 14 17:50  22 24 25.43    -10 11 09.8   0.0718 1.0712 138.2     20?   0.24  24.3   65 327 123  57
   2024 07 14 18:00  22 24 25.50    -10 11 07.6   0.0718 1.0712 138.2     20?   0.25  25.0   64 322 123  57
   2024 07 14 18:10  22 24 25.57    -10 11 05.3   0.0718 1.0712 138.2     20?   0.25  25.8   62 317 123  57
   2024 07 14 18:20  22 24 25.65    -10 11 03.1   0.0718 1.0712 138.2     20?   0.26  26.8   61 313 123  57
   2024 07 14 18:30  22 24 25.73    -10 11 00.7   0.0718 1.0711 138.3     20?   0.26  27.9   59 309 123  57
   2024 07 14 18:40  22 24 25.82    -10 10 58.4   0.0718 1.0711 138.3     20?   0.27  29.1   58 306 123  57
   2024 07 14 18:50  22 24 25.91    -10 10 56.0   0.0717 1.0711 138.3     20?   0.28  30.3   56 302 123  57
   2024 07 14 19:00  22 24 26.01    -10 10 53.6   0.0717 1.0711 138.3     20?   0.28  31.7   54 299 122  57
   2024 07 14 19:10  22 24 26.11    -10 10 51.2   0.0717 1.0711 138.3     20?   0.29  33.1   52 297 122  57
   2024 07 14 19:20  22 24 26.22    -10 10 48.7   0.0717 1.0711 138.3     20?   0.30  34.6   50 294 122  57
   2024 07 14 19:30  22 24 26.34    -10 10 46.3   0.0717 1.0711 138.3     20?   0.31  36.1   48 292 122  58
   2024 07 14 19:40  22 24 26.47    -10 10 43.7   0.0717 1.0711 138.3 A   20?   0.32  37.7   46 290 122  58
   2024 07 14 19:50  22 24 26.61    -10 10 41.2   0.0717 1.0711 138.3 A   20?   0.33  39.2   44 288 122  58
   2024 07 14 20:00  22 24 26.75    -10 10 38.6   0.0717 1.0711 138.3 A   20?   0.34  40.7   42 286 122  58
   2024 07 14 20:10  22 24 26.91    -10 10 36.1   0.0716 1.0711 138.3 N   20?   0.35  42.3   40 284 122  58
   2024 07 14 20:20  22 24 27.08    -10 10 33.4   0.0716 1.0711 138.3 N   20?   0.36  43.8   38 282 122  58
   2024 07 14 20:30  22 24 27.25    -10 10 30.8   0.0716 1.0711 138.3 N   20?   0.38  45.3   36 281 121  58
   2024 07 14 20:40  22 24 27.44    -10 10 28.2   0.0716 1.0710 138.3 C   20?   0.39  46.7   34 279 121  58
   2024 07 14 20:50  22 24 27.64    -10 10 25.5   0.0716 1.0710 138.3 C   20?   0.40  48.2   32 278 121  58
   ................
   2024 07 15 10:30  22 25 10.81    -10 07 31.6   0.0704 1.0704 138.7  r  20?   0.60  78.8    0 101 115  63
   2024 07 15 10:40  22 25 11.20    -10 07 30.5   0.0704 1.0704 138.7  m  20?   0.58  78.5    1 100 115  63
   2024 07 15 10:50  22 25 11.58    -10 07 29.3   0.0704 1.0704 138.7  m  20?   0.56  78.1    4  99 115  64
   2024 07 15 11:00  22 25 11.94    -10 07 28.2   0.0703 1.0704 138.7  m  20?   0.54  77.6    6  97 115  64
   2024 07 15 11:10  22 25 12.29    -10 07 27.0   0.0703 1.0703 138.7  m  20?   0.52  77.1    8  96 114  64
   2024 07 15 11:20  22 25 12.63    -10 07 25.9   0.0703 1.0703 138.7  m  20?   0.50  76.6   10  95 114  64
   2024 07 15 11:30  22 25 12.95    -10 07 24.7   0.0703 1.0703 138.7  m  20?   0.48  76.0   12  94 114  64
   2024 07 15 11:40  22 25 13.26    -10 07 23.5   0.0703 1.0703 138.7  m  20?   0.46  75.3   14  92 114  64
   2024 07 15 11:50  22 25 13.55    -10 07 22.4   0.0703 1.0703 138.7  m  20?   0.44  74.5   16  91 114  64
   2024 07 15 12:00  22 25 13.83    -10 07 21.2   0.0702 1.0703 138.7  m  20?   0.42  73.7   19  90 114  64
   2024 07 15 12:10  22 25 14.10    -10 07 20.0   0.0702 1.0703 138.7  m  20?   0.40  72.8   21  89 114  64
   2024 07 15 12:20  22 25 14.35    -10 07 18.8   0.0702 1.0703 138.8  m  20?   0.38  71.7   23  87 114  64
   2024 07 15 12:30  22 25 14.59    -10 07 17.6   0.0702 1.0703 138.8  m  20?   0.37  70.6   25  86 114  64
   2024 07 15 12:40  22 25 14.82    -10 07 16.4   0.0702 1.0703 138.8  m  20?   0.35  69.3   27  84 114  64
   2024 07 15 12:50  22 25 15.03    -10 07 15.2   0.0702 1.0703 138.8  m  20?   0.33  68.0   29  83 114  64
   2024 07 15 13:00  22 25 15.24    -10 07 13.9   0.0701 1.0703 138.8  m  20?   0.32  66.5   31  82 114  64
   2024 07 15 13:10  22 25 15.43    -10 07 12.6   0.0701 1.0702 138.8  m  20?   0.30  64.8   33  80 114  64
   2024 07 15 13:20  22 25 15.61    -10 07 11.3   0.0701 1.0702 138.8  m  20?   0.29  63.0   36  78 114  64
   2024 07 15 13:30  22 25 15.77    -10 07 10.0   0.0701 1.0702 138.8  m  20?   0.27  61.1   38  77 114  64
   2024 07 15 13:40  22 25 15.93    -10 07 08.7   0.0701 1.0702 138.8  m  20?   0.26  58.9   40  75 114  64
   2024 07 15 13:50  22 25 16.08    -10 07 07.3   0.0701 1.0702 138.8  m  20?   0.25  56.6   42  73 113  64
   2024 07 15 14:00  22 25 16.21    -10 07 06.0   0.0700 1.0702 138.8  m  20?   0.24  54.2   44  71 113  64
   2024 07 15 14:10  22 25 16.34    -10 07 04.6   0.0700 1.0702 138.8  m  20?   0.23  51.6   46  69 113  64
   2024 07 15 14:20  22 25 16.45    -10 07 03.1   0.0700 1.0702 138.8  m  20?   0.22  48.9   48  67 113  65
   2024 07 15 14:30  22 25 16.56    -10 07 01.7   0.0700 1.0702 138.8  m  20?   0.21  46.0   50  65 113  65
   2024 07 15 14:40  22 25 16.66    -10 07 00.2   0.0700 1.0702 138.8  m  20?   0.21  43.1   52  63 113  65
   2024 07 15 14:50  22 25 16.75    -10 06 58.7   0.0700 1.0702 138.8  m  20?   0.20  40.2   54  60 113  65
   2024 07 15 15:00  22 25 16.84    -10 06 57.1   0.0699 1.0702 138.8  m  20?   0.20  37.3   55  57 113  65
   2024 07 15 15:10  22 25 16.92    -10 06 55.6   0.0699 1.0702 138.9  m  20?   0.19  34.4   57  54 113  65
   2024 07 15 15:20  22 25 16.99    -10 06 53.9   0.0699 1.0701 138.9  m  20?   0.19  31.7   59  50 113  65
   2024 07 15 15:30  22 25 17.05    -10 06 52.3   0.0699 1.0701 138.9  m  20?   0.19  29.1   61  47 113  65
   2024 07 15 15:40  22 25 17.11    -10 06 50.6   0.0699 1.0701 138.9  m  20?   0.19  26.6   62  43 113  65
   2024 07 15 15:50  22 25 17.17    -10 06 48.9   0.0699 1.0701 138.9  m  20?   0.19  24.4   63  38 113  65
   2024 07 15 16:00  22 25 17.22    -10 06 47.2   0.0699 1.0701 138.9     20?   0.19  22.5   65  33 112  65
   2024 07 15 16:10  22 25 17.27    -10 06 45.4   0.0698 1.0701 138.9     20?   0.19  20.8   66  28 112  65
   2024 07 15 16:20  22 25 17.31    -10 06 43.6   0.0698 1.0701 138.9     20?   0.19  19.4   67  22 112  65
   2024 07 15 16:30  22 25 17.35    -10 06 41.8   0.0698 1.0701 138.9     20?   0.20  18.2   67  16 112  65
   2024 07 15 16:40  22 25 17.39    -10 06 39.9   0.0698 1.0701 138.9     20?   0.20  17.3   68   9 112  65
   2024 07 15 16:50  22 25 17.43    -10 06 38.0   0.0698 1.0701 138.9     20?   0.20  16.7   68   2 112  66
   2024 07 15 17:00  22 25 17.47    -10 06 36.0   0.0698 1.0701 138.9  t  20?   0.21  16.4   68 356 112  66
   2024 07 15 17:10  22 25 17.51    -10 06 34.0   0.0698 1.0701 138.9     20?   0.21  16.3   68 349 112  66
   2024 07 15 17:20  22 25 17.55    -10 06 32.0   0.0697 1.0700 138.9     20?   0.21  16.4   67 342 112  66
   2024 07 15 17:30  22 25 17.59    -10 06 30.0   0.0697 1.0700 138.9     20?   0.22  16.8   67 336 112  66
   2024 07 15 17:40  22 25 17.64    -10 06 27.9   0.0697 1.0700 138.9     20?   0.22  17.3   66 330 111  66
   2024 07 15 17:50  22 25 17.68    -10 06 25.7   0.0697 1.0700 139.0     20?   0.23  18.1   65 325 111  66
   2024 07 15 18:00  22 25 17.73    -10 06 23.6   0.0697 1.0700 139.0     20?   0.23  19.1   63 320 111  66
   2024 07 15 18:10  22 25 17.79    -10 06 21.4   0.0697 1.0700 139.0     20?   0.24  20.2   62 316 111  66
   2024 07 15 18:20  22 25 17.84    -10 06 19.2   0.0697 1.0700 139.0     20?   0.24  21.4   60 312 111  66
   2024 07 15 18:30  22 25 17.91    -10 06 16.9   0.0696 1.0700 139.0     20?   0.25  22.8   59 308 111  66
   2024 07 15 18:40  22 25 17.97    -10 06 14.6   0.0696 1.0700 139.0     20?   0.25  24.3   57 305 111  66
   2024 07 15 18:50  22 25 18.05    -10 06 12.3   0.0696 1.0700 139.0     20?   0.26  25.9   55 302 111  66
   2024 07 15 19:00  22 25 18.13    -10 06 09.9   0.0696 1.0700 139.0     20?   0.27  27.6   53 299 111  67
   2024 07 15 19:10  22 25 18.22    -10 06 07.5   0.0696 1.0700 139.0     20?   0.28  29.3   51 296 111  67
   2024 07 15 19:20  22 25 18.31    -10 06 05.1   0.0696 1.0699 139.0     20?   0.28  31.1   50 294 110  67
   2024 07 15 19:30  22 25 18.41    -10 06 02.7   0.0696 1.0699 139.0     20?   0.29  32.9   48 291 110  67
   2024 07 15 19:40  22 25 18.53    -10 06 00.2   0.0695 1.0699 139.0 A   20?   0.30  34.7   46 289 110  67
   2024 07 15 19:50  22 25 18.65    -10 05 57.7   0.0695 1.0699 139.0 A   20?   0.31  36.5   44 287 110  67
   2024 07 15 20:00  22 25 18.78    -10 05 55.2   0.0695 1.0699 139.0 A   20?   0.32  38.3   41 285 110  67
   2024 07 15 20:10  22 25 18.92    -10 05 52.7   0.0695 1.0699 139.0 N   20?   0.33  40.1   39 284 110  67
   2024 07 15 20:20  22 25 19.07    -10 05 50.1   0.0695 1.0699 139.0 N   20?   0.35  41.8   37 282 110  67
   2024 07 15 20:30  22 25 19.23    -10 05 47.5   0.0695 1.0699 139.1 N   20?   0.36  43.5   35 280 110  67
   2024 07 15 20:40  22 25 19.41    -10 05 44.9   0.0695 1.0699 139.1 C   20?   0.37  45.2   33 279 110  67
   2024 07 15 20:50  22 25 19.59    -10 05 42.3   0.0694 1.0699 139.1 C   20?   0.39  46.8   31 277 109  68
   ................
   2024 07 16 10:30  22 26 02.31    -10 02 53.8   0.0683 1.0692 139.4  m  20?   0.58  79.2    0 101 102  73
   2024 07 16 10:40  22 26 02.69    -10 02 52.8   0.0682 1.0692 139.4  m  20?   0.56  78.8    2 100 102  73
   2024 07 16 10:50  22 26 03.05    -10 02 51.7   0.0682 1.0692 139.4  m  20?   0.53  78.4    4  98 102  73
   2024 07 16 11:00  22 26 03.40    -10 02 50.6   0.0682 1.0692 139.4  m  20?   0.51  78.0    6  97 102  73
   2024 07 16 11:10  22 26 03.73    -10 02 49.6   0.0682 1.0692 139.4  m  20?   0.49  77.4    8  96 102  73
   2024 07 16 11:20  22 26 04.05    -10 02 48.5   0.0682 1.0692 139.4  m  20?   0.47  76.8   11  94 102  73
   2024 07 16 11:30  22 26 04.35    -10 02 47.4   0.0682 1.0691 139.5  m  20?   0.45  76.2   13  93 102  73
   2024 07 16 11:40  22 26 04.64    -10 02 46.3   0.0681 1.0691 139.5  m  20?   0.43  75.4   15  92 102  73
   2024 07 16 11:50  22 26 04.92    -10 02 45.3   0.0681 1.0691 139.5  m  20?   0.41  74.6   17  91 102  73
   2024 07 16 12:00  22 26 05.18    -10 02 44.2   0.0681 1.0691 139.5  m  20?   0.39  73.7   19  89 102  73
   2024 07 16 12:10  22 26 05.43    -10 02 43.1   0.0681 1.0691 139.5  m  20?   0.37  72.7   21  88 102  73
   2024 07 16 12:20  22 26 05.67    -10 02 41.9   0.0681 1.0691 139.5  m  20?   0.36  71.5   23  87 102  73
   2024 07 16 12:30  22 26 05.89    -10 02 40.8   0.0681 1.0691 139.5  m  20?   0.34  70.2   26  85 102  73
   2024 07 16 12:40  22 26 06.10    -10 02 39.7   0.0680 1.0691 139.5  m  20?   0.32  68.8   28  84 102  73
   2024 07 16 12:50  22 26 06.29    -10 02 38.5   0.0680 1.0691 139.5  m  20?   0.30  67.2   30  83 102  73
   2024 07 16 13:00  22 26 06.47    -10 02 37.3   0.0680 1.0691 139.5  m  20?   0.29  65.5   32  81 102  73
   2024 07 16 13:10  22 26 06.64    -10 02 36.1   0.0680 1.0691 139.5  m  20?   0.27  63.5   34  80 102  73
   2024 07 16 13:20  22 26 06.80    -10 02 34.9   0.0680 1.0691 139.5  m  20?   0.26  61.4   36  78 101  73
   2024 07 16 13:30  22 26 06.95    -10 02 33.7   0.0680 1.0690 139.5  m  20?   0.24  59.0   38  76 101  73
   2024 07 16 13:40  22 26 07.09    -10 02 32.4   0.0679 1.0690 139.5  m  20?   0.23  56.5   40  75 101  73
   2024 07 16 13:50  22 26 07.21    -10 02 31.1   0.0679 1.0690 139.5  m  20?   0.22  53.7   42  73 101  74
   2024 07 16 14:00  22 26 07.33    -10 02 29.8   0.0679 1.0690 139.5  m  20?   0.21  50.7   44  71 101  74
   2024 07 16 14:10  22 26 07.43    -10 02 28.5   0.0679 1.0690 139.5  m  20?   0.20  47.5   46  69 101  74
   2024 07 16 14:20  22 26 07.53    -10 02 27.1   0.0679 1.0690 139.6  m  20?   0.19  44.1   48  67 101  74
   2024 07 16 14:30  22 26 07.61    -10 02 25.7   0.0679 1.0690 139.6  m  20?   0.19  40.6   50  64 101  74
   2024 07 16 14:40  22 26 07.69    -10 02 24.3   0.0679 1.0690 139.6  m  20?   0.18  37.1   52  62 101  74
   2024 07 16 14:50  22 26 07.76    -10 02 22.9   0.0678 1.0690 139.6  m  20?   0.18  33.5   54  59 101  74
   2024 07 16 15:00  22 26 07.82    -10 02 21.4   0.0678 1.0690 139.6  m  20?   0.17  30.0   56  56 101  74
   2024 07 16 15:10  22 26 07.88    -10 02 19.9   0.0678 1.0690 139.6  m  20?   0.17  26.6   58  53 101  74
   2024 07 16 15:20  22 26 07.93    -10 02 18.3   0.0678 1.0690 139.6  m  20?   0.17  23.4   59  49 101  74
   2024 07 16 15:30  22 26 07.97    -10 02 16.7   0.0678 1.0690 139.6  m  20?   0.17  20.5   61  45 101  74
   2024 07 16 15:40  22 26 08.01    -10 02 15.1   0.0678 1.0689 139.6  m  20?   0.17  17.8   62  41 100  74
   2024 07 16 15:50  22 26 08.04    -10 02 13.5   0.0677 1.0689 139.6  m  20?   0.17  15.4   64  36 100  74
   2024 07 16 16:00  22 26 08.07    -10 02 11.8   0.0677 1.0689 139.6  m  20?   0.17  13.4   65  31 100  74
   2024 07 16 16:10  22 26 08.09    -10 02 10.1   0.0677 1.0689 139.6  m  20?   0.18  11.7   66  26 100  74
   2024 07 16 16:20  22 26 08.12    -10 02 08.3   0.0677 1.0689 139.6  m  20?   0.18  10.3   67  20 100  74
   2024 07 16 16:30  22 26 08.14    -10 02 06.5   0.0677 1.0689 139.6  m  20?   0.18   9.3   68  14 100  74
   2024 07 16 16:40  22 26 08.16    -10 02 04.7   0.0677 1.0689 139.6  m  20?   0.19   8.5   68   7 100  74
   2024 07 16 16:50  22 26 08.18    -10 02 02.8   0.0677 1.0689 139.6  m  20?   0.19   8.1   68   0 100  75
   2024 07 16 17:00  22 26 08.20    -10 02 00.9   0.0676 1.0689 139.7  t  20?   0.19   8.0   68 354 100  75
   2024 07 16 17:10  22 26 08.21    -10 01 59.0   0.0676 1.0689 139.7     20?   0.20   8.1   68 347 100  75
   2024 07 16 17:20  22 26 08.23    -10 01 57.0   0.0676 1.0689 139.7     20?   0.20   8.5   67 340 100  75
   2024 07 16 17:30  22 26 08.25    -10 01 55.0   0.0676 1.0689 139.7     20?   0.20   9.1   66 334  99  75
   2024 07 16 17:40  22 26 08.28    -10 01 53.0   0.0676 1.0688 139.7     20?   0.21  10.0   65 329  99  75
   2024 07 16 17:50  22 26 08.30    -10 01 50.9   0.0676 1.0688 139.7     20?   0.21  11.0   64 324  99  75
   2024 07 16 18:00  22 26 08.33    -10 01 48.8   0.0676 1.0688 139.7     20?   0.22  12.3   63 319  99  75
   2024 07 16 18:10  22 26 08.37    -10 01 46.7   0.0675 1.0688 139.7     20?   0.22  13.7   61 315  99  75
   2024 07 16 18:20  22 26 08.41    -10 01 44.5   0.0675 1.0688 139.7     20?   0.23  15.3   60 311  99  75
   2024 07 16 18:30  22 26 08.45    -10 01 42.3   0.0675 1.0688 139.7     20?   0.23  17.1   58 307  99  75
   2024 07 16 18:40  22 26 08.50    -10 01 40.0   0.0675 1.0688 139.7     20?   0.24  18.9   56 304  99  75
   2024 07 16 18:50  22 26 08.55    -10 01 37.7   0.0675 1.0688 139.7     20?   0.25  20.8   55 301  99  75
   2024 07 16 19:00  22 26 08.62    -10 01 35.4   0.0675 1.0688 139.7     20?   0.25  22.9   53 298  99  75
   2024 07 16 19:10  22 26 08.69    -10 01 33.1   0.0675 1.0688 139.7     20?   0.26  24.9   51 295  98  76
   2024 07 16 19:20  22 26 08.77    -10 01 30.7   0.0674 1.0688 139.7     20?   0.27  27.1   49 293  98  76
   2024 07 16 19:30  22 26 08.85    -10 01 28.3   0.0674 1.0688 139.8     20?   0.28  29.2   47 291  98  76
   2024 07 16 19:40  22 26 08.95    -10 01 25.9   0.0674 1.0687 139.8 A   20?   0.29  31.3   45 289  98  76
   2024 07 16 19:50  22 26 09.06    -10 01 23.4   0.0674 1.0687 139.8 A   20?   0.30  33.5   43 287  98  76
   2024 07 16 20:00  22 26 09.17    -10 01 21.0   0.0674 1.0687 139.8 A   20?   0.31  35.6   41 285  98  76
   2024 07 16 20:10  22 26 09.30    -10 01 18.5   0.0674 1.0687 139.8 N   20?   0.32  37.6   39 283  98  76
   2024 07 16 20:20  22 26 09.43    -10 01 15.9   0.0674 1.0687 139.8 N   20?   0.33  39.6   37 281  98  76
   2024 07 16 20:30  22 26 09.58    -10 01 13.4   0.0673 1.0687 139.8 N   20?   0.34  41.6   35 280  98  76
   2024 07 16 20:40  22 26 09.74    -10 01 10.8   0.0673 1.0687 139.8 C   20?   0.36  43.5   32 278  97  76
   2024 07 16 20:50  22 26 09.91    -10 01 08.2   0.0673 1.0687 139.8 C   20?   0.37  45.3   30 277  97  76
   ................
   2024 07 17 10:30  22 26 52.22    -09 58 25.2   0.0661 1.0680 140.2  m  20?   0.55  79.7    1 100  90  81
   2024 07 17 10:40  22 26 52.58    -09 58 24.2   0.0661 1.0680 140.2  m  20?   0.53  79.3    3  99  90  81
   2024 07 17 10:50  22 26 52.93    -09 58 23.2   0.0661 1.0680 140.2  m  20?   0.51  78.8    5  98  90  81
   2024 07 17 11:00  22 26 53.26    -09 58 22.2   0.0661 1.0680 140.2  m  20?   0.49  78.3    7  97  90  81
   2024 07 17 11:10  22 26 53.57    -09 58 21.3   0.0661 1.0680 140.2  m  20?   0.47  77.8    9  95  90  81
   2024 07 17 11:20  22 26 53.88    -09 58 20.3   0.0661 1.0680 140.2  m  20?   0.45  77.1   11  94  90  81
   2024 07 17 11:30  22 26 54.16    -09 58 19.3   0.0660 1.0679 140.2  m  20?   0.43  76.4   13  93  90  81
   2024 07 17 11:40  22 26 54.44    -09 58 18.3   0.0660 1.0679 140.2  m  20?   0.41  75.6   15  91  89  82
   2024 07 17 11:50  22 26 54.70    -09 58 17.3   0.0660 1.0679 140.2  m  20?   0.38  74.7   18  90  89  82
   2024 07 17 12:00  22 26 54.94    -09 58 16.3   0.0660 1.0679 140.2  m  20?   0.36  73.7   20  89  89  82
   2024 07 17 12:10  22 26 55.17    -09 58 15.2   0.0660 1.0679 140.2  m  20?   0.35  72.5   22  88  89  82
   2024 07 17 12:20  22 26 55.39    -09 58 14.2   0.0660 1.0679 140.2  m  20?   0.33  71.2   24  86  89  82
   2024 07 17 12:30  22 26 55.59    -09 58 13.1   0.0659 1.0679 140.2  m  20?   0.31  69.8   26  85  89  82
   2024 07 17 12:40  22 26 55.78    -09 58 12.1   0.0659 1.0679 140.2  m  20?   0.29  68.1   28  83  89  82
   2024 07 17 12:50  22 26 55.95    -09 58 11.0   0.0659 1.0679 140.2  m  20?   0.27  66.3   30  82  89  82
   2024 07 17 13:00  22 26 56.11    -09 58 09.9   0.0659 1.0679 140.2  m  20?   0.26  64.2   33  80  89  82
   2024 07 17 13:10  22 26 56.26    -09 58 08.8   0.0659 1.0679 140.2  m  20?   0.24  61.9   35  79  89  82
   2024 07 17 13:20  22 26 56.40    -09 58 07.6   0.0659 1.0679 140.3  m  20?   0.23  59.3   37  77  89  82
   2024 07 17 13:30  22 26 56.53    -09 58 06.5   0.0658 1.0678 140.3  m  20?   0.21  56.4   39  76  89  82
   2024 07 17 13:40  22 26 56.64    -09 58 05.3   0.0658 1.0678 140.3  m  20?   0.20  53.2   41  74  89  82
   2024 07 17 13:50  22 26 56.75    -09 58 04.0   0.0658 1.0678 140.3  m  20?   0.19  49.7   43  72  89  82
   2024 07 17 14:00  22 26 56.84    -09 58 02.8   0.0658 1.0678 140.3  m  20?   0.18  45.9   45  70  89  82
   2024 07 17 14:10  22 26 56.92    -09 58 01.5   0.0658 1.0678 140.3  m  20?   0.17  41.8   47  68  89  82
   2024 07 17 14:20  22 26 56.99    -09 58 00.2   0.0658 1.0678 140.3  m  20?   0.17  37.6   49  66  89  82
   2024 07 17 14:30  22 26 57.06    -09 57 58.9   0.0658 1.0678 140.3  m  20?   0.16  33.2   51  63  88  82
   2024 07 17 14:40  22 26 57.11    -09 57 57.6   0.0657 1.0678 140.3  m  20?   0.16  28.9   53  61  88  82
   2024 07 17 14:50  22 26 57.16    -09 57 56.2   0.0657 1.0678 140.3  m  20?   0.15  24.5   55  58  88  82
   2024 07 17 15:00  22 26 57.20    -09 57 54.8   0.0657 1.0678 140.3  m  20?   0.15  20.4   56  55  88  82
   2024 07 17 15:10  22 26 57.23    -09 57 53.3   0.0657 1.0678 140.3  m  20?   0.15  16.5   58  52  88  82
   2024 07 17 15:20  22 26 57.26    -09 57 51.8   0.0657 1.0677 140.3  m  20?   0.15  12.9   60  48  88  82
   2024 07 17 15:30  22 26 57.28    -09 57 50.3   0.0657 1.0677 140.3  m  20?   0.16   9.7   61  44  88  82
   2024 07 17 15:40  22 26 57.30    -09 57 48.7   0.0656 1.0677 140.3  m  20?   0.16   7.0   63  40  88  82
   2024 07 17 15:50  22 26 57.31    -09 57 47.1   0.0656 1.0677 140.3  m  20?   0.16   4.6   64  35  88  82
   2024 07 17 16:00  22 26 57.31    -09 57 45.5   0.0656 1.0677 140.4  m  20?   0.16   2.6   65  30  88  83
   2024 07 17 16:10  22 26 57.32    -09 57 43.9   0.0656 1.0677 140.4  m  20?   0.17   1.1   66  24  88  83
   2024 07 17 16:20  22 26 57.32    -09 57 42.2   0.0656 1.0677 140.4  m  20?   0.17 359.8   67  18  88  83
   2024 07 17 16:30  22 26 57.32    -09 57 40.4   0.0656 1.0677 140.4  m  20?   0.18 359.0   68  12  88  83
   2024 07 17 16:40  22 26 57.32    -09 57 38.7   0.0656 1.0677 140.4  m  20?   0.18 358.5   68   5  87  83
   2024 07 17 16:50  22 26 57.31    -09 57 36.8   0.0655 1.0677 140.4  t  20?   0.18 358.3   68 358  87  83
   2024 07 17 17:00  22 26 57.31    -09 57 35.0   0.0655 1.0677 140.4  m  20?   0.19 358.5   68 351  87  83
   2024 07 17 17:10  22 26 57.31    -09 57 33.1   0.0655 1.0677 140.4  m  20?   0.19 358.9   67 345  87  83
   2024 07 17 17:20  22 26 57.31    -09 57 31.2   0.0655 1.0676 140.4  m  20?   0.19 359.6   67 339  87  83
   2024 07 17 17:30  22 26 57.31    -09 57 29.2   0.0655 1.0676 140.4  m  20?   0.20   0.6   66 333  87  83
   2024 07 17 17:40  22 26 57.31    -09 57 27.2   0.0655 1.0676 140.4  m  20?   0.20   1.7   65 327  87  83
   2024 07 17 17:50  22 26 57.31    -09 57 25.2   0.0655 1.0676 140.4  m  20?   0.21   3.1   64 322  87  83
   2024 07 17 18:00  22 26 57.32    -09 57 23.1   0.0654 1.0676 140.4     20?   0.21   4.7   62 318  87  83
   2024 07 17 18:10  22 26 57.34    -09 57 21.0   0.0654 1.0676 140.4     20?   0.21   6.5   61 313  87  83
   2024 07 17 18:20  22 26 57.36    -09 57 18.9   0.0654 1.0676 140.4     20?   0.22   8.5   59 310  86  83
   2024 07 17 18:30  22 26 57.38    -09 57 16.7   0.0654 1.0676 140.5     20?   0.22  10.6   58 306  86  83
   2024 07 17 18:40  22 26 57.41    -09 57 14.5   0.0654 1.0676 140.5     20?   0.23  12.8   56 303  86  83
   2024 07 17 18:50  22 26 57.45    -09 57 12.3   0.0654 1.0676 140.5     20?   0.23  15.1   54 300  86  83
   2024 07 17 19:00  22 26 57.50    -09 57 10.0   0.0654 1.0676 140.5     20?   0.24  17.5   52 297  86  84
   2024 07 17 19:10  22 26 57.55    -09 57 07.7   0.0653 1.0676 140.5     20?   0.25  20.0   50 295  86  84
   2024 07 17 19:20  22 26 57.61    -09 57 05.4   0.0653 1.0675 140.5     20?   0.25  22.5   48 292  86  84
   2024 07 17 19:30  22 26 57.68    -09 57 03.0   0.0653 1.0675 140.5     20?   0.26  25.1   46 290  86  84
   2024 07 17 19:40  22 26 57.76    -09 57 00.7   0.0653 1.0675 140.5 A   20?   0.27  27.6   44 288  86  84
   2024 07 17 19:50  22 26 57.85    -09 56 58.2   0.0653 1.0675 140.5 A   20?   0.28  30.1   42 286  86  84
   2024 07 17 20:00  22 26 57.95    -09 56 55.8   0.0653 1.0675 140.5 A   20?   0.29  32.5   40 284  85  84
   2024 07 17 20:10  22 26 58.06    -09 56 53.3   0.0653 1.0675 140.5 N   20?   0.30  34.9   38 283  85  84
   2024 07 17 20:20  22 26 58.19    -09 56 50.9   0.0653 1.0675 140.5 N   20?   0.31  37.2   36 281  85  84
   2024 07 17 20:30  22 26 58.32    -09 56 48.3   0.0652 1.0675 140.5 N   20?   0.33  39.5   34 279  85  84
   2024 07 17 20:40  22 26 58.47    -09 56 45.8   0.0652 1.0675 140.5 C   20?   0.34  41.6   32 278  85  84
   2024 07 17 20:50  22 26 58.63    -09 56 43.3   0.0652 1.0675 140.5 C   20?   0.35  43.7   30 276  85  84
   ................
   2024 07 18 10:20  22 27 40.19    -09 54 06.5   0.0641 1.0668 140.9  r  20?   0.55  80.5    0 101  77  89
   2024 07 18 10:30  22 27 40.55    -09 54 05.6   0.0640 1.0668 140.9  m  20?   0.53  80.2    1 100  77  89
   2024 07 18 10:40  22 27 40.90    -09 54 04.7   0.0640 1.0668 140.9  m  20?   0.51  79.7    3  99  77  89
   2024 07 18 10:50  22 27 41.23    -09 54 03.8   0.0640 1.0667 140.9  m  20?   0.49  79.3    5  97  77  89
   2024 07 18 11:00  22 27 41.54    -09 54 02.9   0.0640 1.0667 140.9  m  20?   0.46  78.8    8  96  77  89
   2024 07 18 11:10  22 27 41.84    -09 54 02.0   0.0640 1.0667 140.9  m  20?   0.44  78.2   10  95  77  89
   2024 07 18 11:20  22 27 42.13    -09 54 01.1   0.0640 1.0667 140.9  m  20?   0.42  77.5   12  94  77  89
   2024 07 18 11:30  22 27 42.40    -09 54 00.2   0.0639 1.0667 140.9  m  20?   0.40  76.7   14  92  77  89
   2024 07 18 11:40  22 27 42.65    -09 53 59.3   0.0639 1.0667 140.9  m  20?   0.38  75.8   16  91  76  89
   2024 07 18 11:50  22 27 42.89    -09 53 58.4   0.0639 1.0667 140.9  m  20?   0.36  74.8   18  90  76  89
   2024 07 18 12:00  22 27 43.12    -09 53 57.4   0.0639 1.0667 141.0  m  20?   0.34  73.7   20  88  76  89
   2024 07 18 12:10  22 27 43.33    -09 53 56.5   0.0639 1.0667 141.0  m  20?   0.32  72.4   23  87  76  89
   2024 07 18 12:20  22 27 43.53    -09 53 55.5   0.0639 1.0667 141.0  m  20?   0.30  70.9   25  86  76  89
   2024 07 18 12:30  22 27 43.71    -09 53 54.5   0.0638 1.0667 141.0  m  20?   0.28  69.2   27  84  76  89
   2024 07 18 12:40  22 27 43.88    -09 53 53.5   0.0638 1.0667 141.0  m  20?   0.26  67.2   29  83  76  89
   2024 07 18 12:50  22 27 44.03    -09 53 52.5   0.0638 1.0666 141.0  m  20?   0.24  65.0   31  81  76  89
   2024 07 18 13:00  22 27 44.17    -09 53 51.5   0.0638 1.0666 141.0  m  20?   0.23  62.5   33  80  76  89
   2024 07 18 13:10  22 27 44.30    -09 53 50.5   0.0638 1.0666 141.0  m  20?   0.21  59.6   35  78  76  89
   2024 07 18 13:20  22 27 44.42    -09 53 49.4   0.0638 1.0666 141.0  m  20?   0.20  56.4   37  77  76  89
   2024 07 18 13:30  22 27 44.52    -09 53 48.3   0.0637 1.0666 141.0  m  20?   0.18  52.7   39  75  76  89
   2024 07 18 13:40  22 27 44.62    -09 53 47.2   0.0637 1.0666 141.0  m  20?   0.17  48.6   42  73  76  89
   2024 07 18 13:50  22 27 44.70    -09 53 46.0   0.0637 1.0666 141.0  m  20?   0.16  44.0   44  71  76  89
   2024 07 18 14:00  22 27 44.77    -09 53 44.9   0.0637 1.0666 141.0  m  20?   0.15  39.1   46  69  76  89
   2024 07 18 14:10  22 27 44.83    -09 53 43.7   0.0637 1.0666 141.0  m  20?   0.15  33.9   48  67  76  89
   2024 07 18 14:20  22 27 44.88    -09 53 42.4   0.0637 1.0666 141.0  m  20?   0.14  28.5   50  65  76  89
   2024 07 18 14:30  22 27 44.92    -09 53 41.2   0.0637 1.0666 141.0  m  20?   0.14  23.1   51  62  75  89
   2024 07 18 14:40  22 27 44.95    -09 53 39.9   0.0636 1.0665 141.0  m  20?   0.14  17.7   53  60  75  89
   2024 07 18 14:50  22 27 44.98    -09 53 38.5   0.0636 1.0665 141.1  m  20?   0.14  12.7   55  57  75  89
   2024 07 18 15:00  22 27 45.00    -09 53 37.2   0.0636 1.0665 141.1  m  20?   0.14   8.0   57  54  75  89
   2024 07 18 15:10  22 27 45.01    -09 53 35.8   0.0636 1.0665 141.1  m  20?   0.14   3.9   59  50  75  89
   2024 07 18 15:20  22 27 45.01    -09 53 34.4   0.0636 1.0665 141.1  m  20?   0.14   0.2   60  47  75  90
   2024 07 18 15:30  22 27 45.01    -09 53 32.9   0.0636 1.0665 141.1  m  20?   0.15 357.0   62  43  75  90
   2024 07 18 15:40  22 27 45.00    -09 53 31.4   0.0635 1.0665 141.1  m  20?   0.15 354.4   63  38  75  90
   2024 07 18 15:50  22 27 44.99    -09 53 29.9   0.0635 1.0665 141.1  m  20?   0.16 352.3   64  33  75  90
   2024 07 18 16:00  22 27 44.97    -09 53 28.3   0.0635 1.0665 141.1  m  20?   0.16 350.6   66  28  75  90
   2024 07 18 16:10  22 27 44.95    -09 53 26.7   0.0635 1.0665 141.1  m  20?   0.17 349.3   67  22  75  90
   2024 07 18 16:20  22 27 44.93    -09 53 25.1   0.0635 1.0665 141.1  m  20?   0.17 348.5   67  16  75  90
   2024 07 18 16:30  22 27 44.91    -09 53 23.4   0.0635 1.0665 141.1  m  20?   0.17 348.0   68   9  75  90
   2024 07 18 16:40  22 27 44.88    -09 53 21.7   0.0635 1.0664 141.1  m  20?   0.18 347.8   68   3  74  90
   2024 07 18 16:50  22 27 44.86    -09 53 19.9   0.0634 1.0664 141.1  t  20?   0.18 348.0   68 356  74  90
   2024 07 18 17:00  22 27 44.83    -09 53 18.1   0.0634 1.0664 141.1  m  20?   0.19 348.4   68 349  74  90
   2024 07 18 17:10  22 27 44.81    -09 53 16.3   0.0634 1.0664 141.1  m  20?   0.19 349.1   67 343  74  90
   2024 07 18 17:20  22 27 44.78    -09 53 14.4   0.0634 1.0664 141.2  m  20?   0.19 350.1   66 337  74  90
   2024 07 18 17:30  22 27 44.76    -09 53 12.5   0.0634 1.0664 141.2  m  20?   0.20 351.3   66 331  74  90
   2024 07 18 17:40  22 27 44.74    -09 53 10.5   0.0634 1.0664 141.2  m  20?   0.20 352.8   64 326  74  90
   2024 07 18 17:50  22 27 44.73    -09 53 08.5   0.0634 1.0664 141.2  m  20?   0.20 354.5   63 321  74  90
   2024 07 18 18:00  22 27 44.72    -09 53 06.5   0.0633 1.0664 141.2  m  20?   0.20 356.4   62 316  74  90
   2024 07 18 18:10  22 27 44.71    -09 53 04.5   0.0633 1.0664 141.2  m  20?   0.21 358.6   60 312  74  90
   2024 07 18 18:20  22 27 44.71    -09 53 02.4   0.0633 1.0664 141.2  m  20?   0.21   0.9   59 309  74  90
   2024 07 18 18:30  22 27 44.72    -09 53 00.2   0.0633 1.0663 141.2  m  20?   0.21   3.4   57 305  73  90
   2024 07 18 18:40  22 27 44.73    -09 52 58.1   0.0633 1.0663 141.2  m  20?   0.22   6.0   55 302  73  90
   2024 07 18 18:50  22 27 44.75    -09 52 55.9   0.0633 1.0663 141.2  m  20?   0.22   8.7   53 299  73  90
   2024 07 18 19:00  22 27 44.78    -09 52 53.7   0.0633 1.0663 141.2  m  20?   0.23  11.6   51 297  73  90
   2024 07 18 19:10  22 27 44.81    -09 52 51.4   0.0633 1.0663 141.2     20?   0.23  14.5   50 294  73  90
   2024 07 18 19:20  22 27 44.86    -09 52 49.1   0.0632 1.0663 141.2     20?   0.24  17.4   48 292  73  91
   2024 07 18 19:30  22 27 44.91    -09 52 46.8   0.0632 1.0663 141.2     20?   0.25  20.4   46 290  73  91
   2024 07 18 19:40  22 27 44.97    -09 52 44.5   0.0632 1.0663 141.2 A   20?   0.26  23.3   44 288  73  91
   2024 07 18 19:50  22 27 45.05    -09 52 42.1   0.0632 1.0663 141.3 A   20?   0.27  26.2   41 286  73  91
   2024 07 18 20:00  22 27 45.13    -09 52 39.7   0.0632 1.0663 141.3 A   20?   0.28  29.1   39 284  73  91
   2024 07 18 20:10  22 27 45.23    -09 52 37.2   0.0632 1.0663 141.3 N   20?   0.29  31.9   37 282  72  91
   2024 07 18 20:20  22 27 45.34    -09 52 34.8   0.0632 1.0663 141.3 N   20?   0.30  34.5   35 281  72  91
   2024 07 18 20:30  22 27 45.46    -09 52 32.3   0.0631 1.0662 141.3 N   20?   0.31  37.1   33 279  72  91
   2024 07 18 20:40  22 27 45.60    -09 52 29.8   0.0631 1.0662 141.3 C   20?   0.32  39.6   31 278  72  91
   2024 07 18 20:50  22 27 45.74    -09 52 27.3   0.0631 1.0662 141.3 C   20?   0.34  41.9   29 276  72  91
   ................
   2024 07 19 10:20  22 28 26.97    -09 49 55.9   0.0620 1.0655 141.6  r  20?   0.53  81.1    0 101  64  94
   2024 07 19 10:30  22 28 27.31    -09 49 55.1   0.0620 1.0655 141.7  m  20?   0.51  80.7    2  99  63  94
   2024 07 19 10:40  22 28 27.65    -09 49 54.2   0.0619 1.0655 141.7  m  20?   0.48  80.3    4  98  63  94
   2024 07 19 10:50  22 28 27.96    -09 49 53.4   0.0619 1.0655 141.7  m  20?   0.46  79.8    6  97  63  95
   2024 07 19 11:00  22 28 28.26    -09 49 52.6   0.0619 1.0655 141.7  m  20?   0.44  79.2    8  96  63  95
   2024 07 19 11:10  22 28 28.54    -09 49 51.8   0.0619 1.0655 141.7  m  20?   0.42  78.6   10  94  63  95
   2024 07 19 11:20  22 28 28.81    -09 49 51.0   0.0619 1.0655 141.7  m  20?   0.39  77.8   12  93  63  95
   2024 07 19 11:30  22 28 29.06    -09 49 50.1   0.0619 1.0655 141.7  m  20?   0.37  77.0   15  92  63  95
   2024 07 19 11:40  22 28 29.30    -09 49 49.3   0.0618 1.0654 141.7  m  20?   0.35  76.0   17  91  63  95
   2024 07 19 11:50  22 28 29.52    -09 49 48.5   0.0618 1.0654 141.7  m  20?   0.33  74.9   19  89  63  95
   2024 07 19 12:00  22 28 29.73    -09 49 47.6   0.0618 1.0654 141.7  m  20?   0.31  73.6   21  88  63  95
   2024 07 19 12:10  22 28 29.92    -09 49 46.7   0.0618 1.0654 141.7  m  20?   0.29  72.1   23  87  63  95
   2024 07 19 12:20  22 28 30.10    -09 49 45.9   0.0618 1.0654 141.7  m  20?   0.27  70.4   25  85  63  95
   2024 07 19 12:30  22 28 30.26    -09 49 45.0   0.0618 1.0654 141.7  m  20?   0.25  68.4   27  84  63  95
   2024 07 19 12:40  22 28 30.41    -09 49 44.1   0.0617 1.0654 141.7  m  20?   0.23  66.0   30  82  63  95
   2024 07 19 12:50  22 28 30.54    -09 49 43.1   0.0617 1.0654 141.7  m  20?   0.21  63.3   32  81  63  95
   2024 07 19 13:00  22 28 30.66    -09 49 42.2   0.0617 1.0654 141.7  m  20?   0.19  60.1   34  79  63  95
   2024 07 19 13:10  22 28 30.77    -09 49 41.2   0.0617 1.0654 141.7  m  20?   0.18  56.5   36  78  63  95
   2024 07 19 13:20  22 28 30.86    -09 49 40.2   0.0617 1.0654 141.7  m  20?   0.16  52.2   38  76  62  95
   2024 07 19 13:30  22 28 30.95    -09 49 39.2   0.0617 1.0654 141.8  m  20?   0.15  47.3   40  74  62  95
   2024 07 19 13:40  22 28 31.02    -09 49 38.1   0.0616 1.0653 141.8  m  20?   0.14  41.8   42  73  62  95
   2024 07 19 13:50  22 28 31.08    -09 49 37.0   0.0616 1.0653 141.8  m  20?   0.13  35.7   44  71  62  95
   2024 07 19 14:00  22 28 31.12    -09 49 35.9   0.0616 1.0653 141.8  m  20?   0.13  29.2   46  69  62  95
   2024 07 19 14:10  22 28 31.16    -09 49 34.8   0.0616 1.0653 141.8  m  20?   0.12  22.5   48  66  62  95
   2024 07 19 14:20  22 28 31.19    -09 49 33.7   0.0616 1.0653 141.8  m  20?   0.12  15.7   50  64  62  95
   2024 07 19 14:30  22 28 31.21    -09 49 32.5   0.0616 1.0653 141.8  m  20?   0.12   9.2   52  62  62  95
   2024 07 19 14:40  22 28 31.21    -09 49 31.2   0.0616 1.0653 141.8  m  20?   0.12   3.2   54  59  62  95
   2024 07 19 14:50  22 28 31.22    -09 49 30.0   0.0615 1.0653 141.8  m  20?   0.13 357.8   56  56  62  95
   2024 07 19 15:00  22 28 31.21    -09 49 28.7   0.0615 1.0653 141.8  m  20?   0.13 353.2   57  53  62  95
   2024 07 19 15:10  22 28 31.19    -09 49 27.3   0.0615 1.0653 141.8  m  20?   0.14 349.2   59  49  62  95
   2024 07 19 15:20  22 28 31.17    -09 49 26.0   0.0615 1.0653 141.8  m  20?   0.14 345.9   61  45  62  95
   2024 07 19 15:30  22 28 31.15    -09 49 24.6   0.0615 1.0652 141.8  m  20?   0.15 343.2   62  41  62  95
   2024 07 19 15:40  22 28 31.12    -09 49 23.1   0.0615 1.0652 141.8  m  20?   0.15 341.1   64  36  62  95
   2024 07 19 15:50  22 28 31.08    -09 49 21.7   0.0615 1.0652 141.8  m  20?   0.16 339.5   65  31  62  95
   2024 07 19 16:00  22 28 31.04    -09 49 20.1   0.0614 1.0652 141.9  m  20?   0.16 338.3   66  26  61  95
   2024 07 19 16:10  22 28 31.00    -09 49 18.6   0.0614 1.0652 141.9  m  20?   0.17 337.5   67  20  61  95
   2024 07 19 16:20  22 28 30.95    -09 49 17.0   0.0614 1.0652 141.9  m  20?   0.17 337.0   67  14  61  95
   2024 07 19 16:30  22 28 30.91    -09 49 15.4   0.0614 1.0652 141.9  m  20?   0.18 336.9   68   7  61  95
   2024 07 19 16:40  22 28 30.86    -09 49 13.7   0.0614 1.0652 141.9  m  20?   0.18 337.0   68   1  61  95
   2024 07 19 16:50  22 28 30.81    -09 49 12.0   0.0614 1.0652 141.9  t  20?   0.19 337.5   68 354  61  95
   2024 07 19 17:00  22 28 30.76    -09 49 10.2   0.0614 1.0652 141.9  m  20?   0.19 338.2   68 347  61  95
   2024 07 19 17:10  22 28 30.72    -09 49 08.5   0.0613 1.0652 141.9  m  20?   0.19 339.2   67 341  61  95
   2024 07 19 17:20  22 28 30.67    -09 49 06.6   0.0613 1.0651 141.9  m  20?   0.20 340.5   66 335  61  95
   2024 07 19 17:30  22 28 30.63    -09 49 04.8   0.0613 1.0651 141.9  m  20?   0.20 341.9   65 329  61  95
   2024 07 19 17:40  22 28 30.59    -09 49 02.9   0.0613 1.0651 141.9  m  20?   0.20 343.7   64 324  61  95
   2024 07 19 17:50  22 28 30.55    -09 49 00.9   0.0613 1.0651 141.9  m  20?   0.20 345.6   63 319  61  95
   2024 07 19 18:00  22 28 30.52    -09 48 59.0   0.0613 1.0651 141.9  m  20?   0.20 347.8   61 315  60  95
   2024 07 19 18:10  22 28 30.50    -09 48 56.9   0.0613 1.0651 141.9  m  20?   0.21 350.2   60 311  60  95
   2024 07 19 18:20  22 28 30.47    -09 48 54.9   0.0612 1.0651 141.9  m  20?   0.21 352.8   58 308  60  96
   2024 07 19 18:30  22 28 30.46    -09 48 52.8   0.0612 1.0651 142.0  m  20?   0.21 355.6   56 304  60  96
   2024 07 19 18:40  22 28 30.45    -09 48 50.7   0.0612 1.0651 142.0  m  20?   0.21 358.6   55 301  60  96
   2024 07 19 18:50  22 28 30.45    -09 48 48.5   0.0612 1.0651 142.0  m  20?   0.22   1.7   53 298  60  96
   2024 07 19 19:00  22 28 30.46    -09 48 46.3   0.0612 1.0651 142.0  m  20?   0.22   5.0   51 296  60  96
   2024 07 19 19:10  22 28 30.48    -09 48 44.1   0.0612 1.0651 142.0  m  20?   0.23   8.3   49 293  60  96
   2024 07 19 19:20  22 28 30.51    -09 48 41.9   0.0612 1.0650 142.0  m  20?   0.23  11.7   47 291  60  96
   2024 07 19 19:30  22 28 30.54    -09 48 39.6   0.0611 1.0650 142.0  m  20?   0.24  15.1   45 289  60  96
   2024 07 19 19:40  22 28 30.59    -09 48 37.3   0.0611 1.0650 142.0 Am  20?   0.25  18.6   43 287  59  96
   2024 07 19 19:50  22 28 30.65    -09 48 34.9   0.0611 1.0650 142.0 Am  20?   0.25  21.9   41 285  59  96
   2024 07 19 20:00  22 28 30.72    -09 48 32.6   0.0611 1.0650 142.0 Am  20?   0.26  25.2   39 283  59  96
   2024 07 19 20:10  22 28 30.80    -09 48 30.2   0.0611 1.0650 142.0 N   20?   0.27  28.4   37 282  59  96
   2024 07 19 20:20  22 28 30.90    -09 48 27.8   0.0611 1.0650 142.0 N   20?   0.28  31.5   35 280  59  96
   2024 07 19 20:30  22 28 31.00    -09 48 25.3   0.0611 1.0650 142.0 N   20?   0.30  34.5   32 279  59  96
   2024 07 19 20:40  22 28 31.13    -09 48 22.9   0.0611 1.0650 142.0 C   20?   0.31  37.3   30 277  59  96
   2024 07 19 20:50  22 28 31.26    -09 48 20.4   0.0610 1.0650 142.0 C   20?   0.32  39.9   28 276  59  96
   ................
   2024 07 20 10:20  22 29 12.18    -09 45 54.3   0.0599 1.0642 142.4  m  20?   0.51  81.7    0 100  50  98
   2024 07 20 10:30  22 29 12.51    -09 45 53.6   0.0599 1.0642 142.4  m  20?   0.48  81.3    2  99  50  98
   2024 07 20 10:40  22 29 12.82    -09 45 52.9   0.0599 1.0642 142.4  m  20?   0.46  80.9    5  98  50  98
   2024 07 20 10:50  22 29 13.12    -09 45 52.1   0.0598 1.0642 142.4  m  20?   0.44  80.3    7  96  50  98
   2024 07 20 11:00  22 29 13.41    -09 45 51.4   0.0598 1.0642 142.4  m  20?   0.41  79.8    9  95  50  98
   2024 07 20 11:10  22 29 13.67    -09 45 50.7   0.0598 1.0642 142.4  m  20?   0.39  79.1   11  94  49  98
   2024 07 20 11:20  22 29 13.92    -09 45 49.9   0.0598 1.0642 142.4  m  20?   0.37  78.3   13  93  49  98
   2024 07 20 11:30  22 29 14.16    -09 45 49.2   0.0598 1.0642 142.4  m  20?   0.34  77.4   15  91  49  98
   2024 07 20 11:40  22 29 14.38    -09 45 48.5   0.0598 1.0642 142.4  m  20?   0.32  76.3   17  90  49  98
   2024 07 20 11:50  22 29 14.58    -09 45 47.7   0.0598 1.0642 142.5  m  20?   0.30  75.0   20  89  49  98
   2024 07 20 12:00  22 29 14.76    -09 45 46.9   0.0597 1.0641 142.5  m  20?   0.28  73.6   22  87  49  98
   2024 07 20 12:10  22 29 14.94    -09 45 46.1   0.0597 1.0641 142.5  m  20?   0.25  71.8   24  86  49  98
   2024 07 20 12:20  22 29 15.09    -09 45 45.3   0.0597 1.0641 142.5  m  20?   0.23  69.7   26  85  49  98
   2024 07 20 12:30  22 29 15.23    -09 45 44.5   0.0597 1.0641 142.5  m  20?   0.21  67.3   28  83  49  98
   2024 07 20 12:40  22 29 15.36    -09 45 43.7   0.0597 1.0641 142.5  m  20?   0.20  64.4   30  82  49  98
   2024 07 20 12:50  22 29 15.47    -09 45 42.8   0.0597 1.0641 142.5  m  20?   0.18  60.9   32  80  49  98
   2024 07 20 13:00  22 29 15.57    -09 45 42.0   0.0596 1.0641 142.5  m  20?   0.16  56.7   34  79  49  98
   2024 07 20 13:10  22 29 15.65    -09 45 41.1   0.0596 1.0641 142.5  m  20?   0.15  51.7   37  77  49  98
   2024 07 20 13:20  22 29 15.73    -09 45 40.1   0.0596 1.0641 142.5  m  20?   0.13  45.9   39  76  49  98
   2024 07 20 13:30  22 29 15.78    -09 45 39.2   0.0596 1.0641 142.5  m  20?   0.12  39.1   41  74  49  98
   2024 07 20 13:40  22 29 15.83    -09 45 38.2   0.0596 1.0641 142.5  m  20?   0.12  31.4   43  72  49  98
   2024 07 20 13:50  22 29 15.87    -09 45 37.2   0.0596 1.0641 142.5  m  20?   0.11  23.1   45  70  48  98
   2024 07 20 14:00  22 29 15.89    -09 45 36.2   0.0595 1.0640 142.5  m  20?   0.11  14.6   47  68  48  98
   2024 07 20 14:10  22 29 15.90    -09 45 35.1   0.0595 1.0640 142.5  m  20?   0.11   6.3   49  66  48  98
   2024 07 20 14:20  22 29 15.91    -09 45 34.0   0.0595 1.0640 142.5  m  20?   0.11 358.6   51  63  48  98
   2024 07 20 14:30  22 29 15.90    -09 45 32.9   0.0595 1.0640 142.6  m  20?   0.12 351.8   53  61  48  98
   2024 07 20 14:40  22 29 15.89    -09 45 31.7   0.0595 1.0640 142.6  m  20?   0.12 346.0   54  58  48  98
   2024 07 20 14:50  22 29 15.86    -09 45 30.5   0.0595 1.0640 142.6  m  20?   0.13 341.2   56  55  48  98
   2024 07 20 15:00  22 29 15.83    -09 45 29.3   0.0595 1.0640 142.6  m  20?   0.14 337.3   58  51  48  98
   2024 07 20 15:10  22 29 15.79    -09 45 28.0   0.0594 1.0640 142.6  m  20?   0.14 334.2   60  48  48  98
   2024 07 20 15:20  22 29 15.75    -09 45 26.7   0.0594 1.0640 142.6  m  20?   0.15 331.7   61  44  48  98
   2024 07 20 15:30  22 29 15.70    -09 45 25.4   0.0594 1.0640 142.6  m  20?   0.16 329.8   63  40  48  98
   2024 07 20 15:40  22 29 15.64    -09 45 24.0   0.0594 1.0640 142.6  m  20?   0.16 328.3   64  35  48  98
   2024 07 20 15:50  22 29 15.58    -09 45 22.6   0.0594 1.0639 142.6  m  20?   0.17 327.3   65  30  48  98
   2024 07 20 16:00  22 29 15.52    -09 45 21.1   0.0594 1.0639 142.6  m  20?   0.18 326.6   66  24  48  98
   2024 07 20 16:10  22 29 15.45    -09 45 19.6   0.0594 1.0639 142.6  m  20?   0.18 326.3   67  18  48  98
   2024 07 20 16:20  22 29 15.38    -09 45 18.1   0.0593 1.0639 142.6  m  20?   0.19 326.2   67  12  47  99
   2024 07 20 16:30  22 29 15.31    -09 45 16.5   0.0593 1.0639 142.6  m  20?   0.19 326.4   68   5  47  99
   2024 07 20 16:40  22 29 15.24    -09 45 14.9   0.0593 1.0639 142.6  t  20?   0.20 326.9   68 358  47  99
   2024 07 20 16:50  22 29 15.17    -09 45 13.3   0.0593 1.0639 142.6  m  20?   0.20 327.6   68 352  47  99
   2024 07 20 17:00  22 29 15.09    -09 45 11.6   0.0593 1.0639 142.7  m  20?   0.20 328.6   67 345  47  99
   2024 07 20 17:10  22 29 15.02    -09 45 09.8   0.0593 1.0639 142.7  m  20?   0.20 329.7   67 339  47  99
   2024 07 20 17:20  22 29 14.96    -09 45 08.0   0.0593 1.0639 142.7  m  20?   0.21 331.1   66 333  47  99
   2024 07 20 17:30  22 29 14.89    -09 45 06.2   0.0592 1.0639 142.7  m  20?   0.21 332.8   65 328  47  99
   2024 07 20 17:40  22 29 14.83    -09 45 04.4   0.0592 1.0638 142.7  m  20?   0.21 334.6   64 323  47  99
   2024 07 20 17:50  22 29 14.77    -09 45 02.5   0.0592 1.0638 142.7  m  20?   0.21 336.7   62 318  47  99
   2024 07 20 18:00  22 29 14.72    -09 45 00.5   0.0592 1.0638 142.7  m  20?   0.21 339.1   61 314  47  99
   2024 07 20 18:10  22 29 14.67    -09 44 58.6   0.0592 1.0638 142.7  m  20?   0.21 341.6   59 310  47  99
   2024 07 20 18:20  22 29 14.63    -09 44 56.6   0.0592 1.0638 142.7  m  20?   0.21 344.4   57 307  46  99
   2024 07 20 18:30  22 29 14.60    -09 44 54.5   0.0592 1.0638 142.7  m  20?   0.21 347.5   56 303  46  99
   2024 07 20 18:40  22 29 14.57    -09 44 52.4   0.0591 1.0638 142.7  m  20?   0.21 350.7   54 300  46  99
   2024 07 20 18:50  22 29 14.55    -09 44 50.3   0.0591 1.0638 142.7  m  20?   0.21 354.1   52 298  46  99
   2024 07 20 19:00  22 29 14.54    -09 44 48.2   0.0591 1.0638 142.7  m  20?   0.22 357.8   50 295  46  99
   2024 07 20 19:10  22 29 14.54    -09 44 46.0   0.0591 1.0638 142.7  m  20?   0.22   1.5   48 293  46  99
   2024 07 20 19:20  22 29 14.55    -09 44 43.8   0.0591 1.0638 142.7  m  20?   0.22   5.4   46 291  46  99
   2024 07 20 19:30  22 29 14.57    -09 44 41.5   0.0591 1.0637 142.8  m  20?   0.23   9.3   44 289  46  99
   2024 07 20 19:40  22 29 14.60    -09 44 39.3   0.0591 1.0637 142.8 Am  20?   0.23  13.2   42 287  46  99
   2024 07 20 19:50  22 29 14.64    -09 44 37.0   0.0591 1.0637 142.8 Am  20?   0.24  17.1   40 285  46  99
   2024 07 20 20:00  22 29 14.70    -09 44 34.6   0.0590 1.0637 142.8 Am  20?   0.25  20.9   38 283  46  99
   2024 07 20 20:10  22 29 14.76    -09 44 32.3   0.0590 1.0637 142.8 Nm  20?   0.26  24.6   36 281  45  99
   2024 07 20 20:20  22 29 14.84    -09 44 29.9   0.0590 1.0637 142.8 Nm  20?   0.27  28.1   34 280  45  99
   2024 07 20 20:30  22 29 14.94    -09 44 27.5   0.0590 1.0637 142.8 Nm  20?   0.28  31.5   32 278  45  99
   2024 07 20 20:40  22 29 15.04    -09 44 25.1   0.0590 1.0637 142.8 Cm  20?   0.30  34.7   30 277  45  99
   2024 07 20 20:50  22 29 15.16    -09 44 22.7   0.0590 1.0637 142.8 Cm  20?   0.31  37.8   27 275  45  99
   ................
   2024 07 21 10:20  22 29 55.79    -09 42 02.1   0.0578 1.0629 143.2  m  20?   0.48  82.4    1 100  36  99
   2024 07 21 10:30  22 29 56.11    -09 42 01.5   0.0578 1.0629 143.2  m  20?   0.46  82.0    3  98  36  99
   2024 07 21 10:40  22 29 56.41    -09 42 00.8   0.0578 1.0629 143.2  m  20?   0.43  81.6    5  97  36  99
   2024 07 21 10:50  22 29 56.69    -09 42 00.2   0.0578 1.0629 143.2  m  20?   0.41  81.0    7  96  36  99
   2024 07 21 11:00  22 29 56.95    -09 41 59.6   0.0578 1.0629 143.2  m  20?   0.39  80.4   10  95  35  99
   2024 07 21 11:10  22 29 57.20    -09 41 58.9   0.0578 1.0629 143.2  m  20?   0.36  79.7   12  93  35  99
   2024 07 21 11:20  22 29 57.43    -09 41 58.3   0.0577 1.0629 143.2  m  20?   0.34  78.8   14  92  35  99
   2024 07 21 11:30  22 29 57.65    -09 41 57.6   0.0577 1.0629 143.2  m  20?   0.31  77.8   16  91  35  99
   2024 07 21 11:40  22 29 57.85    -09 41 57.0   0.0577 1.0629 143.2  m  20?   0.29  76.6   18  90  35  99
   2024 07 21 11:50  22 29 58.03    -09 41 56.3   0.0577 1.0629 143.2  m  20?   0.27  75.2   20  88  35  99
   2024 07 21 12:00  22 29 58.20    -09 41 55.6   0.0577 1.0628 143.2  m  20?   0.24  73.5   22  87  35  99
   2024 07 21 12:10  22 29 58.35    -09 41 54.9   0.0577 1.0628 143.2  m  20?   0.22  71.4   24  86  35  99
   2024 07 21 12:20  22 29 58.48    -09 41 54.2   0.0576 1.0628 143.2  m  20?   0.20  68.8   27  84  35  99
   2024 07 21 12:30  22 29 58.60    -09 41 53.5   0.0576 1.0628 143.2  m  20?   0.18  65.7   29  83  35  99
   2024 07 21 12:40  22 29 58.70    -09 41 52.7   0.0576 1.0628 143.2  m  20?   0.16  61.9   31  81  35  99
   2024 07 21 12:50  22 29 58.79    -09 41 51.9   0.0576 1.0628 143.3  m  20?   0.14  57.2   33  80  35  99
   2024 07 21 13:00  22 29 58.87    -09 41 51.1   0.0576 1.0628 143.3  m  20?   0.13  51.3   35  78  35  99
   2024 07 21 13:10  22 29 58.93    -09 41 50.3   0.0576 1.0628 143.3  m  20?   0.12  44.1   37  77  35  99
   2024 07 21 13:20  22 29 58.98    -09 41 49.5   0.0576 1.0628 143.3  m  20?   0.11  35.4   39  75  35  99
   2024 07 21 13:30  22 29 59.01    -09 41 48.6   0.0575 1.0628 143.3  m  20?   0.10  25.5   41  73  34  99
   2024 07 21 13:40  22 29 59.03    -09 41 47.7   0.0575 1.0628 143.3  m  20?   0.09  14.8   43  71  34  99
   2024 07 21 13:50  22 29 59.04    -09 41 46.8   0.0575 1.0627 143.3  m  20?   0.09   4.1   45  69  34  99
   2024 07 21 14:00  22 29 59.04    -09 41 45.8   0.0575 1.0627 143.3  m  20?   0.10 354.2   47  67  34  99
   2024 07 21 14:10  22 29 59.03    -09 41 44.8   0.0575 1.0627 143.3  m  20?   0.10 345.8   49  65  34  99
   2024 07 21 14:20  22 29 59.01    -09 41 43.8   0.0575 1.0627 143.3  m  20?   0.11 338.8   51  62  34  99
   2024 07 21 14:30  22 29 58.98    -09 41 42.7   0.0574 1.0627 143.3  m  20?   0.12 333.2   53  60  34  99
   2024 07 21 14:40  22 29 58.94    -09 41 41.7   0.0574 1.0627 143.3  m  20?   0.13 328.8   55  57  34  99
   2024 07 21 14:50  22 29 58.89    -09 41 40.5   0.0574 1.0627 143.3  m  20?   0.14 325.3   57  54  34  99
   2024 07 21 15:00  22 29 58.83    -09 41 39.4   0.0574 1.0627 143.3  m  20?   0.15 322.7   58  50  34  99
   2024 07 21 15:10  22 29 58.77    -09 41 38.2   0.0574 1.0627 143.3  m  20?   0.16 320.6   60  47  34  99
   2024 07 21 15:20  22 29 58.70    -09 41 36.9   0.0574 1.0627 143.4  m  20?   0.17 319.0   62  42  34  99
   2024 07 21 15:30  22 29 58.62    -09 41 35.6   0.0574 1.0627 143.4  m  20?   0.17 317.9   63  38  34  99
   2024 07 21 15:40  22 29 58.54    -09 41 34.3   0.0573 1.0626 143.4  m  20?   0.18 317.1   64  33  34  99
   2024 07 21 15:50  22 29 58.45    -09 41 33.0   0.0573 1.0626 143.4  m  20?   0.19 316.6   65  28  34  99
   2024 07 21 16:00  22 29 58.36    -09 41 31.6   0.0573 1.0626 143.4  m  20?   0.20 316.4   66  22  33  99
   2024 07 21 16:10  22 29 58.27    -09 41 30.1   0.0573 1.0626 143.4  m  20?   0.20 316.5   67  16  33  99
   2024 07 21 16:20  22 29 58.18    -09 41 28.6   0.0573 1.0626 143.4  m  20?   0.21 316.7   68  10  33  99
   2024 07 21 16:30  22 29 58.08    -09 41 27.1   0.0573 1.0626 143.4  m  20?   0.21 317.2   68   3  33  99
   2024 07 21 16:40  22 29 57.98    -09 41 25.6   0.0573 1.0626 143.4  t  20?   0.21 317.8   68 356  33  99
   2024 07 21 16:50  22 29 57.89    -09 41 24.0   0.0572 1.0626 143.4  m  20?   0.22 318.7   68 350  33  99
   2024 07 21 17:00  22 29 57.79    -09 41 22.3   0.0572 1.0626 143.4  m  20?   0.22 319.8   67 343  33  99
   2024 07 21 17:10  22 29 57.70    -09 41 20.6   0.0572 1.0626 143.4  m  20?   0.22 321.0   66 337  33  99
   2024 07 21 17:20  22 29 57.60    -09 41 18.9   0.0572 1.0626 143.4  m  20?   0.22 322.5   65 331  33  99
   2024 07 21 17:30  22 29 57.52    -09 41 17.1   0.0572 1.0625 143.4  m  20?   0.22 324.2   64 326  33  99
   2024 07 21 17:40  22 29 57.43    -09 41 15.3   0.0572 1.0625 143.4  m  20?   0.22 326.1   63 321  33  99
   2024 07 21 17:50  22 29 57.35    -09 41 13.5   0.0572 1.0625 143.5  m  20?   0.22 328.2   62 317  33  99
   2024 07 21 18:00  22 29 57.28    -09 41 11.6   0.0571 1.0625 143.5  m  20?   0.22 330.6   60 313  33  99
   2024 07 21 18:10  22 29 57.21    -09 41 09.6   0.0571 1.0625 143.5  m  20?   0.22 333.2   59 309  32  99
   2024 07 21 18:20  22 29 57.14    -09 41 07.7   0.0571 1.0625 143.5  m  20?   0.22 336.1   57 306  32  99
   2024 07 21 18:30  22 29 57.09    -09 41 05.7   0.0571 1.0625 143.5  m  20?   0.22 339.2   55 302  32  99
   2024 07 21 18:40  22 29 57.04    -09 41 03.6   0.0571 1.0625 143.5  m  20?   0.22 342.6   53 300  32  99
   2024 07 21 18:50  22 29 57.00    -09 41 01.6   0.0571 1.0625 143.5  m  20?   0.22 346.2   51 297  32  99
   2024 07 21 19:00  22 29 56.97    -09 40 59.5   0.0571 1.0625 143.5  m  20?   0.22 350.1   49 294  32  99
   2024 07 21 19:10  22 29 56.95    -09 40 57.3   0.0571 1.0624 143.5  m  20?   0.22 354.2   47 292  32  99
   2024 07 21 19:20  22 29 56.94    -09 40 55.2   0.0570 1.0624 143.5  m  20?   0.22 358.4   46 290  32  99
   2024 07 21 19:30  22 29 56.94    -09 40 52.9   0.0570 1.0624 143.5  m  20?   0.22   2.8   43 288  32  99
   2024 07 21 19:40  22 29 56.96    -09 40 50.7   0.0570 1.0624 143.5 Am  20?   0.23   7.2   41 286  32  99
   2024 07 21 19:50  22 29 56.98    -09 40 48.5   0.0570 1.0624 143.5 Am  20?   0.23  11.6   39 284  32  99
   2024 07 21 20:00  22 29 57.02    -09 40 46.2   0.0570 1.0624 143.5 Am  20?   0.24  15.9   37 283  31  99
   2024 07 21 20:10  22 29 57.07    -09 40 43.8   0.0570 1.0624 143.5 Nm  20?   0.25  20.2   35 281  31  99
   2024 07 21 20:20  22 29 57.14    -09 40 41.5   0.0570 1.0624 143.6 Nm  20?   0.26  24.3   33 279  31  99
   2024 07 21 20:30  22 29 57.22    -09 40 39.1   0.0569 1.0624 143.6 Nm  20?   0.27  28.1   31 278  31  99
   2024 07 21 20:40  22 29 57.31    -09 40 36.8   0.0569 1.0624 143.6 Cm  20?   0.28  31.8   29 276  31  99
   2024 07 21 20:50  22 29 57.42    -09 40 34.4   0.0569 1.0624 143.6 Cm  20?   0.30  35.3   27 275  31  99
   ................
   2024 07 22 10:10  22 30 37.44    -09 38 20.1   0.0558 1.0616 143.9  r  20?   0.48  83.5    0 101  22  98
   2024 07 22 10:20  22 30 37.76    -09 38 19.6   0.0558 1.0616 143.9  m  20?   0.46  83.2    2  99  21  98
   2024 07 22 10:30  22 30 38.06    -09 38 19.1   0.0558 1.0616 143.9  m  20?   0.43  82.8    4  98  21  98
   2024 07 22 10:40  22 30 38.34    -09 38 18.5   0.0558 1.0616 143.9  m  20?   0.41  82.4    6  97  21  98
   2024 07 22 10:50  22 30 38.61    -09 38 18.0   0.0557 1.0616 144.0  m  20?   0.38  81.8    8  95  21  98
   2024 07 22 11:00  22 30 38.85    -09 38 17.4   0.0557 1.0616 144.0  m  20?   0.36  81.2   10  94  21  98
   2024 07 22 11:10  22 30 39.08    -09 38 16.9   0.0557 1.0616 144.0  m  20?   0.33  80.4   12  93  21  98
   2024 07 22 11:20  22 30 39.30    -09 38 16.3   0.0557 1.0616 144.0  m  20?   0.31  79.5   14  92  21  98
   2024 07 22 11:30  22 30 39.49    -09 38 15.8   0.0557 1.0615 144.0  m  20?   0.28  78.4   17  90  21  98
   2024 07 22 11:40  22 30 39.67    -09 38 15.2   0.0557 1.0615 144.0  m  20?   0.26  77.0   19  89  21  98
   2024 07 22 11:50  22 30 39.83    -09 38 14.6   0.0557 1.0615 144.0  m  20?   0.23  75.4   21  88  21  98
   2024 07 22 12:00  22 30 39.97    -09 38 14.0   0.0556 1.0615 144.0  m  20?   0.21  73.3   23  86  21  98
   2024 07 22 12:10  22 30 40.10    -09 38 13.4   0.0556 1.0615 144.0  m  20?   0.19  70.7   25  85  21  98
   2024 07 22 12:20  22 30 40.21    -09 38 12.8   0.0556 1.0615 144.0  m  20?   0.17  67.5   27  84  21  98
   2024 07 22 12:30  22 30 40.31    -09 38 12.2   0.0556 1.0615 144.0  m  20?   0.15  63.3   29  82  20  98
   2024 07 22 12:40  22 30 40.39    -09 38 11.5   0.0556 1.0615 144.0  m  20?   0.13  57.9   32  81  20  98
   2024 07 22 12:50  22 30 40.45    -09 38 10.8   0.0556 1.0615 144.0  m  20?   0.11  50.8   34  79  20  98
   2024 07 22 13:00  22 30 40.50    -09 38 10.1   0.0555 1.0615 144.0  m  20?   0.10  41.7   36  78  20  98
   2024 07 22 13:10  22 30 40.54    -09 38 09.4   0.0555 1.0614 144.0  m  20?   0.09  30.2   38  76  20  98
   2024 07 22 13:20  22 30 40.56    -09 38 08.6   0.0555 1.0614 144.0  m  20?   0.08  16.9   40  74  20  98
   2024 07 22 13:30  22 30 40.57    -09 38 07.8   0.0555 1.0614 144.1  m  20?   0.08   3.0   42  72  20  98
   2024 07 22 13:40  22 30 40.57    -09 38 07.0   0.0555 1.0614 144.1  m  20?   0.08 350.2   44  70  20  98
   2024 07 22 13:50  22 30 40.55    -09 38 06.2   0.0555 1.0614 144.1  m  20?   0.09 339.7   46  68  20  97
   2024 07 22 14:00  22 30 40.53    -09 38 05.3   0.0555 1.0614 144.1  m  20?   0.10 331.4   48  66  20  97
   2024 07 22 14:10  22 30 40.49    -09 38 04.4   0.0554 1.0614 144.1  m  20?   0.11 325.1   50  64  20  97
   2024 07 22 14:20  22 30 40.44    -09 38 03.4   0.0554 1.0614 144.1  m  20?   0.13 320.4   52  61  20  97
   2024 07 22 14:30  22 30 40.38    -09 38 02.4   0.0554 1.0614 144.1  m  20?   0.14 316.8   54  59  20  97
   2024 07 22 14:40  22 30 40.31    -09 38 01.4   0.0554 1.0614 144.1  m  20?   0.15 314.0   56  56  20  97
   2024 07 22 14:50  22 30 40.24    -09 38 00.4   0.0554 1.0614 144.1  m  20?   0.16 312.0   57  53  20  97
   2024 07 22 15:00  22 30 40.15    -09 37 59.3   0.0554 1.0613 144.1  m  20?   0.17 310.5   59  49  19  97
   2024 07 22 15:10  22 30 40.06    -09 37 58.1   0.0553 1.0613 144.1  m  20?   0.18 309.3   61  45  19  97
   2024 07 22 15:20  22 30 39.96    -09 37 57.0   0.0553 1.0613 144.1  m  20?   0.19 308.5   62  41  19  97
   2024 07 22 15:30  22 30 39.86    -09 37 55.7   0.0553 1.0613 144.1  m  20?   0.20 308.0   63  36  19  97
   2024 07 22 15:40  22 30 39.75    -09 37 54.5   0.0553 1.0613 144.1  m  20?   0.21 307.8   65  31  19  97
   2024 07 22 15:50  22 30 39.64    -09 37 53.2   0.0553 1.0613 144.1  m  20?   0.21 307.7   66  26  19  97
   2024 07 22 16:00  22 30 39.52    -09 37 51.9   0.0553 1.0613 144.2  m  20?   0.22 307.8   66  20  19  97
   2024 07 22 16:10  22 30 39.40    -09 37 50.5   0.0553 1.0613 144.2  m  20?   0.23 308.1   67  14  19  97
   2024 07 22 16:20  22 30 39.28    -09 37 49.1   0.0552 1.0613 144.2  m  20?   0.23 308.6   68   7  19  97
   2024 07 22 16:30  22 30 39.16    -09 37 47.6   0.0552 1.0613 144.2  m  20?   0.23 309.2   68   1  19  97
   2024 07 22 16:40  22 30 39.04    -09 37 46.1   0.0552 1.0613 144.2  t  20?   0.24 310.0   68 354  19  97
   2024 07 22 16:50  22 30 38.91    -09 37 44.5   0.0552 1.0612 144.2  m  20?   0.24 310.9   67 348  19  97
   2024 07 22 17:00  22 30 38.79    -09 37 42.9   0.0552 1.0612 144.2  m  20?   0.24 312.0   67 341  19  97
   2024 07 22 17:10  22 30 38.67    -09 37 41.3   0.0552 1.0612 144.2  m  20?   0.24 313.3   66 335  19  97
   2024 07 22 17:20  22 30 38.55    -09 37 39.6   0.0552 1.0612 144.2  m  20?   0.24 314.8   65 330  18  97
   2024 07 22 17:30  22 30 38.44    -09 37 37.9   0.0551 1.0612 144.2  m  20?   0.24 316.4   64 325  18  97
   2024 07 22 17:40  22 30 38.33    -09 37 36.2   0.0551 1.0612 144.2  m  20?   0.24 318.2   63 320  18  97
   2024 07 22 17:50  22 30 38.23    -09 37 34.4   0.0551 1.0612 144.2  m  20?   0.24 320.3   61 315  18  97
   2024 07 22 18:00  22 30 38.13    -09 37 32.5   0.0551 1.0612 144.2  m  20?   0.23 322.6   60 312  18  97
   2024 07 22 18:10  22 30 38.04    -09 37 30.6   0.0551 1.0612 144.2  m  20?   0.23 325.2   58 308  18  97
   2024 07 22 18:20  22 30 37.95    -09 37 28.7   0.0551 1.0612 144.3  m  20?   0.23 328.0   56 305  18  97
   2024 07 22 18:30  22 30 37.87    -09 37 26.8   0.0551 1.0611 144.3  m  20?   0.23 331.1   54 302  18  97
   2024 07 22 18:40  22 30 37.80    -09 37 24.8   0.0551 1.0611 144.3  m  20?   0.22 334.5   53 299  18  97
   2024 07 22 18:50  22 30 37.74    -09 37 22.7   0.0550 1.0611 144.3  m  20?   0.22 338.2   51 296  18  97
   2024 07 22 19:00  22 30 37.69    -09 37 20.7   0.0550 1.0611 144.3  m  20?   0.22 342.1   49 294  18  97
   2024 07 22 19:10  22 30 37.65    -09 37 18.6   0.0550 1.0611 144.3  m  20?   0.22 346.4   47 291  18  97
   2024 07 22 19:20  22 30 37.63    -09 37 16.4   0.0550 1.0611 144.3  m  20?   0.22 350.9   45 289  17  97
   2024 07 22 19:30  22 30 37.61    -09 37 14.3   0.0550 1.0611 144.3  m  20?   0.22 355.6   43 287  17  97
   2024 07 22 19:40  22 30 37.60    -09 37 12.1   0.0550 1.0611 144.3 Am  20?   0.22   0.5   41 286  17  97
   2024 07 22 19:50  22 30 37.61    -09 37 09.9   0.0550 1.0611 144.3 Am  20?   0.22   5.4   39 284  17  97
   2024 07 22 20:00  22 30 37.63    -09 37 07.6   0.0549 1.0611 144.3 Am  20?   0.23  10.3   37 282  17  97
   2024 07 22 20:10  22 30 37.67    -09 37 05.3   0.0549 1.0611 144.3 Nm  20?   0.24  15.1   34 280  17  97
   2024 07 22 20:20  22 30 37.72    -09 37 03.0   0.0549 1.0610 144.3 Nm  20?   0.25  19.8   32 279  17  97
   2024 07 22 20:30  22 30 37.78    -09 37 00.7   0.0549 1.0610 144.3 Nm  20?   0.26  24.3   30 277  17  97
   2024 07 22 20:40  22 30 37.86    -09 36 58.4   0.0549 1.0610 144.3 Cm  20?   0.27  28.5   28 276  17  97
   2024 07 22 20:50  22 30 37.95    -09 36 56.0   0.0549 1.0610 144.3 Cm  20?   0.28  32.5   26 275  17  97
   ................
   2024 07 23 10:10  22 31 17.71    -09 34 47.8   0.0538 1.0603 144.7  m  20?   0.46  84.5    0 100   8  94
   2024 07 23 10:20  22 31 18.01    -09 34 47.4   0.0538 1.0603 144.7  m  20?   0.43  84.2    2  99   8  94
   2024 07 23 10:30  22 31 18.29    -09 34 47.0   0.0537 1.0602 144.7  m  20?   0.41  83.8    4  98   8  94
   2024 07 23 10:40  22 31 18.56    -09 34 46.5   0.0537 1.0602 144.7  m  20?   0.38  83.4    7  96   8  94
   2024 07 23 10:50  22 31 18.80    -09 34 46.1   0.0537 1.0602 144.7  m  20?   0.35  82.9    9  95   7  93
   2024 07 23 11:00  22 31 19.03    -09 34 45.7   0.0537 1.0602 144.7  m  20?   0.33  82.2   11  94   7  93
   2024 07 23 11:10  22 31 19.24    -09 34 45.2   0.0537 1.0602 144.7  m  20?   0.30  81.4   13  92   7  93
   2024 07 23 11:20  22 31 19.43    -09 34 44.8   0.0537 1.0602 144.8  m  20?   0.27  80.4   15  91   7  93
   2024 07 23 11:30  22 31 19.60    -09 34 44.3   0.0537 1.0602 144.8  m  20?   0.25  79.2   17  90   7  93
   2024 07 23 11:40  22 31 19.76    -09 34 43.9   0.0536 1.0602 144.8  m  20?   0.22  77.6   19  89   7  93
   2024 07 23 11:50  22 31 19.90    -09 34 43.4   0.0536 1.0602 144.8  m  20?   0.20  75.7   22  87   7  93
   2024 07 23 12:00  22 31 20.02    -09 34 42.9   0.0536 1.0602 144.8  m  20?   0.17  73.1   24  86   7  93
   2024 07 23 12:10  22 31 20.12    -09 34 42.4   0.0536 1.0602 144.8  m  20?   0.15  69.8   26  85   7  93
   2024 07 23 12:20  22 31 20.21    -09 34 41.8   0.0536 1.0601 144.8  m  20?   0.13  65.3   28  83   7  93
   2024 07 23 12:30  22 31 20.28    -09 34 41.3   0.0536 1.0601 144.8  m  20?   0.11  59.1   30  82   7  93
   2024 07 23 12:40  22 31 20.34    -09 34 40.7   0.0535 1.0601 144.8  m  20?   0.09  50.3   32  80   7  93
   2024 07 23 12:50  22 31 20.38    -09 34 40.1   0.0535 1.0601 144.8  m  20?   0.08  38.1   34  79   6  93
   2024 07 23 13:00  22 31 20.40    -09 34 39.5   0.0535 1.0601 144.8  m  20?   0.07  22.1   36  77   6  93
   2024 07 23 13:10  22 31 20.41    -09 34 38.9   0.0535 1.0601 144.8  m  20?   0.07   3.7   38  75   6  93
   2024 07 23 13:20  22 31 20.41    -09 34 38.2   0.0535 1.0601 144.8  m  20?   0.07 346.6   41  74   6  93
   2024 07 23 13:30  22 31 20.39    -09 34 37.5   0.0535 1.0601 144.8  m  20?   0.08 333.2   43  72   6  93
   2024 07 23 13:40  22 31 20.36    -09 34 36.8   0.0535 1.0601 144.8  m  20?   0.09 323.6   45  70   6  93
   2024 07 23 13:50  22 31 20.31    -09 34 36.0   0.0534 1.0601 144.8  m  20?   0.11 316.8   47  68   6  93
   2024 07 23 14:00  22 31 20.26    -09 34 35.2   0.0534 1.0600 144.9  m  20?   0.12 312.0   49  65   6  93
   2024 07 23 14:10  22 31 20.19    -09 34 34.4   0.0534 1.0600 144.9  m  20?   0.14 308.5   51  63   6  93
   2024 07 23 14:20  22 31 20.12    -09 34 33.5   0.0534 1.0600 144.9  m  20?   0.15 305.9   52  60   6  93
   2024 07 23 14:30  22 31 20.03    -09 34 32.6   0.0534 1.0600 144.9  m  20?   0.16 304.0   54  58   6  93
   2024 07 23 14:40  22 31 19.93    -09 34 31.7   0.0534 1.0600 144.9  m  20?   0.18 302.7   56  55   6  93
   2024 07 23 14:50  22 31 19.83    -09 34 30.7   0.0533 1.0600 144.9  m  20?   0.19 301.7   58  51   6  93
   2024 07 23 15:00  22 31 19.71    -09 34 29.7   0.0533 1.0600 144.9  m  20?   0.20 300.9   59  48   6  93
   2024 07 23 15:10  22 31 19.59    -09 34 28.6   0.0533 1.0600 144.9  m  20?   0.21 300.5   61  44   6  93
   2024 07 23 15:20  22 31 19.47    -09 34 27.5   0.0533 1.0600 144.9  m  20?   0.22 300.2   62  39   5  93
   2024 07 23 15:30  22 31 19.33    -09 34 26.4   0.0533 1.0600 144.9  m  20?   0.23 300.1   64  35   5  93
   2024 07 23 15:40  22 31 19.20    -09 34 25.2   0.0533 1.0600 144.9  m  20?   0.24 300.2   65  30   5  93
   2024 07 23 15:50  22 31 19.06    -09 34 23.9   0.0533 1.0599 144.9  m  20?   0.25 300.4   66  24   5  93
   2024 07 23 16:00  22 31 18.91    -09 34 22.7   0.0532 1.0599 144.9  m  20?   0.25 300.7   67  18   5  93
   2024 07 23 16:10  22 31 18.76    -09 34 21.4   0.0532 1.0599 144.9  m  20?   0.26 301.2   67  12   5  93
   2024 07 23 16:20  22 31 18.61    -09 34 20.0   0.0532 1.0599 145.0  m  20?   0.26 301.8   68   5   5  93
   2024 07 23 16:30  22 31 18.46    -09 34 18.6   0.0532 1.0599 145.0  t  20?   0.26 302.5   68 359   5  92
   2024 07 23 16:40  22 31 18.31    -09 34 17.2   0.0532 1.0599 145.0  m  20?   0.27 303.3   68 352   5  92
   2024 07 23 16:50  22 31 18.16    -09 34 15.7   0.0532 1.0599 145.0  m  20?   0.27 304.3   67 346   5  92
   2024 07 23 17:00  22 31 18.01    -09 34 14.1   0.0532 1.0599 145.0  m  20?   0.27 305.4   66 339   5  92
   2024 07 23 17:10  22 31 17.87    -09 34 12.6   0.0531 1.0599 145.0  m  20?   0.27 306.6   66 334   5  92
   2024 07 23 17:20  22 31 17.72    -09 34 10.9   0.0531 1.0599 145.0  m  20?   0.27 308.0   65 328   5  92
   2024 07 23 17:30  22 31 17.58    -09 34 09.3   0.0531 1.0598 145.0  m  20?   0.26 309.5   63 323   4  92
   2024 07 23 17:40  22 31 17.45    -09 34 07.6   0.0531 1.0598 145.0  m  20?   0.26 311.3   62 318   4  92
   2024 07 23 17:50  22 31 17.32    -09 34 05.8   0.0531 1.0598 145.0  m  20?   0.26 313.2   61 314   4  92
   2024 07 23 18:00  22 31 17.20    -09 34 04.0   0.0531 1.0598 145.0  m  20?   0.25 315.4   59 310   4  92
   2024 07 23 18:10  22 31 17.08    -09 34 02.2   0.0531 1.0598 145.0  m  20?   0.25 317.7   57 307   4  92
   2024 07 23 18:20  22 31 16.97    -09 34 00.3   0.0531 1.0598 145.0  m  20?   0.24 320.4   56 304   4  92
   2024 07 23 18:30  22 31 16.87    -09 33 58.4   0.0530 1.0598 145.0  m  20?   0.24 323.4   54 301   4  92
   2024 07 23 18:40  22 31 16.78    -09 33 56.5   0.0530 1.0598 145.1  m  20?   0.23 326.6   52 298   4  92
   2024 07 23 18:50  22 31 16.70    -09 33 54.5   0.0530 1.0598 145.1  m  20?   0.23 330.2   50 295   4  92
   2024 07 23 19:00  22 31 16.62    -09 33 52.5   0.0530 1.0598 145.1  m  20?   0.23 334.1   48 293   4  92
   2024 07 23 19:10  22 31 16.56    -09 33 50.4   0.0530 1.0598 145.1  m  20?   0.22 338.4   46 291   4  92
   2024 07 23 19:20  22 31 16.51    -09 33 48.3   0.0530 1.0597 145.1  m  20?   0.22 343.0   44 289   4  92
   2024 07 23 19:30  22 31 16.48    -09 33 46.2   0.0530 1.0597 145.1  m  20?   0.22 347.9   42 287   4  92
   2024 07 23 19:40  22 31 16.45    -09 33 44.1   0.0530 1.0597 145.1 Am  20?   0.22 353.1   40 285   4  92
   2024 07 23 19:50  22 31 16.44    -09 33 41.9   0.0529 1.0597 145.1 Am  20?   0.22 358.5   38 283   4  92
   2024 07 23 20:00  22 31 16.45    -09 33 39.7   0.0529 1.0597 145.1 Am  20?   0.22   3.9   36 282   3  92
   2024 07 23 20:10  22 31 16.46    -09 33 37.4   0.0529 1.0597 145.1 Nm  20?   0.23   9.4   34 280   3  92
   2024 07 23 20:20  22 31 16.50    -09 33 35.2   0.0529 1.0597 145.1 Nm  20?   0.23  14.7   32 278   3  92
   2024 07 23 20:30  22 31 16.54    -09 33 32.9   0.0529 1.0597 145.1 Nm  20?   0.24  19.8   30 277   3  92
   2024 07 23 20:40  22 31 16.61    -09 33 30.6   0.0529 1.0597 145.1 Cm  20?   0.25  24.7   27 276   3  92
   2024 07 23 20:50  22 31 16.69    -09 33 28.3   0.0529 1.0597 145.1 Cm  20?   0.27  29.2   25 274   3  92
   ................
   2024 07 24 10:10  22 31 56.17    -09 31 26.7   0.0518 1.0589 145.5     20?   0.43  85.7    1 100   7  87
   2024 07 24 10:20  22 31 56.45    -09 31 26.3   0.0517 1.0589 145.5     20?   0.40  85.4    3  98   7  87
   2024 07 24 10:30  22 31 56.71    -09 31 26.0   0.0517 1.0589 145.5  m  20?   0.38  85.1    5  97   8  87
   2024 07 24 10:40  22 31 56.95    -09 31 25.7   0.0517 1.0589 145.5  m  20?   0.35  84.7    7  96   8  87
   2024 07 24 10:50  22 31 57.18    -09 31 25.4   0.0517 1.0588 145.5  m  20?   0.32  84.2    9  95   8  87
   2024 07 24 11:00  22 31 57.39    -09 31 25.1   0.0517 1.0588 145.5  m  20?   0.29  83.5   12  93   8  87
   2024 07 24 11:10  22 31 57.57    -09 31 24.7   0.0517 1.0588 145.5  m  20?   0.27  82.7   14  92   8  87
   2024 07 24 11:20  22 31 57.74    -09 31 24.4   0.0517 1.0588 145.5  m  20?   0.24  81.7   16  91   8  87
   2024 07 24 11:30  22 31 57.89    -09 31 24.0   0.0516 1.0588 145.5  m  20?   0.21  80.3   18  89   8  86
   2024 07 24 11:40  22 31 58.02    -09 31 23.7   0.0516 1.0588 145.6  m  20?   0.19  78.6   20  88   8  86
   2024 07 24 11:50  22 31 58.14    -09 31 23.3   0.0516 1.0588 145.6  m  20?   0.16  76.2   22  87   8  86
   2024 07 24 12:00  22 31 58.24    -09 31 22.9   0.0516 1.0588 145.6  m  20?   0.14  72.9   24  85   8  86
   2024 07 24 12:10  22 31 58.31    -09 31 22.5   0.0516 1.0588 145.6  m  20?   0.11  68.2   26  84   8  86
   2024 07 24 12:20  22 31 58.38    -09 31 22.1   0.0516 1.0588 145.6  m  20?   0.09  61.0   29  83   8  86
   2024 07 24 12:30  22 31 58.42    -09 31 21.6   0.0515 1.0588 145.6  m  20?   0.07  49.8   31  81   9  86
   2024 07 24 12:40  22 31 58.45    -09 31 21.2   0.0515 1.0587 145.6  m  20?   0.06  32.1   33  80   9  86
   2024 07 24 12:50  22 31 58.46    -09 31 20.7   0.0515 1.0587 145.6  m  20?   0.05   7.7   35  78   9  86
   2024 07 24 13:00  22 31 58.46    -09 31 20.2   0.0515 1.0587 145.6  m  20?   0.06 343.5   37  76   9  86
   2024 07 24 13:10  22 31 58.44    -09 31 19.6   0.0515 1.0587 145.6  m  20?   0.07 326.1   39  75   9  86
   2024 07 24 13:20  22 31 58.41    -09 31 19.0   0.0515 1.0587 145.6  m  20?   0.08 315.1   41  73   9  86
   2024 07 24 13:30  22 31 58.36    -09 31 18.4   0.0515 1.0587 145.6  m  20?   0.10 308.1   43  71   9  86
   2024 07 24 13:40  22 31 58.30    -09 31 17.8   0.0514 1.0587 145.6  m  20?   0.12 303.6   45  69   9  86
   2024 07 24 13:50  22 31 58.23    -09 31 17.1   0.0514 1.0587 145.6  m  20?   0.14 300.4   47  67   9  86
   2024 07 24 14:00  22 31 58.14    -09 31 16.4   0.0514 1.0587 145.6  m  20?   0.15 298.2   49  65   9  86
   2024 07 24 14:10  22 31 58.05    -09 31 15.7   0.0514 1.0587 145.6  m  20?   0.17 296.7   51  62   9  86
   2024 07 24 14:20  22 31 57.94    -09 31 14.9   0.0514 1.0586 145.7  m  20?   0.18 295.5   53  59  10  86
   2024 07 24 14:30  22 31 57.82    -09 31 14.1   0.0514 1.0586 145.7  m  20?   0.20 294.7   55  57  10  86
   2024 07 24 14:40  22 31 57.70    -09 31 13.2   0.0513 1.0586 145.7  m  20?   0.21 294.2   57  54  10  86
   2024 07 24 14:50  22 31 57.56    -09 31 12.3   0.0513 1.0586 145.7  m  20?   0.23 293.8   58  50  10  86
   2024 07 24 15:00  22 31 57.42    -09 31 11.4   0.0513 1.0586 145.7  m  20?   0.24 293.6   60  46  10  86
   2024 07 24 15:10  22 31 57.26    -09 31 10.4   0.0513 1.0586 145.7  m  20?   0.25 293.6   61  42  10  86
   2024 07 24 15:20  22 31 57.11    -09 31 09.4   0.0513 1.0586 145.7  m  20?   0.26 293.7   63  38  10  85
   2024 07 24 15:30  22 31 56.94    -09 31 08.3   0.0513 1.0586 145.7  m  20?   0.27 293.8   64  33  10  85
   2024 07 24 15:40  22 31 56.78    -09 31 07.2   0.0513 1.0586 145.7  m  20?   0.28 294.1   65  28  10  85
   2024 07 24 15:50  22 31 56.60    -09 31 06.0   0.0512 1.0586 145.7  m  20?   0.28 294.5   66  22  10  85
   2024 07 24 16:00  22 31 56.43    -09 31 04.8   0.0512 1.0585 145.7  m  20?   0.29 294.9   67  16  10  85
   2024 07 24 16:10  22 31 56.25    -09 31 03.6   0.0512 1.0585 145.7  m  20?   0.29 295.5   67  10  10  85
   2024 07 24 16:20  22 31 56.07    -09 31 02.3   0.0512 1.0585 145.7  m  20?   0.30 296.1   68   3  10  85
   2024 07 24 16:30  22 31 55.89    -09 31 01.0   0.0512 1.0585 145.8  t  20?   0.30 296.9   68 356  10  85
   2024 07 24 16:40  22 31 55.71    -09 30 59.6   0.0512 1.0585 145.8  m  20?   0.30 297.7   67 350  10  85
   2024 07 24 16:50  22 31 55.53    -09 30 58.2   0.0512 1.0585 145.8  m  20?   0.30 298.6   67 344  10  85
   2024 07 24 17:00  22 31 55.35    -09 30 56.7   0.0511 1.0585 145.8  m  20?   0.30 299.7   66 337  10  85
   2024 07 24 17:10  22 31 55.18    -09 30 55.2   0.0511 1.0585 145.8  m  20?   0.30 300.8   65 332  10  85
   2024 07 24 17:20  22 31 55.01    -09 30 53.6   0.0511 1.0585 145.8  m  20?   0.30 302.1   64 326  10  85
   2024 07 24 17:30  22 31 54.84    -09 30 52.0   0.0511 1.0585 145.8  m  20?   0.29 303.5   63 322  10  85
   2024 07 24 17:40  22 31 54.68    -09 30 50.4   0.0511 1.0585 145.8  m  20?   0.29 305.1   62 317  10  85
   2024 07 24 17:50  22 31 54.52    -09 30 48.7   0.0511 1.0584 145.8  m  20?   0.28 306.9   60 313  10  85
   2024 07 24 18:00  22 31 54.37    -09 30 46.9   0.0511 1.0584 145.8  m  20?   0.28 308.9   58 309  11  85
   2024 07 24 18:10  22 31 54.23    -09 30 45.2   0.0511 1.0584 145.8  m  20?   0.27 311.0   57 306  11  85
   2024 07 24 18:20  22 31 54.09    -09 30 43.4   0.0510 1.0584 145.8  m  20?   0.27 313.5   55 303  11  85
   2024 07 24 18:30  22 31 53.97    -09 30 41.5   0.0510 1.0584 145.8  m  20?   0.26 316.2   53 300  11  85
   2024 07 24 18:40  22 31 53.85    -09 30 39.6   0.0510 1.0584 145.8  m  20?   0.25 319.2   51 297  11  85
   2024 07 24 18:50  22 31 53.75    -09 30 37.7   0.0510 1.0584 145.9  m  20?   0.25 322.6   49 295  11  85
   2024 07 24 19:00  22 31 53.65    -09 30 35.7   0.0510 1.0584 145.9  m  20?   0.24 326.3   47 292  11  85
   2024 07 24 19:10  22 31 53.57    -09 30 33.7   0.0510 1.0584 145.9  m  20?   0.23 330.4   45 290  11  85
   2024 07 24 19:20  22 31 53.50    -09 30 31.7   0.0510 1.0584 145.9  m  20?   0.23 335.0   43 288  11  85
   2024 07 24 19:30  22 31 53.44    -09 30 29.6   0.0510 1.0583 145.9  m  20?   0.22 339.9   41 286  11  85
   2024 07 24 19:40  22 31 53.39    -09 30 27.5   0.0509 1.0583 145.9 Am  20?   0.22 345.3   39 284  11  84
   2024 07 24 19:50  22 31 53.36    -09 30 25.4   0.0509 1.0583 145.9 Am  20?   0.22 350.9   37 283  11  84
   2024 07 24 20:00  22 31 53.35    -09 30 23.2   0.0509 1.0583 145.9 Am  20?   0.22 356.8   35 281  11  84
   2024 07 24 20:10  22 31 53.35    -09 30 21.0   0.0509 1.0583 145.9 Nm  19?   0.22   2.8   33 280  11  84
   2024 07 24 20:20  22 31 53.36    -09 30 18.8   0.0509 1.0583 145.9 Nm  19?   0.23   8.8   31 278  12  84
   2024 07 24 20:30  22 31 53.39    -09 30 16.6   0.0509 1.0583 145.9 Nm  19?   0.23  14.6   29 277  12  84
   2024 07 24 20:40  22 31 53.44    -09 30 14.3   0.0509 1.0583 145.9 Cm  19?   0.24  20.2   27 275  12  84
   2024 07 24 20:50  22 31 53.51    -09 30 12.0   0.0509 1.0583 145.9 Cm  19?   0.25  25.4   25 274  12  84
   ................
   2024 07 25 10:00  22 32 32.41    -09 28 17.7   0.0498 1.0575 146.3  r  19?   0.43  87.2    0 100  21  78
   2024 07 25 10:10  22 32 32.69    -09 28 17.5   0.0498 1.0575 146.3     19?   0.40  87.1    2  99  21  78
   2024 07 25 10:20  22 32 32.95    -09 28 17.3   0.0497 1.0575 146.3     19?   0.37  86.9    4  98  21  78
   2024 07 25 10:30  22 32 33.20    -09 28 17.2   0.0497 1.0575 146.3     19?   0.35  86.7    6  97  21  78
   2024 07 25 10:40  22 32 33.42    -09 28 17.0   0.0497 1.0575 146.3     19?   0.32  86.4    8  95  21  78
   2024 07 25 10:50  22 32 33.62    -09 28 16.8   0.0497 1.0574 146.3     19?   0.29  85.9   10  94  21  78
   2024 07 25 11:00  22 32 33.81    -09 28 16.6   0.0497 1.0574 146.3     19?   0.26  85.4   12  93  22  78
   2024 07 25 11:10  22 32 33.97    -09 28 16.3   0.0497 1.0574 146.3     19?   0.23  84.6   14  92  22  78
   2024 07 25 11:20  22 32 34.11    -09 28 16.1   0.0496 1.0574 146.3     19?   0.20  83.6   16  90  22  78
   2024 07 25 11:30  22 32 34.24    -09 28 15.9   0.0496 1.0574 146.3     19?   0.17  82.2   19  89  22  78
   2024 07 25 11:40  22 32 34.35    -09 28 15.7   0.0496 1.0574 146.3  m  19?   0.15  80.2   21  88  22  78
   2024 07 25 11:50  22 32 34.44    -09 28 15.4   0.0496 1.0574 146.4  m  19?   0.12  77.2   23  86  22  77
   2024 07 25 12:00  22 32 34.51    -09 28 15.1   0.0496 1.0574 146.4  m  19?   0.09  72.5   25  85  22  77
   2024 07 25 12:10  22 32 34.56    -09 28 14.8   0.0496 1.0574 146.4  m  19?   0.07  64.5   27  84  22  77
   2024 07 25 12:20  22 32 34.59    -09 28 14.5   0.0496 1.0574 146.4  m  19?   0.05  49.1   29  82  22  77
   2024 07 25 12:30  22 32 34.61    -09 28 14.2   0.0495 1.0573 146.4  m  19?   0.04  19.1   31  81  22  77
   2024 07 25 12:40  22 32 34.61    -09 28 13.8   0.0495 1.0573 146.4  m  19?   0.04 341.0   34  79  23  77
   2024 07 25 12:50  22 32 34.59    -09 28 13.4   0.0495 1.0573 146.4  m  19?   0.05 317.1   36  77  23  77
   2024 07 25 13:00  22 32 34.56    -09 28 13.0   0.0495 1.0573 146.4  m  19?   0.07 305.2   38  76  23  77
   2024 07 25 13:10  22 32 34.51    -09 28 12.6   0.0495 1.0573 146.4  m  19?   0.09 298.8   40  74  23  77
   2024 07 25 13:20  22 32 34.45    -09 28 12.1   0.0495 1.0573 146.4  m  19?   0.11 294.9   42  72  23  77
   2024 07 25 13:30  22 32 34.37    -09 28 11.6   0.0494 1.0573 146.4  m  19?   0.14 292.5   44  70  23  77
   2024 07 25 13:40  22 32 34.28    -09 28 11.1   0.0494 1.0573 146.4  m  19?   0.16 290.8   46  68  23  77
   2024 07 25 13:50  22 32 34.17    -09 28 10.5   0.0494 1.0573 146.4  m  19?   0.17 289.7   48  66  23  77
   2024 07 25 14:00  22 32 34.06    -09 28 09.9   0.0494 1.0573 146.4  m  19?   0.19 288.9   50  64  23  77
   2024 07 25 14:10  22 32 33.93    -09 28 09.3   0.0494 1.0573 146.4  m  19?   0.21 288.4   52  61  23  77
   2024 07 25 14:20  22 32 33.79    -09 28 08.6   0.0494 1.0572 146.5  m  19?   0.23 288.1   54  58  23  77
   2024 07 25 14:30  22 32 33.64    -09 28 07.8   0.0494 1.0572 146.5  m  19?   0.24 287.9   55  56  24  76
   2024 07 25 14:40  22 32 33.48    -09 28 07.1   0.0493 1.0572 146.5  m  19?   0.26 287.8   57  52  24  76
   2024 07 25 14:50  22 32 33.31    -09 28 06.3   0.0493 1.0572 146.5  m  19?   0.27 287.9   59  49  24  76
   2024 07 25 15:00  22 32 33.13    -09 28 05.4   0.0493 1.0572 146.5  m  19?   0.28 288.0   60  45  24  76
   2024 07 25 15:10  22 32 32.95    -09 28 04.5   0.0493 1.0572 146.5  m  19?   0.29 288.2   62  41  24  76
   2024 07 25 15:20  22 32 32.76    -09 28 03.6   0.0493 1.0572 146.5  m  19?   0.30 288.5   63  36  24  76
   2024 07 25 15:30  22 32 32.56    -09 28 02.6   0.0493 1.0572 146.5  m  19?   0.31 288.8   64  31  24  76
   2024 07 25 15:40  22 32 32.36    -09 28 01.6   0.0493 1.0572 146.5  m  19?   0.32 289.2   65  26  24  76
   2024 07 25 15:50  22 32 32.16    -09 28 00.5   0.0492 1.0572 146.5  m  19?   0.32 289.7   66  20  24  76
   2024 07 25 16:00  22 32 31.95    -09 27 59.4   0.0492 1.0571 146.5  m  19?   0.33 290.2   67  14  24  76
   2024 07 25 16:10  22 32 31.74    -09 27 58.2   0.0492 1.0571 146.5  m  19?   0.33 290.8   67   7  24  76
   2024 07 25 16:20  22 32 31.53    -09 27 57.0   0.0492 1.0571 146.5  m  19?   0.34 291.4   68   1  24  76
   2024 07 25 16:30  22 32 31.32    -09 27 55.7   0.0492 1.0571 146.6  t  19?   0.34 292.2   67 354  24  76
   2024 07 25 16:40  22 32 31.10    -09 27 54.4   0.0492 1.0571 146.6  m  19?   0.34 293.0   67 348  24  76
   2024 07 25 16:50  22 32 30.89    -09 27 53.1   0.0492 1.0571 146.6  m  19?   0.34 293.8   67 341  25  76
   2024 07 25 17:00  22 32 30.69    -09 27 51.7   0.0491 1.0571 146.6  m  19?   0.34 294.8   66 336  25  76
   2024 07 25 17:10  22 32 30.48    -09 27 50.2   0.0491 1.0571 146.6  m  19?   0.34 295.9   65 330  25  76
   2024 07 25 17:20  22 32 30.28    -09 27 48.7   0.0491 1.0571 146.6  m  19?   0.33 297.1   64 325  25  76
   2024 07 25 17:30  22 32 30.08    -09 27 47.2   0.0491 1.0571 146.6  m  19?   0.33 298.4   62 320  25  76
   2024 07 25 17:40  22 32 29.89    -09 27 45.6   0.0491 1.0570 146.6  m  19?   0.32 299.8   61 316  25  76
   2024 07 25 17:50  22 32 29.70    -09 27 44.0   0.0491 1.0570 146.6  m  19?   0.32 301.4   59 312  25  76
   2024 07 25 18:00  22 32 29.53    -09 27 42.3   0.0491 1.0570 146.6  m  19?   0.31 303.1   58 308  25  75
   2024 07 25 18:10  22 32 29.36    -09 27 40.6   0.0491 1.0570 146.6  m  19?   0.30 305.1   56 305  25  75
   2024 07 25 18:20  22 32 29.19    -09 27 38.8   0.0490 1.0570 146.6  m  19?   0.29 307.3   54 302  25  75
   2024 07 25 18:30  22 32 29.04    -09 27 37.0   0.0490 1.0570 146.6  m  19?   0.28 309.7   53 299  25  75
   2024 07 25 18:40  22 32 28.90    -09 27 35.2   0.0490 1.0570 146.6  m  19?   0.27 312.5   51 296  25  75
   2024 07 25 18:50  22 32 28.77    -09 27 33.3   0.0490 1.0570 146.7  m  19?   0.27 315.5   49 294  25  75
   2024 07 25 19:00  22 32 28.65    -09 27 31.4   0.0490 1.0570 146.7  m  19?   0.26 318.9   47 292  25  75
   2024 07 25 19:10  22 32 28.54    -09 27 29.5   0.0490 1.0570 146.7  m  19?   0.25 322.8   45 290  25  75
   2024 07 25 19:20  22 32 28.45    -09 27 27.5   0.0490 1.0569 146.7  m  19?   0.24 327.1   43 288  26  75
   2024 07 25 19:30  22 32 28.37    -09 27 25.5   0.0490 1.0569 146.7  m  19?   0.23 331.8   41 286  26  75
   2024 07 25 19:40  22 32 28.30    -09 27 23.4   0.0489 1.0569 146.7 Am  19?   0.22 337.1   39 284  26  75
   2024 07 25 19:50  22 32 28.25    -09 27 21.3   0.0489 1.0569 146.7 Am  19?   0.22 342.8   37 282  26  75
   2024 07 25 20:00  22 32 28.21    -09 27 19.2   0.0489 1.0569 146.7 Am  19?   0.22 348.9   34 281  26  75
   2024 07 25 20:10  22 32 28.20    -09 27 17.1   0.0489 1.0569 146.7 Nm  19?   0.22 355.4   32 279  26  75
   2024 07 25 20:20  22 32 28.19    -09 27 14.9   0.0489 1.0569 146.7 Nm  19?   0.22   2.0   30 278  26  75
   2024 07 25 20:30  22 32 28.21    -09 27 12.8   0.0489 1.0569 146.7 Cm  19?   0.22   8.5   28 276  26  75
   2024 07 25 20:40  22 32 28.24    -09 27 10.5   0.0489 1.0569 146.7 Cm  19?   0.23  14.9   26 275  26  75
   ................
   2024 07 26 10:00  22 33 06.89    -09 25 21.7   0.0478 1.0561 147.1     19?   0.40  89.0    0 100  35  68
   2024 07 26 10:10  22 33 07.16    -09 25 21.6   0.0478 1.0561 147.1     19?   0.37  89.0    2  99  35  68
   2024 07 26 10:20  22 33 07.40    -09 25 21.5   0.0477 1.0561 147.1     19?   0.34  88.9    4  97  35  68
   2024 07 26 10:30  22 33 07.62    -09 25 21.5   0.0477 1.0560 147.1     19?   0.31  88.8    6  96  35  68
   2024 07 26 10:40  22 33 07.82    -09 25 21.4   0.0477 1.0560 147.1     19?   0.28  88.6    9  95  36  68
   2024 07 26 10:50  22 33 08.00    -09 25 21.4   0.0477 1.0560 147.1     19?   0.25  88.4   11  94  36  68
   2024 07 26 11:00  22 33 08.16    -09 25 21.3   0.0477 1.0560 147.1     19?   0.22  88.0   13  92  36  68
   2024 07 26 11:10  22 33 08.30    -09 25 21.2   0.0477 1.0560 147.1     19?   0.19  87.5   15  91  36  67
   2024 07 26 11:20  22 33 08.42    -09 25 21.1   0.0477 1.0560 147.1     19?   0.16  86.6   17  90  36  67
   2024 07 26 11:30  22 33 08.52    -09 25 21.0   0.0476 1.0560 147.1     19?   0.13  85.3   19  88  36  67
   2024 07 26 11:40  22 33 08.60    -09 25 20.9   0.0476 1.0560 147.2     19?   0.10  83.3   21  87  36  67
   2024 07 26 11:50  22 33 08.66    -09 25 20.8   0.0476 1.0560 147.2     19?   0.08  79.5   24  86  36  67
   2024 07 26 12:00  22 33 08.70    -09 25 20.6   0.0476 1.0560 147.2     19?   0.05  71.6   26  84  36  67
   2024 07 26 12:10  22 33 08.72    -09 25 20.5   0.0476 1.0559 147.2     19?   0.03  48.1   28  83  37  67
   2024 07 26 12:20  22 33 08.73    -09 25 20.3   0.0476 1.0559 147.2     19?   0.02 340.5   30  82  37  67
   2024 07 26 12:30  22 33 08.71    -09 25 20.1   0.0476 1.0559 147.2     19?   0.04 303.9   32  80  37  67
   2024 07 26 12:40  22 33 08.68    -09 25 19.8   0.0475 1.0559 147.2     19?   0.06 293.0   34  78  37  67
   2024 07 26 12:50  22 33 08.63    -09 25 19.6   0.0475 1.0559 147.2  m  19?   0.09 288.4   36  77  37  67
   2024 07 26 13:00  22 33 08.57    -09 25 19.3   0.0475 1.0559 147.2  m  19?   0.11 285.9   38  75  37  67
   2024 07 26 13:10  22 33 08.49    -09 25 18.9   0.0475 1.0559 147.2  m  19?   0.14 284.5   40  73  37  66
   2024 07 26 13:20  22 33 08.39    -09 25 18.6   0.0475 1.0559 147.2  m  19?   0.16 283.6   43  72  37  66
   2024 07 26 13:30  22 33 08.28    -09 25 18.2   0.0475 1.0559 147.2  m  19?   0.18 283.1   45  70  37  66
   2024 07 26 13:40  22 33 08.16    -09 25 17.8   0.0474 1.0559 147.2  m  19?   0.20 282.7   47  67  37  66
   2024 07 26 13:50  22 33 08.02    -09 25 17.3   0.0474 1.0558 147.2  m  19?   0.22 282.6   49  65  37  66
   2024 07 26 14:00  22 33 07.87    -09 25 16.8   0.0474 1.0558 147.2  m  19?   0.24 282.5   50  63  38  66
   2024 07 26 14:10  22 33 07.70    -09 25 16.3   0.0474 1.0558 147.3  m  19?   0.26 282.5   52  60  38  66
   2024 07 26 14:20  22 33 07.53    -09 25 15.7   0.0474 1.0558 147.3  m  19?   0.27 282.6   54  57  38  66
   2024 07 26 14:30  22 33 07.34    -09 25 15.1   0.0474 1.0558 147.3  m  19?   0.29 282.8   56  54  38  66
   2024 07 26 14:40  22 33 07.15    -09 25 14.4   0.0474 1.0558 147.3  m  19?   0.30 283.0   58  51  38  66
   2024 07 26 14:50  22 33 06.95    -09 25 13.7   0.0473 1.0558 147.3  m  19?   0.32 283.3   59  48  38  66
   2024 07 26 15:00  22 33 06.73    -09 25 12.9   0.0473 1.0558 147.3  m  19?   0.33 283.6   61  44  38  66
   2024 07 26 15:10  22 33 06.52    -09 25 12.1   0.0473 1.0558 147.3  m  19?   0.34 283.9   62  39  38  66
   2024 07 26 15:20  22 33 06.29    -09 25 11.3   0.0473 1.0558 147.3  m  19?   0.35 284.3   64  35  38  66
   2024 07 26 15:30  22 33 06.06    -09 25 10.4   0.0473 1.0557 147.3  m  19?   0.36 284.7   65  29  38  66
   2024 07 26 15:40  22 33 05.82    -09 25 09.4   0.0473 1.0557 147.3  m  19?   0.37 285.2   66  24  38  65
   2024 07 26 15:50  22 33 05.58    -09 25 08.5   0.0473 1.0557 147.3  m  19?   0.37 285.7   67  18  38  65
   2024 07 26 16:00  22 33 05.34    -09 25 07.4   0.0472 1.0557 147.3  m  19?   0.38 286.3   67  12  39  65
   2024 07 26 16:10  22 33 05.10    -09 25 06.3   0.0472 1.0557 147.3  m  19?   0.38 286.8   67   5  39  65
   2024 07 26 16:20  22 33 04.85    -09 25 05.2   0.0472 1.0557 147.4  t  19?   0.38 287.5   68 359  39  65
   2024 07 26 16:30  22 33 04.60    -09 25 04.0   0.0472 1.0557 147.4  m  19?   0.38 288.2   67 352  39  65
   2024 07 26 16:40  22 33 04.36    -09 25 02.8   0.0472 1.0557 147.4  m  19?   0.38 289.0   67 346  39  65
   2024 07 26 16:50  22 33 04.11    -09 25 01.5   0.0472 1.0557 147.4  m  19?   0.38 289.8   66 339  39  65
   2024 07 26 17:00  22 33 03.87    -09 25 00.2   0.0472 1.0557 147.4  m  19?   0.38 290.7   66 334  39  65
   2024 07 26 17:10  22 33 03.63    -09 24 58.8   0.0471 1.0556 147.4  m  19?   0.38 291.7   64 328  39  65
   2024 07 26 17:20  22 33 03.40    -09 24 57.4   0.0471 1.0556 147.4  m  19?   0.37 292.7   63 323  39  65
   2024 07 26 17:30  22 33 03.17    -09 24 55.9   0.0471 1.0556 147.4  m  19?   0.37 293.9   62 319  39  65
   2024 07 26 17:40  22 33 02.95    -09 24 54.4   0.0471 1.0556 147.4  m  19?   0.36 295.2   60 314  39  65
   2024 07 26 17:50  22 33 02.73    -09 24 52.9   0.0471 1.0556 147.4  m  19?   0.35 296.6   59 311  39  65
   2024 07 26 18:00  22 33 02.52    -09 24 51.3   0.0471 1.0556 147.4  m  19?   0.34 298.2   57 307  39  65
   2024 07 26 18:10  22 33 02.32    -09 24 49.6   0.0471 1.0556 147.4  m  19?   0.33 299.9   56 304  39  65
   2024 07 26 18:20  22 33 02.13    -09 24 47.9   0.0471 1.0556 147.4  m  19?   0.32 301.8   54 301  40  65
   2024 07 26 18:30  22 33 01.95    -09 24 46.2   0.0470 1.0556 147.5  m  19?   0.31 304.0   52 298  40  65
   2024 07 26 18:40  22 33 01.78    -09 24 44.4   0.0470 1.0556 147.5  m  19?   0.30 306.4   50 296  40  65
   2024 07 26 18:50  22 33 01.62    -09 24 42.6   0.0470 1.0555 147.5  m  19?   0.29 309.1   48 293  40  64
   2024 07 26 19:00  22 33 01.48    -09 24 40.7   0.0470 1.0555 147.5  m  19?   0.28 312.2   46 291  40  64
   2024 07 26 19:10  22 33 01.35    -09 24 38.9   0.0470 1.0555 147.5  m  19?   0.27 315.6   44 289  40  64
   2024 07 26 19:20  22 33 01.23    -09 24 36.9   0.0470 1.0555 147.5  m  19?   0.25 319.6   42 287  40  64
   2024 07 26 19:30  22 33 01.12    -09 24 35.0   0.0470 1.0555 147.5  m  19?   0.24 324.0   40 285  40  64
   2024 07 26 19:40  22 33 01.04    -09 24 33.0   0.0470 1.0555 147.5 Am  19?   0.23 329.0   38 283  40  64
   2024 07 26 19:50  22 33 00.96    -09 24 31.0   0.0469 1.0555 147.5 Am  19?   0.23 334.5   36 282  40  64
   2024 07 26 20:00  22 33 00.91    -09 24 28.9   0.0469 1.0555 147.5 Nm  19?   0.22 340.7   34 280  40  64
   2024 07 26 20:10  22 33 00.86    -09 24 26.8   0.0469 1.0555 147.5 Nm  19?   0.21 347.3   32 279  40  64
   2024 07 26 20:20  22 33 00.84    -09 24 24.7   0.0469 1.0555 147.5 Nm  19?   0.21 354.3   29 277  40  64
   2024 07 26 20:30  22 33 00.84    -09 24 22.6   0.0469 1.0554 147.5 Cm  19?   0.21   1.5   27 276  40  64
   2024 07 26 20:40  22 33 00.85    -09 24 20.4   0.0469 1.0554 147.5 Cm  19?   0.22   8.7   25 274  41  64
   ................
   2024 07 27 10:00  22 33 39.19    -09 22 40.0   0.0458 1.0546 147.9     19?   0.37  91.2    1 100  49  57
   2024 07 27 10:10  22 33 39.43    -09 22 40.0   0.0458 1.0546 147.9     19?   0.34  91.3    3  98  49  57
   2024 07 27 10:20  22 33 39.65    -09 22 40.1   0.0458 1.0546 147.9     19?   0.31  91.5    5  97  49  57
   2024 07 27 10:30  22 33 39.85    -09 22 40.2   0.0458 1.0546 147.9     19?   0.28  91.7    7  96  49  57
   2024 07 27 10:40  22 33 40.02    -09 22 40.3   0.0457 1.0546 147.9     19?   0.25  91.8    9  94  49  57
   2024 07 27 10:50  22 33 40.18    -09 22 40.4   0.0457 1.0546 147.9     19?   0.21  92.0   11  93  50  57
   2024 07 27 11:00  22 33 40.31    -09 22 40.4   0.0457 1.0546 147.9     19?   0.18  92.1   14  92  50  56
   2024 07 27 11:10  22 33 40.42    -09 22 40.5   0.0457 1.0546 148.0     19?   0.15  92.2   16  91  50  56
   2024 07 27 11:20  22 33 40.51    -09 22 40.6   0.0457 1.0545 148.0     19?   0.12  92.2   18  89  50  56
   2024 07 27 11:30  22 33 40.59    -09 22 40.6   0.0457 1.0545 148.0     19?   0.09  92.1   20  88  50  56
   2024 07 27 11:40  22 33 40.64    -09 22 40.6   0.0456 1.0545 148.0     19?   0.06  91.6   22  87  50  56
   2024 07 27 11:50  22 33 40.67    -09 22 40.6   0.0456 1.0545 148.0     19?   0.03  89.8   24  85  50  56
   2024 07 27 12:00  22 33 40.68    -09 22 40.6   0.0456 1.0545 148.0     19?   0.00  35.2   26  84  50  56
   2024 07 27 12:10  22 33 40.67    -09 22 40.6   0.0456 1.0545 148.0     19?   0.03 278.9   29  82  51  56
   2024 07 27 12:20  22 33 40.64    -09 22 40.5   0.0456 1.0545 148.0     19?   0.06 276.9   31  81  51  56
   2024 07 27 12:30  22 33 40.60    -09 22 40.5   0.0456 1.0545 148.0     19?   0.08 276.4   33  79  51  56
   2024 07 27 12:40  22 33 40.53    -09 22 40.3   0.0456 1.0545 148.0     19?   0.11 276.3   35  78  51  56
   2024 07 27 12:50  22 33 40.45    -09 22 40.2   0.0455 1.0545 148.0     19?   0.13 276.3   37  76  51  55
   2024 07 27 13:00  22 33 40.35    -09 22 40.0   0.0455 1.0544 148.0     19?   0.16 276.4   39  75  51  55
   2024 07 27 13:10  22 33 40.23    -09 22 39.8   0.0455 1.0544 148.0     19?   0.18 276.6   41  73  51  55
   2024 07 27 13:20  22 33 40.10    -09 22 39.6   0.0455 1.0544 148.0     19?   0.21 276.8   43  71  51  55
   2024 07 27 13:30  22 33 39.96    -09 22 39.3   0.0455 1.0544 148.0     19?   0.23 277.1   45  69  51  55
   2024 07 27 13:40  22 33 39.80    -09 22 39.0   0.0455 1.0544 148.1     19?   0.25 277.3   47  67  51  55
   2024 07 27 13:50  22 33 39.62    -09 22 38.7   0.0455 1.0544 148.1  m  19?   0.27 277.6   49  64  52  55
   2024 07 27 14:00  22 33 39.43    -09 22 38.3   0.0454 1.0544 148.1  m  19?   0.29 277.9   51  62  52  55
   2024 07 27 14:10  22 33 39.23    -09 22 37.9   0.0454 1.0544 148.1  m  19?   0.31 278.2   53  59  52  55
   2024 07 27 14:20  22 33 39.02    -09 22 37.4   0.0454 1.0544 148.1  m  19?   0.32 278.6   55  56  52  55
   2024 07 27 14:30  22 33 38.80    -09 22 36.9   0.0454 1.0544 148.1  m  19?   0.34 278.9   57  53  52  55
   2024 07 27 14:40  22 33 38.57    -09 22 36.4   0.0454 1.0543 148.1  m  19?   0.36 279.3   58  50  52  55
   2024 07 27 14:50  22 33 38.33    -09 22 35.8   0.0454 1.0543 148.1  m  19?   0.37 279.7   60  46  52  55
   2024 07 27 15:00  22 33 38.08    -09 22 35.1   0.0454 1.0543 148.1  m  19?   0.38 280.1   61  42  52  54
   2024 07 27 15:10  22 33 37.82    -09 22 34.4   0.0453 1.0543 148.1  m  19?   0.39 280.5   63  38  52  54
   2024 07 27 15:20  22 33 37.56    -09 22 33.7   0.0453 1.0543 148.1  m  19?   0.40 280.9   64  33  52  54
   2024 07 27 15:30  22 33 37.29    -09 22 32.9   0.0453 1.0543 148.1  m  19?   0.41 281.4   65  28  52  54
   2024 07 27 15:40  22 33 37.01    -09 22 32.0   0.0453 1.0543 148.1  m  19?   0.42 281.9   66  22  53  54
   2024 07 27 15:50  22 33 36.74    -09 22 31.1   0.0453 1.0543 148.2  m  19?   0.42 282.4   67  16  53  54
   2024 07 27 16:00  22 33 36.46    -09 22 30.2   0.0453 1.0543 148.2  m  19?   0.43 283.0   67  10  53  54
   2024 07 27 16:10  22 33 36.18    -09 22 29.2   0.0453 1.0543 148.2  m  19?   0.43 283.6   67   3  53  54
   2024 07 27 16:20  22 33 35.89    -09 22 28.2   0.0452 1.0542 148.2  t  19?   0.43 284.2   67 356  53  54
   2024 07 27 16:30  22 33 35.61    -09 22 27.1   0.0452 1.0542 148.2  m  19?   0.43 284.9   67 350  53  54
   2024 07 27 16:40  22 33 35.33    -09 22 25.9   0.0452 1.0542 148.2  m  19?   0.43 285.6   67 344  53  54
   2024 07 27 16:50  22 33 35.05    -09 22 24.7   0.0452 1.0542 148.2  m  19?   0.43 286.4   66 337  53  54
   2024 07 27 17:00  22 33 34.77    -09 22 23.5   0.0452 1.0542 148.2  m  19?   0.43 287.2   65 332  53  54
   2024 07 27 17:10  22 33 34.50    -09 22 22.2   0.0452 1.0542 148.2  m  19?   0.42 288.1   64 327  53  54
   2024 07 27 17:20  22 33 34.23    -09 22 20.9   0.0452 1.0542 148.2  m  19?   0.42 289.0   63 322  53  54
   2024 07 27 17:30  22 33 33.97    -09 22 19.5   0.0451 1.0542 148.2  m  19?   0.41 290.1   61 317  53  54
   2024 07 27 17:40  22 33 33.71    -09 22 18.0   0.0451 1.0542 148.2  m  19?   0.40 291.2   60 313  53  53
   2024 07 27 17:50  22 33 33.46    -09 22 16.5   0.0451 1.0541 148.2  m  19?   0.39 292.5   58 309  54  53
   2024 07 27 18:00  22 33 33.22    -09 22 15.0   0.0451 1.0541 148.3  m  19?   0.38 293.9   57 306  54  53
   2024 07 27 18:10  22 33 32.99    -09 22 13.4   0.0451 1.0541 148.3  m  19?   0.37 295.4   55 303  54  53
   2024 07 27 18:20  22 33 32.77    -09 22 11.8   0.0451 1.0541 148.3  m  19?   0.36 297.1   53 300  54  53
   2024 07 27 18:30  22 33 32.56    -09 22 10.2   0.0451 1.0541 148.3  m  19?   0.35 299.0   51 297  54  53
   2024 07 27 18:40  22 33 32.36    -09 22 08.4   0.0451 1.0541 148.3  m  19?   0.33 301.1   49 295  54  53
   2024 07 27 18:50  22 33 32.17    -09 22 06.7   0.0450 1.0541 148.3  m  19?   0.32 303.4   47 292  54  53
   2024 07 27 19:00  22 33 32.00    -09 22 04.9   0.0450 1.0541 148.3  m  19?   0.31 306.1   45 290  54  53
   2024 07 27 19:10  22 33 31.84    -09 22 03.1   0.0450 1.0541 148.3  m  19?   0.29 309.2   43 288  54  53
   2024 07 27 19:20  22 33 31.70    -09 22 01.2   0.0450 1.0541 148.3  m  19?   0.28 312.7   41 286  54  53
   2024 07 27 19:30  22 33 31.57    -09 21 59.3   0.0450 1.0540 148.3  m  19?   0.26 316.7   39 285  54  53
   2024 07 27 19:40  22 33 31.45    -09 21 57.4   0.0450 1.0540 148.3 Am  19?   0.25 321.2   37 283  54  53
   2024 07 27 19:50  22 33 31.36    -09 21 55.4   0.0450 1.0540 148.3 Am  19?   0.24 326.4   35 281  54  53
   2024 07 27 20:00  22 33 31.28    -09 21 53.5   0.0450 1.0540 148.3 Nm  19?   0.23 332.3   33 280  54  53
   2024 07 27 20:10  22 33 31.21    -09 21 51.4   0.0449 1.0540 148.3 Nm  19?   0.22 338.8   31 278  54  53
   2024 07 27 20:20  22 33 31.17    -09 21 49.4   0.0449 1.0540 148.3 Nm  19?   0.21 346.0   29 277  55  53
   2024 07 27 20:30  22 33 31.15    -09 21 47.3   0.0449 1.0540 148.4 Cm  19?   0.21 353.7   27 275  55  53
   2024 07 27 20:40  22 33 31.14    -09 21 45.2   0.0449 1.0540 148.4 Cm  19?   0.21   1.6   24 274  55  53
   ................
   

TESS (JPL-ID: -95)

   Date (UTC) HH:MM   RA              Dec         delta   r     elong SM  mag  '/hr    PA   alt  az moo ill
   ---- -- -- -----  -------------   -----------  ------ ------ ----- --  --- ------ ------ --- --- --- ---
   2024 07 15 07:30  14 00 47.89    +36 15 29.4   135961 1.0163  81.6 Cm  11? 155.44 136.5   21  13  52  63
   2024 07 15 07:40  14 02 15.71    +35 56 33.5   135916 1.0163  81.9 Cm  11? 155.91 137.0   21  11  52  63
   2024 07 15 07:50  14 03 42.60    +35 37 24.4   135880 1.0163  82.3 Nm  11? 156.40 137.5   22   9  52  63
   2024 07 15 08:00  14 05 08.60    +35 18 02.3   135853 1.0163  82.7 Nm  11? 156.92 138.0   23   7  51  63
   2024 07 15 08:10  14 06 33.74    +34 58 27.5   135835 1.0163  83.1 Nm  11? 157.47 138.5   23   5  51  63
   2024 07 15 08:20  14 07 58.07    +34 38 40.2   135825 1.0163  83.5 Am  11? 158.03 138.9   24   4  51  63
   2024 07 15 08:30  14 09 21.64    +34 18 40.7   135825 1.0163  83.9 Am  11? 158.61 139.3   24   2  50  63
   2024 07 15 08:40  14 10 44.48    +33 58 29.3   135834 1.0163  84.3 Am  11? 159.21 139.7   24   0  50  63
   2024 07 15 08:50  14 12 06.65    +33 38 06.3   135851 1.0164  84.6  t  11? 159.83 140.1   25 358  50  63
   2024 07 15 09:00  14 13 28.18    +33 17 32.0   135879 1.0164  85.0  m  11? 160.45 140.5   25 356  49  63
   2024 07 15 09:10  14 14 49.13    +32 56 46.8   135916 1.0164  85.4  m  11? 161.08 140.8   25 354  49  63
   2024 07 15 09:20  14 16 09.52    +32 35 51.0   135962 1.0164  85.8  m  11? 161.73 141.1   25 352  49  63
   2024 07 15 09:30  14 17 29.41    +32 14 44.9   136018 1.0164  86.2  m  11? 162.37 141.4   25 349  48  63
   2024 07 15 09:40  14 18 48.82    +31 53 29.1   136083 1.0164  86.6  e  11? 163.02 141.6   25 347  48  63
   2024 07 15 09:50  14 20 07.82    +31 32 03.7   136159 1.0164  87.0  m  11? 163.67 141.9   25 345  48  63
   2024 07 15 10:00  14 21 26.42    +31 10 29.4   136244 1.0164  87.4  m  11? 164.31 142.1   25 343  47  63
   2024 07 15 10:10  14 22 44.68    +30 48 46.3   136338 1.0164  87.8  m  11? 164.96 142.3   25 341  47  63
   2024 07 15 10:20  14 24 02.63    +30 26 55.1   136443 1.0164  88.2  m  11? 165.60 142.4   25 339  47  63
   2024 07 15 10:30  14 25 20.31    +30 04 56.1   136557 1.0164  88.6  m  11? 166.23 142.6   24 337  46  63
   2024 07 15 10:40  14 26 37.76    +29 42 49.6   136681 1.0164  89.0  m  11? 166.85 142.7   24 335  46  63
   2024 07 15 10:50  14 27 55.00    +29 20 36.3   136815 1.0164  89.4  m  11? 167.46 142.8   23 333  46  64
   2024 07 15 11:00  14 29 12.08    +28 58 16.5   136958 1.0165  89.8  m  11? 168.06 142.9   23 331  45  64
   2024 07 15 11:10  14 30 29.02    +28 35 50.7   137111 1.0165  90.2  m  11? 168.65 143.0   22 329  45  64
   2024 07 15 11:20  14 31 45.86    +28 13 19.3   137274 1.0165  90.6  m  11? 169.23 143.0   22 327  45  64
   2024 07 15 11:30  14 33 02.63    +27 50 42.8   137446 1.0165  91.0  m  11? 169.79 143.0   21 325  44  64
   2024 07 15 11:40  14 34 19.36    +27 28 01.6   137627 1.0165  91.4  m  11? 170.33 143.0   20 323  44  64
   2024 07 15 11:50  14 35 36.08    +27 05 16.3   137817 1.0165  91.8  m  11? 170.86 143.0   19 321  44  64
   2024 07 15 12:00  14 36 52.81    +26 42 27.2   138017 1.0165  92.2  m  11? 171.37 143.0   18 319  43  64
   2024 07 15 12:10  14 38 09.58    +26 19 34.8   138226 1.0165  92.7  m  11? 171.86 142.9   17 317  43  64
   2024 07 15 12:20  14 39 26.42    +25 56 39.6   138443 1.0165  93.1  m  11? 172.33 142.9   16 315  43  64
   2024 07 15 12:30  14 40 43.34    +25 33 42.0   138669 1.0165  93.5  m  11? 172.78 142.8   15 314  42  64
   2024 07 15 12:40  14 42 00.37    +25 10 42.6   138904 1.0165  93.9  m  11? 173.22 142.7   14 312  42  64
   2024 07 15 12:50  14 43 17.53    +24 47 41.6   139147 1.0165  94.4  m  11? 173.63 142.6   13 310  42  64
   2024 07 15 13:00  14 44 34.84    +24 24 39.5   139398 1.0165  94.8  m  11? 174.03 142.5   12 308  41  64
   2024 07 15 13:10  14 45 52.32    +24 01 36.9   139657 1.0165  95.2  m  11? 174.40 142.3   11 307  41  64
   2024 07 15 13:20  14 47 09.98    +23 38 34.0   139923 1.0166  95.6  m  11? 174.75 142.2   10 305  41  64
   2024 07 15 13:30  14 48 27.83    +23 15 31.3   140197 1.0166  96.1  m  11? 175.08 142.0    8 303  40  64
   2024 07 15 13:40  14 49 45.90    +22 52 29.2   140479 1.0166  96.5  m  11? 175.40 141.8    7 302  40  64
   2024 07 15 13:50  14 51 04.19    +22 29 28.1   140767 1.0166  96.9  m  11? 175.69 141.6    6 300  40  64
   2024 07 15 14:00  14 52 22.72    +22 06 28.3   141062 1.0166  97.4  m  11? 175.96 141.5    4 299  39  64
   2024 07 15 14:10  14 53 41.49    +21 43 30.2   141363 1.0166  97.8  m  11? 176.21 141.2    3 297  39  64
   2024 07 15 14:20  14 55 00.52    +21 20 34.3   141671 1.0166  98.3  m  11? 176.44 141.0    1 296  39  65
   2024 07 15 14:30  14 56 19.81    +20 57 40.7   141985 1.0166  98.7  m  11? 176.66 140.8    0 294  38  65
   ................
   2024 07 16 07:30  17 02 57.22    -11 27 40.3   165147 1.0172 140.4 Cm  13? 119.75 146.2   31  84  28  72
   2024 07 16 07:40  17 03 41.95    -11 44 15.7   165287 1.0172 140.7 Cm  13? 118.81 146.6   33  83  28  72
   2024 07 16 07:50  17 04 25.96    -12 00 47.3   165432 1.0172 140.9 Nm  13? 117.89 146.9   35  82  28  72
   2024 07 16 08:00  17 05 09.25    -12 17 15.2   165584 1.0172 141.2 Nm  13? 116.96 147.3   37  81  28  72
   2024 07 16 08:10  17 05 51.85    -12 33 38.9   165743 1.0172 141.4 Nm  13? 116.04 147.6   39  79  28  72
   2024 07 16 08:20  17 06 33.79    -12 49 58.4   165908 1.0172 141.6 Am  13? 115.13 147.9   42  78  28  72
   2024 07 16 08:30  17 07 15.07    -13 06 13.5   166080 1.0173 141.9 Am  13? 114.22 148.2   44  77  28  72
   2024 07 16 08:40  17 07 55.73    -13 22 24.0   166259 1.0173 142.1 Am  13? 113.31 148.5   46  75  28  72
   2024 07 16 08:50  17 08 35.78    -13 38 29.6   166446 1.0173 142.3  m  13? 112.41 148.8   48  74  29  72
   2024 07 16 09:00  17 09 15.25    -13 54 30.3   166641 1.0173 142.6  m  13? 111.51 149.0   50  73  29  72
   2024 07 16 09:10  17 09 54.17    -14 10 25.7   166843 1.0173 142.8  m  13? 110.62 149.3   52  71  29  72
   2024 07 16 09:20  17 10 32.56    -14 26 15.8   167053 1.0173 143.0  m  13? 109.74 149.5   54  69  29  72
   2024 07 16 09:30  17 11 10.45    -14 42 00.3   167272 1.0173 143.2  m  13? 108.86 149.7   56  67  29  73
   2024 07 16 09:40  17 11 47.86    -14 57 39.1   167499 1.0173 143.4  m  13? 107.99 149.9   58  65  29  73
   2024 07 16 09:50  17 12 24.83    -15 13 11.9   167735 1.0173 143.6  m  13? 107.12 150.0   60  63  29  73
   2024 07 16 10:00  17 13 01.38    -15 28 38.6   167979 1.0173 143.8  m  13? 106.26 150.2   62  60  29  73
   2024 07 16 10:10  17 13 37.55    -15 43 59.0   168232 1.0173 144.0  m  13? 105.41 150.3   64  58  29  73
   2024 07 16 10:20  17 14 13.36    -15 59 12.9   168495 1.0173 144.2  m  13? 104.57 150.4   66  54  29  73
   2024 07 16 10:30  17 14 48.85    -16 14 20.2   168766 1.0173 144.4  m  13? 103.73 150.4   67  51  29  73
   2024 07 16 10:40  17 15 24.05    -16 29 20.7   169046 1.0173 144.6  m  13? 102.91 150.5   69  47  29  73
   2024 07 16 10:50  17 15 58.98    -16 44 14.2   169336 1.0173 144.8  m  13? 102.09 150.5   71  42  29  73
   2024 07 16 11:00  17 16 33.69    -16 59 00.7   169634 1.0173 145.0  m  13? 101.28 150.5   72  36  29  73
   2024 07 16 11:10  17 17 08.20    -17 13 39.9   169942 1.0173 145.2  m  13? 100.49 150.4   74  30  29  73
   2024 07 16 11:20  17 17 42.55    -17 28 11.7   170260 1.0173 145.4  m  13?  99.71 150.3   75  22  29  73
   2024 07 16 11:30  17 18 16.77    -17 42 36.1   170586 1.0173 145.5  m  13?  98.94 150.2   76  14  29  73
   2024 07 16 11:40  17 18 50.89    -17 56 52.8   170922 1.0173 145.7  m  13?  98.19 150.1   76   4  29  73
   2024 07 16 11:50  17 19 24.95    -18 11 01.8   171267 1.0173 145.9  t  13?  97.45 150.0   76 355  29  73
   2024 07 16 12:00  17 19 58.98    -18 25 03.1   171621 1.0173 146.0  e  13?  96.72 149.8   76 345  29  73
   2024 07 16 12:10  17 20 33.01    -18 38 56.4   171985 1.0174 146.2  m  13?  96.02 149.5   76 335  29  73
   2024 07 16 12:20  17 21 07.08    -18 52 41.8   172357 1.0174 146.4  m  13?  95.33 149.3   75 327  29  73
   2024 07 16 12:30  17 21 41.22    -19 06 19.1   172738 1.0174 146.5  m  13?  94.67 149.0   74 319  29  73
   2024 07 16 12:40  17 22 15.46    -19 19 48.4   173129 1.0174 146.7  m  13?  94.02 148.7   73 312  29  73
   2024 07 16 12:50  17 22 49.83    -19 33 09.5   173528 1.0174 146.9  m  13?  93.40 148.4   71 306  29  73
   2024 07 16 13:00  17 23 24.36    -19 46 22.5   173935 1.0174 147.0  m  13?  92.80 148.0   70 301  29  73
   2024 07 16 13:10  17 23 59.09    -19 59 27.2   174351 1.0174 147.2  m  13?  92.23 147.6   68 297  29  73
   2024 07 16 13:20  17 24 34.04    -20 12 23.8   174776 1.0174 147.4  m  13?  91.68 147.2   67 293  29  73
   2024 07 16 13:30  17 25 09.25    -20 25 12.2   175208 1.0174 147.5  m  13?  91.16 146.8   65 290  29  73
   2024 07 16 13:40  17 25 44.75    -20 37 52.4   175648 1.0174 147.7  m  13?  90.67 146.3   63 287  29  73
   2024 07 16 13:50  17 26 20.55    -20 50 24.4   176097 1.0174 147.8  m  13?  90.21 145.8   61 284  29  74
   2024 07 16 14:00  17 26 56.70    -21 02 48.3   176552 1.0174 148.0  m  13?  89.78 145.3   59 281  29  74
   2024 07 16 14:10  17 27 33.21    -21 15 04.1   177015 1.0174 148.2  m  13?  89.38 144.8   57 279  30  74
   2024 07 16 14:20  17 28 10.12    -21 27 11.9   177485 1.0174 148.3  m  13?  89.01 144.2   55 277  30  74
   2024 07 16 14:30  17 28 47.44    -21 39 11.7   177962 1.0174 148.5  m  13?  88.67 143.6   54 275  30  74
   2024 07 16 14:40  17 29 25.20    -21 51 03.6   178445 1.0174 148.6  m  13?  88.37 143.0   52 274  30  74
   2024 07 16 14:50  17 30 03.43    -22 02 47.7   178935 1.0174 148.8  m  13?  88.11 142.4   50 272  30  74
   2024 07 16 15:00  17 30 42.14    -22 14 24.1   179430 1.0174 148.9  m  13?  87.88 141.8   48 270  30  74
   2024 07 16 15:10  17 31 21.36    -22 25 52.9   179932 1.0174 149.1  m  13?  87.68 141.2   46 269  30  74
   2024 07 16 15:20  17 32 01.10    -22 37 14.1   180439 1.0174 149.3  m  13?  87.52 140.5   44 267  30  74
   2024 07 16 15:30  17 32 41.38    -22 48 28.0   180951 1.0174 149.4  m  13?  87.39 139.9   42 266  30  74
   2024 07 16 15:40  17 33 22.23    -22 59 34.6   181468 1.0174 149.6  m  13?  87.30 139.2   40 265  30  74
   2024 07 16 15:50  17 34 03.65    -23 10 34.0   181989 1.0174 149.7  m  13?  87.25 138.6   38 264  30  74
   2024 07 16 16:00  17 34 45.67    -23 21 26.5   182515 1.0174 149.9  m  13?  87.23 137.9   36 262  30  74
   2024 07 16 16:10  17 35 28.29    -23 32 12.2   183044 1.0174 150.1  m  13?  87.24 137.2   34 261  30  74
   2024 07 16 16:20  17 36 11.53    -23 42 51.2   183578 1.0174 150.2  m  13?  87.28 136.5   32 260  30  74
   2024 07 16 16:30  17 36 55.39    -23 53 23.6   184114 1.0175 150.4  m  13?  87.36 135.9   31 259  30  74
   2024 07 16 16:40  17 37 39.90    -24 03 49.7   184654 1.0175 150.6  m  13?  87.47 135.2   29 258  30  74
   2024 07 16 16:50  17 38 25.05    -24 14 09.7   185196 1.0175 150.7  m  13?  87.61 134.6   27 256  30  75
   2024 07 16 17:00  17 39 10.86    -24 24 23.6   185740 1.0175 150.9     13?  87.78 133.9   25 255  31  75
   2024 07 16 17:10  17 39 57.33    -24 34 31.7   186286 1.0175 151.1     13?  87.97 133.3   23 254  31  75
   2024 07 16 17:20  17 40 44.46    -24 44 34.2   186834 1.0175 151.2     13?  88.20 132.6   21 253  31  75
   2024 07 16 17:30  17 41 32.27    -24 54 31.2   187383 1.0175 151.4     13?  88.44 132.0   20 252  31  75
   2024 07 16 17:40  17 42 20.75    -25 04 23.0   187933 1.0175 151.6     13?  88.71 131.4   18 251  31  75
   2024 07 16 17:50  17 43 09.90    -25 14 09.7   188484 1.0175 151.8     14?  89.01 130.8   16 250  31  75
   2024 07 16 18:00  17 43 59.73    -25 23 51.5   189035 1.0175 151.9     14?  89.32 130.2   14 248  31  75
   2024 07 16 18:10  17 44 50.23    -25 33 28.6   189586 1.0175 152.1     14?  89.65 129.7   12 247  31  75
   2024 07 16 18:20  17 45 41.40    -25 43 01.3   190137 1.0175 152.3     14?  90.00 129.1   11 246  31  75
   2024 07 16 18:30  17 46 33.24    -25 52 29.8   190687 1.0175 152.5     14?  90.37 128.6    9 245  31  75
   2024 07 16 18:40  17 47 25.75    -26 01 54.1   191236 1.0175 152.6     14?  90.74 128.1    7 244  31  75
   2024 07 16 18:50  17 48 18.91    -26 11 14.6   191783 1.0175 152.8     14?  91.13 127.6    6 242  31  75
   2024 07 16 19:00  17 49 12.74    -26 20 31.4   192329 1.0175 153.0     14?  91.53 127.1    4 241  32  75
   2024 07 16 19:10  17 50 07.20    -26 29 44.7   192873 1.0175 153.2     14?  91.94 126.7    2 240  32  76
   2024 07 16 19:20  17 51 02.31    -26 38 54.8   193415 1.0175 153.4     14?  92.35 126.2    1 239  32  76
   2024 07 16 19:30  17 51 58.04    -26 48 01.8   193954 1.0175 153.6     14?  92.77 125.8    0 237  32  76
   ................
   2024 07 17 07:30  19 06 08.07    -37 40 01.8   217822 1.0177 161.2 Cm  14?  80.69 132.9   18 123  41  81
   2024 07 17 07:40  19 06 57.36    -37 49 11.7   217995 1.0177 161.1 Cm  14?  79.83 133.2   20 122  41  81
   2024 07 17 07:50  19 07 45.94    -37 58 19.1   218170 1.0177 161.1 Nm  14?  78.96 133.5   22 121  41  81
   2024 07 17 08:00  19 08 33.81    -38 07 23.9   218345 1.0177 161.0 Nm  14?  78.08 133.9   23 121  41  81
   2024 07 17 08:10  19 09 20.98    -38 16 25.8   218521 1.0177 161.0 Nm  14?  77.19 134.2   25 120  41  81
   2024 07 17 08:20  19 10 07.44    -38 25 24.5   218698 1.0177 160.9 Am  14?  76.30 134.5   27 120  41  81
   2024 07 17 08:30  19 10 53.20    -38 34 20.0   218878 1.0177 160.8 Am  14?  75.40 134.8   29 119  41  81
   2024 07 17 08:40  19 11 38.26    -38 43 11.9   219059 1.0177 160.8 Am  14?  74.49 135.1   30 119  41  81
   2024 07 17 08:50  19 12 22.63    -38 52 00.1   219243 1.0177 160.7  m  14?  73.57 135.4   32 118  41  81
   2024 07 17 09:00  19 13 06.31    -39 00 44.4   219429 1.0177 160.6  m  14?  72.65 135.7   34 118  41  81
   2024 07 17 09:10  19 13 49.31    -39 09 24.4   219618 1.0177 160.5  m  14?  71.73 136.0   36 118  42  81
   2024 07 17 09:20  19 14 31.63    -39 18 00.1   219810 1.0177 160.5  m  14?  70.80 136.3   37 117  42  81
   2024 07 17 09:30  19 15 13.30    -39 26 31.2   220005 1.0177 160.4  m  14?  69.87 136.5   39 117  42  81
   2024 07 17 09:40  19 15 54.32    -39 34 57.6   220203 1.0177 160.3  m  14?  68.94 136.7   41 117  42  81
   2024 07 17 09:50  19 16 34.69    -39 43 18.9   220406 1.0177 160.2  m  14?  68.00 137.0   43 116  42  81
   2024 07 17 10:00  19 17 14.45    -39 51 35.0   220612 1.0177 160.1  m  14?  67.07 137.1   45 116  42  81
   2024 07 17 10:10  19 17 53.60    -39 59 45.7   220822 1.0177 160.0  m  14?  66.13 137.3   46 116  42  81
   2024 07 17 10:20  19 18 32.15    -40 07 50.8   221036 1.0177 160.0  m  14?  65.20 137.5   48 116  42  81
   2024 07 17 10:30  19 19 10.13    -40 15 50.1   221255 1.0177 159.9  m  14?  64.27 137.6   50 116  42  81
   2024 07 17 10:40  19 19 47.55    -40 23 43.5   221479 1.0177 159.8  m  14?  63.35 137.7   52 116  42  81
   2024 07 17 10:50  19 20 24.43    -40 31 30.7   221708 1.0177 159.7  m  14?  62.43 137.8   54 117  42  81
   2024 07 17 11:00  19 21 00.80    -40 39 11.6   221941 1.0177 159.6  m  14?  61.51 137.9   55 117  42  81
   2024 07 17 11:10  19 21 36.67    -40 46 46.0   222180 1.0177 159.5  m  14?  60.60 137.9   57 117  43  81
   2024 07 17 11:20  19 22 12.07    -40 54 13.7   222424 1.0177 159.4  m  14?  59.70 137.9   59 118  43  81
   2024 07 17 11:30  19 22 47.02    -41 01 34.7   222674 1.0177 159.3  m  14?  58.81 137.8   61 119  43  81
   2024 07 17 11:40  19 23 21.55    -41 08 48.7   222929 1.0177 159.3  m  14?  57.93 137.8   62 120  43  82
   2024 07 17 11:50  19 23 55.68    -41 15 55.6   223190 1.0177 159.2  m  14?  57.06 137.7   64 121  43  82
   2024 07 17 12:00  19 24 29.44    -41 22 55.3   223457 1.0177 159.1  m  14?  56.21 137.5   66 122  43  82
   2024 07 17 12:10  19 25 02.85    -41 29 47.7   223729 1.0177 159.0  m  14?  55.37 137.3   68 124  43  82
   2024 07 17 12:20  19 25 35.94    -41 36 32.6   224008 1.0177 158.9  m  14?  54.54 137.1   69 126  43  82
   2024 07 17 12:30  19 26 08.75    -41 43 10.0   224293 1.0177 158.8  m  14?  53.73 136.9   71 129  43  82
   2024 07 17 12:40  19 26 41.30    -41 49 39.8   224584 1.0177 158.8  m  14?  52.95 136.6   72 132  43  82
   2024 07 17 12:50  19 27 13.62    -41 56 01.9   224881 1.0177 158.7  m  14?  52.18 136.2   74 135  43  82
   2024 07 17 13:00  19 27 45.74    -42 02 16.2   225185 1.0177 158.6  m  14?  51.43 135.8   75 140  43  82
   2024 07 17 13:10  19 28 17.69    -42 08 22.6   225495 1.0177 158.5  m  14?  50.71 135.4   76 146  43  82
   2024 07 17 13:20  19 28 49.50    -42 14 21.2   225811 1.0177 158.4  m  14?  50.01 134.9   77 152  43  82
   2024 07 17 13:30  19 29 21.21    -42 20 11.9   226133 1.0177 158.4  m  14?  49.35 134.4   78 160  43  82
   2024 07 17 13:40  19 29 52.85    -42 25 54.6   226462 1.0177 158.3  m  14?  48.71 133.8   78 168  43  82
   2024 07 17 13:50  19 30 24.45    -42 31 29.4   226797 1.0177 158.2  e  14?  48.10 133.2   78 177  43  82
   2024 07 17 14:00  19 30 56.03    -42 36 56.3   227138 1.0177 158.1  t  14?  47.52 132.6   78 186  44  82
   2024 07 17 14:10  19 31 27.64    -42 42 15.1   227486 1.0177 158.1  m  14?  46.98 131.9   78 195  44  82
   2024 07 17 14:20  19 31 59.30    -42 47 26.1   227840 1.0177 158.0  m  14?  46.48 131.1   77 202  44  82
   2024 07 17 14:30  19 32 31.05    -42 52 29.2   228200 1.0177 157.9  m  14?  46.01 130.3   76 208  44  82
   2024 07 17 14:40  19 33 02.92    -42 57 24.4   228566 1.0177 157.9  m  14?  45.58 129.5   75 214  44  82
   2024 07 17 14:50  19 33 34.93    -43 02 11.9   228938 1.0177 157.8  m  14?  45.20 128.6   74 218  44  82
   2024 07 17 15:00  19 34 07.13    -43 06 51.6   229316 1.0177 157.7  m  14?  44.85 127.7   72 222  44  82
   2024 07 17 15:10  19 34 39.53    -43 11 23.7   229700 1.0177 157.7  m  14?  44.55 126.8   71 225  44  82
   2024 07 17 15:20  19 35 12.17    -43 15 48.2   230090 1.0177 157.6  m  14?  44.29 125.8   69 228  44  82
   2024 07 17 15:30  19 35 45.09    -43 20 05.2   230485 1.0177 157.5  m  14?  44.08 124.9   68 230  44  82
   2024 07 17 15:40  19 36 18.30    -43 24 14.9   230886 1.0178 157.5  m  14?  43.91 123.9   66 231  44  82
   2024 07 17 15:50  19 36 51.84    -43 28 17.3   231292 1.0178 157.4  m  14?  43.79 122.8   64 233  44  82
   2024 07 17 16:00  19 37 25.73    -43 32 12.6   231703 1.0178 157.4  m  14?  43.71 121.8   63 234  44  83
   2024 07 17 16:10  19 38 00.01    -43 36 00.9   232119 1.0178 157.3  m  14?  43.68 120.8   61 235  44  83
   2024 07 17 16:20  19 38 34.69    -43 39 42.4   232541 1.0178 157.3  m  14?  43.70 119.7   59 235  44  83
   2024 07 17 16:30  19 39 09.80    -43 43 17.2   232966 1.0178 157.2  m  14?  43.76 118.7   58 236  44  83
   2024 07 17 16:40  19 39 45.37    -43 46 45.4   233397 1.0178 157.2  m  14?  43.86 117.6   56 236  44  83
   2024 07 17 16:50  19 40 21.41    -43 50 07.3   233832 1.0178 157.1  m  14?  44.01 116.6   54 237  44  83
   2024 07 17 17:00  19 40 57.96    -43 53 23.0   234271 1.0178 157.1  m  14?  44.20 115.6   53 237  44  83
   2024 07 17 17:10  19 41 35.03    -43 56 32.7   234713 1.0178 157.0  m  14?  44.44 114.6   51 237  44  83
   2024 07 17 17:20  19 42 12.63    -43 59 36.6   235160 1.0178 157.0  m  14?  44.71 113.7   49 237  44  83
   2024 07 17 17:30  19 42 50.80    -44 02 34.8   235610 1.0178 157.0  m  14?  45.02 112.7   48 237  44  83
   2024 07 17 17:40  19 43 29.55    -44 05 27.6   236064 1.0178 156.9  m  14?  45.37 111.8   46 237  44  83
   2024 07 17 17:50  19 44 08.89    -44 08 15.2   236520 1.0178 156.9  m  14?  45.75 110.9   44 237  45  83
   2024 07 17 18:00  19 44 48.83    -44 10 57.8   236979 1.0178 156.8     14?  46.17 110.1   43 236  45  83
   2024 07 17 18:10  19 45 29.40    -44 13 35.5   237442 1.0178 156.8     14?  46.61 109.2   41 236  45  83
   2024 07 17 18:20  19 46 10.61    -44 16 08.7   237906 1.0178 156.7     14?  47.09 108.5   39 236  45  83
   2024 07 17 18:30  19 46 52.46    -44 18 37.4   238373 1.0178 156.7     14?  47.59 107.7   38 235  45  83
   2024 07 17 18:40  19 47 34.96    -44 21 02.1   238841 1.0178 156.7     14?  48.11 107.0   36 235  45  83
   2024 07 17 18:50  19 48 18.14    -44 23 22.8   239311 1.0178 156.6     14?  48.66 106.3   34 235  45  83
   2024 07 17 19:00  19 49 01.98    -44 25 39.7   239783 1.0178 156.6     14?  49.22 105.7   33 234  45  84
   2024 07 17 19:10  19 49 46.51    -44 27 53.2   240256 1.0178 156.6     14?  49.81 105.1   31 234  45  84
   2024 07 17 19:20  19 50 31.72    -44 30 03.5   240729 1.0178 156.5     14?  50.41 104.6   29 233  45  84
   2024 07 17 19:30  19 51 17.62    -44 32 10.7   241204 1.0178 156.5     14?  51.02 104.0   28 232  45  84
   2024 07 17 19:40  19 52 04.22    -44 34 15.1   241679 1.0178 156.4 A   14?  51.65 103.6   26 232  45  84
   2024 07 17 19:50  19 52 51.50    -44 36 16.9   242154 1.0178 156.4 A   14?  52.28 103.1   25 231  45  84
   2024 07 17 20:00  19 53 39.48    -44 38 16.3   242629 1.0178 156.4 A   14?  52.92 102.7   23 230  45  84
   2024 07 17 20:10  19 54 28.15    -44 40 13.7   243103 1.0178 156.3 N   14?  53.57 102.3   22 230  45  84
   2024 07 17 20:20  19 55 17.52    -44 42 09.1   243577 1.0178 156.3 N   14?  54.22 102.0   20 229  45  84
   2024 07 17 20:30  19 56 07.57    -44 44 02.8   244050 1.0178 156.2 N   14?  54.87 101.7   19 228  45  84
   2024 07 17 20:40  19 56 58.30    -44 45 55.1   244522 1.0178 156.2 C   14?  55.53 101.4   17 228  45  84
   2024 07 17 20:50  19 57 49.71    -44 47 46.1   244993 1.0178 156.1 C   14?  56.18 101.1   16 227  45  84
   ................
   2024 07 18 07:30  21 03 07.50    -47 44 01.1   265405 1.0178 149.5 Cm  14?  60.91 113.1    6 143  51  88
   2024 07 18 07:40  21 04 02.64    -47 48 02.3   265555 1.0178 149.4 Cm  14?  60.28 113.4    7 142  51  88
   2024 07 18 07:50  21 04 57.14    -47 52 04.2   265702 1.0178 149.2 Nm  14?  59.64 113.8    8 141  51  88
   2024 07 18 08:00  21 05 50.97    -47 56 06.5   265846 1.0178 149.1 Nm  14?  58.98 114.1   10 140  51  88
   2024 07 18 08:10  21 06 44.13    -48 00 09.2   265988 1.0178 149.0 Nm  14?  58.31 114.4   11 139  51  88
   2024 07 18 08:20  21 07 36.62    -48 04 12.0   266128 1.0178 148.8 Am  14?  57.63 114.7   12 138  51  88
   2024 07 18 08:30  21 08 28.40    -48 08 14.8   266265 1.0178 148.7 Am  14?  56.93 115.0   14 138  51  88
   2024 07 18 08:40  21 09 19.49    -48 12 17.3   266401 1.0178 148.5 Am  14?  56.21 115.3   15 137  51  88
   2024 07 18 08:50  21 10 09.87    -48 16 19.5   266536 1.0178 148.4  m  14?  55.49 115.6   16 136  51  88
   2024 07 18 09:00  21 10 59.53    -48 20 21.0   266669 1.0178 148.3  m  14?  54.75 115.9   18 135  51  88
   2024 07 18 09:10  21 11 48.47    -48 24 21.7   266801 1.0178 148.1  m  14?  54.01 116.2   19 135  51  88
   2024 07 18 09:20  21 12 36.68    -48 28 21.3   266932 1.0178 148.0  m  14?  53.25 116.5   21 134  52  88
   2024 07 18 09:30  21 13 24.16    -48 32 19.8   267063 1.0178 147.9  m  14?  52.48 116.7   22 134  52  89
   2024 07 18 09:40  21 14 10.90    -48 36 16.9   267194 1.0178 147.8  m  14?  51.71 117.0   23 133  52  89
   2024 07 18 09:50  21 14 56.91    -48 40 12.3   267324 1.0178 147.6  m  14?  50.93 117.2   25 133  52  89
   2024 07 18 10:00  21 15 42.17    -48 44 05.9   267455 1.0178 147.5  m  14?  50.14 117.4   26 132  52  89
   2024 07 18 10:10  21 16 26.70    -48 47 57.5   267585 1.0178 147.4  m  14?  49.35 117.7   28 132  52  89
   2024 07 18 10:20  21 17 10.50    -48 51 46.8   267717 1.0178 147.2  m  14?  48.55 117.8   29 131  52  89
   2024 07 18 10:30  21 17 53.56    -48 55 33.8   267849 1.0178 147.1  m  14?  47.75 118.0   31 131  52  89
   2024 07 18 10:40  21 18 35.89    -48 59 18.0   267983 1.0178 147.0  m  14?  46.94 118.2   32 131  52  89
   2024 07 18 10:50  21 19 17.50    -49 02 59.4   268117 1.0178 146.9  m  14?  46.13 118.3   34 130  52  89
   2024 07 18 11:00  21 19 58.39    -49 06 37.8   268254 1.0178 146.8  m  14?  45.32 118.4   35 130  52  89
   2024 07 18 11:10  21 20 38.57    -49 10 12.9   268391 1.0178 146.7  m  14?  44.51 118.5   37 130  52  89
   2024 07 18 11:20  21 21 18.05    -49 13 44.6   268531 1.0178 146.5  m  14?  43.70 118.5   39 130  52  89
   2024 07 18 11:30  21 21 56.84    -49 17 12.6   268673 1.0178 146.4  m  14?  42.90 118.5   40 130  52  89
   2024 07 18 11:40  21 22 34.95    -49 20 36.8   268818 1.0178 146.3  m  14?  42.09 118.5   42 130  52  89
   2024 07 18 11:50  21 23 12.40    -49 23 56.9   268965 1.0178 146.2  m  14?  41.29 118.5   43 130  52  89
   2024 07 18 12:00  21 23 49.19    -49 27 12.8   269114 1.0178 146.1  m  14?  40.50 118.4   45 130  53  89
   2024 07 18 12:10  21 24 25.35    -49 30 24.4   269267 1.0178 146.0  m  14?  39.71 118.3   46 130  53  89
   2024 07 18 12:20  21 25 00.88    -49 33 31.3   269423 1.0178 145.9  m  14?  38.93 118.1   48 130  53  89
   2024 07 18 12:30  21 25 35.81    -49 36 33.5   269582 1.0178 145.8  m  14?  38.17 117.9   49 131  53  89
   2024 07 18 12:40  21 26 10.16    -49 39 30.8   269745 1.0178 145.7  m  14?  37.41 117.7   51 131  53  89
   2024 07 18 12:50  21 26 43.94    -49 42 23.0   269911 1.0178 145.6  m  14?  36.66 117.4   52 132  53  89
   2024 07 18 13:00  21 27 17.18    -49 45 10.0   270082 1.0178 145.5  m  14?  35.93 117.0   54 133  53  89
   2024 07 18 13:10  21 27 49.89    -49 47 51.6   270256 1.0178 145.4  m  14?  35.21 116.6   55 133  53  89
   2024 07 18 13:20  21 28 22.10    -49 50 27.6   270434 1.0178 145.4  m  14?  34.52 116.2   57 134  53  89
   2024 07 18 13:30  21 28 53.84    -49 52 58.1   270617 1.0178 145.3  m  14?  33.84 115.7   58 135  53  89
   2024 07 18 13:40  21 29 25.12    -49 55 22.7   270804 1.0178 145.2  m  14?  33.18 115.1   59 137  53  89
   2024 07 18 13:50  21 29 55.98    -49 57 41.4   270995 1.0178 145.1  m  14?  32.54 114.5   61 138  53  89
   2024 07 18 14:00  21 30 26.44    -49 59 54.2   271192 1.0178 145.0  m  14?  31.93 113.8   62 140  53  89
   2024 07 18 14:10  21 30 56.52    -50 02 00.8   271393 1.0178 144.9  m  14?  31.35 113.0   63 142  53  89
   2024 07 18 14:20  21 31 26.26    -50 04 01.2   271599 1.0177 144.9  m  14?  30.80 112.2   64 144  53  89
   2024 07 18 14:30  21 31 55.68    -50 05 55.3   271809 1.0177 144.8  m  14?  30.27 111.3   66 147  53  89
   2024 07 18 14:40  21 32 24.81    -50 07 43.1   272025 1.0177 144.7  m  14?  29.78 110.4   67 150  53  89
   2024 07 18 14:50  21 32 53.68    -50 09 24.5   272246 1.0177 144.6  m  14?  29.32 109.4   68 153  53  89
   2024 07 18 15:00  21 33 22.32    -50 10 59.4   272472 1.0177 144.6  m  14?  28.90 108.3   68 156  53  89
   2024 07 18 15:10  21 33 50.76    -50 12 27.7   272704 1.0177 144.5  m  14?  28.52 107.2   69 160  53  89
   2024 07 18 15:20  21 34 19.04    -50 13 49.5   272940 1.0177 144.4  m  14?  28.18 106.0   70 164  53  90
   2024 07 18 15:30  21 34 47.17    -50 15 04.8   273182 1.0177 144.4  m  14?  27.88 104.8   70 169  53  90
   2024 07 18 15:40  21 35 15.20    -50 16 13.4   273429 1.0177 144.3  m  14?  27.62 103.5   70 173  53  90
   2024 07 18 15:50  21 35 43.16    -50 17 15.5   273682 1.0177 144.3  m  14?  27.40 102.2   71 178  53  90
   2024 07 18 16:00  21 36 11.07    -50 18 11.0   273940 1.0177 144.2  t  14?  27.23 100.9   71 183  53  90
   2024 07 18 16:10  21 36 38.97    -50 18 59.9   274203 1.0177 144.1  m  14?  27.11  99.6   70 187  53  90
   2024 07 18 16:20  21 37 06.88    -50 19 42.3   274472 1.0177 144.1  m  14?  27.03  98.2   70 192  53  90
   2024 07 18 16:30  21 37 34.84    -50 20 18.2   274746 1.0177 144.0  m  14?  27.00  96.8   69 196  53  90
   2024 07 18 16:40  21 38 02.88    -50 20 47.6   275025 1.0177 144.0  m  14?  27.02  95.4   69 200  53  90
   2024 07 18 16:50  21 38 31.04    -50 21 10.7   275309 1.0177 143.9  m  14?  27.08  94.1   68 204  53  90
   2024 07 18 17:00  21 38 59.33    -50 21 27.4   275598 1.0177 143.9  m  14?  27.18  92.7   67 207  53  90
   2024 07 18 17:10  21 39 27.78    -50 21 37.9   275893 1.0177 143.8  m  14?  27.33  91.4   66 210  53  90
   2024 07 18 17:20  21 39 56.44    -50 21 42.2   276192 1.0177 143.7  m  14?  27.52  90.1   65 213  54  90
   2024 07 18 17:30  21 40 25.32    -50 21 40.5   276497 1.0177 143.7  m  14?  27.76  88.9   64 215  54  90
   2024 07 18 17:40  21 40 54.45    -50 21 32.8   276806 1.0177 143.6  m  14?  28.03  87.7   63 217  54  90
   2024 07 18 17:50  21 41 23.87    -50 21 19.3   277120 1.0177 143.6  m  14?  28.34  86.6   61 219  54  90
   2024 07 18 18:00  21 41 53.59    -50 21 00.0   277439 1.0177 143.5  m  14?  28.69  85.5   60 221  54  90
   2024 07 18 18:10  21 42 23.64    -50 20 35.2   277762 1.0177 143.5  m  14?  29.07  84.4   59 222  54  90
   2024 07 18 18:20  21 42 54.05    -50 20 04.9   278090 1.0177 143.4  m  14?  29.48  83.5   57 223  54  90
   2024 07 18 18:30  21 43 24.83    -50 19 29.3   278422 1.0177 143.4  m  14?  29.92  82.5   56 224  54  90
   2024 07 18 18:40  21 43 56.02    -50 18 48.6   278757 1.0177 143.3  m  14?  30.38  81.7   55 225  54  90
   2024 07 18 18:50  21 44 27.63    -50 18 02.9   279097 1.0177 143.3  m  14?  30.88  80.9   53 226  54  90
   2024 07 18 19:00  21 44 59.69    -50 17 12.3   279441 1.0177 143.2  m  14?  31.39  80.2   52 226  54  90
   2024 07 18 19:10  21 45 32.21    -50 16 17.1   279788 1.0177 143.2     14?  31.93  79.5   50 227  54  90
   2024 07 18 19:20  21 46 05.21    -50 15 17.5   280139 1.0177 143.1     14?  32.48  78.9   49 227  54  91
   2024 07 18 19:30  21 46 38.71    -50 14 13.5   280493 1.0177 143.1     14?  33.05  78.3   47 228  54  91
   2024 07 18 19:40  21 47 12.73    -50 13 05.4   280851 1.0177 143.0 A   14?  33.64  77.8   46 228  54  91
   2024 07 18 19:50  21 47 47.27    -50 11 53.5   281211 1.0177 143.0 A   14?  34.24  77.4   44 228  54  91
   2024 07 18 20:00  21 48 22.36    -50 10 37.8   281574 1.0177 142.9 A   14?  34.85  77.0   43 228  54  91
   2024 07 18 20:10  21 48 58.01    -50 09 18.6   281939 1.0177 142.9 N   14?  35.47  76.7   41 228  54  91
   2024 07 18 20:20  21 49 34.22    -50 07 56.0   282307 1.0177 142.8 N   14?  36.09  76.4   40 228  54  91
   2024 07 18 20:30  21 50 11.02    -50 06 30.4   282676 1.0177 142.8 N   14?  36.72  76.2   38 228  54  91
   2024 07 18 20:40  21 50 48.40    -50 05 01.9   283048 1.0177 142.7 C   14?  37.36  76.0   37 228  54  91
   2024 07 18 20:50  21 51 26.37    -50 03 30.6   283421 1.0177 142.6 C   14?  38.00  75.8   35 228  54  91
   ................
   2024 07 19 08:10  22 49 26.38    -49 04 39.3   302049 1.0176 135.4 Nm  14?  48.88  95.5    0 151  57  94
   2024 07 19 08:20  22 50 15.62    -49 05 28.0   302141 1.0176 135.2 Am  14?  48.36  95.8    1 150  57  94
   2024 07 19 08:30  22 51 04.32    -49 06 18.9   302229 1.0176 135.1 Am  14?  47.83  96.2    2 149  57  94
   2024 07 19 08:40  22 51 52.45    -49 07 11.9   302313 1.0176 135.0 Am  14?  47.28  96.5    3 148  57  94
   2024 07 19 08:50  22 52 40.00    -49 08 06.8   302392 1.0176 134.9  m  14?  46.71  96.8    4 147  57  94
   2024 07 19 09:00  22 53 26.95    -49 09 03.5   302468 1.0176 134.8  m  14?  46.13  97.1    5 146  58  94
   2024 07 19 09:10  22 54 13.30    -49 10 01.8   302540 1.0176 134.6  m  14?  45.54  97.4    6 145  58  94
   2024 07 19 09:20  22 54 59.02    -49 11 01.6   302608 1.0176 134.5  m  14?  44.93  97.7    7 144  58  94
   2024 07 19 09:30  22 55 44.11    -49 12 02.7   302673 1.0176 134.4  m  14?  44.31  97.9    8 143  58  94
   2024 07 19 09:40  22 56 28.55    -49 13 05.0   302735 1.0176 134.3  m  14?  43.68  98.2   10 142  58  94
   2024 07 19 09:50  22 57 12.33    -49 14 08.2   302794 1.0176 134.2  m  14?  43.03  98.4   11 141  58  94
   2024 07 19 10:00  22 57 55.45    -49 15 12.3   302851 1.0176 134.1  m  14?  42.38  98.7   12 140  58  94
   2024 07 19 10:10  22 58 37.89    -49 16 17.0   302905 1.0176 133.9  m  14?  41.71  98.9   13 139  58  94
   2024 07 19 10:20  22 59 19.64    -49 17 22.2   302956 1.0176 133.8  m  14?  41.04  99.1   15 138  58  94
   2024 07 19 10:30  23 00 00.70    -49 18 27.6   303006 1.0176 133.7  m  14?  40.36  99.3   16 137  58  94
   2024 07 19 10:40  23 00 41.07    -49 19 33.2   303055 1.0176 133.6  m  14?  39.67  99.5   17 137  58  94
   2024 07 19 10:50  23 01 20.74    -49 20 38.7   303101 1.0176 133.5  m  14?  38.97  99.6   19 136  58  95
   2024 07 19 11:00  23 01 59.69    -49 21 43.9   303147 1.0176 133.4  m  14?  38.27  99.7   20 135  58  95
   2024 07 19 11:10  23 02 37.94    -49 22 48.7   303191 1.0176 133.3  m  14?  37.56  99.8   22 135  58  95
   2024 07 19 11:20  23 03 15.48    -49 23 52.8   303235 1.0176 133.2  m  14?  36.85  99.9   23 134  58  95
   2024 07 19 11:30  23 03 52.30    -49 24 56.1   303278 1.0176 133.1  m  14?  36.14  99.9   24 134  58  95
   2024 07 19 11:40  23 04 28.42    -49 25 58.3   303321 1.0176 133.0  m  14?  35.42 100.0   26 133  58  95
   2024 07 19 11:50  23 05 03.82    -49 26 59.3   303364 1.0176 132.9  m  14?  34.71 100.0   27 133  58  95
   2024 07 19 12:00  23 05 38.51    -49 27 58.9   303407 1.0176 132.8  m  14?  33.99  99.9   29 132  58  95
   2024 07 19 12:10  23 06 12.50    -49 28 56.9   303450 1.0176 132.8  m  14?  33.27  99.8   30 132  59  95
   2024 07 19 12:20  23 06 45.79    -49 29 53.1   303495 1.0176 132.7  m  14?  32.56  99.7   32 131  59  95
   2024 07 19 12:30  23 07 18.38    -49 30 47.3   303540 1.0176 132.6  m  14?  31.85  99.5   33 131  59  95
   2024 07 19 12:40  23 07 50.29    -49 31 39.3   303586 1.0176 132.5  m  14?  31.15  99.3   35 131  59  95
   2024 07 19 12:50  23 08 21.52    -49 32 29.0   303634 1.0176 132.4  m  14?  30.46  99.1   37 130  59  95
   2024 07 19 13:00  23 08 52.07    -49 33 16.1   303684 1.0176 132.3  m  14?  29.77  98.8   38 130  59  95
   2024 07 19 13:10  23 09 21.97    -49 34 00.4   303735 1.0176 132.3  m  14?  29.09  98.4   40 130  59  95
   2024 07 19 13:20  23 09 51.23    -49 34 41.9   303789 1.0176 132.2  m  14?  28.42  98.0   41 130  59  95
   2024 07 19 13:30  23 10 19.84    -49 35 20.2   303845 1.0176 132.1  m  14?  27.77  97.5   43 130  59  95
   2024 07 19 13:40  23 10 47.84    -49 35 55.3   303903 1.0176 132.0  m  14?  27.13  97.0   44 130  59  95
   2024 07 19 13:50  23 11 15.22    -49 36 26.9   303965 1.0176 132.0  m  14?  26.50  96.4   46 130  59  95
   2024 07 19 14:00  23 11 42.02    -49 36 54.9   304029 1.0176 131.9  m  14?  25.90  95.7   47 130  59  95
   2024 07 19 14:10  23 12 08.25    -49 37 19.2   304096 1.0176 131.8  m  14?  25.31  95.0   49 131  59  95
   2024 07 19 14:20  23 12 33.92    -49 37 39.5   304167 1.0176 131.8  m  14?  24.74  94.2   50 131  59  95
   2024 07 19 14:30  23 12 59.05    -49 37 55.7   304242 1.0175 131.7  m  14?  24.20  93.3   52 132  59  95
   2024 07 19 14:40  23 13 23.66    -49 38 07.8   304320 1.0175 131.7  m  14?  23.69  92.3   53 132  59  95
   2024 07 19 14:50  23 13 47.78    -49 38 15.5   304402 1.0175 131.6  m  14?  23.20  91.3   55 133  59  95
   2024 07 19 15:00  23 14 11.43    -49 38 18.7   304489 1.0175 131.5  m  14?  22.75  90.2   56 134  59  95
   2024 07 19 15:10  23 14 34.62    -49 38 17.3   304579 1.0175 131.5  m  14?  22.32  89.0   58 135  59  95
   2024 07 19 15:20  23 14 57.39    -49 38 11.1   304674 1.0175 131.4  m  14?  21.93  87.7   59 136  59  95
   2024 07 19 15:30  23 15 19.75    -49 38 00.2   304774 1.0175 131.4  m  14?  21.58  86.4   61 137  59  95
   2024 07 19 15:40  23 15 41.73    -49 37 44.3   304878 1.0175 131.3  m  14?  21.26  85.0   62 139  59  95
   2024 07 19 15:50  23 16 03.36    -49 37 23.3   304988 1.0175 131.3  m  14?  20.99  83.5   63 141  59  95
   2024 07 19 16:00  23 16 24.67    -49 36 57.3   305102 1.0175 131.2  m  14?  20.75  82.0   65 143  59  95
   2024 07 19 16:10  23 16 45.67    -49 36 26.0   305221 1.0175 131.2  m  14?  20.56  80.5   66 146  59  95
   2024 07 19 16:20  23 17 06.39    -49 35 49.5   305346 1.0175 131.1  m  14?  20.41  78.9   67 149  59  95
   2024 07 19 16:30  23 17 26.88    -49 35 07.7   305476 1.0175 131.1  m  14?  20.30  77.3   68 152  59  95
   2024 07 19 16:40  23 17 47.14    -49 34 20.5   305611 1.0175 131.0  m  14?  20.24  75.7   69 155  59  95
   2024 07 19 16:50  23 18 07.21    -49 33 28.0   305751 1.0175 131.0  m  14?  20.22  74.1   70 159  59  95
   2024 07 19 17:00  23 18 27.12    -49 32 29.9   305897 1.0175 131.0  m  14?  20.24  72.5   70 164  59  95
   2024 07 19 17:10  23 18 46.90    -49 31 26.5   306049 1.0175 130.9  m  14?  20.31  70.9   71 168  59  95
   2024 07 19 17:20  23 19 06.57    -49 30 17.5   306206 1.0175 130.9  m  14?  20.42  69.4   71 173  59  95
   2024 07 19 17:30  23 19 26.17    -49 29 03.1   306369 1.0175 130.8  m  14?  20.57  67.9   71 178  59  95
   2024 07 19 17:40  23 19 45.73    -49 27 43.2   306538 1.0175 130.8  t  14?  20.76  66.5   71 183  59  95
   2024 07 19 17:50  23 20 05.26    -49 26 17.8   306712 1.0175 130.7  m  14?  20.99  65.2   71 188  59  95
   2024 07 19 18:00  23 20 24.80    -49 24 47.1   306892 1.0175 130.7  m  14?  21.25  63.9   71 193  59  95
   2024 07 19 18:10  23 20 44.39    -49 23 10.9   307077 1.0175 130.7  m  14?  21.55  62.7   70 198  59  95
   2024 07 19 18:20  23 21 04.04    -49 21 29.4   307268 1.0175 130.6  m  14?  21.88  61.5   70 202  59  96
   2024 07 19 18:30  23 21 23.78    -49 19 42.6   307465 1.0175 130.6  m  14?  22.24  60.5   69 206  59  96
   2024 07 19 18:40  23 21 43.65    -49 17 50.6   307667 1.0175 130.5  m  14?  22.62  59.5   68 209  59  96
   2024 07 19 18:50  23 22 03.67    -49 15 53.4   307874 1.0175 130.5  m  14?  23.03  58.6   67 212  59  96
   2024 07 19 19:00  23 22 23.86    -49 13 51.2   308087 1.0175 130.5  m  14?  23.46  57.8   66 215  59  96
   2024 07 19 19:10  23 22 44.25    -49 11 44.0   308305 1.0175 130.4  m  14?  23.92  57.1   64 218  59  96
   2024 07 19 19:20  23 23 04.87    -49 09 31.9   308529 1.0175 130.4  m  14?  24.39  56.5   63 220  59  96
   2024 07 19 19:30  23 23 25.73    -49 07 15.0   308757 1.0175 130.3  m  14?  24.88  55.9   62 222  59  96
   2024 07 19 19:40  23 23 46.88    -49 04 53.4   308991 1.0175 130.3 Am  14?  25.38  55.4   60 223  59  96
   2024 07 19 19:50  23 24 08.32    -49 02 27.3   309230 1.0175 130.3 Am  14?  25.90  55.0   59 225  59  96
   2024 07 19 20:00  23 24 30.07    -48 59 56.8   309473 1.0175 130.2 Am  14?  26.43  54.7   57 226  59  96
   2024 07 19 20:10  23 24 52.17    -48 57 22.0   309721 1.0175 130.2 N   14?  26.97  54.4   56 227  59  96
   2024 07 19 20:20  23 25 14.63    -48 54 43.1   309973 1.0175 130.1 N   14?  27.52  54.2   54 228  59  96
   2024 07 19 20:30  23 25 37.47    -48 52 00.2   310230 1.0175 130.1 N   14?  28.08  54.0   53 228  59  96
   2024 07 19 20:40  23 26 00.71    -48 49 13.4   310491 1.0175 130.0 C   14?  28.64  53.9   51 229  59  96
   2024 07 19 20:50  23 26 24.37    -48 46 23.0   310756 1.0175 130.0 C   14?  29.21  53.8   50 229  59  96
   ................
   2024 07 20 09:50  00 15 54.15    -45 32 20.8   326171 1.0173 122.5  m  14?  39.48  84.0    0 146  62  98
   2024 07 20 10:00  00 16 31.26    -45 31 40.5   326159 1.0173 122.4  m  14?  38.93  84.2    0 145  62  98
   2024 07 20 10:10  00 17 07.87    -45 31 02.3   326143 1.0173 122.3  m  14?  38.38  84.4    1 144  62  98
   2024 07 20 10:20  00 17 43.94    -45 30 26.0   326122 1.0173 122.2  m  14?  37.80  84.6    2 143  62  98
   2024 07 20 10:30  00 18 19.47    -45 29 51.5   326097 1.0173 122.1  m  14?  37.22  84.8    4 142  62  98
   2024 07 20 10:40  00 18 54.45    -45 29 18.6   326068 1.0173 122.0  m  14?  36.63  85.0    5 141  62  98
   2024 07 20 10:50  00 19 28.87    -45 28 47.2   326036 1.0173 121.9  m  14?  36.03  85.1    6 140  62  98
   2024 07 20 11:00  00 20 02.71    -45 28 17.1   326000 1.0173 121.8  m  14?  35.42  85.2    7 139  62  98
   2024 07 20 11:10  00 20 35.97    -45 27 48.2   325960 1.0173 121.7  m  14?  34.80  85.3    9 138  62  98
   2024 07 20 11:20  00 21 08.64    -45 27 20.3   325918 1.0173 121.6  m  14?  34.17  85.4   10 137  62  98
   2024 07 20 11:30  00 21 40.70    -45 26 53.3   325873 1.0173 121.5  m  14?  33.54  85.5   12 136  62  98
   2024 07 20 11:40  00 22 12.17    -45 26 27.0   325825 1.0173 121.4  m  14?  32.90  85.5   13 135  62  98
   2024 07 20 11:50  00 22 43.02    -45 26 01.2   325776 1.0173 121.3  m  14?  32.25  85.5   14 134  62  98
   2024 07 20 12:00  00 23 13.25    -45 25 35.7   325724 1.0173 121.3  m  14?  31.61  85.4   16 133  62  98
   2024 07 20 12:10  00 23 42.87    -45 25 10.4   325671 1.0173 121.2  m  14?  30.96  85.3   17 132  62  98
   2024 07 20 12:20  00 24 11.86    -45 24 45.1   325616 1.0173 121.1  m  14?  30.30  85.2   19 131  62  98
   2024 07 20 12:30  00 24 40.22    -45 24 19.7   325560 1.0172 121.0  m  14?  29.65  85.1   20 131  62  98
   2024 07 20 12:40  00 25 07.96    -45 23 53.9   325504 1.0172 120.9  m  14?  29.00  84.9   22 130  62  98
   2024 07 20 12:50  00 25 35.08    -45 23 27.5   325447 1.0172 120.9  m  14?  28.36  84.6   24 129  62  98
   2024 07 20 13:00  00 26 01.56    -45 23 00.5   325389 1.0172 120.8  m  14?  27.71  84.3   25 129  62  98
   2024 07 20 13:10  00 26 27.43    -45 22 32.6   325332 1.0172 120.7  m  14?  27.07  84.0   27 128  63  98
   2024 07 20 13:20  00 26 52.67    -45 22 03.6   325275 1.0172 120.7  m  14?  26.44  83.6   28 127  63  98
   2024 07 20 13:30  00 27 17.30    -45 21 33.3   325218 1.0172 120.6  m  14?  25.82  83.1   30 127  63  98
   2024 07 20 13:40  00 27 41.31    -45 21 01.7   325163 1.0172 120.5  m  14?  25.20  82.6   32 126  63  98
   2024 07 20 13:50  00 28 04.72    -45 20 28.5   325108 1.0172 120.5  m  14?  24.60  82.1   33 126  63  98
   2024 07 20 14:00  00 28 27.53    -45 19 53.5   325055 1.0172 120.4  m  14?  24.01  81.4   35 125  63  98
   2024 07 20 14:10  00 28 49.76    -45 19 16.5   325003 1.0172 120.3  m  14?  23.44  80.7   37 125  63  98
   2024 07 20 14:20  00 29 11.40    -45 18 37.5   324954 1.0172 120.3  m  14?  22.88  79.9   38 125  63  98
   2024 07 20 14:30  00 29 32.46    -45 17 56.1   324907 1.0172 120.2  m  14?  22.34  79.0   40 124  63  98
   2024 07 20 14:40  00 29 52.97    -45 17 12.4   324862 1.0172 120.2  m  14?  21.82  78.1   42 124  63  98
   2024 07 20 14:50  00 30 12.94    -45 16 26.0   324820 1.0172 120.1  m  14?  21.33  77.1   43 124  63  98
   2024 07 20 15:00  00 30 32.36    -45 15 36.9   324781 1.0172 120.1  m  14?  20.86  76.0   45 124  63  98
   2024 07 20 15:10  00 30 51.27    -45 14 44.8   324745 1.0172 120.0  m  14?  20.41  74.8   47 124  63  98
   2024 07 20 15:20  00 31 09.67    -45 13 49.7   324712 1.0172 120.0  m  14?  20.00  73.6   48 124  63  98
   2024 07 20 15:30  00 31 27.58    -45 12 51.4   324683 1.0172 119.9  m  14?  19.61  72.2   50 124  63  98
   2024 07 20 15:40  00 31 45.02    -45 11 49.7   324659 1.0172 119.9  m  14?  19.26  70.8   52 124  63  98
   2024 07 20 15:50  00 32 02.01    -45 10 44.6   324638 1.0172 119.8  m  14?  18.95  69.3   54 124  63  98
   2024 07 20 16:00  00 32 18.55    -45 09 35.8   324622 1.0172 119.8  m  14?  18.67  67.8   55 125  63  98
   2024 07 20 16:10  00 32 34.68    -45 08 23.3   324610 1.0172 119.7  m  14?  18.42  66.2   57 125  63  98
   2024 07 20 16:20  00 32 50.42    -45 07 07.0   324603 1.0172 119.7  m  14?  18.22  64.6   59 126  63  99
   2024 07 20 16:30  00 33 05.77    -45 05 46.7   324601 1.0172 119.6  m  14?  18.06  62.9   60 127  63  99
   2024 07 20 16:40  00 33 20.78    -45 04 22.3   324604 1.0172 119.6  m  14?  17.93  61.2   62 128  63  99
   2024 07 20 16:50  00 33 35.45    -45 02 53.8   324612 1.0172 119.6  m  14?  17.85  59.5   64 129  63  99
   2024 07 20 17:00  00 33 49.81    -45 01 21.0   324626 1.0172 119.5  m  14?  17.81  57.8   65 131  63  99
   2024 07 20 17:10  00 34 03.88    -44 59 43.9   324645 1.0172 119.5  m  14?  17.81  56.1   67 133  63  99
   2024 07 20 17:20  00 34 17.69    -44 58 02.4   324671 1.0172 119.4  m  14?  17.85  54.5   68 135  63  99
   2024 07 20 17:30  00 34 31.26    -44 56 16.5   324701 1.0172 119.4  m  14?  17.93  52.9   70 138  63  99
   2024 07 20 17:40  00 34 44.61    -44 54 26.0   324738 1.0172 119.4  m  14?  18.04  51.3   71 141  63  99
   2024 07 20 17:50  00 34 57.78    -44 52 30.9   324781 1.0172 119.3  m  14?  18.19  49.9   72 145  63  99
   2024 07 20 18:00  00 35 10.78    -44 50 31.3   324831 1.0172 119.3  m  14?  18.38  48.4   74 150  63  99
   2024 07 20 18:10  00 35 23.64    -44 48 27.0   324886 1.0172 119.3  m  14?  18.60  47.1   75 155  63  99
   2024 07 20 18:20  00 35 36.39    -44 46 18.0   324948 1.0172 119.2  m  14?  18.85  45.9   75 161  63  99
   2024 07 20 18:30  00 35 49.05    -44 44 04.4   325016 1.0172 119.2  m  14?  19.13  44.7   76 168  63  99
   2024 07 20 18:40  00 36 01.64    -44 41 46.1   325090 1.0171 119.2  m  14?  19.43  43.7   76 176  63  99
   2024 07 20 18:50  00 36 14.20    -44 39 23.1   325171 1.0171 119.1  t  14?  19.76  42.7   76 183  63  99
   2024 07 20 19:00  00 36 26.75    -44 36 55.4   325258 1.0171 119.1  m  14?  20.11  41.8   76 191  63  99
   2024 07 20 19:10  00 36 39.32    -44 34 23.1   325352 1.0171 119.1  m  14?  20.49  41.0   75 198  63  99
   2024 07 20 19:20  00 36 51.92    -44 31 46.2   325452 1.0171 119.0  m  14?  20.88  40.3   75 204  63  99
   2024 07 20 19:30  00 37 04.59    -44 29 04.7   325558 1.0171 119.0  m  14?  21.29  39.7   74 210  63  99
   2024 07 20 19:40  00 37 17.35    -44 26 18.7   325671 1.0171 119.0 Am  14?  21.71  39.2   73 215  63  99
   2024 07 20 19:50  00 37 30.22    -44 23 28.2   325791 1.0171 118.9 Am  14?  22.15  38.8   71 219  63  99
   2024 07 20 20:00  00 37 43.24    -44 20 33.3   325916 1.0171 118.9 Am  14?  22.60  38.4   70 223  63  99
   2024 07 20 20:10  00 37 56.41    -44 17 34.1   326048 1.0171 118.9 Nm  14?  23.06  38.2   69 225  63  99
   2024 07 20 20:20  00 38 09.77    -44 14 30.6   326186 1.0171 118.8 Nm  14?  23.53  38.0   67 228  63  99
   2024 07 20 20:30  00 38 23.34    -44 11 23.0   326329 1.0171 118.8 Nm  14?  24.01  37.8   66 230  63  99
   2024 07 20 20:40  00 38 37.13    -44 08 11.2   326479 1.0171 118.7 Cm  14?  24.49  37.7   64 232  63  99
   2024 07 20 20:50  00 38 51.18    -44 04 55.5   326634 1.0171 118.7 Cm  14?  24.98  37.7   62 233  63  99
   ................
   2024 07 21 11:30  01 20 36.40    -39 24 11.0   336634 1.0169 110.9  m  14?  33.46  74.7    0 137  64  99
   2024 07 21 11:40  01 21 04.00    -39 22 43.2   336505 1.0168 110.8  m  14?  32.89  74.7    1 136  64  99
   2024 07 21 11:50  01 21 31.11    -39 21 16.8   336371 1.0168 110.7  m  14?  32.31  74.7    3 135  64  99
   2024 07 21 12:00  01 21 57.72    -39 19 51.6   336234 1.0168 110.6  m  14?  31.73  74.6    4 133  64  99
   2024 07 21 12:10  01 22 23.82    -39 18 27.4   336093 1.0168 110.5  m  14?  31.14  74.5    6 132  65  99
   2024 07 21 12:20  01 22 49.40    -39 17 04.2   335949 1.0168 110.5  m  14?  30.54  74.3    7 131  65  99
   2024 07 21 12:30  01 23 14.46    -39 15 41.8   335801 1.0168 110.4  m  14?  29.95  74.2    9 130  65  99
   2024 07 21 12:40  01 23 39.00    -39 14 20.0   335652 1.0168 110.3  m  14?  29.35  73.9   10 129  65  99
   2024 07 21 12:50  01 24 02.99    -39 12 58.7   335500 1.0168 110.2  m  14?  28.75  73.7   12 128  65  99
   2024 07 21 13:00  01 24 26.45    -39 11 37.7   335346 1.0168 110.2  m  14?  28.14  73.3   13 127  65  99
   2024 07 21 13:10  01 24 49.37    -39 10 16.9   335190 1.0168 110.1  m  14?  27.55  73.0   15 126  65  99
   2024 07 21 13:20  01 25 11.74    -39 08 56.1   335032 1.0168 110.0  m  14?  26.95  72.6   17 125  65  99
   2024 07 21 13:30  01 25 33.57    -39 07 35.1   334874 1.0168 109.9  m  14?  26.36  72.1   18 124  65  99
   2024 07 21 13:40  01 25 54.85    -39 06 13.9   334715 1.0168 109.9  m  14?  25.77  71.6   20 123  65  99
   2024 07 21 13:50  01 26 15.58    -39 04 52.1   334555 1.0168 109.8  m  14?  25.20  71.1   22 123  65  99
   2024 07 21 14:00  01 26 35.77    -39 03 29.8   334396 1.0168 109.7  m  14?  24.63  70.4   24 122  65  99
   2024 07 21 14:10  01 26 55.42    -39 02 06.7   334236 1.0168 109.7  m  14?  24.07  69.7   25 121  65  99
   2024 07 21 14:20  01 27 14.52    -39 00 42.6   334077 1.0168 109.6  m  14?  23.53  69.0   27 120  65  99
   2024 07 21 14:30  01 27 33.09    -38 59 17.5   333919 1.0168 109.6  m  14?  23.00  68.2   29 120  65  99
   2024 07 21 14:40  01 27 51.12    -38 57 51.1   333761 1.0168 109.5  m  14?  22.48  67.3   31 119  65  99
   2024 07 21 14:50  01 28 08.63    -38 56 23.2   333606 1.0168 109.5  m  14?  21.99  66.3   32 118  65  99
   2024 07 21 15:00  01 28 25.62    -38 54 53.8   333452 1.0168 109.4  m  14?  21.51  65.3   34 118  65  99
   2024 07 21 15:10  01 28 42.10    -38 53 22.7   333300 1.0168 109.3  m  14?  21.06  64.2   36 117  65  99
   2024 07 21 15:20  01 28 58.07    -38 51 49.8   333151 1.0168 109.3  m  14?  20.63  63.0   38 116  65  99
   2024 07 21 15:30  01 29 13.55    -38 50 14.8   333004 1.0168 109.2  m  14?  20.23  61.7   40 116  65  99
   2024 07 21 15:40  01 29 28.54    -38 48 37.6   332860 1.0168 109.2  m  14?  19.85  60.4   42 115  65  99
   2024 07 21 15:50  01 29 43.07    -38 46 58.1   332719 1.0168 109.1  m  14?  19.51  59.0   44 115  65  99
   2024 07 21 16:00  01 29 57.13    -38 45 16.2   332583 1.0168 109.1  m  14?  19.19  57.5   45 114  65  99
   2024 07 21 16:10  01 30 10.74    -38 43 31.8   332449 1.0168 109.1  m  14?  18.91  56.0   47 114  65  99
   2024 07 21 16:20  01 30 23.92    -38 41 44.6   332320 1.0168 109.0  m  14?  18.67  54.5   49 114  65  99
   2024 07 21 16:30  01 30 36.69    -38 39 54.6   332196 1.0168 109.0  m  14?  18.46  52.9   51 114  65  99
   2024 07 21 16:40  01 30 49.05    -38 38 01.6   332076 1.0168 108.9  m  14?  18.28  51.3   53 113  65  99
   2024 07 21 16:50  01 31 01.02    -38 36 05.5   331961 1.0168 108.9  m  14?  18.14  49.7   55 113  65  99
   2024 07 21 17:00  01 31 12.62    -38 34 06.3   331850 1.0167 108.9  m  14?  18.04  48.0   57 113  65  99
   2024 07 21 17:10  01 31 23.87    -38 32 03.8   331746 1.0167 108.8  m  14?  17.98  46.4   59 113  65  99
   2024 07 21 17:20  01 31 34.78    -38 29 57.9   331647 1.0167 108.8  m  14?  17.95  44.8   61 113  65  99
   2024 07 21 17:30  01 31 45.38    -38 27 48.6   331553 1.0167 108.7  m  14?  17.96  43.2   63 114  65  99
   2024 07 21 17:40  01 31 55.68    -38 25 35.6   331466 1.0167 108.7  m  14?  18.00  41.6   65 114  65  99
   2024 07 21 17:50  01 32 05.70    -38 23 19.1   331384 1.0167 108.7  m  14?  18.08  40.1   67 115  65  99
   2024 07 21 18:00  01 32 15.47    -38 20 58.8   331310 1.0167 108.6  m  14?  18.19  38.7   68 115  65  99
   2024 07 21 18:10  01 32 25.01    -38 18 34.7   331241 1.0167 108.6  m  14?  18.34  37.3   70 117  65  99
   2024 07 21 18:20  01 32 34.33    -38 16 06.8   331179 1.0167 108.6  m  14?  18.51  36.0   72 118  65  99
   2024 07 21 18:30  01 32 43.47    -38 13 35.0   331124 1.0167 108.5  m  14?  18.71  34.8   74 120  65  99
   2024 07 21 18:40  01 32 52.43    -38 10 59.2   331076 1.0167 108.5  m  14?  18.94  33.7   76 123  65  99
   2024 07 21 18:50  01 33 01.25    -38 08 19.5   331034 1.0167 108.5  m  14?  19.19  32.6   78 127  65  99
   2024 07 21 19:00  01 33 09.94    -38 05 35.8   331000 1.0167 108.4  m  14?  19.46  31.7   79 133  65  99
   2024 07 21 19:10  01 33 18.53    -38 02 48.0   330973 1.0167 108.4  m  14?  19.75  30.8   81 141  65  99
   2024 07 21 19:20  01 33 27.05    -37 59 56.2   330953 1.0167 108.4  m  14?  20.07  30.0   82 151  65  99
   2024 07 21 19:30  01 33 35.51    -37 57 00.4   330941 1.0167 108.3  m  14?  20.40  29.4   83 166  65  99
   2024 07 21 19:40  01 33 43.94    -37 54 00.5   330935 1.0167 108.3 At  14?  20.74  28.8   83 182  65  99
   2024 07 21 19:50  01 33 52.36    -37 50 56.6   330937 1.0167 108.3 Am  14?  21.10  28.3   83 199  65  99
   2024 07 21 20:00  01 34 00.80    -37 47 48.6   330947 1.0167 108.2 Am  14?  21.47  27.9   82 213  65  99
   2024 07 21 20:10  01 34 09.27    -37 44 36.7   330964 1.0167 108.2 Nm  14?  21.86  27.5   80 223  65  99
   2024 07 21 20:20  01 34 17.81    -37 41 20.8   330988 1.0167 108.2 Nm  14?  22.25  27.3   79 230  65  99
   2024 07 21 20:30  01 34 26.43    -37 38 01.0   331019 1.0167 108.1 Nm  14?  22.65  27.1   77 235  65  99
   2024 07 21 20:40  01 34 35.15    -37 34 37.3   331057 1.0167 108.1 Cm  14?  23.06  27.0   76 239  65  99
   2024 07 21 20:50  01 34 44.01    -37 31 09.8   331103 1.0167 108.1 Cm  14?  23.48  27.0   74 242  65  99
   ................
   2024 07 22 12:50  02 11 11.80    -31 41 35.5   333919 1.0164  99.8  m  13?  31.31  65.2    0 127  66  98
   2024 07 22 13:00  02 11 33.82    -31 39 24.0   333676 1.0163  99.7  m  13?  30.76  64.8    2 125  66  98
   2024 07 22 13:10  02 11 55.37    -31 37 13.0   333429 1.0163  99.6  m  13?  30.20  64.4    4 124  66  98
   2024 07 22 13:20  02 12 16.45    -31 35 02.6   333179 1.0163  99.5  m  13?  29.64  64.0    5 123  66  98
   2024 07 22 13:30  02 12 37.05    -31 32 52.5   332927 1.0163  99.5  m  13?  29.09  63.6    7 122  66  98
   2024 07 22 13:40  02 12 57.17    -31 30 42.7   332672 1.0163  99.4  m  13?  28.54  63.0    9 121  66  98
   2024 07 22 13:50  02 13 16.80    -31 28 33.0   332415 1.0163  99.3  m  13?  27.99  62.5   11 120  66  97
   2024 07 22 14:00  02 13 35.95    -31 26 23.3   332156 1.0163  99.2  m  13?  27.45  61.9   12 119  66  97
   2024 07 22 14:10  02 13 54.60    -31 24 13.5   331896 1.0163  99.2  m  13?  26.91  61.2   14 118  66  97
   2024 07 22 14:20  02 14 12.76    -31 22 03.4   331635 1.0163  99.1  m  13?  26.39  60.5   16 116  66  97
   2024 07 22 14:30  02 14 30.43    -31 19 52.8   331374 1.0163  99.0  m  13?  25.87  59.7   18 115  66  97
   2024 07 22 14:40  02 14 47.61    -31 17 41.7   331112 1.0163  99.0  m  13?  25.37  58.9   20 114  66  97
   2024 07 22 14:50  02 15 04.29    -31 15 29.9   330851 1.0163  98.9  m  13?  24.88  58.0   22 114  66  97
   2024 07 22 15:00  02 15 20.48    -31 13 17.3   330589 1.0163  98.8  m  13?  24.41  57.0   23 113  66  97
   2024 07 22 15:10  02 15 36.19    -31 11 03.7   330329 1.0163  98.8  m  13?  23.95  56.0   25 112  66  97
   2024 07 22 15:20  02 15 51.42    -31 08 49.0   330070 1.0163  98.7  m  13?  23.52  55.0   27 111  66  97
   2024 07 22 15:30  02 16 06.16    -31 06 33.1   329812 1.0163  98.7  m  13?  23.10  53.8   29 110  66  97
   2024 07 22 15:40  02 16 20.43    -31 04 15.8   329557 1.0163  98.6  m  13?  22.71  52.7   31 109  66  97
   2024 07 22 15:50  02 16 34.24    -31 01 57.0   329303 1.0163  98.6  m  13?  22.34  51.4   33 108  66  97
   2024 07 22 16:00  02 16 47.59    -30 59 36.7   329052 1.0163  98.5  m  13?  22.00  50.2   35 107  66  97
   2024 07 22 16:10  02 17 00.48    -30 57 14.5   328804 1.0163  98.5  m  13?  21.69  48.8   37 106  66  97
   2024 07 22 16:20  02 17 12.94    -30 54 50.6   328560 1.0163  98.4  m  13?  21.40  47.5   39 105  66  97
   2024 07 22 16:30  02 17 24.96    -30 52 24.6   328319 1.0163  98.4  m  13?  21.15  46.1   41 105  66  97
   2024 07 22 16:40  02 17 36.56    -30 49 56.5   328081 1.0163  98.3  m  13?  20.92  44.6   43 104  66  97
   2024 07 22 16:50  02 17 47.75    -30 47 26.2   327848 1.0163  98.3  m  13?  20.73  43.2   45 103  66  97
   2024 07 22 17:00  02 17 58.55    -30 44 53.6   327620 1.0163  98.2  m  13?  20.57  41.7   47 102  66  97
   2024 07 22 17:10  02 18 08.95    -30 42 18.6   327396 1.0163  98.2  m  13?  20.45  40.2   49 101  66  97
   2024 07 22 17:20  02 18 18.99    -30 39 41.0   327178 1.0163  98.1  m  13?  20.35  38.8   51 100  66  97
   2024 07 22 17:30  02 18 28.67    -30 37 00.8   326965 1.0163  98.1  m  13?  20.29  37.3   53 100  66  97
   2024 07 22 17:40  02 18 38.01    -30 34 17.9   326757 1.0163  98.1  m  13?  20.26  35.9   55  99  66  97
   2024 07 22 17:50  02 18 47.03    -30 31 32.1   326555 1.0162  98.0  m  13?  20.26  34.5   58  98  66  97
   2024 07 22 18:00  02 18 55.73    -30 28 43.5   326360 1.0162  98.0  m  13?  20.29  33.1   60  97  66  97
   2024 07 22 18:10  02 19 04.15    -30 25 51.9   326171 1.0162  97.9  m  13?  20.35  31.8   62  96  66  97
   2024 07 22 18:20  02 19 12.29    -30 22 57.2   325989 1.0162  97.9  m  13?  20.44  30.6   64  95  66  97
   2024 07 22 18:30  02 19 20.17    -30 19 59.5   325813 1.0162  97.9  m  13?  20.56  29.4   66  94  66  97
   2024 07 22 18:40  02 19 27.82    -30 16 58.5   325644 1.0162  97.8  m  13?  20.70  28.2   68  93  66  97
   2024 07 22 18:50  02 19 35.25    -30 13 54.4   325483 1.0162  97.8  m  13?  20.87  27.2   70  92  66  97
   2024 07 22 19:00  02 19 42.49    -30 10 46.9   325329 1.0162  97.7  m  13?  21.06  26.2   72  91  66  97
   2024 07 22 19:10  02 19 49.55    -30 07 36.2   325183 1.0162  97.7  m  13?  21.27  25.3   74  89  66  97
   2024 07 22 19:20  02 19 56.45    -30 04 22.0   325044 1.0162  97.7  m  13?  21.49  24.4   76  88  66  97
   2024 07 22 19:30  02 20 03.21    -30 01 04.5   324913 1.0162  97.6  m  13?  21.74  23.7   79  86  66  97
   2024 07 22 19:40  02 20 09.87    -29 57 43.6   324790 1.0162  97.6 Am  13?  22.00  23.0   81  83  66  97
   2024 07 22 19:50  02 20 16.42    -29 54 19.3   324674 1.0162  97.6 Am  13?  22.28  22.4   83  79  66  97
   2024 07 22 20:00  02 20 22.91    -29 50 51.5   324567 1.0162  97.5 Am  13?  22.57  21.9   85  72  66  97
   2024 07 22 20:10  02 20 29.34    -29 47 20.3   324468 1.0162  97.5 Nm  13?  22.87  21.5   87  56  66  97
   2024 07 22 20:20  02 20 35.75    -29 43 45.7   324377 1.0162  97.5 Nm  13?  23.19  21.2   88   8  66  97
   2024 07 22 20:30  02 20 42.15    -29 40 07.6   324295 1.0162  97.4 Nt  13?  23.51  20.9   87 311  66  97
   2024 07 22 20:40  02 20 48.56    -29 36 26.1   324220 1.0162  97.4 Cm  13?  23.84  20.7   85 292  66  97
   2024 07 22 20:50  02 20 55.01    -29 32 41.2   324154 1.0162  97.3 Cm  13?  24.18  20.5   83 284  66  97
   ................
   2024 07 23 14:00  02 55 18.15    -22 25 20.1   318265 1.0158  88.1  m  13?  33.05  55.1    0 115  66  93
   2024 07 23 14:10  02 55 37.45    -22 22 10.6   317912 1.0158  88.0  m  13?  32.55  54.5    2 114  66  93
   2024 07 23 14:20  02 55 56.31    -22 19 01.1   317556 1.0158  88.0  m  13?  32.05  53.8    4 113  66  93
   2024 07 23 14:30  02 56 14.70    -22 15 51.4   317197 1.0158  87.9  m  13?  31.57  53.1    6 112  66  93
   2024 07 23 14:40  02 56 32.64    -22 12 41.4   316837 1.0158  87.8  m  13?  31.09  52.4    8 110  66  93
   2024 07 23 14:50  02 56 50.12    -22 09 31.0   316476 1.0158  87.7  m  13?  30.61  51.6   10 109  66  93
   2024 07 23 15:00  02 57 07.13    -22 06 20.1   316114 1.0158  87.6  m  13?  30.15  50.8   12 108  66  93
   2024 07 23 15:10  02 57 23.67    -22 03 08.6   315751 1.0158  87.6  m  13?  29.71  49.9   14 107  66  93
   2024 07 23 15:20  02 57 39.76    -21 59 56.4   315388 1.0158  87.5  m  13?  29.27  49.0   16 106  66  93
   2024 07 23 15:30  02 57 55.38    -21 56 43.4   315025 1.0158  87.4  m  13?  28.85  48.0   18 104  66  93
   2024 07 23 15:40  02 58 10.53    -21 53 29.5   314663 1.0158  87.4  m  13?  28.45  47.0   20 103  66  93
   2024 07 23 15:50  02 58 25.23    -21 50 14.5   314302 1.0158  87.3  m  13?  28.07  46.0   22 102  66  93
   2024 07 23 16:00  02 58 39.47    -21 46 58.5   313942 1.0158  87.2  m  13?  27.71  44.9   24 101  66  93
   2024 07 23 16:10  02 58 53.26    -21 43 41.2   313584 1.0158  87.2  m  13?  27.37  43.8   26 100  66  93
   2024 07 23 16:20  02 59 06.60    -21 40 22.6   313229 1.0158  87.1  m  13?  27.05  42.6   28  99  66  93
   2024 07 23 16:30  02 59 19.50    -21 37 02.6   312876 1.0158  87.0  m  13?  26.75  41.5   30  98  66  92
   2024 07 23 16:40  02 59 31.96    -21 33 41.0   312525 1.0158  87.0  m  13?  26.48  40.3   32  96  66  92
   2024 07 23 16:50  02 59 44.00    -21 30 17.9   312178 1.0158  86.9  m  13?  26.24  39.1   34  95  66  92
   2024 07 23 17:00  02 59 55.62    -21 26 53.1   311835 1.0158  86.9  m  13?  26.02  37.9   36  94  67  92
   2024 07 23 17:10  03 00 06.83    -21 23 26.5   311496 1.0158  86.8  m  13?  25.83  36.6   38  93  67  92
   2024 07 23 17:20  03 00 17.63    -21 19 58.0   311161 1.0157  86.7  m  13?  25.66  35.4   40  92  67  92
   2024 07 23 17:30  03 00 28.05    -21 16 27.6   310831 1.0157  86.7  m  13?  25.52  34.2   42  90  67  92
   2024 07 23 17:40  03 00 38.10    -21 12 55.1   310506 1.0157  86.6  m  13?  25.41  33.0   44  89  67  92
   2024 07 23 17:50  03 00 47.78    -21 09 20.5   310186 1.0157  86.6  m  13?  25.33  31.7   46  88  67  92
   2024 07 23 18:00  03 00 57.10    -21 05 43.8   309872 1.0157  86.5  m  13?  25.27  30.6   49  86  67  92
   2024 07 23 18:10  03 01 06.09    -21 02 04.8   309563 1.0157  86.5  m  13?  25.24  29.4   51  84  67  92
   2024 07 23 18:20  03 01 14.76    -20 58 23.5   309262 1.0157  86.4  m  13?  25.24  28.3   53  83  67  92
   2024 07 23 18:30  03 01 23.12    -20 54 39.8   308966 1.0157  86.4  m  13?  25.26  27.2   55  81  67  92
   2024 07 23 18:40  03 01 31.19    -20 50 53.7   308678 1.0157  86.3  m  13?  25.30  26.2   57  79  67  92
   2024 07 23 18:50  03 01 38.98    -20 47 05.1   308396 1.0157  86.3  m  13?  25.37  25.2   59  77  67  92
   2024 07 23 19:00  03 01 46.52    -20 43 14.0   308122 1.0157  86.2  m  13?  25.46  24.2   61  75  67  92
   2024 07 23 19:10  03 01 53.81    -20 39 20.3   307855 1.0157  86.2  m  13?  25.57  23.3   63  72  66  92
   2024 07 23 19:20  03 02 00.89    -20 35 24.0   307596 1.0157  86.2  m  13?  25.70  22.5   65  69  66  92
   2024 07 23 19:30  03 02 07.76    -20 31 25.1   307345 1.0157  86.1  m  13?  25.84  21.7   67  66  66  92
   2024 07 23 19:40  03 02 14.44    -20 27 23.5   307102 1.0157  86.1 Am  13?  26.01  21.0   69  63  66  92
   2024 07 23 19:50  03 02 20.96    -20 23 19.1   306867 1.0157  86.0 Am  13?  26.19  20.4   71  58  66  92
   2024 07 23 20:00  03 02 27.34    -20 19 12.1   306640 1.0157  86.0 Am  13?  26.38  19.8   72  53  66  92
   2024 07 23 20:10  03 02 33.59    -20 15 02.4   306422 1.0157  85.9 Nm  13?  26.58  19.3   74  47  66  92
   2024 07 23 20:20  03 02 39.74    -20 10 49.9   306213 1.0157  85.9 Nm  13?  26.80  18.8   75  40  66  92
   2024 07 23 20:30  03 02 45.81    -20 06 34.6   306012 1.0157  85.8 Nm  13?  27.03  18.4   76  32  66  92
   2024 07 23 20:40  03 02 51.81    -20 02 16.6   305821 1.0157  85.8 Cm  13?  27.27  18.1   77  22  66  92
   2024 07 23 20:50  03 02 57.78    -19 57 55.9   305638 1.0157  85.8 Cm  13?  27.52  17.9   78  11  66  92
   ................
   2024 07 24 15:10  03 39 15.17    -10 52 52.8   289358 1.0153  74.7  m  13?  40.22  45.5    0 102  66  86
   2024 07 24 15:20  03 39 34.39    -10 48 10.2   288900 1.0153  74.6  m  13?  39.81  44.8    2 100  66  85
   2024 07 24 15:30  03 39 53.16    -10 43 26.6   288440 1.0153  74.5  m  13?  39.41  44.0    4  99  66  85
   2024 07 24 15:40  03 40 11.47    -10 38 42.1   287979 1.0153  74.4  m  13?  39.02  43.2    6  98  66  85
   2024 07 24 15:50  03 40 29.33    -10 33 56.6   287517 1.0153  74.3  m  13?  38.65  42.4    8  96  66  85
   2024 07 24 16:00  03 40 46.72    -10 29 10.0   287056 1.0153  74.2  m  13?  38.28  41.5   10  95  66  85
   2024 07 24 16:10  03 41 03.65    -10 24 22.3   286595 1.0153  74.1  m  13?  37.93  40.6   12  94  66  85
   2024 07 24 16:20  03 41 20.13    -10 19 33.4   286135 1.0153  74.1  m  13?  37.59  39.7   14  93  66  85
   2024 07 24 16:30  03 41 36.15    -10 14 43.2   285676 1.0153  74.0  m  13?  37.27  38.8   16  91  66  85
   2024 07 24 16:40  03 41 51.72    -10 09 51.8   285219 1.0153  73.9  m  13?  36.97  37.9   19  90  66  85
   2024 07 24 16:50  03 42 06.84    -10 04 59.0   284763 1.0153  73.8  m  13?  36.68  37.0   21  89  66  85
   2024 07 24 17:00  03 42 21.51    -10 00 04.8   284311 1.0153  73.7  m  13?  36.41  36.0   23  87  66  85
   2024 07 24 17:10  03 42 35.74    -09 55 09.1   283860 1.0152  73.6  m  13?  36.16  35.1   25  86  66  85
   2024 07 24 17:20  03 42 49.54    -09 50 12.0   283414 1.0152  73.6  m  13?  35.92  34.1   27  84  66  85
   2024 07 24 17:30  03 43 02.91    -09 45 13.3   282970 1.0152  73.5  m  13?  35.71  33.1   29  83  66  85
   2024 07 24 17:40  03 43 15.87    -09 40 13.0   282531 1.0152  73.4  m  13?  35.52  32.2   31  81  66  85
   2024 07 24 17:50  03 43 28.41    -09 35 11.2   282096 1.0152  73.3  m  13?  35.35  31.2   33  80  66  85
   2024 07 24 18:00  03 43 40.56    -09 30 07.7   281666 1.0152  73.2  m  13?  35.20  30.3   35  78  66  85
   2024 07 24 18:10  03 43 52.32    -09 25 02.4   281241 1.0152  73.2  m  13?  35.07  29.3   37  77  66  85
   2024 07 24 18:20  03 44 03.70    -09 19 55.5   280821 1.0152  73.1  m  13?  34.96  28.4   39  75  66  85
   2024 07 24 18:30  03 44 14.71    -09 14 46.9   280408 1.0152  73.0  m  13?  34.87  27.5   41  73  66  85
   2024 07 24 18:40  03 44 25.38    -09 09 36.4   280000 1.0152  73.0  m  13?  34.79  26.6   43  71  66  85
   2024 07 24 18:50  03 44 35.70    -09 04 24.2   279598 1.0152  72.9  m  13?  34.74  25.8   45  69  66  85
   2024 07 24 19:00  03 44 45.71    -08 59 10.2   279204 1.0152  72.8  m  13?  34.71  25.0   47  67  66  85
   2024 07 24 19:10  03 44 55.40    -08 53 54.3   278816 1.0152  72.8  m  13?  34.69  24.2   48  64  66  85
   2024 07 24 19:20  03 45 04.80    -08 48 36.6   278435 1.0152  72.7  m  13?  34.70  23.4   50  62  66  85
   2024 07 24 19:30  03 45 13.93    -08 43 17.0   278062 1.0152  72.6  m  13?  34.71  22.7   52  59  66  85
   2024 07 24 19:40  03 45 22.80    -08 37 55.6   277697 1.0152  72.6 Am  13?  34.75  22.0   54  56  66  84
   2024 07 24 19:50  03 45 31.44    -08 32 32.3   277340 1.0152  72.5 Am  13?  34.80  21.4   56  53  66  84
   2024 07 24 20:00  03 45 39.85    -08 27 07.2   276990 1.0152  72.4 Am  13?  34.86  20.8   57  50  66  84
   2024 07 24 20:10  03 45 48.06    -08 21 40.2   276650 1.0152  72.4 Nm  13?  34.94  20.3   59  46  66  84
   2024 07 24 20:20  03 45 56.08    -08 16 11.3   276318 1.0152  72.3 Nm  13?  35.02  19.8   60  42  66  84
   2024 07 24 20:30  03 46 03.95    -08 10 40.6   275994 1.0152  72.3 Nm  13?  35.12  19.3   61  38  66  84
   2024 07 24 20:40  03 46 11.68    -08 05 08.1   275680 1.0152  72.2 Cm  13?  35.23  19.0   62  33  66  84
   2024 07 24 20:50  03 46 19.28    -07 59 33.7   275374 1.0152  72.1 Cm  13?  35.36  18.6   63  28  66  84
   ................
   2024 07 25 16:40  04 32 22.96    +04 47 47.5   246268 1.0148  57.4  m  13?  57.62  38.0    1  83  66  76
   2024 07 25 16:50  04 32 46.38    +04 55 23.4   245722 1.0148  57.2  m  13?  57.34  37.3    3  82  67  76
   2024 07 25 17:00  04 33 09.34    +05 03 01.2   245178 1.0148  57.1  m  13?  57.07  36.6    5  80  67  76
   2024 07 25 17:10  04 33 31.83    +05 10 40.9   244634 1.0148  57.0  m  13?  56.80  35.9    7  79  67  76
   2024 07 25 17:20  04 33 53.85    +05 18 22.3   244092 1.0148  56.9  m  13?  56.54  35.3    9  77  67  76
   2024 07 25 17:30  04 34 15.40    +05 26 05.6   243552 1.0148  56.7  m  13?  56.29  34.6   11  76  67  76
   2024 07 25 17:40  04 34 36.49    +05 33 50.7   243015 1.0148  56.6  m  13?  56.04  33.9   13  75  67  76
   2024 07 25 17:50  04 34 57.12    +05 41 37.5   242480 1.0148  56.5  m  13?  55.81  33.2   14  73  67  76
   2024 07 25 18:00  04 35 17.30    +05 49 26.0   241948 1.0148  56.4  m  13?  55.58  32.5   16  71  67  75
   2024 07 25 18:10  04 35 37.03    +05 57 16.2   241420 1.0148  56.3  m  13?  55.37  31.8   18  70  67  75
   2024 07 25 18:20  04 35 56.33    +06 05 08.0   240896 1.0148  56.2  m  13?  55.16  31.2   20  68  67  75
   2024 07 25 18:30  04 36 15.18    +06 13 01.3   240376 1.0148  56.1  m  13?  54.96  30.5   22  67  67  75
   2024 07 25 18:40  04 36 33.62    +06 20 56.2   239860 1.0148  55.9  m  13?  54.77  29.9   24  65  67  75
   2024 07 25 18:50  04 36 51.64    +06 28 52.5   239350 1.0148  55.8  m  13?  54.60  29.2   26  63  67  75
   2024 07 25 19:00  04 37 09.26    +06 36 50.2   238845 1.0148  55.7  m  13?  54.43  28.6   27  61  67  75
   2024 07 25 19:10  04 37 26.49    +06 44 49.2   238346 1.0148  55.6  m  13?  54.27  28.0   29  59  67  75
   2024 07 25 19:20  04 37 43.34    +06 52 49.5   237852 1.0148  55.5  m  13?  54.12  27.4   31  57  67  75
   2024 07 25 19:30  04 37 59.83    +07 00 51.0   237365 1.0148  55.4  m  13?  53.98  26.9   32  55  67  75
   2024 07 25 19:40  04 38 15.97    +07 08 53.7   236884 1.0148  55.3 Am  13?  53.85  26.3   34  53  67  75
   2024 07 25 19:50  04 38 31.78    +07 16 57.5   236411 1.0148  55.2 Am  13?  53.73  25.8   36  51  67  75
   2024 07 25 20:00  04 38 47.28    +07 25 02.3   235944 1.0148  55.1 Am  13?  53.62  25.3   37  48  67  75
   2024 07 25 20:10  04 39 02.47    +07 33 08.0   235485 1.0148  55.0 Nm  13?  53.52  24.8   39  46  67  75
   2024 07 25 20:20  04 39 17.39    +07 41 14.6   235033 1.0148  54.9 Nm  13?  53.43  24.4   40  43  67  75
   2024 07 25 20:30  04 39 32.04    +07 49 22.0   234589 1.0147  54.8 Cm  13?  53.34  24.0   41  40  67  75
   2024 07 25 20:40  04 39 46.46    +07 57 30.1   234153 1.0147  54.7 Cm  13?  53.27  23.6   42  38  67  75
   ................
   2024 07 26 19:10  06 05 34.30    +29 06 21.6   189414 1.0145  33.1  m  13?  99.86  38.9    0  55  74  64
   2024 07 26 19:20  06 06 21.86    +29 19 20.8   188871 1.0145  33.0  m  13?  99.62  38.6    1  53  74  64
   2024 07 26 19:30  06 07 09.09    +29 32 21.4   188333 1.0145  32.8  m  13?  99.38  38.3    2  52  74  64
   2024 07 26 19:40  06 07 55.99    +29 45 23.1   187798 1.0145  32.7 Am  13?  99.12  38.0    4  51  74  64
   2024 07 26 19:50  06 08 42.59    +29 58 25.7   187268 1.0145  32.6 Am  13?  98.86  37.8    5  49  74  64
   2024 07 26 20:00  06 09 28.89    +30 11 29.1   186742 1.0145  32.5 Nm  13?  98.59  37.5    7  48  74  64
   2024 07 26 20:10  06 10 14.89    +30 24 32.8   186221 1.0145  32.4 Nm  13?  98.31  37.3    8  46  75  64
   2024 07 26 20:20  06 11 00.62    +30 37 36.8   185705 1.0145  32.3 Nm  13?  98.03  37.1    9  44  75  64
   2024 07 26 20:30  06 11 46.08    +30 50 40.7   185195 1.0145  32.2 Cm  13?  97.74  36.8   10  43  75  64
   2024 07 26 20:40  06 12 31.30    +31 03 44.2   184690 1.0145  32.1 Cm  13?  97.44  36.6   12  41  75  64
   ................
   

Chandra Observatory (JPL-ID: -151)

   Date (UTC) HH:MM   RA              Dec         delta   r     elong SM  mag  '/hr    PA   alt  az moo ill
   ---- -- -- -----  -------------   -----------  ------ ------ ----- --  --- ------ ------ --- --- --- ---
   2024 07 14 09:50  19 47 47.23    +29 59 50.4   114954 1.0170 128.2  m  15?  57.16 109.2    1  53  98  54
   2024 07 14 10:00  19 48 28.39    +29 56 36.9   114034 1.0170 128.3  m  15?  56.63 110.2    2  52  98  54
   2024 07 14 10:10  19 49 08.92    +29 53 16.2   113108 1.0170 128.3  m  15?  56.14 111.2    4  50  98  54
   2024 07 14 10:20  19 49 48.82    +29 49 47.9   112175 1.0170 128.4  m  15?  55.72 112.2    5  49  98  54
   2024 07 14 10:30  19 50 28.10    +29 46 11.4   111237 1.0170 128.4  m  15?  55.35 113.3    7  48  98  54
   2024 07 14 10:40  19 51 06.79    +29 42 26.3   110292 1.0170 128.5  m  14?  55.05 114.5    8  46  98  54
   2024 07 14 10:50  19 51 44.91    +29 38 32.0   109342 1.0170 128.5  m  14?  54.82 115.7   10  45  98  54
   2024 07 14 11:00  19 52 22.49    +29 34 28.0   108386 1.0170 128.6  m  14?  54.68 116.9   11  44  98  54
   2024 07 14 11:10  19 52 59.55    +29 30 13.8   107424 1.0170 128.7  m  14?  54.61 118.2   13  42  98  54
   2024 07 14 11:20  19 53 36.12    +29 25 48.8   106457 1.0170 128.7  m  14?  54.64 119.5   14  40  98  54
   2024 07 14 11:30  19 54 12.23    +29 21 12.5   105485 1.0169 128.8  m  14?  54.76 120.8   16  39  99  54
   2024 07 14 11:40  19 54 47.92    +29 16 24.3   104508 1.0169 128.9  m  14?  54.98 122.2   17  37  99  54
   2024 07 14 11:50  19 55 23.22    +29 11 23.7   103525 1.0169 128.9  m  14?  55.30 123.5   18  36  99  54
   2024 07 14 12:00  19 55 58.18    +29 06 10.0   102537 1.0169 129.0  m  14?  55.74 124.9   19  34  99  54
   2024 07 14 12:10  19 56 32.84    +29 00 42.7   101544 1.0169 129.1  m  14?  56.29 126.2   21  32  99  54
   2024 07 14 12:20  19 57 07.25    +28 55 01.2   100546 1.0169 129.2  m  14?  56.96 127.6   22  30  99  54
   2024 07 14 12:30  19 57 41.45    +28 49 04.8    99543 1.0169 129.3  m  14?  57.76 128.9   23  28  99  54
   2024 07 14 12:40  19 58 15.51    +28 42 53.0    98535 1.0169 129.3  m  14?  58.67 130.2   24  26  99  54
   2024 07 14 12:50  19 58 49.47    +28 36 25.0    97522 1.0169 129.4  m  14?  59.72 131.4   25  24  99  54
   2024 07 14 13:00  19 59 23.39    +28 29 40.2    96503 1.0169 129.5  m  14?  60.90 132.6   26  22  99  55
   2024 07 14 13:10  19 59 57.34    +28 22 38.0    95479 1.0169 129.6  m  14?  62.21 133.7   27  20  99  55
   2024 07 14 13:20  20 00 31.38    +28 15 17.7    94450 1.0169 129.7  m  14?  63.66 134.7   27  18  99  55
   2024 07 14 13:30  20 01 05.59    +28 07 38.6    93415 1.0169 129.9  m  14?  65.25 135.7   28  16  99  55
   2024 07 14 13:40  20 01 40.03    +27 59 39.9    92375 1.0169 130.0  m  14?  66.98 136.7   29  13  99  55
   2024 07 14 13:50  20 02 14.78    +27 51 21.0    91329 1.0169 130.1  m  14?  68.85 137.5   29  11 100  55
   2024 07 14 14:00  20 02 49.92    +27 42 41.1    90276 1.0169 130.2  m  14?  70.87 138.3   30   9 100  55
   2024 07 14 14:10  20 03 25.53    +27 33 39.3    89218 1.0169 130.4  m  14?  73.03 139.0   30   6 100  55
   2024 07 14 14:20  20 04 01.71    +27 24 15.0    88153 1.0169 130.5  m  14?  75.35 139.7   31   4 100  55
   2024 07 14 14:30  20 04 38.55    +27 14 27.2    87081 1.0169 130.6  m  14?  77.83 140.2   31   1 100  55
   2024 07 14 14:40  20 05 16.13    +27 04 15.1    86003 1.0169 130.8  t  14?  80.47 140.7   31 359 100  55
   2024 07 14 14:50  20 05 54.56    +26 53 37.8    84916 1.0169 130.9  m  14?  83.28 141.2   31 357 100  55
   2024 07 14 15:00  20 06 33.95    +26 42 34.4    83823 1.0169 131.1  e  14?  86.25 141.5   31 354 100  55
   2024 07 14 15:10  20 07 14.41    +26 31 03.9    82720 1.0169 131.3     14?  89.41 141.8   31 352 100  55
   2024 07 14 15:20  20 07 56.05    +26 19 05.2    81610 1.0169 131.4     14?  92.76 142.0   31 349 100  55
   2024 07 14 15:30  20 08 38.98    +26 06 37.2    80490 1.0169 131.6     14?  96.30 142.2   31 347 100  56
   2024 07 14 15:40  20 09 23.34    +25 53 38.9    79361 1.0169 131.8     14? 100.05 142.3   31 344 100  56
   2024 07 14 15:50  20 10 09.26    +25 40 08.9    78222 1.0169 132.0     14? 104.02 142.4   30 342 100  56
   2024 07 14 16:00  20 10 56.87    +25 26 05.9    77072 1.0168 132.2     14? 108.22 142.4   30 340 100  56
   2024 07 14 16:10  20 11 46.33    +25 11 28.7    75911 1.0168 132.4     14? 112.67 142.4   29 337 100  56
   2024 07 14 16:20  20 12 37.77    +24 56 15.5    74738 1.0168 132.6     14? 117.37 142.4   29 335 100  56
   2024 07 14 16:30  20 13 31.37    +24 40 24.9    73553 1.0168 132.8     14? 122.36 142.3   28 333 101  56
   2024 07 14 16:40  20 14 27.29    +24 23 55.0    72354 1.0168 133.1     14? 127.66 142.1   28 330 101  56
   2024 07 14 16:50  20 15 25.72    +24 06 43.9    71141 1.0168 133.3     14? 133.28 142.0   27 328 101  56
   2024 07 14 17:00  20 16 26.84    +23 48 49.6    69914 1.0168 133.5     14? 139.25 141.8   26 326 101  56
   2024 07 14 17:10  20 17 30.85    +23 30 09.7    68670 1.0168 133.8     14? 145.61 141.6   25 324 101  56
   2024 07 14 17:20  20 18 37.99    +23 10 41.8    67410 1.0168 134.1     14? 152.39 141.3   24 322 101  56
   2024 07 14 17:30  20 19 48.47    +22 50 22.9    66132 1.0168 134.3     14? 159.63 141.1   23 320 101  56
   2024 07 14 17:40  20 21 02.56    +22 29 10.1    64835 1.0168 134.6     14? 167.37 140.8   23 318 101  57
   2024 07 14 17:50  20 22 20.52    +22 06 59.9    63518 1.0168 134.9     13? 175.66 140.6   22 316 101  57
   2024 07 14 18:00  20 23 42.65    +21 43 48.3    62180 1.0168 135.2     13? 184.58 140.3   21 314 102  57
   2024 07 14 18:10  20 25 09.27    +21 19 31.2    60819 1.0168 135.5     13? 194.18 140.0   19 312 102  57
   2024 07 14 18:20  20 26 40.74    +20 54 03.6    59434 1.0168 135.8     13? 204.54 139.7   18 310 102  57
   2024 07 14 18:30  20 28 17.44    +20 27 20.0    58023 1.0168 136.1     13? 215.77 139.5   17 308 102  57
   2024 07 14 18:40  20 29 59.81    +19 59 14.1    56585 1.0168 136.4     13? 227.96 139.2   16 307 102  57
   2024 07 14 18:50  20 31 48.34    +19 29 38.7    55119 1.0167 136.8     13? 241.26 138.9   15 305 103  57
   2024 07 14 19:00  20 33 43.56    +18 58 25.5    53621 1.0167 137.1     13? 255.82 138.6   14 303 103  57
   2024 07 14 19:10  20 35 46.09    +18 25 24.9    52090 1.0167 137.5     13? 271.82 138.4   13 301 103  57
   2024 07 14 19:20  20 37 56.63    +17 50 25.8    50524 1.0167 137.8     13? 289.50 138.2   12 300 104  57
   2024 07 14 19:30  20 40 15.98    +17 13 15.2    48919 1.0167 138.2     13? 309.13 138.0   11 298 104  58
   2024 07 14 19:40  20 42 45.07    +16 33 37.5    47274 1.0167 138.6 A   13? 331.05 137.8   10 296 104  58
   2024 07 14 19:50  20 45 24.99    +15 51 14.4    45585 1.0167 139.0 A   13? 355.68 137.6    9 295 105  58
   2024 07 14 20:00  20 48 17.02    +15 05 43.8    43849 1.0167 139.4 A   13? 383.57 137.5    8 293 105  58
   2024 07 14 20:10  20 51 22.69    +14 16 39.0    42061 1.0167 139.8 N   13? 415.39 137.3    7 291 106  58
   2024 07 14 20:20  20 54 43.85    +13 23 27.0    40217 1.0167 140.2 N   13? 452.05 137.3    6 290 106  58
   2024 07 14 20:30  20 58 22.76    +12 25 26.8    38312 1.0167 140.6 N   13? 494.71 137.2    6 288 107  58
   2024 07 14 20:40  21 02 22.25    +11 21 46.7    36341 1.0166 141.0 C   12? 544.95 137.2    5 286 107  58
   2024 07 14 20:50  21 06 45.88    +10 11 20.4    34296 1.0166 141.4 C   12? 604.97 137.3    4 285 108  58
   ................
   2024 07 15 07:40  16 47 10.28    +44 34 50.6    93547 1.0166 103.1 Cm  13?  74.78  87.2    0  35  69  63
   2024 07 15 07:50  16 48 18.77    +44 35 18.9    94432 1.0166 103.2 Nm  13?  71.70  88.0    0  34  69  63
   2024 07 15 08:00  16 49 24.49    +44 35 36.3    95306 1.0166 103.4 Nm  13?  68.77  88.8    1  32  69  63
   2024 07 15 08:10  16 50 27.55    +44 35 42.7    96171 1.0166 103.5 Nm  14?  65.99  89.7    2  31  69  63
   2024 07 15 08:20  16 51 28.08    +44 35 38.1    97026 1.0166 103.6 Am  14?  63.36  90.7    3  30  69  63
   2024 07 15 08:30  16 52 26.21    +44 35 22.5    97872 1.0166 103.7 Am  14?  60.88  91.8    4  29  70  63
   2024 07 15 08:40  16 53 22.04    +44 34 55.8    98709 1.0166 103.8 Am  14?  58.55  93.0    5  27  70  63
   2024 07 15 08:50  16 54 15.69    +44 34 18.0    99539 1.0166 103.9  m  14?  56.37  94.2    6  26  70  63
   2024 07 15 09:00  16 55 07.27    +44 33 29.2   100361 1.0166 104.0  m  14?  54.34  95.6    7  25  70  63
   2024 07 15 09:10  16 55 56.89    +44 32 29.3   101175 1.0166 104.1  m  14?  52.46  97.0    8  23  70  63
   2024 07 15 09:20  16 56 44.67    +44 31 18.2   101983 1.0166 104.2  m  14?  50.72  98.5    8  22  70  63
   2024 07 15 09:30  16 57 30.70    +44 29 56.1   102784 1.0166 104.3  m  14?  49.14 100.1    9  20  70  63
   2024 07 15 09:40  16 58 15.09    +44 28 22.8   103578 1.0166 104.4  m  14?  47.71 101.7   10  19  70  63
   2024 07 15 09:50  16 58 57.94    +44 26 38.5   104367 1.0166 104.5  m  14?  46.43 103.5   11  17  70  63
   2024 07 15 10:00  16 59 39.36    +44 24 43.1   105150 1.0166 104.6  m  14?  45.29 105.3   11  16  70  63
   2024 07 15 10:10  17 00 19.44    +44 22 36.7   105928 1.0166 104.7  m  14?  44.30 107.1   12  14  70  63
   2024 07 15 10:20  17 00 58.28    +44 20 19.3   106701 1.0166 104.8  m  14?  43.45 109.0   12  12  70  63
   2024 07 15 10:30  17 01 35.98    +44 17 51.1   107469 1.0166 104.9  m  14?  42.75 110.8   13  11  70  63
   2024 07 15 10:40  17 02 12.62    +44 15 12.1   108233 1.0166 105.0  m  14?  42.17 112.7   13   9  71  63
   2024 07 15 10:50  17 02 48.31    +44 12 22.3   108993 1.0166 105.1  m  14?  41.73 114.6   13   7  71  64
   2024 07 15 11:00  17 03 23.12    +44 09 22.0   109749 1.0166 105.2  m  14?  41.42 116.4   14   6  71  64
   2024 07 15 11:10  17 03 57.15    +44 06 11.3   110501 1.0166 105.3  m  14?  41.22 118.2   14   4  71  64
   2024 07 15 11:20  17 04 30.48    +44 02 50.2   111249 1.0167 105.4  m  14?  41.13 119.9   14   2  71  64
   2024 07 15 11:30  17 05 03.20    +43 59 19.0   111994 1.0167 105.5  m  14?  41.15 121.5   14   0  71  64
   2024 07 15 11:40  17 05 35.39    +43 55 37.8   112736 1.0167 105.6  t  14?  41.26 123.0   14 359  71  64
   2024 07 15 11:50  17 06 07.12    +43 51 46.8   113475 1.0167 105.7  e  14?  41.46 124.4   14 357  71  64
   2024 07 15 12:00  17 06 38.48    +43 47 46.2   114211 1.0167 105.8  m  14?  41.74 125.8   14 355  71  64
   2024 07 15 12:10  17 07 09.54    +43 43 36.2   114944 1.0167 106.0  m  14?  42.10 127.0   14 353  71  64
   2024 07 15 12:20  17 07 40.37    +43 39 17.2   115675 1.0167 106.1  m  14?  42.51 128.1   14 351  71  64
   2024 07 15 12:30  17 08 11.04    +43 34 49.2   116403 1.0167 106.2  m  14?  42.99 129.1   14 350  71  64
   2024 07 15 12:40  17 08 41.62    +43 30 12.6   117129 1.0167 106.3  m  14?  43.52 130.0   13 348  71  64
   2024 07 15 12:50  17 09 12.17    +43 25 27.6   117852 1.0167 106.4  m  14?  44.09 130.7   13 346  71  64
   2024 07 15 13:00  17 09 42.76    +43 20 34.5   118573 1.0167 106.5  m  14?  44.70 131.4   13 344  71  64
   2024 07 15 13:10  17 10 13.44    +43 15 33.7   119291 1.0167 106.7  m  14?  45.35 132.0   12 343  71  64
   2024 07 15 13:20  17 10 44.28    +43 10 25.3   120008 1.0167 106.8  m  14?  46.03 132.4   12 341  71  64
   2024 07 15 13:30  17 11 15.33    +43 05 09.8   120722 1.0167 106.9  m  14?  46.73 132.8   11 339  71  64
   2024 07 15 13:40  17 11 46.63    +42 59 47.4   121434 1.0167 107.0  m  14?  47.45 133.1   10 338  71  64
   2024 07 15 13:50  17 12 18.25    +42 54 18.5   122143 1.0167 107.2  m  14?  48.19 133.3   10 336  71  64
   2024 07 15 14:00  17 12 50.22    +42 48 43.4   122850 1.0167 107.3  m  14?  48.95 133.5    9 335  71  64
   2024 07 15 14:10  17 13 22.60    +42 43 02.5   123555 1.0167 107.4  m  14?  49.71 133.5    8 333  71  64
   2024 07 15 14:20  17 13 55.41    +42 37 16.0   124258 1.0167 107.6  m  14?  50.49 133.5    7 331  71  65
   2024 07 15 14:30  17 14 28.71    +42 31 24.4   124957 1.0167 107.7  m  14?  51.28 133.4    6 330  70  65
   2024 07 15 14:40  17 15 02.53    +42 25 28.0   125655 1.0167 107.8  m  14?  52.07 133.3    5 328  70  65
   2024 07 15 14:50  17 15 36.89    +42 19 27.2   126349 1.0167 108.0  m  14?  52.86 133.1    4 327  70  65
   2024 07 15 15:00  17 16 11.84    +42 13 22.3   127041 1.0167 108.1  m  14?  53.65 132.9    3 326  70  65
   2024 07 15 15:10  17 16 47.40    +42 07 13.7   127730 1.0167 108.3  m  14?  54.45 132.6    2 324  70  65
   2024 07 15 15:20  17 17 23.59    +42 01 01.7   128416 1.0167 108.4  m  14?  55.24 132.3    1 323  70  65
   2024 07 15 15:30  17 18 00.45    +41 54 46.8   129099 1.0167 108.6  m  14?  56.03 132.0    0 321  70  65
   2024 07 15 15:40  17 18 37.98    +41 48 29.2   129778 1.0167 108.7  m  14?  56.82 131.6    0 320  70  65
   ................
   2024 07 16 09:00  18 44 30.18    +36 41 22.0   152147 1.0169 120.3  m  15?  25.37  94.2    0  45  76  72
   2024 07 16 09:10  18 44 50.73    +36 41 00.8   151901 1.0169 120.3  m  15?  24.26  95.3    1  44  76  72
   2024 07 16 09:20  18 45 10.33    +36 40 35.4   151652 1.0169 120.4  m  15?  23.20  96.7    3  42  76  72
   2024 07 16 09:30  18 45 29.02    +36 40 05.4   151402 1.0169 120.4  m  15?  22.17  98.2    4  41  76  73
   2024 07 16 09:40  18 45 46.81    +36 39 30.5   151151 1.0169 120.4  m  15?  21.20 100.0    5  40  76  73
   2024 07 16 09:50  18 46 03.72    +36 38 50.5   150899 1.0169 120.4  m  15?  20.29 101.9    7  38  76  73
   2024 07 16 10:00  18 46 19.78    +36 38 05.0   150646 1.0169 120.5  m  15?  19.44 104.2    8  37  76  73
   2024 07 16 10:10  18 46 35.02    +36 37 13.9   150392 1.0169 120.5  m  15?  18.67 106.6    9  35  76  73
   2024 07 16 10:20  18 46 49.48    +36 36 16.7   150138 1.0169 120.5  m  15?  17.98 109.4   11  33  76  73
   2024 07 16 10:30  18 47 03.17    +36 35 13.3   149884 1.0169 120.5  m  15?  17.38 112.3   12  32  76  73
   2024 07 16 10:40  18 47 16.14    +36 34 03.3   149630 1.0169 120.6  m  15?  16.88 115.5   13  30  76  73
   2024 07 16 10:50  18 47 28.42    +36 32 46.6   149377 1.0169 120.6  m  15?  16.48 118.9   14  28  76  73
   2024 07 16 11:00  18 47 40.04    +36 31 22.9   149124 1.0169 120.6  m  15?  16.19 122.4   15  27  76  73
   2024 07 16 11:10  18 47 51.05    +36 29 51.9   148872 1.0169 120.7  m  15?  16.02 126.0   16  25  76  73
   2024 07 16 11:20  18 48 01.48    +36 28 13.4   148621 1.0169 120.7  m  15?  15.96 129.6   17  23  76  73
   2024 07 16 11:30  18 48 11.38    +36 26 27.3   148371 1.0169 120.7  m  15?  16.01 133.2   18  21  76  73
   2024 07 16 11:40  18 48 20.79    +36 24 33.4   148122 1.0169 120.8  m  15?  16.18 136.6   18  19  76  73
   2024 07 16 11:50  18 48 29.74    +36 22 31.4   147875 1.0169 120.8  m  15?  16.45 139.8   19  17  76  73
   2024 07 16 12:00  18 48 38.30    +36 20 21.1   147629 1.0169 120.9  m  15?  16.82 142.8   20  15  76  73
   2024 07 16 12:10  18 48 46.49    +36 18 02.6   147385 1.0169 120.9  m  15?  17.27 145.6   20  13  76  73
   2024 07 16 12:20  18 48 54.38    +36 15 35.5   147143 1.0169 120.9  m  15?  17.80 148.0   21  11  76  73
   2024 07 16 12:30  18 49 02.00    +36 12 59.8   146903 1.0169 121.0  m  15?  18.40 150.2   21   9  76  73
   2024 07 16 12:40  18 49 09.41    +36 10 15.4   146664 1.0169 121.0  m  15?  19.06 152.1   22   7  76  73
   2024 07 16 12:50  18 49 16.65    +36 07 22.2   146427 1.0169 121.1  m  15?  19.78 153.7   22   5  76  73
   2024 07 16 13:00  18 49 23.78    +36 04 20.0   146193 1.0169 121.2  m  15?  20.54 155.1   22   3  76  73
   2024 07 16 13:10  18 49 30.84    +36 01 09.0   145961 1.0169 121.2  m  15?  21.34 156.2   22   1  76  73
   2024 07 16 13:20  18 49 37.89    +35 57 48.9   145730 1.0169 121.3  t  15?  22.18 157.1   22 358  76  73
   2024 07 16 13:30  18 49 44.98    +35 54 19.8   145502 1.0169 121.3  e  15?  23.05 157.7   22 356  76  73
   2024 07 16 13:40  18 49 52.15    +35 50 41.7   145276 1.0169 121.4  m  15?  23.94 158.2   22 354  76  73
   2024 07 16 13:50  18 49 59.47    +35 46 54.6   145051 1.0169 121.5  m  15?  24.85 158.5   22 352  76  74
   2024 07 16 14:00  18 50 06.97    +35 42 58.5   144829 1.0169 121.5  m  15?  25.79 158.7   22 350  76  74
   2024 07 16 14:10  18 50 14.72    +35 38 53.5   144609 1.0169 121.6  m  15?  26.74 158.7   21 348  76  74
   2024 07 16 14:20  18 50 22.76    +35 34 39.5   144390 1.0169 121.7  m  15?  27.71 158.6   21 345  76  74
   2024 07 16 14:30  18 50 31.14    +35 30 16.8   144173 1.0169 121.8  m  15?  28.69 158.4   20 343  76  74
   2024 07 16 14:40  18 50 39.91    +35 25 45.2   143958 1.0169 121.8  m  15?  29.69 158.1   20 341  76  74
   2024 07 16 14:50  18 50 49.12    +35 21 05.1   143744 1.0169 121.9  m  15?  30.70 157.7   19 339  76  74
   2024 07 16 15:00  18 50 58.81    +35 16 16.5   143532 1.0169 122.0  m  15?  31.72 157.2   19 337  75  74
   2024 07 16 15:10  18 51 09.04    +35 11 19.4   143321 1.0169 122.1  m  15?  32.76 156.6   18 335  75  74
   2024 07 16 15:20  18 51 19.85    +35 06 14.2   143111 1.0169 122.2  m  15?  33.81 156.0   17 333  75  74
   2024 07 16 15:30  18 51 31.29    +35 01 00.8   142902 1.0169 122.3  m  15?  34.87 155.3   16 331  75  74
   2024 07 16 15:40  18 51 43.39    +34 55 39.6   142693 1.0169 122.4  m  15?  35.94 154.6   15 330  75  74
   2024 07 16 15:50  18 51 56.20    +34 50 10.6   142485 1.0169 122.5  m  15?  37.02 153.8   14 328  75  74
   2024 07 16 16:00  18 52 09.77    +34 44 34.1   142277 1.0169 122.6  m  15?  38.12 153.0   13 326  75  74
   2024 07 16 16:10  18 52 24.12    +34 38 50.3   142070 1.0169 122.7  m  15?  39.23 152.1   12 324  75  74
   2024 07 16 16:20  18 52 39.31    +34 32 59.4   141862 1.0169 122.8  m  15?  40.35 151.2   11 323  75  74
   2024 07 16 16:30  18 52 55.36    +34 27 01.5   141653 1.0169 122.9  m  15?  41.49 150.3   10 321  75  74
   2024 07 16 16:40  18 53 12.32    +34 20 57.1   141444 1.0169 123.0  m  15?  42.63 149.4    8 319  75  74
   2024 07 16 16:50  18 53 30.21    +34 14 46.2   141234 1.0169 123.1  m  15?  43.79 148.5    7 318  75  75
   2024 07 16 17:00  18 53 49.07    +34 08 29.1   141022 1.0169 123.2     15?  44.96 147.5    6 316  75  75
   2024 07 16 17:10  18 54 08.92    +34 02 06.1   140809 1.0169 123.4     15?  46.15 146.5    4 315  75  75
   2024 07 16 17:20  18 54 29.81    +33 55 37.4   140594 1.0169 123.5     15?  47.35 145.6    3 313  74  75
   2024 07 16 17:30  18 54 51.74    +33 49 03.3   140377 1.0169 123.6     15?  48.56 144.6    2 312  74  75
   2024 07 16 17:40  18 55 14.76    +33 42 24.1   140157 1.0169 123.7     15?  49.78 143.6    0 311  74  75
   ................
   2024 07 17 10:30  21 17 01.24    +18 11 11.2    54709 1.0166 135.0  m  13? 334.36 118.4    0  67  86  81
   2024 07 17 10:40  21 20 33.19    +17 43 37.4    52885 1.0166 134.9  m  13? 355.48 118.7    2  67  87  81
   2024 07 17 10:50  21 24 17.77    +17 13 59.2    51030 1.0166 134.9  m  13? 379.50 119.0    3  66  88  81
   2024 07 17 11:00  21 28 16.77    +16 42 00.4    49140 1.0166 134.8  m  13? 406.99 119.2    5  66  88  81
   2024 07 17 11:10  21 32 32.36    +16 07 21.8    47216 1.0166 134.7  m  13? 438.64 119.5    6  66  89  81
   2024 07 17 11:20  21 37 07.16    +15 29 40.6    45256 1.0165 134.6  m  13? 475.37 119.7    8  65  89  81
   2024 07 17 11:30  21 42 04.40    +14 48 29.0    43257 1.0165 134.4  m  13? 518.34 119.8    9  65  90  81
   2024 07 17 11:40  21 47 28.07    +14 03 13.1    41217 1.0165 134.1  m  13? 569.07 119.9   11  65  91  82
   2024 07 17 11:50  21 53 23.21    +13 13 10.9    39136 1.0165 133.8  m  12? 629.62 120.0   12  65  92  82
   2024 07 17 12:00  21 59 56.24    +12 17 29.8    37009 1.0165 133.4  m  12? 702.76 120.0   13  66  93  82
   2024 07 17 12:10  22 07 15.54    +11 15 03.2    34836 1.0165 132.9  m  12? 792.34 120.0   14  66  94  82
   2024 07 17 12:20  22 15 32.23    +10 04 24.9    32615 1.0165 132.1  m  12? 903.82 119.9   15  67  95  82
   2024 07 17 12:30  22 25 01.41    +08 43 42.2    30344 1.0165 131.2  m  12? 1045.1 119.7   16  68  97  82
   2024 07 17 12:40  22 36 04.15    +07 10 24.9    28024 1.0165 130.0  m  12? 1228.1 119.3   17  69  99  82
   2024 07 17 12:50  22 49 10.76    +05 21 10.4    25655 1.0164 128.3  m  11? 1471.0 118.8   17  71 101  82
   2024 07 17 13:00  23 05 06.38    +03 11 22.6    23246 1.0164 126.0  e  11? 1802.5 118.1   17  74 103  82
   2024 07 17 13:10  23 25 00.86    +00 34 48.3    20811 1.0164 122.8  m  11? 2269.5 117.1   17  78 107  82
   2024 07 17 13:20  23 50 46.81    -02 36 31.8    18381 1.0164 118.2  m  10? 2948.3 115.5   15  83 111  82
   2024 07 17 13:30  00 25 32.00    -06 30 50.8    16023 1.0164 111.6  m  10? 3958.8 112.9   12  89 116  82
   2024 07 17 13:40  01 14 28.72    -11 08 00.5    13869 1.0164 101.7  m   9? 5448.7 108.7    6  98 123  82
   ................
   2024 07 18 08:10  17 44 49.86    +41 29 50.9   132989 1.0166 110.9 Nr  14?  33.29  87.8    0  39  69  88
   2024 07 18 08:20  17 45 18.81    +41 29 59.9   133340 1.0166 111.0 Am  14?  31.79  88.7    0  38  69  88
   2024 07 18 08:30  17 45 46.46    +41 30 02.9   133688 1.0166 111.0 Am  14?  30.34  89.8    2  37  69  88
   2024 07 18 08:40  17 46 12.84    +41 29 59.7   134033 1.0166 111.1 Am  14?  28.96  91.1    3  35  69  88
   2024 07 18 08:50  17 46 38.01    +41 29 49.8   134376 1.0166 111.1  m  14?  27.64  92.6    4  34  69  88
   2024 07 18 09:00  17 47 02.00    +41 29 33.1   134716 1.0166 111.2  m  14?  26.40  94.2    5  32  69  88
   2024 07 18 09:10  17 47 24.88    +41 29 09.3   135053 1.0166 111.2  m  14?  25.24  96.1    6  31  69  88
   2024 07 18 09:20  17 47 46.67    +41 28 38.3   135389 1.0166 111.2  m  14?  24.17  98.1    7  30  69  88
   2024 07 18 09:30  17 48 07.45    +41 27 59.7   135723 1.0166 111.3  m  14?  23.19 100.3    8  28  69  89
   2024 07 18 09:40  17 48 27.25    +41 27 13.3   136055 1.0166 111.3  m  14?  22.31 102.8    9  26  69  89
   2024 07 18 09:50  17 48 46.13    +41 26 19.1   136387 1.0166 111.4  m  14?  21.54 105.5   10  25  69  89
   2024 07 18 10:00  17 49 04.14    +41 25 16.7   136717 1.0166 111.4  m  14?  20.88 108.3   11  23  69  89
   2024 07 18 10:10  17 49 21.34    +41 24 06.1   137047 1.0166 111.4  m  14?  20.34 111.4   12  22  69  89
   2024 07 18 10:20  17 49 37.78    +41 22 47.1   137376 1.0166 111.5  m  15?  19.92 114.5   13  20  69  89
   2024 07 18 10:30  17 49 53.51    +41 21 19.6   137704 1.0166 111.5  m  15?  19.62 117.7   13  18  69  89
   2024 07 18 10:40  17 50 08.60    +41 19 43.3   138033 1.0166 111.6  m  15?  19.45 120.9   14  16  69  89
   2024 07 18 10:50  17 50 23.09    +41 17 58.4   138361 1.0166 111.6  m  15?  19.40 124.1   15  15  69  89
   2024 07 18 11:00  17 50 37.06    +41 16 04.6   138690 1.0166 111.7  m  15?  19.47 127.2   15  13  69  89
   2024 07 18 11:10  17 50 50.55    +41 14 01.9   139019 1.0166 111.7  m  15?  19.64 130.1   16  11  69  89
   2024 07 18 11:20  17 51 03.62    +41 11 50.2   139349 1.0166 111.8  m  15?  19.92 132.9   16   9  69  89
   2024 07 18 11:30  17 51 16.33    +41 09 29.6   139679 1.0166 111.8  m  15?  20.28 135.4   17   7  69  89
   2024 07 18 11:40  17 51 28.74    +41 07 00.0   140010 1.0166 111.9  m  15?  20.73 137.8   17   5  69  89
   2024 07 18 11:50  17 51 40.91    +41 04 21.5   140341 1.0166 111.9  m  15?  21.26 139.9   17   3  69  89
   2024 07 18 12:00  17 51 52.88    +41 01 34.0   140674 1.0166 112.0  m  15?  21.84 141.7   17   1  69  89
   2024 07 18 12:10  17 52 04.73    +40 58 37.6   141007 1.0166 112.1  t  15?  22.49 143.3   17 359  69  89
   2024 07 18 12:20  17 52 16.51    +40 55 32.4   141342 1.0166 112.1  e  15?  23.18 144.7   17 357  69  89
   2024 07 18 12:30  17 52 28.27    +40 52 18.4   141677 1.0166 112.2  m  15?  23.91 145.8   17 355  69  89
   2024 07 18 12:40  17 52 40.06    +40 48 55.8   142014 1.0166 112.2  m  15?  24.67 146.8   17 354  69  89
   2024 07 18 12:50  17 52 51.95    +40 45 24.6   142352 1.0166 112.3  m  15?  25.46 147.5   17 352  69  89
   2024 07 18 13:00  17 53 03.98    +40 41 45.0   142690 1.0166 112.4  m  15?  26.28 148.1   17 350  69  89
   2024 07 18 13:10  17 53 16.21    +40 37 57.2   143030 1.0166 112.5  m  15?  27.12 148.6   16 348  69  89
   2024 07 18 13:20  17 53 28.69    +40 34 01.3   143371 1.0166 112.5  m  15?  27.97 148.8   16 346  68  89
   2024 07 18 13:30  17 53 41.46    +40 29 57.4   143713 1.0166 112.6  m  15?  28.84 149.0   15 344  68  89
   2024 07 18 13:40  17 53 54.58    +40 25 45.9   144056 1.0166 112.7  m  15?  29.71 149.0   15 342  68  89
   2024 07 18 13:50  17 54 08.09    +40 21 26.8   144400 1.0166 112.8  m  15?  30.60 148.9   14 340  68  89
   2024 07 18 14:00  17 54 22.03    +40 17 00.4   144745 1.0166 112.9  m  15?  31.49 148.8   14 338  68  89
   2024 07 18 14:10  17 54 36.46    +40 12 27.0   145090 1.0166 112.9  m  15?  32.39 148.5   13 337  68  89
   2024 07 18 14:20  17 54 51.40    +40 07 46.7   145436 1.0166 113.0  m  15?  33.30 148.2   12 335  68  89
   2024 07 18 14:30  17 55 06.91    +40 02 59.9   145782 1.0166 113.1  m  15?  34.21 147.8   11 333  68  89
   2024 07 18 14:40  17 55 23.01    +39 58 06.7   146129 1.0167 113.2  m  15?  35.12 147.3   10 332  68  89
   2024 07 18 14:50  17 55 39.75    +39 53 07.6   146476 1.0167 113.3  m  15?  36.03 146.7   10 330  68  89
   2024 07 18 15:00  17 55 57.16    +39 48 02.7   146823 1.0167 113.4  m  15?  36.95 146.2    9 328  68  89
   2024 07 18 15:10  17 56 15.27    +39 42 52.3   147169 1.0167 113.5  m  15?  37.86 145.5    8 327  68  89
   2024 07 18 15:20  17 56 34.11    +39 37 36.8   147516 1.0167 113.6  m  15?  38.78 144.9    6 325  68  90
   2024 07 18 15:30  17 56 53.71    +39 32 16.5   147862 1.0167 113.7  m  15?  39.70 144.2    5 324  67  90
   2024 07 18 15:40  17 57 14.09    +39 26 51.6   148207 1.0167 113.8  m  15?  40.61 143.4    4 322  67  90
   2024 07 18 15:50  17 57 35.29    +39 21 22.5   148552 1.0167 114.0  m  15?  41.53 142.7    3 321  67  90
   2024 07 18 16:00  17 57 57.32    +39 15 49.4   148895 1.0167 114.1  m  15?  42.44 141.9    2 319  67  90
   2024 07 18 16:10  17 58 20.20    +39 10 12.8   149237 1.0167 114.2  m  15?  43.35 141.1    0 318  67  90
   2024 07 18 16:20  17 58 43.94    +39 04 32.9   149577 1.0167 114.3  m  15?  44.26 140.3    0 317  67  90
   ................
   2024 07 19 09:10  19 14 24.32    +33 38 02.4   140003 1.0167 124.7  m  15?  32.96 102.3    0  48  64  94
   2024 07 19 09:20  19 14 49.65    +33 36 48.8   139440 1.0167 124.7  m  15?  32.00 103.5    2  47  64  94
   2024 07 19 09:30  19 15 14.09    +33 35 30.7   138874 1.0167 124.7  m  15?  31.07 104.8    4  46  64  94
   2024 07 19 09:40  19 15 37.68    +33 34 07.6   138305 1.0167 124.8  m  15?  30.18 106.3    5  44  64  94
   2024 07 19 09:50  19 16 00.41    +33 32 39.2   137733 1.0167 124.8  m  15?  29.35 107.9    6  43  64  94
   2024 07 19 10:00  19 16 22.32    +33 31 05.3   137160 1.0167 124.9  m  15?  28.58 109.6    8  41  64  94
   2024 07 19 10:10  19 16 43.43    +33 29 25.4   136584 1.0167 124.9  m  15?  27.88 111.5    9  40  64  94
   2024 07 19 10:20  19 17 03.75    +33 27 39.3   136006 1.0167 124.9  m  15?  27.24 113.5   11  38  64  94
   2024 07 19 10:30  19 17 23.32    +33 25 46.5   135427 1.0167 125.0  m  15?  26.69 115.6   12  37  64  94
   2024 07 19 10:40  19 17 42.15    +33 23 46.8   134847 1.0167 125.0  m  15?  26.22 117.8   13  35  64  94
   2024 07 19 10:50  19 18 00.28    +33 21 39.9   134265 1.0167 125.1  m  15?  25.84 120.2   14  34  64  95
   2024 07 19 11:00  19 18 17.75    +33 19 25.3   133683 1.0167 125.1  m  15?  25.55 122.6   16  32  64  95
   2024 07 19 11:10  19 18 34.57    +33 17 03.0   133100 1.0167 125.2  m  15?  25.37 125.1   17  30  63  95
   2024 07 19 11:20  19 18 50.80    +33 14 32.4   132516 1.0167 125.2  m  15?  25.28 127.5   18  28  63  95
   2024 07 19 11:30  19 19 06.45    +33 11 53.3   131932 1.0167 125.3  m  15?  25.30 130.0   19  26  63  95
   2024 07 19 11:40  19 19 21.59    +33 09 05.4   131347 1.0167 125.3  m  15?  25.42 132.5   20  24  63  95
   2024 07 19 11:50  19 19 36.23    +33 06 08.5   130762 1.0167 125.4  m  15?  25.65 134.9   21  22  63  95
   2024 07 19 12:00  19 19 50.44    +33 03 02.3   130177 1.0167 125.4  m  15?  25.97 137.1   21  20  63  95
   2024 07 19 12:10  19 20 04.24    +32 59 46.5   129593 1.0167 125.5  m  15?  26.39 139.3   22  18  63  95
   2024 07 19 12:20  19 20 17.69    +32 56 20.8   129008 1.0167 125.6  m  15?  26.90 141.3   23  16  63  95
   2024 07 19 12:30  19 20 30.84    +32 52 45.1   128424 1.0167 125.6  m  15?  27.50 143.2   24  14  63  95
   2024 07 19 12:40  19 20 43.73    +32 48 59.1   127840 1.0167 125.7  m  15?  28.18 144.9   24  12  63  95
   2024 07 19 12:50  19 20 56.41    +32 45 02.5   127256 1.0167 125.8  m  15?  28.94 146.5   25  10  63  95
   2024 07 19 13:00  19 21 08.93    +32 40 55.3   126672 1.0167 125.9  m  15?  29.77 147.9   25   8  63  95
   2024 07 19 13:10  19 21 21.35    +32 36 37.1   126089 1.0167 125.9  m  15?  30.67 149.1   25   5  63  95
   2024 07 19 13:20  19 21 33.73    +32 32 07.8   125507 1.0167 126.0  m  15?  31.62 150.2   26   3  63  95
   2024 07 19 13:30  19 21 46.11    +32 27 27.3   124924 1.0167 126.1  m  15?  32.64 151.1   26   1  63  95
   2024 07 19 13:40  19 21 58.55    +32 22 35.4   124342 1.0167 126.2  t  15?  33.71 151.8   26 358  63  95
   2024 07 19 13:50  19 22 11.11    +32 17 32.0   123760 1.0167 126.3  e  15?  34.83 152.4   26 356  62  95
   2024 07 19 14:00  19 22 23.85    +32 12 17.0   123179 1.0167 126.4  m  15?  36.00 152.9   26 354  62  95
   2024 07 19 14:10  19 22 36.83    +32 06 50.2   122597 1.0167 126.5  m  15?  37.21 153.2   26 351  62  95
   2024 07 19 14:20  19 22 50.10    +32 01 11.5   122016 1.0167 126.6  m  15?  38.46 153.4   25 349  62  95
   2024 07 19 14:30  19 23 03.72    +31 55 21.0   121434 1.0167 126.7  m  15?  39.76 153.5   25 347  62  95
   2024 07 19 14:40  19 23 17.75    +31 49 18.4   120852 1.0167 126.8  m  15?  41.09 153.6   25 345  62  95
   2024 07 19 14:50  19 23 32.26    +31 43 03.9   120270 1.0167 126.9  m  15?  42.46 153.5   24 342  62  95
   2024 07 19 15:00  19 23 47.30    +31 36 37.3   119687 1.0167 127.0  m  15?  43.87 153.3   24 340  62  95
   2024 07 19 15:10  19 24 02.93    +31 29 58.6   119103 1.0167 127.1  m  15?  45.32 153.1   23 338  62  95
   2024 07 19 15:20  19 24 19.21    +31 23 07.8   118519 1.0167 127.3  m  15?  46.81 152.7   22 336  61  95
   2024 07 19 15:30  19 24 36.21    +31 16 04.9   117933 1.0167 127.4  m  15?  48.33 152.4   21 334  61  95
   2024 07 19 15:40  19 24 53.97    +31 08 50.0   117346 1.0167 127.5  m  15?  49.89 151.9   21 332  61  95
   2024 07 19 15:50  19 25 12.57    +31 01 23.0   116757 1.0167 127.6  m  15?  51.48 151.4   20 330  61  95
   2024 07 19 16:00  19 25 32.05    +30 53 44.0   116166 1.0167 127.8  m  15?  53.12 150.9   19 328  61  95
   2024 07 19 16:10  19 25 52.48    +30 45 53.0   115573 1.0167 127.9  m  15?  54.79 150.3   18 326  61  95
   2024 07 19 16:20  19 26 13.92    +30 37 50.1   114977 1.0167 128.1  m  15?  56.50 149.7   17 324  61  95
   2024 07 19 16:30  19 26 36.41    +30 29 35.3   114379 1.0167 128.2  m  15?  58.26 149.1   16 322  61  95
   2024 07 19 16:40  19 27 00.02    +30 21 08.7   113778 1.0167 128.4  m  15?  60.05 148.4   14 320  60  95
   2024 07 19 16:50  19 27 24.81    +30 12 30.4   113173 1.0167 128.5  m  15?  61.89 147.7   13 319  60  95
   2024 07 19 17:00  19 27 50.82    +30 03 40.5   112564 1.0167 128.7  m  15?  63.77 147.0   12 317  60  95
   2024 07 19 17:10  19 28 18.11    +29 54 38.9   111951 1.0166 128.9  m  15?  65.70 146.2   11 315  60  95
   2024 07 19 17:20  19 28 46.73    +29 45 25.9   111334 1.0166 129.0  m  15?  67.67 145.5    9 314  60  95
   2024 07 19 17:30  19 29 16.74    +29 36 01.4   110711 1.0166 129.2  m  15?  69.68 144.7    8 312  60  95
   2024 07 19 17:40  19 29 48.18    +29 26 25.6   110084 1.0166 129.4  m  15?  71.75 143.9    7 310  59  95
   2024 07 19 17:50  19 30 21.11    +29 16 38.5   109450 1.0166 129.5  m  15?  73.87 143.2    5 309  59  95
   2024 07 19 18:00  19 30 55.58    +29 06 40.1   108811 1.0166 129.7  m  15?  76.03 142.4    4 308  59  95
   2024 07 19 18:10  19 31 31.63    +28 56 30.7   108164 1.0166 129.9  m  14?  78.25 141.6    2 306  59  95
   2024 07 19 18:20  19 32 09.32    +28 46 10.1   107511 1.0166 130.1  m  14?  80.53 140.8    1 305  59  96
   2024 07 19 18:30  19 32 48.68    +28 35 38.5   106851 1.0166 130.3  m  14?  82.86 140.1    0 303  59  96
   ................
   2024 07 20 07:30  13 34 19.18    +47 05 58.5    30275 1.0160  70.9 Cm  11? 801.06  80.8   11   2 104  98
   2024 07 20 07:40  13 46 24.80    +47 24 15.3    32506 1.0160  72.8 Cm  11? 696.85  82.2   11   2 103  98
   2024 07 20 07:50  13 57 05.40    +47 37 44.1    34661 1.0160  74.5 Nm  11? 614.13  83.5   11   3 101  98
   2024 07 20 08:00  14 06 36.59    +47 47 34.3    36747 1.0160  76.0 Nm  11? 547.12  84.7   10   2 100  98
   2024 07 20 08:10  14 15 10.17    +47 54 34.7    38769 1.0161  77.4 Nm  12? 491.93  85.8   10   2  99  98
   2024 07 20 08:20  14 22 55.33    +47 59 20.8    40732 1.0161  78.6 Am  12? 445.81  86.9   10   2  98  98
   2024 07 20 08:30  14 29 59.30    +48 02 18.8    42643 1.0161  79.7 Am  12? 406.82  88.0   10   1  97  98
   2024 07 20 08:40  14 36 27.88    +48 03 48.6    44504 1.0161  80.7 Am  12? 373.50  89.1   10   1  96  98
   2024 07 20 08:50  14 42 25.81    +48 04 05.4    46319 1.0161  81.6  m  12? 344.78  90.1   10   0  95  98
   2024 07 20 09:00  14 47 56.98    +48 03 21.0    48091 1.0161  82.5  t  12? 319.83  91.2   10 359  95  98
   2024 07 20 09:10  14 53 04.63    +48 01 44.9    49824 1.0161  83.2  m  12? 298.01  92.2   10 358  94  98
   2024 07 20 09:20  14 57 51.50    +47 59 24.6    51520 1.0161  84.0  m  12? 278.82  93.2   10 357  93  98
   2024 07 20 09:30  15 02 19.90    +47 56 26.1    53182 1.0161  84.7  e  12? 261.85  94.1   10 356  93  98
   2024 07 20 09:40  15 06 31.82    +47 52 54.3    54811 1.0161  85.3  m  12? 246.79  95.1   10 355  92  98
   2024 07 20 09:50  15 10 28.98    +47 48 53.4    56410 1.0161  86.0  m  12? 233.35  96.1   10 354  92  98
   2024 07 20 10:00  15 14 12.85    +47 44 26.8    57980 1.0161  86.6  m  12? 221.34  97.1   10 353  91  98
   2024 07 20 10:10  15 17 44.75    +47 39 37.3    59524 1.0161  87.1  m  12? 210.57  98.0   10 352  91  98
   2024 07 20 10:20  15 21 05.80    +47 34 27.4    61041 1.0161  87.7  m  12? 200.88  99.0   10 351  90  98
   2024 07 20 10:30  15 24 17.03    +47 28 59.3    62535 1.0161  88.2  m  12? 192.15  99.9   10 350  90  98
   2024 07 20 10:40  15 27 19.32    +47 23 14.6    64006 1.0161  88.7  m  12? 184.27 100.8   10 349  89  98
   2024 07 20 10:50  15 30 13.47    +47 17 15.0    65455 1.0161  89.1  m  12? 177.14 101.7    9 348  89  98
   2024 07 20 11:00  15 33 00.20    +47 11 01.8    66883 1.0161  89.6  m  12? 170.69 102.6    9 346  89  98
   2024 07 20 11:10  15 35 40.15    +47 04 36.4    68292 1.0161  90.0  m  13? 164.84 103.5    9 345  88  98
   2024 07 20 11:20  15 38 13.90    +46 57 59.7    69682 1.0161  90.5  m  13? 159.53 104.4    9 344  88  98
   2024 07 20 11:30  15 40 41.96    +46 51 12.9    71055 1.0161  90.9  m  13? 154.71 105.2    8 343  88  98
   2024 07 20 11:40  15 43 04.82    +46 44 16.7    72410 1.0161  91.3  m  13? 150.34 106.0    8 341  87  98
   2024 07 20 11:50  15 45 22.90    +46 37 12.0    73749 1.0161  91.7  m  13? 146.35 106.8    7 340  87  98
   2024 07 20 12:00  15 47 36.60    +46 29 59.7    75072 1.0161  92.0  m  13? 142.73 107.6    7 339  87  98
   2024 07 20 12:10  15 49 46.27    +46 22 40.3    76381 1.0161  92.4  m  13? 139.44 108.3    6 337  86  98
   2024 07 20 12:20  15 51 52.24    +46 15 14.5    77675 1.0162  92.8  m  13? 136.44 109.0    6 336  86  98
   2024 07 20 12:30  15 53 54.82    +46 07 43.1    78954 1.0162  93.1  m  13? 133.71 109.6    5 335  86  98
   2024 07 20 12:40  15 55 54.28    +46 00 06.5    80221 1.0162  93.5  m  13? 131.22 110.3    5 334  85  98
   2024 07 20 12:50  15 57 50.86    +45 52 25.3    81474 1.0162  93.8  m  13? 128.96 110.8    4 332  85  98
   2024 07 20 13:00  15 59 44.82    +45 44 40.1    82715 1.0162  94.2  m  13? 126.89 111.4    3 331  85  98
   2024 07 20 13:10  16 01 36.35    +45 36 51.3    83943 1.0162  94.5  m  13? 125.01 111.9    3 330  85  98
   2024 07 20 13:20  16 03 25.66    +45 28 59.5    85160 1.0162  94.9  m  13? 123.30 112.4    2 329  84  98
   2024 07 20 13:30  16 05 12.93    +45 21 05.1    86365 1.0162  95.2  m  13? 121.74 112.8    1 327  84  98
   2024 07 20 13:40  16 06 58.33    +45 13 08.6    87559 1.0162  95.5  m  13? 120.31 113.2    0 326  84  98
   2024 07 20 13:50  16 08 42.02    +45 05 10.5    88742 1.0162  95.8  m  13? 119.01 113.5    0 325  83  98
   ................
   2024 07 21 08:20  18 19 04.89    +38 55 49.1   150115 1.0165 115.8 Ar  15?  25.66  90.2    0  43  68  99
   2024 07 21 08:30  18 19 26.36    +38 55 45.1   150128 1.0165 115.8 Am  15?  24.44  91.3    0  41  68  99
   2024 07 21 08:40  18 19 46.78    +38 55 36.5   150139 1.0165 115.8 Am  15?  23.27  92.5    2  40  68  99
   2024 07 21 08:50  18 20 06.20    +38 55 23.0   150148 1.0165 115.9  m  15?  22.14  94.0    3  39  68  99
   2024 07 21 09:00  18 20 24.63    +38 55 04.3   150156 1.0165 115.9  m  15?  21.06  95.7    4  37  68  99
   2024 07 21 09:10  18 20 42.11    +38 54 40.1   150163 1.0165 115.9  m  15?  20.05  97.6    6  36  68  99
   2024 07 21 09:20  18 20 58.68    +38 54 10.1   150169 1.0165 116.0  m  15?  19.10  99.8    7  34  68  99
   2024 07 21 09:30  18 21 14.36    +38 53 34.2   150174 1.0165 116.0  m  15?  18.23 102.2    8  33  68  99
   2024 07 21 09:40  18 21 29.19    +38 52 51.9   150179 1.0165 116.0  m  15?  17.44 104.9    9  31  68  99
   2024 07 21 09:50  18 21 43.21    +38 52 03.1   150184 1.0165 116.1  m  15?  16.75 107.9   10  30  68  99
   2024 07 21 10:00  18 21 56.46    +38 51 07.6   150189 1.0165 116.1  m  15?  16.15 111.2   11  28  68  99
   2024 07 21 10:10  18 22 08.97    +38 50 05.1   150194 1.0165 116.1  m  15?  15.67 114.7   12  26  68  99
   2024 07 21 10:20  18 22 20.79    +38 48 55.4   150200 1.0165 116.2  m  15?  15.30 118.4   13  25  68  99
   2024 07 21 10:30  18 22 31.97    +38 47 38.4   150206 1.0165 116.2  m  15?  15.06 122.2   14  23  68  99
   2024 07 21 10:40  18 22 42.54    +38 46 13.7   150213 1.0165 116.2  m  15?  14.93 126.1   15  21  68  99
   2024 07 21 10:50  18 22 52.55    +38 44 41.4   150222 1.0165 116.3  m  15?  14.93 130.0   16  19  68  99
   2024 07 21 11:00  18 23 02.05    +38 43 01.1   150231 1.0165 116.3  m  15?  15.04 133.7   17  17  68  99
   2024 07 21 11:10  18 23 11.08    +38 41 12.8   150243 1.0165 116.3  m  15?  15.26 137.2   17  16  68  99
   2024 07 21 11:20  18 23 19.70    +38 39 16.4   150255 1.0165 116.4  m  15?  15.58 140.5   18  14  68  99
   2024 07 21 11:30  18 23 27.95    +38 37 11.7   150269 1.0165 116.4  m  15?  15.99 143.5   18  12  68  99
   2024 07 21 11:40  18 23 35.89    +38 34 58.7   150286 1.0165 116.5  m  15?  16.49 146.1   19  10  68  99
   2024 07 21 11:50  18 23 43.55    +38 32 37.2   150303 1.0165 116.5  m  15?  17.05 148.5   19   8  68  99
   2024 07 21 12:00  18 23 51.00    +38 30 07.2   150323 1.0165 116.6  m  15?  17.68 150.5   19   6  68  99
   2024 07 21 12:10  18 23 58.28    +38 27 28.7   150345 1.0165 116.6  m  15?  18.35 152.3   20   4  68  99
   2024 07 21 12:20  18 24 05.45    +38 24 41.7   150369 1.0165 116.7  m  15?  19.07 153.7   20   2  68  99
   2024 07 21 12:30  18 24 12.55    +38 21 46.1   150395 1.0165 116.7  t  15?  19.83 154.9   20 359  68  99
   2024 07 21 12:40  18 24 19.64    +38 18 41.9   150424 1.0165 116.8  e  15?  20.61 155.9   20 357  68  99
   2024 07 21 12:50  18 24 26.77    +38 15 29.2   150454 1.0165 116.8  m  15?  21.43 156.6   20 355  68  99
   2024 07 21 13:00  18 24 33.99    +38 12 08.0   150487 1.0165 116.9  m  15?  22.26 157.1   20 353  67  99
   2024 07 21 13:10  18 24 41.34    +38 08 38.4   150522 1.0165 116.9  m  15?  23.11 157.5   19 351  67  99
   2024 07 21 13:20  18 24 48.89    +38 05 00.5   150558 1.0165 117.0  m  15?  23.98 157.6   19 349  67  99
   2024 07 21 13:30  18 24 56.67    +38 01 14.2   150597 1.0165 117.1  m  15?  24.86 157.7   19 347  67  99
   2024 07 21 13:40  18 25 04.74    +37 57 19.9   150638 1.0165 117.1  m  15?  25.75 157.6   18 345  67  99
   2024 07 21 13:50  18 25 13.14    +37 53 17.5   150681 1.0165 117.2  m  15?  26.65 157.4   18 343  67  99
   2024 07 21 14:00  18 25 21.93    +37 49 07.3   150726 1.0165 117.3  m  15?  27.56 157.0   17 341  67  99
   2024 07 21 14:10  18 25 31.14    +37 44 49.3   150772 1.0165 117.4  m  15?  28.47 156.6   17 339  67  99
   2024 07 21 14:20  18 25 40.81    +37 40 23.8   150820 1.0165 117.4  m  15?  29.39 156.1   16 337  67  99
   2024 07 21 14:30  18 25 51.01    +37 35 50.9   150869 1.0165 117.5  m  15?  30.32 155.6   15 335  67  99
   2024 07 21 14:40  18 26 01.75    +37 31 10.8   150920 1.0165 117.6  m  15?  31.25 154.9   14 334  67  99
   2024 07 21 14:50  18 26 13.09    +37 26 23.7   150972 1.0165 117.7  m  15?  32.19 154.2   14 332  67  99
   2024 07 21 15:00  18 26 25.07    +37 21 29.8   151025 1.0165 117.8  m  15?  33.14 153.5   13 330  67  99
   2024 07 21 15:10  18 26 37.72    +37 16 29.5   151079 1.0165 117.9  m  15?  34.09 152.7   12 328  67  99
   2024 07 21 15:20  18 26 51.07    +37 11 22.8   151133 1.0165 118.0  m  15?  35.04 151.9   11 327  66  99
   2024 07 21 15:30  18 27 05.17    +37 06 10.1   151188 1.0165 118.1  m  15?  36.01 151.0    9 325  66  99
   2024 07 21 15:40  18 27 20.04    +37 00 51.6   151243 1.0165 118.2  m  15?  36.97 150.1    8 323  66  99
   2024 07 21 15:50  18 27 35.71    +36 55 27.5   151298 1.0165 118.3  m  15?  37.94 149.2    7 322  66  99
   2024 07 21 16:00  18 27 52.22    +36 49 58.2   151353 1.0165 118.4  m  15?  38.92 148.3    6 320  66  99
   2024 07 21 16:10  18 28 09.58    +36 44 23.9   151407 1.0165 118.5  m  15?  39.90 147.3    5 319  66  99
   2024 07 21 16:20  18 28 27.84    +36 38 44.9   151460 1.0165 118.6  m  15?  40.88 146.4    3 317  66  99
   2024 07 21 16:30  18 28 47.00    +36 33 01.5   151513 1.0165 118.7  m  15?  41.87 145.4    2 316  66  99
   2024 07 21 16:40  18 29 07.09    +36 27 14.0   151564 1.0165 118.8  m  15?  42.86 144.4    1 315  66  99
   2024 07 21 16:50  18 29 28.13    +36 21 22.6   151613 1.0165 118.9  m  15?  43.86 143.4    0 313  65  99
   ................
   2024 07 22 09:20  19 53 50.55    +28 59 20.3   109718 1.0164 130.6  m  15?  65.30 111.2    0  54  52  98
   2024 07 22 09:30  19 54 36.63    +28 55 18.3   108730 1.0164 130.7  m  15?  64.98 112.1    2  53  52  98
   2024 07 22 09:40  19 55 22.16    +28 51 07.8   107735 1.0164 130.8  m  15?  64.71 113.0    4  52  52  98
   2024 07 22 09:50  19 56 07.19    +28 46 48.3   106732 1.0164 130.9  m  14?  64.51 114.0    5  51  52  98
   2024 07 22 10:00  19 56 51.71    +28 42 19.3   105722 1.0164 131.0  m  14?  64.38 115.0    7  49  52  98
   2024 07 22 10:10  19 57 35.76    +28 37 40.2   104705 1.0164 131.1  m  14?  64.32 116.1    8  48  52  98
   2024 07 22 10:20  19 58 19.36    +28 32 50.4   103682 1.0164 131.2  m  14?  64.35 117.1   10  47  52  98
   2024 07 22 10:30  19 59 02.54    +28 27 49.3   102651 1.0164 131.2  m  14?  64.46 118.3   11  45  51  98
   2024 07 22 10:40  19 59 45.33    +28 22 36.3   101614 1.0164 131.3  m  14?  64.66 119.4   13  44  51  98
   2024 07 22 10:50  20 00 27.77    +28 17 10.7   100570 1.0164 131.4  m  14?  64.96 120.6   14  42  51  98
   2024 07 22 11:00  20 01 09.88    +28 11 31.8    99519 1.0164 131.5  m  14?  65.37 121.7   16  41  51  98
   2024 07 22 11:10  20 01 51.72    +28 05 39.0    98462 1.0164 131.6  m  14?  65.90 122.9   17  39  51  98
   2024 07 22 11:20  20 02 33.32    +27 59 31.6    97398 1.0164 131.7  m  14?  66.54 124.1   18  37  51  98
   2024 07 22 11:30  20 03 14.73    +27 53 08.9    96328 1.0164 131.9  m  14?  67.30 125.3   20  36  51  98
   2024 07 22 11:40  20 03 56.01    +27 46 30.0    95251 1.0164 132.0  m  14?  68.19 126.5   21  34  50  98
   2024 07 22 11:50  20 04 37.20    +27 39 34.3    94168 1.0164 132.1  m  14?  69.22 127.6   22  32  50  98
   2024 07 22 12:00  20 05 18.36    +27 32 21.0    93077 1.0164 132.2  m  14?  70.39 128.8   23  30  50  98
   2024 07 22 12:10  20 05 59.55    +27 24 49.3    91981 1.0164 132.3  m  14?  71.71 129.9   24  28  50  98
   2024 07 22 12:20  20 06 40.85    +27 16 58.3    90877 1.0164 132.5  m  14?  73.17 130.9   25  26  50  98
   2024 07 22 12:30  20 07 22.31    +27 08 47.1    89766 1.0164 132.6  m  14?  74.80 131.9   26  24  50  98
   2024 07 22 12:40  20 08 04.02    +27 00 14.9    88648 1.0164 132.8  m  14?  76.58 132.9   27  22  49  98
   2024 07 22 12:50  20 08 46.05    +26 51 20.7    87523 1.0164 132.9  m  14?  78.53 133.8   28  20  49  98
   2024 07 22 13:00  20 09 28.49    +26 42 03.5    86391 1.0164 133.1  m  14?  80.66 134.7   29  18  49  98
   2024 07 22 13:10  20 10 11.41    +26 32 22.4    85250 1.0164 133.2  m  14?  82.97 135.5   30  16  49  98
   2024 07 22 13:20  20 10 54.93    +26 22 16.2    84102 1.0164 133.4  m  14?  85.46 136.2   30  13  49  98
   2024 07 22 13:30  20 11 39.13    +26 11 43.9    82945 1.0164 133.6  m  14?  88.14 136.9   31  11  48  98
   2024 07 22 13:40  20 12 24.11    +26 00 44.3    81780 1.0163 133.8  m  14?  91.03 137.6   32   9  48  98
   2024 07 22 13:50  20 13 10.00    +25 49 16.2    80606 1.0163 133.9  m  14?  94.13 138.1   32   6  48  97
   2024 07 22 14:00  20 13 56.90    +25 37 18.3    79423 1.0163 134.1  m  14?  97.45 138.6   32   4  48  97
   2024 07 22 14:10  20 14 44.94    +25 24 49.2    78230 1.0163 134.3  m  14? 101.00 139.1   33   1  47  97
   2024 07 22 14:20  20 15 34.26    +25 11 47.4    77027 1.0163 134.6  t  14? 104.79 139.5   33 359  47  97
   2024 07 22 14:30  20 16 24.98    +24 58 11.5    75813 1.0163 134.8  m  14? 108.85 139.8   33 356  47  97
   2024 07 22 14:40  20 17 17.25    +24 43 59.7    74588 1.0163 135.0  m  14? 113.18 140.1   33 354  46  97
   2024 07 22 14:50  20 18 11.24    +24 29 10.2    73351 1.0163 135.2  e  14? 117.80 140.3   33 351  46  97
   2024 07 22 15:00  20 19 07.11    +24 13 41.2    72102 1.0163 135.5  m  14? 122.74 140.5   33 349  46  97
   2024 07 22 15:10  20 20 05.04    +23 57 30.6    70839 1.0163 135.7  m  14? 128.01 140.6   33 346  45  97
   2024 07 22 15:20  20 21 05.20    +23 40 36.1    69563 1.0163 136.0  m  14? 133.65 140.7   33 344  45  97
   2024 07 22 15:30  20 22 07.82    +23 22 55.2    68272 1.0163 136.3  m  14? 139.69 140.8   32 341  45  97
   2024 07 22 15:40  20 23 13.11    +23 04 25.3    66965 1.0163 136.6  m  14? 146.15 140.8   32 339  44  97
   2024 07 22 15:50  20 24 21.29    +22 45 03.5    65642 1.0163 136.9  m  14? 153.09 140.8   32 336  44  97
   2024 07 22 16:00  20 25 32.63    +22 24 46.4    64302 1.0163 137.2  m  14? 160.53 140.7   31 334  44  97
   2024 07 22 16:10  20 26 47.40    +22 03 30.4    62943 1.0163 137.5  m  14? 168.55 140.7   31 332  43  97
   2024 07 22 16:20  20 28 05.90    +21 41 11.6    61564 1.0163 137.8  m  13? 177.19 140.6   30 329  43  97
   2024 07 22 16:30  20 29 28.45    +21 17 45.4    60165 1.0163 138.2  m  13? 186.52 140.4   30 327  42  97
   2024 07 22 16:40  20 30 55.42    +20 53 06.8    58743 1.0162 138.6  m  13? 196.64 140.3   29 325  42  97
   2024 07 22 16:50  20 32 27.20    +20 27 10.0    57298 1.0162 138.9  m  13? 207.63 140.2   28 323  41  97
   2024 07 22 17:00  20 34 04.23    +19 59 48.6    55827 1.0162 139.3  m  13? 219.61 140.0   28 321  40  97
   2024 07 22 17:10  20 35 47.01    +19 30 55.1    54330 1.0162 139.7  m  13? 232.70 139.8   27 318  40  97
   2024 07 22 17:20  20 37 36.10    +19 00 21.1    52803 1.0162 140.2  m  13? 247.08 139.6   26 316  39  97
   2024 07 22 17:30  20 39 32.10    +18 27 56.7    51246 1.0162 140.6  m  13? 262.93 139.5   25 314  39  97
   2024 07 22 17:40  20 41 35.75    +17 53 30.6    49656 1.0162 141.1  m  13? 280.48 139.3   24 312  38  97
   2024 07 22 17:50  20 43 47.85    +17 16 49.2    48030 1.0162 141.6  m  13? 300.02 139.1   24 310  37  97
   2024 07 22 18:00  20 46 09.37    +16 37 36.9    46366 1.0162 142.1  m  13? 321.90 139.0   23 308  36  97
   2024 07 22 18:10  20 48 41.40    +15 55 34.6    44660 1.0162 142.6  m  13? 346.55 138.8   22 307  35  97
   2024 07 22 18:20  20 51 25.28    +15 10 19.9    42911 1.0162 143.1  m  13? 374.55 138.7   21 305  35  97
   2024 07 22 18:30  20 54 22.57    +14 21 25.0    41112 1.0162 143.7  m  13? 406.59 138.6   21 303  34  97
   2024 07 22 18:40  20 57 35.17    +13 28 16.2    39261 1.0161 144.3  m  13? 443.62 138.5   20 301  32  97
   2024 07 22 18:50  21 01 05.43    +12 30 11.0    37353 1.0161 144.9  m  13? 486.86 138.4   19 299  31  97
   2024 07 22 19:00  21 04 56.28    +11 26 15.9    35381 1.0161 145.5  m  12? 537.98 138.4   19 297  30  97
   2024 07 22 19:10  21 09 11.43    +10 15 21.7    33340 1.0161 146.2  m  12? 599.32 138.4   19 295  29  97
   2024 07 22 19:20  21 13 55.74    +08 55 57.4    31222 1.0161 146.8  m  12? 674.17 138.5   18 293  27  97
   2024 07 22 19:30  21 19 15.66    +07 25 59.8    29018 1.0161 147.5  m  12? 767.40 138.6   18 291  26  97
   2024 07 22 19:40  21 25 20.12    +05 42 37.5    26716 1.0161 148.1 Am  12? 886.48 138.7   19 289  24  97
   2024 07 22 19:50  21 32 21.88    +03 41 43.1    24306 1.0161 148.6 Am  12? 1043.4 139.0   19 287  22  97
   2024 07 22 20:00  21 40 40.14    +01 17 02.0    21770 1.0160 149.0 Am  12? 1258.8 139.3   20 285  19  97
   2024 07 22 20:10  21 50 45.81    -01 41 27.1    19091 1.0160 149.1 Nm  11? 1570.6 139.8   22 282  17  97
   2024 07 22 20:20  22 03 33.20    -05 31 09.9    16246 1.0160 148.6 Nm  11? 2057.2 140.3   25 279  15  97
   2024 07 22 20:30  22 20 51.66    -10 45 54.5    13217 1.0160 147.0 Nm  10? 2905.6 140.9   29 275  14  97
   2024 07 22 20:40  22 47 14.45    -18 42 11.6    10002 1.0160 142.8 Cm  10? 4665.5 141.2   36 269  18  97
   2024 07 22 20:50  23 39 37.96    -32 49 38.5     6717 1.0159 131.7 Cm   9? 9452.7 138.4   50 255  32  97
   ................
   2024 07 23 07:30  16 58 19.85    +44 21 30.7   101601 1.0160 102.0 C   14?  60.44  89.3    0  34  90  94
   2024 07 23 07:40  16 59 15.07    +44 21 31.3   102378 1.0160 102.1 C   14?  58.01  90.2    2  32  90  94
   2024 07 23 07:50  17 00 08.07    +44 21 22.0   103147 1.0160 102.2 N   14?  55.71  91.3    3  31  90  94
   2024 07 23 08:00  17 00 58.96    +44 21 02.9   103908 1.0160 102.3 N   14?  53.54  92.4    4  30  90  94
   2024 07 23 08:10  17 01 47.83    +44 20 33.8   104662 1.0160 102.4 N   14?  51.49  93.6    5  29  90  94
   2024 07 23 08:20  17 02 34.77    +44 19 54.6   105409 1.0160 102.5 A   14?  49.57  94.9    6  27  90  94
   2024 07 23 08:30  17 03 19.89    +44 19 05.2   106150 1.0160 102.6 A   14?  47.79  96.4    6  26  90  94
   2024 07 23 08:40  17 04 03.28    +44 18 05.6   106885 1.0160 102.7 A   14?  46.14  97.9    7  24  90  94
   2024 07 23 08:50  17 04 45.02    +44 16 55.6   107614 1.0160 102.8     14?  44.62  99.5    8  23  90  94
   2024 07 23 09:00  17 05 25.22    +44 15 35.3   108337 1.0160 102.9     14?  43.24 101.2    9  21  90  94
   2024 07 23 09:10  17 06 03.95    +44 14 04.5   109056 1.0160 103.0     14?  41.99 103.0   10  20  90  94
   2024 07 23 09:20  17 06 41.32    +44 12 23.2   109769 1.0160 103.1  m  14?  40.89 104.9   10  18  90  94
   2024 07 23 09:30  17 07 17.41    +44 10 31.5   110479 1.0160 103.2  m  14?  39.92 106.8   11  17  89  94
   2024 07 23 09:40  17 07 52.31    +44 08 29.2   111183 1.0161 103.3  m  14?  39.09 108.8   12  15  89  94
   2024 07 23 09:50  17 08 26.10    +44 06 16.5   111884 1.0161 103.4  m  14?  38.40 110.8   12  13  89  94
   2024 07 23 10:00  17 08 58.87    +44 03 53.3   112581 1.0161 103.5  m  14?  37.84 112.9   13  12  89  94
   2024 07 23 10:10  17 09 30.71    +44 01 19.7   113275 1.0161 103.6  m  14?  37.41 114.9   13  10  89  94
   2024 07 23 10:20  17 10 01.70    +43 58 35.7   113966 1.0161 103.7  m  14?  37.10 116.9   13   8  89  94
   2024 07 23 10:30  17 10 31.92    +43 55 41.4   114653 1.0161 103.8  m  14?  36.91 118.8   14   7  89  94
   2024 07 23 10:40  17 11 01.45    +43 52 36.9   115337 1.0161 103.9  m  14?  36.84 120.7   14   5  89  94
   2024 07 23 10:50  17 11 30.37    +43 49 22.3   116019 1.0161 104.0  m  14?  36.87 122.5   14   3  89  93
   2024 07 23 11:00  17 11 58.76    +43 45 57.8   116699 1.0161 104.1  m  14?  37.00 124.3   14   1  89  93
   2024 07 23 11:10  17 12 26.70    +43 42 23.4   117376 1.0161 104.2  m  14?  37.22 125.9   15   0  89  93
   2024 07 23 11:20  17 12 54.25    +43 38 39.3   118050 1.0161 104.3  t  14?  37.52 127.4   15 358  89  93
   2024 07 23 11:30  17 13 21.50    +43 34 45.8   118723 1.0161 104.4  e  14?  37.89 128.7   15 356  89  93
   2024 07 23 11:40  17 13 48.51    +43 30 42.9   119394 1.0161 104.5  m  14?  38.34 130.0   14 354  89  93
   2024 07 23 11:50  17 14 15.34    +43 26 30.8   120062 1.0161 104.6  m  14?  38.84 131.1   14 352  89  93
   2024 07 23 12:00  17 14 42.08    +43 22 09.9   120729 1.0161 104.7  m  14?  39.39 132.1   14 351  88  93
   2024 07 23 12:10  17 15 08.78    +43 17 40.3   121395 1.0161 104.8  m  14?  40.00 133.0   14 349  88  93
   2024 07 23 12:20  17 15 35.50    +43 13 02.3   122058 1.0161 104.9  m  14?  40.64 133.7   13 347  88  93
   2024 07 23 12:30  17 16 02.31    +43 08 16.1   122720 1.0161 105.0  m  14?  41.32 134.4   13 345  88  93
   2024 07 23 12:40  17 16 29.25    +43 03 22.0   123381 1.0161 105.1  m  14?  42.02 134.9   13 344  88  93
   2024 07 23 12:50  17 16 56.40    +42 58 20.2   124039 1.0161 105.2  m  14?  42.76 135.4   12 342  88  93
   2024 07 23 13:00  17 17 23.80    +42 53 11.2   124696 1.0161 105.3  m  14?  43.51 135.7   12 340  88  93
   2024 07 23 13:10  17 17 51.49    +42 47 55.1   125352 1.0161 105.5  m  14?  44.29 135.9   11 338  88  93
   2024 07 23 13:20  17 18 19.54    +42 42 32.3   126005 1.0161 105.6  m  14?  45.08 136.1   10 337  88  93
   2024 07 23 13:30  17 18 47.98    +42 37 03.1   126658 1.0161 105.7  m  14?  45.88 136.2   10 335  88  93
   2024 07 23 13:40  17 19 16.86    +42 31 27.8   127308 1.0161 105.8  m  14?  46.69 136.2    9 334  88  93
   2024 07 23 13:50  17 19 46.22    +42 25 46.8   127956 1.0161 106.0  m  14?  47.50 136.1    8 332  87  93
   2024 07 23 14:00  17 20 16.10    +42 20 00.4   128603 1.0161 106.1  m  14?  48.33 136.0    7 330  87  93
   2024 07 23 14:10  17 20 46.53    +42 14 09.0   129247 1.0161 106.2  m  14?  49.15 135.8    6 329  87  93
   2024 07 23 14:20  17 21 17.55    +42 08 12.8   129890 1.0161 106.4  m  14?  49.98 135.6    5 327  87  93
   2024 07 23 14:30  17 21 49.19    +42 02 12.3   130530 1.0161 106.5  m  14?  50.81 135.3    4 326  87  93
   2024 07 23 14:40  17 22 21.47    +41 56 07.8   131167 1.0161 106.6  m  14?  51.64 135.0    3 325  87  93
   2024 07 23 14:50  17 22 54.43    +41 49 59.6   131803 1.0161 106.8  m  14?  52.47 134.6    2 323  87  93
   2024 07 23 15:00  17 23 28.08    +41 43 48.2   132435 1.0161 106.9  m  14?  53.29 134.2    1 322  87  93
   2024 07 23 15:10  17 24 02.45    +41 37 33.9   133065 1.0161 107.1  m  14?  54.11 133.7    0 321  87  93
   ................
   2024 07 24 08:30  18 48 00.30    +36 18 25.4   151343 1.0163 120.2 A   15?  26.11  96.1    0  45  73  88
   2024 07 24 08:40  18 48 21.30    +36 17 54.8   151057 1.0163 120.2 A   15?  25.02  97.3    1  44  73  87
   2024 07 24 08:50  18 48 41.35    +36 17 19.9   150769 1.0163 120.2     15?  23.98  98.7    3  43  73  87
   2024 07 24 09:00  18 49 00.49    +36 16 40.5   150480 1.0163 120.3     15?  22.98 100.3    4  41  73  87
   2024 07 24 09:10  18 49 18.74    +36 15 56.3   150189 1.0163 120.3     15?  22.03 102.0    5  40  73  87
   2024 07 24 09:20  18 49 36.11    +36 15 06.9   149897 1.0163 120.3     15?  21.15 104.0    7  39  73  87
   2024 07 24 09:30  18 49 52.64    +36 14 12.2   149604 1.0163 120.4     15?  20.33 106.2    8  37  73  87
   2024 07 24 09:40  18 50 08.34    +36 13 11.7   149310 1.0163 120.4     15?  19.58 108.7    9  36  73  87
   2024 07 24 09:50  18 50 23.26    +36 12 05.2   149016 1.0163 120.4     15?  18.92 111.4   11  34  73  87
   2024 07 24 10:00  18 50 37.42    +36 10 52.4   148722 1.0163 120.5     15?  18.34 114.3   12  32  73  87
   2024 07 24 10:10  18 50 50.85    +36 09 33.2   148428 1.0163 120.5     15?  17.87 117.3   13  31  73  87
   2024 07 24 10:20  18 51 03.59    +36 08 07.1   148134 1.0163 120.6     15?  17.49 120.6   14  29  73  87
   2024 07 24 10:30  18 51 15.68    +36 06 34.0   147841 1.0163 120.6  m  15?  17.23 123.9   15  27  73  87
   2024 07 24 10:40  18 51 27.14    +36 04 53.6   147548 1.0163 120.6  m  15?  17.08 127.3   16  26  73  87
   2024 07 24 10:50  18 51 38.03    +36 03 05.7   147256 1.0163 120.7  m  15?  17.04 130.8   17  24  73  87
   2024 07 24 11:00  18 51 48.37    +36 01 10.1   146966 1.0163 120.7  m  15?  17.11 134.1   18  22  73  87
   2024 07 24 11:10  18 51 58.22    +35 59 06.6   146676 1.0163 120.8  m  15?  17.29 137.3   19  20  73  87
   2024 07 24 11:20  18 52 07.62    +35 56 55.0   146388 1.0163 120.8  m  15?  17.57 140.4   19  18  73  87
   2024 07 24 11:30  18 52 16.60    +35 54 35.1   146101 1.0163 120.9  m  15?  17.94 143.2   20  16  73  86
   2024 07 24 11:40  18 52 25.22    +35 52 06.7   145816 1.0163 120.9  m  15?  18.40 145.8   21  14  73  86
   2024 07 24 11:50  18 52 33.52    +35 49 29.8   145532 1.0163 121.0  m  15?  18.94 148.2   21  12  73  86
   2024 07 24 12:00  18 52 41.56    +35 46 44.2   145250 1.0163 121.0  m  15?  19.54 150.3   22  10  73  86
   2024 07 24 12:10  18 52 49.37    +35 43 49.7   144970 1.0163 121.1  m  15?  20.21 152.1   22   8  73  86
   2024 07 24 12:20  18 52 57.01    +35 40 46.2   144692 1.0163 121.1  m  15?  20.94 153.6   22   5  73  86
   2024 07 24 12:30  18 53 04.53    +35 37 33.8   144416 1.0163 121.2  m  15?  21.71 155.0   22   3  73  86
   2024 07 24 12:40  18 53 11.98    +35 34 12.2   144142 1.0163 121.2  m  15?  22.52 156.1   23   1  73  86
   2024 07 24 12:50  18 53 19.41    +35 30 41.5   143869 1.0163 121.3  t  15?  23.37 156.9   23 359  73  86
   2024 07 24 13:00  18 53 26.87    +35 27 01.6   143599 1.0163 121.4  e  15?  24.24 157.6   23 357  73  86
   2024 07 24 13:10  18 53 34.41    +35 23 12.5   143331 1.0163 121.4  m  15?  25.15 158.1   23 354  73  86
   2024 07 24 13:20  18 53 42.09    +35 19 14.2   143064 1.0163 121.5  m  15?  26.08 158.4   22 352  73  86
   2024 07 24 13:30  18 53 49.95    +35 15 06.7   142800 1.0163 121.6  m  15?  27.03 158.6   22 350  73  86
   2024 07 24 13:40  18 53 58.04    +35 10 50.0   142537 1.0163 121.7  m  15?  28.01 158.7   22 348  73  86
   2024 07 24 13:50  18 54 06.43    +35 06 24.2   142276 1.0163 121.7  m  15?  29.00 158.6   21 346  73  86
   2024 07 24 14:00  18 54 15.15    +35 01 49.4   142017 1.0163 121.8  m  15?  30.00 158.4   21 344  73  86
   2024 07 24 14:10  18 54 24.26    +34 57 05.5   141759 1.0163 121.9  m  15?  31.03 158.1   20 342  73  86
   2024 07 24 14:20  18 54 33.81    +34 52 12.8   141502 1.0163 122.0  m  15?  32.06 157.7   20 340  73  86
   2024 07 24 14:30  18 54 43.85    +34 47 11.2   141247 1.0163 122.1  m  15?  33.11 157.3   19 337  73  86
   2024 07 24 14:40  18 54 54.42    +34 42 01.0   140993 1.0163 122.2  m  15?  34.18 156.7   18 335  73  86
   2024 07 24 14:50  18 55 05.57    +34 36 42.3   140740 1.0163 122.3  m  15?  35.26 156.1   18 334  73  86
   2024 07 24 15:00  18 55 17.35    +34 31 15.2   140487 1.0163 122.4  m  15?  36.35 155.5   17 332  73  86
   2024 07 24 15:10  18 55 29.81    +34 25 39.8   140236 1.0163 122.5  m  15?  37.46 154.8   16 330  73  86
   2024 07 24 15:20  18 55 42.98    +34 19 56.4   139984 1.0163 122.6  m  15?  38.58 154.0   15 328  73  85
   2024 07 24 15:30  18 55 56.90    +34 14 05.1   139733 1.0163 122.7  m  15?  39.71 153.2   14 326  73  85
   2024 07 24 15:40  18 56 11.63    +34 08 06.2   139481 1.0163 122.8  m  15?  40.86 152.4   13 324  72  85
   2024 07 24 15:50  18 56 27.20    +34 01 59.7   139229 1.0163 122.9  m  15?  42.02 151.5   12 323  72  85
   2024 07 24 16:00  18 56 43.65    +33 55 46.0   138977 1.0163 123.0  m  15?  43.19 150.7   10 321  72  85
   2024 07 24 16:10  18 57 01.01    +33 49 25.3   138724 1.0163 123.1  m  15?  44.38 149.8    9 319  72  85
   2024 07 24 16:20  18 57 19.32    +33 42 57.7   138469 1.0163 123.3  m  15?  45.59 148.8    8 318  72  85
   2024 07 24 16:30  18 57 38.61    +33 36 23.6   138214 1.0163 123.4  m  15?  46.80 147.9    7 316  72  85
   2024 07 24 16:40  18 57 58.92    +33 29 43.1   137956 1.0163 123.5  m  15?  48.04 146.9    5 315  72  85
   2024 07 24 16:50  18 58 20.28    +33 22 56.5   137696 1.0163 123.6  m  15?  49.29 146.0    4 313  72  85
   2024 07 24 17:00  18 58 42.71    +33 16 04.1   137434 1.0163 123.8  m  15?  50.55 145.0    2 312  72  85
   2024 07 24 17:10  18 59 06.25    +33 09 06.0   137170 1.0163 123.9  m  15?  51.82 144.1    1 310  72  85
   2024 07 24 17:20  18 59 30.91    +33 02 02.7   136902 1.0163 124.1  m  15?  53.12 143.1    0 309  72  85
   ................
   2024 07 25 10:20  22 01 16.18    +11 22 28.5    38854 1.0159 140.1     13? 713.29 119.2    0  76  30  78
   2024 07 25 10:30  22 08 42.91    +10 20 52.9    36696 1.0159 139.7     12? 799.07 119.2    1  77  28  78
   2024 07 25 10:40  22 17 04.58    +09 11 38.8    34492 1.0159 139.2     12? 904.68 119.1    2  77  26  78
   2024 07 25 10:50  22 26 34.84    +07 53 08.4    32241 1.0159 138.4     12? 1036.8 118.9    2  78  23  78
   2024 07 25 11:00  22 37 32.44    +06 23 14.6    29945 1.0159 137.2     12? 1205.3 118.6    3  80  20  78
   2024 07 25 11:10  22 50 23.74    +04 39 11.2    27606 1.0158 135.7     12? 1424.6 118.1    3  82  17  78
   2024 07 25 11:20  23 05 46.99    +02 37 20.2    25229 1.0158 133.5  e  11? 1717.0 117.4    3  84  13  78
   2024 07 25 11:30  23 24 39.48    +00 13 00.7    22828 1.0158 130.5     11? 2117.1 116.4    3  87   8  78
   2024 07 25 11:40  23 48 30.07    -02 39 25.5    20428 1.0158 126.3  m  11? 2679.2 114.9    1  92   2  78
   ................
   2024 07 26 07:50  17 49 35.35    +41 16 07.4   136392 1.0159 109.6 C   14?  30.53  89.6    0  38  95  69
   2024 07 26 08:00  17 50 01.80    +41 16 05.5   136692 1.0159 109.7 N   14?  29.14  90.8    1  37  95  69
   2024 07 26 08:10  17 50 27.04    +41 15 57.7   136988 1.0159 109.7 N   14?  27.80  92.1    3  36  95  69
   2024 07 26 08:20  17 50 51.10    +41 15 43.6   137282 1.0159 109.8 N   14?  26.54  93.6    4  34  95  69
   2024 07 26 08:30  17 51 14.03    +41 15 22.9   137574 1.0159 109.8 A   14?  25.34  95.3    5  33  95  69
   2024 07 26 08:40  17 51 35.86    +41 14 55.4   137864 1.0159 109.9 A   14?  24.23  97.2    6  32  95  69
   2024 07 26 08:50  17 51 56.66    +41 14 20.8   138152 1.0159 109.9     14?  23.20  99.3    7  30  95  69
   2024 07 26 09:00  17 52 16.46    +41 13 39.0   138439 1.0159 110.0     14?  22.26 101.6    8  29  95  69
   2024 07 26 09:10  17 52 35.31    +41 12 49.7   138724 1.0159 110.0     14?  21.42 104.1    9  27  95  69
   2024 07 26 09:20  17 52 53.26    +41 11 52.7   139009 1.0159 110.1     14?  20.69 106.9   10  25  95  68
   2024 07 26 09:30  17 53 10.36    +41 10 47.9   139293 1.0159 110.1     14?  20.07 109.8   11  24  95  68
   2024 07 26 09:40  17 53 26.67    +41 09 35.0   139576 1.0159 110.2     15?  19.57 112.9   12  22  95  68
   2024 07 26 09:50  17 53 42.24    +41 08 13.8   139859 1.0159 110.2     15?  19.18 116.2   13  20  95  68
   2024 07 26 10:00  17 53 57.11    +41 06 44.4   140142 1.0159 110.2     15?  18.92 119.4   14  19  95  68
   2024 07 26 10:10  17 54 11.35    +41 05 06.4   140425 1.0159 110.3     15?  18.79 122.7   14  17  95  68
   2024 07 26 10:20  17 54 25.02    +41 03 19.9   140708 1.0159 110.3     15?  18.77 126.0   15  15  95  68
   2024 07 26 10:30  17 54 38.15    +41 01 24.7   140992 1.0159 110.4     15?  18.86 129.1   15  13  95  68
   2024 07 26 10:40  17 54 50.82    +40 59 20.8   141276 1.0159 110.4     15?  19.07 132.1   16  11  95  68
   2024 07 26 10:50  17 55 03.08    +40 57 08.0   141561 1.0159 110.5     15?  19.37 134.9   16  10  95  68
   2024 07 26 11:00  17 55 14.98    +40 54 46.4   141847 1.0160 110.5     15?  19.76 137.4   17   8  95  68
   2024 07 26 11:10  17 55 26.58    +40 52 15.9   142133 1.0160 110.6     15?  20.23 139.7   17   6  95  67
   2024 07 26 11:20  17 55 37.94    +40 49 36.6   142421 1.0160 110.7     15?  20.77 141.8   17   4  95  67
   2024 07 26 11:30  17 55 49.11    +40 46 48.4   142710 1.0160 110.7     15?  21.37 143.6   17   2  96  67
   2024 07 26 11:40  17 56 00.16    +40 43 51.4   143000 1.0160 110.8     15?  22.03 145.2   17   0  96  67
   2024 07 26 11:50  17 56 11.12    +40 40 45.6   143291 1.0160 110.8  t  15?  22.73 146.6   18 358  96  67
   2024 07 26 12:00  17 56 22.07    +40 37 31.1   143584 1.0160 110.9     15?  23.47 147.7   17 356  96  67
   2024 07 26 12:10  17 56 33.05    +40 34 08.0   143877 1.0160 111.0     15?  24.24 148.6   17 354  96  67
   2024 07 26 12:20  17 56 44.12    +40 30 36.3   144173 1.0160 111.0     15?  25.04 149.3   17 352  96  67
   2024 07 26 12:30  17 56 55.33    +40 26 56.3   144469 1.0160 111.1     15?  25.86 149.9   17 350  96  67
   2024 07 26 12:40  17 57 06.73    +40 23 08.0   144767 1.0160 111.2     15?  26.70 150.3   17 348  96  67
   2024 07 26 12:50  17 57 18.37    +40 19 11.6   145066 1.0160 111.2  m  15?  27.56 150.5   16 346  96  67
   2024 07 26 13:00  17 57 30.31    +40 15 07.3   145366 1.0160 111.3  m  15?  28.43 150.6   16 344  96  67
   2024 07 26 13:10  17 57 42.58    +40 10 55.2   145667 1.0160 111.4  m  15?  29.31 150.6   15 342  96  66
   2024 07 26 13:20  17 57 55.24    +40 06 35.5   145970 1.0160 111.5  m  15?  30.19 150.5   15 341  96  66
   2024 07 26 13:30  17 58 08.33    +40 02 08.5   146273 1.0160 111.5  m  15?  31.09 150.3   14 339  96  66
   2024 07 26 13:40  17 58 21.90    +39 57 34.3   146577 1.0160 111.6  m  15?  31.99 150.0   13 337  96  66
   2024 07 26 13:50  17 58 35.98    +39 52 53.2   146882 1.0160 111.7  m  15?  32.89 149.6   13 335  96  66
   2024 07 26 14:00  17 58 50.62    +39 48 05.5   147188 1.0160 111.8  m  15?  33.80 149.2   12 333  96  66
   2024 07 26 14:10  17 59 05.85    +39 43 11.4   147495 1.0160 111.9  m  15?  34.71 148.7   11 332  96  66
   2024 07 26 14:20  17 59 21.71    +39 38 11.1   147801 1.0160 112.0  m  15?  35.63 148.1   10 330  96  66
   2024 07 26 14:30  17 59 38.24    +39 33 05.0   148108 1.0160 112.1  m  15?  36.54 147.5    9 328  96  66
   2024 07 26 14:40  17 59 55.47    +39 27 53.3   148415 1.0160 112.2  m  15?  37.46 146.8    8 327  96  66
   2024 07 26 14:50  18 00 13.43    +39 22 36.4   148722 1.0160 112.3  m  15?  38.38 146.1    7 325  96  66
   2024 07 26 15:00  18 00 32.14    +39 17 14.4   149029 1.0160 112.4  m  15?  39.29 145.4    6 324  96  66
   2024 07 26 15:10  18 00 51.64    +39 11 47.7   149335 1.0160 112.5  m  15?  40.21 144.7    5 322  96  66
   2024 07 26 15:20  18 01 11.95    +39 06 16.7   149640 1.0160 112.6  m  15?  41.13 143.9    3 321  96  66
   2024 07 26 15:30  18 01 33.10    +39 00 41.6   149944 1.0160 112.7  m  15?  42.05 143.1    2 319  95  66
   2024 07 26 15:40  18 01 55.09    +38 55 02.7   150247 1.0160 112.9  m  15?  42.96 142.2    1 318  95  65
   2024 07 26 15:50  18 02 17.96    +38 49 20.4   150549 1.0160 113.0  m  15?  43.87 141.4    0 317  95  65
   ................
   2024 07 27 08:40  19 18 20.52    +33 05 13.1   137115 1.0160 125.2 A   15?  35.37 104.2    0  49  86  58
   2024 07 27 08:50  19 18 47.35    +33 03 43.0   136506 1.0160 125.2 A   15?  34.44 105.4    2  48  86  58
   2024 07 27 09:00  19 19 13.31    +33 02 08.3   135893 1.0160 125.3     15?  33.55 106.7    4  46  86  58
   2024 07 27 09:10  19 19 38.42    +33 00 28.4   135277 1.0160 125.4     15?  32.70 108.1    5  45  86  58
   2024 07 27 09:20  19 20 02.69    +32 58 43.1   134658 1.0160 125.4     15?  31.91 109.6    6  44  86  57
   2024 07 27 09:30  19 20 26.15    +32 56 52.0   134036 1.0160 125.5     15?  31.18 111.3    8  42  86  57
   2024 07 27 09:40  19 20 48.80    +32 54 54.7   133412 1.0160 125.5     15?  30.51 113.0    9  41  86  57
   2024 07 27 09:50  19 21 10.69    +32 52 51.0   132786 1.0160 125.6     15?  29.92 114.9   11  39  86  57
   2024 07 27 10:00  19 21 31.82    +32 50 40.4   132159 1.0160 125.6     15?  29.40 116.9   12  38  86  57
   2024 07 27 10:10  19 21 52.22    +32 48 22.7   131529 1.0160 125.7     15?  28.97 119.0   13  36  86  57
   2024 07 27 10:20  19 22 11.94    +32 45 57.4   130898 1.0160 125.8     15?  28.63 121.2   15  34  86  57
   2024 07 27 10:30  19 22 30.98    +32 43 24.3   130265 1.0160 125.8     15?  28.38 123.4   16  33  86  57
   2024 07 27 10:40  19 22 49.40    +32 40 43.0   129632 1.0160 125.9     15?  28.22 125.7   17  31  86  57
   2024 07 27 10:50  19 23 07.21    +32 37 53.2   128997 1.0160 126.0     15?  28.17 128.0   18  29  86  57
   2024 07 27 11:00  19 23 24.47    +32 34 54.5   128362 1.0160 126.0     15?  28.22 130.3   19  27  86  56
   2024 07 27 11:10  19 23 41.20    +32 31 46.8   127726 1.0160 126.1     15?  28.37 132.5   20  25  86  56
   2024 07 27 11:20  19 23 57.45    +32 28 29.6   127089 1.0160 126.2     15?  28.62 134.7   21  23  86  56
   2024 07 27 11:30  19 24 13.25    +32 25 02.7   126452 1.0160 126.2     15?  28.97 136.8   22  21  86  56
   2024 07 27 11:40  19 24 28.67    +32 21 25.7   125814 1.0160 126.3     15?  29.42 138.8   23  19  86  56
   2024 07 27 11:50  19 24 43.73    +32 17 38.5   125177 1.0160 126.4     15?  29.96 140.7   23  17  86  56
   2024 07 27 12:00  19 24 58.49    +32 13 40.7   124539 1.0160 126.5     15?  30.59 142.4   24  15  86  56
   2024 07 27 12:10  19 25 13.00    +32 09 32.1   123900 1.0160 126.5     15?  31.30 144.1   25  13  86  56
   2024 07 27 12:20  19 25 27.30    +32 05 12.5   123262 1.0160 126.6     15?  32.10 145.5   25  11  86  56
   2024 07 27 12:30  19 25 41.45    +32 00 41.6   122624 1.0160 126.7     15?  32.97 146.9   26   8  86  56
   2024 07 27 12:40  19 25 55.51    +31 55 59.1   121985 1.0160 126.8     15?  33.91 148.0   26   6  86  56
   2024 07 27 12:50  19 26 09.53    +31 51 05.0   121347 1.0160 126.9     15?  34.92 149.0   26   4  86  55
   2024 07 27 13:00  19 26 23.56    +31 45 58.9   120708 1.0160 127.0     15?  35.99 149.9   26   1  86  55
   2024 07 27 13:10  19 26 37.66    +31 40 40.8   120069 1.0160 127.1  t  15?  37.12 150.7   26 359  86  55
   2024 07 27 13:20  19 26 51.89    +31 35 10.4   119430 1.0160 127.2  e  15?  38.31 151.3   27 357  86  55
   2024 07 27 13:30  19 27 06.31    +31 29 27.5   118790 1.0160 127.3     15?  39.55 151.8   26 354  86  55
   2024 07 27 13:40  19 27 20.99    +31 23 32.2   118151 1.0160 127.4     15?  40.84 152.1   26 352  86  55
   2024 07 27 13:50  19 27 35.97    +31 17 24.1   117510 1.0160 127.5  m  15?  42.19 152.4   26 350  86  55
   2024 07 27 14:00  19 27 51.32    +31 11 03.2   116869 1.0160 127.6  m  15?  43.58 152.5   26 347  86  55
   2024 07 27 14:10  19 28 07.11    +31 04 29.5   116227 1.0160 127.8  m  15?  45.01 152.6   25 345  86  55
   2024 07 27 14:20  19 28 23.40    +30 57 42.7   115584 1.0160 127.9  m  15?  46.49 152.5   25 343  86  55
   2024 07 27 14:30  19 28 40.24    +30 50 42.8   114940 1.0160 128.0  m  15?  48.02 152.4   25 341  86  55
   2024 07 27 14:40  19 28 57.71    +30 43 29.8   114295 1.0160 128.1  m  15?  49.59 152.2   24 338  86  55
   2024 07 27 14:50  19 29 15.86    +30 36 03.6   113648 1.0160 128.3  m  15?  51.21 152.0   23 336  86  55
   2024 07 27 15:00  19 29 34.77    +30 28 24.1   112999 1.0160 128.4  m  15?  52.87 151.6   23 334  86  54
   2024 07 27 15:10  19 29 54.48    +30 20 31.4   112349 1.0160 128.6  m  15?  54.57 151.3   22 332  86  54
   2024 07 27 15:20  19 30 15.07    +30 12 25.3   111696 1.0160 128.7  m  15?  56.32 150.8   21 330  86  54
   2024 07 27 15:30  19 30 36.60    +30 04 05.9   111040 1.0160 128.9  m  15?  58.12 150.4   20 328  86  54
   2024 07 27 15:40  19 30 59.13    +29 55 33.1   110382 1.0160 129.0  m  15?  59.97 149.8   19 326  86  54
   2024 07 27 15:50  19 31 22.72    +29 46 47.0   109720 1.0160 129.2  m  15?  61.86 149.3   18 324  86  54
   2024 07 27 16:00  19 31 47.44    +29 37 47.5   109055 1.0160 129.4  m  14?  63.81 148.7   17 322  86  54
   2024 07 27 16:10  19 32 13.34    +29 28 34.6   108386 1.0160 129.5  m  14?  65.80 148.1   16 320  86  54
   2024 07 27 16:20  19 32 40.50    +29 19 08.4   107713 1.0160 129.7  m  14?  67.85 147.4   14 319  86  54
   2024 07 27 16:30  19 33 08.96    +29 09 28.7   107035 1.0160 129.9  m  14?  69.96 146.7   13 317  86  54
   2024 07 27 16:40  19 33 38.79    +28 59 35.8   106352 1.0160 130.1  m  14?  72.12 146.1   12 315  86  54
   2024 07 27 16:50  19 34 10.05    +28 49 29.5   105664 1.0160 130.3  m  14?  74.33 145.4   11 314  86  54
   2024 07 27 17:00  19 34 42.80    +28 39 09.8   104970 1.0160 130.5  m  14?  76.61 144.7    9 312  86  54
   2024 07 27 17:10  19 35 17.10    +28 28 36.7   104270 1.0160 130.7  m  14?  78.95 143.9    8 310  86  54
   2024 07 27 17:20  19 35 53.00    +28 17 50.3   103563 1.0159 130.9  m  14?  81.36 143.2    6 309  86  54
   2024 07 27 17:30  19 36 30.57    +28 06 50.4   102849 1.0159 131.1  m  14?  83.83 142.5    5 307  86  54
   2024 07 27 17:40  19 37 09.86    +27 55 37.1   102127 1.0159 131.3  m  14?  86.37 141.8    4 306  86  53
   2024 07 27 17:50  19 37 50.93    +27 44 10.3   101398 1.0159 131.6  m  14?  88.98 141.0    2 304  86  53
   2024 07 27 18:00  19 38 33.84    +27 32 29.9   100660 1.0159 131.8  m  14?  91.66 140.3    1 303  86  53
   2024 07 27 18:10  19 39 18.64    +27 20 35.9    99913 1.0159 132.0  m  14?  94.42 139.6    0 302  86  53
   ................
   

James Webb Space Telescope (JPL-ID: -170)

   Date (UTC) HH:MM   RA              Dec         delta   r     elong SM  mag  '/hr    PA   alt  az moo ill
   ---- -- -- -----  -------------   -----------  ------ ------ ----- --  --- ------ ------ --- --- --- ---
   2024 07 14 07:30  18 26 10.14    -35 46 10.9   0.0116 1.0273 159.3 Cm  16?   1.22 169.2   23 118  69  53
   2024 07 14 07:40  18 26 10.27    -35 46 22.8   0.0116 1.0273 159.3 Cm  16?   1.19 174.9   24 118  69  53
   2024 07 14 07:50  18 26 10.30    -35 46 34.6   0.0116 1.0273 159.3 Nm  16?   1.17 180.8   26 117  69  53
   2024 07 14 08:00  18 26 10.24    -35 46 46.3   0.0116 1.0273 159.3 Nm  16?   1.16 186.7   28 116  69  53
   2024 07 14 08:10  18 26 10.07    -35 46 57.7   0.0116 1.0273 159.3 Nm  16?   1.16 192.7   30 115  69  53
   2024 07 14 08:20  18 26 09.81    -35 47 09.0   0.0116 1.0273 159.3 Am  16?   1.17 198.5   32 115  69  53
   2024 07 14 08:30  18 26 09.45    -35 47 19.9   0.0116 1.0273 159.3 Am  16?   1.19 204.2   34 114  69  53
   2024 07 14 08:40  18 26 09.00    -35 47 30.6   0.0116 1.0273 159.3 Am  16?   1.22 209.7   36 113  69  53
   2024 07 14 08:50  18 26 08.46    -35 47 41.0   0.0116 1.0273 159.3  m  16?   1.25 214.8   38 113  69  53
   2024 07 14 09:00  18 26 07.82    -35 47 51.1   0.0116 1.0273 159.3  m  16?   1.29 219.7   40 112  69  53
   2024 07 14 09:10  18 26 07.10    -35 48 00.8   0.0116 1.0273 159.2  m  16?   1.33 224.3   42 111  69  53
   2024 07 14 09:20  18 26 06.29    -35 48 10.1   0.0116 1.0273 159.2  m  16?   1.38 228.5   44 111  69  54
   2024 07 14 09:30  18 26 05.39    -35 48 19.0   0.0116 1.0273 159.2  m  16?   1.43 232.5   46 110  69  54
   2024 07 14 09:40  18 26 04.42    -35 48 27.4   0.0116 1.0273 159.2  m  16?   1.48 236.2   48 110  69  54
   2024 07 14 09:50  18 26 03.37    -35 48 35.4   0.0116 1.0273 159.2  m  16?   1.54 239.6   50 109  68  54
   2024 07 14 10:00  18 26 02.24    -35 48 42.8   0.0116 1.0273 159.2  m  16?   1.59 242.8   52 109  68  54
   2024 07 14 10:10  18 26 01.04    -35 48 49.8   0.0116 1.0273 159.2  m  16?   1.65 245.8   54 109  68  54
   2024 07 14 10:20  18 25 59.77    -35 48 56.2   0.0116 1.0273 159.2  m  16?   1.70 248.6   56 108  68  54
   2024 07 14 10:30  18 25 58.43    -35 49 02.1   0.0116 1.0273 159.2  m  16?   1.75 251.3   58 108  68  54
   2024 07 14 10:40  18 25 57.03    -35 49 07.3   0.0116 1.0273 159.2  m  16?   1.81 253.8   60 108  68  54
   2024 07 14 10:50  18 25 55.57    -35 49 12.0   0.0116 1.0273 159.1  m  16?   1.86 256.2   62 108  68  54
   2024 07 14 11:00  18 25 54.06    -35 49 16.0   0.0116 1.0273 159.1  m  16?   1.91 258.5   64 108  68  54
   2024 07 14 11:10  18 25 52.50    -35 49 19.5   0.0116 1.0273 159.1  m  16?   1.95 260.7   66 108  68  54
   2024 07 14 11:20  18 25 50.89    -35 49 22.2   0.0116 1.0273 159.1  m  16?   2.00 262.8   68 109  68  54
   2024 07 14 11:30  18 25 49.24    -35 49 24.3   0.0116 1.0273 159.1  m  16?   2.04 264.8   70 109  68  54
   2024 07 14 11:40  18 25 47.54    -35 49 25.8   0.0116 1.0273 159.1  m  16?   2.08 266.8   72 110  68  54
   2024 07 14 11:50  18 25 45.82    -35 49 26.5   0.0116 1.0273 159.1  m  16?   2.12 268.7   74 112  68  54
   2024 07 14 12:00  18 25 44.06    -35 49 26.5   0.0116 1.0273 159.1  m  16?   2.15 270.6   76 114  68  54
   2024 07 14 12:10  18 25 42.28    -35 49 25.8   0.0116 1.0273 159.1  m  16?   2.19 272.5   78 117  68  54
   2024 07 14 12:20  18 25 40.47    -35 49 24.4   0.0116 1.0273 159.1  m  16?   2.21 274.3   80 121  67  54
   2024 07 14 12:30  18 25 38.65    -35 49 22.3   0.0116 1.0273 159.0  m  16?   2.24 276.1   82 128  67  54
   2024 07 14 12:40  18 25 36.82    -35 49 19.5   0.0116 1.0273 159.0  m  16?   2.26 277.9   83 139  67  54
   2024 07 14 12:50  18 25 34.97    -35 49 15.9   0.0116 1.0273 159.0  m  16?   2.28 279.7   85 157  67  54
   2024 07 14 13:00  18 25 33.13    -35 49 11.6   0.0116 1.0273 159.0  t  16?   2.29 281.5   85 181  67  55
   2024 07 14 13:10  18 25 31.28    -35 49 06.6   0.0116 1.0273 159.0  m  16?   2.31 283.3   84 205  67  55
   2024 07 14 13:20  18 25 29.44    -35 49 00.8   0.0116 1.0273 159.0  m  16?   2.32 285.1   83 222  67  55
   2024 07 14 13:30  18 25 27.61    -35 48 54.3   0.0116 1.0273 159.0  m  16?   2.32 287.0   82 232  67  55
   2024 07 14 13:40  18 25 25.79    -35 48 47.1   0.0116 1.0273 159.0  m  16?   2.33 288.8   80 239  67  55
   2024 07 14 13:50  18 25 23.99    -35 48 39.1   0.0116 1.0273 159.0  m  16?   2.33 290.7   78 243  67  55
   2024 07 14 14:00  18 25 22.22    -35 48 30.5   0.0116 1.0273 159.0  m  16?   2.32 292.6   76 246  67  55
   2024 07 14 14:10  18 25 20.47    -35 48 21.1   0.0116 1.0273 159.0  m  16?   2.32 294.5   74 248  67  55
   2024 07 14 14:20  18 25 18.75    -35 48 11.1   0.0116 1.0273 158.9  m  16?   2.31 296.5   72 249  67  55
   2024 07 14 14:30  18 25 17.08    -35 48 00.3   0.0116 1.0273 158.9  m  16?   2.30 298.5   70 250  66  55
   2024 07 14 14:40  18 25 15.44    -35 47 48.9   0.0116 1.0273 158.9  m  16?   2.29 300.6   68 251  66  55
   2024 07 14 14:50  18 25 13.84    -35 47 36.9   0.0116 1.0273 158.9  m  16?   2.28 302.7   66 251  66  55
   2024 07 14 15:00  18 25 12.30    -35 47 24.1   0.0116 1.0273 158.9     16?   2.26 304.9   64 251  66  55
   2024 07 14 15:10  18 25 10.80    -35 47 10.8   0.0116 1.0273 158.9     16?   2.25 307.2   62 251  66  55
   2024 07 14 15:20  18 25 09.36    -35 46 56.8   0.0116 1.0273 158.9     16?   2.23 309.5   60 251  66  55
   2024 07 14 15:30  18 25 07.99    -35 46 42.3   0.0116 1.0273 158.9     16?   2.21 311.9   58 251  66  56
   2024 07 14 15:40  18 25 06.67    -35 46 27.2   0.0116 1.0273 158.9     16?   2.19 314.4   56 251  66  56
   2024 07 14 15:50  18 25 05.43    -35 46 11.5   0.0116 1.0273 158.9     16?   2.17 317.0   54 250  66  56
   2024 07 14 16:00  18 25 04.25    -35 45 55.3   0.0116 1.0273 158.9     16?   2.15 319.6   52 250  66  56
   2024 07 14 16:10  18 25 03.15    -35 45 38.6   0.0116 1.0273 158.9     16?   2.13 322.4   50 250  66  56
   2024 07 14 16:20  18 25 02.12    -35 45 21.4   0.0116 1.0273 158.9     16?   2.12 325.2   48 249  65  56
   2024 07 14 16:30  18 25 01.17    -35 45 03.7   0.0116 1.0273 158.9     16?   2.10 328.1   46 249  65  56
   2024 07 14 16:40  18 25 00.31    -35 44 45.6   0.0116 1.0273 158.9     16?   2.09 331.1   44 248  65  56
   2024 07 14 16:50  18 24 59.53    -35 44 27.1   0.0116 1.0273 158.9     16?   2.07 334.1   42 248  65  56
   2024 07 14 17:00  18 24 58.84    -35 44 08.2   0.0116 1.0273 158.8     16?   2.06 337.3   40 247  65  56
   2024 07 14 17:10  18 24 58.23    -35 43 49.0   0.0116 1.0273 158.8     16?   2.06 340.5   38 246  65  56
   2024 07 14 17:20  18 24 57.72    -35 43 29.4   0.0116 1.0273 158.8     16?   2.05 343.7   36 246  65  56
   2024 07 14 17:30  18 24 57.30    -35 43 09.6   0.0116 1.0273 158.8     16?   2.05 347.1   34 245  65  56
   2024 07 14 17:40  18 24 56.98    -35 42 49.5   0.0116 1.0273 158.8     16?   2.05 350.4   32 244  65  57
   2024 07 14 17:50  18 24 56.75    -35 42 29.1   0.0116 1.0273 158.8     16?   2.06 353.8   30 244  65  57
   2024 07 14 18:00  18 24 56.63    -35 42 08.5   0.0116 1.0273 158.8     16?   2.07 357.1   28 243  64  57
   2024 07 14 18:10  18 24 56.60    -35 41 47.8   0.0116 1.0273 158.8     16?   2.08   0.5   26 242  64  57
   2024 07 14 18:20  18 24 56.67    -35 41 26.9   0.0116 1.0273 158.8     16?   2.10   3.9   24 241  64  57
   2024 07 14 18:30  18 24 56.84    -35 41 05.9   0.0116 1.0273 158.8     16?   2.12   7.2   22 240  64  57
   2024 07 14 18:40  18 24 57.11    -35 40 44.8   0.0116 1.0273 158.8     16?   2.15  10.4   20 240  64  57
   2024 07 14 18:50  18 24 57.49    -35 40 23.7   0.0116 1.0273 158.8     16?   2.18  13.6   19 239  64  57
   2024 07 14 19:00  18 24 57.97    -35 40 02.5   0.0116 1.0273 158.8     16?   2.21  16.8   17 238  64  57
   2024 07 14 19:10  18 24 58.55    -35 39 41.4   0.0116 1.0273 158.8     16?   2.25  19.8   15 237  64  57
   2024 07 14 19:20  18 24 59.23    -35 39 20.3   0.0116 1.0273 158.8     16?   2.29  22.8   13 236  64  57
   2024 07 14 19:30  18 25 00.01    -35 38 59.3   0.0116 1.0273 158.8     16?   2.33  25.7   11 235  64  58
   2024 07 14 19:40  18 25 00.90    -35 38 38.4   0.0116 1.0273 158.8 A   16?   2.38  28.5   10 234  63  58
   2024 07 14 19:50  18 25 01.88    -35 38 17.6   0.0116 1.0273 158.8 A   16?   2.42  31.2    8 233  63  58
   2024 07 14 20:00  18 25 02.96    -35 37 57.0   0.0116 1.0273 158.8 A   16?   2.47  33.8    6 232  63  58
   2024 07 14 20:10  18 25 04.14    -35 37 36.6   0.0116 1.0273 158.8 N   16?   2.52  36.3    4 230  63  58
   2024 07 14 20:20  18 25 05.42    -35 37 16.5   0.0116 1.0273 158.8 N   16?   2.58  38.7    3 229  63  58
   2024 07 14 20:30  18 25 06.80    -35 36 56.5   0.0116 1.0273 158.8 N   16?   2.63  41.0    1 228  63  58
   2024 07 14 20:40  18 25 08.26    -35 36 36.9   0.0116 1.0273 158.8 C   16?   2.68  43.3    0 227  63  58
   ................
   2024 07 15 07:30  18 27 22.40    -35 35 12.1   0.0116 1.0272 158.9 Cm  16?   1.19 168.2   23 118  57  63
   2024 07 15 07:40  18 27 22.55    -35 35 23.6   0.0116 1.0272 158.9 Cm  16?   1.16 174.0   25 117  57  63
   2024 07 15 07:50  18 27 22.59    -35 35 35.1   0.0116 1.0272 158.9 Nm  16?   1.14 180.1   27 116  57  63
   2024 07 15 08:00  18 27 22.54    -35 35 46.3   0.0116 1.0272 158.8 Nm  16?   1.12 186.2   29 116  57  63
   2024 07 15 08:10  18 27 22.38    -35 35 57.4   0.0116 1.0272 158.8 Nm  16?   1.12 192.4   31 115  57  63
   2024 07 15 08:20  18 27 22.14    -35 36 08.3   0.0116 1.0272 158.8 Am  16?   1.13 198.4   33 114  57  63
   2024 07 15 08:30  18 27 21.79    -35 36 18.8   0.0116 1.0272 158.8 Am  16?   1.15 204.3   35 113  57  63
   2024 07 15 08:40  18 27 21.35    -35 36 29.1   0.0116 1.0272 158.8 Am  16?   1.17 210.0   36 113  57  63
   2024 07 15 08:50  18 27 20.82    -35 36 39.1   0.0116 1.0272 158.8  m  16?   1.21 215.3   38 112  57  63
   2024 07 15 09:00  18 27 20.20    -35 36 48.8   0.0116 1.0272 158.8  m  16?   1.25 220.3   40 112  57  63
   2024 07 15 09:10  18 27 19.49    -35 36 58.0   0.0116 1.0272 158.8  m  16?   1.29 225.0   42 111  57  63
   2024 07 15 09:20  18 27 18.70    -35 37 06.9   0.0116 1.0272 158.8  m  16?   1.34 229.4   44 110  57  63
   2024 07 15 09:30  18 27 17.83    -35 37 15.4   0.0116 1.0272 158.8  m  16?   1.39 233.4   46 110  57  63
   2024 07 15 09:40  18 27 16.87    -35 37 23.4   0.0116 1.0272 158.8  m  16?   1.44 237.2   48 109  57  63
   2024 07 15 09:50  18 27 15.84    -35 37 30.9   0.0116 1.0272 158.7  m  16?   1.50 240.7   50 109  57  63
   2024 07 15 10:00  18 27 14.73    -35 37 37.9   0.0116 1.0272 158.7  m  16?   1.55 243.9   52 109  57  63
   2024 07 15 10:10  18 27 13.55    -35 37 44.4   0.0116 1.0272 158.7  m  16?   1.61 247.0   55 108  56  63
   2024 07 15 10:20  18 27 12.30    -35 37 50.4   0.0116 1.0272 158.7  m  16?   1.66 249.8   57 108  56  63
   2024 07 15 10:30  18 27 10.99    -35 37 55.7   0.0116 1.0272 158.7  m  16?   1.72 252.5   59 108  56  63
   2024 07 15 10:40  18 27 09.61    -35 38 00.6   0.0116 1.0272 158.7  m  16?   1.77 255.0   61 108  56  63
   2024 07 15 10:50  18 27 08.18    -35 38 04.8   0.0116 1.0272 158.7  m  16?   1.82 257.4   63 107  56  64
   2024 07 15 11:00  18 27 06.70    -35 38 08.3   0.0116 1.0272 158.7  m  16?   1.87 259.7   65 108  56  64
   2024 07 15 11:10  18 27 05.16    -35 38 11.3   0.0116 1.0272 158.7  m  16?   1.92 261.9   67 108  56  64
   2024 07 15 11:20  18 27 03.58    -35 38 13.6   0.0116 1.0272 158.7  m  16?   1.96 264.0   69 108  56  64
   2024 07 15 11:30  18 27 01.96    -35 38 15.2   0.0116 1.0272 158.6  m  16?   2.01 266.1   71 109  56  64
   2024 07 15 11:40  18 27 00.30    -35 38 16.2   0.0116 1.0272 158.6  m  16?   2.05 268.1   73 110  56  64
   2024 07 15 11:50  18 26 58.60    -35 38 16.4   0.0115 1.0272 158.6  m  16?   2.08 270.0   75 111  56  64
   2024 07 15 12:00  18 26 56.88    -35 38 16.0   0.0115 1.0272 158.6  m  16?   2.12 271.9   77 113  56  64
   2024 07 15 12:10  18 26 55.13    -35 38 14.8   0.0115 1.0272 158.6  m  16?   2.15 273.8   79 117  56  64
   2024 07 15 12:20  18 26 53.36    -35 38 13.0   0.0115 1.0272 158.6  m  16?   2.18 275.6   81 121  56  64
   2024 07 15 12:30  18 26 51.58    -35 38 10.4   0.0115 1.0272 158.6  m  16?   2.20 277.5   82 129  56  64
   2024 07 15 12:40  18 26 49.78    -35 38 07.1   0.0115 1.0272 158.6  m  16?   2.23 279.3   84 142  56  64
   2024 07 15 12:50  18 26 47.98    -35 38 03.0   0.0115 1.0272 158.6  m  16?   2.24 281.1   85 162  55  64
   2024 07 15 13:00  18 26 46.17    -35 37 58.3   0.0115 1.0272 158.6  t  16?   2.26 282.9   85 188  55  64
   2024 07 15 13:10  18 26 44.37    -35 37 52.8   0.0115 1.0272 158.6  m  16?   2.27 284.7   84 211  55  64
   2024 07 15 13:20  18 26 42.57    -35 37 46.5   0.0115 1.0272 158.5  m  16?   2.28 286.6   83 226  55  64
   2024 07 15 13:30  18 26 40.79    -35 37 39.6   0.0115 1.0272 158.5  m  16?   2.29 288.4   81 235  55  64
   2024 07 15 13:40  18 26 39.02    -35 37 31.9   0.0115 1.0272 158.5  m  16?   2.29 290.3   79 241  55  64
   2024 07 15 13:50  18 26 37.27    -35 37 23.5   0.0115 1.0272 158.5  m  16?   2.29 292.2   78 245  55  64
   2024 07 15 14:00  18 26 35.54    -35 37 14.4   0.0115 1.0272 158.5  m  16?   2.29 294.1   76 247  55  64
   2024 07 15 14:10  18 26 33.84    -35 37 04.6   0.0115 1.0272 158.5  m  16?   2.29 296.1   74 249  55  64
   2024 07 15 14:20  18 26 32.18    -35 36 54.2   0.0115 1.0272 158.5  m  16?   2.28 298.1   72 250  55  65
   2024 07 15 14:30  18 26 30.55    -35 36 43.0   0.0115 1.0272 158.5  m  16?   2.27 300.2   70 251  55  65
   2024 07 15 14:40  18 26 28.96    -35 36 31.2   0.0116 1.0272 158.5  m  16?   2.26 302.3   67 251  55  65
   2024 07 15 14:50  18 26 27.42    -35 36 18.7   0.0116 1.0272 158.5  m  16?   2.25 304.5   65 251  55  65
   2024 07 15 15:00  18 26 25.93    -35 36 05.6   0.0116 1.0272 158.5  m  16?   2.24 306.7   63 252  54  65
   2024 07 15 15:10  18 26 24.49    -35 35 51.8   0.0116 1.0272 158.5  m  16?   2.22 309.0   61 252  54  65
   2024 07 15 15:20  18 26 23.11    -35 35 37.5   0.0116 1.0272 158.4  m  16?   2.20 311.4   59 251  54  65
   2024 07 15 15:30  18 26 21.79    -35 35 22.5   0.0116 1.0272 158.4  m  16?   2.19 313.9   57 251  54  65
   2024 07 15 15:40  18 26 20.54    -35 35 07.0   0.0116 1.0272 158.4  m  16?   2.17 316.4   55 251  54  65
   2024 07 15 15:50  18 26 19.35    -35 34 51.0   0.0116 1.0272 158.4  m  16?   2.15 319.0   53 251  54  65
   2024 07 15 16:00  18 26 18.23    -35 34 34.4   0.0116 1.0272 158.4     16?   2.14 321.7   51 250  54  65
   2024 07 15 16:10  18 26 17.19    -35 34 17.4   0.0116 1.0272 158.4     16?   2.12 324.5   49 250  54  65
   2024 07 15 16:20  18 26 16.22    -35 33 59.8   0.0116 1.0272 158.4     16?   2.11 327.3   47 249  54  65
   2024 07 15 16:30  18 26 15.34    -35 33 41.8   0.0116 1.0272 158.4     16?   2.09 330.3   45 249  54  65
   2024 07 15 16:40  18 26 14.54    -35 33 23.4   0.0116 1.0272 158.4     16?   2.08 333.3   43 248  54  65
   2024 07 15 16:50  18 26 13.82    -35 33 04.6   0.0116 1.0272 158.4     16?   2.07 336.4   41 248  53  66
   2024 07 15 17:00  18 26 13.19    -35 32 45.4   0.0116 1.0272 158.4     16?   2.06 339.6   39 247  53  66
   2024 07 15 17:10  18 26 12.65    -35 32 25.9   0.0116 1.0272 158.4     16?   2.06 342.8   37 247  53  66
   2024 07 15 17:20  18 26 12.20    -35 32 06.0   0.0116 1.0272 158.4     16?   2.06 346.0   35 246  53  66
   2024 07 15 17:30  18 26 11.85    -35 31 45.9   0.0116 1.0272 158.4     16?   2.06 349.3   33 245  53  66
   2024 07 15 17:40  18 26 11.59    -35 31 25.5   0.0116 1.0272 158.4     16?   2.07 352.7   31 244  53  66
   2024 07 15 17:50  18 26 11.43    -35 31 04.9   0.0116 1.0272 158.4     16?   2.08 356.0   29 244  53  66
   2024 07 15 18:00  18 26 11.37    -35 30 44.1   0.0116 1.0272 158.4     16?   2.09 359.3   27 243  53  66
   2024 07 15 18:10  18 26 11.40    -35 30 23.1   0.0116 1.0272 158.4     16?   2.11   2.7   25 242  53  66
   2024 07 15 18:20  18 26 11.54    -35 30 02.0   0.0116 1.0272 158.4     16?   2.13   6.0   24 241  53  66
   2024 07 15 18:30  18 26 11.78    -35 29 40.7   0.0116 1.0272 158.4     16?   2.16   9.2   22 240  52  66
   2024 07 15 18:40  18 26 12.12    -35 29 19.4   0.0116 1.0272 158.4     16?   2.18  12.4   20 240  52  66
   2024 07 15 18:50  18 26 12.56    -35 28 58.1   0.0116 1.0272 158.4     16?   2.22  15.5   18 239  52  66
   2024 07 15 19:00  18 26 13.10    -35 28 36.7   0.0116 1.0272 158.4     16?   2.25  18.6   16 238  52  67
   2024 07 15 19:10  18 26 13.74    -35 28 15.4   0.0116 1.0272 158.4     16?   2.29  21.6   14 237  52  67
   2024 07 15 19:20  18 26 14.49    -35 27 54.1   0.0116 1.0272 158.4     16?   2.34  24.5   13 236  52  67
   2024 07 15 19:30  18 26 15.34    -35 27 32.9   0.0116 1.0272 158.4     16?   2.38  27.3   11 235  52  67
   2024 07 15 19:40  18 26 16.29    -35 27 11.9   0.0116 1.0272 158.4 A   16?   2.43  30.0    9 234  52  67
   2024 07 15 19:50  18 26 17.33    -35 26 50.9   0.0116 1.0272 158.4 A   16?   2.48  32.6    7 233  52  67
   2024 07 15 20:00  18 26 18.48    -35 26 30.2   0.0116 1.0272 158.4 A   16?   2.53  35.1    6 231  52  67
   2024 07 15 20:10  18 26 19.72    -35 26 09.6   0.0116 1.0272 158.4 N   16?   2.58  37.5    4 230  51  67
   2024 07 15 20:20  18 26 21.06    -35 25 49.3   0.0116 1.0272 158.4 N   16?   2.64  39.9    2 229  51  67
   2024 07 15 20:30  18 26 22.50    -35 25 29.3   0.0116 1.0272 158.4 N   16?   2.69  42.1    1 228  51  67
   2024 07 15 20:40  18 26 24.03    -35 25 09.5   0.0116 1.0272 158.4 C   16?   2.75  44.3    0 226  51  67
   ................
   2024 07 16 07:30  18 28 40.09    -35 23 35.0   0.0116 1.0271 158.4 Cm  16?   1.15 167.2   23 118  45  72
   2024 07 16 07:40  18 28 40.25    -35 23 46.2   0.0116 1.0271 158.4 Cm  16?   1.12 173.1   25 117  45  72
   2024 07 16 07:50  18 28 40.30    -35 23 57.3   0.0116 1.0271 158.4 Nm  16?   1.10 179.3   27 116  45  72
   2024 07 16 08:00  18 28 40.26    -35 24 08.2   0.0116 1.0271 158.4 Nm  16?   1.09 185.7   29 115  45  72
   2024 07 16 08:10  18 28 40.12    -35 24 18.9   0.0116 1.0271 158.4 Nm  16?   1.08 192.0   31 114  45  72
   2024 07 16 08:20  18 28 39.89    -35 24 29.3   0.0116 1.0271 158.4 Am  16?   1.09 198.3   33 114  45  72
   2024 07 16 08:30  18 28 39.56    -35 24 39.5   0.0116 1.0271 158.4 Am  16?   1.11 204.4   35 113  45  72
   2024 07 16 08:40  18 28 39.13    -35 24 49.4   0.0116 1.0271 158.4 Am  16?   1.13 210.3   37 112  45  72
   2024 07 16 08:50  18 28 38.62    -35 24 59.0   0.0116 1.0271 158.4  m  16?   1.16 215.8   39 112  45  72
   2024 07 16 09:00  18 28 38.01    -35 25 08.2   0.0116 1.0271 158.3  m  16?   1.20 221.0   41 111  45  72
   2024 07 16 09:10  18 28 37.32    -35 25 17.1   0.0116 1.0271 158.3  m  16?   1.25 225.8   43 111  45  72
   2024 07 16 09:20  18 28 36.55    -35 25 25.5   0.0116 1.0271 158.3  m  16?   1.30 230.3   45 110  45  72
   2024 07 16 09:30  18 28 35.69    -35 25 33.6   0.0115 1.0271 158.3  m  16?   1.35 234.4   47 109  45  73
   2024 07 16 09:40  18 28 34.75    -35 25 41.1   0.0115 1.0271 158.3  m  16?   1.40 238.2   49 109  45  73
   2024 07 16 09:50  18 28 33.74    -35 25 48.2   0.0115 1.0271 158.3  m  16?   1.46 241.8   51 109  45  73
   2024 07 16 10:00  18 28 32.65    -35 25 54.8   0.0115 1.0271 158.3  m  16?   1.51 245.1   53 108  44  73
   2024 07 16 10:10  18 28 31.49    -35 26 00.8   0.0115 1.0271 158.3  m  16?   1.57 248.1   55 108  44  73
   2024 07 16 10:20  18 28 30.26    -35 26 06.3   0.0115 1.0271 158.3  m  16?   1.62 251.0   57 107  44  73
   2024 07 16 10:30  18 28 28.98    -35 26 11.3   0.0115 1.0271 158.3  m  16?   1.68 253.7   59 107  44  73
   2024 07 16 10:40  18 28 27.63    -35 26 15.6   0.0115 1.0271 158.3  m  16?   1.73 256.3   61 107  44  73
   2024 07 16 10:50  18 28 26.22    -35 26 19.4   0.0115 1.0271 158.2  m  16?   1.78 258.7   63 107  44  73
   2024 07 16 11:00  18 28 24.76    -35 26 22.5   0.0115 1.0271 158.2  m  16?   1.83 261.0   65 107  44  73
   2024 07 16 11:10  18 28 23.25    -35 26 25.0   0.0115 1.0271 158.2  m  16?   1.88 263.2   67 107  44  73
   2024 07 16 11:20  18 28 21.70    -35 26 26.8   0.0115 1.0271 158.2  m  16?   1.93 265.3   69 108  44  73
   2024 07 16 11:30  18 28 20.11    -35 26 28.0   0.0115 1.0271 158.2  m  16?   1.97 267.4   71 108  44  73
   2024 07 16 11:40  18 28 18.48    -35 26 28.5   0.0115 1.0271 158.2  m  16?   2.01 269.4   73 109  44  73
   2024 07 16 11:50  18 28 16.82    -35 26 28.3   0.0115 1.0271 158.2  m  16?   2.05 271.3   75 111  44  73
   2024 07 16 12:00  18 28 15.13    -35 26 27.4   0.0115 1.0271 158.2  m  16?   2.08 273.2   77 113  44  73
   2024 07 16 12:10  18 28 13.42    -35 26 25.7   0.0115 1.0271 158.2  m  16?   2.12 275.1   79 117  44  73
   2024 07 16 12:20  18 28 11.68    -35 26 23.4   0.0115 1.0271 158.2  m  16?   2.14 277.0   81 122  44  73
   2024 07 16 12:30  18 28 09.94    -35 26 20.4   0.0115 1.0271 158.1  m  16?   2.17 278.8   83 131  44  73
   2024 07 16 12:40  18 28 08.18    -35 26 16.6   0.0115 1.0271 158.1  m  16?   2.19 280.6   84 145  43  73
   2024 07 16 12:50  18 28 06.41    -35 26 12.1   0.0115 1.0271 158.1  m  16?   2.21 282.5   85 168  43  73
   2024 07 16 13:00  18 28 04.65    -35 26 06.9   0.0115 1.0271 158.1  t  16?   2.23 284.3   85 196  43  73
   2024 07 16 13:10  18 28 02.89    -35 26 00.9   0.0115 1.0271 158.1  m  16?   2.24 286.1   84 217  43  73
   2024 07 16 13:20  18 28 01.13    -35 25 54.3   0.0115 1.0271 158.1  m  16?   2.25 288.0   83 230  43  73
   2024 07 16 13:30  18 27 59.39    -35 25 46.9   0.0115 1.0271 158.1  m  16?   2.26 289.9   81 238  43  73
   2024 07 16 13:40  18 27 57.67    -35 25 38.8   0.0115 1.0271 158.1  m  16?   2.26 291.8   79 243  43  73
   2024 07 16 13:50  18 27 55.96    -35 25 30.0   0.0115 1.0271 158.1  m  16?   2.26 293.7   77 246  43  74
   2024 07 16 14:00  18 27 54.28    -35 25 20.4   0.0115 1.0271 158.1  m  16?   2.26 295.7   75 248  43  74
   2024 07 16 14:10  18 27 52.63    -35 25 10.2   0.0115 1.0271 158.0  m  16?   2.26 297.7   73 250  43  74
   2024 07 16 14:20  18 27 51.02    -35 24 59.3   0.0115 1.0271 158.0  m  16?   2.25 299.7   71 251  43  74
   2024 07 16 14:30  18 27 49.44    -35 24 47.7   0.0115 1.0271 158.0  m  16?   2.24 301.8   69 251  43  74
   2024 07 16 14:40  18 27 47.91    -35 24 35.5   0.0115 1.0271 158.0  m  16?   2.24 304.0   67 252  43  74
   2024 07 16 14:50  18 27 46.42    -35 24 22.6   0.0115 1.0271 158.0  m  16?   2.22 306.2   65 252  43  74
   2024 07 16 15:00  18 27 44.98    -35 24 09.1   0.0115 1.0271 158.0  m  16?   2.21 308.5   63 252  42  74
   2024 07 16 15:10  18 27 43.60    -35 23 55.0   0.0115 1.0271 158.0  m  16?   2.20 310.8   61 252  42  74
   2024 07 16 15:20  18 27 42.27    -35 23 40.2   0.0115 1.0271 158.0  m  16?   2.18 313.3   59 252  42  74
   2024 07 16 15:30  18 27 41.01    -35 23 24.9   0.0115 1.0271 158.0  m  16?   2.17 315.8   57 252  42  74
   2024 07 16 15:40  18 27 39.81    -35 23 09.1   0.0115 1.0271 158.0  m  16?   2.15 318.3   55 251  42  74
   2024 07 16 15:50  18 27 38.68    -35 22 52.7   0.0115 1.0271 158.0  m  16?   2.14 321.0   53 251  42  74
   2024 07 16 16:00  18 27 37.62    -35 22 35.8   0.0115 1.0271 158.0  m  16?   2.12 323.7   51 251  42  74
   2024 07 16 16:10  18 27 36.64    -35 22 18.4   0.0115 1.0271 158.0  m  16?   2.11 326.5   49 250  42  74
   2024 07 16 16:20  18 27 35.73    -35 22 00.5   0.0115 1.0271 158.0  m  16?   2.10 329.4   47 250  42  74
   2024 07 16 16:30  18 27 34.91    -35 21 42.2   0.0115 1.0271 158.0  m  16?   2.09 332.4   45 249  42  74
   2024 07 16 16:40  18 27 34.16    -35 21 23.4   0.0115 1.0271 158.0  m  16?   2.08 335.5   43 248  42  74
   2024 07 16 16:50  18 27 33.51    -35 21 04.3   0.0115 1.0271 157.9  m  16?   2.07 338.6   41 248  42  75
   2024 07 16 17:00  18 27 32.94    -35 20 44.8   0.0116 1.0271 157.9     16?   2.07 341.8   39 247  41  75
   2024 07 16 17:10  18 27 32.46    -35 20 25.0   0.0116 1.0271 157.9     16?   2.07 345.0   37 247  41  75
   2024 07 16 17:20  18 27 32.08    -35 20 04.9   0.0116 1.0271 157.9     16?   2.07 348.2   35 246  41  75
   2024 07 16 17:30  18 27 31.79    -35 19 44.5   0.0116 1.0271 157.9     16?   2.08 351.5   33 245  41  75
   2024 07 16 17:40  18 27 31.59    -35 19 23.8   0.0116 1.0271 157.9     16?   2.08 354.8   31 244  41  75
   2024 07 16 17:50  18 27 31.49    -35 19 02.9   0.0116 1.0271 157.9     16?   2.10 358.1   29 244  41  75
   2024 07 16 18:00  18 27 31.50    -35 18 41.9   0.0116 1.0271 157.9     16?   2.12   1.5   27 243  41  75
   2024 07 16 18:10  18 27 31.59    -35 18 20.7   0.0116 1.0271 157.9     16?   2.14   4.8   25 242  41  75
   2024 07 16 18:20  18 27 31.79    -35 17 59.3   0.0116 1.0271 157.9     16?   2.16   8.0   23 241  41  75
   2024 07 16 18:30  18 27 32.10    -35 17 37.9   0.0116 1.0271 157.9     16?   2.19  11.2   21 240  41  75
   2024 07 16 18:40  18 27 32.50    -35 17 16.4   0.0116 1.0271 157.9     16?   2.22  14.3   19 240  40  75
   2024 07 16 18:50  18 27 33.00    -35 16 54.8   0.0116 1.0271 157.9     16?   2.26  17.3   17 239  40  75
   2024 07 16 19:00  18 27 33.61    -35 16 33.3   0.0116 1.0271 157.9     16?   2.30  20.3   16 238  40  75
   2024 07 16 19:10  18 27 34.32    -35 16 11.8   0.0116 1.0271 157.9     16?   2.34  23.2   14 237  40  76
   2024 07 16 19:20  18 27 35.12    -35 15 50.3   0.0116 1.0271 157.9     16?   2.39  26.0   12 236  40  76
   2024 07 16 19:30  18 27 36.03    -35 15 28.9   0.0116 1.0271 157.9     16?   2.43  28.7   10 235  40  76
   2024 07 16 19:40  18 27 37.04    -35 15 07.7   0.0116 1.0271 157.9 A   16?   2.48  31.4    8 234  40  76
   2024 07 16 19:50  18 27 38.15    -35 14 46.6   0.0116 1.0271 157.9 A   16?   2.53  33.9    7 232  40  76
   2024 07 16 20:00  18 27 39.36    -35 14 25.7   0.0116 1.0271 157.9 A   16?   2.59  36.3    5 231  40  76
   2024 07 16 20:10  18 27 40.67    -35 14 05.0   0.0116 1.0271 157.9 N   16?   2.64  38.7    3 230  40  76
   2024 07 16 20:20  18 27 42.07    -35 13 44.6   0.0116 1.0271 157.9 N   16?   2.70  41.0    2 229  39  76
   2024 07 16 20:30  18 27 43.56    -35 13 24.4   0.0116 1.0271 157.9 N   16?   2.75  43.1    0 228  39  76
   ................
   2024 07 17 07:30  18 30 03.07    -35 11 20.1   0.0116 1.0270 158.0 Cm  16?   1.12 166.1   24 117  33  81
   2024 07 17 07:40  18 30 03.24    -35 11 31.0   0.0115 1.0270 158.0 Cm  16?   1.09 172.2   26 116  33  81
   2024 07 17 07:50  18 30 03.31    -35 11 41.7   0.0115 1.0270 158.0 Nm  16?   1.06 178.5   28 116  33  81
   2024 07 17 08:00  18 30 03.28    -35 11 52.2   0.0115 1.0270 158.0 Nm  16?   1.05 185.1   30 115  33  81
   2024 07 17 08:10  18 30 03.15    -35 12 02.5   0.0115 1.0270 157.9 Nm  16?   1.04 191.7   31 114  33  81
   2024 07 17 08:20  18 30 02.93    -35 12 12.6   0.0115 1.0270 157.9 Am  16?   1.05 198.2   33 113  33  81
   2024 07 17 08:30  18 30 02.61    -35 12 22.4   0.0115 1.0270 157.9 Am  16?   1.06 204.6   35 113  33  81
   2024 07 17 08:40  18 30 02.20    -35 12 31.9   0.0115 1.0270 157.9 Am  16?   1.09 210.6   37 112  33  81
   2024 07 17 08:50  18 30 01.70    -35 12 41.1   0.0115 1.0270 157.9  m  16?   1.12 216.4   39 111  33  81
   2024 07 17 09:00  18 30 01.11    -35 12 49.9   0.0115 1.0270 157.9  m  16?   1.16 221.7   41 111  33  81
   2024 07 17 09:10  18 30 00.43    -35 12 58.3   0.0115 1.0270 157.9  m  16?   1.21 226.7   43 110  32  81
   2024 07 17 09:20  18 29 59.68    -35 13 06.3   0.0115 1.0270 157.9  m  16?   1.25 231.2   45 110  32  81
   2024 07 17 09:30  18 29 58.83    -35 13 13.9   0.0115 1.0270 157.9  m  16?   1.31 235.5   47 109  32  81
   2024 07 17 09:40  18 29 57.91    -35 13 21.1   0.0115 1.0270 157.9  m  16?   1.36 239.3   49 109  32  81
   2024 07 17 09:50  18 29 56.92    -35 13 27.7   0.0115 1.0270 157.9  m  16?   1.42 242.9   51 108  32  81
   2024 07 17 10:00  18 29 55.85    -35 13 33.9   0.0115 1.0270 157.8  m  16?   1.47 246.3   54 108  32  81
   2024 07 17 10:10  18 29 54.71    -35 13 39.5   0.0115 1.0270 157.8  m  16?   1.53 249.4   56 107  32  81
   2024 07 17 10:20  18 29 53.51    -35 13 44.5   0.0115 1.0270 157.8  m  16?   1.59 252.3   58 107  32  81
   2024 07 17 10:30  18 29 52.24    -35 13 49.0   0.0115 1.0270 157.8  m  16?   1.64 255.0   60 107  32  81
   2024 07 17 10:40  18 29 50.92    -35 13 52.9   0.0115 1.0270 157.8  m  16?   1.70 257.5   62 107  32  81
   2024 07 17 10:50  18 29 49.54    -35 13 56.2   0.0115 1.0270 157.8  m  16?   1.75 260.0   64 107  32  81
   2024 07 17 11:00  18 29 48.11    -35 13 58.9   0.0115 1.0270 157.8  m  16?   1.80 262.3   66 107  32  81
   2024 07 17 11:10  18 29 46.63    -35 14 00.9   0.0115 1.0270 157.8  m  16?   1.85 264.5   68 107  32  81
   2024 07 17 11:20  18 29 45.10    -35 14 02.3   0.0115 1.0270 157.8  m  16?   1.90 266.6   70 107  32  81
   2024 07 17 11:30  18 29 43.54    -35 14 03.0   0.0115 1.0270 157.8  m  16?   1.94 268.7   72 108  32  81
   2024 07 17 11:40  18 29 41.94    -35 14 03.0   0.0115 1.0270 157.8  m  16?   1.98 270.7   74 109  32  82
   2024 07 17 11:50  18 29 40.31    -35 14 02.4   0.0115 1.0270 157.7  m  16?   2.02 272.6   76 111  31  82
   2024 07 17 12:00  18 29 38.65    -35 14 01.0   0.0115 1.0270 157.7  m  16?   2.05 274.6   78 113  31  82
   2024 07 17 12:10  18 29 36.97    -35 13 58.9   0.0115 1.0270 157.7  m  16?   2.08 276.4   80 117  31  82
   2024 07 17 12:20  18 29 35.27    -35 13 56.2   0.0115 1.0270 157.7  m  16?   2.11 278.3   82 122  31  82
   2024 07 17 12:30  18 29 33.56    -35 13 52.7   0.0115 1.0270 157.7  m  16?   2.14 280.2   83 132  31  82
   2024 07 17 12:40  18 29 31.84    -35 13 48.5   0.0115 1.0270 157.7  m  16?   2.16 282.0   85 149  31  82
   2024 07 17 12:50  18 29 30.12    -35 13 43.5   0.0115 1.0270 157.7  m  16?   2.18 283.9   86 175  31  82
   2024 07 17 13:00  18 29 28.39    -35 13 37.9   0.0115 1.0270 157.7  t  16?   2.20 285.7   85 203  31  82
   2024 07 17 13:10  18 29 26.67    -35 13 31.5   0.0115 1.0270 157.7  m  16?   2.21 287.6   84 223  31  82
   2024 07 17 13:20  18 29 24.96    -35 13 24.4   0.0115 1.0270 157.7  m  16?   2.22 289.4   82 234  31  82
   2024 07 17 13:30  18 29 23.26    -35 13 16.5   0.0115 1.0270 157.6  m  16?   2.23 291.3   81 241  31  82
   2024 07 17 13:40  18 29 21.58    -35 13 08.0   0.0115 1.0270 157.6  m  16?   2.23 293.2   79 245  31  82
   2024 07 17 13:50  18 29 19.92    -35 12 58.8   0.0115 1.0270 157.6  m  16?   2.24 295.2   77 248  31  82
   2024 07 17 14:00  18 29 18.28    -35 12 48.8   0.0115 1.0270 157.6  m  16?   2.23 297.2   75 250  31  82
   2024 07 17 14:10  18 29 16.68    -35 12 38.2   0.0115 1.0270 157.6  m  16?   2.23 299.2   73 251  31  82
   2024 07 17 14:20  18 29 15.11    -35 12 26.9   0.0115 1.0270 157.6  m  16?   2.23 301.3   71 252  30  82
   2024 07 17 14:30  18 29 13.58    -35 12 14.9   0.0115 1.0270 157.6  m  16?   2.22 303.5   68 252  30  82
   2024 07 17 14:40  18 29 12.10    -35 12 02.3   0.0115 1.0270 157.6  m  16?   2.21 305.6   66 252  30  82
   2024 07 17 14:50  18 29 10.66    -35 11 49.0   0.0115 1.0270 157.6  m  16?   2.20 307.9   64 252  30  82
   2024 07 17 15:00  18 29 09.28    -35 11 35.1   0.0115 1.0270 157.6  m  16?   2.19 310.2   62 252  30  82
   2024 07 17 15:10  18 29 07.94    -35 11 20.6   0.0115 1.0270 157.6  m  16?   2.18 312.6   60 252  30  82
   2024 07 17 15:20  18 29 06.67    -35 11 05.5   0.0115 1.0270 157.6  m  16?   2.16 315.1   58 252  30  82
   2024 07 17 15:30  18 29 05.46    -35 10 49.8   0.0115 1.0270 157.5  m  16?   2.15 317.6   56 252  30  82
   2024 07 17 15:40  18 29 04.32    -35 10 33.6   0.0115 1.0270 157.5  m  16?   2.14 320.2   54 252  30  82
   2024 07 17 15:50  18 29 03.24    -35 10 16.9   0.0115 1.0270 157.5  m  16?   2.12 322.9   52 251  30  82
   2024 07 17 16:00  18 29 02.24    -35 09 59.6   0.0115 1.0270 157.5  m  16?   2.11 325.7   50 251  30  83
   2024 07 17 16:10  18 29 01.31    -35 09 41.9   0.0115 1.0270 157.5  m  16?   2.10 328.6   48 250  30  83
   2024 07 17 16:20  18 29 00.47    -35 09 23.7   0.0115 1.0270 157.5  m  16?   2.09 331.5   46 250  30  83
   2024 07 17 16:30  18 28 59.70    -35 09 05.1   0.0115 1.0270 157.5  m  16?   2.08 334.5   44 249  30  83
   2024 07 17 16:40  18 28 59.02    -35 08 46.0   0.0115 1.0270 157.5  m  16?   2.08 337.6   42 249  29  83
   2024 07 17 16:50  18 28 58.42    -35 08 26.6   0.0115 1.0270 157.5  m  16?   2.07 340.7   40 248  29  83
   2024 07 17 17:00  18 28 57.91    -35 08 06.8   0.0115 1.0270 157.5  m  16?   2.07 343.9   38 247  29  83
   2024 07 17 17:10  18 28 57.49    -35 07 46.7   0.0115 1.0270 157.5  m  16?   2.08 347.1   36 247  29  83
   2024 07 17 17:20  18 28 57.17    -35 07 26.3   0.0115 1.0270 157.5  m  16?   2.08 350.4   34 246  29  83
   2024 07 17 17:30  18 28 56.94    -35 07 05.6   0.0115 1.0270 157.5  m  16?   2.09 353.6   32 245  29  83
   2024 07 17 17:40  18 28 56.80    -35 06 44.7   0.0115 1.0270 157.5  m  16?   2.10 356.9   30 245  29  83
   2024 07 17 17:50  18 28 56.77    -35 06 23.6   0.0115 1.0270 157.5  m  16?   2.12   0.2   28 244  29  83
   2024 07 17 18:00  18 28 56.83    -35 06 02.3   0.0115 1.0270 157.5     16?   2.14   3.5   26 243  29  83
   2024 07 17 18:10  18 28 56.99    -35 05 40.9   0.0115 1.0270 157.5     16?   2.17   6.7   24 242  29  83
   2024 07 17 18:20  18 28 57.25    -35 05 19.3   0.0115 1.0270 157.5     16?   2.20   9.9   22 241  29  83
   2024 07 17 18:30  18 28 57.61    -35 04 57.6   0.0115 1.0270 157.5     16?   2.23  13.0   21 240  28  83
   2024 07 17 18:40  18 28 58.07    -35 04 35.9   0.0115 1.0270 157.5     16?   2.26  16.0   19 239  28  83
   2024 07 17 18:50  18 28 58.64    -35 04 14.2   0.0115 1.0270 157.5     16?   2.30  19.0   17 239  28  83
   2024 07 17 19:00  18 28 59.31    -35 03 52.4   0.0115 1.0270 157.5     16?   2.34  21.9   15 238  28  84
   2024 07 17 19:10  18 29 00.07    -35 03 30.8   0.0116 1.0270 157.5     16?   2.39  24.7   13 237  28  84
   2024 07 17 19:20  18 29 00.94    -35 03 09.1   0.0116 1.0270 157.5     16?   2.44  27.4   11 236  28  84
   2024 07 17 19:30  18 29 01.91    -35 02 47.6   0.0116 1.0270 157.5     16?   2.49  30.1   10 235  28  84
   2024 07 17 19:40  18 29 02.98    -35 02 26.2   0.0116 1.0270 157.5 A   16?   2.54  32.6    8 233  28  84
   2024 07 17 19:50  18 29 04.15    -35 02 05.0   0.0116 1.0270 157.5 A   16?   2.59  35.1    6 232  28  84
   2024 07 17 20:00  18 29 05.42    -35 01 43.9   0.0116 1.0270 157.5 A   16?   2.64  37.5    5 231  28  84
   2024 07 17 20:10  18 29 06.78    -35 01 23.1   0.0116 1.0270 157.5 N   16?   2.70  39.8    3 230  27  84
   2024 07 17 20:20  18 29 08.24    -35 01 02.5   0.0116 1.0270 157.5 N   16?   2.76  42.0    1 229  27  84
   2024 07 17 20:30  18 29 09.79    -35 00 42.2   0.0116 1.0270 157.5 N   16?   2.81  44.1    0 227  27  84
   ................
   2024 07 18 07:30  18 31 31.12    -34 58 27.6   0.0115 1.0269 157.5 Cm  16?   1.09 165.0   24 117  21  88
   2024 07 18 07:40  18 31 31.29    -34 58 38.1   0.0115 1.0269 157.5 Cm  16?   1.05 171.2   26 116  21  88
   2024 07 18 07:50  18 31 31.37    -34 58 48.5   0.0115 1.0269 157.5 Nm  16?   1.03 177.7   28 115  21  88
   2024 07 18 08:00  18 31 31.35    -34 58 58.6   0.0115 1.0269 157.5 Nm  16?   1.01 184.5   30 114  21  88
   2024 07 18 08:10  18 31 31.24    -34 59 08.5   0.0115 1.0269 157.5 Nm  16?   1.00 191.4   32 114  20  88
   2024 07 18 08:20  18 31 31.03    -34 59 18.2   0.0115 1.0269 157.5 Am  16?   1.01 198.2   34 113  20  88
   2024 07 18 08:30  18 31 30.72    -34 59 27.6   0.0115 1.0269 157.5 Am  16?   1.02 204.8   36 112  20  88
   2024 07 18 08:40  18 31 30.32    -34 59 36.7   0.0115 1.0269 157.5 Am  16?   1.05 211.1   38 112  20  88
   2024 07 18 08:50  18 31 29.84    -34 59 45.5   0.0115 1.0269 157.5  m  16?   1.08 217.0   40 111  20  88
   2024 07 18 09:00  18 31 29.26    -34 59 53.9   0.0115 1.0269 157.5  m  16?   1.12 222.5   42 110  20  88
   2024 07 18 09:10  18 31 28.60    -35 00 01.9   0.0115 1.0269 157.5  m  16?   1.17 227.6   44 110  20  88
   2024 07 18 09:20  18 31 27.86    -35 00 09.6   0.0115 1.0269 157.5  m  16?   1.22 232.3   46 109  20  88
   2024 07 18 09:30  18 31 27.03    -35 00 16.7   0.0115 1.0269 157.4  m  16?   1.27 236.6   48 109  20  89
   2024 07 18 09:40  18 31 26.13    -35 00 23.4   0.0115 1.0269 157.4  m  16?   1.32 240.5   50 108  20  89
   2024 07 18 09:50  18 31 25.15    -35 00 29.7   0.0115 1.0269 157.4  m  16?   1.38 244.2   52 108  20  89
   2024 07 18 10:00  18 31 24.10    -35 00 35.4   0.0115 1.0269 157.4  m  16?   1.44 247.5   54 107  20  89
   2024 07 18 10:10  18 31 22.99    -35 00 40.5   0.0115 1.0269 157.4  m  16?   1.50 250.7   56 107  20  89
   2024 07 18 10:20  18 31 21.80    -35 00 45.2   0.0115 1.0269 157.4  m  16?   1.55 253.6   58 107  20  89
   2024 07 18 10:30  18 31 20.56    -35 00 49.2   0.0115 1.0269 157.4  m  16?   1.61 256.3   60 106  20  89
   2024 07 18 10:40  18 31 19.26    -35 00 52.7   0.0115 1.0269 157.4  m  16?   1.67 258.9   62 106  19  89
   2024 07 18 10:50  18 31 17.90    -35 00 55.5   0.0115 1.0269 157.4  m  16?   1.72 261.3   64 106  19  89
   2024 07 18 11:00  18 31 16.49    -35 00 57.7   0.0115 1.0269 157.4  m  16?   1.77 263.6   66 106  19  89
   2024 07 18 11:10  18 31 15.04    -35 00 59.3   0.0115 1.0269 157.3  m  16?   1.82 265.8   68 106  19  89
   2024 07 18 11:20  18 31 13.54    -35 01 00.2   0.0115 1.0269 157.3  m  16?   1.87 268.0   70 107  19  89
   2024 07 18 11:30  18 31 12.00    -35 01 00.5   0.0115 1.0269 157.3  m  16?   1.91 270.0   72 107  19  89
   2024 07 18 11:40  18 31 10.43    -35 01 00.1   0.0115 1.0269 157.3  m  16?   1.95 272.0   75 109  19  89
   2024 07 18 11:50  18 31 08.83    -35 00 59.0   0.0115 1.0269 157.3  m  16?   1.99 274.0   77 110  19  89
   2024 07 18 12:00  18 31 07.20    -35 00 57.2   0.0115 1.0269 157.3  m  16?   2.02 275.9   79 113  19  89
   2024 07 18 12:10  18 31 05.56    -35 00 54.7   0.0115 1.0269 157.3  m  16?   2.06 277.8   80 116  19  89
   2024 07 18 12:20  18 31 03.89    -35 00 51.4   0.0115 1.0269 157.3  m  16?   2.09 279.7   82 123  19  89
   2024 07 18 12:30  18 31 02.21    -35 00 47.5   0.0115 1.0269 157.3  m  16?   2.11 281.5   84 134  19  89
   2024 07 18 12:40  18 31 00.53    -35 00 42.8   0.0115 1.0269 157.3  m  16?   2.13 283.4   85 153  19  89
   2024 07 18 12:50  18 30 58.84    -35 00 37.5   0.0115 1.0269 157.2  t  16?   2.15 285.2   86 182  19  89
   2024 07 18 13:00  18 30 57.15    -35 00 31.4   0.0115 1.0269 157.2  m  16?   2.17 287.1   85 210  19  89
   2024 07 18 13:10  18 30 55.47    -35 00 24.6   0.0115 1.0269 157.2  m  16?   2.18 289.0   84 228  19  89
   2024 07 18 13:20  18 30 53.79    -35 00 17.0   0.0115 1.0269 157.2  m  16?   2.19 290.9   82 238  19  89
   2024 07 18 13:30  18 30 52.13    -35 00 08.8   0.0115 1.0269 157.2  m  16?   2.20 292.8   80 243  18  89
   2024 07 18 13:40  18 30 50.49    -34 59 59.8   0.0115 1.0269 157.2  m  16?   2.21 294.7   78 247  18  89
   2024 07 18 13:50  18 30 48.88    -34 59 50.2   0.0115 1.0269 157.2  m  16?   2.21 296.7   76 249  18  89
   2024 07 18 14:00  18 30 47.29    -34 59 39.8   0.0115 1.0269 157.2  m  16?   2.21 298.7   74 251  18  89
   2024 07 18 14:10  18 30 45.73    -34 59 28.8   0.0115 1.0269 157.2  m  16?   2.21 300.8   72 252  18  89
   2024 07 18 14:20  18 30 44.21    -34 59 17.1   0.0115 1.0269 157.2  m  16?   2.20 302.9   70 252  18  89
   2024 07 18 14:30  18 30 42.73    -34 59 04.7   0.0115 1.0269 157.2  m  16?   2.20 305.1   68 253  18  89
   2024 07 18 14:40  18 30 41.29    -34 58 51.7   0.0115 1.0269 157.2  m  16?   2.19 307.3   66 253  18  89
   2024 07 18 14:50  18 30 39.90    -34 58 38.0   0.0115 1.0269 157.1  m  16?   2.18 309.6   64 253  18  89
   2024 07 18 15:00  18 30 38.56    -34 58 23.7   0.0115 1.0269 157.1  m  16?   2.17 311.9   62 253  18  89
   2024 07 18 15:10  18 30 37.28    -34 58 08.9   0.0115 1.0269 157.1  m  16?   2.16 314.4   60 253  18  89
   2024 07 18 15:20  18 30 36.06    -34 57 53.4   0.0115 1.0269 157.1  m  16?   2.15 316.9   58 253  18  90
   2024 07 18 15:30  18 30 34.90    -34 57 37.4   0.0115 1.0269 157.1  m  16?   2.14 319.4   56 252  18  90
   2024 07 18 15:40  18 30 33.81    -34 57 20.8   0.0115 1.0269 157.1  m  16?   2.13 322.1   54 252  18  90
   2024 07 18 15:50  18 30 32.79    -34 57 03.8   0.0115 1.0269 157.1  m  16?   2.12 324.8   52 251  18  90
   2024 07 18 16:00  18 30 31.84    -34 56 46.2   0.0115 1.0269 157.1  m  16?   2.11 327.6   50 251  17  90
   2024 07 18 16:10  18 30 30.97    -34 56 28.1   0.0115 1.0269 157.1  m  16?   2.10 330.5   47 250  17  90
   2024 07 18 16:20  18 30 30.17    -34 56 09.6   0.0115 1.0269 157.1  m  16?   2.09 333.5   45 250  17  90
   2024 07 18 16:30  18 30 29.46    -34 55 50.7   0.0115 1.0269 157.1  m  16?   2.08 336.5   43 249  17  90
   2024 07 18 16:40  18 30 28.83    -34 55 31.3   0.0115 1.0269 157.1  m  16?   2.08 339.6   41 249  17  90
   2024 07 18 16:50  18 30 28.29    -34 55 11.6   0.0115 1.0269 157.1  m  16?   2.08 342.7   39 248  17  90
   2024 07 18 17:00  18 30 27.84    -34 54 51.6   0.0115 1.0269 157.1  m  16?   2.08 345.9   37 247  17  90
   2024 07 18 17:10  18 30 27.48    -34 54 31.2   0.0115 1.0269 157.1  m  16?   2.09 349.1   35 247  17  90
   2024 07 18 17:20  18 30 27.21    -34 54 10.5   0.0115 1.0269 157.1  m  16?   2.10 352.3   33 246  17  90
   2024 07 18 17:30  18 30 27.04    -34 53 49.6   0.0115 1.0269 157.1  m  16?   2.11 355.6   32 245  17  90
   2024 07 18 17:40  18 30 26.96    -34 53 28.4   0.0115 1.0269 157.1  m  16?   2.13 358.8   30 245  17  90
   2024 07 18 17:50  18 30 26.98    -34 53 07.1   0.0115 1.0269 157.1  m  16?   2.15   2.1   28 244  17  90
   2024 07 18 18:00  18 30 27.10    -34 52 45.5   0.0115 1.0269 157.1  m  16?   2.17   5.3   26 243  17  90
   2024 07 18 18:10  18 30 27.32    -34 52 23.9   0.0115 1.0269 157.0  m  16?   2.20   8.5   24 242  16  90
   2024 07 18 18:20  18 30 27.64    -34 52 02.1   0.0115 1.0269 157.0  m  16?   2.23  11.6   22 241  16  90
   2024 07 18 18:30  18 30 28.06    -34 51 40.2   0.0115 1.0269 157.0  m  16?   2.26  14.6   20 240  16  90
   2024 07 18 18:40  18 30 28.58    -34 51 18.3   0.0115 1.0269 157.0  m  16?   2.30  17.6   18 239  16  90
   2024 07 18 18:50  18 30 29.20    -34 50 56.4   0.0115 1.0269 157.0  m  16?   2.34  20.5   16 239  16  90
   2024 07 18 19:00  18 30 29.93    -34 50 34.5   0.0115 1.0269 157.0  m  16?   2.39  23.4   14 238  16  90
   2024 07 18 19:10  18 30 30.75    -34 50 12.6   0.0115 1.0269 157.0     16?   2.44  26.1   13 237  16  90
   2024 07 18 19:20  18 30 31.68    -34 49 50.8   0.0115 1.0269 157.0     16?   2.48  28.8   11 236  16  91
   2024 07 18 19:30  18 30 32.70    -34 49 29.1   0.0115 1.0269 157.0     16?   2.54  31.3    9 234  16  91
   2024 07 18 19:40  18 30 33.83    -34 49 07.5   0.0115 1.0269 157.0 A   16?   2.59  33.8    7 233  16  91
   2024 07 18 19:50  18 30 35.05    -34 48 46.2   0.0115 1.0269 157.0 A   16?   2.64  36.2    6 232  16  91
   2024 07 18 20:00  18 30 36.38    -34 48 25.0   0.0115 1.0269 157.0 A   16?   2.70  38.5    4 231  16  91
   2024 07 18 20:10  18 30 37.79    -34 48 04.0   0.0115 1.0269 157.0 N   16?   2.76  40.7    2 230  15  91
   2024 07 18 20:20  18 30 39.30    -34 47 43.3   0.0115 1.0269 157.1 N   16?   2.81  42.9    1 229  15  91
   2024 07 18 20:30  18 30 40.91    -34 47 22.9   0.0115 1.0269 157.1 N   16?   2.87  44.9    0 227  15  91
   ................
   2024 07 19 07:30  18 33 03.92    -34 44 57.7   0.0115 1.0268 157.1 Cm  16?   1.06 163.9   25 116  10  94
   2024 07 19 07:40  18 33 04.11    -34 45 07.8   0.0115 1.0268 157.1 Cm  16?   1.02 170.3   26 116  10  94
   2024 07 19 07:50  18 33 04.19    -34 45 17.8   0.0115 1.0268 157.1 Nm  16?   0.99 177.0   28 115  10  94
   2024 07 19 08:00  18 33 04.18    -34 45 27.6   0.0115 1.0268 157.1 Nm  16?   0.97 184.0   30 114   9  94
   2024 07 19 08:10  18 33 04.08    -34 45 37.1   0.0115 1.0268 157.1 Nm  16?   0.96 191.2   32 113   9  94
   2024 07 19 08:20  18 33 03.88    -34 45 46.4   0.0115 1.0268 157.1 Am  16?   0.97 198.2   34 112   9  94
   2024 07 19 08:30  18 33 03.58    -34 45 55.4   0.0115 1.0268 157.1 Am  16?   0.98 205.1   36 112   9  94
   2024 07 19 08:40  18 33 03.20    -34 46 04.1   0.0115 1.0268 157.1 Am  16?   1.01 211.6   38 111   9  94
   2024 07 19 08:50  18 33 02.72    -34 46 12.5   0.0115 1.0268 157.1  m  16?   1.04 217.8   40 110   9  94
   2024 07 19 09:00  18 33 02.16    -34 46 20.5   0.0115 1.0268 157.0  m  16?   1.08 223.5   42 110   9  94
   2024 07 19 09:10  18 33 01.51    -34 46 28.1   0.0115 1.0268 157.0  m  16?   1.13 228.7   44 109   9  94
   2024 07 19 09:20  18 33 00.78    -34 46 35.3   0.0115 1.0268 157.0  m  16?   1.18 233.5   46 109   9  94
   2024 07 19 09:30  18 32 59.97    -34 46 42.1   0.0115 1.0268 157.0  m  16?   1.23 237.8   48 108   9  94
   2024 07 19 09:40  18 32 59.08    -34 46 48.4   0.0115 1.0268 157.0  m  16?   1.29 241.8   50 108   9  94
   2024 07 19 09:50  18 32 58.12    -34 46 54.2   0.0115 1.0268 157.0  m  16?   1.35 245.5   52 107   9  94
   2024 07 19 10:00  18 32 57.09    -34 46 59.4   0.0115 1.0268 157.0  m  16?   1.41 248.9   54 107   9  94
   2024 07 19 10:10  18 32 55.99    -34 47 04.2   0.0115 1.0268 157.0  m  16?   1.47 252.0   57 106   9  94
   2024 07 19 10:20  18 32 54.82    -34 47 08.4   0.0115 1.0268 157.0  m  16?   1.52 254.9   59 106   9  94
   2024 07 19 10:30  18 32 53.60    -34 47 12.0   0.0115 1.0268 157.0  m  16?   1.58 257.7   61 106   9  94
   2024 07 19 10:40  18 32 52.32    -34 47 15.0   0.0115 1.0268 157.0  m  16?   1.64 260.2   63 106   8  94
   2024 07 19 10:50  18 32 50.98    -34 47 17.4   0.0115 1.0268 156.9  m  16?   1.69 262.7   65 106   8  95
   2024 07 19 11:00  18 32 49.59    -34 47 19.2   0.0115 1.0268 156.9  m  16?   1.74 265.0   67 106   8  95
   2024 07 19 11:10  18 32 48.16    -34 47 20.3   0.0115 1.0268 156.9  m  16?   1.79 267.2   69 106   8  95
   2024 07 19 11:20  18 32 46.69    -34 47 20.8   0.0115 1.0268 156.9  m  16?   1.84 269.3   71 106   8  95
   2024 07 19 11:30  18 32 45.18    -34 47 20.6   0.0115 1.0268 156.9  m  16?   1.88 271.4   73 107   8  95
   2024 07 19 11:40  18 32 43.63    -34 47 19.8   0.0115 1.0268 156.9  m  16?   1.92 273.4   75 108   8  95
   2024 07 19 11:50  18 32 42.06    -34 47 18.2   0.0115 1.0268 156.9  m  16?   1.96 275.3   77 110   8  95
   2024 07 19 12:00  18 32 40.46    -34 47 16.0   0.0115 1.0268 156.9  m  16?   2.00 277.2   79 112   8  95
   2024 07 19 12:10  18 32 38.84    -34 47 13.0   0.0115 1.0268 156.9  m  16?   2.03 279.1   81 116   8  95
   2024 07 19 12:20  18 32 37.21    -34 47 09.4   0.0115 1.0268 156.9  m  16?   2.06 281.0   83 123   8  95
   2024 07 19 12:30  18 32 35.56    -34 47 05.0   0.0115 1.0268 156.8  m  16?   2.09 282.9   85 135   8  95
   2024 07 19 12:40  18 32 33.91    -34 46 59.9   0.0115 1.0268 156.8  m  16?   2.11 284.7   86 158   8  95
   2024 07 19 12:50  18 32 32.25    -34 46 54.1   0.0115 1.0268 156.8  t  16?   2.13 286.6   86 190   8  95
   2024 07 19 13:00  18 32 30.60    -34 46 47.6   0.0115 1.0268 156.8  m  16?   2.15 288.5   85 217   8  95
   2024 07 19 13:10  18 32 28.95    -34 46 40.3   0.0115 1.0268 156.8  m  16?   2.16 290.4   83 233   8  95
   2024 07 19 13:20  18 32 27.32    -34 46 32.4   0.0115 1.0268 156.8  m  16?   2.17 292.3   82 241   8  95
   2024 07 19 13:30  18 32 25.70    -34 46 23.7   0.0115 1.0268 156.8  m  16?   2.18 294.2   80 246   8  95
   2024 07 19 13:40  18 32 24.09    -34 46 14.3   0.0115 1.0268 156.8  m  16?   2.19 296.2   78 249   8  95
   2024 07 19 13:50  18 32 22.52    -34 46 04.3   0.0115 1.0268 156.8  m  16?   2.19 298.2   76 251   8  95
   2024 07 19 14:00  18 32 20.97    -34 45 53.5   0.0115 1.0268 156.8  m  16?   2.19 300.2   74 252   8  95
   2024 07 19 14:10  18 32 19.45    -34 45 42.1   0.0115 1.0268 156.8  m  16?   2.19 302.3   72 253   8  95
   2024 07 19 14:20  18 32 17.97    -34 45 30.0   0.0115 1.0268 156.7  m  16?   2.19 304.4   70 253   8  95
   2024 07 19 14:30  18 32 16.53    -34 45 17.2   0.0115 1.0268 156.7  m  16?   2.18 306.6   68 253   8  95
   2024 07 19 14:40  18 32 15.14    -34 45 03.8   0.0115 1.0268 156.7  m  16?   2.17 308.9   65 254   8  95
   2024 07 19 14:50  18 32 13.79    -34 44 49.8   0.0115 1.0268 156.7  m  16?   2.17 311.2   63 254   8  95
   2024 07 19 15:00  18 32 12.50    -34 44 35.2   0.0115 1.0268 156.7  m  16?   2.16 313.6   61 253   8  95
   2024 07 19 15:10  18 32 11.27    -34 44 20.0   0.0115 1.0268 156.7  m  16?   2.15 316.0   59 253   8  95
   2024 07 19 15:20  18 32 10.09    -34 44 04.1   0.0115 1.0268 156.7  m  16?   2.14 318.6   57 253   8  95
   2024 07 19 15:30  18 32 08.98    -34 43 47.8   0.0115 1.0268 156.7  m  16?   2.13 321.2   55 253   8  95
   2024 07 19 15:40  18 32 07.94    -34 43 30.9   0.0115 1.0268 156.7  m  16?   2.12 323.9   53 252   7  95
   2024 07 19 15:50  18 32 06.97    -34 43 13.5   0.0115 1.0268 156.7  m  16?   2.11 326.6   51 252   7  95
   2024 07 19 16:00  18 32 06.07    -34 42 55.6   0.0115 1.0268 156.7  m  16?   2.10 329.5   49 251   7  95
   2024 07 19 16:10  18 32 05.25    -34 42 37.2   0.0115 1.0268 156.7  m  16?   2.10 332.4   47 251   7  95
   2024 07 19 16:20  18 32 04.51    -34 42 18.4   0.0115 1.0268 156.7  m  16?   2.09 335.3   45 250   7  95
   2024 07 19 16:30  18 32 03.85    -34 41 59.1   0.0115 1.0268 156.7  m  16?   2.09 338.4   43 250   7  95
   2024 07 19 16:40  18 32 03.27    -34 41 39.5   0.0115 1.0268 156.7  m  16?   2.09 341.5   41 249   7  95
   2024 07 19 16:50  18 32 02.78    -34 41 19.5   0.0115 1.0268 156.6  m  16?   2.09 344.6   39 248   7  95
   2024 07 19 17:00  18 32 02.39    -34 40 59.2   0.0115 1.0268 156.6  m  16?   2.10 347.8   37 248   7  95
   2024 07 19 17:10  18 32 02.08    -34 40 38.5   0.0115 1.0268 156.6  m  16?   2.10 351.0   35 247   7  95
   2024 07 19 17:20  18 32 01.86    -34 40 17.6   0.0115 1.0267 156.6  m  16?   2.12 354.2   33 246   7  95
   2024 07 19 17:30  18 32 01.74    -34 39 56.4   0.0115 1.0267 156.6  m  16?   2.13 357.4   31 245   7  95
   2024 07 19 17:40  18 32 01.72    -34 39 35.0   0.0115 1.0267 156.6  m  16?   2.15   0.7   29 245   7  95
   2024 07 19 17:50  18 32 01.80    -34 39 13.4   0.0115 1.0267 156.6  m  16?   2.17   3.9   27 244   7  95
   2024 07 19 18:00  18 32 01.97    -34 38 51.7   0.0115 1.0267 156.6  m  16?   2.20   7.0   25 243   7  95
   2024 07 19 18:10  18 32 02.24    -34 38 29.8   0.0115 1.0267 156.6  m  16?   2.23  10.1   23 242   7  95
   2024 07 19 18:20  18 32 02.62    -34 38 07.8   0.0115 1.0267 156.6  m  16?   2.27  13.2   21 241   7  96
   2024 07 19 18:30  18 32 03.09    -34 37 45.7   0.0115 1.0267 156.6  m  16?   2.30  16.2   19 240   7  96
   2024 07 19 18:40  18 32 03.67    -34 37 23.6   0.0115 1.0267 156.6  m  16?   2.34  19.1   18 239   7  96
   2024 07 19 18:50  18 32 04.34    -34 37 01.5   0.0115 1.0267 156.6  m  16?   2.39  21.9   16 239   7  96
   2024 07 19 19:00  18 32 05.12    -34 36 39.4   0.0115 1.0267 156.6  m  16?   2.43  24.7   14 238   7  96
   2024 07 19 19:10  18 32 06.00    -34 36 17.3   0.0115 1.0267 156.6  m  16?   2.48  27.4   12 237   7  96
   2024 07 19 19:20  18 32 06.98    -34 35 55.3   0.0115 1.0267 156.6  m  16?   2.53  30.0   10 235   7  96
   2024 07 19 19:30  18 32 08.06    -34 35 33.5   0.0115 1.0267 156.6  m  16?   2.59  32.5    9 234   7  96
   2024 07 19 19:40  18 32 09.24    -34 35 11.8   0.0115 1.0267 156.6 Am  16?   2.64  34.9    7 233   7  96
   2024 07 19 19:50  18 32 10.51    -34 34 50.2   0.0115 1.0267 156.6 Am  16?   2.70  37.2    5 232   7  96
   2024 07 19 20:00  18 32 11.89    -34 34 28.9   0.0115 1.0267 156.6 Am  16?   2.75  39.4    3 231   7  96
   2024 07 19 20:10  18 32 13.36    -34 34 07.8   0.0115 1.0267 156.6 N   16?   2.81  41.6    2 230   7  96
   2024 07 19 20:20  18 32 14.92    -34 33 47.0   0.0115 1.0267 156.6 N   16?   2.87  43.7    0 228   7  96
   ................
   2024 07 20 07:30  18 34 41.10    -34 30 50.3   0.0115 1.0267 156.7 Cm  16?   1.03 162.9   25 116   9  98
   2024 07 20 07:40  18 34 41.29    -34 31 00.1   0.0115 1.0267 156.7 Cm  16?   0.99 169.4   27 115   9  98
   2024 07 20 07:50  18 34 41.38    -34 31 09.7   0.0115 1.0267 156.7 Nm  16?   0.95 176.4   29 114   9  98
   2024 07 20 08:00  18 34 41.38    -34 31 19.1   0.0115 1.0267 156.7 Nm  16?   0.93 183.7   31 114   9  98
   2024 07 20 08:10  18 34 41.28    -34 31 28.3   0.0115 1.0267 156.7 Nm  16?   0.92 191.1   33 113  10  98
   2024 07 20 08:20  18 34 41.09    -34 31 37.2   0.0115 1.0267 156.7 Am  16?   0.93 198.4   35 112  10  98
   2024 07 20 08:30  18 34 40.80    -34 31 45.8   0.0115 1.0267 156.7 Am  16?   0.94 205.6   37 111  10  98
   2024 07 20 08:40  18 34 40.43    -34 31 54.1   0.0115 1.0267 156.7 Am  16?   0.97 212.4   39 111  10  98
   2024 07 20 08:50  18 34 39.96    -34 32 02.1   0.0115 1.0267 156.6  m  16?   1.00 218.7   41 110  10  98
   2024 07 20 09:00  18 34 39.41    -34 32 09.7   0.0115 1.0267 156.6  m  16?   1.04 224.6   43 109  10  98
   2024 07 20 09:10  18 34 38.77    -34 32 16.9   0.0115 1.0267 156.6  m  16?   1.09 229.9   45 109  10  98
   2024 07 20 09:20  18 34 38.05    -34 32 23.7   0.0115 1.0267 156.6  m  16?   1.14 234.8   47 108  10  98
   2024 07 20 09:30  18 34 37.25    -34 32 30.0   0.0115 1.0267 156.6  m  16?   1.20 239.2   49 108  10  98
   2024 07 20 09:40  18 34 36.38    -34 32 35.9   0.0115 1.0267 156.6  m  16?   1.26 243.3   51 107  10  98
   2024 07 20 09:50  18 34 35.43    -34 32 41.3   0.0115 1.0267 156.6  m  16?   1.32 247.0   53 107  10  98
   2024 07 20 10:00  18 34 34.41    -34 32 46.1   0.0115 1.0267 156.6  m  16?   1.38 250.3   55 106  10  98
   2024 07 20 10:10  18 34 33.33    -34 32 50.4   0.0115 1.0267 156.6  m  16?   1.44 253.5   57 106  10  98
   2024 07 20 10:20  18 34 32.18    -34 32 54.2   0.0115 1.0267 156.6  m  16?   1.50 256.4   59 105  10  98
   2024 07 20 10:30  18 34 30.97    -34 32 57.4   0.0115 1.0267 156.5  m  16?   1.56 259.1   61 105  10  98
   2024 07 20 10:40  18 34 29.71    -34 33 00.0   0.0115 1.0267 156.5  m  16?   1.61 261.6   63 105  10  98
   2024 07 20 10:50  18 34 28.39    -34 33 01.9   0.0115 1.0267 156.5  m  16?   1.67 264.1   65 105  10  98
   2024 07 20 11:00  18 34 27.02    -34 33 03.3   0.0115 1.0267 156.5  m  16?   1.72 266.4   67 105  10  98
   2024 07 20 11:10  18 34 25.61    -34 33 04.0   0.0115 1.0267 156.5  m  16?   1.77 268.6   69 105  10  98
   2024 07 20 11:20  18 34 24.16    -34 33 04.0   0.0115 1.0267 156.5  m  16?   1.82 270.7   71 106  10  98
   2024 07 20 11:30  18 34 22.67    -34 33 03.4   0.0115 1.0267 156.5  m  16?   1.86 272.7   73 106  10  98
   2024 07 20 11:40  18 34 21.15    -34 33 02.1   0.0115 1.0267 156.5  m  16?   1.90 274.7   76 107  10  98
   2024 07 20 11:50  18 34 19.60    -34 33 00.1   0.0115 1.0267 156.5  m  16?   1.94 276.7   78 109  10  98
   2024 07 20 12:00  18 34 18.03    -34 32 57.4   0.0115 1.0267 156.5  m  16?   1.98 278.6   80 112  10  98
   2024 07 20 12:10  18 34 16.44    -34 32 54.0   0.0115 1.0266 156.4  m  16?   2.01 280.5   82 116  10  98
   2024 07 20 12:20  18 34 14.83    -34 32 50.0   0.0115 1.0266 156.4  m  16?   2.04 282.4   83 123  10  98
   2024 07 20 12:30  18 34 13.21    -34 32 45.2   0.0115 1.0266 156.4  m  16?   2.07 284.2   85 137  10  98
   2024 07 20 12:40  18 34 11.59    -34 32 39.6   0.0115 1.0266 156.4  m  16?   2.09 286.1   86 164  11  98
   2024 07 20 12:50  18 34 09.96    -34 32 33.4   0.0115 1.0266 156.4  t  16?   2.11 288.0   86 199  11  98
   2024 07 20 13:00  18 34 08.34    -34 32 26.5   0.0115 1.0266 156.4  m  16?   2.13 289.8   85 224  11  98
   2024 07 20 13:10  18 34 06.72    -34 32 18.8   0.0115 1.0266 156.4  m  16?   2.14 291.7   83 237  11  98
   2024 07 20 13:20  18 34 05.12    -34 32 10.4   0.0115 1.0266 156.4  m  16?   2.16 293.6   81 244  11  98
   2024 07 20 13:30  18 34 03.53    -34 32 01.4   0.0115 1.0266 156.4  m  16?   2.17 295.6   79 248  11  98
   2024 07 20 13:40  18 34 01.97    -34 31 51.6   0.0115 1.0266 156.4  m  16?   2.17 297.6   77 250  11  98
   2024 07 20 13:50  18 34 00.43    -34 31 41.1   0.0115 1.0266 156.4  m  16?   2.17 299.6   75 252  11  98
   2024 07 20 14:00  18 33 58.91    -34 31 30.0   0.0115 1.0266 156.3  m  16?   2.18 301.6   73 253  11  98
   2024 07 20 14:10  18 33 57.44    -34 31 18.2   0.0115 1.0266 156.3  m  16?   2.18 303.7   71 254  11  98
   2024 07 20 14:20  18 33 56.00    -34 31 05.7   0.0115 1.0266 156.3  m  16?   2.17 305.9   69 254  11  98
   2024 07 20 14:30  18 33 54.60    -34 30 52.5   0.0115 1.0266 156.3  m  16?   2.17 308.1   67 254  11  98
   2024 07 20 14:40  18 33 53.24    -34 30 38.8   0.0115 1.0266 156.3  m  16?   2.16 310.4   65 254  11  98
   2024 07 20 14:50  18 33 51.94    -34 30 24.4   0.0115 1.0266 156.3  m  16?   2.16 312.8   63 254  11  98
   2024 07 20 15:00  18 33 50.69    -34 30 09.4   0.0115 1.0266 156.3  m  16?   2.15 315.2   61 254  11  98
   2024 07 20 15:10  18 33 49.50    -34 29 53.8   0.0115 1.0266 156.3  m  16?   2.14 317.6   59 254  11  98
   2024 07 20 15:20  18 33 48.37    -34 29 37.6   0.0115 1.0266 156.3  m  16?   2.13 320.2   57 253  11  98
   2024 07 20 15:30  18 33 47.31    -34 29 20.9   0.0115 1.0266 156.3  m  16?   2.12 322.8   55 253  12  98
   2024 07 20 15:40  18 33 46.31    -34 29 03.7   0.0115 1.0266 156.3  m  16?   2.12 325.5   53 252  12  98
   2024 07 20 15:50  18 33 45.38    -34 28 46.0   0.0115 1.0266 156.3  m  16?   2.11 328.3   51 252  12  98
   2024 07 20 16:00  18 33 44.53    -34 28 27.7   0.0115 1.0266 156.3  m  16?   2.10 331.2   49 251  12  98
   2024 07 20 16:10  18 33 43.75    -34 28 09.1   0.0115 1.0266 156.3  m  16?   2.10 334.1   46 251  12  98
   2024 07 20 16:20  18 33 43.06    -34 27 49.9   0.0115 1.0266 156.2  m  16?   2.10 337.1   44 250  12  99
   2024 07 20 16:30  18 33 42.45    -34 27 30.4   0.0115 1.0266 156.2  m  16?   2.09 340.1   42 250  12  99
   2024 07 20 16:40  18 33 41.92    -34 27 10.5   0.0115 1.0266 156.2  m  16?   2.10 343.2   40 249  12  99
   2024 07 20 16:50  18 33 41.48    -34 26 50.2   0.0115 1.0266 156.2  m  16?   2.10 346.4   38 248  12  99
   2024 07 20 17:00  18 33 41.13    -34 26 29.6   0.0115 1.0266 156.2  m  16?   2.11 349.5   36 248  12  99
   2024 07 20 17:10  18 33 40.87    -34 26 08.7   0.0115 1.0266 156.2  m  16?   2.12 352.7   34 247  12  99
   2024 07 20 17:20  18 33 40.71    -34 25 47.5   0.0115 1.0266 156.2  m  16?   2.14 355.9   32 246  12  99
   2024 07 20 17:30  18 33 40.64    -34 25 26.1   0.0115 1.0266 156.2  m  16?   2.15 359.1   30 246  12  99
   2024 07 20 17:40  18 33 40.67    -34 25 04.4   0.0115 1.0266 156.2  m  16?   2.18   2.3   29 245  12  99
   2024 07 20 17:50  18 33 40.79    -34 24 42.6   0.0115 1.0266 156.2  m  16?   2.20   5.5   27 244  13  99
   2024 07 20 18:00  18 33 41.02    -34 24 20.6   0.0115 1.0266 156.2  m  16?   2.23   8.6   25 243  13  99
   2024 07 20 18:10  18 33 41.34    -34 23 58.5   0.0115 1.0266 156.2  m  16?   2.26  11.6   23 242  13  99
   2024 07 20 18:20  18 33 41.77    -34 23 36.3   0.0115 1.0266 156.2  m  16?   2.30  14.6   21 241  13  99
   2024 07 20 18:30  18 33 42.29    -34 23 14.0   0.0115 1.0266 156.2  m  16?   2.34  17.5   19 240  13  99
   2024 07 20 18:40  18 33 42.92    -34 22 51.7   0.0115 1.0266 156.2  m  16?   2.38  20.4   17 239  13  99
   2024 07 20 18:50  18 33 43.64    -34 22 29.4   0.0115 1.0266 156.2  m  16?   2.43  23.2   15 239  13  99
   2024 07 20 19:00  18 33 44.47    -34 22 07.1   0.0115 1.0266 156.2  m  16?   2.48  25.9   13 238  13  99
   2024 07 20 19:10  18 33 45.40    -34 21 44.9   0.0115 1.0266 156.2  m  16?   2.53  28.5   12 236  13  99
   2024 07 20 19:20  18 33 46.43    -34 21 22.8   0.0115 1.0266 156.2  m  16?   2.58  31.0   10 235  13  99
   2024 07 20 19:30  18 33 47.56    -34 21 00.7   0.0115 1.0266 156.2  m  16?   2.64  33.5    8 234  13  99
   2024 07 20 19:40  18 33 48.79    -34 20 38.9   0.0115 1.0266 156.2 Am  16?   2.69  35.8    6 233  13  99
   2024 07 20 19:50  18 33 50.11    -34 20 17.2   0.0115 1.0266 156.2 Am  16?   2.75  38.1    5 232  14  99
   2024 07 20 20:00  18 33 51.53    -34 19 55.7   0.0115 1.0266 156.2 Am  16?   2.81  40.3    3 231  14  99
   2024 07 20 20:10  18 33 53.05    -34 19 34.5   0.0115 1.0266 156.2 Nm  16?   2.87  42.4    1 230  14  99
   2024 07 20 20:20  18 33 54.66    -34 19 13.5   0.0115 1.0266 156.2 Nm  16?   2.92  44.4    0 228  14  99
   ................
   2024 07 21 07:30  18 36 22.20    -34 16 05.4   0.0115 1.0265 156.3 Cm  16?   1.00 162.0   25 115  21  99
   2024 07 21 07:40  18 36 22.40    -34 16 14.8   0.0115 1.0265 156.3 Cm  16?   0.95 168.7   27 115  21  99
   2024 07 21 07:50  18 36 22.50    -34 16 24.1   0.0115 1.0265 156.3 Nm  16?   0.92 175.9   29 114  21  99
   2024 07 21 08:00  18 36 22.50    -34 16 33.1   0.0115 1.0265 156.3 Nm  16?   0.89 183.5   31 113  21  99
   2024 07 21 08:10  18 36 22.41    -34 16 41.9   0.0115 1.0265 156.3 Nm  16?   0.88 191.2   33 112  21  99
   2024 07 21 08:20  18 36 22.22    -34 16 50.4   0.0115 1.0265 156.3 Am  16?   0.89 198.9   35 112  21  99
   2024 07 21 08:30  18 36 21.94    -34 16 58.7   0.0115 1.0265 156.2 Am  16?   0.90 206.3   37 111  21  99
   2024 07 21 08:40  18 36 21.57    -34 17 06.6   0.0115 1.0265 156.2 Am  16?   0.93 213.4   39 110  21  99
   2024 07 21 08:50  18 36 21.11    -34 17 14.2   0.0115 1.0265 156.2  m  16?   0.97 219.9   41 109  22  99
   2024 07 21 09:00  18 36 20.56    -34 17 21.4   0.0115 1.0265 156.2  m  16?   1.01 225.9   43 109  22  99
   2024 07 21 09:10  18 36 19.94    -34 17 28.2   0.0115 1.0265 156.2  m  16?   1.06 231.4   45 108  22  99
   2024 07 21 09:20  18 36 19.23    -34 17 34.5   0.0115 1.0265 156.2  m  16?   1.11 236.3   47 108  22  99
   2024 07 21 09:30  18 36 18.44    -34 17 40.5   0.0115 1.0265 156.2  m  16?   1.17 240.8   49 107  22  99
   2024 07 21 09:40  18 36 17.57    -34 17 45.9   0.0115 1.0265 156.2  m  16?   1.23 244.8   51 107  22  99
   2024 07 21 09:50  18 36 16.63    -34 17 50.8   0.0115 1.0265 156.2  m  16?   1.29 248.5   53 106  22  99
   2024 07 21 10:00  18 36 15.63    -34 17 55.3   0.0114 1.0265 156.2  m  16?   1.35 251.9   55 106  22  99
   2024 07 21 10:10  18 36 14.55    -34 17 59.2   0.0114 1.0265 156.2  m  16?   1.42 255.0   57 105  22  99
   2024 07 21 10:20  18 36 13.42    -34 18 02.5   0.0114 1.0265 156.2  m  16?   1.48 257.9   59 105  22  99
   2024 07 21 10:30  18 36 12.22    -34 18 05.2   0.0114 1.0265 156.1  m  16?   1.54 260.6   62 105  22  99
   2024 07 21 10:40  18 36 10.97    -34 18 07.4   0.0114 1.0265 156.1  m  16?   1.59 263.1   64 104  22  99
   2024 07 21 10:50  18 36 09.67    -34 18 08.9   0.0114 1.0265 156.1  m  16?   1.65 265.5   66 104  22  99
   2024 07 21 11:00  18 36 08.32    -34 18 09.8   0.0114 1.0265 156.1  m  16?   1.70 267.8   68 104  23  99
   2024 07 21 11:10  18 36 06.93    -34 18 10.1   0.0114 1.0265 156.1  m  16?   1.75 270.0   70 104  23  99
   2024 07 21 11:20  18 36 05.50    -34 18 09.7   0.0114 1.0265 156.1  m  16?   1.80 272.1   72 105  23  99
   2024 07 21 11:30  18 36 04.03    -34 18 08.7   0.0114 1.0265 156.1  m  16?   1.85 274.1   74 106  23  99
   2024 07 21 11:40  18 36 02.53    -34 18 06.9   0.0114 1.0265 156.1  m  16?   1.89 276.1   76 107  23  99
   2024 07 21 11:50  18 36 01.00    -34 18 04.5   0.0114 1.0265 156.1  m  16?   1.93 278.0   78 108  23  99
   2024 07 21 12:00  18 35 59.45    -34 18 01.4   0.0114 1.0265 156.1  m  16?   1.96 279.9   80 111  23  99
   2024 07 21 12:10  18 35 57.88    -34 17 57.6   0.0114 1.0265 156.0  m  16?   2.00 281.8   82 116  23  99
   2024 07 21 12:20  18 35 56.29    -34 17 53.1   0.0114 1.0265 156.0  m  16?   2.03 283.7   84 124  23  99
   2024 07 21 12:30  18 35 54.70    -34 17 47.9   0.0114 1.0265 156.0  m  16?   2.05 285.5   86 140  23  99
   2024 07 21 12:40  18 35 53.10    -34 17 41.9   0.0114 1.0265 156.0  m  16?   2.08 287.4   86 171  23  99
   2024 07 21 12:50  18 35 51.51    -34 17 35.3   0.0114 1.0265 156.0  t  16?   2.10 289.3   86 208  23  99
   2024 07 21 13:00  18 35 49.91    -34 17 27.9   0.0114 1.0265 156.0  m  16?   2.12 291.2   85 230  23  99
   2024 07 21 13:10  18 35 48.32    -34 17 19.8   0.0114 1.0265 156.0  m  16?   2.13 293.1   83 241  23  99
   2024 07 21 13:20  18 35 46.75    -34 17 11.1   0.0114 1.0265 156.0  m  16?   2.14 295.0   81 246  24  99
   2024 07 21 13:30  18 35 45.20    -34 17 01.6   0.0114 1.0265 156.0  m  16?   2.15 296.9   79 250  24  99
   2024 07 21 13:40  18 35 43.66    -34 16 51.4   0.0114 1.0265 156.0  m  16?   2.16 298.9   77 252  24  99
   2024 07 21 13:50  18 35 42.15    -34 16 40.5   0.0114 1.0265 155.9  m  16?   2.16 300.9   75 253  24  99
   2024 07 21 14:00  18 35 40.67    -34 16 29.0   0.0114 1.0265 155.9  m  16?   2.17 303.0   73 254  24  99
   2024 07 21 14:10  18 35 39.23    -34 16 16.8   0.0114 1.0265 155.9  m  16?   2.17 305.1   71 254  24  99
   2024 07 21 14:20  18 35 37.82    -34 16 03.9   0.0114 1.0265 155.9  m  16?   2.16 307.3   69 255  24  99
   2024 07 21 14:30  18 35 36.46    -34 15 50.4   0.0114 1.0265 155.9  m  16?   2.16 309.6   67 255  24  99
   2024 07 21 14:40  18 35 35.15    -34 15 36.3   0.0114 1.0265 155.9  m  16?   2.16 311.9   65 255  24  99
   2024 07 21 14:50  18 35 33.88    -34 15 21.5   0.0114 1.0265 155.9  m  16?   2.15 314.2   62 255  24  99
   2024 07 21 15:00  18 35 32.67    -34 15 06.2   0.0114 1.0265 155.9  m  16?   2.14 316.7   60 254  24  99
   2024 07 21 15:10  18 35 31.52    -34 14 50.2   0.0114 1.0265 155.9  m  16?   2.14 319.2   58 254  24  99
   2024 07 21 15:20  18 35 30.43    -34 14 33.7   0.0114 1.0265 155.9  m  16?   2.13 321.7   56 254  24  99
   2024 07 21 15:30  18 35 29.40    -34 14 16.7   0.0114 1.0265 155.9  m  16?   2.12 324.4   54 253  24  99
   2024 07 21 15:40  18 35 28.45    -34 13 59.1   0.0114 1.0265 155.9  m  16?   2.12 327.1   52 253  25  99
   2024 07 21 15:50  18 35 27.56    -34 13 41.1   0.0114 1.0265 155.9  m  16?   2.11 329.9   50 252  25  99
   2024 07 21 16:00  18 35 26.75    -34 13 22.6   0.0114 1.0265 155.8  m  16?   2.11 332.8   48 252  25  99
   2024 07 21 16:10  18 35 26.02    -34 13 03.6   0.0114 1.0265 155.8  m  16?   2.10 335.7   46 251  25  99
   2024 07 21 16:20  18 35 25.37    -34 12 44.1   0.0114 1.0265 155.8  m  16?   2.10 338.7   44 251  25  99
   2024 07 21 16:30  18 35 24.80    -34 12 24.3   0.0114 1.0265 155.8  m  16?   2.11 341.7   42 250  25  99
   2024 07 21 16:40  18 35 24.32    -34 12 04.1   0.0114 1.0265 155.8  m  16?   2.11 344.8   40 249  25  99
   2024 07 21 16:50  18 35 23.93    -34 11 43.6   0.0115 1.0265 155.8  m  16?   2.12 348.0   38 249  25  99
   2024 07 21 17:00  18 35 23.62    -34 11 22.7   0.0115 1.0265 155.8  m  16?   2.13 351.1   36 248  25  99
   2024 07 21 17:10  18 35 23.41    -34 11 01.5   0.0115 1.0265 155.8  m  16?   2.14 354.3   34 247  25  99
   2024 07 21 17:20  18 35 23.29    -34 10 40.1   0.0115 1.0265 155.8  m  16?   2.16 357.4   32 246  25  99
   2024 07 21 17:30  18 35 23.27    -34 10 18.4   0.0115 1.0265 155.8  m  16?   2.18   0.7   30 246  25  99
   2024 07 21 17:40  18 35 23.34    -34 09 56.5   0.0115 1.0265 155.8  m  16?   2.20   3.8   28 245  25  99
   2024 07 21 17:50  18 35 23.51    -34 09 34.4   0.0115 1.0265 155.8  m  16?   2.23   6.9   26 244  25  99
   2024 07 21 18:00  18 35 23.79    -34 09 12.2   0.0115 1.0265 155.8  m  16?   2.26   9.9   24 243  26  99
   2024 07 21 18:10  18 35 24.16    -34 08 49.9   0.0115 1.0265 155.8  m  16?   2.30  13.0   22 242  26  99
   2024 07 21 18:20  18 35 24.63    -34 08 27.5   0.0115 1.0265 155.8  m  16?   2.34  15.9   20 241  26  99
   2024 07 21 18:30  18 35 25.20    -34 08 05.0   0.0115 1.0265 155.8  m  16?   2.38  18.8   18 240  26  99
   2024 07 21 18:40  18 35 25.87    -34 07 42.5   0.0115 1.0265 155.8  m  16?   2.42  21.6   17 240  26  99
   2024 07 21 18:50  18 35 26.64    -34 07 20.0   0.0115 1.0265 155.8  m  16?   2.47  24.3   15 239  26  99
   2024 07 21 19:00  18 35 27.52    -34 06 57.5   0.0115 1.0265 155.8  m  16?   2.52  26.9   13 238  26  99
   2024 07 21 19:10  18 35 28.49    -34 06 35.1   0.0115 1.0265 155.8  m  16?   2.57  29.5   11 236  26  99
   2024 07 21 19:20  18 35 29.57    -34 06 12.8   0.0115 1.0265 155.8  m  16?   2.63  32.0    9 235  26  99
   2024 07 21 19:30  18 35 30.74    -34 05 50.6   0.0115 1.0265 155.8  m  16?   2.68  34.4    8 234  26  99
   2024 07 21 19:40  18 35 32.02    -34 05 28.6   0.0115 1.0265 155.8 Am  16?   2.74  36.7    6 233  26  99
   2024 07 21 19:50  18 35 33.39    -34 05 06.8   0.0115 1.0265 155.8 Am  16?   2.80  38.9    4 232  27  99
   2024 07 21 20:00  18 35 34.85    -34 04 45.2   0.0115 1.0265 155.8 Am  16?   2.86  41.0    2 231  27  99
   2024 07 21 20:10  18 35 36.41    -34 04 23.8   0.0115 1.0265 155.8 Nm  16?   2.92  43.1    1 230  27  99
   2024 07 21 20:20  18 35 38.07    -34 04 02.7   0.0115 1.0265 155.8 Nm  16?   2.98  45.1    0 228  27  99
   ................
   2024 07 22 07:30  18 38 06.77    -34 00 42.8   0.0114 1.0264 155.9 C   16?   0.96 161.2   26 115  34  98
   2024 07 22 07:40  18 38 06.97    -34 00 51.8   0.0114 1.0264 155.9 C   16?   0.91 168.1   28 114  34  98
   2024 07 22 07:50  18 38 07.07    -34 01 00.7   0.0114 1.0264 155.9 N   16?   0.88 175.6   29 113  35  98
   2024 07 22 08:00  18 38 07.08    -34 01 09.4   0.0114 1.0264 155.9 N   16?   0.86 183.5   31 113  35  98
   2024 07 22 08:10  18 38 06.98    -34 01 17.8   0.0114 1.0264 155.9 Nm  16?   0.85 191.6   33 112  35  98
   2024 07 22 08:20  18 38 06.80    -34 01 25.9   0.0114 1.0264 155.9 Am  16?   0.85 199.6   35 111  35  98
   2024 07 22 08:30  18 38 06.52    -34 01 33.8   0.0114 1.0264 155.8 Am  16?   0.87 207.3   37 110  35  98
   2024 07 22 08:40  18 38 06.15    -34 01 41.3   0.0114 1.0264 155.8 Am  16?   0.90 214.6   39 110  35  98
   2024 07 22 08:50  18 38 05.70    -34 01 48.5   0.0114 1.0264 155.8  m  16?   0.93 221.4   41 109  35  98
   2024 07 22 09:00  18 38 05.16    -34 01 55.3   0.0114 1.0264 155.8  m  16?   0.98 227.5   43 108  35  98
   2024 07 22 09:10  18 38 04.53    -34 02 01.7   0.0114 1.0264 155.8  m  16?   1.03 233.0   45 108  35  98
   2024 07 22 09:20  18 38 03.83    -34 02 07.6   0.0114 1.0264 155.8  m  16?   1.09 238.0   48 107  35  98
   2024 07 22 09:30  18 38 03.05    -34 02 13.1   0.0114 1.0264 155.8  m  16?   1.15 242.5   50 107  36  98
   2024 07 22 09:40  18 38 02.19    -34 02 18.1   0.0114 1.0264 155.8  m  16?   1.21 246.5   52 106  36  98
   2024 07 22 09:50  18 38 01.26    -34 02 22.7   0.0114 1.0264 155.8  m  16?   1.27 250.2   54 106  36  98
   2024 07 22 10:00  18 38 00.26    -34 02 26.7   0.0114 1.0264 155.8  m  16?   1.34 253.5   56 105  36  98
   2024 07 22 10:10  18 37 59.20    -34 02 30.1   0.0114 1.0264 155.8  m  16?   1.40 256.6   58 105  36  98
   2024 07 22 10:20  18 37 58.07    -34 02 33.0   0.0114 1.0264 155.7  m  16?   1.46 259.5   60 104  36  98
   2024 07 22 10:30  18 37 56.89    -34 02 35.4   0.0114 1.0264 155.7  m  16?   1.52 262.1   62 104  36  98
   2024 07 22 10:40  18 37 55.65    -34 02 37.1   0.0114 1.0264 155.7  m  16?   1.58 264.6   64 104  36  98
   2024 07 22 10:50  18 37 54.36    -34 02 38.2   0.0114 1.0264 155.7  m  16?   1.63 267.0   66 104  36  98
   2024 07 22 11:00  18 37 53.02    -34 02 38.7   0.0114 1.0264 155.7  m  16?   1.69 269.2   68 104  36  98
   2024 07 22 11:10  18 37 51.64    -34 02 38.5   0.0114 1.0264 155.7  m  16?   1.74 271.4   70 104  36  98
   2024 07 22 11:20  18 37 50.22    -34 02 37.7   0.0114 1.0264 155.7  m  16?   1.79 273.5   72 104  37  98
   2024 07 22 11:30  18 37 48.77    -34 02 36.2   0.0114 1.0264 155.7  m  16?   1.84 275.5   74 105  37  98
   2024 07 22 11:40  18 37 47.29    -34 02 34.0   0.0114 1.0264 155.7  m  16?   1.88 277.4   77 106  37  98
   2024 07 22 11:50  18 37 45.78    -34 02 31.2   0.0114 1.0264 155.7  m  16?   1.92 279.4   79 107  37  98
   2024 07 22 12:00  18 37 44.25    -34 02 27.6   0.0114 1.0264 155.6  m  16?   1.95 281.3   81 110  37  98
   2024 07 22 12:10  18 37 42.70    -34 02 23.4   0.0114 1.0264 155.6  m  16?   1.99 283.1   83 115  37  98
   2024 07 22 12:20  18 37 41.13    -34 02 18.5   0.0114 1.0264 155.6  m  16?   2.02 285.0   84 124  37  98
   2024 07 22 12:30  18 37 39.56    -34 02 12.8   0.0114 1.0264 155.6  m  16?   2.05 286.8   86 143  37  98
   2024 07 22 12:40  18 37 37.99    -34 02 06.4   0.0114 1.0264 155.6  t  16?   2.07 288.7   87 180  37  98
   2024 07 22 12:50  18 37 36.41    -34 01 59.4   0.0114 1.0264 155.6  m  16?   2.09 290.6   86 217  37  98
   2024 07 22 13:00  18 37 34.84    -34 01 51.6   0.0114 1.0264 155.6  m  16?   2.11 292.4   84 235  37  98
   2024 07 22 13:10  18 37 33.28    -34 01 43.1   0.0114 1.0264 155.6  m  16?   2.12 294.3   83 244  37  98
   2024 07 22 13:20  18 37 31.73    -34 01 33.9   0.0114 1.0264 155.6  m  16?   2.14 296.3   81 249  37  98
   2024 07 22 13:30  18 37 30.21    -34 01 24.1   0.0114 1.0264 155.6  m  16?   2.15 298.2   79 252  38  98
   2024 07 22 13:40  18 37 28.70    -34 01 13.5   0.0114 1.0264 155.6  m  16?   2.15 300.2   77 253  38  98
   2024 07 22 13:50  18 37 27.22    -34 01 02.2   0.0114 1.0264 155.5  m  16?   2.16 302.3   74 254  38  97
   2024 07 22 14:00  18 37 25.77    -34 00 50.3   0.0114 1.0264 155.5  m  16?   2.16 304.3   72 255  38  97
   2024 07 22 14:10  18 37 24.36    -34 00 37.7   0.0114 1.0264 155.5  m  16?   2.16 306.5   70 255  38  97
   2024 07 22 14:20  18 37 22.99    -34 00 24.5   0.0114 1.0264 155.5  m  16?   2.16 308.7   68 255  38  97
   2024 07 22 14:30  18 37 21.66    -34 00 10.6   0.0114 1.0264 155.5  m  16?   2.16 310.9   66 255  38  97
   2024 07 22 14:40  18 37 20.37    -33 59 56.1   0.0114 1.0264 155.5  m  16?   2.15 313.2   64 255  38  97
   2024 07 22 14:50  18 37 19.14    -33 59 41.0   0.0114 1.0264 155.5  m  16?   2.15 315.6   62 255  38  97
   2024 07 22 15:00  18 37 17.97    -33 59 25.3   0.0114 1.0264 155.5  m  16?   2.14 318.1   60 255  38  97
   2024 07 22 15:10  18 37 16.85    -33 59 09.0   0.0114 1.0264 155.5  m  16?   2.14 320.6   58 254  38  97
   2024 07 22 15:20  18 37 15.80    -33 58 52.2   0.0114 1.0264 155.5  m  16?   2.13 323.2   56 254  38  97
   2024 07 22 15:30  18 37 14.81    -33 58 34.8   0.0114 1.0264 155.5  m  16?   2.13 325.8   54 254  38  97
   2024 07 22 15:40  18 37 13.89    -33 58 16.9   0.0114 1.0264 155.5  m  16?   2.12 328.6   52 253  38  97
   2024 07 22 15:50  18 37 13.04    -33 57 58.5   0.0114 1.0264 155.5  m  16?   2.12 331.4   50 253  39  97
   2024 07 22 16:00  18 37 12.27    -33 57 39.7   0.0114 1.0264 155.4  m  16?   2.11 334.3   48 252  39  97
   2024 07 22 16:10  18 37 11.58    -33 57 20.4   0.0114 1.0264 155.4  m  16?   2.11 337.2   45 251  39  97
   2024 07 22 16:20  18 37 10.97    -33 57 00.7   0.0114 1.0264 155.4  m  16?   2.11 340.2   43 251  39  97
   2024 07 22 16:30  18 37 10.44    -33 56 40.5   0.0114 1.0264 155.4  m  16?   2.12 343.2   41 250  39  97
   2024 07 22 16:40  18 37 10.00    -33 56 20.1   0.0114 1.0264 155.4  m  16?   2.12 346.3   39 249  39  97
   2024 07 22 16:50  18 37 09.65    -33 55 59.2   0.0114 1.0264 155.4  m  16?   2.13 349.4   37 249  39  97
   2024 07 22 17:00  18 37 09.38    -33 55 38.1   0.0114 1.0264 155.4  m  16?   2.15 352.6   35 248  39  97
   2024 07 22 17:10  18 37 09.21    -33 55 16.7   0.0114 1.0264 155.4  m  16?   2.16 355.7   33 247  39  97
   2024 07 22 17:20  18 37 09.14    -33 54 55.0   0.0114 1.0263 155.4  m  16?   2.18 358.8   31 247  39  97
   2024 07 22 17:30  18 37 09.16    -33 54 33.0   0.0114 1.0263 155.4  m  16?   2.20   2.0   29 246  39  97
   2024 07 22 17:40  18 37 09.27    -33 54 10.9   0.0114 1.0263 155.4  m  16?   2.23   5.1   27 245  39  97
   2024 07 22 17:50  18 37 09.49    -33 53 48.6   0.0114 1.0263 155.4  m  16?   2.26   8.2   26 244  39  97
   2024 07 22 18:00  18 37 09.80    -33 53 26.2   0.0114 1.0263 155.4  m  16?   2.29  11.2   24 243  39  97
   2024 07 22 18:10  18 37 10.21    -33 53 03.6   0.0114 1.0263 155.4  m  16?   2.33  14.2   22 242  40  97
   2024 07 22 18:20  18 37 10.73    -33 52 41.0   0.0114 1.0263 155.4  m  16?   2.37  17.0   20 241  40  97
   2024 07 22 18:30  18 37 11.34    -33 52 18.3   0.0114 1.0263 155.4  m  16?   2.42  19.9   18 241  40  97
   2024 07 22 18:40  18 37 12.06    -33 51 55.6   0.0114 1.0263 155.4  m  16?   2.46  22.6   16 240  40  97
   2024 07 22 18:50  18 37 12.87    -33 51 32.9   0.0114 1.0263 155.4  m  16?   2.51  25.3   14 239  40  97
   2024 07 22 19:00  18 37 13.79    -33 51 10.3   0.0114 1.0263 155.4  m  16?   2.56  27.9   12 238  40  97
   2024 07 22 19:10  18 37 14.81    -33 50 47.7   0.0114 1.0263 155.4  m  16?   2.62  30.4   11 236  40  97
   2024 07 22 19:20  18 37 15.92    -33 50 25.2   0.0114 1.0263 155.4  m  16?   2.67  32.8    9 235  40  97
   2024 07 22 19:30  18 37 17.14    -33 50 02.9   0.0114 1.0263 155.4  m  16?   2.73  35.1    7 234  40  97
   2024 07 22 19:40  18 37 18.46    -33 49 40.7   0.0114 1.0263 155.4 Am  16?   2.79  37.4    5 233  40  97
   2024 07 22 19:50  18 37 19.87    -33 49 18.7   0.0114 1.0263 155.4 Am  16?   2.85  39.6    4 232  40  97
   2024 07 22 20:00  18 37 21.38    -33 48 57.0   0.0114 1.0263 155.4 Am  16?   2.91  41.7    2 231  40  97
   2024 07 22 20:10  18 37 22.98    -33 48 35.4   0.0114 1.0263 155.4 Nm  16?   2.97  43.7    0 229  41  97
   ................
   2024 07 23 07:30  18 39 54.35    -33 44 42.1   0.0114 1.0263 155.5 C   16?   0.93 160.5   26 115  48  94
   2024 07 23 07:40  18 39 54.55    -33 44 50.7   0.0114 1.0263 155.5 C   16?   0.88 167.7   28 114  48  94
   2024 07 23 07:50  18 39 54.64    -33 44 59.2   0.0114 1.0263 155.5 N   16?   0.84 175.5   30 113  48  94
   2024 07 23 08:00  18 39 54.65    -33 45 07.5   0.0114 1.0263 155.5 N   16?   0.82 183.7   32 112  49  94
   2024 07 23 08:10  18 39 54.55    -33 45 15.5   0.0114 1.0263 155.5 N   16?   0.81 192.2   34 111  49  94
   2024 07 23 08:20  18 39 54.37    -33 45 23.3   0.0114 1.0263 155.5 A   16?   0.81 200.6   36 111  49  94
   2024 07 23 08:30  18 39 54.09    -33 45 30.7   0.0114 1.0263 155.5 A   16?   0.83 208.6   38 110  49  94
   2024 07 23 08:40  18 39 53.73    -33 45 37.9   0.0114 1.0263 155.4 A   16?   0.86 216.2   40 109  49  94
   2024 07 23 08:50  18 39 53.27    -33 45 44.6   0.0114 1.0263 155.4     16?   0.90 223.1   42 109  49  94
   2024 07 23 09:00  18 39 52.73    -33 45 51.0   0.0114 1.0263 155.4     16?   0.95 229.3   44 108  49  94
   2024 07 23 09:10  18 39 52.11    -33 45 57.0   0.0114 1.0263 155.4     16?   1.01 234.9   46 107  49  94
   2024 07 23 09:20  18 39 51.41    -33 46 02.5   0.0114 1.0263 155.4  m  16?   1.07 239.9   48 107  49  94
   2024 07 23 09:30  18 39 50.63    -33 46 07.6   0.0114 1.0263 155.4  m  16?   1.13 244.3   50 106  50  94
   2024 07 23 09:40  18 39 49.78    -33 46 12.2   0.0114 1.0263 155.4  m  16?   1.19 248.3   52 106  50  94
   2024 07 23 09:50  18 39 48.85    -33 46 16.3   0.0114 1.0263 155.4  m  16?   1.26 252.0   54 105  50  94
   2024 07 23 10:00  18 39 47.86    -33 46 19.9   0.0114 1.0262 155.4  m  16?   1.32 255.3   56 105  50  94
   2024 07 23 10:10  18 39 46.80    -33 46 22.9   0.0114 1.0262 155.4  m  16?   1.38 258.3   58 104  50  94
   2024 07 23 10:20  18 39 45.68    -33 46 25.4   0.0114 1.0262 155.4  m  16?   1.45 261.1   60 104  50  94
   2024 07 23 10:30  18 39 44.51    -33 46 27.3   0.0114 1.0262 155.3  m  16?   1.51 263.7   62 103  50  94
   2024 07 23 10:40  18 39 43.28    -33 46 28.6   0.0114 1.0262 155.3  m  16?   1.57 266.2   64 103  50  94
   2024 07 23 10:50  18 39 42.00    -33 46 29.3   0.0114 1.0262 155.3  m  16?   1.63 268.5   67 103  50  93
   2024 07 23 11:00  18 39 40.67    -33 46 29.3   0.0114 1.0262 155.3  m  16?   1.68 270.7   69 103  50  93
   2024 07 23 11:10  18 39 39.30    -33 46 28.7   0.0114 1.0262 155.3  m  16?   1.73 272.8   71 103  51  93
   2024 07 23 11:20  18 39 37.90    -33 46 27.5   0.0114 1.0262 155.3  m  16?   1.78 274.9   73 103  51  93
   2024 07 23 11:30  18 39 36.46    -33 46 25.5   0.0114 1.0262 155.3  m  16?   1.83 276.9   75 104  51  93
   2024 07 23 11:40  18 39 34.99    -33 46 22.9   0.0114 1.0262 155.3  m  16?   1.87 278.8   77 105  51  93
   2024 07 23 11:50  18 39 33.49    -33 46 19.7   0.0114 1.0262 155.3  m  16?   1.91 280.7   79 106  51  93
   2024 07 23 12:00  18 39 31.98    -33 46 15.7   0.0114 1.0262 155.3  m  16?   1.95 282.6   81 109  51  93
   2024 07 23 12:10  18 39 30.44    -33 46 11.0   0.0114 1.0262 155.2  m  16?   1.98 284.4   83 114  51  93
   2024 07 23 12:20  18 39 28.90    -33 46 05.7   0.0114 1.0262 155.2  m  16?   2.01 286.3   85 124  51  93
   2024 07 23 12:30  18 39 27.35    -33 45 59.6   0.0114 1.0262 155.2  m  16?   2.04 288.1   87 146  51  93
   2024 07 23 12:40  18 39 25.79    -33 45 52.8   0.0114 1.0262 155.2  t  16?   2.07 290.0   87 190  51  93
   2024 07 23 12:50  18 39 24.24    -33 45 45.3   0.0114 1.0262 155.2  m  16?   2.09 291.8   86 225  51  93
   2024 07 23 13:00  18 39 22.69    -33 45 37.2   0.0114 1.0262 155.2  m  16?   2.11 293.7   84 240  51  93
   2024 07 23 13:10  18 39 21.15    -33 45 28.3   0.0114 1.0262 155.2  m  16?   2.12 295.6   82 247  52  93
   2024 07 23 13:20  18 39 19.63    -33 45 18.7   0.0114 1.0262 155.2  m  16?   2.13 297.5   80 251  52  93
   2024 07 23 13:30  18 39 18.12    -33 45 08.4   0.0114 1.0262 155.2  m  16?   2.14 299.5   78 253  52  93
   2024 07 23 13:40  18 39 16.64    -33 44 57.4   0.0114 1.0262 155.2  m  16?   2.15 301.5   76 255  52  93
   2024 07 23 13:50  18 39 15.19    -33 44 45.8   0.0114 1.0262 155.1  m  16?   2.16 303.5   74 256  52  93
   2024 07 23 14:00  18 39 13.76    -33 44 33.5   0.0114 1.0262 155.1  m  16?   2.16 305.6   72 256  52  93
   2024 07 23 14:10  18 39 12.38    -33 44 20.5   0.0114 1.0262 155.1  m  16?   2.16 307.8   70 256  52  93
   2024 07 23 14:20  18 39 11.03    -33 44 06.9   0.0114 1.0262 155.1  m  16?   2.16 310.0   68 256  52  93
   2024 07 23 14:30  18 39 09.73    -33 43 52.6   0.0114 1.0262 155.1  m  16?   2.16 312.2   66 256  52  93
   2024 07 23 14:40  18 39 08.48    -33 43 37.8   0.0114 1.0262 155.1  m  16?   2.15 314.5   64 256  52  93
   2024 07 23 14:50  18 39 07.28    -33 43 22.3   0.0114 1.0262 155.1  m  16?   2.15 316.9   62 256  52  93
   2024 07 23 15:00  18 39 06.14    -33 43 06.2   0.0114 1.0262 155.1  m  16?   2.15 319.4   59 255  52  93
   2024 07 23 15:10  18 39 05.05    -33 42 49.6   0.0114 1.0262 155.1  m  16?   2.14 321.9   57 255  52  93
   2024 07 23 15:20  18 39 04.03    -33 42 32.4   0.0114 1.0262 155.1  m  16?   2.14 324.5   55 254  53  93
   2024 07 23 15:30  18 39 03.08    -33 42 14.7   0.0114 1.0262 155.1  m  16?   2.13 327.2   53 254  53  93
   2024 07 23 15:40  18 39 02.19    -33 41 56.5   0.0114 1.0262 155.1  m  16?   2.13 329.9   51 253  53  93
   2024 07 23 15:50  18 39 01.38    -33 41 37.8   0.0114 1.0262 155.1  m  16?   2.13 332.8   49 253  53  93
   2024 07 23 16:00  18 39 00.65    -33 41 18.7   0.0114 1.0262 155.1  m  16?   2.12 335.6   47 252  53  93
   2024 07 23 16:10  18 38 59.99    -33 40 59.1   0.0114 1.0262 155.0  m  16?   2.13 338.6   45 252  53  93
   2024 07 23 16:20  18 38 59.42    -33 40 39.1   0.0114 1.0262 155.0  m  16?   2.13 341.6   43 251  53  93
   2024 07 23 16:30  18 38 58.93    -33 40 18.7   0.0114 1.0262 155.0  m  16?   2.13 344.6   41 250  53  92
   2024 07 23 16:40  18 38 58.52    -33 39 57.9   0.0114 1.0262 155.0  m  16?   2.14 347.7   39 250  53  92
   2024 07 23 16:50  18 38 58.21    -33 39 36.8   0.0114 1.0262 155.0  m  16?   2.15 350.8   37 249  53  92
   2024 07 23 17:00  18 38 57.98    -33 39 15.4   0.0114 1.0262 155.0  m  16?   2.17 353.9   35 248  53  92
   2024 07 23 17:10  18 38 57.85    -33 38 53.7   0.0114 1.0262 155.0  m  16?   2.18 357.0   33 247  53  92
   2024 07 23 17:20  18 38 57.81    -33 38 31.7   0.0114 1.0262 155.0  m  16?   2.21   0.2   31 247  53  92
   2024 07 23 17:30  18 38 57.87    -33 38 09.6   0.0114 1.0262 155.0  m  16?   2.23   3.3   29 246  53  92
   2024 07 23 17:40  18 38 58.03    -33 37 47.2   0.0114 1.0262 155.0  m  16?   2.26   6.3   27 245  54  92
   2024 07 23 17:50  18 38 58.28    -33 37 24.7   0.0114 1.0262 155.0  m  16?   2.29   9.3   25 244  54  92
   2024 07 23 18:00  18 38 58.63    -33 37 02.0   0.0114 1.0262 155.0  m  16?   2.33  12.3   23 243  54  92
   2024 07 23 18:10  18 38 59.08    -33 36 39.3   0.0114 1.0262 155.0  m  16?   2.37  15.2   21 242  54  92
   2024 07 23 18:20  18 38 59.64    -33 36 16.4   0.0114 1.0262 155.0  m  16?   2.41  18.1   19 242  54  92
   2024 07 23 18:30  18 39 00.29    -33 35 53.5   0.0114 1.0262 155.0  m  16?   2.45  20.9   17 241  54  92
   2024 07 23 18:40  18 39 01.05    -33 35 30.6   0.0114 1.0262 155.0  m  16?   2.50  23.6   16 240  54  92
   2024 07 23 18:50  18 39 01.90    -33 35 07.8   0.0114 1.0262 155.0  m  16?   2.55  26.2   14 239  54  92
   2024 07 23 19:00  18 39 02.86    -33 34 44.9   0.0114 1.0262 155.0  m  16?   2.60  28.7   12 238  54  92
   2024 07 23 19:10  18 39 03.91    -33 34 22.2   0.0114 1.0262 155.0  m  16?   2.66  31.2   10 236  54  92
   2024 07 23 19:20  18 39 05.07    -33 33 59.5   0.0114 1.0262 155.0  m  16?   2.72  33.6    8 235  54  92
   2024 07 23 19:30  18 39 06.33    -33 33 37.0   0.0114 1.0262 155.0  m  16?   2.77  35.8    6 234  54  92
   2024 07 23 19:40  18 39 07.68    -33 33 14.7   0.0114 1.0262 155.0 Am  16?   2.83  38.1    5 233  54  92
   2024 07 23 19:50  18 39 09.13    -33 32 52.5   0.0114 1.0262 155.0 Am  16?   2.89  40.2    3 232  55  92
   2024 07 23 20:00  18 39 10.67    -33 32 30.6   0.0114 1.0262 155.0 Am  16?   2.95  42.2    1 231  55  92
   2024 07 23 20:10  18 39 12.31    -33 32 08.9   0.0114 1.0262 155.0 Nm  16?   3.01  44.2    0 229  55  92
   ................
   2024 07 24 07:30  18 41 44.54    -33 28 02.7   0.0114 1.0261 155.1 C   16?   0.89 159.9   26 114  62  88
   2024 07 24 07:40  18 41 44.73    -33 28 11.0   0.0114 1.0261 155.1 C   16?   0.84 167.4   28 113  62  88
   2024 07 24 07:50  18 41 44.83    -33 28 19.1   0.0114 1.0261 155.1 C   16?   0.80 175.5   30 112  62  88
   2024 07 24 08:00  18 41 44.83    -33 28 27.0   0.0114 1.0261 155.1 N   16?   0.78 184.2   32 112  63  88
   2024 07 24 08:10  18 41 44.73    -33 28 34.6   0.0114 1.0261 155.1 N   16?   0.77 193.1   34 111  63  88
   2024 07 24 08:20  18 41 44.55    -33 28 42.0   0.0114 1.0261 155.1 A   16?   0.78 201.8   36 110  63  88
   2024 07 24 08:30  18 41 44.27    -33 28 49.0   0.0114 1.0261 155.1 A   16?   0.80 210.2   38 109  63  88
   2024 07 24 08:40  18 41 43.90    -33 28 55.7   0.0114 1.0261 155.1 A   16?   0.83 218.0   40 109  63  87
   2024 07 24 08:50  18 41 43.45    -33 29 02.1   0.0114 1.0261 155.0     16?   0.88 225.0   42 108  63  87
   2024 07 24 09:00  18 41 42.91    -33 29 08.1   0.0114 1.0261 155.0     16?   0.93 231.3   44 107  63  87
   2024 07 24 09:10  18 41 42.28    -33 29 13.6   0.0114 1.0261 155.0     16?   0.99 236.9   46 107  63  87
   2024 07 24 09:20  18 41 41.58    -33 29 18.8   0.0114 1.0261 155.0     16?   1.05 241.9   48 106  64  87
   2024 07 24 09:30  18 41 40.81    -33 29 23.4   0.0114 1.0261 155.0     16?   1.11 246.3   50 106  64  87
   2024 07 24 09:40  18 41 39.96    -33 29 27.6   0.0114 1.0261 155.0     16?   1.18 250.3   52 105  64  87
   2024 07 24 09:50  18 41 39.03    -33 29 31.3   0.0114 1.0261 155.0     16?   1.24 253.8   54 104  64  87
   2024 07 24 10:00  18 41 38.04    -33 29 34.4   0.0114 1.0261 155.0     16?   1.31 257.1   57 104  64  87
   2024 07 24 10:10  18 41 36.99    -33 29 37.0   0.0114 1.0261 155.0     16?   1.38 260.1   59 103  64  87
   2024 07 24 10:20  18 41 35.88    -33 29 39.1   0.0114 1.0261 155.0     16?   1.44 262.8   61 103  64  87
   2024 07 24 10:30  18 41 34.71    -33 29 40.5   0.0114 1.0261 155.0  m  16?   1.50 265.4   63 103  64  87
   2024 07 24 10:40  18 41 33.48    -33 29 41.4   0.0114 1.0261 154.9  m  16?   1.56 267.8   65 102  64  87
   2024 07 24 10:50  18 41 32.21    -33 29 41.6   0.0114 1.0261 154.9  m  16?   1.62 270.0   67 102  64  87
   2024 07 24 11:00  18 41 30.89    -33 29 41.2   0.0114 1.0261 154.9  m  16?   1.68 272.2   69 102  65  87
   2024 07 24 11:10  18 41 29.53    -33 29 40.2   0.0113 1.0261 154.9  m  16?   1.73 274.3   71 102  65  87
   2024 07 24 11:20  18 41 28.14    -33 29 38.5   0.0113 1.0261 154.9  m  16?   1.78 276.3   73 102  65  87
   2024 07 24 11:30  18 41 26.71    -33 29 36.2   0.0113 1.0261 154.9  m  16?   1.83 278.2   75 103  65  86
   2024 07 24 11:40  18 41 25.25    -33 29 33.1   0.0113 1.0261 154.9  m  16?   1.87 280.2   77 104  65  86
   2024 07 24 11:50  18 41 23.77    -33 29 29.4   0.0113 1.0261 154.9  m  16?   1.91 282.0   80 105  65  86
   2024 07 24 12:00  18 41 22.27    -33 29 25.0   0.0113 1.0261 154.9  m  16?   1.95 283.9   82 108  65  86
   2024 07 24 12:10  18 41 20.75    -33 29 19.9   0.0113 1.0261 154.9  m  16?   1.98 285.7   84 113  65  86
   2024 07 24 12:20  18 41 19.22    -33 29 14.2   0.0113 1.0261 154.8  m  16?   2.01 287.5   86 124  65  86
   2024 07 24 12:30  18 41 17.68    -33 29 07.7   0.0113 1.0261 154.8  m  16?   2.04 289.4   87 151  65  86
   2024 07 24 12:40  18 41 16.14    -33 29 00.5   0.0113 1.0261 154.8  t  16?   2.07 291.2   87 202  66  86
   2024 07 24 12:50  18 41 14.61    -33 28 52.6   0.0113 1.0261 154.8  m  16?   2.09 293.0   86 233  66  86
   2024 07 24 13:00  18 41 13.08    -33 28 44.0   0.0113 1.0261 154.8  m  16?   2.11 294.9   84 245  66  86
   2024 07 24 13:10  18 41 11.56    -33 28 34.7   0.0113 1.0261 154.8  m  16?   2.12 296.8   82 251  66  86
   2024 07 24 13:20  18 41 10.06    -33 28 24.7   0.0113 1.0261 154.8  m  16?   2.14 298.7   80 254  66  86
   2024 07 24 13:30  18 41 08.57    -33 28 14.0   0.0113 1.0261 154.8  m  16?   2.15 300.7   78 255  66  86
   2024 07 24 13:40  18 41 07.11    -33 28 02.6   0.0113 1.0261 154.8  m  16?   2.15 302.7   76 256  66  86
   2024 07 24 13:50  18 41 05.68    -33 27 50.6   0.0113 1.0261 154.8  m  16?   2.16 304.7   74 257  66  86
   2024 07 24 14:00  18 41 04.29    -33 27 37.9   0.0113 1.0261 154.7  m  16?   2.16 306.8   72 257  66  86
   2024 07 24 14:10  18 41 02.93    -33 27 24.6   0.0113 1.0261 154.7  m  16?   2.16 309.0   69 257  66  86
   2024 07 24 14:20  18 41 01.61    -33 27 10.6   0.0113 1.0261 154.7  m  16?   2.16 311.2   67 257  66  86
   2024 07 24 14:30  18 41 00.33    -33 26 56.0   0.0113 1.0261 154.7  m  16?   2.16 313.4   65 257  66  86
   2024 07 24 14:40  18 40 59.11    -33 26 40.7   0.0113 1.0261 154.7  m  16?   2.16 315.8   63 256  67  86
   2024 07 24 14:50  18 40 57.94    -33 26 24.9   0.0113 1.0261 154.7  m  16?   2.16 318.2   61 256  67  86
   2024 07 24 15:00  18 40 56.82    -33 26 08.5   0.0113 1.0261 154.7  m  16?   2.15 320.6   59 256  67  86
   2024 07 24 15:10  18 40 55.77    -33 25 51.5   0.0113 1.0261 154.7  m  16?   2.15 323.2   57 255  67  86
   2024 07 24 15:20  18 40 54.78    -33 25 34.0   0.0113 1.0261 154.7  m  16?   2.14 325.8   55 255  67  85
   2024 07 24 15:30  18 40 53.86    -33 25 16.0   0.0113 1.0261 154.7  m  16?   2.14 328.5   53 254  67  85
   2024 07 24 15:40  18 40 53.00    -33 24 57.4   0.0114 1.0261 154.7  m  16?   2.14 331.2   51 254  67  85
   2024 07 24 15:50  18 40 52.22    -33 24 38.4   0.0114 1.0261 154.7  m  16?   2.14 334.0   49 253  67  85
   2024 07 24 16:00  18 40 51.52    -33 24 19.0   0.0114 1.0261 154.7  m  16?   2.14 336.9   47 252  67  85
   2024 07 24 16:10  18 40 50.90    -33 23 59.1   0.0114 1.0261 154.7  m  16?   2.14 339.9   44 252  67  85
   2024 07 24 16:20  18 40 50.36    -33 23 38.8   0.0114 1.0261 154.6  m  16?   2.14 342.8   42 251  67  85
   2024 07 24 16:30  18 40 49.90    -33 23 18.1   0.0114 1.0261 154.6  m  16?   2.15 345.9   40 251  67  85
   2024 07 24 16:40  18 40 49.53    -33 22 57.0   0.0114 1.0261 154.6  m  16?   2.16 348.9   38 250  67  85
   2024 07 24 16:50  18 40 49.25    -33 22 35.6   0.0114 1.0261 154.6  m  16?   2.17 352.0   36 249  68  85
   2024 07 24 17:00  18 40 49.06    -33 22 14.0   0.0114 1.0261 154.6  m  16?   2.19 355.1   34 248  68  85
   2024 07 24 17:10  18 40 48.97    -33 21 52.0   0.0114 1.0261 154.6  m  16?   2.21 358.2   32 248  68  85
   2024 07 24 17:20  18 40 48.97    -33 21 29.8   0.0114 1.0261 154.6  m  16?   2.23   1.3   30 247  68  85
   2024 07 24 17:30  18 40 49.06    -33 21 07.4   0.0114 1.0261 154.6  m  16?   2.26   4.4   28 246  68  85
   2024 07 24 17:40  18 40 49.25    -33 20 44.8   0.0114 1.0261 154.6  m  16?   2.29   7.4   26 245  68  85
   2024 07 24 17:50  18 40 49.55    -33 20 22.0   0.0114 1.0261 154.6  m  16?   2.32  10.4   25 244  68  85
   2024 07 24 18:00  18 40 49.93    -33 19 59.1   0.0114 1.0261 154.6  m  16?   2.36  13.3   23 243  68  85
   2024 07 24 18:10  18 40 50.42    -33 19 36.2   0.0114 1.0260 154.6  m  16?   2.40  16.2   21 243  68  85
   2024 07 24 18:20  18 40 51.01    -33 19 13.1   0.0114 1.0260 154.6  m  16?   2.44  19.0   19 242  68  85
   2024 07 24 18:30  18 40 51.71    -33 18 50.0   0.0114 1.0260 154.6  m  16?   2.49  21.8   17 241  68  85
   2024 07 24 18:40  18 40 52.50    -33 18 26.9   0.0114 1.0260 154.6  m  16?   2.54  24.4   15 240  68  85
   2024 07 24 18:50  18 40 53.39    -33 18 03.9   0.0114 1.0260 154.6  m  16?   2.59  27.0   13 239  68  85
   2024 07 24 19:00  18 40 54.38    -33 17 40.8   0.0114 1.0260 154.6  m  16?   2.64  29.5   11 238  68  85
   2024 07 24 19:10  18 40 55.48    -33 17 17.9   0.0114 1.0260 154.6  m  16?   2.70  31.9   10 237  69  85
   2024 07 24 19:20  18 40 56.67    -33 16 55.1   0.0114 1.0260 154.6  m  16?   2.76  34.2    8 235  69  85
   2024 07 24 19:30  18 40 57.96    -33 16 32.4   0.0114 1.0260 154.6  m  16?   2.82  36.5    6 234  69  85
   2024 07 24 19:40  18 40 59.35    -33 16 09.9   0.0114 1.0260 154.6 Am  16?   2.88  38.7    4 233  69  84
   2024 07 24 19:50  18 41 00.84    -33 15 47.6   0.0114 1.0260 154.6 Am  16?   2.94  40.8    3 232  69  84
   2024 07 24 20:00  18 41 02.42    -33 15 25.5   0.0114 1.0260 154.6 Am  16?   3.00  42.8    1 231  69  84
   2024 07 24 20:10  18 41 04.09    -33 15 03.7   0.0114 1.0260 154.6 Nm  16?   3.06  44.7    0 229  69  84
   ................
   2024 07 25 07:40  18 43 37.26    -33 10 51.9   0.0113 1.0260 154.7 C   16?   0.80 167.1   28 113  76  79
   2024 07 25 07:50  18 43 37.35    -33 10 59.6   0.0113 1.0260 154.7 C   16?   0.76 175.7   30 112  76  79
   2024 07 25 08:00  18 43 37.35    -33 11 07.1   0.0113 1.0260 154.7 N   16?   0.74 184.8   32 111  77  79
   2024 07 25 08:10  18 43 37.25    -33 11 14.4   0.0113 1.0260 154.7 N   16?   0.73 194.1   34 110  77  79
   2024 07 25 08:20  18 43 37.06    -33 11 21.3   0.0113 1.0260 154.7 N   16?   0.74 203.3   36 110  77  79
   2024 07 25 08:30  18 43 36.78    -33 11 28.0   0.0113 1.0260 154.7 A   16?   0.77 212.0   38 109  77  79
   2024 07 25 08:40  18 43 36.41    -33 11 34.3   0.0113 1.0260 154.7 A   16?   0.80 220.0   40 108  77  79
   2024 07 25 08:50  18 43 35.95    -33 11 40.2   0.0113 1.0260 154.7     16?   0.85 227.2   43 107  77  79
   2024 07 25 09:00  18 43 35.41    -33 11 45.8   0.0113 1.0260 154.6     16?   0.91 233.5   45 107  77  79
   2024 07 25 09:10  18 43 34.79    -33 11 50.9   0.0113 1.0260 154.6     16?   0.97 239.1   47 106  77  79
   2024 07 25 09:20  18 43 34.09    -33 11 55.6   0.0113 1.0260 154.6     16?   1.03 244.1   49 106  78  79
   2024 07 25 09:30  18 43 33.31    -33 11 59.9   0.0113 1.0260 154.6     16?   1.10 248.4   51 105  78  78
   2024 07 25 09:40  18 43 32.46    -33 12 03.6   0.0113 1.0259 154.6     16?   1.17 252.3   53 104  78  78
   2024 07 25 09:50  18 43 31.54    -33 12 06.9   0.0113 1.0259 154.6     16?   1.23 255.8   55 104  78  78
   2024 07 25 10:00  18 43 30.55    -33 12 09.6   0.0113 1.0259 154.6     16?   1.30 259.0   57 103  78  78
   2024 07 25 10:10  18 43 29.50    -33 12 11.8   0.0113 1.0259 154.6     16?   1.37 261.9   59 103  78  78
   2024 07 25 10:20  18 43 28.39    -33 12 13.4   0.0113 1.0259 154.6     16?   1.43 264.5   61 102  78  78
   2024 07 25 10:30  18 43 27.23    -33 12 14.4   0.0113 1.0259 154.6     16?   1.50 267.0   63 102  78  78
   2024 07 25 10:40  18 43 26.01    -33 12 14.8   0.0113 1.0259 154.6     16?   1.56 269.4   65 102  78  78
   2024 07 25 10:50  18 43 24.74    -33 12 14.6   0.0113 1.0259 154.5     16?   1.62 271.6   67 101  79  78
   2024 07 25 11:00  18 43 23.43    -33 12 13.8   0.0113 1.0259 154.5     16?   1.68 273.7   70 101  79  78
   2024 07 25 11:10  18 43 22.08    -33 12 12.3   0.0113 1.0259 154.5     16?   1.73 275.7   72 101  79  78
   2024 07 25 11:20  18 43 20.69    -33 12 10.2   0.0113 1.0259 154.5     16?   1.78 277.7   74 101  79  78
   2024 07 25 11:30  18 43 19.27    -33 12 07.4   0.0113 1.0259 154.5     16?   1.83 279.6   76 102  79  78
   2024 07 25 11:40  18 43 17.82    -33 12 03.9   0.0113 1.0259 154.5  m  16?   1.87 281.5   78 103  79  78
   2024 07 25 11:50  18 43 16.35    -33 11 59.8   0.0113 1.0259 154.5  m  16?   1.91 283.3   80 104  79  77
   2024 07 25 12:00  18 43 14.86    -33 11 55.0   0.0113 1.0259 154.5  m  16?   1.95 285.2   82 107  79  77
   2024 07 25 12:10  18 43 13.36    -33 11 49.5   0.0113 1.0259 154.5  m  16?   1.99 287.0   84 112  79  77
   2024 07 25 12:20  18 43 11.84    -33 11 43.2   0.0113 1.0259 154.5  m  16?   2.02 288.8   86 124  80  77
   2024 07 25 12:30  18 43 10.32    -33 11 36.3   0.0113 1.0259 154.4  m  16?   2.04 290.6   87 157  80  77
   2024 07 25 12:40  18 43 08.80    -33 11 28.7   0.0113 1.0259 154.4  t  16?   2.07 292.4   87 214  80  77
   2024 07 25 12:50  18 43 07.28    -33 11 20.4   0.0113 1.0259 154.4  m  16?   2.09 294.3   86 240  80  77
   2024 07 25 13:00  18 43 05.77    -33 11 11.4   0.0113 1.0259 154.4  m  16?   2.11 296.1   84 249  80  77
   2024 07 25 13:10  18 43 04.27    -33 11 01.7   0.0113 1.0259 154.4  m  16?   2.13 298.0   82 253  80  77
   2024 07 25 13:20  18 43 02.78    -33 10 51.3   0.0113 1.0259 154.4  m  16?   2.14 299.9   79 256  80  77
   2024 07 25 13:30  18 43 01.32    -33 10 40.2   0.0113 1.0259 154.4  m  16?   2.15 301.9   77 257  80  77
   2024 07 25 13:40  18 42 59.88    -33 10 28.4   0.0113 1.0259 154.4  m  16?   2.16 303.9   75 258  80  77
   2024 07 25 13:50  18 42 58.48    -33 10 16.0   0.0113 1.0259 154.4  m  16?   2.16 305.9   73 258  80  77
   2024 07 25 14:00  18 42 57.10    -33 10 02.9   0.0113 1.0259 154.4  m  16?   2.17 308.0   71 258  80  77
   2024 07 25 14:10  18 42 55.77    -33 09 49.2   0.0113 1.0259 154.3  m  16?   2.17 310.2   69 258  81  77
   2024 07 25 14:20  18 42 54.47    -33 09 34.8   0.0113 1.0259 154.3  m  16?   2.17 312.4   67 258  81  77
   2024 07 25 14:30  18 42 53.22    -33 09 19.9   0.0113 1.0259 154.3  m  16?   2.17 314.6   65 257  81  76
   2024 07 25 14:40  18 42 52.03    -33 09 04.3   0.0113 1.0259 154.3  m  16?   2.17 317.0   63 257  81  76
   2024 07 25 14:50  18 42 50.88    -33 08 48.1   0.0113 1.0259 154.3  m  16?   2.16 319.4   61 257  81  76
   2024 07 25 15:00  18 42 49.79    -33 08 31.3   0.0113 1.0259 154.3  m  16?   2.16 321.9   58 256  81  76
   2024 07 25 15:10  18 42 48.77    -33 08 14.0   0.0113 1.0259 154.3  m  16?   2.16 324.4   56 256  81  76
   2024 07 25 15:20  18 42 47.81    -33 07 56.2   0.0113 1.0259 154.3  m  16?   2.15 327.0   54 255  81  76
   2024 07 25 15:30  18 42 46.91    -33 07 37.8   0.0113 1.0259 154.3  m  16?   2.15 329.7   52 255  81  76
   2024 07 25 15:40  18 42 46.09    -33 07 18.9   0.0113 1.0259 154.3  m  16?   2.15 332.5   50 254  81  76
   2024 07 25 15:50  18 42 45.34    -33 06 59.6   0.0113 1.0259 154.3  m  16?   2.15 335.3   48 253  81  76
   2024 07 25 16:00  18 42 44.67    -33 06 39.8   0.0113 1.0259 154.3  m  16?   2.15 338.2   46 253  81  76
   2024 07 25 16:10  18 42 44.08    -33 06 19.6   0.0113 1.0259 154.3  m  16?   2.15 341.1   44 252  82  76
   2024 07 25 16:20  18 42 43.57    -33 05 59.0   0.0113 1.0259 154.3  m  16?   2.16 344.1   42 251  82  76
   2024 07 25 16:30  18 42 43.15    -33 05 38.0   0.0113 1.0259 154.3  m  16?   2.17 347.1   40 251  82  76
   2024 07 25 16:40  18 42 42.82    -33 05 16.7   0.0113 1.0259 154.3  m  16?   2.18 350.1   38 250  82  76
   2024 07 25 16:50  18 42 42.57    -33 04 55.1   0.0113 1.0259 154.2  m  16?   2.19 353.2   36 249  82  76
   2024 07 25 17:00  18 42 42.42    -33 04 33.1   0.0113 1.0259 154.2  m  16?   2.21 356.3   34 249  82  76
   2024 07 25 17:10  18 42 42.35    -33 04 10.9   0.0113 1.0259 154.2  m  16?   2.23 359.3   32 248  82  76
   2024 07 25 17:20  18 42 42.39    -33 03 48.4   0.0113 1.0259 154.2  m  16?   2.26   2.4   30 247  82  76
   2024 07 25 17:30  18 42 42.52    -33 03 25.8   0.0113 1.0259 154.2  m  16?   2.29   5.5   28 246  82  76
   2024 07 25 17:40  18 42 42.75    -33 03 02.9   0.0113 1.0259 154.2  m  16?   2.32   8.5   26 245  82  76
   2024 07 25 17:50  18 42 43.07    -33 02 40.0   0.0113 1.0259 154.2  m  16?   2.35  11.4   24 244  82  76
   2024 07 25 18:00  18 42 43.50    -33 02 16.8   0.0113 1.0259 154.2  m  16?   2.39  14.3   22 244  82  75
   2024 07 25 18:10  18 42 44.02    -33 01 53.6   0.0113 1.0259 154.2  m  16?   2.43  17.1   20 243  82  75
   2024 07 25 18:20  18 42 44.65    -33 01 30.4   0.0113 1.0259 154.2  m  16?   2.48  19.9   18 242  82  75
   2024 07 25 18:30  18 42 45.38    -33 01 07.1   0.0113 1.0259 154.2  m  16?   2.53  22.6   16 241  82  75
   2024 07 25 18:40  18 42 46.20    -33 00 43.8   0.0113 1.0259 154.2  m  16?   2.58  25.2   14 240  83  75
   2024 07 25 18:50  18 42 47.13    -33 00 20.5   0.0113 1.0259 154.2  m  16?   2.63  27.8   13 239  83  75
   2024 07 25 19:00  18 42 48.16    -32 59 57.3   0.0113 1.0259 154.2  m  16?   2.69  30.2   11 238  83  75
   2024 07 25 19:10  18 42 49.29    -32 59 34.2   0.0113 1.0259 154.2  m  16?   2.74  32.6    9 237  83  75
   2024 07 25 19:20  18 42 50.52    -32 59 11.2   0.0113 1.0259 154.2  m  16?   2.80  34.9    7 235  83  75
   2024 07 25 19:30  18 42 51.85    -32 58 48.4   0.0113 1.0259 154.2  m  16?   2.86  37.1    5 234  83  75
   2024 07 25 19:40  18 42 53.27    -32 58 25.7   0.0113 1.0259 154.2 Am  16?   2.92  39.2    4 233  83  75
   2024 07 25 19:50  18 42 54.79    -32 58 03.2   0.0113 1.0259 154.2 Am  16?   2.98  41.3    2 232  83  75
   2024 07 25 20:00  18 42 56.41    -32 57 41.0   0.0113 1.0259 154.2 Am  16?   3.04  43.3    0 231  83  75
   ................
   2024 07 26 07:40  18 45 31.99    -32 52 52.8   0.0113 1.0258 154.3 C   16?   0.76 166.8   29 112  90  69
   2024 07 26 07:50  18 45 32.08    -32 53 00.2   0.0113 1.0258 154.3 C   16?   0.72 175.8   31 111  90  69
   2024 07 26 08:00  18 45 32.07    -32 53 07.3   0.0113 1.0258 154.3 N   16?   0.70 185.5   33 111  90  69
   2024 07 26 08:10  18 45 31.97    -32 53 14.1   0.0113 1.0258 154.3 N   16?   0.70 195.4   35 110  90  69
   2024 07 26 08:20  18 45 31.77    -32 53 20.6   0.0113 1.0258 154.3 N   16?   0.71 205.0   37 109  91  69
   2024 07 26 08:30  18 45 31.49    -32 53 26.9   0.0113 1.0258 154.3 A   16?   0.73 214.1   39 108  91  69
   2024 07 26 08:40  18 45 31.12    -32 53 32.8   0.0113 1.0258 154.3 A   16?   0.77 222.3   41 108  91  69
   2024 07 26 08:50  18 45 30.66    -32 53 38.3   0.0113 1.0258 154.3     16?   0.83 229.6   43 107  91  69
   2024 07 26 09:00  18 45 30.12    -32 53 43.4   0.0113 1.0258 154.3     16?   0.88 235.9   45 106  91  69
   2024 07 26 09:10  18 45 29.49    -32 53 48.1   0.0113 1.0258 154.3     16?   0.95 241.5   47 106  91  69
   2024 07 26 09:20  18 45 28.79    -32 53 52.4   0.0113 1.0258 154.2     16?   1.02 246.3   49 105  91  68
   2024 07 26 09:30  18 45 28.02    -32 53 56.2   0.0113 1.0258 154.2     16?   1.08 250.6   51 104  91  68
   2024 07 26 09:40  18 45 27.17    -32 53 59.5   0.0113 1.0258 154.2     16?   1.16 254.4   53 104  92  68
   2024 07 26 09:50  18 45 26.25    -32 54 02.3   0.0113 1.0258 154.2     16?   1.23 257.8   55 103  92  68
   2024 07 26 10:00  18 45 25.27    -32 54 04.6   0.0113 1.0258 154.2     16?   1.30 260.9   57 103  92  68
   2024 07 26 10:10  18 45 24.22    -32 54 06.3   0.0113 1.0258 154.2     16?   1.36 263.7   59 102  92  68
   2024 07 26 10:20  18 45 23.11    -32 54 07.5   0.0113 1.0258 154.2     16?   1.43 266.3   62 102  92  68
   2024 07 26 10:30  18 45 21.95    -32 54 08.1   0.0113 1.0258 154.2     16?   1.50 268.7   64 101  92  68
   2024 07 26 10:40  18 45 20.74    -32 54 08.1   0.0113 1.0258 154.2     16?   1.56 271.0   66 101  92  68
   2024 07 26 10:50  18 45 19.48    -32 54 07.4   0.0113 1.0258 154.2     16?   1.62 273.2   68 101  92  68
   2024 07 26 11:00  18 45 18.18    -32 54 06.2   0.0113 1.0258 154.2     16?   1.68 275.2   70 100  93  68
   2024 07 26 11:10  18 45 16.83    -32 54 04.2   0.0113 1.0258 154.1     16?   1.73 277.2   72 100  93  67
   2024 07 26 11:20  18 45 15.45    -32 54 01.7   0.0113 1.0258 154.1     16?   1.78 279.1   74 100  93  67
   2024 07 26 11:30  18 45 14.04    -32 53 58.5   0.0113 1.0258 154.1     16?   1.83 281.0   76 101  93  67
   2024 07 26 11:40  18 45 12.61    -32 53 54.6   0.0113 1.0258 154.1     16?   1.87 282.9   78 101  93  67
   2024 07 26 11:50  18 45 11.15    -32 53 50.0   0.0113 1.0258 154.1     16?   1.92 284.7   80 102  93  67
   2024 07 26 12:00  18 45 09.67    -32 53 44.7   0.0113 1.0258 154.1     16?   1.95 286.5   83 105  93  67
   2024 07 26 12:10  18 45 08.18    -32 53 38.8   0.0113 1.0258 154.1     16?   1.99 288.3   85 110  93  67
   2024 07 26 12:20  18 45 06.67    -32 53 32.1   0.0113 1.0258 154.1     16?   2.02 290.0   87 123  93  67
   2024 07 26 12:30  18 45 05.17    -32 53 24.8   0.0113 1.0258 154.1     16?   2.05 291.8   88 167  94  67
   2024 07 26 12:40  18 45 03.66    -32 53 16.8   0.0113 1.0258 154.1  t  16?   2.07 293.6   87 227  94  67
   2024 07 26 12:50  18 45 02.16    -32 53 08.0   0.0113 1.0258 154.0  m  16?   2.10 295.5   85 246  94  67
   2024 07 26 13:00  18 45 00.66    -32 52 58.6   0.0113 1.0258 154.0  m  16?   2.11 297.3   83 253  94  67
   2024 07 26 13:10  18 44 59.18    -32 52 48.5   0.0113 1.0258 154.0  m  16?   2.13 299.2   81 256  94  66
   2024 07 26 13:20  18 44 57.72    -32 52 37.7   0.0113 1.0258 154.0  m  16?   2.14 301.1   79 258  94  66
   2024 07 26 13:30  18 44 56.28    -32 52 26.2   0.0113 1.0258 154.0  m  16?   2.15 303.0   77 258  94  66
   2024 07 26 13:40  18 44 54.86    -32 52 14.0   0.0113 1.0258 154.0  m  16?   2.16 305.0   75 259  94  66
   2024 07 26 13:50  18 44 53.47    -32 52 01.2   0.0113 1.0258 154.0  m  16?   2.17 307.1   73 259  94  66
   2024 07 26 14:00  18 44 52.12    -32 51 47.8   0.0113 1.0258 154.0  m  16?   2.17 309.2   71 259  94  66
   2024 07 26 14:10  18 44 50.81    -32 51 33.7   0.0113 1.0258 154.0  m  16?   2.18 311.3   69 259  95  66
   2024 07 26 14:20  18 44 49.54    -32 51 18.9   0.0113 1.0258 154.0  m  16?   2.18 313.5   66 258  95  66
   2024 07 26 14:30  18 44 48.32    -32 51 03.6   0.0113 1.0258 154.0  m  16?   2.18 315.8   64 258  95  66
   2024 07 26 14:40  18 44 47.14    -32 50 47.6   0.0113 1.0258 153.9  m  16?   2.17 318.2   62 258  95  66
   2024 07 26 14:50  18 44 46.03    -32 50 31.1   0.0113 1.0258 153.9  m  16?   2.17 320.6   60 257  95  66
   2024 07 26 15:00  18 44 44.97    -32 50 14.0   0.0113 1.0258 153.9  m  16?   2.17 323.1   58 257  95  66
   2024 07 26 15:10  18 44 43.97    -32 49 56.3   0.0113 1.0258 153.9  m  16?   2.17 325.6   56 256  95  66
   2024 07 26 15:20  18 44 43.04    -32 49 38.1   0.0113 1.0258 153.9  m  16?   2.16 328.2   54 256  95  66
   2024 07 26 15:30  18 44 42.17    -32 49 19.4   0.0113 1.0258 153.9  m  16?   2.16 330.9   52 255  95  66
   2024 07 26 15:40  18 44 41.38    -32 49 00.2   0.0113 1.0258 153.9  m  16?   2.16 333.7   50 254  95  65
   2024 07 26 15:50  18 44 40.66    -32 48 40.6   0.0113 1.0257 153.9  m  16?   2.16 336.5   48 254  95  65
   2024 07 26 16:00  18 44 40.03    -32 48 20.5   0.0113 1.0257 153.9  m  16?   2.17 339.4   46 253  96  65
   2024 07 26 16:10  18 44 39.47    -32 48 00.0   0.0113 1.0257 153.9  m  16?   2.17 342.3   44 252  96  65
   2024 07 26 16:20  18 44 38.99    -32 47 39.1   0.0113 1.0257 153.9  m  16?   2.18 345.3   41 252  96  65
   2024 07 26 16:30  18 44 38.60    -32 47 17.8   0.0113 1.0257 153.9  m  16?   2.19 348.3   39 251  96  65
   2024 07 26 16:40  18 44 38.30    -32 46 56.2   0.0113 1.0257 153.9  m  16?   2.20 351.3   37 250  96  65
   2024 07 26 16:50  18 44 38.09    -32 46 34.3   0.0113 1.0257 153.9  m  16?   2.22 354.3   35 250  96  65
   2024 07 26 17:00  18 44 37.97    -32 46 12.1   0.0113 1.0257 153.9  m  16?   2.24 357.4   33 249  96  65
   2024 07 26 17:10  18 44 37.94    -32 45 49.6   0.0113 1.0257 153.9  m  16?   2.26   0.5   31 248  96  65
   2024 07 26 17:20  18 44 38.01    -32 45 26.9   0.0113 1.0257 153.9  m  16?   2.29   3.5   29 247  96  65
   2024 07 26 17:30  18 44 38.17    -32 45 04.0   0.0113 1.0257 153.8  m  16?   2.32   6.5   27 246  96  65
   2024 07 26 17:40  18 44 38.43    -32 44 40.9   0.0113 1.0257 153.8  m  16?   2.35   9.5   25 245  96  65
   2024 07 26 17:50  18 44 38.80    -32 44 17.7   0.0113 1.0257 153.8  m  16?   2.39  12.4   23 245  96  65
   2024 07 26 18:00  18 44 39.26    -32 43 54.3   0.0113 1.0257 153.8  m  16?   2.43  15.2   22 244  96  65
   2024 07 26 18:10  18 44 39.82    -32 43 30.9   0.0113 1.0257 153.8  m  16?   2.47  18.0   20 243  96  65
   2024 07 26 18:20  18 44 40.48    -32 43 07.4   0.0113 1.0257 153.8  m  16?   2.52  20.8   18 242  97  65
   2024 07 26 18:30  18 44 41.24    -32 42 43.9   0.0113 1.0257 153.8  m  16?   2.56  23.4   16 241  97  65
   2024 07 26 18:40  18 44 42.11    -32 42 20.4   0.0113 1.0257 153.8  m  16?   2.62  26.0   14 240  97  65
   2024 07 26 18:50  18 44 43.07    -32 41 57.0   0.0113 1.0257 153.8  m  16?   2.67  28.5   12 239  97  64
   2024 07 26 19:00  18 44 44.13    -32 41 33.6   0.0113 1.0257 153.8  m  16?   2.73  30.9   10 238  97  64
   2024 07 26 19:10  18 44 45.30    -32 41 10.3   0.0113 1.0257 153.8  m  16?   2.78  33.2    8 237  97  64
   2024 07 26 19:20  18 44 46.56    -32 40 47.1   0.0113 1.0257 153.8  m  16?   2.84  35.5    7 235  97  64
   2024 07 26 19:30  18 44 47.92    -32 40 24.1   0.0113 1.0257 153.8  m  16?   2.90  37.7    5 234  97  64
   2024 07 26 19:40  18 44 49.38    -32 40 01.3   0.0113 1.0257 153.8 Am  16?   2.97  39.8    3 233  97  64
   2024 07 26 19:50  18 44 50.94    -32 39 38.6   0.0113 1.0257 153.8 Am  16?   3.03  41.8    1 232  97  64
   2024 07 26 20:00  18 44 52.59    -32 39 16.2   0.0113 1.0257 153.8 Nm  16?   3.09  43.7    0 231  97  64
   ................
   2024 07 27 07:40  18 47 28.96    -32 34 12.9   0.0113 1.0256 154.0 C   16?   0.72 166.4   29 112 104  59
   2024 07 27 07:50  18 47 29.04    -32 34 19.8   0.0113 1.0256 153.9 C   16?   0.68 175.9   31 111 104  58
   2024 07 27 08:00  18 47 29.03    -32 34 26.5   0.0113 1.0256 153.9 N   16?   0.66 186.1   33 110 104  58
   2024 07 27 08:10  18 47 28.93    -32 34 32.9   0.0113 1.0256 153.9 N   16?   0.66 196.6   35 109 104  58
   2024 07 27 08:20  18 47 28.73    -32 34 39.0   0.0113 1.0256 153.9 N   16?   0.67 206.8   37 109 104  58
   2024 07 27 08:30  18 47 28.45    -32 34 44.9   0.0113 1.0256 153.9 A   16?   0.70 216.3   39 108 104  58
   2024 07 27 08:40  18 47 28.07    -32 34 50.3   0.0113 1.0256 153.9 A   16?   0.75 224.7   41 107 104  58
   2024 07 27 08:50  18 47 27.61    -32 34 55.4   0.0113 1.0256 153.9 A   16?   0.80 232.0   43 106 105  58
   2024 07 27 09:00  18 47 27.07    -32 35 00.1   0.0112 1.0256 153.9     16?   0.86 238.4   45 106 105  58
   2024 07 27 09:10  18 47 26.45    -32 35 04.4   0.0112 1.0256 153.9     16?   0.93 243.9   47 105 105  58
   2024 07 27 09:20  18 47 25.75    -32 35 08.2   0.0112 1.0256 153.9     16?   1.00 248.7   49 104 105  57
   2024 07 27 09:30  18 47 24.97    -32 35 11.6   0.0112 1.0256 153.9     16?   1.07 252.8   51 104 105  57
   2024 07 27 09:40  18 47 24.13    -32 35 14.5   0.0112 1.0256 153.9     16?   1.14 256.5   54 103 105  57
   2024 07 27 09:50  18 47 23.21    -32 35 16.8   0.0112 1.0256 153.8     16?   1.22 259.8   56 103 105  57
   2024 07 27 10:00  18 47 22.23    -32 35 18.7   0.0112 1.0256 153.8     16?   1.29 262.8   58 102 105  57
   2024 07 27 10:10  18 47 21.19    -32 35 19.9   0.0112 1.0256 153.8     16?   1.36 265.6   60 101 106  57
   2024 07 27 10:20  18 47 20.09    -32 35 20.7   0.0112 1.0256 153.8     16?   1.43 268.1   62 101 106  57
   2024 07 27 10:30  18 47 18.93    -32 35 20.8   0.0112 1.0256 153.8     16?   1.49 270.4   64 100 106  57
   2024 07 27 10:40  18 47 17.73    -32 35 20.3   0.0112 1.0256 153.8     16?   1.56 272.6   66 100 106  57
   2024 07 27 10:50  18 47 16.47    -32 35 19.2   0.0112 1.0256 153.8     16?   1.62 274.7   68 100 106  57
   2024 07 27 11:00  18 47 15.18    -32 35 17.5   0.0112 1.0256 153.8     16?   1.68 276.8   70  99 106  56
   2024 07 27 11:10  18 47 13.84    -32 35 15.2   0.0112 1.0256 153.8     16?   1.73 278.7   72  99 106  56
   2024 07 27 11:20  18 47 12.47    -32 35 12.2   0.0112 1.0256 153.8     16?   1.78 280.6   75  99 106  56
   2024 07 27 11:30  18 47 11.07    -32 35 08.5   0.0112 1.0256 153.7     16?   1.83 282.4   77  99 107  56
   2024 07 27 11:40  18 47 09.65    -32 35 04.2   0.0112 1.0256 153.7     16?   1.88 284.2   79 100 107  56
   2024 07 27 11:50  18 47 08.20    -32 34 59.2   0.0112 1.0256 153.7     16?   1.92 286.0   81 101 107  56
   2024 07 27 12:00  18 47 06.74    -32 34 53.5   0.0112 1.0256 153.7     16?   1.96 287.8   83 103 107  56
   2024 07 27 12:10  18 47 05.26    -32 34 47.1   0.0112 1.0256 153.7     16?   1.99 289.5   85 108 107  56
   2024 07 27 12:20  18 47 03.77    -32 34 40.0   0.0112 1.0256 153.7     16?   2.02 291.3   87 122 107  56
   2024 07 27 12:30  18 47 02.28    -32 34 32.2   0.0112 1.0256 153.7  t  16?   2.05 293.1   88 182 107  56
   2024 07 27 12:40  18 47 00.79    -32 34 23.8   0.0112 1.0256 153.7     16?   2.08 294.9   87 239 107  56
   2024 07 27 12:50  18 46 59.31    -32 34 14.6   0.0112 1.0256 153.7     16?   2.10 296.7   85 252 108  55
   2024 07 27 13:00  18 46 57.83    -32 34 04.8   0.0112 1.0256 153.7     16?   2.12 298.5   83 256 108  55
   2024 07 27 13:10  18 46 56.37    -32 33 54.2   0.0112 1.0256 153.6     16?   2.13 300.4   81 258 108  55
   2024 07 27 13:20  18 46 54.92    -32 33 43.0   0.0112 1.0256 153.6     16?   2.15 302.3   79 259 108  55
   2024 07 27 13:30  18 46 53.50    -32 33 31.2   0.0112 1.0256 153.6     16?   2.16 304.2   77 260 108  55
   2024 07 27 13:40  18 46 52.11    -32 33 18.6   0.0112 1.0256 153.6     16?   2.17 306.2   74 260 108  55
   2024 07 27 13:50  18 46 50.75    -32 33 05.4   0.0112 1.0256 153.6  m  16?   2.17 308.3   72 260 108  55
   2024 07 27 14:00  18 46 49.42    -32 32 51.5   0.0112 1.0256 153.6  m  16?   2.18 310.4   70 260 108  55
   2024 07 27 14:10  18 46 48.13    -32 32 37.1   0.0112 1.0256 153.6  m  16?   2.18 312.5   68 259 108  55
   2024 07 27 14:20  18 46 46.89    -32 32 21.9   0.0112 1.0256 153.6  m  16?   2.18 314.7   66 259 108  55
   2024 07 27 14:30  18 46 45.69    -32 32 06.2   0.0112 1.0256 153.6  m  16?   2.18 317.0   64 259 109  55
   2024 07 27 14:40  18 46 44.54    -32 31 49.9   0.0112 1.0256 153.6  m  16?   2.18 319.4   62 258 109  55
   2024 07 27 14:50  18 46 43.45    -32 31 33.0   0.0112 1.0256 153.6  m  16?   2.18 321.8   60 258 109  55
   2024 07 27 15:00  18 46 42.42    -32 31 15.5   0.0112 1.0256 153.5  m  16?   2.18 324.3   58 257 109  54
   2024 07 27 15:10  18 46 41.45    -32 30 57.5   0.0112 1.0256 153.5  m  16?   2.18 326.8   55 257 109  54
   2024 07 27 15:20  18 46 40.55    -32 30 39.0   0.0112 1.0256 153.5  m  16?   2.18 329.5   53 256 109  54
   2024 07 27 15:30  18 46 39.72    -32 30 20.0   0.0112 1.0256 153.5  m  16?   2.18 332.1   51 255 109  54
   2024 07 27 15:40  18 46 38.96    -32 30 00.5   0.0112 1.0256 153.5  m  16?   2.18 334.9   49 255 109  54
   2024 07 27 15:50  18 46 38.27    -32 29 40.5   0.0112 1.0256 153.5  m  16?   2.18 337.7   47 254 109  54
   2024 07 27 16:00  18 46 37.66    -32 29 20.1   0.0112 1.0256 153.5  m  16?   2.18 340.6   45 253 109  54
   2024 07 27 16:10  18 46 37.14    -32 28 59.3   0.0112 1.0256 153.5  m  16?   2.19 343.5   43 253 109  54
   2024 07 27 16:20  18 46 36.70    -32 28 38.1   0.0112 1.0256 153.5  m  16?   2.20 346.5   41 252 110  54
   2024 07 27 16:30  18 46 36.34    -32 28 16.6   0.0112 1.0256 153.5  m  16?   2.21 349.5   39 251 110  54
   2024 07 27 16:40  18 46 36.07    -32 27 54.7   0.0112 1.0256 153.5  m  16?   2.22 352.5   37 250 110  54
   2024 07 27 16:50  18 46 35.89    -32 27 32.5   0.0112 1.0256 153.5  m  16?   2.24 355.5   35 250 110  54
   2024 07 27 17:00  18 46 35.81    -32 27 10.0   0.0112 1.0256 153.5  m  16?   2.26 358.5   33 249 110  54
   2024 07 27 17:10  18 46 35.82    -32 26 47.3   0.0112 1.0256 153.5  m  16?   2.29   1.6   31 248 110  54
   2024 07 27 17:20  18 46 35.92    -32 26 24.3   0.0112 1.0256 153.5  m  16?   2.31   4.6   29 247 110  54
   2024 07 27 17:30  18 46 36.12    -32 26 01.2   0.0112 1.0256 153.5  m  16?   2.35   7.6   27 246 110  54
   2024 07 27 17:40  18 46 36.42    -32 25 37.8   0.0112 1.0256 153.5  m  16?   2.38  10.5   25 246 110  53
   2024 07 27 17:50  18 46 36.82    -32 25 14.4   0.0112 1.0256 153.5  m  16?   2.42  13.4   23 245 110  53
   2024 07 27 18:00  18 46 37.31    -32 24 50.8   0.0112 1.0256 153.5  m  16?   2.46  16.2   21 244 110  53
   2024 07 27 18:10  18 46 37.91    -32 24 27.2   0.0113 1.0256 153.5  m  16?   2.51  19.0   19 243 110  53
   2024 07 27 18:20  18 46 38.61    -32 24 03.5   0.0113 1.0256 153.5  m  16?   2.55  21.6   17 242 110  53
   2024 07 27 18:30  18 46 39.41    -32 23 39.8   0.0113 1.0256 153.5  m  16?   2.60  24.2   15 241 110  53
   2024 07 27 18:40  18 46 40.31    -32 23 16.1   0.0113 1.0256 153.5  m  16?   2.66  26.8   13 240 111  53
   2024 07 27 18:50  18 46 41.31    -32 22 52.4   0.0113 1.0256 153.5  m  16?   2.71  29.2   12 239 111  53
   2024 07 27 19:00  18 46 42.41    -32 22 28.8   0.0113 1.0256 153.5  m  16?   2.77  31.6   10 238 111  53
   2024 07 27 19:10  18 46 43.61    -32 22 05.3   0.0113 1.0256 153.5  m  16?   2.83  33.9    8 237 111  53
   2024 07 27 19:20  18 46 44.91    -32 21 42.0   0.0113 1.0256 153.5  m  16?   2.89  36.1    6 236 111  53
   2024 07 27 19:30  18 46 46.31    -32 21 18.8   0.0113 1.0256 153.5  m  16?   2.95  38.3    4 234 111  53
   2024 07 27 19:40  18 46 47.80    -32 20 55.8   0.0113 1.0256 153.5 Am  16?   3.01  40.3    3 233 111  53
   2024 07 27 19:50  18 46 49.39    -32 20 33.0   0.0113 1.0256 153.5 Am  16?   3.07  42.3    1 232 111  53
   2024 07 27 20:00  18 46 51.08    -32 20 10.4   0.0113 1.0256 153.5 Nm  16?   3.14  44.2    0 231 111  53
   ................
   

INTEGRAL (JPL-ID: -198)

   Date (UTC) HH:MM   RA              Dec         delta   r     elong SM  mag  '/hr    PA   alt  az moo ill
   ---- -- -- -----  -------------   -----------  ------ ------ ----- --  --- ------ ------ --- --- --- ---
   2024 07 18 20:20  15 20 29.20    -71 36 06.6     7505 1.0162 116.5 Nt  12?  12018 141.5   13 186  47  91
   2024 07 18 20:30  23 19 23.58    -61 06 40.7     6112 1.0162 126.3 N   12?  16352  23.2   49 210  65  91
   2024 07 18 20:40  00 19 22.18    -22 37 50.2     7278 1.0162 118.7 Ce  12?  11318   9.8   61 279  90  91
   2024 07 18 20:50  00 33 09.67    +00 50 30.2     9910 1.0162 108.3 C   12? 6290.5   6.6   46 312 105  91
   ................
   2024 07 21 07:30  13 12 17.76    +45 33 03.4    59863 1.0159  66.8 Ct  16? 265.87 197.4   13 357 116  99
   2024 07 21 07:40  13 11 00.41    +44 49 32.4    58316 1.0159  66.6 Cm  16? 281.29 197.1   13 355 116  99
   2024 07 21 07:50  13 09 41.13    +44 03 22.9    56748 1.0159  66.4 Nm  16? 298.03 196.7   14 353 116  99
   2024 07 21 08:00  13 08 19.86    +43 14 20.7    55157 1.0159  66.3 Nm  16? 316.28 196.4   14 351 116  99
   2024 07 21 08:10  13 06 56.49    +42 22 09.6    53542 1.0159  66.1 Nm  16? 336.27 196.0   15 349 117  99
   2024 07 21 08:20  13 05 30.90    +41 26 31.3    51903 1.0159  66.0 Am  16? 358.25 195.7   15 346 117  99
   2024 07 21 08:30  13 04 02.91    +40 27 04.4    50237 1.0159  65.8 Am  16? 382.55 195.3   16 344 117  99
   2024 07 21 08:40  13 02 32.29    +39 23 24.2    48544 1.0159  65.6 Am  16? 409.56 195.0   16 341 117  99
   2024 07 21 08:50  13 00 58.70    +38 15 01.8    46822 1.0159  65.5  m  16? 439.76 194.6   16 339 117  99
   2024 07 21 09:00  12 59 21.76    +37 01 23.2    45069 1.0159  65.3  m  16? 473.77 194.3   16 336 117  99
   2024 07 21 09:10  12 57 40.91    +35 41 47.5    43282 1.0159  65.2  m  16? 512.33 194.1   16 333 118  99
   2024 07 21 09:20  12 55 55.46    +34 15 25.9    41461 1.0159  65.0  m  15? 556.44 193.8   16 330 118  99
   2024 07 21 09:30  12 54 04.50    +32 41 18.8    39602 1.0159  64.9  m  15? 607.35 193.6   17 327 118  99
   2024 07 21 09:40  12 52 06.81    +30 58 12.7    37703 1.0159  64.7  e  15? 666.71 193.5   17 324 118  99
   2024 07 21 09:50  12 50 00.79    +29 04 35.9    35761 1.0159  64.6  m  15? 736.76 193.4   16 321 118  99
   2024 07 21 10:00  12 47 44.23    +26 58 32.0    33774 1.0159  64.5  m  15? 820.51 193.3   16 317 118  99
   2024 07 21 10:10  12 45 14.13    +24 37 31.0    31736 1.0160  64.4  m  15? 922.20 193.4   16 313 118  99
   2024 07 21 10:20  12 42 26.21    +21 58 15.4    29647 1.0160  64.3  m  15? 1047.9 193.6   16 309 118  99
   2024 07 21 10:30  12 39 14.27    +18 56 19.7    27502 1.0160  64.3  m  15? 1206.3 194.0   16 304 118  99
   2024 07 21 10:40  12 35 28.96    +15 25 38.3    25298 1.0160  64.3  m  14? 1411.1 194.5   16 299 118  99
   2024 07 21 10:50  12 30 55.56    +11 17 33.2    23036 1.0160  64.4  m  14? 1683.2 195.3   16 294 117  99
   2024 07 21 11:00  12 25 09.64    +06 19 28.5    20717 1.0160  64.7  m  14? 2057.0 196.5   15 287 117  99
   2024 07 21 11:10  12 17 27.61    +00 12 27.9    18352 1.0160  65.0  m  14? 2590.6 198.3   15 279 116  99
   2024 07 21 11:20  12 06 24.40    -07 32 31.4    15970 1.0160  65.7  m  13? 3384.1 200.8   15 270 114  99
   2024 07 21 11:30  11 48 52.40    -17 39 07.8    13635 1.0160  66.9  m  13? 4604.9 205.0   14 257 112  99
   2024 07 21 11:40  11 16 44.73    -31 00 14.5    11497 1.0160  69.1  m  13? 6466.4 212.6   12 240 109  99
   2024 07 21 11:50  10 04 48.73    -47 11 06.7     9872 1.0160  72.8  m  12? 8871.6 229.6    7 218 104  99
   2024 07 21 12:00  07 15 42.17    -57 03 22.7     9261 1.0160  78.1  m  12?  10405 270.8    0 190  97  99
   ................
   2024 07 26 19:50  15 06 27.57    -69 28 05.3     7784 1.0156 111.6 At  12?  11452 144.3   11 185 115  64
   2024 07 26 20:00  22 57 44.86    -64 18 42.7     6239 1.0156 128.2 Nm  12?  16029  27.6   45 207  75  64
   2024 07 26 20:10  00 11 55.43    -25 53 15.1     7202 1.0156 127.6 Ne  12?  11733  10.8   60 272  36  64
   2024 07 26 20:20  00 27 53.33    -01 25 24.4     9737 1.0156 118.0 Nm  12? 6587.0   7.2   47 308  12  64
   2024 07 26 20:30  00 34 04.62    +12 48 15.6    12729 1.0156 110.8 Cm  13? 4022.0   5.1   35 319   8  64
   2024 07 26 20:40  00 36 58.39    +21 58 59.3    15771 1.0156 105.9 Cm  13? 2735.2   3.5   27 323  15  64
   ................
   

Spektr-R Observatory (JPL-ID: -557)

   Date (UTC) HH:MM   RA              Dec         delta   r     elong SM  mag  '/hr    PA   alt  az moo ill
   ---- -- -- -----  -------------   -----------  ------ ------ ----- --  --- ------ ------ --- --- --- ---
   2024 07 18 07:30  09 31 07.78    +41 22 50.7   370424 1.0141  29.3 Cm  17?   9.54 172.2    1 321 123  88
   2024 07 18 07:40  09 31 09.12    +41 21 15.1   370544 1.0141  29.3 Cm  17?   9.82 169.6    0 320 123  88
   ................
   2024 07 19 07:30  09 50 03.00    +40 22 13.5   356133 1.0141  31.2 Cm  17?   9.84 176.4    4 323 131  94
   2024 07 19 07:40  09 50 03.66    +40 20 33.9   356105 1.0141  31.2 Cm  17?  10.12 173.7    2 321 131  94
   2024 07 19 07:50  09 50 04.75    +40 18 52.0   356082 1.0142  31.2 Nm  17?  10.41 171.2    1 320 131  94
   2024 07 19 08:00  09 50 06.27    +40 17 07.9   356061 1.0142  31.2 Nm  17?  10.71 168.6    0 319 132  94
   ................
   2024 07 20 07:30  10 10 25.65    +39 01 21.2   320047 1.0143  33.5 Cm  17?  11.10 177.4    7 324 139  98
   2024 07 20 07:40  10 10 26.11    +38 59 28.4   319850 1.0143  33.5 Cm  17?  11.43 174.9    6 323 139  98
   2024 07 20 07:50  10 10 27.01    +38 57 32.6   319658 1.0143  33.5 Nm  17?  11.77 172.5    4 321 139  98
   2024 07 20 08:00  10 10 28.36    +38 55 34.2   319469 1.0143  33.5 Nm  17?  12.11 170.1    3 320 139  98
   2024 07 20 08:10  10 10 30.19    +38 53 33.2   319284 1.0143  33.5 Nm  17?  12.46 167.8    2 319 139  98
   2024 07 20 08:20  10 10 32.50    +38 51 29.7   319101 1.0143  33.5 Am  17?  12.83 165.5    0 317 139  98
   ................
   2024 07 21 07:30  10 36 14.65    +36 54 37.0   257019 1.0147  37.0 Cm  16?  14.74 173.2   11 327 145  99
   2024 07 21 07:40  10 36 16.02    +36 52 07.5   256592 1.0147  37.0 Cm  16?  15.23 171.2   10 325 145  99
   2024 07 21 07:50  10 36 17.88    +36 49 33.9   256170 1.0147  37.0 Nm  16?  15.73 169.3    9 323 145  99
   2024 07 21 08:00  10 36 20.25    +36 46 56.5   255752 1.0147  37.0 Nm  16?  16.24 167.3    7 322 145  99
   2024 07 21 08:10  10 36 23.15    +36 44 15.2   255337 1.0147  37.0 Nm  16?  16.75 165.4    6 320 145  99
   2024 07 21 08:20  10 36 26.61    +36 41 30.3   254925 1.0147  37.0 Am  16?  17.28 163.5    5 319 146  99
   2024 07 21 08:30  10 36 30.65    +36 38 41.9   254516 1.0147  37.0 Am  16?  17.81 161.6    3 317 146  99
   2024 07 21 08:40  10 36 35.28    +36 35 50.3   254110 1.0147  37.0 Am  16?  18.36 159.8    2 316 146  99
   2024 07 21 08:50  10 36 40.52    +36 32 55.5   253706 1.0147  37.0  m  16?  18.91 158.0    1 314 146  99
   2024 07 21 09:00  10 36 46.40    +36 29 57.8   253304 1.0147  37.0  m  16?  19.48 156.2    0 313 146  99
   ................
   2024 07 22 07:30  11 23 05.61    +31 57 41.3   150867 1.0152  45.1 C   15?  35.16 156.2   20 332 147  98
   2024 07 22 07:40  11 23 16.36    +31 52 13.7   149983 1.0152  45.1 C   15?  36.45 155.6   19 330 147  98
   2024 07 22 07:50  11 23 27.83    +31 46 36.2   149101 1.0153  45.1 N   15?  37.76 154.8   18 328 147  98
   2024 07 22 08:00  11 23 40.07    +31 40 48.7   148221 1.0153  45.2 N   15?  39.11 154.1   17 326 147  98
   2024 07 22 08:10  11 23 53.12    +31 34 51.3   147342 1.0153  45.2 Nm  15?  40.49 153.3   16 324 147  98
   2024 07 22 08:20  11 24 07.04    +31 28 43.9   146463 1.0153  45.2 Am  15?  41.90 152.5   15 322 147  98
   2024 07 22 08:30  11 24 21.87    +31 22 26.8   145586 1.0153  45.3 Am  15?  43.34 151.7   13 320 147  98
   2024 07 22 08:40  11 24 37.67    +31 15 59.9   144709 1.0153  45.3 Am  15?  44.82 150.8   12 319 147  98
   2024 07 22 08:50  11 24 54.47    +31 09 23.3   143832 1.0153  45.4  m  15?  46.33 149.9   11 317 147  98
   2024 07 22 09:00  11 25 12.32    +31 02 37.0   142955 1.0153  45.4  m  15?  47.88 149.0   10 315 147  98
   2024 07 22 09:10  11 25 31.28    +30 55 41.2   142077 1.0153  45.5  m  15?  49.47 148.1    8 314 147  98
   2024 07 22 09:20  11 25 51.38    +30 48 36.0   141199 1.0153  45.6  m  15?  51.09 147.2    7 312 147  98
   2024 07 22 09:30  11 26 12.66    +30 41 21.3   140319 1.0153  45.6  m  15?  52.75 146.3    5 311 147  98
   2024 07 22 09:40  11 26 35.17    +30 33 57.4   139437 1.0153  45.7  m  15?  54.46 145.4    4 309 147  98
   2024 07 22 09:50  11 26 58.96    +30 26 24.3   138554 1.0153  45.8  m  15?  56.20 144.5    2 308 147  98
   2024 07 22 10:00  11 27 24.06    +30 18 42.1   137667 1.0153  45.9  m  15?  57.98 143.6    1 306 147  98
   2024 07 22 10:10  11 27 50.51    +30 10 50.9   136779 1.0153  45.9  m  15?  59.80 142.7    0 305 147  98
   ................
   

Euclid (JPL-ID: -680)

   Date (UTC) HH:MM   RA              Dec         delta   r     elong SM  mag  '/hr    PA   alt  az moo ill
   ---- -- -- -----  -------------   -----------  ------ ------ ----- --  --- ------ ------ --- --- --- ---
   2024 07 14 07:50  19 34 49.87    -07 55 29.9   0.0117 1.0278 166.2 Nm  21?   0.58 123.5    0  99  88  53
   2024 07 14 08:00  19 34 50.15    -07 55 33.1   0.0117 1.0278 166.2 Nm  21?   0.48 131.7    2  97  88  53
   2024 07 14 08:10  19 34 50.35    -07 55 36.3   0.0117 1.0278 166.2 Nm  21?   0.40 143.7    4  96  88  53
   2024 07 14 08:20  19 34 50.47    -07 55 39.5   0.0117 1.0278 166.2 Am  21?   0.34 160.7    6  95  88  53
   2024 07 14 08:30  19 34 50.50    -07 55 42.7   0.0117 1.0278 166.2 Am  21?   0.32 181.9    8  94  88  53
   2024 07 14 08:40  19 34 50.45    -07 55 45.9   0.0117 1.0278 166.2 Am  21?   0.34 202.7   10  92  88  53
   2024 07 14 08:50  19 34 50.32    -07 55 49.1   0.0117 1.0278 166.2  m  21?   0.41 218.9   12  91  88  53
   2024 07 14 09:00  19 34 50.11    -07 55 52.2   0.0117 1.0278 166.3  m  21?   0.49 230.2   14  90  88  53
   2024 07 14 09:10  19 34 49.82    -07 55 55.3   0.0117 1.0278 166.3  m  21?   0.58 238.1   17  88  88  53
   2024 07 14 09:20  19 34 49.44    -07 55 58.3   0.0117 1.0278 166.3  m  21?   0.68 243.6   19  87  88  54
   2024 07 14 09:30  19 34 48.99    -07 56 01.3   0.0117 1.0278 166.3  m  21?   0.79 247.7   21  86  87  54
   2024 07 14 09:40  19 34 48.46    -07 56 04.3   0.0117 1.0278 166.3  m  21?   0.89 250.9   23  84  87  54
   2024 07 14 09:50  19 34 47.85    -07 56 07.2   0.0117 1.0278 166.3  m  21?   1.00 253.3   25  83  87  54
   2024 07 14 10:00  19 34 47.17    -07 56 10.0   0.0117 1.0278 166.3  m  21?   1.10 255.3   27  82  87  54
   2024 07 14 10:10  19 34 46.41    -07 56 12.7   0.0117 1.0278 166.3  m  21?   1.21 257.0   29  80  87  54
   2024 07 14 10:20  19 34 45.58    -07 56 15.3   0.0117 1.0278 166.3  m  21?   1.31 258.4   32  79  87  54
   2024 07 14 10:30  19 34 44.69    -07 56 17.9   0.0117 1.0278 166.3  m  21?   1.41 259.6   34  77  87  54
   2024 07 14 10:40  19 34 43.72    -07 56 20.3   0.0117 1.0278 166.3  m  21?   1.50 260.7   36  75  87  54
   2024 07 14 10:50  19 34 42.69    -07 56 22.6   0.0117 1.0278 166.3  m  21?   1.60 261.6   38  74  87  54
   2024 07 14 11:00  19 34 41.59    -07 56 24.9   0.0117 1.0278 166.3  m  21?   1.69 262.4   40  72  87  54
   2024 07 14 11:10  19 34 40.44    -07 56 27.0   0.0117 1.0278 166.3  m  21?   1.77 263.2   42  70  87  54
   2024 07 14 11:20  19 34 39.22    -07 56 29.0   0.0117 1.0278 166.3  m  21?   1.86 263.8   44  68  87  54
   2024 07 14 11:30  19 34 37.95    -07 56 30.9   0.0117 1.0278 166.3  m  21?   1.94 264.5   46  66  87  54
   2024 07 14 11:40  19 34 36.63    -07 56 32.6   0.0117 1.0278 166.3  m  21?   2.01 265.1   48  63  87  54
   2024 07 14 11:50  19 34 35.25    -07 56 34.2   0.0117 1.0278 166.3  m  21?   2.08 265.6   50  61  87  54
   2024 07 14 12:00  19 34 33.83    -07 56 35.7   0.0117 1.0278 166.3  m  21?   2.15 266.1   52  58  87  54
   2024 07 14 12:10  19 34 32.37    -07 56 37.0   0.0117 1.0278 166.3  m  21?   2.21 266.6   53  55  87  54
   2024 07 14 12:20  19 34 30.86    -07 56 38.2   0.0117 1.0278 166.3  m  21?   2.27 267.0   55  52  86  54
   2024 07 14 12:30  19 34 29.32    -07 56 39.2   0.0117 1.0278 166.3  m  21?   2.32 267.5   57  49  86  54
   2024 07 14 12:40  19 34 27.74    -07 56 40.0   0.0117 1.0278 166.3  m  21?   2.37 267.9   58  45  86  54
   2024 07 14 12:50  19 34 26.13    -07 56 40.8   0.0117 1.0278 166.3  m  21?   2.41 268.3   60  41  86  54
   2024 07 14 13:00  19 34 24.49    -07 56 41.3   0.0117 1.0278 166.3  m  21?   2.45 268.7   61  37  86  55
   2024 07 14 13:10  19 34 22.83    -07 56 41.7   0.0117 1.0278 166.3  m  21?   2.49 269.1   63  33  86  55
   2024 07 14 13:20  19 34 21.14    -07 56 41.9   0.0117 1.0278 166.3  m  21?   2.51 269.5   64  28  86  55
   2024 07 14 13:30  19 34 19.44    -07 56 42.0   0.0117 1.0278 166.3  m  21?   2.54 269.9   65  22  86  55
   2024 07 14 13:40  19 34 17.73    -07 56 41.9   0.0117 1.0278 166.3  m  21?   2.55 270.2   65  16  86  55
   2024 07 14 13:50  19 34 16.01    -07 56 41.6   0.0117 1.0278 166.3  m  21?   2.57 270.6   66  10  86  55
   2024 07 14 14:00  19 34 14.28    -07 56 41.2   0.0117 1.0278 166.3  m  21?   2.57 271.0   66   4  86  55
   2024 07 14 14:10  19 34 12.54    -07 56 40.5   0.0117 1.0278 166.3  t  21?   2.58 271.4   66 358  86  55
   2024 07 14 14:20  19 34 10.81    -07 56 39.8   0.0117 1.0278 166.3  m  21?   2.57 271.7   66 352  86  55
   2024 07 14 14:30  19 34 09.08    -07 56 38.8   0.0117 1.0278 166.3  m  21?   2.56 272.1   66 346  85  55
   2024 07 14 14:40  19 34 07.37    -07 56 37.7   0.0117 1.0278 166.3  m  21?   2.55 272.5   65 340  85  55
   2024 07 14 14:50  19 34 05.66    -07 56 36.4   0.0117 1.0278 166.3  m  21?   2.53 272.9   64 334  85  55
   2024 07 14 15:00  19 34 03.97    -07 56 35.0   0.0117 1.0278 166.3     21?   2.50 273.3   63 329  85  55
   2024 07 14 15:10  19 34 02.30    -07 56 33.4   0.0117 1.0278 166.3     21?   2.47 273.7   62 324  85  55
   2024 07 14 15:20  19 34 00.65    -07 56 31.6   0.0117 1.0278 166.3     21?   2.44 274.2   61 320  85  55
   2024 07 14 15:30  19 33 59.02    -07 56 29.7   0.0117 1.0278 166.3     21?   2.40 274.6   59 316  85  56
   2024 07 14 15:40  19 33 57.43    -07 56 27.6   0.0117 1.0278 166.3     21?   2.35 275.1   58 312  85  56
   2024 07 14 15:50  19 33 55.87    -07 56 25.3   0.0117 1.0278 166.3     21?   2.30 275.6   56 308  85  56
   2024 07 14 16:00  19 33 54.35    -07 56 23.0   0.0117 1.0278 166.3     21?   2.25 276.1   54 305  85  56
   2024 07 14 16:10  19 33 52.86    -07 56 20.4   0.0117 1.0278 166.3     21?   2.19 276.7   52 302  85  56
   2024 07 14 16:20  19 33 51.42    -07 56 17.7   0.0117 1.0278 166.3     21?   2.13 277.3   51 299  84  56
   2024 07 14 16:30  19 33 50.03    -07 56 14.9   0.0117 1.0278 166.3     21?   2.06 277.9   49 297  84  56
   2024 07 14 16:40  19 33 48.68    -07 56 12.0   0.0117 1.0278 166.3     21?   1.99 278.6   47 294  84  56
   2024 07 14 16:50  19 33 47.39    -07 56 08.9   0.0117 1.0278 166.3     21?   1.91 279.3   45 292  84  56
   2024 07 14 17:00  19 33 46.15    -07 56 05.7   0.0117 1.0278 166.3     21?   1.83 280.1   43 290  84  56
   2024 07 14 17:10  19 33 44.96    -07 56 02.4   0.0117 1.0278 166.3     21?   1.75 281.0   41 288  84  56
   2024 07 14 17:20  19 33 43.84    -07 55 58.9   0.0117 1.0278 166.3     21?   1.66 282.0   39 286  84  56
   2024 07 14 17:30  19 33 42.78    -07 55 55.4   0.0117 1.0278 166.3     21?   1.57 283.1   37 285  84  56
   2024 07 14 17:40  19 33 41.79    -07 55 51.7   0.0117 1.0278 166.3     21?   1.48 284.3   35 283  84  57
   2024 07 14 17:50  19 33 40.86    -07 55 48.0   0.0117 1.0278 166.3     21?   1.38 285.8   33 281  84  57
   2024 07 14 18:00  19 33 40.00    -07 55 44.2   0.0117 1.0278 166.3     21?   1.28 287.4   30 280  83  57
   2024 07 14 18:10  19 33 39.21    -07 55 40.2   0.0117 1.0278 166.3     21?   1.18 289.3   28 278  83  57
   2024 07 14 18:20  19 33 38.50    -07 55 36.2   0.0117 1.0278 166.3     21?   1.08 291.6   26 277  83  57
   2024 07 14 18:30  19 33 37.86    -07 55 32.2   0.0117 1.0278 166.3     21?   0.98 294.4   24 275  83  57
   2024 07 14 18:40  19 33 37.29    -07 55 28.0   0.0117 1.0278 166.3     21?   0.88 297.9   22 274  83  57
   2024 07 14 18:50  19 33 36.81    -07 55 23.9   0.0117 1.0278 166.3     21?   0.79 302.2   20 273  83  57
   2024 07 14 19:00  19 33 36.40    -07 55 19.6   0.0117 1.0278 166.3     21?   0.69 307.7   18 271  83  57
   2024 07 14 19:10  19 33 36.07    -07 55 15.3   0.0117 1.0278 166.3     21?   0.61 314.9   16 270  83  57
   2024 07 14 19:20  19 33 35.82    -07 55 11.0   0.0117 1.0278 166.3     21?   0.53 324.4   13 269  83  57
   2024 07 14 19:30  19 33 35.66    -07 55 06.7   0.0117 1.0278 166.3     21?   0.47 336.7   11 267  82  58
   2024 07 14 19:40  19 33 35.57    -07 55 02.3   0.0117 1.0278 166.3 A   21?   0.44 351.5    9 266  82  58
   2024 07 14 19:50  19 33 35.57    -07 54 57.9   0.0117 1.0278 166.3 A   21?   0.44   7.5    7 265  82  58
   2024 07 14 20:00  19 33 35.65    -07 54 53.6   0.0117 1.0278 166.3 A   21?   0.47  22.4    5 264  82  58
   2024 07 14 20:10  19 33 35.82    -07 54 49.2   0.0117 1.0278 166.3 N   21?   0.53  34.8    3 262  82  58
   2024 07 14 20:20  19 33 36.06    -07 54 44.8   0.0117 1.0278 166.3 N   21?   0.61  44.3    1 261  82  58
   ................
   2024 07 15 07:50  19 35 14.57    -07 54 14.2   0.0117 1.0278 166.3 Nm  21?   0.57 126.7    0  98  76  63
   2024 07 15 08:00  19 35 14.83    -07 54 17.6   0.0117 1.0278 166.3 Nm  21?   0.48 135.6    2  97  76  63
   2024 07 15 08:10  19 35 15.02    -07 54 21.1   0.0117 1.0278 166.3 Nm  21?   0.40 148.3    4  96  76  63
   2024 07 15 08:20  19 35 15.12    -07 54 24.5   0.0117 1.0278 166.3 Am  21?   0.35 165.6    7  94  76  63
   2024 07 15 08:30  19 35 15.13    -07 54 27.9   0.0117 1.0278 166.3 Am  21?   0.34 185.8    9  93  76  63
   2024 07 15 08:40  19 35 15.07    -07 54 31.3   0.0117 1.0278 166.3 Am  21?   0.37 204.9   11  92  76  63
   2024 07 15 08:50  19 35 14.92    -07 54 34.6   0.0117 1.0278 166.3  m  21?   0.44 219.6   13  91  76  63
   2024 07 15 09:00  19 35 14.69    -07 54 38.0   0.0117 1.0278 166.4  m  21?   0.52 230.1   15  89  76  63
   2024 07 15 09:10  19 35 14.38    -07 54 41.3   0.0117 1.0278 166.4  m  21?   0.61 237.6   17  88  76  63
   2024 07 15 09:20  19 35 13.99    -07 54 44.5   0.0117 1.0278 166.4  m  21?   0.71 243.0   19  87  76  63
   2024 07 15 09:30  19 35 13.53    -07 54 47.7   0.0117 1.0278 166.4  m  21?   0.82 247.0   22  85  76  63
   2024 07 15 09:40  19 35 12.98    -07 54 50.8   0.0117 1.0278 166.4  m  21?   0.92 250.1   24  84  76  63
   2024 07 15 09:50  19 35 12.36    -07 54 53.9   0.0117 1.0278 166.4  m  21?   1.02 252.6   26  82  76  63
   2024 07 15 10:00  19 35 11.67    -07 54 56.9   0.0117 1.0278 166.4  m  21?   1.13 254.7   28  81  76  63
   2024 07 15 10:10  19 35 10.90    -07 54 59.8   0.0117 1.0278 166.4  m  21?   1.23 256.3   30  80  76  63
   2024 07 15 10:20  19 35 10.06    -07 55 02.6   0.0117 1.0278 166.4  m  21?   1.33 257.8   32  78  76  63
   2024 07 15 10:30  19 35 09.15    -07 55 05.4   0.0117 1.0278 166.4  m  21?   1.43 259.0   34  76  76  63
   2024 07 15 10:40  19 35 08.17    -07 55 08.0   0.0117 1.0278 166.4  m  21?   1.52 260.1   36  75  76  63
   2024 07 15 10:50  19 35 07.13    -07 55 10.5   0.0117 1.0278 166.4  m  21?   1.61 261.0   38  73  76  64
   2024 07 15 11:00  19 35 06.03    -07 55 12.9   0.0117 1.0278 166.4  m  21?   1.70 261.9   41  71  76  64
   2024 07 15 11:10  19 35 04.87    -07 55 15.2   0.0117 1.0278 166.4  m  21?   1.79 262.6   43  69  75  64
   2024 07 15 11:20  19 35 03.65    -07 55 17.4   0.0117 1.0278 166.4  m  21?   1.87 263.3   45  67  75  64
   2024 07 15 11:30  19 35 02.37    -07 55 19.4   0.0117 1.0278 166.4  m  21?   1.94 264.0   47  65  75  64
   2024 07 15 11:40  19 35 01.04    -07 55 21.3   0.0117 1.0278 166.4  m  21?   2.02 264.6   48  63  75  64
   2024 07 15 11:50  19 34 59.66    -07 55 23.1   0.0117 1.0278 166.4  m  21?   2.09 265.1   50  60  75  64
   2024 07 15 12:00  19 34 58.24    -07 55 24.7   0.0117 1.0278 166.4  m  21?   2.15 265.7   52  57  75  64
   2024 07 15 12:10  19 34 56.77    -07 55 26.2   0.0117 1.0278 166.4  m  21?   2.21 266.2   54  54  75  64
   2024 07 15 12:20  19 34 55.27    -07 55 27.6   0.0117 1.0278 166.4  m  21?   2.27 266.6   56  51  75  64
   2024 07 15 12:30  19 34 53.73    -07 55 28.7   0.0117 1.0278 166.4  m  21?   2.32 267.1   57  48  75  64
   2024 07 15 12:40  19 34 52.15    -07 55 29.8   0.0117 1.0278 166.4  m  21?   2.37 267.5   59  44  75  64
   2024 07 15 12:50  19 34 50.54    -07 55 30.6   0.0117 1.0278 166.4  m  21?   2.41 267.9   60  40  75  64
   2024 07 15 13:00  19 34 48.91    -07 55 31.4   0.0117 1.0278 166.4  m  21?   2.44 268.3   62  36  75  64
   2024 07 15 13:10  19 34 47.25    -07 55 31.9   0.0117 1.0278 166.4  m  21?   2.48 268.7   63  31  75  64
   2024 07 15 13:20  19 34 45.58    -07 55 32.3   0.0117 1.0278 166.4  m  21?   2.50 269.1   64  26  75  64
   2024 07 15 13:30  19 34 43.89    -07 55 32.5   0.0117 1.0278 166.4  m  21?   2.52 269.5   65  20  75  64
   2024 07 15 13:40  19 34 42.18    -07 55 32.6   0.0117 1.0278 166.4  m  21?   2.54 269.9   65  14  74  64
   2024 07 15 13:50  19 34 40.47    -07 55 32.5   0.0117 1.0278 166.4  m  21?   2.55 270.3   66   8  74  64
   2024 07 15 14:00  19 34 38.75    -07 55 32.2   0.0117 1.0278 166.4  m  21?   2.55 270.6   66   2  74  64
   2024 07 15 14:10  19 34 37.03    -07 55 31.8   0.0117 1.0278 166.4  t  21?   2.55 271.0   66 356  74  64
   2024 07 15 14:20  19 34 35.32    -07 55 31.1   0.0117 1.0278 166.4  m  21?   2.55 271.4   66 350  74  65
   2024 07 15 14:30  19 34 33.61    -07 55 30.4   0.0117 1.0278 166.4  m  21?   2.54 271.8   65 344  74  65
   2024 07 15 14:40  19 34 31.91    -07 55 29.4   0.0117 1.0278 166.4  m  21?   2.52 272.2   65 338  74  65
   2024 07 15 14:50  19 34 30.22    -07 55 28.3   0.0117 1.0278 166.4  m  21?   2.50 272.6   64 332  74  65
   2024 07 15 15:00  19 34 28.55    -07 55 27.0   0.0117 1.0278 166.4  m  21?   2.47 273.0   63 327  74  65
   2024 07 15 15:10  19 34 26.90    -07 55 25.6   0.0117 1.0278 166.4  m  21?   2.44 273.4   61 323  74  65
   2024 07 15 15:20  19 34 25.27    -07 55 24.0   0.0117 1.0278 166.4  m  21?   2.40 273.8   60 318  74  65
   2024 07 15 15:30  19 34 23.67    -07 55 22.2   0.0117 1.0278 166.4  m  21?   2.36 274.3   59 314  74  65
   2024 07 15 15:40  19 34 22.10    -07 55 20.3   0.0117 1.0278 166.4  m  21?   2.31 274.8   57 311  73  65
   2024 07 15 15:50  19 34 20.57    -07 55 18.3   0.0117 1.0278 166.4  m  21?   2.26 275.2   55 307  73  65
   2024 07 15 16:00  19 34 19.07    -07 55 16.0   0.0117 1.0278 166.4     21?   2.21 275.8   54 304  73  65
   2024 07 15 16:10  19 34 17.62    -07 55 13.7   0.0117 1.0278 166.4     21?   2.14 276.3   52 301  73  65
   2024 07 15 16:20  19 34 16.21    -07 55 11.2   0.0117 1.0278 166.4     21?   2.08 276.9   50 299  73  65
   2024 07 15 16:30  19 34 14.84    -07 55 08.5   0.0117 1.0278 166.4     21?   2.01 277.6   48 296  73  65
   2024 07 15 16:40  19 34 13.53    -07 55 05.8   0.0117 1.0278 166.4     21?   1.94 278.2   46 294  73  65
   2024 07 15 16:50  19 34 12.27    -07 55 02.9   0.0117 1.0278 166.4     21?   1.86 279.0   44 292  73  66
   2024 07 15 17:00  19 34 11.06    -07 54 59.9   0.0117 1.0278 166.4     21?   1.78 279.8   42 290  73  66
   2024 07 15 17:10  19 34 09.91    -07 54 56.7   0.0117 1.0278 166.4     21?   1.69 280.7   40 288  73  66
   2024 07 15 17:20  19 34 08.83    -07 54 53.5   0.0117 1.0278 166.4     21?   1.60 281.7   38 286  73  66
   2024 07 15 17:30  19 34 07.80    -07 54 50.1   0.0117 1.0278 166.4     21?   1.51 282.8   36 284  72  66
   2024 07 15 17:40  19 34 06.85    -07 54 46.7   0.0117 1.0278 166.4     21?   1.42 284.1   34 282  72  66
   2024 07 15 17:50  19 34 05.96    -07 54 43.1   0.0117 1.0278 166.3     21?   1.32 285.6   32 281  72  66
   2024 07 15 18:00  19 34 05.14    -07 54 39.5   0.0117 1.0278 166.3     21?   1.22 287.3   30 279  72  66
   2024 07 15 18:10  19 34 04.39    -07 54 35.8   0.0117 1.0278 166.3     21?   1.12 289.3   28 278  72  66
   2024 07 15 18:20  19 34 03.71    -07 54 32.0   0.0117 1.0278 166.3     21?   1.02 291.8   25 276  72  66
   2024 07 15 18:30  19 34 03.11    -07 54 28.1   0.0117 1.0278 166.3     21?   0.92 294.8   23 275  72  66
   2024 07 15 18:40  19 34 02.59    -07 54 24.2   0.0117 1.0278 166.3     21?   0.82 298.5   21 273  72  66
   2024 07 15 18:50  19 34 02.14    -07 54 20.2   0.0117 1.0278 166.3     21?   0.72 303.3   19 272  72  66
   2024 07 15 19:00  19 34 01.77    -07 54 16.2   0.0117 1.0278 166.3     21?   0.63 309.6   17 271  71  67
   2024 07 15 19:10  19 34 01.49    -07 54 12.2   0.0117 1.0278 166.3     21?   0.55 317.9   15 270  71  67
   2024 07 15 19:20  19 34 01.28    -07 54 08.1   0.0117 1.0278 166.3     21?   0.48 329.0   13 268  71  67
   2024 07 15 19:30  19 34 01.16    -07 54 03.9   0.0117 1.0278 166.3     21?   0.43 343.1   10 267  71  67
   2024 07 15 19:40  19 34 01.11    -07 53 59.8   0.0117 1.0278 166.3 A   21?   0.41 359.6    8 266  71  67
   2024 07 15 19:50  19 34 01.15    -07 53 55.7   0.0117 1.0278 166.3 A   21?   0.43  16.2    6 264  71  67
   2024 07 15 20:00  19 34 01.28    -07 53 51.5   0.0117 1.0278 166.3 A   21?   0.48  30.4    4 263  71  67
   2024 07 15 20:10  19 34 01.48    -07 53 47.4   0.0117 1.0278 166.3 N   21?   0.55  41.4    2 262  71  67
   2024 07 15 20:20  19 34 01.77    -07 53 43.2   0.0117 1.0278 166.3 N   21?   0.64  49.8    0 261  71  67
   ................
   2024 07 16 07:50  19 35 41.13    -07 53 30.2   0.0117 1.0278 166.4 Nm  21?   0.56 129.8    1  98  65  72
   2024 07 16 08:00  19 35 41.38    -07 53 33.9   0.0117 1.0278 166.4 Nm  21?   0.48 139.4    3  96  65  72
   2024 07 16 08:10  19 35 41.54    -07 53 37.5   0.0117 1.0278 166.4 Nm  21?   0.41 152.6    5  95  65  72
   2024 07 16 08:20  19 35 41.63    -07 53 41.1   0.0117 1.0278 166.4 Am  21?   0.37 169.8    7  94  65  72
   2024 07 16 08:30  19 35 41.63    -07 53 44.7   0.0117 1.0278 166.4 Am  21?   0.36 189.1   10  93  65  72
   2024 07 16 08:40  19 35 41.55    -07 53 48.3   0.0117 1.0278 166.4 Am  21?   0.40 206.6   12  91  65  72
   2024 07 16 08:50  19 35 41.39    -07 53 51.9   0.0117 1.0278 166.4  m  21?   0.47 220.2   14  90  65  72
   2024 07 16 09:00  19 35 41.14    -07 53 55.4   0.0117 1.0278 166.4  m  21?   0.55 230.1   16  89  64  72
   2024 07 16 09:10  19 35 40.82    -07 53 58.9   0.0117 1.0278 166.4  m  21?   0.64 237.2   18  87  64  72
   2024 07 16 09:20  19 35 40.42    -07 54 02.3   0.0117 1.0278 166.4  m  21?   0.74 242.4   20  86  64  72
   2024 07 16 09:30  19 35 39.93    -07 54 05.7   0.0117 1.0278 166.4  m  21?   0.84 246.4   22  85  64  73
   2024 07 16 09:40  19 35 39.38    -07 54 09.0   0.0117 1.0278 166.4  m  21?   0.94 249.5   24  83  64  73
   2024 07 16 09:50  19 35 38.74    -07 54 12.2   0.0117 1.0278 166.4  m  21?   1.05 252.0   27  82  64  73
   2024 07 16 10:00  19 35 38.04    -07 54 15.4   0.0117 1.0278 166.4  m  21?   1.15 254.0   29  80  64  73
   2024 07 16 10:10  19 35 37.26    -07 54 18.5   0.0117 1.0277 166.4  m  21?   1.25 255.7   31  79  64  73
   2024 07 16 10:20  19 35 36.41    -07 54 21.5   0.0117 1.0277 166.4  m  21?   1.35 257.2   33  77  64  73
   2024 07 16 10:30  19 35 35.49    -07 54 24.4   0.0117 1.0277 166.4  m  21?   1.44 258.4   35  76  64  73
   2024 07 16 10:40  19 35 34.50    -07 54 27.2   0.0117 1.0277 166.4  m  21?   1.54 259.5   37  74  64  73
   2024 07 16 10:50  19 35 33.45    -07 54 29.9   0.0117 1.0277 166.4  m  21?   1.63 260.5   39  72  64  73
   2024 07 16 11:00  19 35 32.34    -07 54 32.4   0.0117 1.0277 166.4  m  21?   1.71 261.4   41  70  64  73
   2024 07 16 11:10  19 35 31.17    -07 54 34.9   0.0117 1.0277 166.4  m  21?   1.80 262.2   43  68  64  73
   2024 07 16 11:20  19 35 29.95    -07 54 37.2   0.0117 1.0277 166.4  m  21?   1.88 262.9   45  66  64  73
   2024 07 16 11:30  19 35 28.67    -07 54 39.4   0.0117 1.0277 166.4  m  21?   1.95 263.5   47  64  64  73
   2024 07 16 11:40  19 35 27.34    -07 54 41.5   0.0117 1.0277 166.4  m  21?   2.02 264.1   49  62  64  73
   2024 07 16 11:50  19 35 25.96    -07 54 43.4   0.0117 1.0277 166.4  m  21?   2.09 264.7   51  59  64  73
   2024 07 16 12:00  19 35 24.53    -07 54 45.2   0.0117 1.0277 166.4  m  21?   2.16 265.3   53  56  64  73
   2024 07 16 12:10  19 35 23.06    -07 54 46.9   0.0117 1.0277 166.4  m  21?   2.21 265.8   55  53  63  73
   2024 07 16 12:20  19 35 21.56    -07 54 48.4   0.0117 1.0277 166.4  m  21?   2.27 266.2   56  50  63  73
   2024 07 16 12:30  19 35 20.02    -07 54 49.7   0.0117 1.0277 166.4  m  21?   2.32 266.7   58  47  63  73
   2024 07 16 12:40  19 35 18.45    -07 54 50.9   0.0117 1.0277 166.4  m  21?   2.36 267.1   59  43  63  73
   2024 07 16 12:50  19 35 16.84    -07 54 51.9   0.0117 1.0277 166.4  m  21?   2.40 267.6   61  38  63  73
   2024 07 16 13:00  19 35 15.22    -07 54 52.8   0.0117 1.0277 166.4  m  21?   2.44 268.0   62  34  63  73
   2024 07 16 13:10  19 35 13.57    -07 54 53.5   0.0117 1.0277 166.4  m  21?   2.47 268.4   63  29  63  73
   2024 07 16 13:20  19 35 11.90    -07 54 54.0   0.0117 1.0277 166.4  m  21?   2.49 268.8   64  24  63  73
   2024 07 16 13:30  19 35 10.22    -07 54 54.4   0.0117 1.0277 166.4  m  21?   2.51 269.2   65  18  63  73
   2024 07 16 13:40  19 35 08.53    -07 54 54.6   0.0117 1.0277 166.4  m  21?   2.52 269.5   66  12  63  73
   2024 07 16 13:50  19 35 06.82    -07 54 54.7   0.0117 1.0277 166.4  m  21?   2.53 269.9   66   6  63  74
   2024 07 16 14:00  19 35 05.12    -07 54 54.5   0.0117 1.0277 166.4  m  21?   2.53 270.3   66   0  63  74
   2024 07 16 14:10  19 35 03.42    -07 54 54.2   0.0117 1.0277 166.4  t  21?   2.53 270.7   66 354  63  74
   2024 07 16 14:20  19 35 01.72    -07 54 53.8   0.0117 1.0277 166.4  m  21?   2.52 271.1   66 347  63  74
   2024 07 16 14:30  19 35 00.02    -07 54 53.2   0.0117 1.0277 166.4  m  21?   2.51 271.4   65 342  62  74
   2024 07 16 14:40  19 34 58.34    -07 54 52.4   0.0117 1.0277 166.4  m  21?   2.49 271.8   64 336  62  74
   2024 07 16 14:50  19 34 56.67    -07 54 51.4   0.0117 1.0277 166.4  m  21?   2.47 272.2   63 331  62  74
   2024 07 16 15:00  19 34 55.02    -07 54 50.3   0.0117 1.0277 166.4  m  21?   2.44 272.7   62 326  62  74
   2024 07 16 15:10  19 34 53.39    -07 54 49.0   0.0117 1.0277 166.4  m  21?   2.41 273.1   61 321  62  74
   2024 07 16 15:20  19 34 51.79    -07 54 47.5   0.0117 1.0277 166.4  m  21?   2.37 273.5   60 317  62  74
   2024 07 16 15:30  19 34 50.22    -07 54 45.9   0.0117 1.0277 166.4  m  21?   2.32 274.0   58 313  62  74
   2024 07 16 15:40  19 34 48.67    -07 54 44.2   0.0117 1.0277 166.4  m  21?   2.27 274.4   56 309  62  74
   2024 07 16 15:50  19 34 47.17    -07 54 42.3   0.0117 1.0277 166.4  m  21?   2.22 274.9   55 306  62  74
   2024 07 16 16:00  19 34 45.70    -07 54 40.2   0.0117 1.0277 166.4  m  21?   2.16 275.5   53 303  62  74
   2024 07 16 16:10  19 34 44.27    -07 54 38.0   0.0117 1.0277 166.4  m  21?   2.10 276.0   51 300  62  74
   2024 07 16 16:20  19 34 42.89    -07 54 35.7   0.0117 1.0277 166.4  m  21?   2.03 276.6   49 298  62  74
   2024 07 16 16:30  19 34 41.56    -07 54 33.2   0.0117 1.0277 166.4  m  21?   1.96 277.3   47 295  61  74
   2024 07 16 16:40  19 34 40.28    -07 54 30.6   0.0117 1.0277 166.4  m  21?   1.88 277.9   45 293  61  74
   2024 07 16 16:50  19 34 39.05    -07 54 27.9   0.0117 1.0277 166.4  m  21?   1.81 278.7   43 291  61  75
   2024 07 16 17:00  19 34 37.87    -07 54 25.1   0.0117 1.0277 166.4     21?   1.72 279.5   41 289  61  75
   2024 07 16 17:10  19 34 36.76    -07 54 22.1   0.0117 1.0277 166.4     21?   1.64 280.4   39 287  61  75
   2024 07 16 17:20  19 34 35.71    -07 54 19.0   0.0117 1.0277 166.4     21?   1.55 281.5   37 285  61  75
   2024 07 16 17:30  19 34 34.72    -07 54 15.9   0.0117 1.0277 166.4     21?   1.45 282.6   35 283  61  75
   2024 07 16 17:40  19 34 33.80    -07 54 12.6   0.0117 1.0277 166.4     21?   1.36 284.0   33 282  61  75
   2024 07 16 17:50  19 34 32.95    -07 54 09.2   0.0117 1.0277 166.4     21?   1.26 285.5   31 280  61  75
   2024 07 16 18:00  19 34 32.17    -07 54 05.8   0.0117 1.0277 166.4     21?   1.16 287.3   29 279  61  75
   2024 07 16 18:10  19 34 31.46    -07 54 02.3   0.0117 1.0277 166.4     21?   1.06 289.4   27 277  60  75
   2024 07 16 18:20  19 34 30.82    -07 53 58.7   0.0117 1.0277 166.4     21?   0.96 292.1   25 276  60  75
   2024 07 16 18:30  19 34 30.26    -07 53 55.0   0.0117 1.0277 166.4     21?   0.86 295.3   23 274  60  75
   2024 07 16 18:40  19 34 29.78    -07 53 51.3   0.0117 1.0277 166.4     21?   0.76 299.4   20 273  60  75
   2024 07 16 18:50  19 34 29.37    -07 53 47.5   0.0117 1.0277 166.4     21?   0.66 304.8   18 272  60  75
   2024 07 16 19:00  19 34 29.05    -07 53 43.7   0.0117 1.0277 166.4     21?   0.57 312.0   16 270  60  75
   2024 07 16 19:10  19 34 28.80    -07 53 39.8   0.0117 1.0277 166.4     21?   0.49 321.7   14 269  60  76
   2024 07 16 19:20  19 34 28.64    -07 53 35.9   0.0117 1.0277 166.4     21?   0.43 334.7   12 268  60  76
   2024 07 16 19:30  19 34 28.56    -07 53 32.0   0.0117 1.0277 166.4     21?   0.40 350.9   10 266  60  76
   2024 07 16 19:40  19 34 28.56    -07 53 28.1   0.0117 1.0277 166.4 A   21?   0.40   8.7    8 265  60  76
   2024 07 16 19:50  19 34 28.64    -07 53 24.1   0.0117 1.0277 166.4 A   21?   0.44  24.9    5 264  59  76
   2024 07 16 20:00  19 34 28.80    -07 53 20.2   0.0117 1.0277 166.4 A   21?   0.50  37.8    3 263  59  76
   2024 07 16 20:10  19 34 29.05    -07 53 16.2   0.0117 1.0277 166.4 N   21?   0.58  47.5    1 261  59  76
   2024 07 16 20:20  19 34 29.38    -07 53 12.3   0.0117 1.0277 166.3 N   21?   0.68  54.6    0 260  59  76
   ................
   2024 07 17 07:40  19 36 09.28    -07 53 12.2   0.0117 1.0277 166.4 Cr  21?   0.65 125.5    0  99  53  81
   2024 07 17 07:50  19 36 09.59    -07 53 16.1   0.0117 1.0277 166.4 Nm  21?   0.56 132.9    2  97  53  81
   2024 07 17 08:00  19 36 09.83    -07 53 19.9   0.0117 1.0277 166.4 Nm  21?   0.48 143.0    4  96  53  81
   2024 07 17 08:10  19 36 09.98    -07 53 23.7   0.0117 1.0277 166.4 Nm  21?   0.42 156.6    6  95  53  81
   2024 07 17 08:20  19 36 10.05    -07 53 27.5   0.0117 1.0277 166.4 Am  21?   0.38 173.7    8  93  53  81
   2024 07 17 08:30  19 36 10.03    -07 53 31.3   0.0117 1.0277 166.4 Am  21?   0.39 191.9   10  92  53  81
   2024 07 17 08:40  19 36 09.94    -07 53 35.1   0.0117 1.0277 166.4 Am  21?   0.43 208.1   12  91  53  81
   2024 07 17 08:50  19 36 09.76    -07 53 38.9   0.0117 1.0277 166.4  m  21?   0.49 220.7   15  90  53  81
   2024 07 17 09:00  19 36 09.50    -07 53 42.6   0.0117 1.0277 166.4  m  21?   0.58 230.0   17  88  53  81
   2024 07 17 09:10  19 36 09.17    -07 53 46.2   0.0117 1.0277 166.4  m  21?   0.67 236.8   19  87  53  81
   2024 07 17 09:20  19 36 08.75    -07 53 49.8   0.0117 1.0277 166.4  m  21?   0.77 241.9   21  86  53  81
   2024 07 17 09:30  19 36 08.26    -07 53 53.4   0.0117 1.0277 166.4  m  21?   0.87 245.8   23  84  53  81
   2024 07 17 09:40  19 36 07.69    -07 53 56.9   0.0117 1.0277 166.4  m  21?   0.97 248.9   25  83  52  81
   2024 07 17 09:50  19 36 07.04    -07 54 00.3   0.0117 1.0277 166.4  m  21?   1.07 251.4   27  81  52  81
   2024 07 17 10:00  19 36 06.32    -07 54 03.6   0.0117 1.0277 166.4  m  21?   1.17 253.5   29  80  52  81
   2024 07 17 10:10  19 36 05.53    -07 54 06.9   0.0117 1.0277 166.4  m  21?   1.27 255.2   32  78  52  81
   2024 07 17 10:20  19 36 04.67    -07 54 10.0   0.0117 1.0277 166.4  m  21?   1.36 256.7   34  77  52  81
   2024 07 17 10:30  19 36 03.74    -07 54 13.1   0.0117 1.0277 166.4  m  21?   1.46 257.9   36  75  52  81
   2024 07 17 10:40  19 36 02.75    -07 54 16.0   0.0117 1.0277 166.4  m  21?   1.55 259.0   38  73  52  81
   2024 07 17 10:50  19 36 01.69    -07 54 18.9   0.0117 1.0277 166.4  m  21?   1.64 260.0   40  72  52  81
   2024 07 17 11:00  19 36 00.58    -07 54 21.6   0.0117 1.0277 166.4  m  21?   1.73 260.9   42  70  52  81
   2024 07 17 11:10  19 35 59.40    -07 54 24.2   0.0117 1.0277 166.4  m  21?   1.81 261.7   44  68  52  81
   2024 07 17 11:20  19 35 58.17    -07 54 26.7   0.0117 1.0277 166.4  m  21?   1.89 262.4   46  66  52  81
   2024 07 17 11:30  19 35 56.88    -07 54 29.1   0.0117 1.0277 166.4  m  21?   1.96 263.1   48  63  52  81
   2024 07 17 11:40  19 35 55.55    -07 54 31.3   0.0117 1.0277 166.4  m  21?   2.03 263.7   50  61  52  82
   2024 07 17 11:50  19 35 54.17    -07 54 33.4   0.0117 1.0277 166.4  m  21?   2.10 264.3   52  58  52  82
   2024 07 17 12:00  19 35 52.74    -07 54 35.3   0.0117 1.0277 166.4  m  21?   2.16 264.9   53  55  52  82
   2024 07 17 12:10  19 35 51.28    -07 54 37.1   0.0117 1.0277 166.4  m  21?   2.21 265.4   55  52  52  82
   2024 07 17 12:20  19 35 49.77    -07 54 38.7   0.0117 1.0277 166.4  m  21?   2.27 265.9   57  49  52  82
   2024 07 17 12:30  19 35 48.23    -07 54 40.2   0.0117 1.0277 166.4  m  21?   2.31 266.3   58  45  52  82
   2024 07 17 12:40  19 35 46.66    -07 54 41.6   0.0117 1.0277 166.4  m  21?   2.36 266.8   60  41  51  82
   2024 07 17 12:50  19 35 45.07    -07 54 42.7   0.0117 1.0277 166.4  m  21?   2.39 267.2   61  37  51  82
   2024 07 17 13:00  19 35 43.45    -07 54 43.7   0.0117 1.0277 166.4  m  21?   2.43 267.6   63  32  51  82
   2024 07 17 13:10  19 35 41.80    -07 54 44.6   0.0117 1.0277 166.4  m  21?   2.45 268.0   64  27  51  82
   2024 07 17 13:20  19 35 40.14    -07 54 45.3   0.0117 1.0277 166.4  m  21?   2.48 268.4   65  22  51  82
   2024 07 17 13:30  19 35 38.47    -07 54 45.8   0.0117 1.0277 166.4  m  21?   2.49 268.8   65  16  51  82
   2024 07 17 13:40  19 35 36.79    -07 54 46.1   0.0117 1.0277 166.4  m  21?   2.50 269.2   66  10  51  82
   2024 07 17 13:50  19 35 35.10    -07 54 46.3   0.0117 1.0277 166.4  m  21?   2.51 269.6   66   4  51  82
   2024 07 17 14:00  19 35 33.41    -07 54 46.3   0.0117 1.0277 166.4  t  21?   2.51 270.0   66 358  51  82
   2024 07 17 14:10  19 35 31.72    -07 54 46.2   0.0117 1.0277 166.4  m  21?   2.51 270.4   66 351  51  82
   2024 07 17 14:20  19 35 30.04    -07 54 45.9   0.0117 1.0277 166.4  m  21?   2.50 270.8   65 345  51  82
   2024 07 17 14:30  19 35 28.36    -07 54 45.4   0.0117 1.0277 166.4  m  21?   2.48 271.1   65 340  51  82
   2024 07 17 14:40  19 35 26.70    -07 54 44.7   0.0117 1.0277 166.4  m  21?   2.46 271.5   64 334  51  82
   2024 07 17 14:50  19 35 25.05    -07 54 43.9   0.0117 1.0277 166.4  m  21?   2.44 271.9   63 329  51  82
   2024 07 17 15:00  19 35 23.42    -07 54 42.9   0.0117 1.0277 166.4  m  21?   2.41 272.3   62 324  51  82
   2024 07 17 15:10  19 35 21.81    -07 54 41.8   0.0117 1.0277 166.4  m  21?   2.37 272.8   61 320  50  82
   2024 07 17 15:20  19 35 20.23    -07 54 40.5   0.0117 1.0277 166.4  m  21?   2.33 273.2   59 315  50  82
   2024 07 17 15:30  19 35 18.68    -07 54 39.0   0.0117 1.0277 166.4  m  21?   2.28 273.7   58 312  50  82
   2024 07 17 15:40  19 35 17.17    -07 54 37.4   0.0117 1.0277 166.4  m  21?   2.23 274.1   56 308  50  82
   2024 07 17 15:50  19 35 15.69    -07 54 35.7   0.0117 1.0277 166.4  m  21?   2.18 274.6   54 305  50  82
   2024 07 17 16:00  19 35 14.25    -07 54 33.8   0.0117 1.0277 166.4  m  21?   2.12 275.2   52 302  50  83
   2024 07 17 16:10  19 35 12.85    -07 54 31.7   0.0117 1.0277 166.4  m  21?   2.05 275.7   51 299  50  83
   2024 07 17 16:20  19 35 11.50    -07 54 29.5   0.0117 1.0277 166.4  m  21?   1.98 276.3   49 297  50  83
   2024 07 17 16:30  19 35 10.20    -07 54 27.2   0.0117 1.0277 166.4  m  21?   1.91 277.0   47 294  50  83
   2024 07 17 16:40  19 35 08.95    -07 54 24.8   0.0117 1.0277 166.4  m  21?   1.84 277.7   45 292  50  83
   2024 07 17 16:50  19 35 07.75    -07 54 22.2   0.0117 1.0277 166.4  m  21?   1.75 278.4   43 290  50  83
   2024 07 17 17:00  19 35 06.61    -07 54 19.5   0.0117 1.0277 166.4  m  21?   1.67 279.3   41 288  50  83
   2024 07 17 17:10  19 35 05.53    -07 54 16.7   0.0117 1.0277 166.4  m  21?   1.58 280.2   39 286  49  83
   2024 07 17 17:20  19 35 04.52    -07 54 13.8   0.0117 1.0277 166.4  m  21?   1.49 281.3   37 285  49  83
   2024 07 17 17:30  19 35 03.57    -07 54 10.8   0.0117 1.0277 166.4  m  21?   1.40 282.5   35 283  49  83
   2024 07 17 17:40  19 35 02.68    -07 54 07.7   0.0117 1.0277 166.4  m  21?   1.30 283.8   32 281  49  83
   2024 07 17 17:50  19 35 01.87    -07 54 04.5   0.0117 1.0277 166.4  m  21?   1.20 285.4   30 280  49  83
   2024 07 17 18:00  19 35 01.12    -07 54 01.2   0.0117 1.0277 166.3     21?   1.10 287.3   28 278  49  83
   2024 07 17 18:10  19 35 00.45    -07 53 57.9   0.0117 1.0277 166.3     21?   1.00 289.6   26 277  49  83
   2024 07 17 18:20  19 34 59.86    -07 53 54.4   0.0117 1.0277 166.3     21?   0.90 292.4   24 275  49  83
   2024 07 17 18:30  19 34 59.34    -07 53 50.9   0.0117 1.0277 166.3     21?   0.80 296.0   22 274  49  83
   2024 07 17 18:40  19 34 58.89    -07 53 47.4   0.0117 1.0277 166.3     21?   0.70 300.6   20 273  49  83
   2024 07 17 18:50  19 34 58.53    -07 53 43.8   0.0117 1.0277 166.3     21?   0.60 306.7   18 271  48  83
   2024 07 17 19:00  19 34 58.24    -07 53 40.2   0.0117 1.0277 166.3     21?   0.52 315.0   15 270  48  84
   2024 07 17 19:10  19 34 58.04    -07 53 36.5   0.0117 1.0277 166.3     21?   0.44 326.4   13 269  48  84
   2024 07 17 19:20  19 34 57.92    -07 53 32.8   0.0117 1.0277 166.3     21?   0.39 341.6   11 267  48  84
   2024 07 17 19:30  19 34 57.87    -07 53 29.1   0.0117 1.0277 166.3     21?   0.37 359.9    9 266  48  84
   2024 07 17 19:40  19 34 57.92    -07 53 25.3   0.0117 1.0277 166.3 A   21?   0.39  18.1    7 265  48  84
   2024 07 17 19:50  19 34 58.04    -07 53 21.6   0.0117 1.0277 166.3 A   21?   0.45  33.2    5 264  48  84
   2024 07 17 20:00  19 34 58.25    -07 53 17.8   0.0117 1.0277 166.3 A   21?   0.53  44.5    3 262  48  84
   2024 07 17 20:10  19 34 58.54    -07 53 14.1   0.0117 1.0277 166.3 N   21?   0.62  52.7    0 261  48  84
   ................
   2024 07 18 07:40  19 36 39.64    -07 53 26.0   0.0117 1.0276 166.4 Cm  21?   0.65 128.0    0  98  41  88
   2024 07 18 07:50  19 36 39.95    -07 53 30.0   0.0117 1.0276 166.4 Nm  21?   0.56 135.9    2  97  41  88
   2024 07 18 08:00  19 36 40.16    -07 53 34.1   0.0117 1.0276 166.4 Nm  21?   0.48 146.5    5  96  41  88
   2024 07 18 08:10  19 36 40.30    -07 53 38.1   0.0117 1.0276 166.4 Nm  21?   0.42 160.5    7  94  41  88
   2024 07 18 08:20  19 36 40.35    -07 53 42.1   0.0117 1.0276 166.4 Am  21?   0.40 177.2    9  93  41  88
   2024 07 18 08:30  19 36 40.33    -07 53 46.1   0.0117 1.0276 166.4 Am  21?   0.41 194.4   11  92  41  88
   2024 07 18 08:40  19 36 40.21    -07 53 50.0   0.0117 1.0276 166.4 Am  21?   0.45 209.5   13  90  41  88
   2024 07 18 08:50  19 36 40.02    -07 53 53.9   0.0117 1.0276 166.4  m  21?   0.52 221.3   15  89  41  88
   2024 07 18 09:00  19 36 39.75    -07 53 57.8   0.0117 1.0276 166.4  m  21?   0.60 230.0   17  88  41  88
   2024 07 18 09:10  19 36 39.40    -07 54 01.7   0.0117 1.0276 166.4  m  21?   0.70 236.6   20  87  41  88
   2024 07 18 09:20  19 36 38.97    -07 54 05.4   0.0117 1.0276 166.4  m  21?   0.79 241.5   22  85  41  88
   2024 07 18 09:30  19 36 38.46    -07 54 09.2   0.0117 1.0276 166.4  m  21?   0.89 245.4   24  84  41  89
   2024 07 18 09:40  19 36 37.88    -07 54 12.8   0.0117 1.0276 166.4  m  21?   0.99 248.4   26  82  41  89
   2024 07 18 09:50  19 36 37.22    -07 54 16.4   0.0117 1.0276 166.4  m  21?   1.09 250.9   28  81  41  89
   2024 07 18 10:00  19 36 36.49    -07 54 19.9   0.0117 1.0276 166.4  m  21?   1.19 252.9   30  79  41  89
   2024 07 18 10:10  19 36 35.69    -07 54 23.3   0.0117 1.0276 166.4  m  21?   1.29 254.7   32  78  41  89
   2024 07 18 10:20  19 36 34.82    -07 54 26.6   0.0117 1.0276 166.4  m  21?   1.38 256.2   34  76  40  89
   2024 07 18 10:30  19 36 33.88    -07 54 29.8   0.0117 1.0276 166.4  m  21?   1.48 257.4   36  75  40  89
   2024 07 18 10:40  19 36 32.88    -07 54 32.9   0.0117 1.0276 166.4  m  21?   1.57 258.6   39  73  40  89
   2024 07 18 10:50  19 36 31.81    -07 54 35.9   0.0117 1.0276 166.4  m  21?   1.65 259.6   41  71  40  89
   2024 07 18 11:00  19 36 30.69    -07 54 38.8   0.0117 1.0276 166.4  m  21?   1.74 260.5   43  69  40  89
   2024 07 18 11:10  19 36 29.51    -07 54 41.6   0.0117 1.0276 166.4  m  21?   1.82 261.3   45  67  40  89
   2024 07 18 11:20  19 36 28.27    -07 54 44.2   0.0117 1.0276 166.4  m  21?   1.89 262.0   47  65  40  89
   2024 07 18 11:30  19 36 26.98    -07 54 46.7   0.0117 1.0276 166.4  m  21?   1.97 262.7   49  62  40  89
   2024 07 18 11:40  19 36 25.64    -07 54 49.1   0.0117 1.0276 166.4  m  21?   2.04 263.4   50  60  40  89
   2024 07 18 11:50  19 36 24.26    -07 54 51.3   0.0117 1.0276 166.4  m  21?   2.10 263.9   52  57  40  89
   2024 07 18 12:00  19 36 22.83    -07 54 53.4   0.0117 1.0276 166.4  m  21?   2.16 264.5   54  54  40  89
   2024 07 18 12:10  19 36 21.37    -07 54 55.3   0.0117 1.0276 166.4  m  21?   2.21 265.0   56  51  40  89
   2024 07 18 12:20  19 36 19.86    -07 54 57.1   0.0117 1.0276 166.4  m  21?   2.27 265.5   57  48  40  89
   2024 07 18 12:30  19 36 18.33    -07 54 58.7   0.0117 1.0276 166.4  m  21?   2.31 266.0   59  44  40  89
   2024 07 18 12:40  19 36 16.76    -07 55 00.2   0.0117 1.0276 166.4  m  21?   2.35 266.4   60  40  40  89
   2024 07 18 12:50  19 36 15.17    -07 55 01.5   0.0117 1.0276 166.4  m  21?   2.39 266.9   62  35  40  89
   2024 07 18 13:00  19 36 13.55    -07 55 02.6   0.0117 1.0276 166.4  m  21?   2.42 267.3   63  31  40  89
   2024 07 18 13:10  19 36 11.92    -07 55 03.6   0.0117 1.0276 166.4  m  21?   2.44 267.7   64  25  40  89
   2024 07 18 13:20  19 36 10.27    -07 55 04.4   0.0117 1.0276 166.4  m  21?   2.46 268.1   65  20  39  89
   2024 07 18 13:30  19 36 08.60    -07 55 05.1   0.0117 1.0276 166.4  m  21?   2.48 268.5   65  14  39  89
   2024 07 18 13:40  19 36 06.93    -07 55 05.5   0.0117 1.0276 166.4  m  21?   2.49 268.9   66   8  39  89
   2024 07 18 13:50  19 36 05.25    -07 55 05.9   0.0117 1.0276 166.4  m  21?   2.49 269.3   66   2  39  89
   2024 07 18 14:00  19 36 03.58    -07 55 06.0   0.0117 1.0276 166.4  t  21?   2.49 269.7   66 356  39  89
   2024 07 18 14:10  19 36 01.90    -07 55 06.0   0.0117 1.0276 166.4  m  21?   2.49 270.1   66 349  39  89
   2024 07 18 14:20  19 36 00.23    -07 55 05.8   0.0117 1.0276 166.4  m  21?   2.47 270.5   65 343  39  89
   2024 07 18 14:30  19 35 58.57    -07 55 05.4   0.0117 1.0276 166.3  m  21?   2.46 270.8   65 338  39  89
   2024 07 18 14:40  19 35 56.93    -07 55 04.9   0.0117 1.0276 166.3  m  21?   2.43 271.2   64 332  39  89
   2024 07 18 14:50  19 35 55.30    -07 55 04.2   0.0117 1.0276 166.3  m  21?   2.41 271.6   63 327  39  89
   2024 07 18 15:00  19 35 53.69    -07 55 03.4   0.0117 1.0276 166.3  m  21?   2.37 272.1   61 322  39  89
   2024 07 18 15:10  19 35 52.11    -07 55 02.4   0.0117 1.0276 166.3  m  21?   2.34 272.5   60 318  39  89
   2024 07 18 15:20  19 35 50.55    -07 55 01.2   0.0117 1.0276 166.3  m  21?   2.29 272.9   59 314  39  90
   2024 07 18 15:30  19 35 49.02    -07 54 59.9   0.0117 1.0276 166.3  m  21?   2.25 273.4   57 310  39  90
   2024 07 18 15:40  19 35 47.53    -07 54 58.4   0.0117 1.0276 166.3  m  21?   2.19 273.9   55 307  39  90
   2024 07 18 15:50  19 35 46.08    -07 54 56.8   0.0117 1.0276 166.3  m  21?   2.14 274.4   54 304  38  90
   2024 07 18 16:00  19 35 44.66    -07 54 55.0   0.0117 1.0276 166.3  m  21?   2.08 274.9   52 301  38  90
   2024 07 18 16:10  19 35 43.29    -07 54 53.1   0.0117 1.0276 166.3  m  21?   2.01 275.5   50 298  38  90
   2024 07 18 16:20  19 35 41.97    -07 54 51.1   0.0117 1.0276 166.3  m  21?   1.94 276.1   48 296  38  90
   2024 07 18 16:30  19 35 40.70    -07 54 48.9   0.0117 1.0276 166.3  m  21?   1.86 276.7   46 294  38  90
   2024 07 18 16:40  19 35 39.48    -07 54 46.6   0.0117 1.0276 166.3  m  21?   1.79 277.4   44 291  38  90
   2024 07 18 16:50  19 35 38.32    -07 54 44.2   0.0117 1.0276 166.3  m  21?   1.70 278.2   42 289  38  90
   2024 07 18 17:00  19 35 37.21    -07 54 41.7   0.0117 1.0276 166.3  m  21?   1.62 279.1   40 288  38  90
   2024 07 18 17:10  19 35 36.17    -07 54 39.0   0.0117 1.0276 166.3  m  21?   1.53 280.0   38 286  38  90
   2024 07 18 17:20  19 35 35.19    -07 54 36.2   0.0117 1.0276 166.3  m  21?   1.44 281.1   36 284  38  90
   2024 07 18 17:30  19 35 34.27    -07 54 33.4   0.0117 1.0276 166.3  m  21?   1.34 282.3   34 282  38  90
   2024 07 18 17:40  19 35 33.42    -07 54 30.4   0.0117 1.0276 166.3  m  21?   1.25 283.8   32 281  38  90
   2024 07 18 17:50  19 35 32.64    -07 54 27.4   0.0117 1.0276 166.3  m  21?   1.15 285.4   30 279  37  90
   2024 07 18 18:00  19 35 31.94    -07 54 24.3   0.0117 1.0276 166.3  m  21?   1.04 287.4   28 278  37  90
   2024 07 18 18:10  19 35 31.30    -07 54 21.1   0.0117 1.0276 166.3  m  21?   0.94 289.9   25 276  37  90
   2024 07 18 18:20  19 35 30.74    -07 54 17.8   0.0117 1.0276 166.3  m  21?   0.84 292.9   23 275  37  90
   2024 07 18 18:30  19 35 30.26    -07 54 14.5   0.0117 1.0276 166.3  m  21?   0.74 296.8   21 273  37  90
   2024 07 18 18:40  19 35 29.86    -07 54 11.1   0.0117 1.0276 166.3  m  21?   0.64 302.0   19 272  37  90
   2024 07 18 18:50  19 35 29.53    -07 54 07.7   0.0117 1.0276 166.3  m  21?   0.55 309.0   17 271  37  90
   2024 07 18 19:00  19 35 29.29    -07 54 04.2   0.0117 1.0276 166.3  m  21?   0.46 318.7   15 269  37  90
   2024 07 18 19:10  19 35 29.12    -07 54 00.7   0.0117 1.0276 166.3     21?   0.40 332.2   13 268  37  90
   2024 07 18 19:20  19 35 29.04    -07 53 57.2   0.0117 1.0276 166.3     21?   0.36 349.9   10 267  37  91
   2024 07 18 19:30  19 35 29.04    -07 53 53.6   0.0117 1.0276 166.3     21?   0.36   9.5    8 266  36  91
   2024 07 18 19:40  19 35 29.12    -07 53 50.1   0.0117 1.0276 166.3 A   21?   0.40  27.1    6 264  36  91
   2024 07 18 19:50  19 35 29.29    -07 53 46.5   0.0117 1.0276 166.3 A   21?   0.47  40.6    4 263  36  91
   2024 07 18 20:00  19 35 29.54    -07 53 42.9   0.0117 1.0276 166.3 A   21?   0.56  50.2    2 262  36  91
   2024 07 18 20:10  19 35 29.87    -07 53 39.4   0.0117 1.0276 166.3 N   21?   0.66  57.2    0 260  36  91
   ................
   2024 07 19 07:30  19 37 11.42    -07 54 02.5   0.0117 1.0276 166.3 Cr  21?   0.74 124.4    0  99  30  94
   2024 07 19 07:40  19 37 11.79    -07 54 06.7   0.0117 1.0276 166.3 Cm  21?   0.64 130.7    1  98  30  94
   2024 07 19 07:50  19 37 12.07    -07 54 10.9   0.0117 1.0276 166.3 Nm  21?   0.55 139.1    3  96  30  94
   2024 07 19 08:00  19 37 12.27    -07 54 15.1   0.0117 1.0276 166.3 Nm  21?   0.48 150.2    5  95  30  94
   2024 07 19 08:10  19 37 12.39    -07 54 19.3   0.0117 1.0276 166.3 Nm  21?   0.44 164.3    7  94  30  94
   2024 07 19 08:20  19 37 12.43    -07 54 23.5   0.0117 1.0276 166.3 Am  21?   0.42 180.6   10  93  30  94
   2024 07 19 08:30  19 37 12.39    -07 54 27.6   0.0117 1.0276 166.3 Am  21?   0.43 196.9   12  91  30  94
   2024 07 19 08:40  19 37 12.26    -07 54 31.8   0.0117 1.0276 166.3 Am  21?   0.48 210.9   14  90  30  94
   2024 07 19 08:50  19 37 12.05    -07 54 35.9   0.0117 1.0276 166.3  m  21?   0.55 221.9   16  89  30  94
   2024 07 19 09:00  19 37 11.77    -07 54 39.9   0.0117 1.0276 166.3  m  21?   0.63 230.2   18  87  30  94
   2024 07 19 09:10  19 37 11.40    -07 54 43.9   0.0117 1.0276 166.3  m  21?   0.72 236.4   20  86  30  94
   2024 07 19 09:20  19 37 10.95    -07 54 47.9   0.0117 1.0276 166.3  m  21?   0.82 241.2   22  85  30  94
   2024 07 19 09:30  19 37 10.43    -07 54 51.8   0.0117 1.0276 166.3  m  21?   0.92 245.0   25  83  29  94
   2024 07 19 09:40  19 37 09.83    -07 54 55.6   0.0117 1.0276 166.3  m  21?   1.02 248.0   27  82  29  94
   2024 07 19 09:50  19 37 09.16    -07 54 59.3   0.0117 1.0276 166.3  m  21?   1.11 250.4   29  80  29  94
   2024 07 19 10:00  19 37 08.42    -07 55 03.0   0.0117 1.0276 166.3  m  21?   1.21 252.5   31  79  29  94
   2024 07 19 10:10  19 37 07.61    -07 55 06.5   0.0117 1.0276 166.3  m  21?   1.31 254.2   33  77  29  94
   2024 07 19 10:20  19 37 06.73    -07 55 10.0   0.0117 1.0276 166.3  m  21?   1.40 255.7   35  76  29  94
   2024 07 19 10:30  19 37 05.78    -07 55 13.4   0.0117 1.0276 166.3  m  21?   1.49 257.0   37  74  29  94
   2024 07 19 10:40  19 37 04.76    -07 55 16.6   0.0117 1.0276 166.3  m  21?   1.58 258.1   39  72  29  94
   2024 07 19 10:50  19 37 03.69    -07 55 19.8   0.0117 1.0276 166.3  m  21?   1.67 259.2   41  70  29  95
   2024 07 19 11:00  19 37 02.56    -07 55 22.8   0.0117 1.0276 166.3  m  21?   1.75 260.1   43  68  29  95
   2024 07 19 11:10  19 37 01.37    -07 55 25.7   0.0117 1.0276 166.3  m  21?   1.83 260.9   45  66  29  95
   2024 07 19 11:20  19 37 00.13    -07 55 28.5   0.0117 1.0276 166.3  m  21?   1.90 261.7   47  64  29  95
   2024 07 19 11:30  19 36 58.83    -07 55 31.1   0.0117 1.0276 166.3  m  21?   1.98 262.3   49  62  29  95
   2024 07 19 11:40  19 36 57.49    -07 55 33.6   0.0117 1.0276 166.3  m  21?   2.04 263.0   51  59  29  95
   2024 07 19 11:50  19 36 56.10    -07 55 36.0   0.0117 1.0275 166.3  m  21?   2.11 263.6   53  56  29  95
   2024 07 19 12:00  19 36 54.67    -07 55 38.2   0.0117 1.0275 166.3  m  21?   2.16 264.1   55  53  29  95
   2024 07 19 12:10  19 36 53.21    -07 55 40.3   0.0117 1.0275 166.3  m  21?   2.22 264.7   56  50  29  95
   2024 07 19 12:20  19 36 51.70    -07 55 42.2   0.0117 1.0275 166.3  m  21?   2.27 265.2   58  46  29  95
   2024 07 19 12:30  19 36 50.17    -07 55 43.9   0.0117 1.0275 166.3  m  21?   2.31 265.7   59  43  29  95
   2024 07 19 12:40  19 36 48.60    -07 55 45.5   0.0117 1.0275 166.3  m  21?   2.35 266.1   61  38  29  95
   2024 07 19 12:50  19 36 47.01    -07 55 47.0   0.0117 1.0275 166.3  m  21?   2.38 266.6   62  34  28  95
   2024 07 19 13:00  19 36 45.40    -07 55 48.2   0.0117 1.0275 166.3  m  21?   2.41 267.0   63  29  28  95
   2024 07 19 13:10  19 36 43.77    -07 55 49.3   0.0117 1.0275 166.3  m  21?   2.43 267.4   64  24  28  95
   2024 07 19 13:20  19 36 42.13    -07 55 50.3   0.0117 1.0275 166.3  m  21?   2.45 267.8   65  18  28  95
   2024 07 19 13:30  19 36 40.48    -07 55 51.1   0.0117 1.0275 166.3  m  21?   2.47 268.2   66  12  28  95
   2024 07 19 13:40  19 36 38.81    -07 55 51.7   0.0117 1.0275 166.3  m  21?   2.47 268.6   66   6  28  95
   2024 07 19 13:50  19 36 37.15    -07 55 52.1   0.0117 1.0275 166.3  m  21?   2.48 269.0   66   0  28  95
   2024 07 19 14:00  19 36 35.48    -07 55 52.4   0.0117 1.0275 166.3  t  21?   2.47 269.4   66 353  28  95
   2024 07 19 14:10  19 36 33.82    -07 55 52.5   0.0117 1.0275 166.3  m  21?   2.46 269.8   66 347  28  95
   2024 07 19 14:20  19 36 32.17    -07 55 52.4   0.0117 1.0275 166.3  m  21?   2.45 270.2   65 341  28  95
   2024 07 19 14:30  19 36 30.52    -07 55 52.2   0.0117 1.0275 166.3  m  21?   2.43 270.6   64 336  28  95
   2024 07 19 14:40  19 36 28.89    -07 55 51.8   0.0117 1.0275 166.3  m  21?   2.41 271.0   63 330  28  95
   2024 07 19 14:50  19 36 27.28    -07 55 51.2   0.0117 1.0275 166.3  m  21?   2.38 271.4   62 325  28  95
   2024 07 19 15:00  19 36 25.69    -07 55 50.5   0.0117 1.0275 166.3  m  21?   2.34 271.8   61 321  28  95
   2024 07 19 15:10  19 36 24.13    -07 55 49.6   0.0117 1.0275 166.2  m  21?   2.31 272.2   60 317  28  95
   2024 07 19 15:20  19 36 22.59    -07 55 48.6   0.0117 1.0275 166.2  m  21?   2.26 272.7   58 313  28  95
   2024 07 19 15:30  19 36 21.09    -07 55 47.4   0.0117 1.0275 166.2  m  21?   2.21 273.1   56 309  28  95
   2024 07 19 15:40  19 36 19.62    -07 55 46.0   0.0117 1.0275 166.2  m  21?   2.16 273.6   55 306  28  95
   2024 07 19 15:50  19 36 18.19    -07 55 44.6   0.0117 1.0275 166.2  m  21?   2.10 274.1   53 303  27  95
   2024 07 19 16:00  19 36 16.80    -07 55 42.9   0.0117 1.0275 166.2  m  21?   2.04 274.6   51 300  27  95
   2024 07 19 16:10  19 36 15.46    -07 55 41.1   0.0117 1.0275 166.2  m  21?   1.97 275.2   49 298  27  95
   2024 07 19 16:20  19 36 14.17    -07 55 39.2   0.0117 1.0275 166.2  m  21?   1.90 275.8   47 295  27  95
   2024 07 19 16:30  19 36 12.92    -07 55 37.2   0.0117 1.0275 166.2  m  21?   1.82 276.5   45 293  27  95
   2024 07 19 16:40  19 36 11.73    -07 55 35.0   0.0117 1.0275 166.2  m  21?   1.74 277.2   43 291  27  95
   2024 07 19 16:50  19 36 10.60    -07 55 32.7   0.0117 1.0275 166.2  m  21?   1.66 278.0   41 289  27  95
   2024 07 19 17:00  19 36 09.53    -07 55 30.3   0.0117 1.0275 166.2  m  21?   1.57 278.8   39 287  27  95
   2024 07 19 17:10  19 36 08.51    -07 55 27.8   0.0117 1.0275 166.2  m  21?   1.48 279.8   37 285  27  95
   2024 07 19 17:20  19 36 07.57    -07 55 25.2   0.0117 1.0275 166.2  m  21?   1.39 280.9   35 283  27  95
   2024 07 19 17:30  19 36 06.68    -07 55 22.5   0.0117 1.0275 166.2  m  21?   1.29 282.2   33 282  27  95
   2024 07 19 17:40  19 36 05.87    -07 55 19.7   0.0117 1.0275 166.2  m  21?   1.19 283.7   31 280  27  95
   2024 07 19 17:50  19 36 05.13    -07 55 16.8   0.0117 1.0275 166.2  m  21?   1.09 285.4   29 279  27  95
   2024 07 19 18:00  19 36 04.46    -07 55 13.8   0.0117 1.0275 166.2  m  21?   0.99 287.5   27 277  26  95
   2024 07 19 18:10  19 36 03.86    -07 55 10.8   0.0117 1.0275 166.2  m  21?   0.89 290.2   25 276  26  95
   2024 07 19 18:20  19 36 03.34    -07 55 07.7   0.0117 1.0275 166.2  m  21?   0.78 293.5   23 274  26  96
   2024 07 19 18:30  19 36 02.89    -07 55 04.5   0.0117 1.0275 166.2  m  21?   0.68 297.8   20 273  26  96
   2024 07 19 18:40  19 36 02.53    -07 55 01.3   0.0117 1.0275 166.2  m  21?   0.58 303.6   18 272  26  96
   2024 07 19 18:50  19 36 02.24    -07 54 58.0   0.0117 1.0275 166.2  m  21?   0.49 311.7   16 270  26  96
   2024 07 19 19:00  19 36 02.03    -07 54 54.7   0.0117 1.0275 166.2  m  21?   0.41 323.2   14 269  26  96
   2024 07 19 19:10  19 36 01.91    -07 54 51.4   0.0117 1.0275 166.2  m  21?   0.36 339.2   12 268  26  96
   2024 07 19 19:20  19 36 01.86    -07 54 48.0   0.0117 1.0275 166.2  m  21?   0.34 359.1   10 266  26  96
   2024 07 19 19:30  19 36 01.90    -07 54 44.6   0.0117 1.0275 166.2  m  21?   0.36  19.1    8 265  26  96
   2024 07 19 19:40  19 36 02.02    -07 54 41.2   0.0117 1.0275 166.2 Am  21?   0.42  35.3    5 264  26  96
   2024 07 19 19:50  19 36 02.23    -07 54 37.8   0.0117 1.0275 166.2 Am  21?   0.50  47.0    3 263  26  96
   2024 07 19 20:00  19 36 02.51    -07 54 34.5   0.0117 1.0275 166.2 Am  21?   0.59  55.1    1 261  25  96
   2024 07 19 20:10  19 36 02.88    -07 54 31.1   0.0117 1.0275 166.2 N   21?   0.70  61.0    0 260  25  96
   ................
   2024 07 20 07:30  19 37 45.16    -07 55 09.0   0.0117 1.0275 166.2 Cr  21?   0.73 126.8    0  99  21  98
   2024 07 20 07:40  19 37 45.51    -07 55 13.4   0.0117 1.0275 166.2 Cm  21?   0.63 133.6    2  97  21  98
   2024 07 20 07:50  19 37 45.78    -07 55 17.8   0.0117 1.0275 166.2 Nm  21?   0.55 142.4    4  96  21  98
   2024 07 20 08:00  19 37 45.96    -07 55 22.2   0.0117 1.0275 166.2 Nm  21?   0.49 153.9    6  95  21  98
   2024 07 20 08:10  19 37 46.07    -07 55 26.6   0.0117 1.0275 166.2 Nm  21?   0.45 168.1    8  93  21  98
   2024 07 20 08:20  19 37 46.09    -07 55 30.9   0.0117 1.0275 166.2 Am  21?   0.44 184.0   10  92  21  98
   2024 07 20 08:30  19 37 46.02    -07 55 35.3   0.0117 1.0275 166.2 Am  21?   0.46 199.3   12  91  21  98
   2024 07 20 08:40  19 37 45.88    -07 55 39.6   0.0117 1.0275 166.2 Am  21?   0.51 212.3   15  90  20  98
   2024 07 20 08:50  19 37 45.66    -07 55 43.9   0.0117 1.0275 166.2  m  21?   0.58 222.6   17  88  20  98
   2024 07 20 09:00  19 37 45.35    -07 55 48.1   0.0117 1.0275 166.2  m  21?   0.66 230.4   19  87  20  98
   2024 07 20 09:10  19 37 44.97    -07 55 52.3   0.0117 1.0275 166.2  m  21?   0.75 236.4   21  86  20  98
   2024 07 20 09:20  19 37 44.51    -07 55 56.4   0.0117 1.0275 166.2  m  21?   0.85 241.0   23  84  20  98
   2024 07 20 09:30  19 37 43.97    -07 56 00.4   0.0117 1.0275 166.2  m  21?   0.94 244.7   25  83  20  98
   2024 07 20 09:40  19 37 43.36    -07 56 04.4   0.0117 1.0275 166.2  m  21?   1.04 247.6   27  81  20  98
   2024 07 20 09:50  19 37 42.67    -07 56 08.3   0.0117 1.0275 166.2  m  21?   1.14 250.0   30  80  20  98
   2024 07 20 10:00  19 37 41.91    -07 56 12.1   0.0117 1.0275 166.2  m  21?   1.24 252.1   32  78  20  98
   2024 07 20 10:10  19 37 41.09    -07 56 15.8   0.0117 1.0275 166.2  m  21?   1.33 253.8   34  77  20  98
   2024 07 20 10:20  19 37 40.19    -07 56 19.5   0.0117 1.0275 166.2  m  21?   1.42 255.3   36  75  20  98
   2024 07 20 10:30  19 37 39.23    -07 56 23.0   0.0117 1.0275 166.2  m  21?   1.51 256.6   38  73  20  98
   2024 07 20 10:40  19 37 38.21    -07 56 26.4   0.0117 1.0275 166.2  m  21?   1.60 257.7   40  72  20  98
   2024 07 20 10:50  19 37 37.13    -07 56 29.7   0.0117 1.0275 166.2  m  21?   1.69 258.8   42  70  20  98
   2024 07 20 11:00  19 37 35.98    -07 56 32.8   0.0117 1.0275 166.2  m  21?   1.77 259.7   44  68  20  98
   2024 07 20 11:10  19 37 34.79    -07 56 35.9   0.0117 1.0275 166.2  m  21?   1.84 260.5   46  66  20  98
   2024 07 20 11:20  19 37 33.53    -07 56 38.8   0.0117 1.0275 166.2  m  21?   1.92 261.3   48  63  20  98
   2024 07 20 11:30  19 37 32.23    -07 56 41.6   0.0117 1.0275 166.2  m  21?   1.99 262.0   50  61  20  98
   2024 07 20 11:40  19 37 30.89    -07 56 44.2   0.0117 1.0275 166.2  m  21?   2.05 262.6   52  58  20  98
   2024 07 20 11:50  19 37 29.49    -07 56 46.7   0.0117 1.0275 166.2  m  21?   2.11 263.2   53  55  20  98
   2024 07 20 12:00  19 37 28.06    -07 56 49.1   0.0117 1.0275 166.2  m  21?   2.17 263.8   55  52  20  98
   2024 07 20 12:10  19 37 26.59    -07 56 51.2   0.0117 1.0275 166.2  m  21?   2.22 264.3   57  49  20  98
   2024 07 20 12:20  19 37 25.09    -07 56 53.3   0.0117 1.0275 166.2  m  21?   2.27 264.9   58  45  20  98
   2024 07 20 12:30  19 37 23.55    -07 56 55.2   0.0117 1.0275 166.2  m  21?   2.31 265.3   60  41  20  98
   2024 07 20 12:40  19 37 21.99    -07 56 56.9   0.0117 1.0275 166.2  m  21?   2.35 265.8   61  37  20  98
   2024 07 20 12:50  19 37 20.40    -07 56 58.5   0.0117 1.0275 166.2  m  21?   2.38 266.3   63  32  20  98
   2024 07 20 13:00  19 37 18.79    -07 56 59.9   0.0117 1.0275 166.2  m  21?   2.41 266.7   64  27  20  98
   2024 07 20 13:10  19 37 17.17    -07 57 01.1   0.0117 1.0275 166.2  m  21?   2.43 267.1   65  22  20  98
   2024 07 20 13:20  19 37 15.53    -07 57 02.2   0.0117 1.0275 166.2  m  21?   2.44 267.5   65  16  20  98
   2024 07 20 13:30  19 37 13.88    -07 57 03.1   0.0117 1.0275 166.2  m  21?   2.46 267.9   66  10  20  98
   2024 07 20 13:40  19 37 12.23    -07 57 03.8   0.0117 1.0275 166.2  m  21?   2.46 268.3   66   4  20  98
   2024 07 20 13:50  19 37 10.57    -07 57 04.4   0.0117 1.0275 166.2  t  21?   2.46 268.7   66 358  20  98
   2024 07 20 14:00  19 37 08.91    -07 57 04.7   0.0117 1.0275 166.2  m  21?   2.46 269.1   66 351  20  98
   2024 07 20 14:10  19 37 07.26    -07 57 05.0   0.0117 1.0275 166.1  m  21?   2.45 269.5   66 345  20  98
   2024 07 20 14:20  19 37 05.62    -07 57 05.0   0.0117 1.0275 166.1  m  21?   2.43 269.9   65 339  19  98
   2024 07 20 14:30  19 37 03.99    -07 57 04.9   0.0117 1.0275 166.1  m  21?   2.41 270.3   64 334  19  98
   2024 07 20 14:40  19 37 02.38    -07 57 04.6   0.0117 1.0275 166.1  m  21?   2.38 270.7   63 329  19  98
   2024 07 20 14:50  19 37 00.78    -07 57 04.2   0.0117 1.0275 166.1  m  21?   2.35 271.1   62 324  19  98
   2024 07 20 15:00  19 36 59.21    -07 57 03.6   0.0117 1.0275 166.1  m  21?   2.32 271.5   61 319  19  98
   2024 07 20 15:10  19 36 57.66    -07 57 02.8   0.0117 1.0275 166.1  m  21?   2.28 271.9   59 315  19  98
   2024 07 20 15:20  19 36 56.15    -07 57 01.9   0.0117 1.0275 166.1  m  21?   2.23 272.4   58 312  19  98
   2024 07 20 15:30  19 36 54.66    -07 57 00.9   0.0117 1.0275 166.1  m  21?   2.18 272.8   56 308  19  98
   2024 07 20 15:40  19 36 53.22    -07 56 59.6   0.0117 1.0275 166.1  m  21?   2.12 273.3   54 305  19  98
   2024 07 20 15:50  19 36 51.81    -07 56 58.3   0.0117 1.0275 166.1  m  21?   2.06 273.8   52 302  19  98
   2024 07 20 16:00  19 36 50.45    -07 56 56.8   0.0117 1.0275 166.1  m  21?   2.00 274.4   51 299  19  98
   2024 07 20 16:10  19 36 49.13    -07 56 55.1   0.0117 1.0275 166.1  m  21?   1.93 274.9   49 297  19  98
   2024 07 20 16:20  19 36 47.86    -07 56 53.3   0.0117 1.0275 166.1  m  21?   1.86 275.5   47 294  19  99
   2024 07 20 16:30  19 36 46.65    -07 56 51.4   0.0117 1.0275 166.1  m  21?   1.78 276.2   45 292  19  99
   2024 07 20 16:40  19 36 45.48    -07 56 49.4   0.0117 1.0275 166.1  m  21?   1.70 276.9   43 290  19  99
   2024 07 20 16:50  19 36 44.38    -07 56 47.3   0.0117 1.0275 166.1  m  21?   1.61 277.7   41 288  19  99
   2024 07 20 17:00  19 36 43.34    -07 56 45.0   0.0117 1.0275 166.1  m  21?   1.52 278.6   39 286  19  99
   2024 07 20 17:10  19 36 42.35    -07 56 42.6   0.0117 1.0275 166.1  m  21?   1.43 279.6   37 284  19  99
   2024 07 20 17:20  19 36 41.44    -07 56 40.1   0.0117 1.0275 166.1  m  21?   1.34 280.7   35 283  19  99
   2024 07 20 17:30  19 36 40.59    -07 56 37.5   0.0117 1.0274 166.1  m  21?   1.24 282.0   32 281  19  99
   2024 07 20 17:40  19 36 39.81    -07 56 34.9   0.0117 1.0274 166.1  m  21?   1.14 283.6   30 280  19  99
   2024 07 20 17:50  19 36 39.10    -07 56 32.1   0.0117 1.0274 166.1  m  21?   1.04 285.4   28 278  19  99
   2024 07 20 18:00  19 36 38.46    -07 56 29.3   0.0117 1.0274 166.1  m  21?   0.94 287.6   26 277  19  99
   2024 07 20 18:10  19 36 37.90    -07 56 26.4   0.0117 1.0274 166.0  m  21?   0.83 290.4   24 275  19  99
   2024 07 20 18:20  19 36 37.41    -07 56 23.4   0.0117 1.0274 166.0  m  21?   0.73 294.0   22 274  18  99
   2024 07 20 18:30  19 36 37.00    -07 56 20.4   0.0117 1.0274 166.0  m  21?   0.63 298.8   20 273  18  99
   2024 07 20 18:40  19 36 36.67    -07 56 17.4   0.0117 1.0274 166.0  m  21?   0.53 305.4   18 271  18  99
   2024 07 20 18:50  19 36 36.42    -07 56 14.2   0.0117 1.0274 166.0  m  21?   0.44 314.8   15 270  18  99
   2024 07 20 19:00  19 36 36.25    -07 56 11.1   0.0117 1.0274 166.0  m  21?   0.37 328.4   13 269  18  99
   2024 07 20 19:10  19 36 36.16    -07 56 07.9   0.0117 1.0274 166.0  m  21?   0.33 347.1   11 267  18  99
   2024 07 20 19:20  19 36 36.15    -07 56 04.7   0.0117 1.0274 166.0  m  21?   0.32   8.8    9 266  18  99
   2024 07 20 19:30  19 36 36.23    -07 56 01.5   0.0117 1.0274 166.0  m  21?   0.37  28.1    7 265  18  99
   2024 07 20 19:40  19 36 36.38    -07 55 58.3   0.0117 1.0274 166.0 Am  21?   0.44  42.5    5 263  18  99
   2024 07 20 19:50  19 36 36.62    -07 55 55.1   0.0117 1.0274 166.0 Am  21?   0.53  52.4    3 262  18  99
   2024 07 20 20:00  19 36 36.95    -07 55 51.9   0.0117 1.0274 166.0 Am  21?   0.63  59.3    0 261  18  99
   ................
   2024 07 21 07:30  19 38 20.23    -07 56 41.4   0.0117 1.0274 166.1 Cm  21?   0.72 129.5    0  98  18  99
   2024 07 21 07:40  19 38 20.56    -07 56 45.9   0.0117 1.0274 166.1 Cm  21?   0.63 136.7    2  97  18  99
   2024 07 21 07:50  19 38 20.81    -07 56 50.5   0.0117 1.0274 166.1 Nm  21?   0.55 146.0    5  96  18  99
   2024 07 21 08:00  19 38 20.97    -07 56 55.1   0.0117 1.0274 166.1 Nm  21?   0.49 157.9    7  94  18  99
   2024 07 21 08:10  19 38 21.05    -07 56 59.7   0.0117 1.0274 166.1 Nm  21?   0.46 172.2    9  93  18  99
   2024 07 21 08:20  19 38 21.05    -07 57 04.2   0.0117 1.0274 166.1 Am  21?   0.46 187.4   11  92  18  99
   2024 07 21 08:30  19 38 20.97    -07 57 08.8   0.0117 1.0274 166.1 Am  21?   0.49 201.8   13  91  18  99
   2024 07 21 08:40  19 38 20.81    -07 57 13.2   0.0117 1.0274 166.1 Am  21?   0.54 213.9   15  89  18  99
   2024 07 21 08:50  19 38 20.57    -07 57 17.7   0.0117 1.0274 166.1  m  21?   0.61 223.4   17  88  18  99
   2024 07 21 09:00  19 38 20.24    -07 57 22.1   0.0117 1.0274 166.1  m  21?   0.69 230.7   20  87  18  99
   2024 07 21 09:10  19 38 19.84    -07 57 26.5   0.0117 1.0274 166.1  m  21?   0.78 236.4   22  85  18  99
   2024 07 21 09:20  19 38 19.36    -07 57 30.7   0.0117 1.0274 166.1  m  21?   0.88 240.8   24  84  18  99
   2024 07 21 09:30  19 38 18.81    -07 57 35.0   0.0117 1.0274 166.1  m  21?   0.97 244.4   26  82  18  99
   2024 07 21 09:40  19 38 18.18    -07 57 39.1   0.0117 1.0274 166.1  m  21?   1.07 247.3   28  81  18  99
   2024 07 21 09:50  19 38 17.48    -07 57 43.2   0.0117 1.0274 166.1  m  21?   1.17 249.7   30  79  18  99
   2024 07 21 10:00  19 38 16.70    -07 57 47.1   0.0117 1.0274 166.1  m  21?   1.26 251.7   32  78  18  99
   2024 07 21 10:10  19 38 15.86    -07 57 51.0   0.0117 1.0274 166.1  m  21?   1.36 253.4   34  76  18  99
   2024 07 21 10:20  19 38 14.95    -07 57 54.8   0.0117 1.0274 166.1  m  21?   1.45 254.9   37  75  18  99
   2024 07 21 10:30  19 38 13.98    -07 57 58.5   0.0117 1.0274 166.1  m  21?   1.54 256.2   39  73  18  99
   2024 07 21 10:40  19 38 12.94    -07 58 02.0   0.0117 1.0274 166.1  m  21?   1.62 257.4   41  71  18  99
   2024 07 21 10:50  19 38 11.84    -07 58 05.5   0.0117 1.0274 166.1  m  21?   1.71 258.4   43  69  18  99
   2024 07 21 11:00  19 38 10.69    -07 58 08.8   0.0117 1.0274 166.1  m  21?   1.79 259.3   45  67  18  99
   2024 07 21 11:10  19 38 09.48    -07 58 12.0   0.0117 1.0274 166.1  m  21?   1.86 260.2   47  65  18  99
   2024 07 21 11:20  19 38 08.22    -07 58 15.0   0.0117 1.0274 166.1  m  21?   1.93 260.9   49  62  18  99
   2024 07 21 11:30  19 38 06.91    -07 58 18.0   0.0117 1.0274 166.1  m  21?   2.00 261.6   50  60  18  99
   2024 07 21 11:40  19 38 05.56    -07 58 20.7   0.0117 1.0274 166.1  m  21?   2.06 262.3   52  57  18  99
   2024 07 21 11:50  19 38 04.16    -07 58 23.4   0.0117 1.0274 166.0  m  21?   2.12 262.9   54  54  18  99
   2024 07 21 12:00  19 38 02.72    -07 58 25.9   0.0117 1.0274 166.0  m  21?   2.18 263.5   56  51  18  99
   2024 07 21 12:10  19 38 01.24    -07 58 28.2   0.0117 1.0274 166.0  m  21?   2.23 264.0   57  48  18  99
   2024 07 21 12:20  19 37 59.73    -07 58 30.4   0.0117 1.0274 166.0  m  21?   2.27 264.5   59  44  18  99
   2024 07 21 12:30  19 37 58.20    -07 58 32.4   0.0117 1.0274 166.0  m  21?   2.31 265.0   60  40  18  99
   2024 07 21 12:40  19 37 56.63    -07 58 34.2   0.0117 1.0274 166.0  m  21?   2.35 265.5   62  35  18  99
   2024 07 21 12:50  19 37 55.04    -07 58 35.9   0.0117 1.0274 166.0  m  21?   2.38 265.9   63  31  18  99
   2024 07 21 13:00  19 37 53.44    -07 58 37.5   0.0117 1.0274 166.0  m  21?   2.40 266.4   64  25  18  99
   2024 07 21 13:10  19 37 51.81    -07 58 38.8   0.0117 1.0274 166.0  m  21?   2.42 266.8   65  20  18  99
   2024 07 21 13:20  19 37 50.18    -07 58 40.0   0.0117 1.0274 166.0  m  21?   2.44 267.2   66  14  18  99
   2024 07 21 13:30  19 37 48.53    -07 58 41.0   0.0117 1.0274 166.0  m  21?   2.45 267.6   66   8  18  99
   2024 07 21 13:40  19 37 46.89    -07 58 41.9   0.0117 1.0274 166.0  m  21?   2.45 268.0   66   2  19  99
   2024 07 21 13:50  19 37 45.24    -07 58 42.6   0.0117 1.0274 166.0  t  21?   2.45 268.4   66 355  19  99
   2024 07 21 14:00  19 37 43.59    -07 58 43.1   0.0117 1.0274 166.0  m  21?   2.44 268.8   66 349  19  99
   2024 07 21 14:10  19 37 41.95    -07 58 43.4   0.0117 1.0274 166.0  m  21?   2.43 269.2   65 343  19  99
   2024 07 21 14:20  19 37 40.31    -07 58 43.6   0.0117 1.0274 166.0  m  21?   2.41 269.6   65 337  19  99
   2024 07 21 14:30  19 37 38.70    -07 58 43.6   0.0117 1.0274 166.0  m  21?   2.39 270.0   64 332  19  99
   2024 07 21 14:40  19 37 37.10    -07 58 43.5   0.0117 1.0274 166.0  m  21?   2.36 270.4   63 327  19  99
   2024 07 21 14:50  19 37 35.51    -07 58 43.2   0.0117 1.0274 166.0  m  21?   2.33 270.8   61 322  19  99
   2024 07 21 15:00  19 37 33.96    -07 58 42.7   0.0117 1.0274 166.0  m  21?   2.29 271.2   60 318  19  99
   2024 07 21 15:10  19 37 32.43    -07 58 42.1   0.0117 1.0274 166.0  m  21?   2.25 271.6   59 314  19  99
   2024 07 21 15:20  19 37 30.93    -07 58 41.3   0.0117 1.0274 166.0  m  21?   2.20 272.1   57 310  19  99
   2024 07 21 15:30  19 37 29.47    -07 58 40.3   0.0117 1.0274 165.9  m  21?   2.15 272.5   55 307  19  99
   2024 07 21 15:40  19 37 28.04    -07 58 39.2   0.0117 1.0274 165.9  m  21?   2.09 273.0   54 304  19  99
   2024 07 21 15:50  19 37 26.65    -07 58 38.0   0.0117 1.0274 165.9  m  21?   2.03 273.5   52 301  19  99
   2024 07 21 16:00  19 37 25.31    -07 58 36.6   0.0117 1.0274 165.9  m  21?   1.96 274.1   50 298  19  99
   2024 07 21 16:10  19 37 24.02    -07 58 35.1   0.0117 1.0274 165.9  m  21?   1.89 274.6   48 296  19  99
   2024 07 21 16:20  19 37 22.77    -07 58 33.5   0.0117 1.0274 165.9  m  21?   1.82 275.2   46 294  19  99
   2024 07 21 16:30  19 37 21.58    -07 58 31.7   0.0117 1.0274 165.9  m  21?   1.74 275.9   44 291  19  99
   2024 07 21 16:40  19 37 20.44    -07 58 29.8   0.0117 1.0274 165.9  m  21?   1.66 276.6   42 289  19  99
   2024 07 21 16:50  19 37 19.37    -07 58 27.7   0.0117 1.0274 165.9  m  21?   1.57 277.4   40 287  19  99
   2024 07 21 17:00  19 37 18.35    -07 58 25.6   0.0117 1.0274 165.9  m  21?   1.48 278.3   38 286  19  99
   2024 07 21 17:10  19 37 17.40    -07 58 23.4   0.0117 1.0274 165.9  m  21?   1.39 279.3   36 284  19  99
   2024 07 21 17:20  19 37 16.51    -07 58 21.0   0.0117 1.0274 165.9  m  21?   1.29 280.5   34 282  19  99
   2024 07 21 17:30  19 37 15.69    -07 58 18.6   0.0117 1.0274 165.9  m  21?   1.19 281.8   32 281  19  99
   2024 07 21 17:40  19 37 14.94    -07 58 16.1   0.0117 1.0274 165.9  m  21?   1.09 283.4   30 279  19  99
   2024 07 21 17:50  19 37 14.26    -07 58 13.5   0.0117 1.0274 165.9  m  21?   0.99 285.3   28 278  19  99
   2024 07 21 18:00  19 37 13.65    -07 58 10.8   0.0117 1.0274 165.9  m  21?   0.89 287.7   25 276  19  99
   2024 07 21 18:10  19 37 13.12    -07 58 08.0   0.0117 1.0274 165.9  m  21?   0.78 290.7   23 275  19  99
   2024 07 21 18:20  19 37 12.67    -07 58 05.2   0.0117 1.0274 165.9  m  21?   0.68 294.6   21 273  19  99
   2024 07 21 18:30  19 37 12.29    -07 58 02.3   0.0117 1.0274 165.9  m  21?   0.58 299.9   19 272  19  99
   2024 07 21 18:40  19 37 11.99    -07 57 59.4   0.0117 1.0274 165.9  m  21?   0.48 307.4   17 271  19  99
   2024 07 21 18:50  19 37 11.78    -07 57 56.5   0.0117 1.0274 165.9  m  21?   0.40 318.3   15 269  19  99
   2024 07 21 19:00  19 37 11.64    -07 57 53.5   0.0117 1.0274 165.9  m  21?   0.33 334.5   13 268  19  99
   2024 07 21 19:10  19 37 11.58    -07 57 50.5   0.0117 1.0274 165.9  m  21?   0.30 355.9   10 267  19  99
   2024 07 21 19:20  19 37 11.61    -07 57 47.4   0.0117 1.0274 165.9  m  21?   0.32  18.3    8 266  19  99
   2024 07 21 19:30  19 37 11.72    -07 57 44.4   0.0117 1.0274 165.8  m  21?   0.38  36.2    6 264  19  99
   2024 07 21 19:40  19 37 11.91    -07 57 41.3   0.0117 1.0274 165.8 Am  21?   0.46  48.6    4 263  19  99
   2024 07 21 19:50  19 37 12.19    -07 57 38.3   0.0117 1.0274 165.8 Am  21?   0.56  56.9    2 262  19  99
   2024 07 21 20:00  19 37 12.55    -07 57 35.2   0.0117 1.0274 165.8 Am  21?   0.67  62.8    0 260  19  99
   ................
   2024 07 22 07:30  19 38 56.30    -07 58 40.0   0.0117 1.0273 165.9 C   21?   0.71 132.4    1  98  24  98
   2024 07 22 07:40  19 38 56.61    -07 58 44.8   0.0117 1.0273 165.9 C   21?   0.62 140.1    3  97  24  98
   2024 07 22 07:50  19 38 56.83    -07 58 49.6   0.0117 1.0273 165.9 N   21?   0.55 150.0    5  95  24  98
   2024 07 22 08:00  19 38 56.98    -07 58 54.4   0.0117 1.0273 165.9 N   21?   0.50 162.2    7  94  24  98
   2024 07 22 08:10  19 38 57.04    -07 58 59.1   0.0117 1.0273 165.9 Nm  21?   0.48 176.3   10  93  24  98
   2024 07 22 08:20  19 38 57.02    -07 59 03.9   0.0117 1.0273 165.9 Am  21?   0.48 190.9   12  91  24  98
   2024 07 22 08:30  19 38 56.91    -07 59 08.6   0.0117 1.0273 165.9 Am  21?   0.52 204.3   14  90  24  98
   2024 07 22 08:40  19 38 56.73    -07 59 13.3   0.0117 1.0273 165.9 Am  21?   0.57 215.4   16  89  24  98
   2024 07 22 08:50  19 38 56.46    -07 59 17.9   0.0117 1.0273 165.9  m  21?   0.65 224.2   18  87  24  98
   2024 07 22 09:00  19 38 56.12    -07 59 22.5   0.0117 1.0273 165.9  m  21?   0.73 231.1   20  86  25  98
   2024 07 22 09:10  19 38 55.70    -07 59 27.0   0.0117 1.0273 165.9  m  21?   0.82 236.5   22  85  25  98
   2024 07 22 09:20  19 38 55.20    -07 59 31.5   0.0117 1.0273 165.9  m  21?   0.91 240.8   25  83  25  98
   2024 07 22 09:30  19 38 54.62    -07 59 35.9   0.0117 1.0273 165.9  m  21?   1.01 244.2   27  82  25  98
   2024 07 22 09:40  19 38 53.98    -07 59 40.2   0.0117 1.0273 165.9  m  21?   1.10 247.0   29  81  25  98
   2024 07 22 09:50  19 38 53.26    -07 59 44.5   0.0117 1.0273 165.9  m  21?   1.20 249.4   31  79  25  98
   2024 07 22 10:00  19 38 52.46    -07 59 48.6   0.0117 1.0273 165.9  m  21?   1.29 251.4   33  77  25  98
   2024 07 22 10:10  19 38 51.60    -07 59 52.7   0.0117 1.0273 165.9  m  21?   1.39 253.1   35  76  25  98
   2024 07 22 10:20  19 38 50.68    -07 59 56.6   0.0117 1.0273 165.9  m  21?   1.48 254.5   37  74  25  98
   2024 07 22 10:30  19 38 49.69    -08 00 00.4   0.0117 1.0273 165.9  m  21?   1.56 255.8   39  72  25  98
   2024 07 22 10:40  19 38 48.64    -08 00 04.2   0.0117 1.0273 165.9  m  21?   1.65 257.0   41  70  25  98
   2024 07 22 10:50  19 38 47.53    -08 00 07.8   0.0117 1.0273 165.9  m  21?   1.73 258.0   43  68  25  98
   2024 07 22 11:00  19 38 46.36    -08 00 11.2   0.0117 1.0273 165.9  m  21?   1.81 258.9   45  66  25  98
   2024 07 22 11:10  19 38 45.14    -08 00 14.6   0.0117 1.0273 165.9  m  21?   1.88 259.8   47  64  25  98
   2024 07 22 11:20  19 38 43.86    -08 00 17.8   0.0117 1.0273 165.9  m  21?   1.95 260.6   49  62  26  98
   2024 07 22 11:30  19 38 42.54    -08 00 20.9   0.0117 1.0273 165.9  m  21?   2.02 261.3   51  59  26  98
   2024 07 22 11:40  19 38 41.18    -08 00 23.8   0.0117 1.0273 165.9  m  21?   2.08 261.9   53  56  26  98
   2024 07 22 11:50  19 38 39.77    -08 00 26.6   0.0117 1.0273 165.9  m  21?   2.14 262.6   55  53  26  98
   2024 07 22 12:00  19 38 38.32    -08 00 29.2   0.0117 1.0273 165.9  m  21?   2.19 263.1   56  50  26  98
   2024 07 22 12:10  19 38 36.84    -08 00 31.7   0.0117 1.0273 165.9  m  21?   2.24 263.7   58  47  26  98
   2024 07 22 12:20  19 38 35.33    -08 00 34.0   0.0117 1.0273 165.8  m  21?   2.28 264.2   60  43  26  98
   2024 07 22 12:30  19 38 33.78    -08 00 36.2   0.0117 1.0273 165.8  m  21?   2.32 264.7   61  38  26  98
   2024 07 22 12:40  19 38 32.21    -08 00 38.1   0.0117 1.0273 165.8  m  21?   2.35 265.2   62  34  26  98
   2024 07 22 12:50  19 38 30.62    -08 00 40.0   0.0117 1.0273 165.8  m  21?   2.38 265.6   63  29  26  98
   2024 07 22 13:00  19 38 29.01    -08 00 41.6   0.0117 1.0273 165.8  m  21?   2.41 266.1   64  24  26  98
   2024 07 22 13:10  19 38 27.39    -08 00 43.1   0.0117 1.0273 165.8  m  21?   2.42 266.5   65  18  26  98
   2024 07 22 13:20  19 38 25.76    -08 00 44.5   0.0117 1.0273 165.8  m  21?   2.44 266.9   66  12  26  98
   2024 07 22 13:30  19 38 24.12    -08 00 45.6   0.0117 1.0273 165.8  m  21?   2.44 267.3   66   6  26  98
   2024 07 22 13:40  19 38 22.47    -08 00 46.6   0.0117 1.0273 165.8  m  21?   2.45 267.7   66   0  26  98
   2024 07 22 13:50  19 38 20.83    -08 00 47.4   0.0117 1.0273 165.8  t  21?   2.44 268.1   66 353  26  97
   2024 07 22 14:00  19 38 19.18    -08 00 48.1   0.0117 1.0273 165.8  m  21?   2.43 268.5   66 347  26  97
   2024 07 22 14:10  19 38 17.55    -08 00 48.6   0.0117 1.0273 165.8  m  21?   2.42 268.9   65 341  26  97
   2024 07 22 14:20  19 38 15.93    -08 00 48.9   0.0117 1.0273 165.8  m  21?   2.40 269.3   64 336  27  97
   2024 07 22 14:30  19 38 14.32    -08 00 49.0   0.0117 1.0273 165.8  m  21?   2.38 269.7   63 330  27  97
   2024 07 22 14:40  19 38 12.73    -08 00 49.0   0.0117 1.0273 165.8  m  21?   2.35 270.1   62 325  27  97
   2024 07 22 14:50  19 38 11.16    -08 00 48.8   0.0117 1.0273 165.8  m  21?   2.31 270.5   61 321  27  97
   2024 07 22 15:00  19 38 09.61    -08 00 48.5   0.0117 1.0273 165.8  m  21?   2.27 270.9   60 317  27  97
   2024 07 22 15:10  19 38 08.10    -08 00 48.0   0.0117 1.0273 165.8  m  21?   2.23 271.3   58 313  27  97
   2024 07 22 15:20  19 38 06.61    -08 00 47.3   0.0117 1.0273 165.7  m  21?   2.18 271.8   56 309  27  97
   2024 07 22 15:30  19 38 05.17    -08 00 46.5   0.0117 1.0273 165.7  m  21?   2.12 272.2   55 306  27  97
   2024 07 22 15:40  19 38 03.76    -08 00 45.5   0.0117 1.0273 165.7  m  21?   2.07 272.7   53 303  27  97
   2024 07 22 15:50  19 38 02.39    -08 00 44.4   0.0117 1.0273 165.7  m  21?   2.00 273.2   51 300  27  97
   2024 07 22 16:00  19 38 01.07    -08 00 43.2   0.0117 1.0273 165.7  m  21?   1.93 273.7   49 297  27  97
   2024 07 22 16:10  19 37 59.79    -08 00 41.8   0.0117 1.0273 165.7  m  21?   1.86 274.3   47 295  27  97
   2024 07 22 16:20  19 37 58.57    -08 00 40.3   0.0117 1.0273 165.7  m  21?   1.78 274.9   45 293  27  97
   2024 07 22 16:30  19 37 57.40    -08 00 38.6   0.0117 1.0273 165.7  m  21?   1.70 275.6   43 291  27  97
   2024 07 22 16:40  19 37 56.29    -08 00 36.9   0.0117 1.0273 165.7  m  21?   1.62 276.3   41 289  27  97
   2024 07 22 16:50  19 37 55.23    -08 00 35.0   0.0117 1.0273 165.7  m  21?   1.53 277.1   39 287  27  97
   2024 07 22 17:00  19 37 54.24    -08 00 33.0   0.0117 1.0273 165.7  m  21?   1.44 278.0   37 285  27  97
   2024 07 22 17:10  19 37 53.31    -08 00 30.9   0.0117 1.0273 165.7  m  21?   1.35 279.0   35 283  27  97
   2024 07 22 17:20  19 37 52.45    -08 00 28.7   0.0117 1.0273 165.7  m  21?   1.25 280.2   33 282  27  97
   2024 07 22 17:30  19 37 51.66    -08 00 26.4   0.0117 1.0273 165.7  m  21?   1.15 281.6   31 280  27  97
   2024 07 22 17:40  19 37 50.94    -08 00 24.0   0.0117 1.0273 165.7  m  21?   1.05 283.2   29 279  27  97
   2024 07 22 17:50  19 37 50.28    -08 00 21.5   0.0117 1.0273 165.7  m  21?   0.95 285.2   27 277  27  97
   2024 07 22 18:00  19 37 49.71    -08 00 19.0   0.0117 1.0273 165.7  m  21?   0.84 287.6   25 276  28  97
   2024 07 22 18:10  19 37 49.21    -08 00 16.4   0.0117 1.0273 165.7  m  21?   0.74 290.8   23 274  28  97
   2024 07 22 18:20  19 37 48.78    -08 00 13.7   0.0117 1.0273 165.7  m  21?   0.63 295.0   20 273  28  97
   2024 07 22 18:30  19 37 48.44    -08 00 11.0   0.0117 1.0273 165.7  m  21?   0.53 300.9   18 272  28  97
   2024 07 22 18:40  19 37 48.17    -08 00 08.3   0.0117 1.0273 165.7  m  21?   0.44 309.4   16 270  28  97
   2024 07 22 18:50  19 37 47.98    -08 00 05.5   0.0117 1.0273 165.6  m  21?   0.36 322.3   14 269  28  97
   2024 07 22 19:00  19 37 47.88    -08 00 02.6   0.0117 1.0273 165.6  m  21?   0.30 341.3   12 268  28  97
   2024 07 22 19:10  19 37 47.86    -07 59 59.8   0.0117 1.0273 165.6  m  21?   0.29   5.1   10 266  28  97
   2024 07 22 19:20  19 37 47.91    -07 59 56.9   0.0117 1.0273 165.6  m  21?   0.32  27.2    8 265  28  97
   2024 07 22 19:30  19 37 48.06    -07 59 54.0   0.0117 1.0273 165.6  m  21?   0.40  43.2    5 264  28  97
   2024 07 22 19:40  19 37 48.28    -07 59 51.1   0.0117 1.0273 165.6 Am  21?   0.49  53.8    3 263  28  97
   2024 07 22 19:50  19 37 48.59    -07 59 48.3   0.0117 1.0273 165.6 Am  21?   0.59  60.9    1 261  28  97
   2024 07 22 20:00  19 37 48.98    -07 59 45.4   0.0117 1.0273 165.6 Am  21?   0.70  65.9    0 260  28  97
   ................
   2024 07 23 07:30  19 39 33.05    -08 01 06.1   0.0117 1.0272 165.7 C   21?   0.70 135.7    2  97  35  94
   2024 07 23 07:40  19 39 33.33    -08 01 11.1   0.0117 1.0272 165.7 C   21?   0.62 144.0    4  96  35  94
   2024 07 23 07:50  19 39 33.53    -08 01 16.1   0.0117 1.0272 165.7 N   21?   0.55 154.3    6  95  35  94
   2024 07 23 08:00  19 39 33.65    -08 01 21.1   0.0117 1.0272 165.7 N   21?   0.51 166.7    8  94  35  94
   2024 07 23 08:10  19 39 33.69    -08 01 26.1   0.0117 1.0272 165.7 N   21?   0.50 180.6   10  92  35  94
   2024 07 23 08:20  19 39 33.65    -08 01 31.1   0.0117 1.0272 165.7 A   21?   0.51 194.4   12  91  35  94
   2024 07 23 08:30  19 39 33.52    -08 01 36.0   0.0117 1.0272 165.7 A   21?   0.55 206.7   15  90  36  94
   2024 07 23 08:40  19 39 33.31    -08 01 40.9   0.0117 1.0272 165.7 A   21?   0.61 217.0   17  88  36  94
   2024 07 23 08:50  19 39 33.02    -08 01 45.7   0.0117 1.0272 165.7     21?   0.68 225.1   19  87  36  94
   2024 07 23 09:00  19 39 32.66    -08 01 50.5   0.0117 1.0272 165.7     21?   0.77 231.5   21  86  36  94
   2024 07 23 09:10  19 39 32.21    -08 01 55.2   0.0117 1.0272 165.7     21?   0.86 236.6   23  84  36  94
   2024 07 23 09:20  19 39 31.69    -08 01 59.9   0.0117 1.0272 165.7  m  21?   0.95 240.7   25  83  36  94
   2024 07 23 09:30  19 39 31.09    -08 02 04.5   0.0117 1.0272 165.7  m  21?   1.05 244.0   27  82  36  94
   2024 07 23 09:40  19 39 30.42    -08 02 09.0   0.0117 1.0272 165.7  m  21?   1.14 246.8   30  80  36  94
   2024 07 23 09:50  19 39 29.68    -08 02 13.4   0.0117 1.0272 165.7  m  21?   1.23 249.1   32  79  36  94
   2024 07 23 10:00  19 39 28.87    -08 02 17.7   0.0117 1.0272 165.7  m  21?   1.33 251.0   34  77  36  94
   2024 07 23 10:10  19 39 27.99    -08 02 22.0   0.0117 1.0272 165.7  m  21?   1.42 252.7   36  75  36  94
   2024 07 23 10:20  19 39 27.04    -08 02 26.1   0.0117 1.0272 165.7  m  21?   1.51 254.2   38  74  37  94
   2024 07 23 10:30  19 39 26.04    -08 02 30.1   0.0117 1.0272 165.7  m  21?   1.59 255.5   40  72  37  94
   2024 07 23 10:40  19 39 24.97    -08 02 34.0   0.0117 1.0272 165.7  m  21?   1.68 256.6   42  70  37  94
   2024 07 23 10:50  19 39 23.84    -08 02 37.8   0.0117 1.0272 165.7  m  21?   1.76 257.6   44  68  37  93
   2024 07 23 11:00  19 39 22.65    -08 02 41.4   0.0117 1.0272 165.7  m  21?   1.83 258.6   46  66  37  93
   2024 07 23 11:10  19 39 21.42    -08 02 44.9   0.0117 1.0272 165.7  m  21?   1.91 259.4   48  63  37  93
   2024 07 23 11:20  19 39 20.13    -08 02 48.3   0.0117 1.0272 165.7  m  21?   1.97 260.2   50  61  37  93
   2024 07 23 11:30  19 39 18.80    -08 02 51.6   0.0117 1.0272 165.6  m  21?   2.04 260.9   52  58  37  93
   2024 07 23 11:40  19 39 17.42    -08 02 54.6   0.0117 1.0272 165.6  m  21?   2.10 261.6   54  55  37  93
   2024 07 23 11:50  19 39 16.00    -08 02 57.6   0.0117 1.0272 165.6  m  21?   2.16 262.2   55  52  37  93
   2024 07 23 12:00  19 39 14.54    -08 03 00.4   0.0117 1.0272 165.6  m  21?   2.21 262.8   57  49  37  93
   2024 07 23 12:10  19 39 13.05    -08 03 03.0   0.0117 1.0272 165.6  m  21?   2.25 263.3   59  45  37  93
   2024 07 23 12:20  19 39 11.53    -08 03 05.5   0.0117 1.0272 165.6  m  21?   2.30 263.8   60  41  38  93
   2024 07 23 12:30  19 39 09.98    -08 03 07.8   0.0117 1.0272 165.6  m  21?   2.33 264.3   61  37  38  93
   2024 07 23 12:40  19 39 08.40    -08 03 09.9   0.0117 1.0272 165.6  m  21?   2.36 264.8   63  32  38  93
   2024 07 23 12:50  19 39 06.81    -08 03 11.9   0.0117 1.0272 165.6  m  21?   2.39 265.3   64  27  38  93
   2024 07 23 13:00  19 39 05.20    -08 03 13.7   0.0117 1.0272 165.6  m  21?   2.41 265.7   65  22  38  93
   2024 07 23 13:10  19 39 03.57    -08 03 15.4   0.0117 1.0272 165.6  m  21?   2.43 266.1   65  16  38  93
   2024 07 23 13:20  19 39 01.94    -08 03 16.8   0.0117 1.0272 165.6  m  21?   2.44 266.6   66  10  38  93
   2024 07 23 13:30  19 39 00.29    -08 03 18.1   0.0117 1.0272 165.6  m  21?   2.44 267.0   66   4  38  93
   2024 07 23 13:40  19 38 58.65    -08 03 19.3   0.0117 1.0272 165.6  t  21?   2.44 267.4   66 358  38  93
   2024 07 23 13:50  19 38 57.01    -08 03 20.2   0.0117 1.0272 165.6  m  21?   2.44 267.8   66 351  38  93
   2024 07 23 14:00  19 38 55.37    -08 03 21.0   0.0117 1.0272 165.6  m  21?   2.43 268.2   66 345  38  93
   2024 07 23 14:10  19 38 53.74    -08 03 21.6   0.0117 1.0272 165.6  m  21?   2.41 268.6   65 339  38  93
   2024 07 23 14:20  19 38 52.12    -08 03 22.1   0.0117 1.0272 165.6  m  21?   2.39 268.9   64 334  38  93
   2024 07 23 14:30  19 38 50.52    -08 03 22.4   0.0117 1.0272 165.5  m  21?   2.37 269.3   63 329  38  93
   2024 07 23 14:40  19 38 48.94    -08 03 22.5   0.0117 1.0272 165.5  m  21?   2.33 269.7   62 324  39  93
   2024 07 23 14:50  19 38 47.38    -08 03 22.5   0.0117 1.0272 165.5  m  21?   2.30 270.1   61 319  39  93
   2024 07 23 15:00  19 38 45.84    -08 03 22.3   0.0117 1.0272 165.5  m  21?   2.26 270.5   59 315  39  93
   2024 07 23 15:10  19 38 44.34    -08 03 21.9   0.0117 1.0272 165.5  m  21?   2.21 271.0   58 311  39  93
   2024 07 23 15:20  19 38 42.87    -08 03 21.4   0.0117 1.0272 165.5  m  21?   2.16 271.4   56 308  39  93
   2024 07 23 15:30  19 38 41.44    -08 03 20.7   0.0117 1.0272 165.5  m  21?   2.10 271.9   54 305  39  93
   2024 07 23 15:40  19 38 40.04    -08 03 19.9   0.0117 1.0272 165.5  m  21?   2.04 272.3   52 302  39  93
   2024 07 23 15:50  19 38 38.69    -08 03 18.9   0.0117 1.0272 165.5  m  21?   1.98 272.8   51 299  39  93
   2024 07 23 16:00  19 38 37.39    -08 03 17.8   0.0117 1.0272 165.5  m  21?   1.91 273.4   49 297  39  93
   2024 07 23 16:10  19 38 36.13    -08 03 16.6   0.0117 1.0272 165.5  m  21?   1.83 273.9   47 294  39  93
   2024 07 23 16:20  19 38 34.92    -08 03 15.2   0.0117 1.0272 165.5  m  21?   1.75 274.5   45 292  39  93
   2024 07 23 16:30  19 38 33.78    -08 03 13.7   0.0117 1.0272 165.5  m  21?   1.67 275.2   43 290  39  92
   2024 07 23 16:40  19 38 32.68    -08 03 12.1   0.0117 1.0272 165.5  m  21?   1.59 275.9   41 288  39  92
   2024 07 23 16:50  19 38 31.65    -08 03 10.3   0.0117 1.0272 165.5  m  21?   1.50 276.7   39 286  39  92
   2024 07 23 17:00  19 38 30.68    -08 03 08.5   0.0117 1.0272 165.5  m  21?   1.40 277.6   37 284  39  92
   2024 07 23 17:10  19 38 29.78    -08 03 06.5   0.0117 1.0272 165.5  m  21?   1.31 278.6   35 283  39  92
   2024 07 23 17:20  19 38 28.94    -08 03 04.5   0.0117 1.0272 165.4  m  21?   1.21 279.8   33 281  39  92
   2024 07 23 17:30  19 38 28.17    -08 03 02.3   0.0117 1.0272 165.4  m  21?   1.11 281.2   30 280  40  92
   2024 07 23 17:40  19 38 27.48    -08 03 00.1   0.0117 1.0272 165.4  m  21?   1.01 282.8   28 278  40  92
   2024 07 23 17:50  19 38 26.85    -08 02 57.8   0.0117 1.0272 165.4  m  21?   0.90 284.9   26 277  40  92
   2024 07 23 18:00  19 38 26.30    -08 02 55.4   0.0117 1.0272 165.4  m  21?   0.80 287.4   24 275  40  92
   2024 07 23 18:10  19 38 25.83    -08 02 53.0   0.0117 1.0272 165.4  m  21?   0.69 290.8   22 274  40  92
   2024 07 23 18:20  19 38 25.43    -08 02 50.5   0.0117 1.0272 165.4  m  21?   0.59 295.3   20 272  40  92
   2024 07 23 18:30  19 38 25.11    -08 02 47.9   0.0117 1.0272 165.4  m  21?   0.49 301.8   18 271  40  92
   2024 07 23 18:40  19 38 24.88    -08 02 45.3   0.0117 1.0272 165.4  m  21?   0.39 311.5   15 270  40  92
   2024 07 23 18:50  19 38 24.72    -08 02 42.7   0.0117 1.0272 165.4  m  21?   0.32 326.6   13 268  40  92
   2024 07 23 19:00  19 38 24.64    -08 02 40.0   0.0117 1.0272 165.4  m  21?   0.27 348.9   11 267  40  92
   2024 07 23 19:10  19 38 24.65    -08 02 37.3   0.0117 1.0272 165.4  m  21?   0.28  14.6    9 266  40  92
   2024 07 23 19:20  19 38 24.74    -08 02 34.6   0.0117 1.0272 165.4  m  21?   0.33  35.5    7 265  40  92
   2024 07 23 19:30  19 38 24.91    -08 02 31.9   0.0117 1.0272 165.4  m  21?   0.42  49.3    5 263  40  92
   2024 07 23 19:40  19 38 25.16    -08 02 29.2   0.0117 1.0272 165.4 Am  21?   0.52  58.3    3 262  40  92
   2024 07 23 19:50  19 38 25.50    -08 02 26.5   0.0117 1.0272 165.4 Am  21?   0.62  64.3    1 261  40  92
   ................
   2024 07 24 07:30  19 40 10.16    -08 04 01.5   0.0117 1.0271 165.5 C   21?   0.69 139.4    3  97  48  88
   2024 07 24 07:40  19 40 10.42    -08 04 06.7   0.0117 1.0271 165.5 C   21?   0.62 148.1    5  96  48  88
   2024 07 24 07:50  19 40 10.60    -08 04 11.9   0.0117 1.0271 165.5 C   21?   0.56 158.9    7  94  48  88
   2024 07 24 08:00  19 40 10.69    -08 04 17.2   0.0117 1.0271 165.5 N   21?   0.53 171.4    9  93  48  88
   2024 07 24 08:10  19 40 10.70    -08 04 22.4   0.0117 1.0271 165.5 N   21?   0.52 184.8   11  92  48  88
   2024 07 24 08:20  19 40 10.63    -08 04 27.6   0.0117 1.0271 165.5 A   21?   0.54 197.7   13  91  48  88
   2024 07 24 08:30  19 40 10.48    -08 04 32.7   0.0117 1.0271 165.5 A   21?   0.59 209.0   15  89  48  88
   2024 07 24 08:40  19 40 10.25    -08 04 37.8   0.0117 1.0271 165.5 A   21?   0.65 218.4   18  88  48  87
   2024 07 24 08:50  19 40 09.93    -08 04 42.9   0.0117 1.0271 165.5     21?   0.73 226.0   20  87  48  87
   2024 07 24 09:00  19 40 09.54    -08 04 47.9   0.0117 1.0271 165.5     21?   0.81 232.0   22  85  49  87
   2024 07 24 09:10  19 40 09.07    -08 04 52.8   0.0117 1.0271 165.4     21?   0.90 236.8   24  84  49  87
   2024 07 24 09:20  19 40 08.53    -08 04 57.7   0.0117 1.0271 165.4     21?   0.99 240.6   26  83  49  87
   2024 07 24 09:30  19 40 07.91    -08 05 02.5   0.0117 1.0271 165.4     21?   1.09 243.8   28  81  49  87
   2024 07 24 09:40  19 40 07.21    -08 05 07.2   0.0117 1.0271 165.4     21?   1.18 246.5   30  80  49  87
   2024 07 24 09:50  19 40 06.45    -08 05 11.8   0.0117 1.0271 165.4     21?   1.27 248.7   32  78  49  87
   2024 07 24 10:00  19 40 05.61    -08 05 16.4   0.0117 1.0271 165.4     21?   1.36 250.7   35  76  49  87
   2024 07 24 10:10  19 40 04.71    -08 05 20.8   0.0117 1.0271 165.4     21?   1.45 252.3   37  75  49  87
   2024 07 24 10:20  19 40 03.75    -08 05 25.1   0.0117 1.0271 165.4     21?   1.54 253.8   39  73  49  87
   2024 07 24 10:30  19 40 02.72    -08 05 29.3   0.0117 1.0271 165.4  m  21?   1.63 255.1   41  71  50  87
   2024 07 24 10:40  19 40 01.63    -08 05 33.4   0.0117 1.0271 165.4  m  21?   1.71 256.2   43  69  50  87
   2024 07 24 10:50  19 40 00.48    -08 05 37.4   0.0117 1.0271 165.4  m  21?   1.79 257.2   45  67  50  87
   2024 07 24 11:00  19 39 59.28    -08 05 41.2   0.0117 1.0271 165.4  m  21?   1.86 258.2   47  65  50  87
   2024 07 24 11:10  19 39 58.03    -08 05 44.9   0.0117 1.0271 165.4  m  21?   1.93 259.0   49  63  50  87
   2024 07 24 11:20  19 39 56.72    -08 05 48.5   0.0117 1.0271 165.4  m  21?   2.00 259.8   51  60  50  87
   2024 07 24 11:30  19 39 55.38    -08 05 51.9   0.0116 1.0271 165.4  m  21?   2.06 260.5   52  57  50  86
   2024 07 24 11:40  19 39 53.98    -08 05 55.1   0.0116 1.0271 165.4  m  21?   2.12 261.2   54  54  50  86
   2024 07 24 11:50  19 39 52.55    -08 05 58.3   0.0116 1.0271 165.4  m  21?   2.18 261.8   56  51  50  86
   2024 07 24 12:00  19 39 51.08    -08 06 01.2   0.0116 1.0271 165.4  m  21?   2.23 262.4   58  48  50  86
   2024 07 24 12:10  19 39 49.58    -08 06 04.0   0.0116 1.0271 165.4  m  21?   2.27 262.9   59  44  51  86
   2024 07 24 12:20  19 39 48.05    -08 06 06.7   0.0116 1.0271 165.4  m  21?   2.31 263.5   61  40  51  86
   2024 07 24 12:30  19 39 46.49    -08 06 09.1   0.0116 1.0271 165.4  m  21?   2.35 264.0   62  36  51  86
   2024 07 24 12:40  19 39 44.91    -08 06 11.5   0.0116 1.0271 165.4  m  21?   2.38 264.4   63  31  51  86
   2024 07 24 12:50  19 39 43.30    -08 06 13.6   0.0116 1.0271 165.3  m  21?   2.40 264.9   64  26  51  86
   2024 07 24 13:00  19 39 41.69    -08 06 15.6   0.0116 1.0271 165.3  m  21?   2.42 265.3   65  20  51  86
   2024 07 24 13:10  19 39 40.06    -08 06 17.4   0.0116 1.0271 165.3  m  21?   2.43 265.8   66  14  51  86
   2024 07 24 13:20  19 39 38.42    -08 06 19.0   0.0116 1.0271 165.3  m  21?   2.44 266.2   66   8  51  86
   2024 07 24 13:30  19 39 36.77    -08 06 20.5   0.0116 1.0271 165.3  m  21?   2.45 266.6   66   2  51  86
   2024 07 24 13:40  19 39 35.13    -08 06 21.8   0.0116 1.0271 165.3  t  21?   2.44 267.0   66 355  51  86
   2024 07 24 13:50  19 39 33.49    -08 06 22.9   0.0116 1.0271 165.3  m  21?   2.44 267.4   66 349  51  86
   2024 07 24 14:00  19 39 31.85    -08 06 23.8   0.0116 1.0271 165.3  m  21?   2.43 267.8   65 343  51  86
   2024 07 24 14:10  19 39 30.22    -08 06 24.6   0.0116 1.0271 165.3  m  21?   2.41 268.2   65 337  51  86
   2024 07 24 14:20  19 39 28.61    -08 06 25.2   0.0116 1.0271 165.3  m  21?   2.39 268.6   64 332  52  86
   2024 07 24 14:30  19 39 27.01    -08 06 25.6   0.0116 1.0271 165.3  m  21?   2.36 269.0   63 327  52  86
   2024 07 24 14:40  19 39 25.44    -08 06 25.9   0.0116 1.0271 165.3  m  21?   2.32 269.4   62 322  52  86
   2024 07 24 14:50  19 39 23.89    -08 06 26.0   0.0116 1.0271 165.3  m  21?   2.29 269.8   60 318  52  86
   2024 07 24 15:00  19 39 22.36    -08 06 26.0   0.0116 1.0271 165.3  m  21?   2.24 270.2   59 314  52  86
   2024 07 24 15:10  19 39 20.87    -08 06 25.8   0.0116 1.0271 165.3  m  21?   2.19 270.6   57 310  52  86
   2024 07 24 15:20  19 39 19.41    -08 06 25.4   0.0116 1.0271 165.2  m  21?   2.14 271.0   55 307  52  85
   2024 07 24 15:30  19 39 17.99    -08 06 24.9   0.0116 1.0271 165.2  m  21?   2.08 271.5   54 304  52  85
   2024 07 24 15:40  19 39 16.61    -08 06 24.2   0.0116 1.0271 165.2  m  21?   2.02 271.9   52 301  52  85
   2024 07 24 15:50  19 39 15.27    -08 06 23.4   0.0116 1.0271 165.2  m  21?   1.95 272.4   50 298  52  85
   2024 07 24 16:00  19 39 13.98    -08 06 22.4   0.0116 1.0271 165.2  m  21?   1.88 272.9   48 296  52  85
   2024 07 24 16:10  19 39 12.74    -08 06 21.3   0.0117 1.0271 165.2  m  21?   1.81 273.5   46 293  52  85
   2024 07 24 16:20  19 39 11.55    -08 06 20.1   0.0117 1.0271 165.2  m  21?   1.73 274.1   44 291  52  85
   2024 07 24 16:30  19 39 10.42    -08 06 18.8   0.0117 1.0271 165.2  m  21?   1.64 274.7   42 289  52  85
   2024 07 24 16:40  19 39 09.35    -08 06 17.3   0.0117 1.0271 165.2  m  21?   1.56 275.4   40 287  52  85
   2024 07 24 16:50  19 39 08.34    -08 06 15.7   0.0117 1.0271 165.2  m  21?   1.47 276.2   38 285  53  85
   2024 07 24 17:00  19 39 07.39    -08 06 14.0   0.0117 1.0271 165.2  m  21?   1.37 277.1   36 284  53  85
   2024 07 24 17:10  19 39 06.51    -08 06 12.2   0.0117 1.0271 165.2  m  21?   1.27 278.1   34 282  53  85
   2024 07 24 17:20  19 39 05.69    -08 06 10.4   0.0117 1.0271 165.2  m  21?   1.17 279.3   32 281  53  85
   2024 07 24 17:30  19 39 04.95    -08 06 08.4   0.0117 1.0271 165.2  m  21?   1.07 280.7   30 279  53  85
   2024 07 24 17:40  19 39 04.27    -08 06 06.3   0.0117 1.0271 165.2  m  21?   0.97 282.4   28 277  53  85
   2024 07 24 17:50  19 39 03.67    -08 06 04.2   0.0117 1.0271 165.2  m  21?   0.86 284.4   25 276  53  85
   2024 07 24 18:00  19 39 03.15    -08 06 02.0   0.0117 1.0270 165.2  m  21?   0.76 287.1   23 275  53  85
   2024 07 24 18:10  19 39 02.70    -08 05 59.7   0.0117 1.0270 165.1  m  21?   0.65 290.6   21 273  53  85
   2024 07 24 18:20  19 39 02.33    -08 05 57.4   0.0117 1.0270 165.1  m  21?   0.54 295.4   19 272  53  85
   2024 07 24 18:30  19 39 02.04    -08 05 55.0   0.0117 1.0270 165.1  m  21?   0.44 302.6   17 271  53  85
   2024 07 24 18:40  19 39 01.83    -08 05 52.6   0.0117 1.0270 165.1  m  21?   0.35 313.8   15 269  53  85
   2024 07 24 18:50  19 39 01.70    -08 05 50.1   0.0117 1.0270 165.1  m  21?   0.28 331.7   13 268  53  85
   2024 07 24 19:00  19 39 01.65    -08 05 47.6   0.0117 1.0270 165.1  m  21?   0.25 357.4   11 267  53  85
   2024 07 24 19:10  19 39 01.69    -08 05 45.1   0.0117 1.0270 165.1  m  21?   0.27  24.0    8 265  53  85
   2024 07 24 19:20  19 39 01.80    -08 05 42.6   0.0117 1.0270 165.1  m  21?   0.34  42.9    6 264  53  85
   2024 07 24 19:30  19 39 02.00    -08 05 40.1   0.0117 1.0270 165.1  m  21?   0.44  54.8    4 263  54  85
   2024 07 24 19:40  19 39 02.29    -08 05 37.6   0.0117 1.0270 165.1 Am  21?   0.54  62.4    2 262  54  84
   2024 07 24 19:50  19 39 02.65    -08 05 35.1   0.0117 1.0270 165.1 Am  21?   0.65  67.5    0 260  54  84
   ................
   2024 07 25 07:40  19 40 47.64    -08 07 33.7   0.0117 1.0270 165.2 C   21?   0.62 152.6    5  95  61  79
   2024 07 25 07:50  19 40 47.79    -08 07 39.2   0.0117 1.0270 165.2 C   21?   0.57 163.6    8  94  61  79
   2024 07 25 08:00  19 40 47.86    -08 07 44.6   0.0117 1.0270 165.2 N   21?   0.55 176.0   10  93  61  79
   2024 07 25 08:10  19 40 47.84    -08 07 50.1   0.0117 1.0270 165.2 N   21?   0.55 188.7   12  92  61  79
   2024 07 25 08:20  19 40 47.75    -08 07 55.5   0.0117 1.0270 165.2 N   21?   0.58 200.7   14  90  61  79
   2024 07 25 08:30  19 40 47.57    -08 08 00.9   0.0117 1.0270 165.2 A   21?   0.63 211.1   16  89  62  79
   2024 07 25 08:40  19 40 47.31    -08 08 06.3   0.0117 1.0270 165.2 A   21?   0.69 219.7   18  88  62  79
   2024 07 25 08:50  19 40 46.97    -08 08 11.6   0.0117 1.0270 165.2     21?   0.77 226.7   20  86  62  79
   2024 07 25 09:00  19 40 46.55    -08 08 16.8   0.0117 1.0270 165.2     21?   0.86 232.3   23  85  62  79
   2024 07 25 09:10  19 40 46.05    -08 08 22.0   0.0117 1.0270 165.2     21?   0.94 236.8   25  84  62  79
   2024 07 25 09:20  19 40 45.48    -08 08 27.1   0.0117 1.0270 165.2     21?   1.04 240.5   27  82  62  79
   2024 07 25 09:30  19 40 44.84    -08 08 32.1   0.0117 1.0270 165.2     21?   1.13 243.6   29  81  62  78
   2024 07 25 09:40  19 40 44.12    -08 08 37.1   0.0117 1.0270 165.2     21?   1.22 246.2   31  79  62  78
   2024 07 25 09:50  19 40 43.33    -08 08 41.9   0.0116 1.0270 165.2     21?   1.31 248.4   33  78  62  78
   2024 07 25 10:00  19 40 42.47    -08 08 46.7   0.0116 1.0270 165.1     21?   1.40 250.3   35  76  63  78
   2024 07 25 10:10  19 40 41.55    -08 08 51.3   0.0116 1.0270 165.1     21?   1.49 251.9   37  74  63  78
   2024 07 25 10:20  19 40 40.56    -08 08 55.8   0.0116 1.0270 165.1     21?   1.58 253.3   39  72  63  78
   2024 07 25 10:30  19 40 39.51    -08 09 00.3   0.0116 1.0270 165.1     21?   1.66 254.6   41  71  63  78
   2024 07 25 10:40  19 40 38.40    -08 09 04.6   0.0116 1.0270 165.1     21?   1.74 255.8   43  69  63  78
   2024 07 25 10:50  19 40 37.23    -08 09 08.7   0.0116 1.0270 165.1     21?   1.82 256.8   45  67  63  78
   2024 07 25 11:00  19 40 36.01    -08 09 12.8   0.0116 1.0270 165.1     21?   1.89 257.7   47  64  63  78
   2024 07 25 11:10  19 40 34.74    -08 09 16.7   0.0116 1.0270 165.1     21?   1.96 258.6   49  62  63  78
   2024 07 25 11:20  19 40 33.42    -08 09 20.4   0.0116 1.0270 165.1     21?   2.03 259.4   51  59  63  78
   2024 07 25 11:30  19 40 32.05    -08 09 24.0   0.0116 1.0270 165.1     21?   2.09 260.1   53  57  64  78
   2024 07 25 11:40  19 40 30.65    -08 09 27.5   0.0116 1.0270 165.1  m  21?   2.15 260.8   55  54  64  78
   2024 07 25 11:50  19 40 29.20    -08 09 30.8   0.0116 1.0270 165.1  m  21?   2.20 261.4   57  50  64  77
   2024 07 25 12:00  19 40 27.72    -08 09 34.0   0.0116 1.0270 165.1  m  21?   2.25 262.0   58  47  64  77
   2024 07 25 12:10  19 40 26.20    -08 09 36.9   0.0116 1.0270 165.1  m  21?   2.29 262.5   60  43  64  77
   2024 07 25 12:20  19 40 24.66    -08 09 39.8   0.0116 1.0270 165.1  m  21?   2.33 263.1   61  39  64  77
   2024 07 25 12:30  19 40 23.09    -08 09 42.4   0.0116 1.0270 165.1  m  21?   2.36 263.6   62  34  64  77
   2024 07 25 12:40  19 40 21.50    -08 09 44.9   0.0116 1.0270 165.1  m  21?   2.39 264.0   64  29  64  77
   2024 07 25 12:50  19 40 19.89    -08 09 47.3   0.0116 1.0270 165.1  m  21?   2.41 264.5   64  24  64  77
   2024 07 25 13:00  19 40 18.27    -08 09 49.4   0.0116 1.0270 165.0  m  21?   2.43 264.9   65  18  64  77
   2024 07 25 13:10  19 40 16.63    -08 09 51.4   0.0116 1.0270 165.0  m  21?   2.44 265.4   66  12  65  77
   2024 07 25 13:20  19 40 14.99    -08 09 53.2   0.0116 1.0270 165.0  m  21?   2.45 265.8   66   6  65  77
   2024 07 25 13:30  19 40 13.34    -08 09 54.8   0.0116 1.0270 165.0  m  21?   2.45 266.2   66   0  65  77
   2024 07 25 13:40  19 40 11.69    -08 09 56.3   0.0116 1.0270 165.0  t  21?   2.45 266.6   66 353  65  77
   2024 07 25 13:50  19 40 10.05    -08 09 57.6   0.0116 1.0270 165.0  m  21?   2.44 267.0   66 347  65  77
   2024 07 25 14:00  19 40 08.42    -08 09 58.7   0.0116 1.0270 165.0  m  21?   2.42 267.4   65 341  65  77
   2024 07 25 14:10  19 40 06.79    -08 09 59.6   0.0116 1.0270 165.0  m  21?   2.40 267.8   65 336  65  77
   2024 07 25 14:20  19 40 05.18    -08 10 00.4   0.0116 1.0270 165.0  m  21?   2.38 268.2   64 330  65  77
   2024 07 25 14:30  19 40 03.59    -08 10 01.0   0.0116 1.0269 165.0  m  21?   2.35 268.6   62 325  65  76
   2024 07 25 14:40  19 40 02.02    -08 10 01.5   0.0116 1.0269 165.0  m  21?   2.31 268.9   61 321  65  76
   2024 07 25 14:50  19 40 00.47    -08 10 01.7   0.0116 1.0269 165.0  m  21?   2.27 269.3   60 316  65  76
   2024 07 25 15:00  19 39 58.96    -08 10 01.8   0.0116 1.0269 165.0  m  21?   2.23 269.7   58 313  65  76
   2024 07 25 15:10  19 39 57.47    -08 10 01.8   0.0116 1.0269 165.0  m  21?   2.18 270.2   57 309  65  76
   2024 07 25 15:20  19 39 56.02    -08 10 01.6   0.0116 1.0269 164.9  m  21?   2.12 270.6   55 306  66  76
   2024 07 25 15:30  19 39 54.61    -08 10 01.2   0.0116 1.0269 164.9  m  21?   2.06 271.0   53 303  66  76
   2024 07 25 15:40  19 39 53.24    -08 10 00.7   0.0116 1.0269 164.9  m  21?   2.00 271.5   51 300  66  76
   2024 07 25 15:50  19 39 51.92    -08 10 00.1   0.0116 1.0269 164.9  m  21?   1.93 272.0   49 297  66  76
   2024 07 25 16:00  19 39 50.64    -08 09 59.3   0.0116 1.0269 164.9  m  21?   1.86 272.5   48 295  66  76
   2024 07 25 16:10  19 39 49.42    -08 09 58.4   0.0116 1.0269 164.9  m  21?   1.78 273.0   46 293  66  76
   2024 07 25 16:20  19 39 48.25    -08 09 57.3   0.0116 1.0269 164.9  m  21?   1.70 273.6   44 291  66  76
   2024 07 25 16:30  19 39 47.14    -08 09 56.2   0.0116 1.0269 164.9  m  21?   1.61 274.2   42 289  66  76
   2024 07 25 16:40  19 39 46.08    -08 09 54.9   0.0116 1.0269 164.9  m  21?   1.53 274.9   40 287  66  76
   2024 07 25 16:50  19 39 45.09    -08 09 53.4   0.0116 1.0269 164.9  m  21?   1.43 275.7   37 285  66  76
   2024 07 25 17:00  19 39 44.16    -08 09 51.9   0.0116 1.0269 164.9  m  21?   1.34 276.6   35 283  66  76
   2024 07 25 17:10  19 39 43.30    -08 09 50.3   0.0116 1.0269 164.9  m  21?   1.24 277.6   33 282  66  76
   2024 07 25 17:20  19 39 42.51    -08 09 48.6   0.0116 1.0269 164.9  m  21?   1.14 278.7   31 280  66  76
   2024 07 25 17:30  19 39 41.78    -08 09 46.8   0.0116 1.0269 164.9  m  21?   1.04 280.1   29 278  66  76
   2024 07 25 17:40  19 39 41.13    -08 09 44.9   0.0116 1.0269 164.9  m  21?   0.93 281.8   27 277  66  76
   2024 07 25 17:50  19 39 40.56    -08 09 42.9   0.0116 1.0269 164.8  m  21?   0.82 283.8   25 276  67  76
   2024 07 25 18:00  19 39 40.06    -08 09 40.9   0.0117 1.0269 164.8  m  21?   0.72 286.6   23 274  67  75
   2024 07 25 18:10  19 39 39.64    -08 09 38.8   0.0117 1.0269 164.8  m  21?   0.61 290.2   21 273  67  75
   2024 07 25 18:20  19 39 39.29    -08 09 36.7   0.0117 1.0269 164.8  m  21?   0.50 295.4   18 271  67  75
   2024 07 25 18:30  19 39 39.03    -08 09 34.5   0.0117 1.0269 164.8  m  21?   0.40 303.3   16 270  67  75
   2024 07 25 18:40  19 39 38.84    -08 09 32.3   0.0117 1.0269 164.8  m  21?   0.31 316.3   14 269  67  75
   2024 07 25 18:50  19 39 38.74    -08 09 30.0   0.0117 1.0269 164.8  m  21?   0.25 337.7   12 268  67  75
   2024 07 25 19:00  19 39 38.72    -08 09 27.7   0.0117 1.0269 164.8  m  21?   0.23   7.2   10 266  67  75
   2024 07 25 19:10  19 39 38.78    -08 09 25.4   0.0117 1.0269 164.8  m  21?   0.28  33.3    8 265  67  75
   2024 07 25 19:20  19 39 38.92    -08 09 23.1   0.0117 1.0269 164.8  m  21?   0.36  49.8    6 264  67  75
   2024 07 25 19:30  19 39 39.15    -08 09 20.8   0.0117 1.0269 164.8  m  21?   0.46  59.8    3 262  67  75
   2024 07 25 19:40  19 39 39.46    -08 09 18.5   0.0117 1.0269 164.8 Am  21?   0.57  66.1    1 261  67  75
   2024 07 25 19:50  19 39 39.85    -08 09 16.2   0.0117 1.0269 164.8 Am  21?   0.68  70.3    0 260  67  75
   ................
   2024 07 26 07:40  19 41 24.86    -08 11 34.4   0.0117 1.0269 164.9 C   21?   0.63 157.1    6  95  74  69
   2024 07 26 07:50  19 41 24.98    -08 11 40.1   0.0117 1.0269 164.9 C   21?   0.59 168.2    8  94  74  69
   2024 07 26 08:00  19 41 25.02    -08 11 45.9   0.0117 1.0269 164.9 N   21?   0.57 180.2   10  92  74  69
   2024 07 26 08:10  19 41 24.98    -08 11 51.6   0.0117 1.0269 164.9 N   21?   0.59 192.3   13  91  75  69
   2024 07 26 08:20  19 41 24.85    -08 11 57.3   0.0116 1.0269 164.9 N   21?   0.62 203.4   15  90  75  69
   2024 07 26 08:30  19 41 24.65    -08 12 03.0   0.0116 1.0269 164.9 A   21?   0.67 212.9   17  89  75  69
   2024 07 26 08:40  19 41 24.36    -08 12 08.6   0.0116 1.0269 164.9 A   21?   0.74 220.8   19  87  75  69
   2024 07 26 08:50  19 41 23.99    -08 12 14.1   0.0116 1.0269 164.9     21?   0.82 227.3   21  86  75  69
   2024 07 26 09:00  19 41 23.55    -08 12 19.6   0.0116 1.0269 164.9     21?   0.90 232.5   23  85  75  69
   2024 07 26 09:10  19 41 23.02    -08 12 25.1   0.0116 1.0269 164.9     21?   0.99 236.8   25  83  75  69
   2024 07 26 09:20  19 41 22.43    -08 12 30.4   0.0116 1.0269 164.9     21?   1.08 240.4   28  82  75  68
   2024 07 26 09:30  19 41 21.76    -08 12 35.7   0.0116 1.0269 164.8     21?   1.17 243.3   30  80  76  68
   2024 07 26 09:40  19 41 21.01    -08 12 40.9   0.0116 1.0269 164.8     21?   1.26 245.8   32  79  76  68
   2024 07 26 09:50  19 41 20.20    -08 12 46.0   0.0116 1.0269 164.8     21?   1.36 248.0   34  77  76  68
   2024 07 26 10:00  19 41 19.32    -08 12 51.0   0.0116 1.0269 164.8     21?   1.44 249.8   36  75  76  68
   2024 07 26 10:10  19 41 18.37    -08 12 55.8   0.0116 1.0268 164.8     21?   1.53 251.5   38  74  76  68
   2024 07 26 10:20  19 41 17.36    -08 13 00.6   0.0116 1.0268 164.8     21?   1.62 252.9   40  72  76  68
   2024 07 26 10:30  19 41 16.29    -08 13 05.3   0.0116 1.0268 164.8     21?   1.70 254.2   42  70  76  68
   2024 07 26 10:40  19 41 15.16    -08 13 09.8   0.0116 1.0268 164.8     21?   1.78 255.3   44  68  76  68
   2024 07 26 10:50  19 41 13.97    -08 13 14.2   0.0116 1.0268 164.8     21?   1.85 256.3   46  66  77  68
   2024 07 26 11:00  19 41 12.73    -08 13 18.4   0.0116 1.0268 164.8     21?   1.93 257.3   48  64  77  68
   2024 07 26 11:10  19 41 11.44    -08 13 22.6   0.0116 1.0268 164.8     21?   1.99 258.1   50  61  77  67
   2024 07 26 11:20  19 41 10.10    -08 13 26.5   0.0116 1.0268 164.8     21?   2.06 258.9   52  58  77  67
   2024 07 26 11:30  19 41 08.72    -08 13 30.4   0.0116 1.0268 164.8     21?   2.12 259.6   54  56  77  67
   2024 07 26 11:40  19 41 07.30    -08 13 34.0   0.0116 1.0268 164.8     21?   2.17 260.3   55  53  77  67
   2024 07 26 11:50  19 41 05.84    -08 13 37.5   0.0116 1.0268 164.8     21?   2.22 260.9   57  49  77  67
   2024 07 26 12:00  19 41 04.34    -08 13 40.9   0.0116 1.0268 164.8     21?   2.27 261.5   59  46  77  67
   2024 07 26 12:10  19 41 02.81    -08 13 44.1   0.0116 1.0268 164.8     21?   2.31 262.1   60  42  77  67
   2024 07 26 12:20  19 41 01.26    -08 13 47.1   0.0116 1.0268 164.7     21?   2.35 262.6   62  37  78  67
   2024 07 26 12:30  19 40 59.68    -08 13 50.0   0.0116 1.0268 164.7     21?   2.38 263.1   63  33  78  67
   2024 07 26 12:40  19 40 58.08    -08 13 52.7   0.0116 1.0268 164.7     21?   2.40 263.6   64  27  78  67
   2024 07 26 12:50  19 40 56.46    -08 13 55.2   0.0116 1.0268 164.7  m  21?   2.42 264.1   65  22  78  67
   2024 07 26 13:00  19 40 54.83    -08 13 57.5   0.0116 1.0268 164.7  m  21?   2.44 264.5   66  16  78  67
   2024 07 26 13:10  19 40 53.19    -08 13 59.7   0.0116 1.0268 164.7  m  21?   2.45 264.9   66  10  78  66
   2024 07 26 13:20  19 40 51.54    -08 14 01.7   0.0116 1.0268 164.7  m  21?   2.46 265.4   66   4  78  66
   2024 07 26 13:30  19 40 49.89    -08 14 03.5   0.0116 1.0268 164.7  t  21?   2.46 265.8   66 358  78  66
   2024 07 26 13:40  19 40 48.25    -08 14 05.2   0.0116 1.0268 164.7  m  21?   2.45 266.2   66 351  78  66
   2024 07 26 13:50  19 40 46.60    -08 14 06.7   0.0116 1.0268 164.7  m  21?   2.44 266.6   66 345  78  66
   2024 07 26 14:00  19 40 44.97    -08 14 08.0   0.0116 1.0268 164.7  m  21?   2.42 267.0   65 339  79  66
   2024 07 26 14:10  19 40 43.34    -08 14 09.1   0.0116 1.0268 164.7  m  21?   2.40 267.3   64 334  79  66
   2024 07 26 14:20  19 40 41.74    -08 14 10.1   0.0116 1.0268 164.7  m  21?   2.37 267.7   63 328  79  66
   2024 07 26 14:30  19 40 40.15    -08 14 10.8   0.0116 1.0268 164.7  m  21?   2.34 268.1   62 324  79  66
   2024 07 26 14:40  19 40 38.58    -08 14 11.5   0.0116 1.0268 164.6  m  21?   2.31 268.5   61 319  79  66
   2024 07 26 14:50  19 40 37.04    -08 14 11.9   0.0116 1.0268 164.6  m  21?   2.26 268.9   59 315  79  66
   2024 07 26 15:00  19 40 35.53    -08 14 12.2   0.0116 1.0268 164.6  m  21?   2.22 269.3   58 311  79  66
   2024 07 26 15:10  19 40 34.06    -08 14 12.3   0.0116 1.0268 164.6  m  21?   2.16 269.7   56 308  79  66
   2024 07 26 15:20  19 40 32.62    -08 14 12.3   0.0116 1.0268 164.6  m  21?   2.11 270.1   54 305  79  66
   2024 07 26 15:30  19 40 31.22    -08 14 12.1   0.0116 1.0268 164.6  m  21?   2.05 270.5   53 302  79  66
   2024 07 26 15:40  19 40 29.86    -08 14 11.8   0.0116 1.0268 164.6  m  21?   1.98 271.0   51 299  79  65
   2024 07 26 15:50  19 40 28.56    -08 14 11.3   0.0116 1.0268 164.6  m  21?   1.91 271.4   49 296  79  65
   2024 07 26 16:00  19 40 27.29    -08 14 10.7   0.0116 1.0268 164.6  m  21?   1.83 271.9   47 294  79  65
   2024 07 26 16:10  19 40 26.09    -08 14 10.0   0.0116 1.0268 164.6  m  21?   1.76 272.5   45 292  80  65
   2024 07 26 16:20  19 40 24.93    -08 14 09.1   0.0116 1.0268 164.6  m  21?   1.67 273.0   43 290  80  65
   2024 07 26 16:30  19 40 23.84    -08 14 08.1   0.0116 1.0268 164.6  m  21?   1.59 273.6   41 288  80  65
   2024 07 26 16:40  19 40 22.80    -08 14 07.0   0.0116 1.0268 164.6  m  21?   1.50 274.3   39 286  80  65
   2024 07 26 16:50  19 40 21.83    -08 14 05.8   0.0116 1.0268 164.5  m  21?   1.40 275.1   37 284  80  65
   2024 07 26 17:00  19 40 20.92    -08 14 04.4   0.0116 1.0268 164.5  m  21?   1.31 275.9   35 283  80  65
   2024 07 26 17:10  19 40 20.08    -08 14 03.0   0.0116 1.0268 164.5  m  21?   1.21 276.9   33 281  80  65
   2024 07 26 17:20  19 40 19.31    -08 14 01.5   0.0116 1.0268 164.5  m  21?   1.10 278.0   31 279  80  65
   2024 07 26 17:30  19 40 18.61    -08 13 59.9   0.0116 1.0268 164.5  m  21?   1.00 279.4   28 278  80  65
   2024 07 26 17:40  19 40 17.98    -08 13 58.2   0.0116 1.0268 164.5  m  21?   0.89 281.0   26 276  80  65
   2024 07 26 17:50  19 40 17.43    -08 13 56.4   0.0116 1.0268 164.5  m  21?   0.78 283.1   24 275  80  65
   2024 07 26 18:00  19 40 16.95    -08 13 54.5   0.0116 1.0268 164.5  m  21?   0.68 285.9   22 274  80  65
   2024 07 26 18:10  19 40 16.55    -08 13 52.6   0.0116 1.0268 164.5  m  21?   0.57 289.7   20 272  80  65
   2024 07 26 18:20  19 40 16.23    -08 13 50.7   0.0116 1.0268 164.5  m  21?   0.46 295.3   18 271  80  65
   2024 07 26 18:30  19 40 15.99    -08 13 48.7   0.0116 1.0268 164.5  m  21?   0.36 304.1   16 270  80  65
   2024 07 26 18:40  19 40 15.84    -08 13 46.7   0.0116 1.0268 164.5  m  21?   0.27 319.4   13 268  81  65
   2024 07 26 18:50  19 40 15.76    -08 13 44.6   0.0116 1.0268 164.5  m  21?   0.21 345.5   11 267  81  64
   2024 07 26 19:00  19 40 15.76    -08 13 42.5   0.0116 1.0268 164.5  m  21?   0.22  18.3    9 266  81  64
   2024 07 26 19:10  19 40 15.85    -08 13 40.4   0.0116 1.0268 164.5  m  21?   0.29  42.4    7 264  81  64
   2024 07 26 19:20  19 40 16.02    -08 13 38.3   0.0116 1.0268 164.5  m  21?   0.38  56.2    5 263  81  64
   2024 07 26 19:30  19 40 16.28    -08 13 36.2   0.0117 1.0268 164.5  m  21?   0.49  64.3    3 262  81  64
   2024 07 26 19:40  19 40 16.62    -08 13 34.1   0.0117 1.0268 164.5 Am  21?   0.60  69.5    1 261  81  64
   ................
   2024 07 27 07:40  19 42 02.07    -08 16 11.0   0.0116 1.0267 164.5 C   21?   0.64 161.5    7  95  87  59
   2024 07 27 07:50  19 42 02.17    -08 16 17.0   0.0116 1.0267 164.5 C   21?   0.61 172.5    9  93  88  58
   2024 07 27 08:00  19 42 02.18    -08 16 23.1   0.0116 1.0267 164.5 N   21?   0.60 184.1   11  92  88  58
   2024 07 27 08:10  19 42 02.11    -08 16 29.1   0.0116 1.0267 164.5 N   21?   0.62 195.4   13  91  88  58
   2024 07 27 08:20  19 42 01.95    -08 16 35.1   0.0116 1.0267 164.5 N   21?   0.66 205.6   15  90  88  58
   2024 07 27 08:30  19 42 01.72    -08 16 41.0   0.0116 1.0267 164.5 A   21?   0.72 214.4   18  88  88  58
   2024 07 27 08:40  19 42 01.41    -08 16 46.9   0.0116 1.0267 164.5 A   21?   0.79 221.7   20  87  88  58
   2024 07 27 08:50  19 42 01.01    -08 16 52.7   0.0116 1.0267 164.5 A   21?   0.87 227.7   22  86  88  58
   2024 07 27 09:00  19 42 00.54    -08 16 58.5   0.0116 1.0267 164.5     21?   0.95 232.7   24  84  89  58
   2024 07 27 09:10  19 41 59.99    -08 17 04.2   0.0116 1.0267 164.5     21?   1.04 236.7   26  83  89  58
   2024 07 27 09:20  19 41 59.37    -08 17 09.8   0.0116 1.0267 164.5     21?   1.13 240.1   28  81  89  57
   2024 07 27 09:30  19 41 58.67    -08 17 15.4   0.0116 1.0267 164.5     21?   1.22 243.0   30  80  89  57
   2024 07 27 09:40  19 41 57.91    -08 17 20.8   0.0116 1.0267 164.5     21?   1.31 245.4   33  78  89  57
   2024 07 27 09:50  19 41 57.07    -08 17 26.2   0.0116 1.0267 164.5     21?   1.40 247.5   35  77  89  57
   2024 07 27 10:00  19 41 56.16    -08 17 31.4   0.0116 1.0267 164.5     21?   1.49 249.4   37  75  89  57
   2024 07 27 10:10  19 41 55.19    -08 17 36.6   0.0116 1.0267 164.5     21?   1.57 251.0   39  73  89  57
   2024 07 27 10:20  19 41 54.16    -08 17 41.6   0.0116 1.0267 164.5     21?   1.65 252.4   41  71  90  57
   2024 07 27 10:30  19 41 53.07    -08 17 46.5   0.0116 1.0267 164.5     21?   1.74 253.6   43  69  90  57
   2024 07 27 10:40  19 41 51.92    -08 17 51.3   0.0116 1.0267 164.5     21?   1.81 254.8   45  67  90  57
   2024 07 27 10:50  19 41 50.71    -08 17 55.9   0.0116 1.0267 164.5     21?   1.89 255.8   47  65  90  57
   2024 07 27 11:00  19 41 49.45    -08 18 00.4   0.0116 1.0267 164.5     21?   1.96 256.7   49  63  90  56
   2024 07 27 11:10  19 41 48.14    -08 18 04.7   0.0116 1.0267 164.4     21?   2.02 257.6   51  60  90  56
   2024 07 27 11:20  19 41 46.79    -08 18 08.9   0.0116 1.0267 164.4     21?   2.08 258.4   53  58  90  56
   2024 07 27 11:30  19 41 45.39    -08 18 13.0   0.0116 1.0267 164.4     21?   2.14 259.1   54  55  90  56
   2024 07 27 11:40  19 41 43.95    -08 18 16.9   0.0116 1.0267 164.4     21?   2.20 259.8   56  52  90  56
   2024 07 27 11:50  19 41 42.48    -08 18 20.6   0.0116 1.0267 164.4     21?   2.25 260.4   58  48  91  56
   2024 07 27 12:00  19 41 40.97    -08 18 24.2   0.0116 1.0267 164.4     21?   2.29 261.0   59  44  91  56
   2024 07 27 12:10  19 41 39.43    -08 18 27.6   0.0116 1.0267 164.4     21?   2.33 261.6   61  40  91  56
   2024 07 27 12:20  19 41 37.87    -08 18 30.9   0.0116 1.0267 164.4     21?   2.36 262.1   62  36  91  56
   2024 07 27 12:30  19 41 36.28    -08 18 34.0   0.0116 1.0267 164.4     21?   2.39 262.6   63  31  91  56
   2024 07 27 12:40  19 41 34.67    -08 18 36.9   0.0116 1.0267 164.4     21?   2.42 263.1   64  26  91  56
   2024 07 27 12:50  19 41 33.04    -08 18 39.6   0.0116 1.0267 164.4     21?   2.44 263.6   65  20  91  55
   2024 07 27 13:00  19 41 31.41    -08 18 42.1   0.0116 1.0267 164.4     21?   2.45 264.0   66  14  91  55
   2024 07 27 13:10  19 41 29.76    -08 18 44.5   0.0116 1.0267 164.4     21?   2.46 264.5   66   8  91  55
   2024 07 27 13:20  19 41 28.11    -08 18 46.7   0.0116 1.0267 164.4     21?   2.46 264.9   66   2  92  55
   2024 07 27 13:30  19 41 26.46    -08 18 48.7   0.0116 1.0267 164.3  t  21?   2.46 265.3   66 355  92  55
   2024 07 27 13:40  19 41 24.81    -08 18 50.6   0.0116 1.0267 164.3     21?   2.45 265.7   66 349  92  55
   2024 07 27 13:50  19 41 23.17    -08 18 52.3   0.0116 1.0267 164.3  m  21?   2.44 266.1   66 343  92  55
   2024 07 27 14:00  19 41 21.53    -08 18 53.8   0.0116 1.0267 164.3  m  21?   2.42 266.5   65 337  92  55
   2024 07 27 14:10  19 41 19.91    -08 18 55.1   0.0116 1.0267 164.3  m  21?   2.40 266.9   64 332  92  55
   2024 07 27 14:20  19 41 18.31    -08 18 56.2   0.0116 1.0267 164.3  m  21?   2.37 267.2   63 327  92  55
   2024 07 27 14:30  19 41 16.73    -08 18 57.2   0.0116 1.0267 164.3  m  21?   2.33 267.6   62 322  92  55
   2024 07 27 14:40  19 41 15.17    -08 18 58.0   0.0116 1.0267 164.3  m  21?   2.30 268.0   60 318  92  55
   2024 07 27 14:50  19 41 13.64    -08 18 58.7   0.0116 1.0267 164.3  m  21?   2.25 268.4   59 314  92  55
   2024 07 27 15:00  19 41 12.14    -08 18 59.2   0.0116 1.0267 164.3  m  21?   2.20 268.8   57 310  92  54
   2024 07 27 15:10  19 41 10.67    -08 18 59.5   0.0116 1.0267 164.3  m  21?   2.15 269.2   56 307  93  54
   2024 07 27 15:20  19 41 09.24    -08 18 59.6   0.0116 1.0267 164.3  m  21?   2.09 269.6   54 303  93  54
   2024 07 27 15:30  19 41 07.85    -08 18 59.6   0.0116 1.0267 164.2  m  21?   2.03 270.0   52 301  93  54
   2024 07 27 15:40  19 41 06.51    -08 18 59.5   0.0116 1.0267 164.2  m  21?   1.96 270.4   50 298  93  54
   2024 07 27 15:50  19 41 05.22    -08 18 59.2   0.0116 1.0267 164.2  m  21?   1.89 270.9   48 295  93  54
   2024 07 27 16:00  19 41 03.97    -08 18 58.8   0.0116 1.0267 164.2  m  21?   1.81 271.4   46 293  93  54
   2024 07 27 16:10  19 41 02.78    -08 18 58.3   0.0116 1.0267 164.2  m  21?   1.73 271.9   44 291  93  54
   2024 07 27 16:20  19 41 01.64    -08 18 57.6   0.0116 1.0267 164.2  m  21?   1.65 272.4   42 289  93  54
   2024 07 27 16:30  19 41 00.56    -08 18 56.8   0.0116 1.0267 164.2  m  21?   1.56 273.0   40 287  93  54
   2024 07 27 16:40  19 40 59.55    -08 18 55.8   0.0116 1.0267 164.2  m  21?   1.47 273.7   38 285  93  54
   2024 07 27 16:50  19 40 58.60    -08 18 54.8   0.0116 1.0267 164.2  m  21?   1.37 274.4   36 284  93  54
   2024 07 27 17:00  19 40 57.71    -08 18 53.7   0.0116 1.0267 164.2  m  21?   1.27 275.2   34 282  93  54
   2024 07 27 17:10  19 40 56.89    -08 18 52.4   0.0116 1.0267 164.2  m  21?   1.17 276.2   32 280  93  54
   2024 07 27 17:20  19 40 56.14    -08 18 51.1   0.0116 1.0267 164.2  m  21?   1.07 277.3   30 279  94  54
   2024 07 27 17:30  19 40 55.46    -08 18 49.7   0.0116 1.0267 164.2  m  21?   0.96 278.6   28 277  94  54
   2024 07 27 17:40  19 40 54.86    -08 18 48.2   0.0116 1.0267 164.2  m  21?   0.85 280.2   26 276  94  53
   2024 07 27 17:50  19 40 54.33    -08 18 46.6   0.0116 1.0267 164.1  m  21?   0.74 282.3   23 274  94  53
   2024 07 27 18:00  19 40 53.88    -08 18 44.9   0.0116 1.0267 164.1  m  21?   0.63 285.1   21 273  94  53
   2024 07 27 18:10  19 40 53.51    -08 18 43.2   0.0116 1.0267 164.1  m  21?   0.52 289.1   19 272  94  53
   2024 07 27 18:20  19 40 53.22    -08 18 41.5   0.0116 1.0267 164.1  m  21?   0.42 295.1   17 270  94  53
   2024 07 27 18:30  19 40 53.00    -08 18 39.7   0.0116 1.0267 164.1  m  21?   0.31 305.2   15 269  94  53
   2024 07 27 18:40  19 40 52.87    -08 18 37.9   0.0116 1.0267 164.1  m  21?   0.23 323.8   13 268  94  53
   2024 07 27 18:50  19 40 52.82    -08 18 36.0   0.0116 1.0267 164.1  m  21?   0.19 356.2   11 267  94  53
   2024 07 27 19:00  19 40 52.86    -08 18 34.1   0.0116 1.0267 164.1  m  21?   0.22  30.5    8 265  94  53
   2024 07 27 19:10  19 40 52.97    -08 18 32.3   0.0116 1.0267 164.1  m  21?   0.30  51.0    6 264  94  53
   2024 07 27 19:20  19 40 53.17    -08 18 30.4   0.0116 1.0267 164.1  m  21?   0.41  62.1    4 263  94  53
   2024 07 27 19:30  19 40 53.46    -08 18 28.5   0.0116 1.0267 164.1  m  21?   0.52  68.5    2 261  94  53
   2024 07 27 19:40  19 40 53.82    -08 18 26.6   0.0116 1.0267 164.1 Am  21?   0.63  72.7    0 260  94  53
   ................
   

CAPSTONE (JPL-ID: -1176)

   Date (UTC) HH:MM   RA              Dec         delta   r     elong SM  mag  '/hr    PA   alt  az moo ill
   ---- -- -- -----  -------------   -----------  ------ ------ ----- --  --- ------ ------ --- --- --- ---
   2024 07 14 07:30  13 12 43.85    -17 35 07.5   412311 1.0166  91.4 Cm  16?  17.27 119.5   75  16   8  53
   2024 07 14 07:40  13 12 54.34    -17 36 31.9   412239 1.0166  91.4 Cm  16?  17.17 119.0   76   7   8  53
   2024 07 14 07:50  13 13 04.85    -17 37 54.4   412177 1.0166  91.5 Nt  16?  17.10 118.4   76 357   8  53
   2024 07 14 08:00  13 13 15.37    -17 39 15.2   412124 1.0166  91.5 Nm  16?  17.05 117.9   76 347   8  53
   2024 07 14 08:10  13 13 25.93    -17 40 34.2   412080 1.0166  91.5 Nm  16?  17.02 117.2   75 338   8  53
   2024 07 14 08:20  13 13 36.54    -17 41 51.4   412045 1.0166  91.6 Am  16?  17.01 116.6   74 329   8  53
   2024 07 14 08:30  13 13 47.21    -17 43 06.9   412020 1.0166  91.6 Am  16?  17.02 115.9   73 322   8  53
   2024 07 14 08:40  13 13 57.97    -17 44 20.5   412003 1.0166  91.7 Am  16?  17.06 115.2   72 315   8  53
   2024 07 14 08:50  13 14 08.82    -17 45 32.4   411996 1.0166  91.7  m  16?  17.12 114.4   70 310   8  53
   2024 07 14 09:00  13 14 19.78    -17 46 42.5   411997 1.0166  91.7  m  16?  17.20 113.6   69 305   8  53
   2024 07 14 09:10  13 14 30.86    -17 47 50.8   412008 1.0166  91.8  m  16?  17.30 112.9   67 301   8  53
   2024 07 14 09:20  13 14 42.09    -17 48 57.5   412027 1.0166  91.8  m  16?  17.43 112.1   65 297   8  54
   2024 07 14 09:30  13 14 53.47    -17 50 02.4   412054 1.0166  91.9  m  16?  17.57 111.3   63 294   8  54
   2024 07 14 09:40  13 15 05.02    -17 51 05.6   412090 1.0166  91.9  m  16?  17.75 110.5   61 291   8  54
   2024 07 14 09:50  13 15 16.75    -17 52 07.1   412134 1.0166  92.0  m  16?  17.94 109.7   59 288   8  54
   2024 07 14 10:00  13 15 28.67    -17 53 07.1   412185 1.0166  92.0  m  16?  18.16 108.9   57 286   8  54
   2024 07 14 10:10  13 15 40.80    -17 54 05.4   412245 1.0166  92.0  m  16?  18.39 108.1   55 284   8  54
   2024 07 14 10:20  13 15 53.15    -17 55 02.1   412312 1.0166  92.1  m  16?  18.65 107.4   53 282   8  54
   2024 07 14 10:30  13 16 05.73    -17 55 57.3   412386 1.0166  92.1  m  16?  18.93 106.6   51 280   8  54
   2024 07 14 10:40  13 16 18.56    -17 56 51.0   412467 1.0166  92.2  m  16?  19.23 105.9   49 278   8  54
   2024 07 14 10:50  13 16 31.64    -17 57 43.3   412555 1.0166  92.2  m  16?  19.55 105.2   47 277   8  54
   2024 07 14 11:00  13 16 44.99    -17 58 34.1   412649 1.0166  92.3  m  16?  19.88 104.5   45 275   8  54
   2024 07 14 11:10  13 16 58.62    -17 59 23.6   412749 1.0166  92.3  m  16?  20.24 103.9   43 274   8  54
   2024 07 14 11:20  13 17 12.53    -18 00 11.8   412855 1.0166  92.4  m  16?  20.61 103.2   41 272   8  54
   2024 07 14 11:30  13 17 26.74    -18 00 58.7   412967 1.0166  92.4  m  16?  21.00 102.6   39 271   8  54
   2024 07 14 11:40  13 17 41.25    -18 01 44.4   413084 1.0166  92.5  m  16?  21.40 102.1   37 270   8  54
   2024 07 14 11:50  13 17 56.08    -18 02 28.9   413206 1.0166  92.5  m  16?  21.82 101.5   34 268   8  54
   2024 07 14 12:00  13 18 11.22    -18 03 12.4   413332 1.0166  92.6  m  16?  22.25 101.0   32 267   8  54
   2024 07 14 12:10  13 18 26.69    -18 03 54.8   413462 1.0166  92.6  m  16?  22.69 100.5   30 266   8  54
   2024 07 14 12:20  13 18 42.50    -18 04 36.1   413596 1.0166  92.7  m  16?  23.14 100.1   28 265   8  54
   2024 07 14 12:30  13 18 58.65    -18 05 16.6   413734 1.0166  92.7  m  16?  23.61  99.7   26 264   8  54
   2024 07 14 12:40  13 19 15.14    -18 05 56.2   413874 1.0167  92.8  m  16?  24.08  99.3   24 262   8  54
   2024 07 14 12:50  13 19 31.98    -18 06 35.0   414017 1.0167  92.9  m  16?  24.56  98.9   22 261   8  54
   2024 07 14 13:00  13 19 49.17    -18 07 13.0   414163 1.0167  92.9  m  16?  25.05  98.6   20 260   8  55
   2024 07 14 13:10  13 20 06.72    -18 07 50.3   414310 1.0167  93.0  m  16?  25.55  98.3   18 259   8  55
   2024 07 14 13:20  13 20 24.64    -18 08 27.0   414459 1.0167  93.1  m  16?  26.05  98.0   16 258   8  55
   2024 07 14 13:30  13 20 42.91    -18 09 03.2   414609 1.0167  93.1  m  16?  26.55  97.7   14 257   8  55
   2024 07 14 13:40  13 21 01.55    -18 09 38.8   414759 1.0167  93.2  m  16?  27.06  97.5   12 255   8  55
   2024 07 14 13:50  13 21 20.55    -18 10 14.1   414910 1.0167  93.2  m  16?  27.57  97.3   10 254   8  55
   2024 07 14 14:00  13 21 39.92    -18 10 48.9   415061 1.0167  93.3  m  16?  28.08  97.1    8 253   8  55
   2024 07 14 14:10  13 21 59.65    -18 11 23.5   415212 1.0167  93.4  m  16?  28.59  96.9    6 252   8  55
   2024 07 14 14:20  13 22 19.75    -18 11 57.8   415361 1.0167  93.5  m  16?  29.10  96.7    4 251   8  55
   2024 07 14 14:30  13 22 40.21    -18 12 32.0   415510 1.0167  93.5  m  16?  29.61  96.6    2 249   8  55
   2024 07 14 14:40  13 23 01.03    -18 13 06.0   415656 1.0167  93.6  m  16?  30.11  96.4    0 248   8  55
   ................
   2024 07 15 07:30  14 02 13.78    -19 58 42.8   401643 1.0170 102.2 Cm  16?  20.91 101.6   72  55   6  63
   2024 07 15 07:40  14 02 28.27    -19 59 24.1   401500 1.0170 102.3 Cm  16?  20.79 101.0   73  49   6  63
   2024 07 15 07:50  14 02 42.73    -20 00 03.2   401365 1.0170 102.3 Nm  16?  20.70 100.4   75  43   6  63
   2024 07 15 08:00  14 02 57.15    -20 00 40.0   401240 1.0170 102.4 Nm  16?  20.62  99.9   76  35   6  63
   2024 07 15 08:10  14 03 11.55    -20 01 14.6   401123 1.0170 102.4 Nm  16?  20.58  99.3   77  26   6  63
   2024 07 15 08:20  14 03 25.96    -20 01 47.0   401016 1.0170 102.5 Am  16?  20.55  98.7   78  16   6  63
   2024 07 15 08:30  14 03 40.39    -20 02 17.0   400917 1.0170 102.5 Am  16?  20.55  98.0   78   4   6  63
   2024 07 15 08:40  14 03 54.85    -20 02 44.8   400828 1.0170 102.6 At  16?  20.58  97.4   78 353   6  63
   2024 07 15 08:50  14 04 09.35    -20 03 10.3   400747 1.0170 102.6  m  16?  20.63  96.7   78 341   6  63
   2024 07 15 09:00  14 04 23.93    -20 03 33.5   400676 1.0170 102.7  m  16?  20.70  96.0   77 331   5  63
   2024 07 15 09:10  14 04 38.58    -20 03 54.4   400614 1.0170 102.7  m  16?  20.81  95.4   76 322   5  63
   2024 07 15 09:20  14 04 53.33    -20 04 13.1   400560 1.0170 102.8  m  16?  20.93  94.7   75 315   5  63
   2024 07 15 09:30  14 05 08.20    -20 04 29.4   400516 1.0170 102.8  m  16?  21.08  94.1   73 308   5  63
   2024 07 15 09:40  14 05 23.19    -20 04 43.5   400480 1.0170 102.9  m  16?  21.26  93.4   71 303   5  63
   2024 07 15 09:50  14 05 38.32    -20 04 55.3   400453 1.0171 102.9  m  16?  21.46  92.8   69 299   5  63
   2024 07 15 10:00  14 05 53.62    -20 05 04.9   400435 1.0171 103.0  m  16?  21.68  92.2   68 295   5  63
   2024 07 15 10:10  14 06 09.09    -20 05 12.3   400425 1.0171 103.0  m  16?  21.93  91.6   66 292   5  63
   2024 07 15 10:20  14 06 24.75    -20 05 17.4   400423 1.0171 103.1  m  16?  22.20  91.0   64 289   5  63
   2024 07 15 10:30  14 06 40.61    -20 05 20.4   400430 1.0171 103.2  m  16?  22.50  90.4   62 286   5  63
   2024 07 15 10:40  14 06 56.69    -20 05 21.3   400444 1.0171 103.2  m  16?  22.81  89.9   60 284   5  63
   2024 07 15 10:50  14 07 13.00    -20 05 20.1   400466 1.0171 103.3  m  16?  23.15  89.4   58 282   5  64
   2024 07 15 11:00  14 07 29.56    -20 05 16.8   400496 1.0171 103.3  m  16?  23.51  88.9   56 280   5  64
   2024 07 15 11:10  14 07 46.37    -20 05 11.5   400533 1.0171 103.4  m  16?  23.89  88.4   54 278   5  64
   2024 07 15 11:20  14 08 03.46    -20 05 04.2   400577 1.0171 103.4  m  16?  24.28  88.0   52 277   5  64
   2024 07 15 11:30  14 08 20.83    -20 04 54.9   400628 1.0171 103.5  m  16?  24.70  87.6   50 275   5  64
   2024 07 15 11:40  14 08 38.50    -20 04 43.8   400685 1.0171 103.5  m  16?  25.13  87.2   47 274   5  64
   2024 07 15 11:50  14 08 56.47    -20 04 30.8   400749 1.0171 103.6  m  16?  25.58  86.8   45 272   5  64
   2024 07 15 12:00  14 09 14.76    -20 04 16.0   400819 1.0171 103.7  m  16?  26.05  86.5   43 271   5  64
   2024 07 15 12:10  14 09 33.38    -20 03 59.5   400894 1.0171 103.7  m  16?  26.53  86.2   41 270   5  64
   2024 07 15 12:20  14 09 52.34    -20 03 41.2   400975 1.0171 103.8  m  16?  27.02  85.9   39 268   5  64
   2024 07 15 12:30  14 10 11.64    -20 03 21.4   401061 1.0171 103.8  m  16?  27.53  85.6   37 267   5  64
   2024 07 15 12:40  14 10 31.30    -20 03 00.0   401152 1.0171 103.9  m  16?  28.05  85.4   35 266   5  64
   2024 07 15 12:50  14 10 51.33    -20 02 37.0   401247 1.0171 104.0  m  16?  28.58  85.2   33 265   5  64
   2024 07 15 13:00  14 11 11.72    -20 02 12.6   401346 1.0171 104.0  m  16?  29.12  85.0   31 264   5  64
   2024 07 15 13:10  14 11 32.50    -20 01 46.9   401449 1.0171 104.1  m  16?  29.67  84.8   29 263   5  64
   2024 07 15 13:20  14 11 53.66    -20 01 19.7   401556 1.0171 104.2  m  16?  30.23  84.7   27 261   5  64
   2024 07 15 13:30  14 12 15.22    -20 00 51.4   401665 1.0171 104.3  m  16?  30.79  84.5   25 260   5  64
   2024 07 15 13:40  14 12 37.17    -20 00 21.8   401777 1.0171 104.3  m  16?  31.37  84.4   23 259   4  64
   2024 07 15 13:50  14 12 59.52    -19 59 51.1   401891 1.0171 104.4  m  16?  31.95  84.3   21 258   4  64
   2024 07 15 14:00  14 13 22.28    -19 59 19.3   402008 1.0171 104.5  m  16?  32.53  84.2   19 257   4  64
   2024 07 15 14:10  14 13 45.44    -19 58 46.5   402126 1.0171 104.6  m  16?  33.12  84.2   17 256   4  64
   2024 07 15 14:20  14 14 09.02    -19 58 12.7   402245 1.0171 104.6  m  16?  33.71  84.1   15 255   4  65
   2024 07 15 14:30  14 14 33.02    -19 57 38.1   402365 1.0171 104.7  m  16?  34.30  84.1   13 254   4  65
   2024 07 15 14:40  14 14 57.43    -19 57 02.7   402485 1.0171 104.8  m  16?  34.90  84.0   11 253   4  65
   2024 07 15 14:50  14 15 22.26    -19 56 26.5   402605 1.0171 104.9  m  16?  35.49  84.0    9 252   4  65
   2024 07 15 15:00  14 15 47.50    -19 55 49.6   402725 1.0172 105.0  m  16?  36.09  84.0    7 250   4  65
   2024 07 15 15:10  14 16 13.16    -19 55 12.1   402845 1.0172 105.0  m  16?  36.68  84.0    5 249   4  65
   2024 07 15 15:20  14 16 39.24    -19 54 34.1   402963 1.0172 105.1  m  16?  37.27  84.0    3 248   4  65
   2024 07 15 15:30  14 17 05.74    -19 53 55.5   403080 1.0172 105.2  m  16?  37.86  84.0    1 247   4  65
   2024 07 15 15:40  14 17 32.65    -19 53 16.6   403195 1.0172 105.3  m  16?  38.45  84.1    0 246   4  65
   ................
   2024 07 16 07:30  15 14 08.70    -22 12 21.5   391458 1.0176 118.0 Cm  16?  44.51 151.0   59  80   2  72
   2024 07 16 07:40  15 14 23.96    -22 18 48.1   391383 1.0176 118.1 Cm  16?  43.65 151.3   61  79   2  72
   2024 07 16 07:50  15 14 38.79    -22 25 08.3   391316 1.0176 118.2 Nm  16?  42.82 151.6   63  77   2  72
   2024 07 16 08:00  15 14 53.24    -22 31 22.3   391256 1.0176 118.3 Nm  16?  42.03 151.8   65  75   2  72
   2024 07 16 08:10  15 15 07.33    -22 37 30.2   391206 1.0176 118.3 Nm  16?  41.28 152.0   67  72   2  72
   2024 07 16 08:20  15 15 21.10    -22 43 32.3   391163 1.0176 118.4 Am  16?  40.55 152.2   69  70   2  72
   2024 07 16 08:30  15 15 34.58    -22 49 28.5   391130 1.0176 118.5 Am  16?  39.86 152.3   71  66   2  72
   2024 07 16 08:40  15 15 47.79    -22 55 19.0   391105 1.0176 118.5 Am  16?  39.19 152.4   73  62   2  72
   2024 07 16 08:50  15 16 00.76    -23 01 04.0   391089 1.0176 118.6  m  16?  38.55 152.4   75  58   2  72
   2024 07 16 09:00  15 16 13.52    -23 06 43.4   391082 1.0176 118.6  m  16?  37.93 152.4   77  52   2  72
   2024 07 16 09:10  15 16 26.09    -23 12 17.4   391083 1.0176 118.7  m  16?  37.34 152.4   79  44   2  72
   2024 07 16 09:20  15 16 38.50    -23 17 46.2   391094 1.0176 118.8  m  16?  36.77 152.3   80  34   2  72
   2024 07 16 09:30  15 16 50.77    -23 23 09.6   391114 1.0176 118.8  m  16?  36.23 152.2   81  21   2  73
   2024 07 16 09:40  15 17 02.92    -23 28 28.0   391143 1.0177 118.9  m  16?  35.70 152.0   82   5   2  73
   2024 07 16 09:50  15 17 14.98    -23 33 41.3   391181 1.0177 118.9  t  16?  35.20 151.8   82 348   2  73
   2024 07 16 10:00  15 17 26.97    -23 38 49.6   391228 1.0177 119.0  m  16?  34.72 151.6   81 333   3  73
   2024 07 16 10:10  15 17 38.92    -23 43 52.9   391283 1.0177 119.0  m  16?  34.26 151.3   80 320   3  73
   2024 07 16 10:20  15 17 50.83    -23 48 51.5   391348 1.0177 119.1  m  16?  33.82 150.9   79 310   3  73
   2024 07 16 10:30  15 18 02.74    -23 53 45.2   391422 1.0177 119.2  m  16?  33.41 150.6   77 302   3  73
   2024 07 16 10:40  15 18 14.67    -23 58 34.3   391505 1.0177 119.2  m  17?  33.02 150.1   75 296   3  73
   2024 07 16 10:50  15 18 26.63    -24 03 18.8   391596 1.0177 119.3  m  17?  32.65 149.6   73 292   3  73
   2024 07 16 11:00  15 18 38.65    -24 07 58.7   391696 1.0177 119.3  m  17?  32.30 149.1   71 288   3  73
   2024 07 16 11:10  15 18 50.74    -24 12 34.2   391804 1.0177 119.4  m  17?  31.98 148.6   69 285   3  73
   2024 07 16 11:20  15 19 02.92    -24 17 05.3   391920 1.0177 119.4  m  17?  31.67 148.0   67 282   3  73
   2024 07 16 11:30  15 19 15.22    -24 21 32.1   392045 1.0177 119.5  m  17?  31.40 147.3   65 279   3  73
   2024 07 16 11:40  15 19 27.64    -24 25 54.7   392177 1.0177 119.5  m  17?  31.14 146.6   63 277   3  73
   2024 07 16 11:50  15 19 40.21    -24 30 13.2   392318 1.0177 119.6  m  17?  30.92 145.9   61 275   3  73
   2024 07 16 12:00  15 19 52.95    -24 34 27.7   392465 1.0177 119.6  m  17?  30.71 145.1   59 274   3  73
   2024 07 16 12:10  15 20 05.87    -24 38 38.2   392621 1.0177 119.7  m  17?  30.54 144.3   57 272   3  73
   2024 07 16 12:20  15 20 18.98    -24 42 44.8   392783 1.0177 119.8  m  17?  30.38 143.5   55 271   3  73
   2024 07 16 12:30  15 20 32.30    -24 46 47.7   392952 1.0177 119.8  m  17?  30.26 142.6   53 269   3  73
   2024 07 16 12:40  15 20 45.85    -24 50 46.8   393127 1.0177 119.9  m  17?  30.16 141.8   51 268   3  73
   2024 07 16 12:50  15 20 59.63    -24 54 42.5   393309 1.0177 119.9  m  17?  30.08 140.9   49 267   3  73
   2024 07 16 13:00  15 21 13.67    -24 58 34.6   393497 1.0177 120.0  m  17?  30.04 139.9   47 265   3  73
   2024 07 16 13:10  15 21 27.98    -25 02 23.4   393691 1.0177 120.0  m  17?  30.02 139.0   45 264   4  73
   2024 07 16 13:20  15 21 42.56    -25 06 08.8   393890 1.0177 120.1  m  17?  30.02 138.1   43 263   4  73
   2024 07 16 13:30  15 21 57.44    -25 09 51.2   394094 1.0177 120.2  m  17?  30.06 137.1   41 262   4  73
   2024 07 16 13:40  15 22 12.61    -25 13 30.4   394303 1.0177 120.2  m  17?  30.11 136.1   39 261   4  73
   2024 07 16 13:50  15 22 28.09    -25 17 06.7   394516 1.0177 120.3  m  17?  30.20 135.2   37 260   4  74
   2024 07 16 14:00  15 22 43.90    -25 20 40.2   394733 1.0177 120.3  m  17?  30.30 134.2   35 259   4  74
   2024 07 16 14:10  15 23 00.03    -25 24 10.9   394955 1.0177 120.4  m  17?  30.43 133.3   33 258   4  74
   2024 07 16 14:20  15 23 16.50    -25 27 39.0   395179 1.0177 120.5  m  17?  30.59 132.4   31 257   4  74
   2024 07 16 14:30  15 23 33.31    -25 31 04.6   395407 1.0177 120.5  m  17?  30.76 131.5   29 256   4  74
   2024 07 16 14:40  15 23 50.48    -25 34 27.7   395637 1.0177 120.6  m  17?  30.96 130.6   27 254   4  74
   2024 07 16 14:50  15 24 08.00    -25 37 48.6   395870 1.0177 120.7  m  17?  31.18 129.7   25 253   4  74
   2024 07 16 15:00  15 24 25.88    -25 41 07.3   396105 1.0177 120.7  m  17?  31.42 128.8   23 252   4  74
   2024 07 16 15:10  15 24 44.13    -25 44 24.0   396341 1.0178 120.8  m  17?  31.67 128.0   21 251   4  74
   2024 07 16 15:20  15 25 02.75    -25 47 38.7   396579 1.0178 120.9  m  17?  31.95 127.2   19 250   4  74
   2024 07 16 15:30  15 25 21.74    -25 50 51.7   396818 1.0178 121.0  m  17?  32.23 126.4   17 249   4  74
   2024 07 16 15:40  15 25 41.10    -25 54 02.9   397057 1.0178 121.0  m  17?  32.54 125.6   15 248   4  74
   2024 07 16 15:50  15 26 00.85    -25 57 12.5   397296 1.0178 121.1  m  17?  32.85 124.9   13 247   4  74
   2024 07 16 16:00  15 26 20.97    -26 00 20.6   397534 1.0178 121.2  m  17?  33.18 124.2   11 246   4  74
   2024 07 16 16:10  15 26 41.47    -26 03 27.4   397773 1.0178 121.3  m  17?  33.52 123.6    9 245   4  74
   2024 07 16 16:20  15 27 02.34    -26 06 33.0   398010 1.0178 121.3  m  17?  33.87 122.9    7 244   4  74
   2024 07 16 16:30  15 27 23.59    -26 09 37.4   398246 1.0178 121.4  m  17?  34.22 122.3    6 242   4  74
   2024 07 16 16:40  15 27 45.22    -26 12 40.8   398480 1.0178 121.5  m  17?  34.59 121.8    4 241   4  74
   2024 07 16 16:50  15 28 07.22    -26 15 43.3   398712 1.0178 121.6  m  17?  34.96 121.2    2 240   4  75
   2024 07 16 17:00  15 28 29.58    -26 18 45.0   398942 1.0178 121.7     17?  35.33 120.7    0 239   4  75
   ................
   2024 07 17 07:30  16 04 15.85    -31 24 22.1   396368 1.0180 129.5 Cm  17?  27.94 137.9   52 102   7  81
   2024 07 17 07:40  16 04 30.28    -31 27 48.9   396253 1.0180 129.5 Cm  17?  27.52 138.1   54 101   7  81
   2024 07 17 07:50  16 04 44.46    -31 31 13.2   396145 1.0180 129.5 Nm  17?  27.11 138.3   56 101   7  81
   2024 07 17 08:00  16 04 58.38    -31 34 35.0   396043 1.0180 129.6 Nm  17?  26.70 138.5   58 100   7  81
   2024 07 17 08:10  16 05 12.07    -31 37 54.0   395948 1.0180 129.6 Nm  17?  26.30 138.6   60 100   7  81
   2024 07 17 08:20  16 05 25.54    -31 41 10.3   395860 1.0180 129.7 Am  17?  25.90 138.6   62  99   7  81
   2024 07 17 08:30  16 05 38.80    -31 44 23.8   395779 1.0180 129.7 Am  17?  25.51 138.6   64  99   7  81
   2024 07 17 08:40  16 05 51.87    -31 47 34.5   395705 1.0180 129.8 Am  17?  25.13 138.6   66  98   7  81
   2024 07 17 08:50  16 06 04.77    -31 50 42.1   395638 1.0180 129.8  m  17?  24.76 138.6   69  98   7  81
   2024 07 17 09:00  16 06 17.50    -31 53 46.8   395579 1.0180 129.8  m  17?  24.40 138.4   71  97   7  81
   2024 07 17 09:10  16 06 30.09    -31 56 48.4   395528 1.0180 129.9  m  17?  24.05 138.3   73  97   7  81
   2024 07 17 09:20  16 06 42.55    -31 59 46.9   395485 1.0180 129.9  m  17?  23.70 138.1   75  97   7  81
   2024 07 17 09:30  16 06 54.90    -32 02 42.2   395449 1.0180 130.0  m  17?  23.37 137.8   77  97   7  81
   2024 07 17 09:40  16 07 07.15    -32 05 34.3   395421 1.0180 130.0  m  17?  23.05 137.5   79  98   7  81
   2024 07 17 09:50  16 07 19.33    -32 08 23.1   395402 1.0180 130.0  m  17?  22.75 137.1   81  98   7  81
   2024 07 17 10:00  16 07 31.44    -32 11 08.7   395390 1.0180 130.1  m  17?  22.45 136.7   83 100   7  81
   2024 07 17 10:10  16 07 43.51    -32 13 50.9   395387 1.0180 130.1  m  17?  22.18 136.2   85 104   7  81
   2024 07 17 10:20  16 07 55.55    -32 16 29.9   395392 1.0180 130.2  m  17?  21.92 135.7   87 116   7  81
   2024 07 17 10:30  16 08 07.58    -32 19 05.5   395405 1.0180 130.2  m  17?  21.67 135.1   88 174   7  81
   2024 07 17 10:40  16 08 19.63    -32 21 37.7   395426 1.0180 130.2  t  17?  21.45 134.4   87 239   7  81
   2024 07 17 10:50  16 08 31.70    -32 24 06.6   395455 1.0180 130.3  m  17?  21.24 133.7   85 252   7  81
   2024 07 17 11:00  16 08 43.81    -32 26 32.2   395493 1.0180 130.3  m  17?  21.05 132.9   83 256   7  81
   2024 07 17 11:10  16 08 55.99    -32 28 54.4   395538 1.0180 130.3  m  17?  20.89 132.1   81 258   7  81
   2024 07 17 11:20  16 09 08.24    -32 31 13.2   395592 1.0180 130.4  m  17?  20.75 131.2   79 259   7  81
   2024 07 17 11:30  16 09 20.60    -32 33 28.8   395653 1.0180 130.4  m  17?  20.62 130.3   77 259   7  81
   2024 07 17 11:40  16 09 33.07    -32 35 41.0   395723 1.0180 130.4  m  17?  20.53 129.3   75 260   7  82
   2024 07 17 11:50  16 09 45.67    -32 37 50.0   395800 1.0181 130.5  m  17?  20.46 128.3   73 259   7  82
   2024 07 17 12:00  16 09 58.42    -32 39 55.7   395884 1.0181 130.5  m  17?  20.41 127.3   71 259   8  82
   2024 07 17 12:10  16 10 11.34    -32 41 58.3   395976 1.0181 130.6  m  17?  20.39 126.2   69 259   8  82
   2024 07 17 12:20  16 10 24.44    -32 43 57.7   396076 1.0181 130.6  m  17?  20.40 125.1   67 259   8  82
   2024 07 17 12:30  16 10 37.73    -32 45 54.0   396183 1.0181 130.6  m  17?  20.43 124.0   65 258   8  82
   2024 07 17 12:40  16 10 51.24    -32 47 47.3   396296 1.0181 130.7  m  17?  20.49 122.9   63 258   8  82
   2024 07 17 12:50  16 11 04.98    -32 49 37.6   396416 1.0181 130.7  m  17?  20.58 121.7   61 257   8  82
   2024 07 17 13:00  16 11 18.96    -32 51 25.0   396543 1.0181 130.8  m  17?  20.70 120.6   59 257   8  82
   2024 07 17 13:10  16 11 33.21    -32 53 09.5   396677 1.0181 130.8  m  17?  20.84 119.5   57 256   8  82
   2024 07 17 13:20  16 11 47.72    -32 54 51.3   396816 1.0181 130.9  m  17?  21.01 118.4   54 255   8  82
   2024 07 17 13:30  16 12 02.52    -32 56 30.4   396961 1.0181 130.9  m  17?  21.20 117.3   52 255   8  82
   2024 07 17 13:40  16 12 17.61    -32 58 06.8   397112 1.0181 131.0  m  17?  21.42 116.2   50 254   8  82
   2024 07 17 13:50  16 12 33.02    -32 59 40.7   397269 1.0181 131.0  m  17?  21.67 115.1   48 254   8  82
   2024 07 17 14:00  16 12 48.75    -33 01 12.2   397430 1.0181 131.0  m  17?  21.94 114.1   46 253   8  82
   2024 07 17 14:10  16 13 04.81    -33 02 41.4   397597 1.0181 131.1  m  17?  22.23 113.1   44 252   8  82
   2024 07 17 14:20  16 13 21.22    -33 04 08.3   397767 1.0181 131.1  m  17?  22.54 112.2   42 252   8  82
   2024 07 17 14:30  16 13 37.98    -33 05 33.0   397943 1.0181 131.2  m  17?  22.87 111.3   40 251   8  82
   2024 07 17 14:40  16 13 55.10    -33 06 55.7   398122 1.0181 131.3  m  17?  23.23 110.4   39 250   8  82
   2024 07 17 14:50  16 14 12.59    -33 08 16.5   398305 1.0181 131.3  m  17?  23.60 109.6   37 249   8  82
   2024 07 17 15:00  16 14 30.46    -33 09 35.4   398491 1.0181 131.4  m  17?  23.99 108.8   35 249   8  82
   2024 07 17 15:10  16 14 48.72    -33 10 52.6   398680 1.0181 131.4  m  17?  24.39 108.0   33 248   8  82
   2024 07 17 15:20  16 15 07.37    -33 12 08.1   398872 1.0181 131.5  m  17?  24.81 107.3   31 247   8  82
   2024 07 17 15:30  16 15 26.42    -33 13 22.2   399066 1.0181 131.5  m  17?  25.24 106.7   29 246   8  82
   2024 07 17 15:40  16 15 45.87    -33 14 34.9   399262 1.0181 131.6  m  17?  25.69 106.1   27 245   8  82
   2024 07 17 15:50  16 16 05.73    -33 15 46.3   399460 1.0181 131.7  m  17?  26.14 105.5   25 245   8  82
   2024 07 17 16:00  16 16 26.00    -33 16 56.6   399660 1.0181 131.7  m  17?  26.60 105.0   23 244   8  83
   2024 07 17 16:10  16 16 46.68    -33 18 05.8   399860 1.0181 131.8  m  17?  27.08 104.5   21 243   8  83
   2024 07 17 16:20  16 17 07.78    -33 19 14.1   400061 1.0181 131.9  m  17?  27.55 104.1   20 242   8  83
   2024 07 17 16:30  16 17 29.29    -33 20 21.5   400263 1.0181 131.9  m  17?  28.04 103.7   18 241   8  83
   2024 07 17 16:40  16 17 51.22    -33 21 28.3   400464 1.0181 132.0  m  17?  28.52 103.3   16 240   8  83
   2024 07 17 16:50  16 18 13.57    -33 22 34.6   400665 1.0181 132.1  m  17?  29.02 102.9   14 239   8  83
   2024 07 17 17:00  16 18 36.33    -33 23 40.3   400866 1.0181 132.1  m  17?  29.51 102.6   12 238   8  83
   2024 07 17 17:10  16 18 59.51    -33 24 45.8   401065 1.0181 132.2  m  17?  30.00 102.4   11 237   8  83
   2024 07 17 17:20  16 19 23.11    -33 25 51.0   401263 1.0181 132.3  m  17?  30.50 102.1    9 236   8  83
   2024 07 17 17:30  16 19 47.11    -33 26 56.1   401460 1.0181 132.4  m  17?  30.99 101.9    7 235   8  83
   2024 07 17 17:40  16 20 11.52    -33 28 01.3   401654 1.0181 132.4  m  17?  31.48 101.8    6 234   8  83
   2024 07 17 17:50  16 20 36.33    -33 29 06.5   401846 1.0181 132.5  m  17?  31.96 101.6    4 233   8  83
   2024 07 17 18:00  16 21 01.54    -33 30 12.0   402035 1.0181 132.6     17?  32.45 101.5    2 231   8  83
   2024 07 17 18:10  16 21 27.13    -33 31 17.9   402222 1.0181 132.7     17?  32.92 101.4    1 230   8  83
   2024 07 17 18:20  16 21 53.12    -33 32 24.2   402405 1.0181 132.8     17?  33.40 101.3    0 229   8  83
   ................
   2024 07 18 07:30  16 58 53.84    -36 18 38.9   398114 1.0183 139.5 Cm  17?  26.60 123.1   43 112   9  88
   2024 07 18 07:40  16 59 12.05    -36 21 04.1   397954 1.0183 139.6 Cm  17?  26.13 123.3   45 111   9  88
   2024 07 18 07:50  16 59 29.93    -36 23 27.2   397798 1.0183 139.6 Nm  17?  25.68 123.3   46 111   9  88
   2024 07 18 08:00  16 59 47.49    -36 25 48.0   397647 1.0183 139.7 Nm  17?  25.22 123.4   48 111   9  88
   2024 07 18 08:10  17 00 04.74    -36 28 06.5   397502 1.0183 139.7 Nm  17?  24.77 123.4   50 110   9  88
   2024 07 18 08:20  17 00 21.69    -36 30 22.5   397361 1.0183 139.8 Am  17?  24.33 123.4   52 110   9  88
   2024 07 18 08:30  17 00 38.34    -36 32 35.9   397226 1.0183 139.8 Am  17?  23.89 123.4   54 110   9  88
   2024 07 18 08:40  17 00 54.73    -36 34 46.6   397097 1.0183 139.9 Am  17?  23.46 123.3   56 110   9  88
   2024 07 18 08:50  17 01 10.85    -36 36 54.6   396973 1.0183 139.9  m  17?  23.04 123.1   58 110   9  88
   2024 07 18 09:00  17 01 26.72    -36 38 59.8   396856 1.0183 139.9  m  17?  22.63 122.9   60 110   9  88
   2024 07 18 09:10  17 01 42.35    -36 41 02.0   396745 1.0183 140.0  m  17?  22.24 122.7   62 110   9  88
   2024 07 18 09:20  17 01 57.77    -36 43 01.2   396641 1.0183 140.0  m  17?  21.85 122.4   64 110   9  88
   2024 07 18 09:30  17 02 12.98    -36 44 57.4   396543 1.0183 140.0  m  17?  21.47 122.0   66 111   9  89
   2024 07 18 09:40  17 02 28.00    -36 46 50.3   396452 1.0183 140.1  m  17?  21.11 121.6   68 111   9  89
   2024 07 18 09:50  17 02 42.85    -36 48 40.1   396368 1.0183 140.1  m  17?  20.77 121.1   70 112   9  89
   2024 07 18 10:00  17 02 57.54    -36 50 26.5   396291 1.0183 140.2  m  17?  20.44 120.6   72 113   9  89
   2024 07 18 10:10  17 03 12.09    -36 52 09.6   396221 1.0183 140.2  m  17?  20.13 120.0   74 115   9  89
   2024 07 18 10:20  17 03 26.52    -36 53 49.3   396159 1.0183 140.2  m  17?  19.83 119.4   76 118   9  89
   2024 07 18 10:30  17 03 40.84    -36 55 25.6   396104 1.0183 140.3  m  17?  19.56 118.7   77 121   9  89
   2024 07 18 10:40  17 03 55.07    -36 56 58.4   396056 1.0183 140.3  m  17?  19.30 117.9   79 125   9  89
   2024 07 18 10:50  17 04 09.24    -36 58 27.7   396016 1.0183 140.3  m  17?  19.07 117.1   81 132  10  89
   2024 07 18 11:00  17 04 23.35    -36 59 53.4   395984 1.0183 140.4  m  17?  18.86 116.2   82 142  10  89
   2024 07 18 11:10  17 04 37.43    -37 01 15.6   395959 1.0183 140.4  m  17?  18.67 115.3   83 155  10  89
   2024 07 18 11:20  17 04 51.50    -37 02 34.2   395942 1.0183 140.4  m  17?  18.51 114.3   84 173  10  89
   2024 07 18 11:30  17 05 05.57    -37 03 49.3   395932 1.0183 140.5  t  17?  18.37 113.3   84 192  10  89
   2024 07 18 11:40  17 05 19.66    -37 05 00.7   395930 1.0183 140.5  m  17?  18.27 112.2   83 208  10  89
   2024 07 18 11:50  17 05 33.80    -37 06 08.6   395936 1.0183 140.5  m  17?  18.18 111.1   82 220  10  89
   2024 07 18 12:00  17 05 47.99    -37 07 12.9   395949 1.0183 140.6  m  17?  18.13 109.9   80 229  10  89
   2024 07 18 12:10  17 06 02.26    -37 08 13.6   395970 1.0183 140.6  m  17?  18.11 108.8   78 234  10  89
   2024 07 18 12:20  17 06 16.63    -37 09 10.8   395998 1.0183 140.7  m  17?  18.11 107.6   77 238  10  89
   2024 07 18 12:30  17 06 31.11    -37 10 04.5   396033 1.0183 140.7  m  17?  18.15 106.4   75 241  10  89
   2024 07 18 12:40  17 06 45.73    -37 10 54.7   396076 1.0183 140.7  m  17?  18.21 105.2   73 243  10  89
   2024 07 18 12:50  17 07 00.49    -37 11 41.5   396126 1.0183 140.8  m  17?  18.30 104.0   71 245  10  89
   2024 07 18 13:00  17 07 15.42    -37 12 24.9   396183 1.0183 140.8  m  17?  18.42 102.9   69 246  10  89
   2024 07 18 13:10  17 07 30.54    -37 13 04.9   396247 1.0183 140.8  m  17?  18.57 101.7   67 247  10  89
   2024 07 18 13:20  17 07 45.86    -37 13 41.7   396318 1.0183 140.9  m  17?  18.75 100.6   65 247  10  89
   2024 07 18 13:30  17 08 01.39    -37 14 15.3   396396 1.0183 140.9  m  17?  18.96  99.5   63 248  10  89
   2024 07 18 13:40  17 08 17.16    -37 14 45.6   396479 1.0183 141.0  m  17?  19.19  98.5   61 248  10  89
   2024 07 18 13:50  17 08 33.18    -37 15 13.0   396569 1.0183 141.0  m  17?  19.45  97.5   59 248  10  89
   2024 07 18 14:00  17 08 49.46    -37 15 37.3   396666 1.0183 141.1  m  17?  19.73  96.5   58 248  10  89
   2024 07 18 14:10  17 09 06.02    -37 15 58.7   396768 1.0183 141.1  m  17?  20.04  95.5   56 248  10  89
   2024 07 18 14:20  17 09 22.87    -37 16 17.2   396875 1.0183 141.2  m  17?  20.37  94.7   54 248  10  89
   2024 07 18 14:30  17 09 40.03    -37 16 33.0   396988 1.0183 141.2  m  17?  20.72  93.8   52 248  10  89
   2024 07 18 14:40  17 09 57.51    -37 16 46.2   397107 1.0183 141.2  m  17?  21.09  93.1   50 247  10  89
   2024 07 18 14:50  17 10 15.31    -37 16 56.8   397230 1.0183 141.3  m  17?  21.48  92.3   48 247  10  89
   2024 07 18 15:00  17 10 33.47    -37 17 04.9   397358 1.0183 141.4  m  17?  21.88  91.7   46 247  10  89
   2024 07 18 15:10  17 10 51.97    -37 17 10.7   397490 1.0183 141.4  m  17?  22.30  91.0   44 246  10  89
   2024 07 18 15:20  17 11 10.84    -37 17 14.3   397627 1.0183 141.5  m  17?  22.74  90.5   42 246  10  90
   2024 07 18 15:30  17 11 30.07    -37 17 15.8   397767 1.0183 141.5  m  17?  23.19  89.9   40 245  10  90
   2024 07 18 15:40  17 11 49.70    -37 17 15.2   397911 1.0183 141.6  m  17?  23.65  89.5   38 245  10  90
   2024 07 18 15:50  17 12 09.71    -37 17 12.8   398058 1.0183 141.6  m  17?  24.12  89.0   36 244  10  90
   2024 07 18 16:00  17 12 30.12    -37 17 08.5   398209 1.0183 141.7  m  17?  24.60  88.6   35 243  10  90
   2024 07 18 16:10  17 12 50.93    -37 17 02.7   398362 1.0183 141.8  m  17?  25.09  88.3   33 243  10  90
   2024 07 18 16:20  17 13 12.15    -37 16 55.3   398517 1.0183 141.8  m  17?  25.59  88.0   31 242  10  90
   2024 07 18 16:30  17 13 33.79    -37 16 46.5   398675 1.0183 141.9  m  17?  26.09  87.7   29 241  10  90
   2024 07 18 16:40  17 13 55.85    -37 16 36.4   398834 1.0184 141.9  m  17?  26.60  87.5   27 241  10  90
   2024 07 18 16:50  17 14 18.33    -37 16 25.1   398995 1.0184 142.0  m  17?  27.11  87.3   25 240  10  90
   2024 07 18 17:00  17 14 41.24    -37 16 12.9   399157 1.0184 142.1  m  17?  27.63  87.2   24 239  10  90
   2024 07 18 17:10  17 15 04.57    -37 15 59.7   399320 1.0184 142.1  m  17?  28.15  87.1   22 238  10  90
   2024 07 18 17:20  17 15 28.34    -37 15 45.8   399484 1.0184 142.2  m  17?  28.66  87.0   20 238  10  90
   2024 07 18 17:30  17 15 52.54    -37 15 31.2   399648 1.0184 142.3  m  17?  29.18  86.9   18 237  10  90
   2024 07 18 17:40  17 16 17.16    -37 15 16.1   399811 1.0184 142.4  m  17?  29.70  86.9   17 236  10  90
   2024 07 18 17:50  17 16 42.22    -37 15 00.6   399974 1.0184 142.4  m  17?  30.21  86.9   15 235  10  90
   2024 07 18 18:00  17 17 07.70    -37 14 44.8   400137 1.0184 142.5  m  17?  30.73  86.9   13 234  10  90
   2024 07 18 18:10  17 17 33.61    -37 14 28.9   400298 1.0184 142.6  m  17?  31.23  86.9   12 233  10  90
   2024 07 18 18:20  17 17 59.94    -37 14 13.0   400458 1.0184 142.7  m  17?  31.74  87.0   10 232  10  90
   2024 07 18 18:30  17 18 26.70    -37 13 57.2   400616 1.0184 142.8  m  17?  32.24  87.0    8 231  10  90
   2024 07 18 18:40  17 18 53.86    -37 13 41.7   400772 1.0184 142.8  m  17?  32.73  87.1    7 230  10  90
   2024 07 18 18:50  17 19 21.44    -37 13 26.4   400926 1.0184 142.9  m  17?  33.21  87.2    5 229  10  90
   2024 07 18 19:00  17 19 49.42    -37 13 11.7   401077 1.0184 143.0  m  17?  33.69  87.4    4 228  10  90
   2024 07 18 19:10  17 20 17.80    -37 12 57.5   401226 1.0184 143.1     17?  34.16  87.5    2 227  10  90
   2024 07 18 19:20  17 20 46.57    -37 12 44.0   401371 1.0184 143.2     17?  34.62  87.7    1 225  10  91
   2024 07 18 19:30  17 21 15.72    -37 12 31.3   401512 1.0184 143.3     17?  35.07  87.8    0 224  10  91
   ................
   2024 07 19 07:30  17 58 43.76    -38 15 01.3   396043 1.0185 149.4 Cm  17?  27.49 107.6   32 118  10  94
   2024 07 19 07:40  17 59 05.78    -38 16 24.8   395839 1.0185 149.4 Cm  17?  26.99 107.6   34 117  10  94
   2024 07 19 07:50  17 59 27.40    -38 17 46.7   395638 1.0185 149.5 Nm  17?  26.50 107.6   36 116  10  94
   2024 07 19 08:00  17 59 48.64    -38 19 06.8   395440 1.0185 149.5 Nm  17?  26.00 107.5   38 116  10  94
   2024 07 19 08:10  18 00 09.49    -38 20 25.1   395245 1.0185 149.6 Nm  17?  25.52 107.4   40 115  10  94
   2024 07 19 08:20  18 00 29.97    -38 21 41.4   395054 1.0185 149.6 Am  17?  25.03 107.3   41 115  10  94
   2024 07 19 08:30  18 00 50.09    -38 22 55.7   394867 1.0185 149.7 Am  17?  24.56 107.1   43 115  10  94
   2024 07 19 08:40  18 01 09.85    -38 24 07.7   394683 1.0185 149.7 Am  17?  24.09 106.9   45 114  10  94
   2024 07 19 08:50  18 01 29.27    -38 25 17.4   394504 1.0185 149.8  m  17?  23.63 106.6   47 114  10  94
   2024 07 19 09:00  18 01 48.34    -38 26 24.7   394329 1.0185 149.8  m  17?  23.18 106.3   49 114  10  94
   2024 07 19 09:10  18 02 07.10    -38 27 29.4   394160 1.0185 149.8  m  17?  22.74 106.0   51 113  10  94
   2024 07 19 09:20  18 02 25.54    -38 28 31.5   393995 1.0185 149.9  m  17?  22.32 105.6   53 113  10  94
   2024 07 19 09:30  18 02 43.68    -38 29 30.8   393835 1.0185 149.9  m  17?  21.90 105.1   55 113  10  94
   2024 07 19 09:40  18 03 01.53    -38 30 27.2   393682 1.0185 149.9  m  17?  21.51 104.6   57 113  10  94
   2024 07 19 09:50  18 03 19.11    -38 31 20.8   393533 1.0185 150.0  m  17?  21.12 104.0   59 113  10  94
   2024 07 19 10:00  18 03 36.42    -38 32 11.2   393391 1.0185 150.0  m  17?  20.76 103.4   60 114  10  94
   2024 07 19 10:10  18 03 53.50    -38 32 58.6   393255 1.0185 150.1  m  17?  20.41 102.7   62 114  10  94
   2024 07 19 10:20  18 04 10.34    -38 33 42.7   393125 1.0185 150.1  m  17?  20.08 102.0   64 114  10  94
   2024 07 19 10:30  18 04 26.97    -38 34 23.6   393002 1.0185 150.1  m  17?  19.77 101.2   66 115  10  94
   2024 07 19 10:40  18 04 43.40    -38 35 01.1   392885 1.0185 150.2  m  17?  19.49 100.4   68 116  10  94
   2024 07 19 10:50  18 04 59.65    -38 35 35.3   392775 1.0185 150.2  m  17?  19.23  99.5   70 117  10  95
   2024 07 19 11:00  18 05 15.74    -38 36 05.9   392672 1.0185 150.2  m  17?  18.99  98.6   72 119  10  95
   2024 07 19 11:10  18 05 31.68    -38 36 33.0   392576 1.0185 150.3  m  17?  18.78  97.6   73 121  10  95
   2024 07 19 11:20  18 05 47.49    -38 36 56.6   392487 1.0185 150.3  m  17?  18.59  96.5   75 124  10  95
   2024 07 19 11:30  18 06 03.19    -38 37 16.5   392405 1.0185 150.4  m  17?  18.43  95.5   77 128  10  95
   2024 07 19 11:40  18 06 18.80    -38 37 32.7   392330 1.0185 150.4  m  17?  18.30  94.3   78 134  10  95
   2024 07 19 11:50  18 06 34.33    -38 37 45.3   392263 1.0185 150.4  m  17?  18.20  93.2   80 141  10  95
   2024 07 19 12:00  18 06 49.81    -38 37 54.2   392203 1.0185 150.5  m  17?  18.13  92.0   81 150  10  95
   2024 07 19 12:10  18 07 05.25    -38 37 59.4   392150 1.0185 150.5  m  17?  18.08  90.9   82 163  10  95
   2024 07 19 12:20  18 07 20.67    -38 38 00.8   392105 1.0185 150.5  m  17?  18.07  89.7   82 177  10  95
   2024 07 19 12:30  18 07 36.10    -38 37 58.5   392067 1.0185 150.6  t  17?  18.09  88.5   82 192  10  95
   2024 07 19 12:40  18 07 51.55    -38 37 52.4   392037 1.0185 150.6  m  17?  18.14  87.3   81 205  10  95
   2024 07 19 12:50  18 08 07.03    -38 37 42.6   392014 1.0185 150.7  m  17?  18.21  86.2   80 215  10  95
   2024 07 19 13:00  18 08 22.58    -38 37 29.1   391999 1.0185 150.7  m  17?  18.32  85.0   79 223  10  95
   2024 07 19 13:10  18 08 38.20    -38 37 12.0   391991 1.0185 150.7  m  17?  18.46  83.9   77 229  10  95
   2024 07 19 13:20  18 08 53.92    -38 36 51.1   391990 1.0185 150.8  m  17?  18.62  82.8   76 233  10  95
   2024 07 19 13:30  18 09 09.75    -38 36 26.6   391996 1.0185 150.8  m  17?  18.82  81.8   74 237  10  95
   2024 07 19 13:40  18 09 25.71    -38 35 58.5   392010 1.0185 150.9  m  17?  19.04  80.8   72 239  10  95
   2024 07 19 13:50  18 09 41.83    -38 35 26.9   392030 1.0185 150.9  m  17?  19.28  79.8   70 241  10  95
   2024 07 19 14:00  18 09 58.11    -38 34 51.7   392058 1.0185 150.9  m  17?  19.55  78.9   69 242  10  95
   2024 07 19 14:10  18 10 14.58    -38 34 13.1   392092 1.0185 151.0  m  17?  19.84  78.1   67 244  10  95
   2024 07 19 14:20  18 10 31.25    -38 33 31.2   392133 1.0185 151.0  m  17?  20.16  77.3   65 244  10  95
   2024 07 19 14:30  18 10 48.14    -38 32 45.9   392180 1.0185 151.1  m  17?  20.49  76.6   63 245  10  95
   2024 07 19 14:40  18 11 05.26    -38 31 57.4   392234 1.0185 151.1  m  17?  20.85  75.9   61 245  10  95
   2024 07 19 14:50  18 11 22.64    -38 31 05.7   392294 1.0185 151.2  m  17?  21.22  75.3   59 246  10  95
   2024 07 19 15:00  18 11 40.28    -38 30 11.0   392360 1.0185 151.2  m  17?  21.61  74.7   57 246  10  95
   2024 07 19 15:10  18 11 58.20    -38 29 13.2   392432 1.0185 151.3  m  17?  22.02  74.2   55 246  10  95
   2024 07 19 15:20  18 12 16.41    -38 28 12.6   392509 1.0185 151.3  m  17?  22.44  73.8   53 246  10  95
   2024 07 19 15:30  18 12 34.93    -38 27 09.1   392592 1.0185 151.4  m  17?  22.88  73.4   52 246  10  95
   2024 07 19 15:40  18 12 53.77    -38 26 03.0   392679 1.0185 151.5  m  17?  23.33  73.0   50 245  10  95
   2024 07 19 15:50  18 13 12.95    -38 24 54.2   392772 1.0185 151.5  m  17?  23.79  72.7   48 245  10  95
   2024 07 19 16:00  18 13 32.46    -38 23 43.0   392870 1.0185 151.6  m  17?  24.26  72.4   46 245  10  95
   2024 07 19 16:10  18 13 52.33    -38 22 29.4   392971 1.0185 151.6  m  17?  24.74  72.2   44 245  10  95
   2024 07 19 16:20  18 14 12.57    -38 21 13.5   393077 1.0185 151.7  m  17?  25.22  72.1   42 244  10  95
   2024 07 19 16:30  18 14 33.18    -38 19 55.5   393187 1.0185 151.8  m  17?  25.72  71.9   40 244  10  95
   2024 07 19 16:40  18 14 54.17    -38 18 35.5   393301 1.0185 151.8  m  17?  26.22  71.8   38 243  10  95
   2024 07 19 16:50  18 15 15.56    -38 17 13.5   393417 1.0185 151.9  m  17?  26.73  71.8   37 243  10  95
   2024 07 19 17:00  18 15 37.34    -38 15 49.8   393537 1.0185 152.0  m  17?  27.24  71.7   35 242  10  95
   2024 07 19 17:10  18 15 59.52    -38 14 24.4   393660 1.0185 152.0  m  17?  27.75  71.7   33 242  10  95
   2024 07 19 17:20  18 16 22.12    -38 12 57.5   393785 1.0185 152.1  m  17?  28.27  71.8   31 241  10  95
   2024 07 19 17:30  18 16 45.13    -38 11 29.2   393912 1.0185 152.2  m  17?  28.78  71.8   29 240  10  95
   2024 07 19 17:40  18 17 08.56    -38 09 59.6   394041 1.0185 152.2  m  17?  29.30  71.9   27 240  10  95
   2024 07 19 17:50  18 17 32.41    -38 08 28.9   394172 1.0185 152.3  m  17?  29.82  72.0   26 239  10  95
   2024 07 19 18:00  18 17 56.68    -38 06 57.2   394304 1.0185 152.4  m  17?  30.34  72.1   24 238  10  95
   2024 07 19 18:10  18 18 21.38    -38 05 24.6   394437 1.0185 152.5  m  17?  30.85  72.3   22 238  10  95
   2024 07 19 18:20  18 18 46.52    -38 03 51.2   394570 1.0185 152.5  m  17?  31.36  72.4   20 237  10  96
   2024 07 19 18:30  18 19 12.07    -38 02 17.2   394704 1.0185 152.6  m  17?  31.87  72.6   19 236  10  96
   2024 07 19 18:40  18 19 38.06    -38 00 42.8   394838 1.0185 152.7  m  17?  32.38  72.8   17 235  10  96
   2024 07 19 18:50  18 20 04.47    -37 59 08.0   394971 1.0185 152.8  m  17?  32.88  73.0   15 234  10  96
   2024 07 19 19:00  18 20 31.31    -37 57 32.9   395104 1.0185 152.9  m  17?  33.37  73.3   14 233  10  96
   2024 07 19 19:10  18 20 58.57    -37 55 57.8   395236 1.0185 153.0  m  17?  33.86  73.5   12 232  10  96
   2024 07 19 19:20  18 21 26.25    -37 54 22.7   395366 1.0185 153.0  m  17?  34.35  73.8   10 231  10  96
   2024 07 19 19:30  18 21 54.34    -37 52 47.7   395495 1.0185 153.1  m  17?  34.82  74.0    9 230  10  96
   2024 07 19 19:40  18 22 22.84    -37 51 13.0   395622 1.0185 153.2 Am  17?  35.29  74.3    7 229  10  96
   2024 07 19 19:50  18 22 51.75    -37 49 38.7   395747 1.0185 153.3 Am  17?  35.75  74.6    5 228  10  96
   2024 07 19 20:00  18 23 21.05    -37 48 04.9   395869 1.0185 153.4 Am  17?  36.19  74.8    4 227  10  96
   2024 07 19 20:10  18 23 50.75    -37 46 31.7   395989 1.0185 153.5 N   17?  36.63  75.1    2 226  10  96
   2024 07 19 20:20  18 24 20.83    -37 44 59.2   396106 1.0185 153.6 N   17?  37.06  75.4    1 225  10  96
   2024 07 19 20:30  18 24 51.28    -37 43 27.6   396219 1.0185 153.7 N   17?  37.48  75.8    0 224  10  96
   ................
   2024 07 20 07:30  19 00 55.37    -37 10 06.2   390252 1.0185 159.1 Cm  18?  29.92  91.6   21 121  10  98
   2024 07 20 07:40  19 01 20.18    -37 10 14.9   390010 1.0185 159.1 Cm  18?  29.41  91.4   23 120  10  98
   2024 07 20 07:50  19 01 44.56    -37 10 22.7   389769 1.0185 159.2 Nm  18?  28.90  91.3   25 119  10  98
   2024 07 20 08:00  19 02 08.52    -37 10 29.5   389529 1.0185 159.2 Nm  18?  28.39  91.1   26 118  10  98
   2024 07 20 08:10  19 02 32.06    -37 10 35.0   389291 1.0185 159.3 Nm  18?  27.88  90.8   28 118  10  98
   2024 07 20 08:20  19 02 55.17    -37 10 39.3   389054 1.0185 159.3 Am  18?  27.38  90.6   30 117  10  98
   2024 07 20 08:30  19 03 17.87    -37 10 42.1   388819 1.0185 159.4 Am  18?  26.88  90.3   32 116  10  98
   2024 07 20 08:40  19 03 40.16    -37 10 43.3   388587 1.0185 159.4 Am  18?  26.40  89.9   34 116  10  98
   2024 07 20 08:50  19 04 02.05    -37 10 42.8   388357 1.0185 159.5  m  18?  25.92  89.5   36 115  10  98
   2024 07 20 09:00  19 04 23.53    -37 10 40.6   388130 1.0185 159.5  m  18?  25.44  89.1   37 114  10  98
   2024 07 20 09:10  19 04 44.62    -37 10 36.3   387906 1.0185 159.5  m  18?  24.98  88.6   39 114  10  98
   2024 07 20 09:20  19 05 05.33    -37 10 30.0   387686 1.0185 159.6  m  18?  24.54  88.1   41 113  10  98
   2024 07 20 09:30  19 05 25.67    -37 10 21.6   387469 1.0185 159.6  m  18?  24.10  87.5   43 113  10  98
   2024 07 20 09:40  19 05 45.63    -37 10 10.8   387256 1.0185 159.7  m  18?  23.68  86.9   45 112  10  98
   2024 07 20 09:50  19 06 05.24    -37 09 57.6   387048 1.0185 159.7  m  18?  23.28  86.3   47 112  10  98
   2024 07 20 10:00  19 06 24.51    -37 09 41.9   386845 1.0185 159.7  m  18?  22.89  85.6   49 112  10  98
   2024 07 20 10:10  19 06 43.43    -37 09 23.6   386646 1.0185 159.8  m  18?  22.52  84.8   51 111  10  98
   2024 07 20 10:20  19 07 02.04    -37 09 02.6   386452 1.0185 159.8  m  18?  22.17  84.0   53 111  10  98
   2024 07 20 10:30  19 07 20.34    -37 08 38.7   386264 1.0185 159.9  m  18?  21.84  83.2   55 111  10  98
   2024 07 20 10:40  19 07 38.34    -37 08 11.9   386081 1.0185 159.9  m  18?  21.54  82.3   57 111  10  98
   2024 07 20 10:50  19 07 56.05    -37 07 42.1   385904 1.0185 159.9  m  18?  21.26  81.3   58 111  10  98
   2024 07 20 11:00  19 08 13.50    -37 07 09.1   385733 1.0185 160.0  m  18?  21.00  80.4   60 111  10  98
   2024 07 20 11:10  19 08 30.69    -37 06 33.0   385568 1.0185 160.0  m  18?  20.77  79.4   62 111  10  98
   2024 07 20 11:20  19 08 47.65    -37 05 53.7   385410 1.0185 160.0  m  18?  20.56  78.3   64 111  10  98
   2024 07 20 11:30  19 09 04.38    -37 05 11.0   385258 1.0185 160.1  m  18?  20.38  77.3   66 111  10  98
   2024 07 20 11:40  19 09 20.90    -37 04 24.9   385113 1.0185 160.1  m  18?  20.23  76.2   68 112  10  98
   2024 07 20 11:50  19 09 37.24    -37 03 35.4   384975 1.0185 160.2  m  18?  20.11  75.1   70 113  10  98
   2024 07 20 12:00  19 09 53.40    -37 02 42.4   384843 1.0185 160.2  m  18?  20.02  73.9   72 114  10  98
   2024 07 20 12:10  19 10 09.41    -37 01 45.7   384719 1.0185 160.2  m  18?  19.96  72.8   74 116  10  98
   2024 07 20 12:20  19 10 25.29    -37 00 45.5   384602 1.0185 160.3  m  18?  19.93  71.7   76 118  10  98
   2024 07 20 12:30  19 10 41.04    -36 59 41.7   384493 1.0185 160.3  m  18?  19.92  70.6   78 121  10  98
   2024 07 20 12:40  19 10 56.69    -36 58 34.1   384391 1.0185 160.4  m  18?  19.95  69.5   79 126  10  98
   2024 07 20 12:50  19 11 12.26    -36 57 22.9   384296 1.0185 160.4  m  18?  20.01  68.4   81 133  10  98
   2024 07 20 13:00  19 11 27.77    -36 56 07.9   384209 1.0185 160.4  m  18?  20.09  67.3   82 142  10  98
   2024 07 20 13:10  19 11 43.24    -36 54 49.3   384130 1.0185 160.5  m  18?  20.20  66.3   83 157  10  98
   2024 07 20 13:20  19 11 58.67    -36 53 26.8   384058 1.0185 160.5  m  18?  20.34  65.3   84 175  10  98
   2024 07 20 13:30  19 12 14.10    -36 52 00.6   383994 1.0185 160.6  t  18?  20.51  64.4   84 195  10  98
   2024 07 20 13:40  19 12 29.55    -36 50 30.7   383937 1.0185 160.6  m  18?  20.70  63.5   83 211  10  98
   2024 07 20 13:50  19 12 45.02    -36 48 57.1   383888 1.0185 160.7  m  18?  20.92  62.7   82 223  10  98
   2024 07 20 14:00  19 13 00.55    -36 47 19.7   383847 1.0185 160.7  m  18?  21.16  61.9   80 231  10  98
   2024 07 20 14:10  19 13 16.14    -36 45 38.7   383814 1.0185 160.8  m  18?  21.42  61.1   78 237  10  98
   2024 07 20 14:20  19 13 31.82    -36 43 54.0   383787 1.0185 160.8  m  18?  21.70  60.4   77 241  10  98
   2024 07 20 14:30  19 13 47.61    -36 42 05.7   383769 1.0185 160.9  m  18?  22.01  59.8   75 244  10  98
   2024 07 20 14:40  19 14 03.52    -36 40 13.8   383758 1.0185 160.9  m  18?  22.33  59.2   73 246   9  98
   2024 07 20 14:50  19 14 19.57    -36 38 18.4   383754 1.0185 161.0  m  18?  22.67  58.7   71 247   9  98
   2024 07 20 15:00  19 14 35.78    -36 36 19.6   383757 1.0185 161.0  m  18?  23.03  58.3   69 248   9  98
   2024 07 20 15:10  19 14 52.17    -36 34 17.3   383768 1.0185 161.1  m  18?  23.41  57.8   67 249   9  98
   2024 07 20 15:20  19 15 08.75    -36 32 11.6   383785 1.0185 161.1  m  18?  23.80  57.5   65 249   9  98
   2024 07 20 15:30  19 15 25.54    -36 30 02.7   383809 1.0185 161.2  m  18?  24.20  57.2   63 250   9  98
   2024 07 20 15:40  19 15 42.55    -36 27 50.5   383840 1.0185 161.3  m  18?  24.61  56.9   61 250   9  98
   2024 07 20 15:50  19 15 59.81    -36 25 35.3   383877 1.0185 161.3  m  18?  25.04  56.7   59 250   9  98
   2024 07 20 16:00  19 16 17.32    -36 23 17.0   383921 1.0185 161.4  m  18?  25.48  56.6   57 250   9  98
   2024 07 20 16:10  19 16 35.10    -36 20 55.7   383970 1.0185 161.4  m  18?  25.93  56.4   55 250   9  98
   2024 07 20 16:20  19 16 53.16    -36 18 31.6   384026 1.0185 161.5  m  18?  26.39  56.4   53 250   9  99
   2024 07 20 16:30  19 17 11.52    -36 16 04.7   384087 1.0185 161.6  m  18?  26.85  56.3   51 249   9  99
   2024 07 20 16:40  19 17 30.18    -36 13 35.2   384153 1.0185 161.6  m  18?  27.32  56.3   50 249   9  99
   2024 07 20 16:50  19 17 49.17    -36 11 03.1   384225 1.0185 161.7  m  18?  27.80  56.4   48 249   9  99
   2024 07 20 17:00  19 18 08.49    -36 08 28.5   384302 1.0185 161.8  m  18?  28.28  56.4   46 248   9  99
   2024 07 20 17:10  19 18 28.16    -36 05 51.6   384384 1.0185 161.8  m  18?  28.77  56.5   44 248   9  99
   2024 07 20 17:20  19 18 48.17    -36 03 12.5   384469 1.0185 161.9  m  18?  29.26  56.6   42 247   9  99
   2024 07 20 17:30  19 19 08.55    -36 00 31.3   384560 1.0185 162.0  m  18?  29.76  56.8   40 247   9  99
   2024 07 20 17:40  19 19 29.30    -35 57 48.0   384653 1.0185 162.0  m  18?  30.26  57.0   38 246   9  99
   2024 07 20 17:50  19 19 50.42    -35 55 02.9   384751 1.0185 162.1  m  18?  30.76  57.2   36 246   9  99
   2024 07 20 18:00  19 20 11.93    -35 52 16.1   384852 1.0185 162.2  m  18?  31.26  57.4   34 245   9  99
   2024 07 20 18:10  19 20 33.83    -35 49 27.6   384956 1.0185 162.3  m  18?  31.76  57.6   32 244   9  99
   2024 07 20 18:20  19 20 56.13    -35 46 37.7   385062 1.0185 162.3  m  18?  32.26  57.9   30 244   9  99
   2024 07 20 18:30  19 21 18.83    -35 43 46.3   385171 1.0185 162.4  m  18?  32.76  58.2   28 243   9  99
   2024 07 20 18:40  19 21 41.93    -35 40 53.7   385283 1.0185 162.5  m  18?  33.26  58.5   27 242   9  99
   2024 07 20 18:50  19 22 05.44    -35 38 00.0   385395 1.0185 162.6  m  18?  33.76  58.8   25 242   9  99
   2024 07 20 19:00  19 22 29.36    -35 35 05.2   385510 1.0185 162.7  m  18?  34.25  59.1   23 241   9  99
   2024 07 20 19:10  19 22 53.70    -35 32 09.7   385625 1.0185 162.7  m  18?  34.74  59.4   21 240   9  99
   2024 07 20 19:20  19 23 18.44    -35 29 13.3   385741 1.0185 162.8  m  18?  35.23  59.7   19 239   9  99
   2024 07 20 19:30  19 23 43.60    -35 26 16.4   385858 1.0185 162.9  m  18?  35.71  60.1   18 239   9  99
   2024 07 20 19:40  19 24 09.18    -35 23 18.9   385975 1.0185 163.0 Am  18?  36.18  60.4   16 238   9  99
   2024 07 20 19:50  19 24 35.16    -35 20 21.1   386092 1.0185 163.1 Am  18?  36.65  60.8   14 237   9  99
   2024 07 20 20:00  19 25 01.55    -35 17 23.0   386208 1.0185 163.2 Am  18?  37.12  61.2   12 236   9  99
   2024 07 20 20:10  19 25 28.35    -35 14 24.9   386323 1.0185 163.2 Nm  18?  37.57  61.5   11 235   9  99
   2024 07 20 20:20  19 25 55.55    -35 11 26.7   386438 1.0185 163.3 Nm  18?  38.02  61.9    9 234   9  99
   2024 07 20 20:30  19 26 23.15    -35 08 28.6   386550 1.0185 163.4 Nm  18?  38.46  62.3    7 233   9  99
   2024 07 20 20:40  19 26 51.14    -35 05 30.8   386661 1.0185 163.5 Cm  18?  38.89  62.7    5 232   9  99
   2024 07 20 20:50  19 27 19.52    -35 02 33.3   386770 1.0185 163.6 Cm  18?  39.31  63.0    4 231   9  99
   ................
   2024 07 21 07:30  20 01 41.35    -32 46 36.8   381344 1.0185 167.6 Cm  18?  34.28  75.2    9 122   8  99
   2024 07 21 07:40  20 02 07.44    -32 45 09.8   381075 1.0185 167.6 Cm  18?  33.78  74.9   10 121   8  99
   2024 07 21 07:50  20 02 33.10    -32 43 42.5   380805 1.0185 167.6 Nm  18?  33.29  74.6   12 120   8  99
   2024 07 21 08:00  20 02 58.34    -32 42 14.6   380534 1.0185 167.7 Nm  18?  32.80  74.3   14 119   8  99
   2024 07 21 08:10  20 03 23.16    -32 40 46.0   380263 1.0185 167.7 Nm  18?  32.31  73.9   16 118   8  99
   2024 07 21 08:20  20 03 47.55    -32 39 16.6   379991 1.0185 167.7 Am  18?  31.83  73.5   17 117   8  99
   2024 07 21 08:30  20 04 11.52    -32 37 46.4   379719 1.0185 167.7 Am  18?  31.35  73.0   19 116   8  99
   2024 07 21 08:40  20 04 35.06    -32 36 15.1   379448 1.0185 167.8 Am  18?  30.87  72.6   21 115   8  99
   2024 07 21 08:50  20 04 58.17    -32 34 42.7   379178 1.0185 167.8  m  18?  30.41  72.0   23 114   8  99
   2024 07 21 09:00  20 05 20.87    -32 33 09.0   378908 1.0185 167.8  m  18?  29.95  71.5   25 114   8  99
   2024 07 21 09:10  20 05 43.14    -32 31 34.0   378640 1.0185 167.8  m  18?  29.51  70.9   27 113   8  99
   2024 07 21 09:20  20 06 05.00    -32 29 57.4   378374 1.0185 167.8  m  18?  29.07  70.3   29 112   8  99
   2024 07 21 09:30  20 06 26.45    -32 28 19.2   378110 1.0185 167.9  m  18?  28.65  69.6   31 111   8  99
   2024 07 21 09:40  20 06 47.49    -32 26 39.3   377849 1.0185 167.9  m  18?  28.24  68.9   32 110   8  99
   2024 07 21 09:50  20 07 08.13    -32 24 57.5   377590 1.0185 167.9  m  18?  27.85  68.2   34 109   8  99
   2024 07 21 10:00  20 07 28.38    -32 23 13.7   377335 1.0185 167.9  m  18?  27.48  67.4   36 109   8  99
   2024 07 21 10:10  20 07 48.24    -32 21 27.8   377083 1.0185 168.0  m  18?  27.12  66.6   38 108   8  99
   2024 07 21 10:20  20 08 07.72    -32 19 39.8   376834 1.0185 168.0  m  18?  26.78  65.8   40 107   8  99
   2024 07 21 10:30  20 08 26.83    -32 17 49.5   376590 1.0185 168.0  m  18?  26.46  64.9   42 106   8  99
   2024 07 21 10:40  20 08 45.58    -32 15 56.7   376350 1.0185 168.0  m  18?  26.17  64.0   44 106   8  99
   2024 07 21 10:50  20 09 03.97    -32 14 01.4   376115 1.0185 168.1  m  18?  25.90  63.1   46 105   8  99
   2024 07 21 11:00  20 09 22.03    -32 12 03.6   375884 1.0185 168.1  m  18?  25.65  62.2   48 104   8  99
   2024 07 21 11:10  20 09 39.76    -32 10 03.0   375659 1.0185 168.1  m  18?  25.42  61.2   50 103   8  99
   2024 07 21 11:20  20 09 57.17    -32 07 59.7   375439 1.0185 168.1  m  18?  25.22  60.2   52 103   7  99
   2024 07 21 11:30  20 10 14.28    -32 05 53.4   375225 1.0185 168.2  m  18?  25.05  59.2   54 102   7  99
   2024 07 21 11:40  20 10 31.09    -32 03 44.2   375018 1.0185 168.2  m  18?  24.90  58.2   56 101   7  99
   2024 07 21 11:50  20 10 47.63    -32 01 32.0   374816 1.0185 168.2  m  18?  24.78  57.2   58 101   7  99
   2024 07 21 12:00  20 11 03.91    -31 59 16.6   374621 1.0185 168.2  m  18?  24.69  56.2   60 100   7  99
   2024 07 21 12:10  20 11 19.93    -31 56 58.1   374432 1.0185 168.3  m  18?  24.62  55.2   62  99   7  99
   2024 07 21 12:20  20 11 35.72    -31 54 36.3   374250 1.0185 168.3  m  18?  24.59  54.2   64  99   7  99
   2024 07 21 12:30  20 11 51.30    -31 52 11.1   374076 1.0185 168.3  m  18?  24.58  53.2   67  98   7  99
   2024 07 21 12:40  20 12 06.67    -31 49 42.6   373909 1.0185 168.4  m  18?  24.59  52.2   69  97   7  99
   2024 07 21 12:50  20 12 21.86    -31 47 10.7   373749 1.0185 168.4  m  18?  24.64  51.3   71  97   7  99
   2024 07 21 13:00  20 12 36.88    -31 44 35.3   373596 1.0185 168.4  m  18?  24.70  50.4   73  96   7  99
   2024 07 21 13:10  20 12 51.76    -31 41 56.4   373452 1.0185 168.5  m  18?  24.80  49.5   75  95   7  99
   2024 07 21 13:20  20 13 06.49    -31 39 13.9   373315 1.0185 168.5  m  18?  24.92  48.6   77  95   7  99
   2024 07 21 13:30  20 13 21.12    -31 36 27.9   373186 1.0185 168.5  m  18?  25.06  47.8   79  94   7  99
   2024 07 21 13:40  20 13 35.64    -31 33 38.3   373066 1.0185 168.6  m  18?  25.23  47.1   81  94   7  99
   2024 07 21 13:50  20 13 50.09    -31 30 45.0   372953 1.0185 168.6  m  18?  25.42  46.3   83  93   7  99
   2024 07 21 14:00  20 14 04.47    -31 27 48.1   372849 1.0185 168.6  m  18?  25.63  45.7   85  92   7  99
   2024 07 21 14:10  20 14 18.82    -31 24 47.6   372753 1.0185 168.7  m  18?  25.86  45.0   87  92   7  99
   2024 07 21 14:20  20 14 33.13    -31 21 43.5   372665 1.0185 168.7  m  18?  26.11  44.5   89  97   7  99
   2024 07 21 14:30  20 14 47.45    -31 18 35.7   372586 1.0185 168.8  t  18?  26.38  43.9   88 270   7  99
   2024 07 21 14:40  20 15 01.77    -31 15 24.3   372515 1.0185 168.8  m  18?  26.67  43.4   85 270   7  99
   2024 07 21 14:50  20 15 16.13    -31 12 09.2   372452 1.0185 168.8  m  18?  26.98  43.0   83 269   7  99
   2024 07 21 15:00  20 15 30.54    -31 08 50.6   372398 1.0185 168.9  m  18?  27.30  42.6   81 268   7  99
   2024 07 21 15:10  20 15 45.01    -31 05 28.5   372351 1.0185 168.9  m  18?  27.63  42.3   79 268   7  99
   2024 07 21 15:20  20 15 59.57    -31 02 02.8   372313 1.0185 169.0  m  18?  27.98  42.0   77 267   7  99
   2024 07 21 15:30  20 16 14.24    -30 58 33.6   372284 1.0185 169.0  m  18?  28.34  41.8   75 267   7  99
   2024 07 21 15:40  20 16 29.02    -30 55 01.0   372262 1.0185 169.1  m  18?  28.72  41.6   73 266   7  99
   2024 07 21 15:50  20 16 43.94    -30 51 25.0   372248 1.0185 169.1  m  18?  29.10  41.4   71 265   7  99
   2024 07 21 16:00  20 16 59.02    -30 47 45.6   372243 1.0185 169.1  m  18?  29.50  41.3   69 265   7  99
   2024 07 21 16:10  20 17 14.27    -30 44 02.9   372244 1.0185 169.2  m  18?  29.90  41.3   67 264   7  99
   2024 07 21 16:20  20 17 29.71    -30 40 17.1   372254 1.0185 169.2  m  18?  30.32  41.3   64 263   7  99
   2024 07 21 16:30  20 17 45.35    -30 36 28.0   372271 1.0185 169.3  m  18?  30.74  41.3   62 263   7  99
   2024 07 21 16:40  20 18 01.21    -30 32 35.9   372295 1.0185 169.3  m  18?  31.17  41.3   60 262   7  99
   2024 07 21 16:50  20 18 17.30    -30 28 40.8   372326 1.0185 169.4  m  18?  31.61  41.4   58 261   7  99
   2024 07 21 17:00  20 18 33.64    -30 24 42.8   372365 1.0185 169.4  m  18?  32.05  41.5   56 261   7  99
   2024 07 21 17:10  20 18 50.25    -30 20 41.9   372409 1.0185 169.5  m  18?  32.50  41.7   54 260   7  99
   2024 07 21 17:20  20 19 07.12    -30 16 38.2   372461 1.0185 169.5  m  18?  32.96  41.8   52 259   7  99
   2024 07 21 17:30  20 19 24.29    -30 12 31.9   372518 1.0185 169.6  m  18?  33.42  42.1   50 259   6  99
   2024 07 21 17:40  20 19 41.75    -30 08 23.0   372582 1.0185 169.6  m  18?  33.88  42.3   48 258   6  99
   2024 07 21 17:50  20 19 59.53    -30 04 11.6   372651 1.0185 169.6  m  18?  34.35  42.5   46 257   6  99
   2024 07 21 18:00  20 20 17.62    -29 59 57.8   372726 1.0185 169.7  m  18?  34.82  42.8   44 257   6  99
   2024 07 21 18:10  20 20 36.05    -29 55 41.7   372806 1.0185 169.7  m  18?  35.30  43.1   42 256   6  99
   2024 07 21 18:20  20 20 54.82    -29 51 23.5   372891 1.0185 169.8  m  18?  35.77  43.4   40 255   6  99
   2024 07 21 18:30  20 21 13.94    -29 47 03.1   372981 1.0185 169.8  m  18?  36.25  43.7   38 254   6  99
   2024 07 21 18:40  20 21 33.41    -29 42 40.8   373074 1.0185 169.9  m  18?  36.73  44.1   36 254   6  99
   2024 07 21 18:50  20 21 53.25    -29 38 16.6   373172 1.0185 169.9  m  18?  37.21  44.4   34 253   6  99
   2024 07 21 19:00  20 22 13.46    -29 33 50.7   373274 1.0185 169.9  m  18?  37.68  44.8   32 252   6  99
   2024 07 21 19:10  20 22 34.05    -29 29 23.1   373379 1.0185 170.0  m  18?  38.16  45.2   30 251   6  99
   2024 07 21 19:20  20 22 55.02    -29 24 53.9   373487 1.0185 170.0  m  18?  38.64  45.6   28 251   6  99
   2024 07 21 19:30  20 23 16.38    -29 20 23.4   373598 1.0185 170.1  m  18?  39.11  46.0   26 250   6  99
   2024 07 21 19:40  20 23 38.12    -29 15 51.4   373711 1.0185 170.1 Am  18?  39.59  46.4   24 249   6  99
   2024 07 21 19:50  20 24 00.26    -29 11 18.3   373826 1.0185 170.1 Am  18?  40.06  46.8   22 248   6  99
   2024 07 21 20:00  20 24 22.79    -29 06 44.1   373943 1.0185 170.2 Am  18?  40.53  47.2   20 247   6  99
   2024 07 21 20:10  20 24 45.72    -29 02 08.8   374061 1.0185 170.2 Nm  18?  40.99  47.6   18 246   6  99
   2024 07 21 20:20  20 25 09.05    -28 57 32.6   374181 1.0185 170.2 Nm  18?  41.45  48.0   16 245   6  99
   2024 07 21 20:30  20 25 32.78    -28 52 55.7   374300 1.0184 170.2 Nm  18?  41.91  48.4   14 244   6  99
   2024 07 21 20:40  20 25 56.90    -28 48 18.0   374421 1.0184 170.3 Cm  18?  42.36  48.9   12 243   6  99
   2024 07 21 20:50  20 26 21.41    -28 43 39.8   374541 1.0184 170.3 Cm  18?  42.80  49.3   10 242   6  99
   ................
   2024 07 22 08:00  21 00 14.24    -23 50 44.9   370231 1.0184 167.2 Nr  18?  44.82  54.0    0 118   3  98
   2024 07 22 08:10  21 00 40.54    -23 46 21.1   369955 1.0184 167.1 Nm  18?  44.58  53.5    1 116   3  98
   2024 07 22 08:20  21 01 06.50    -23 41 55.2   369677 1.0184 167.0 Am  18?  44.35  52.9    3 115   3  98
   2024 07 22 08:30  21 01 32.11    -23 37 27.1   369397 1.0184 166.9 Am  18?  44.13  52.3    5 114   3  98
   2024 07 22 08:40  21 01 57.37    -23 32 56.4   369116 1.0184 166.9 Am  18?  43.93  51.7    7 113   3  98
   2024 07 22 08:50  21 02 22.30    -23 28 23.2   368835 1.0184 166.8  m  18?  43.75  51.0    8 112   3  98
   2024 07 22 09:00  21 02 46.88    -23 23 47.2   368552 1.0184 166.7  m  18?  43.58  50.4   10 110   3  98
   2024 07 22 09:10  21 03 11.13    -23 19 08.3   368270 1.0183 166.7  m  18?  43.43  49.7   12 109   3  98
   2024 07 22 09:20  21 03 35.04    -23 14 26.3   367988 1.0183 166.6  m  18?  43.30  49.0   14 108   3  98
   2024 07 22 09:30  21 03 58.61    -23 09 41.0   367707 1.0183 166.5  m  18?  43.20  48.3   16 107   3  98
   2024 07 22 09:40  21 04 21.87    -23 04 52.3   367427 1.0183 166.5  m  18?  43.12  47.5   18 106   3  98
   2024 07 22 09:50  21 04 44.81    -23 00 00.0   367148 1.0183 166.4  m  18?  43.07  46.8   20 105   3  98
   2024 07 22 10:00  21 05 07.44    -22 55 03.8   366871 1.0183 166.3  m  18?  43.05  46.1   22 103   3  98
   2024 07 22 10:10  21 05 29.77    -22 50 03.7   366596 1.0183 166.3  m  18?  43.06  45.3   24 102   3  98
   2024 07 22 10:20  21 05 51.81    -22 44 59.3   366324 1.0183 166.2  m  18?  43.10  44.6   26 101   3  98
   2024 07 22 10:30  21 06 13.57    -22 39 50.6   366055 1.0183 166.1  m  18?  43.17  43.8   28 100   2  98
   2024 07 22 10:40  21 06 35.07    -22 34 37.3   365789 1.0183 166.1  m  18?  43.28  43.1   30  99   2  98
   2024 07 22 10:50  21 06 56.32    -22 29 19.1   365527 1.0183 166.0  m  18?  43.42  42.3   32  98   2  98
   2024 07 22 11:00  21 07 17.34    -22 23 56.0   365269 1.0183 165.9  m  18?  43.61  41.6   34  97   2  98
   2024 07 22 11:10  21 07 38.14    -22 18 27.6   365016 1.0183 165.9  m  18?  43.84  40.8   36  95   2  98
   2024 07 22 11:20  21 07 58.75    -22 12 53.8   364767 1.0183 165.8  m  18?  44.11  40.1   38  94   2  98
   2024 07 22 11:30  21 08 19.19    -22 07 14.2   364524 1.0183 165.7  m  18?  44.42  39.5   40  93   2  98
   2024 07 22 11:40  21 08 39.48    -22 01 28.7   364287 1.0183 165.7  m  18?  44.78  38.8   42  92   2  98
   2024 07 22 11:50  21 08 59.64    -21 55 37.0   364055 1.0183 165.6  m  18?  45.20  38.2   44  90   2  98
   2024 07 22 12:00  21 09 19.72    -21 49 38.9   363829 1.0183 165.5  m  18?  45.67  37.6   46  89   2  98
   2024 07 22 12:10  21 09 39.73    -21 43 33.9   363610 1.0183 165.5  m  18?  46.19  37.0   48  87   2  98
   2024 07 22 12:20  21 09 59.72    -21 37 22.0   363399 1.0183 165.4  m  18?  46.77  36.5   50  86   2  98
   2024 07 22 12:30  21 10 19.73    -21 31 02.7   363194 1.0183 165.3  m  18?  47.42  36.0   52  84   2  98
   2024 07 22 12:40  21 10 39.79    -21 24 35.7   362997 1.0183 165.3  m  18?  48.13  35.6   54  83   2  98
   2024 07 22 12:50  21 10 59.96    -21 18 00.7   362808 1.0183 165.2  m  18?  48.92  35.2   56  81   2  98
   2024 07 22 13:00  21 11 20.30    -21 11 17.4   362627 1.0183 165.1  m  18?  49.79  34.9   58  79   2  98
   2024 07 22 13:10  21 11 40.86    -21 04 25.3   362455 1.0183 165.1  m  18?  50.74  34.7   60  77   2  98
   2024 07 22 13:20  21 12 01.73    -20 57 24.1   362291 1.0183 165.0  m  18?  51.79  34.6   62  74   2  98
   2024 07 22 13:30  21 12 22.98    -20 50 13.4   362137 1.0183 164.9  m  18?  52.95  34.5   64  72   1  98
   2024 07 22 13:40  21 12 44.70    -20 42 52.8   361992 1.0183 164.8  m  18?  54.22  34.6   66  69   1  98
   2024 07 22 13:50  21 13 07.03    -20 35 21.8   361857 1.0183 164.8  m  18?  55.63  34.8   68  65   1  97
   2024 07 22 14:00  21 13 30.09    -20 27 40.2   361732 1.0183 164.7  m  18?  57.19  35.1   69  61   1  97
   2024 07 22 14:10  21 13 54.04    -20 19 47.6   361617 1.0183 164.6  m  18?  58.91  35.6   71  57   1  97
   2024 07 22 14:20  21 14 19.09    -20 11 43.8   361513 1.0183 164.5  m  18?  60.83  36.4   73  51   1  97
   2024 07 22 14:30  21 14 45.48    -20 03 29.0   361421 1.0183 164.4  m  18?  62.97  37.3   74  45   1  97
   2024 07 22 14:40  21 15 13.52    -19 55 03.8   361340 1.0183 164.3  m  18?  65.36  38.6   75  38   1  97
   2024 07 22 14:50  21 15 43.58    -19 46 29.6   361271 1.0183 164.1  m  18?  68.01  40.3   76  29   1  97
   2024 07 22 15:00  21 16 16.13    -19 37 49.1   361216 1.0183 164.0  m  18?  70.92  42.5   77  20   1  97
   2024 07 22 15:10  21 16 51.71    -19 29 07.5   361174 1.0183 163.9  m  18?  74.04  45.3   77   9   1  97
   2024 07 22 15:20  21 17 30.92    -19 20 33.7   361147 1.0183 163.7  t  18?  77.19  49.0   77 359   1  97
   2024 07 22 15:30  21 18 14.26    -19 12 21.8   361137 1.0183 163.5  m  18?  80.05  53.5   77 348   1  97
   2024 07 22 15:40  21 19 01.89    -19 04 51.6   361143 1.0183 163.3  m  18?  82.06  59.0   76 339   1  97
   2024 07 22 15:50  21 19 53.25    -18 58 25.4   361168 1.0183 163.1  m  18?  82.62  65.0   76 330   1  97
   2024 07 22 16:00  21 20 46.97    -18 53 19.5   361210 1.0183 162.9  m  18?  81.44  71.0   74 323   1  97
   2024 07 22 16:10  21 21 41.26    -18 49 37.2   361268 1.0183 162.7  m  18?  78.84  76.5   73 317   1  97
   2024 07 22 16:20  21 22 34.59    -18 47 08.8   361341 1.0183 162.5  m  18?  75.45  81.0   72 311   1  97
   2024 07 22 16:30  21 23 26.05    -18 45 38.3   361425 1.0183 162.3  m  18?  71.87  84.6   70 306   1  97
   2024 07 22 16:40  21 24 15.32    -18 44 50.1   361521 1.0182 162.1  m  18?  68.46  87.3   69 302   1  97
   2024 07 22 16:50  21 25 02.39    -18 44 31.4   361627 1.0182 161.9  m  18?  65.38  89.3   67 298   1  97
   2024 07 22 17:00  21 25 47.43    -18 44 32.7   361743 1.0182 161.8  m  18?  62.66  90.7   65 295   1  97
   2024 07 22 17:10  21 26 30.67    -18 44 47.5   361868 1.0182 161.6  m  18?  60.29  91.8   63 292   1  97
   2024 07 22 17:20  21 27 12.34    -18 45 11.0   362001 1.0182 161.4  m  18?  58.23  92.5   61 290   1  97
   2024 07 22 17:30  21 27 52.65    -18 45 39.9   362143 1.0182 161.3  m  18?  56.46  93.0   59 287   1  97
   2024 07 22 17:40  21 28 31.79    -18 46 12.0   362294 1.0182 161.1  m  18?  54.93  93.3   58 285   1  97
   2024 07 22 17:50  21 29 09.91    -18 46 45.6   362452 1.0182 161.0  m  17?  53.60  93.5   56 283   1  97
   2024 07 22 18:00  21 29 47.17    -18 47 19.4   362619 1.0182 160.9  m  17?  52.46  93.6   54 281   1  97
   2024 07 22 18:10  21 30 23.69    -18 47 52.7   362793 1.0182 160.7  m  17?  51.48  93.6   52 279   1  97
   2024 07 22 18:20  21 30 59.57    -18 48 24.9   362974 1.0182 160.6  m  17?  50.64  93.5   50 278   1  97
   2024 07 22 18:30  21 31 34.91    -18 48 55.4   363162 1.0182 160.5  m  17?  49.92  93.3   48 276   2  97
   2024 07 22 18:40  21 32 09.79    -18 49 23.9   363358 1.0182 160.3  m  17?  49.31  93.1   46 275   2  97
   2024 07 22 18:50  21 32 44.29    -18 49 50.3   363559 1.0182 160.2  m  17?  48.80  92.9   44 273   2  97
   2024 07 22 19:00  21 33 18.46    -18 50 14.5   363767 1.0182 160.1  m  17?  48.37  92.6   42 272   2  97
   2024 07 22 19:10  21 33 52.38    -18 50 36.2   363981 1.0182 160.0  m  17?  48.02  92.3   40 271   2  97
   2024 07 22 19:20  21 34 26.07    -18 50 55.5   364201 1.0182 159.8  m  17?  47.74  92.1   38 269   2  97
   2024 07 22 19:30  21 34 59.61    -18 51 12.3   364426 1.0182 159.7  m  17?  47.53  91.8   36 268   2  97
   2024 07 22 19:40  21 35 33.01    -18 51 26.6   364656 1.0182 159.6 Am  17?  47.37  91.5   34 267   2  97
   2024 07 22 19:50  21 36 06.33    -18 51 38.5   364891 1.0182 159.5 Am  17?  47.26  91.2   32 266   2  97
   2024 07 22 20:00  21 36 39.59    -18 51 48.0   365131 1.0182 159.3 Am  17?  47.20  90.9   30 265   2  97
   2024 07 22 20:10  21 37 12.83    -18 51 55.2   365374 1.0182 159.2 Nm  17?  47.18  90.6   28 264   2  97
   2024 07 22 20:20  21 37 46.06    -18 52 00.0   365621 1.0182 159.1 Nm  17?  47.19  90.4   26 262   2  97
   2024 07 22 20:30  21 38 19.33    -18 52 02.7   365871 1.0182 159.0 Nm  17?  47.25  90.1   24 261   2  97
   2024 07 22 20:40  21 38 52.64    -18 52 03.2   366125 1.0182 158.8 Cm  17?  47.33  89.8   22 260   2  97
   2024 07 22 20:50  21 39 26.03    -18 52 01.7   366381 1.0182 158.7 Cm  17?  47.44  89.6   20 259   2  97
   ................
   2024 07 23 09:40  22 25 10.66    -18 35 01.5   372698 1.0180 148.4  m  17?  41.08  89.6    0 111   6  94
   2024 07 23 09:50  22 25 39.34    -18 34 59.1   372541 1.0180 148.3  m  17?  40.49  89.6    2 110   6  94
   2024 07 23 10:00  22 26 07.60    -18 34 56.2   372383 1.0180 148.2  m  17?  39.89  89.5    4 108   6  94
   2024 07 23 10:10  22 26 35.45    -18 34 52.9   372224 1.0180 148.1  m  17?  39.30  89.4    6 107   6  94
   2024 07 23 10:20  22 27 02.88    -18 34 49.0   372065 1.0180 148.0  m  17?  38.70  89.3    8 106   6  94
   2024 07 23 10:30  22 27 29.89    -18 34 44.5   371905 1.0180 147.9  m  17?  38.10  89.2   10 105   6  94
   2024 07 23 10:40  22 27 56.47    -18 34 39.3   371745 1.0180 147.8  m  17?  37.51  89.1   12 104   6  94
   2024 07 23 10:50  22 28 22.64    -18 34 33.4   371586 1.0180 147.7  m  17?  36.91  89.0   14 103   6  93
   2024 07 23 11:00  22 28 48.38    -18 34 26.6   371427 1.0180 147.6  m  17?  36.32  88.8   16 102   6  93
   2024 07 23 11:10  22 29 13.71    -18 34 18.9   371270 1.0180 147.5  m  17?  35.73  88.6   18 100   6  93
   2024 07 23 11:20  22 29 38.63    -18 34 10.3   371115 1.0180 147.5  m  17?  35.14  88.5   20  99   6  93
   2024 07 23 11:30  22 30 03.13    -18 34 00.7   370961 1.0180 147.4  m  17?  34.56  88.3   22  98   6  93
   2024 07 23 11:40  22 30 27.22    -18 33 49.9   370810 1.0180 147.3  m  17?  33.99  88.0   24  97   6  93
   2024 07 23 11:50  22 30 50.91    -18 33 38.1   370662 1.0180 147.2  m  17?  33.42  87.8   26  96   6  93
   2024 07 23 12:00  22 31 14.20    -18 33 24.9   370516 1.0180 147.1  m  17?  32.87  87.5   28  95   6  93
   2024 07 23 12:10  22 31 37.10    -18 33 10.6   370374 1.0180 147.0  m  17?  32.32  87.3   30  94   6  93
   2024 07 23 12:20  22 31 59.61    -18 32 54.8   370236 1.0180 146.9  m  17?  31.78  87.0   32  92   6  93
   2024 07 23 12:30  22 32 21.74    -18 32 37.7   370102 1.0180 146.9  m  17?  31.26  86.7   34  91   6  93
   2024 07 23 12:40  22 32 43.50    -18 32 19.1   369973 1.0180 146.8  m  17?  30.75  86.3   36  90   6  93
   2024 07 23 12:50  22 33 04.90    -18 31 58.9   369848 1.0180 146.7  m  17?  30.25  86.0   38  89   6  93
   2024 07 23 13:00  22 33 25.94    -18 31 37.2   369729 1.0179 146.6  m  17?  29.76  85.6   40  87   6  93
   2024 07 23 13:10  22 33 46.63    -18 31 13.9   369615 1.0179 146.5  m  17?  29.29  85.2   42  86   6  93
   2024 07 23 13:20  22 34 06.99    -18 30 48.8   369507 1.0179 146.5  m  17?  28.84  84.8   44  85   6  93
   2024 07 23 13:30  22 34 27.03    -18 30 22.0   369405 1.0179 146.4  m  17?  28.41  84.3   46  83   6  93
   2024 07 23 13:40  22 34 46.75    -18 29 53.4   369309 1.0179 146.3  m  17?  27.99  83.9   49  82   6  93
   2024 07 23 13:50  22 35 06.17    -18 29 23.0   369220 1.0179 146.3  m  17?  27.60  83.4   51  80   6  93
   2024 07 23 14:00  22 35 25.30    -18 28 50.7   369138 1.0179 146.2  m  17?  27.22  82.9   53  78   6  93
   2024 07 23 14:10  22 35 44.16    -18 28 16.4   369063 1.0179 146.1  m  17?  26.87  82.4   55  76   7  93
   2024 07 23 14:20  22 36 02.75    -18 27 40.2   368995 1.0179 146.1  m  17?  26.53  81.9   57  74   7  93
   2024 07 23 14:30  22 36 21.09    -18 27 02.0   368935 1.0179 146.0  m  17?  26.22  81.3   59  72   7  93
   2024 07 23 14:40  22 36 39.19    -18 26 21.7   368883 1.0179 145.9  m  17?  25.93  80.8   61  70   7  93
   2024 07 23 14:50  22 36 57.08    -18 25 39.4   368839 1.0179 145.9  m  17?  25.67  80.2   63  67   7  93
   2024 07 23 15:00  22 37 14.75    -18 24 55.0   368803 1.0179 145.8  m  17?  25.43  79.6   64  64   7  93
   2024 07 23 15:10  22 37 32.24    -18 24 08.4   368776 1.0179 145.7  m  17?  25.21  79.1   66  61   7  93
   2024 07 23 15:20  22 37 49.55    -18 23 19.7   368757 1.0179 145.7  m  17?  25.02  78.5   68  57   7  93
   2024 07 23 15:30  22 38 06.70    -18 22 28.8   368747 1.0179 145.6  m  17?  24.86  77.9   70  52   7  93
   2024 07 23 15:40  22 38 23.70    -18 21 35.7   368745 1.0179 145.5  m  17?  24.72  77.3   71  47   7  93
   2024 07 23 15:50  22 38 40.58    -18 20 40.4   368753 1.0179 145.5  m  17?  24.60  76.7   73  41   7  93
   2024 07 23 16:00  22 38 57.35    -18 19 42.9   368769 1.0179 145.4  m  17?  24.51  76.1   74  34   7  93
   2024 07 23 16:10  22 39 14.02    -18 18 43.3   368795 1.0179 145.4  m  17?  24.45  75.5   75  26   7  93
   2024 07 23 16:20  22 39 30.61    -18 17 41.3   368829 1.0179 145.3  m  17?  24.41  75.0   76  17   7  93
   2024 07 23 16:30  22 39 47.14    -18 16 37.2   368873 1.0179 145.2  m  17?  24.40  74.4   76   7   7  92
   2024 07 23 16:40  22 40 03.62    -18 15 30.9   368926 1.0179 145.2  t  17?  24.41  73.9   76 357   7  92
   2024 07 23 16:50  22 40 20.08    -18 14 22.4   368989 1.0179 145.1  m  17?  24.45  73.4   76 347   7  92
   2024 07 23 17:00  22 40 36.53    -18 13 11.6   369060 1.0179 145.1  m  17?  24.51  72.9   75 338   7  92
   2024 07 23 17:10  22 40 52.98    -18 11 58.7   369141 1.0179 145.0  m  17?  24.59  72.4   74 329   7  92
   2024 07 23 17:20  22 41 09.45    -18 10 43.7   369231 1.0179 144.9  m  17?  24.70  72.0   73 322   7  92
   2024 07 23 17:30  22 41 25.96    -18 09 26.5   369330 1.0179 144.9  m  17?  24.83  71.6   72 315   7  92
   2024 07 23 17:40  22 41 42.53    -18 08 07.2   369438 1.0179 144.8  m  17?  24.99  71.2   70 310   7  92
   2024 07 23 17:50  22 41 59.16    -18 06 45.8   369554 1.0179 144.7  m  17?  25.16  70.8   69 305   7  92
   2024 07 23 18:00  22 42 15.89    -18 05 22.4   369680 1.0179 144.7  m  17?  25.36  70.5   67 301   7  92
   2024 07 23 18:10  22 42 32.71    -18 03 56.9   369814 1.0179 144.6  m  17?  25.58  70.2   65 297   7  92
   2024 07 23 18:20  22 42 49.66    -18 02 29.5   369957 1.0179 144.6  m  17?  25.82  69.9   63 294   7  92
   2024 07 23 18:30  22 43 06.73    -18 01 00.1   370108 1.0179 144.5  m  17?  26.07  69.7   61 291   7  92
   2024 07 23 18:40  22 43 23.95    -17 59 28.8   370268 1.0179 144.4  m  17?  26.35  69.5   59 289   7  92
   2024 07 23 18:50  22 43 41.34    -17 57 55.6   370435 1.0179 144.4  m  17?  26.64  69.3   57 287   7  92
   2024 07 23 19:00  22 43 58.90    -17 56 20.7   370611 1.0179 144.3  m  17?  26.95  69.1   55 284   7  92
   2024 07 23 19:10  22 44 16.65    -17 54 44.0   370793 1.0179 144.2  m  17?  27.28  69.0   53 283   7  92
   2024 07 23 19:20  22 44 34.60    -17 53 05.6   370984 1.0178 144.2  m  17?  27.62  68.9   51 281   7  92
   2024 07 23 19:30  22 44 52.77    -17 51 25.5   371181 1.0178 144.1  m  17?  27.98  68.8   49 279   7  92
   2024 07 23 19:40  22 45 11.16    -17 49 43.9   371385 1.0178 144.0 Am  17?  28.35  68.8   47 277   7  92
   2024 07 23 19:50  22 45 29.79    -17 48 00.7   371596 1.0178 143.9 Am  17?  28.73  68.7   45 276   7  92
   2024 07 23 20:00  22 45 48.67    -17 46 16.0   371813 1.0178 143.9 Am  17?  29.12  68.7   43 275   8  92
   2024 07 23 20:10  22 46 07.81    -17 44 30.0   372036 1.0178 143.8 Nm  17?  29.53  68.8   41 273   8  92
   2024 07 23 20:20  22 46 27.21    -17 42 42.5   372265 1.0178 143.7 Nm  17?  29.95  68.8   39 272   8  92
   2024 07 23 20:30  22 46 46.90    -17 40 53.8   372499 1.0178 143.6 Nm  17?  30.37  68.8   37 271   8  92
   2024 07 23 20:40  22 47 06.87    -17 39 03.9   372738 1.0178 143.6 Cm  17?  30.81  68.9   35 269   8  92
   2024 07 23 20:50  22 47 27.14    -17 37 12.9   372983 1.0178 143.5 Cm  17?  31.25  69.0   33 268   8  92
   ................
   2024 07 24 10:50  23 26 41.88    -15 17 15.9   380414 1.0176 134.3  m  17?  34.76  77.4    1 106   9  87
   2024 07 24 11:00  23 27 05.13    -15 16 00.4   380239 1.0176 134.3  m  17?  34.22  77.2    3 105   9  87
   2024 07 24 11:10  23 27 28.01    -15 14 44.7   380062 1.0176 134.2  m  17?  33.69  77.0    5 104   9  87
   2024 07 24 11:20  23 27 50.49    -15 13 28.6   379885 1.0176 134.1  m  17?  33.15  76.7    7 103   9  87
   2024 07 24 11:30  23 28 12.59    -15 12 12.1   379708 1.0176 134.0  m  17?  32.62  76.4    9 102   9  86
   2024 07 24 11:40  23 28 34.30    -15 10 55.1   379531 1.0176 133.9  m  17?  32.09  76.1   11 100   9  86
   2024 07 24 11:50  23 28 55.63    -15 09 37.7   379354 1.0176 133.8  m  17?  31.56  75.7   13  99   9  86
   2024 07 24 12:00  23 29 16.56    -15 08 19.7   379179 1.0176 133.8  m  17?  31.04  75.4   15  98   9  86
   2024 07 24 12:10  23 29 37.12    -15 07 01.1   379004 1.0176 133.7  m  17?  30.53  75.0   17  97   9  86
   2024 07 24 12:20  23 29 57.29    -15 05 41.8   378831 1.0175 133.6  m  17?  30.02  74.6   19  96   9  86
   2024 07 24 12:30  23 30 17.08    -15 04 21.7   378661 1.0175 133.5  m  17?  29.51  74.2   21  94   9  86
   2024 07 24 12:40  23 30 36.50    -15 03 01.0   378493 1.0175 133.4  m  17?  29.02  73.7   23  93   9  86
   2024 07 24 12:50  23 30 55.55    -15 01 39.3   378327 1.0175 133.4  m  17?  28.54  73.3   25  92   9  86
   2024 07 24 13:00  23 31 14.24    -15 00 16.8   378165 1.0175 133.3  m  17?  28.06  72.8   27  91   9  86
   2024 07 24 13:10  23 31 32.56    -14 58 53.3   378007 1.0175 133.2  m  17?  27.60  72.3   29  89   9  86
   2024 07 24 13:20  23 31 50.53    -14 57 28.9   377852 1.0175 133.2  m  17?  27.15  71.7   31  88   9  86
   2024 07 24 13:30  23 32 08.15    -14 56 03.4   377702 1.0175 133.1  m  17?  26.72  71.2   33  87   9  86
   2024 07 24 13:40  23 32 25.44    -14 54 36.8   377557 1.0175 133.0  m  17?  26.30  70.6   35  85   9  86
   2024 07 24 13:50  23 32 42.39    -14 53 09.1   377416 1.0175 133.0  m  17?  25.90  70.0   38  84   9  86
   2024 07 24 14:00  23 32 59.03    -14 51 40.2   377281 1.0175 132.9  m  17?  25.51  69.4   40  82   9  86
   2024 07 24 14:10  23 33 15.35    -14 50 10.1   377152 1.0175 132.8  m  17?  25.14  68.8   42  81   9  86
   2024 07 24 14:20  23 33 31.37    -14 48 38.7   377028 1.0175 132.8  m  17?  24.79  68.2   44  79   9  86
   2024 07 24 14:30  23 33 47.09    -14 47 06.0   376911 1.0175 132.7  m  17?  24.45  67.5   46  78   9  86
   2024 07 24 14:40  23 34 02.54    -14 45 32.0   376801 1.0175 132.6  m  17?  24.14  66.9   48  76   9  86
   2024 07 24 14:50  23 34 17.72    -14 43 56.6   376697 1.0175 132.6  m  17?  23.85  66.2   50  74   9  86
   2024 07 24 15:00  23 34 32.64    -14 42 19.8   376601 1.0175 132.5  m  17?  23.58  65.5   52  72  10  86
   2024 07 24 15:10  23 34 47.31    -14 40 41.5   376512 1.0175 132.5  m  17?  23.33  64.9   54  70  10  86
   2024 07 24 15:20  23 35 01.75    -14 39 01.8   376431 1.0175 132.4  m  17?  23.10  64.2   56  67  10  85
   2024 07 24 15:30  23 35 15.98    -14 37 20.6   376358 1.0175 132.4  m  17?  22.89  63.5   58  65  10  85
   2024 07 24 15:40  23 35 30.00    -14 35 37.9   376292 1.0175 132.3  m  17?  22.71  62.9   59  62  10  85
   2024 07 24 15:50  23 35 43.83    -14 33 53.6   376235 1.0175 132.2  m  17?  22.54  62.2   61  59  10  85
   2024 07 24 16:00  23 35 57.48    -14 32 07.8   376187 1.0175 132.2  m  17?  22.41  61.6   63  55  10  85
   2024 07 24 16:10  23 36 10.98    -14 30 20.4   376147 1.0175 132.1  m  17?  22.29  60.9   65  51  10  85
   2024 07 24 16:20  23 36 24.33    -14 28 31.4   376116 1.0175 132.1  m  17?  22.19  60.3   66  47  10  85
   2024 07 24 16:30  23 36 37.54    -14 26 40.8   376095 1.0175 132.0  m  17?  22.12  59.7   68  42  10  85
   2024 07 24 16:40  23 36 50.65    -14 24 48.6   376082 1.0175 132.0  m  17?  22.07  59.2   69  36  10  85
   2024 07 24 16:50  23 37 03.65    -14 22 54.8   376078 1.0175 131.9  m  17?  22.04  58.7   70  30  10  85
   2024 07 24 17:00  23 37 16.57    -14 20 59.4   376084 1.0175 131.9  m  17?  22.04  58.2   71  24  10  85
   2024 07 24 17:10  23 37 29.43    -14 19 02.4   376099 1.0175 131.8  m  17?  22.05  57.7   72  16  10  85
   2024 07 24 17:20  23 37 42.23    -14 17 03.7   376123 1.0175 131.8  m  17?  22.09  57.3   72   9  10  85
   2024 07 24 17:30  23 37 55.00    -14 15 03.5   376157 1.0174 131.7  m  17?  22.15  56.9   72   1  10  85
   2024 07 24 17:40  23 38 07.75    -14 13 01.7   376200 1.0174 131.7  t  17?  22.22  56.5   72 352  10  85
   2024 07 24 17:50  23 38 20.50    -14 10 58.3   376253 1.0174 131.6  m  17?  22.32  56.2   72 345  10  85
   2024 07 24 18:00  23 38 33.26    -14 08 53.3   376315 1.0174 131.6  m  17?  22.44  55.9   71 337  10  85
   2024 07 24 18:10  23 38 46.06    -14 06 46.8   376387 1.0174 131.5  m  17?  22.57  55.7   70 331  10  85
   2024 07 24 18:20  23 38 58.90    -14 04 38.7   376468 1.0174 131.5  m  17?  22.73  55.5   69 324  10  85
   2024 07 24 18:30  23 39 11.80    -14 02 29.1   376558 1.0174 131.4  m  17?  22.90  55.3   68 319  10  85
   2024 07 24 18:40  23 39 24.78    -14 00 18.1   376657 1.0174 131.4  m  17?  23.09  55.2   66 314  10  85
   2024 07 24 18:50  23 39 37.85    -13 58 05.6   376765 1.0174 131.3  m  17?  23.29  55.1   65 310  10  85
   2024 07 24 19:00  23 39 51.04    -13 55 51.6   376883 1.0174 131.3  m  17?  23.52  55.1   63 306  10  85
   2024 07 24 19:10  23 40 04.34    -13 53 36.3   377009 1.0174 131.2  m  17?  23.75  55.0   61 302  10  85
   2024 07 24 19:20  23 40 17.79    -13 51 19.5   377144 1.0174 131.1  m  17?  24.01  55.1   59 299  10  85
   2024 07 24 19:30  23 40 31.38    -13 49 01.5   377287 1.0174 131.1  m  17?  24.28  55.1   58 296  10  85
   2024 07 24 19:40  23 40 45.15    -13 46 42.2   377438 1.0174 131.0 Am  17?  24.56  55.2   56 294  10  84
   2024 07 24 19:50  23 40 59.09    -13 44 21.6   377598 1.0174 131.0 Am  17?  24.86  55.4   54 291  10  84
   2024 07 24 20:00  23 41 13.23    -13 41 59.8   377765 1.0174 130.9 Am  17?  25.17  55.5   52 289  10  84
   2024 07 24 20:10  23 41 27.57    -13 39 36.8   377940 1.0174 130.9 Nm  17?  25.49  55.7   50 287  10  84
   2024 07 24 20:20  23 41 42.13    -13 37 12.7   378123 1.0174 130.8 Nm  17?  25.82  55.9   48 285  10  84
   2024 07 24 20:30  23 41 56.92    -13 34 47.5   378312 1.0174 130.7 Nm  17?  26.17  56.2   46 283  10  84
   2024 07 24 20:40  23 42 11.96    -13 32 21.3   378508 1.0174 130.7 Cm  17?  26.53  56.4   44 282  10  84
   2024 07 24 20:50  23 42 27.24    -13 29 54.1   378711 1.0174 130.6 Cm  17?  26.90  56.7   41 280  10  84
   ................
   2024 07 25 11:50  00 18 43.33    -09 58 51.0   385433 1.0171 121.7  m  17?  32.38  67.5    1 100  10  77
   2024 07 25 12:00  00 19 03.40    -09 56 46.9   385229 1.0171 121.6  m  17?  31.89  67.1    3  99  10  77
   2024 07 25 12:10  00 19 23.09    -09 54 42.5   385024 1.0171 121.5  m  17?  31.41  66.6    5  98  10  77
   2024 07 25 12:20  00 19 42.42    -09 52 37.7   384820 1.0171 121.4  m  17?  30.92  66.2    7  97  10  77
   2024 07 25 12:30  00 20 01.37    -09 50 32.5   384615 1.0171 121.4  m  17?  30.45  65.7    9  95  10  77
   2024 07 25 12:40  00 20 19.96    -09 48 26.9   384411 1.0170 121.3  m  17?  29.97  65.2   11  94  10  77
   2024 07 25 12:50  00 20 38.18    -09 46 20.8   384208 1.0170 121.2  m  17?  29.50  64.7   13  93  10  77
   2024 07 25 13:00  00 20 56.03    -09 44 14.2   384006 1.0170 121.1  m  17?  29.04  64.1   15  92  10  77
   2024 07 25 13:10  00 21 13.52    -09 42 07.0   383807 1.0170 121.1  m  17?  28.59  63.5   17  90  10  77
   2024 07 25 13:20  00 21 30.65    -09 39 59.3   383609 1.0170 121.0  m  17?  28.15  63.0   19  89  10  77
   2024 07 25 13:30  00 21 47.43    -09 37 51.0   383414 1.0170 120.9  m  16?  27.71  62.3   21  88  10  77
   2024 07 25 13:40  00 22 03.85    -09 35 42.0   383222 1.0170 120.9  m  16?  27.29  61.7   23  86  10  77
   2024 07 25 13:50  00 22 19.92    -09 33 32.3   383034 1.0170 120.8  m  16?  26.88  61.1   25  85  10  77
   2024 07 25 14:00  00 22 35.66    -09 31 22.0   382849 1.0170 120.7  m  16?  26.48  60.4   27  84  10  77
   2024 07 25 14:10  00 22 51.06    -09 29 10.9   382669 1.0170 120.7  m  16?  26.09  59.8   29  82  10  77
   2024 07 25 14:20  00 23 06.13    -09 26 59.0   382493 1.0170 120.6  m  16?  25.72  59.1   31  81  10  77
   2024 07 25 14:30  00 23 20.88    -09 24 46.3   382322 1.0170 120.5  m  16?  25.37  58.4   33  79  10  76
   2024 07 25 14:40  00 23 35.32    -09 22 32.8   382157 1.0170 120.5  m  16?  25.03  57.7   35  77  10  76
   2024 07 25 14:50  00 23 49.45    -09 20 18.5   381997 1.0170 120.4  m  16?  24.70  56.9   37  76  10  76
   2024 07 25 15:00  00 24 03.29    -09 18 03.3   381843 1.0170 120.4  m  16?  24.40  56.2   39  74  10  76
   2024 07 25 15:10  00 24 16.85    -09 15 47.2   381695 1.0170 120.3  m  16?  24.11  55.5   41  72  10  76
   2024 07 25 15:20  00 24 30.13    -09 13 30.1   381554 1.0170 120.2  m  16?  23.83  54.8   43  70  10  76
   2024 07 25 15:30  00 24 43.15    -09 11 12.2   381419 1.0170 120.2  m  16?  23.58  54.1   45  68  10  76
   2024 07 25 15:40  00 24 55.92    -09 08 53.3   381292 1.0170 120.1  m  16?  23.35  53.4   47  66  10  76
   2024 07 25 15:50  00 25 08.45    -09 06 33.4   381173 1.0170 120.1  m  16?  23.13  52.7   49  64  10  76
   2024 07 25 16:00  00 25 20.75    -09 04 12.6   381061 1.0170 120.0  m  16?  22.93  52.0   51  61  10  76
   2024 07 25 16:10  00 25 32.84    -09 01 50.7   380957 1.0170 120.0  m  16?  22.76  51.3   53  59  10  76
   2024 07 25 16:20  00 25 44.73    -08 59 27.9   380861 1.0170 119.9  m  16?  22.60  50.6   55  56  10  76
   2024 07 25 16:30  00 25 56.43    -08 57 04.0   380774 1.0170 119.9  m  16?  22.46  50.0   56  53  10  76
   2024 07 25 16:40  00 26 07.95    -08 54 39.1   380695 1.0170 119.8  m  16?  22.34  49.4   58  49  10  76
   2024 07 25 16:50  00 26 19.32    -08 52 13.2   380625 1.0170 119.8  m  16?  22.23  48.8   59  46  10  76
   2024 07 25 17:00  00 26 30.54    -08 49 46.3   380564 1.0170 119.7  m  16?  22.15  48.3   61  42  10  76
   2024 07 25 17:10  00 26 41.63    -08 47 18.3   380512 1.0169 119.7  m  16?  22.09  47.8   62  37  10  76
   2024 07 25 17:20  00 26 52.60    -08 44 49.3   380469 1.0169 119.6  m  16?  22.04  47.3   63  32  10  76
   2024 07 25 17:30  00 27 03.48    -08 42 19.3   380436 1.0169 119.6  m  16?  22.01  46.9   64  27  10  76
   2024 07 25 17:40  00 27 14.27    -08 39 48.2   380412 1.0169 119.5  m  16?  22.00  46.5   65  22  10  76
   2024 07 25 17:50  00 27 24.99    -08 37 16.1   380398 1.0169 119.5  m  16?  22.01  46.1   66  16  10  76
   2024 07 25 18:00  00 27 35.67    -08 34 43.0   380394 1.0169 119.4  m  16?  22.03  45.8   66  10  10  75
   2024 07 25 18:10  00 27 46.30    -08 32 08.9   380399 1.0169 119.4  m  16?  22.07  45.6   67   4  10  75
   2024 07 25 18:20  00 27 56.91    -08 29 33.8   380413 1.0169 119.3  t  16?  22.13  45.3   67 358  10  75
   2024 07 25 18:30  00 28 07.52    -08 26 57.7   380438 1.0169 119.3  m  16?  22.20  45.2   66 351  10  75
   2024 07 25 18:40  00 28 18.14    -08 24 20.7   380472 1.0169 119.2  m  16?  22.29  45.0   66 345  10  75
   2024 07 25 18:50  00 28 28.79    -08 21 42.7   380516 1.0169 119.2  m  16?  22.40  45.0   65 340  10  75
   2024 07 25 19:00  00 28 39.47    -08 19 03.7   380569 1.0169 119.1  m  16?  22.52  44.9   64 334  10  75
   2024 07 25 19:10  00 28 50.22    -08 16 23.8   380632 1.0169 119.1  m  16?  22.65  45.0   63 329  10  75
   2024 07 25 19:20  00 29 01.04    -08 13 43.0   380704 1.0169 119.0  m  16?  22.80  45.0   62 324  10  75
   2024 07 25 19:30  00 29 11.95    -08 11 01.4   380786 1.0169 119.0  m  16?  22.97  45.1   61 320  10  75
   2024 07 25 19:40  00 29 22.96    -08 08 18.9   380877 1.0169 118.9 Am  16?  23.14  45.3   59 316  10  75
   2024 07 25 19:50  00 29 34.09    -08 05 35.5   380977 1.0169 118.9 Am  16?  23.34  45.4   58 312  10  75
   2024 07 25 20:00  00 29 45.36    -08 02 51.3   381086 1.0169 118.8 Am  16?  23.54  45.7   56 309  10  75
   2024 07 25 20:10  00 29 56.77    -08 00 06.4   381204 1.0169 118.8 Nm  16?  23.76  45.9   55 306  10  75
   2024 07 25 20:20  00 30 08.34    -07 57 20.7   381330 1.0169 118.7 Nm  16?  24.00  46.2   53 303  10  75
   2024 07 25 20:30  00 30 20.09    -07 54 34.2   381464 1.0169 118.7 Cm  16?  24.24  46.5   51 300  10  75
   2024 07 25 20:40  00 30 32.03    -07 51 47.1   381607 1.0169 118.6 Cm  16?  24.50  46.9   49 298  10  75
   ................
   2024 07 26 12:50  01 05 28.78    -03 18 49.5   386703 1.0165 109.5  m  16?  31.88  58.2    1  92  10  67
   2024 07 26 13:00  01 05 46.69    -03 16 01.2   386469 1.0165 109.5  m  16?  31.45  57.6    3  91  10  67
   2024 07 26 13:10  01 06 04.24    -03 13 12.4   386236 1.0165 109.4  m  16?  31.02  57.0    5  90  10  66
   2024 07 26 13:20  01 06 21.44    -03 10 23.2   386003 1.0165 109.3  m  16?  30.60  56.4    7  89  10  66
   2024 07 26 13:30  01 06 38.27    -03 07 33.6   385771 1.0165 109.2  m  16?  30.18  55.8    9  87  10  66
   2024 07 26 13:40  01 06 54.76    -03 04 43.5   385541 1.0165 109.2  m  16?  29.77  55.1   11  86  10  66
   2024 07 26 13:50  01 07 10.88    -03 01 53.0   385312 1.0165 109.1  m  16?  29.37  54.5   13  85  10  66
   2024 07 26 14:00  01 07 26.66    -02 59 02.0   385086 1.0165 109.0  m  16?  28.98  53.8   15  83  10  66
   2024 07 26 14:10  01 07 42.10    -02 56 10.6   384862 1.0165 109.0  m  16?  28.59  53.1   17  82  10  66
   2024 07 26 14:20  01 07 57.19    -02 53 18.6   384641 1.0165 108.9  m  16?  28.21  52.4   19  80  10  66
   2024 07 26 14:30  01 08 11.94    -02 50 26.2   384424 1.0164 108.8  m  16?  27.85  51.7   21  79  10  66
   2024 07 26 14:40  01 08 26.36    -02 47 33.3   384211 1.0164 108.8  m  16?  27.50  51.0   23  77  10  66
   2024 07 26 14:50  01 08 40.45    -02 44 39.9   384002 1.0164 108.7  m  16?  27.15  50.3   25  76  10  66
   2024 07 26 15:00  01 08 54.23    -02 41 46.0   383797 1.0164 108.6  m  16?  26.83  49.6   27  74  10  66
   2024 07 26 15:10  01 09 07.69    -02 38 51.6   383598 1.0164 108.6  m  16?  26.51  48.8   29  73  10  66
   2024 07 26 15:20  01 09 20.85    -02 35 56.6   383403 1.0164 108.5  m  16?  26.21  48.1   31  71  10  66
   2024 07 26 15:30  01 09 33.71    -02 33 01.2   383215 1.0164 108.4  m  16?  25.92  47.4   33  69  10  66
   2024 07 26 15:40  01 09 46.29    -02 30 05.3   383032 1.0164 108.4  m  16?  25.65  46.6   35  67  10  65
   2024 07 26 15:50  01 09 58.58    -02 27 08.8   382856 1.0164 108.3  m  16?  25.39  45.9   37  65  10  65
   2024 07 26 16:00  01 10 10.61    -02 24 11.9   382687 1.0164 108.3  m  16?  25.14  45.2   39  63  10  65
   2024 07 26 16:10  01 10 22.39    -02 21 14.4   382524 1.0164 108.2  m  16?  24.91  44.5   41  61  10  65
   2024 07 26 16:20  01 10 33.92    -02 18 16.4   382369 1.0164 108.2  m  16?  24.70  43.9   43  59  10  65
   2024 07 26 16:30  01 10 45.21    -02 15 18.0   382221 1.0164 108.1  m  16?  24.50  43.2   44  57  10  65
   2024 07 26 16:40  01 10 56.28    -02 12 19.0   382081 1.0164 108.0  m  16?  24.32  42.6   46  54  10  65
   2024 07 26 16:50  01 11 07.15    -02 09 19.6   381950 1.0164 108.0  m  16?  24.15  42.0   48  51  10  65
   2024 07 26 17:00  01 11 17.81    -02 06 19.7   381826 1.0164 107.9  m  16?  24.00  41.4   49  49  10  65
   2024 07 26 17:10  01 11 28.30    -02 03 19.3   381711 1.0164 107.9  m  16?  23.86  40.8   51  45  10  65
   2024 07 26 17:20  01 11 38.61    -02 00 18.4   381605 1.0164 107.8  m  16?  23.74  40.3   52  42  10  65
   2024 07 26 17:30  01 11 48.77    -01 57 17.1   381508 1.0164 107.8  m  16?  23.63  39.8   54  39  10  65
   2024 07 26 17:40  01 11 58.79    -01 54 15.3   381420 1.0164 107.7  m  16?  23.53  39.4   55  35  10  65
   2024 07 26 17:50  01 12 08.69    -01 51 13.1   381341 1.0164 107.7  m  16?  23.46  39.0   56  31  10  65
   2024 07 26 18:00  01 12 18.47    -01 48 10.5   381271 1.0164 107.6  m  16?  23.39  38.6   57  27  10  65
   2024 07 26 18:10  01 12 28.15    -01 45 07.4   381212 1.0164 107.6  m  16?  23.34  38.3   58  23  10  65
   2024 07 26 18:20  01 12 37.76    -01 42 03.9   381161 1.0164 107.5  m  16?  23.31  38.0   58  18  10  65
   2024 07 26 18:30  01 12 47.30    -01 39 00.1   381120 1.0163 107.5  m  16?  23.28  37.8   59  13  10  65
   2024 07 26 18:40  01 12 56.79    -01 35 55.8   381090 1.0163 107.4  m  16?  23.28  37.6   59   9  10  65
   2024 07 26 18:50  01 13 06.24    -01 32 51.2   381068 1.0163 107.4  m  16?  23.28  37.5   60   4  10  64
   2024 07 26 19:00  01 13 15.68    -01 29 46.3   381057 1.0163 107.4  t  16?  23.30  37.4   60 359  10  64
   2024 07 26 19:10  01 13 25.11    -01 26 41.0   381056 1.0163 107.3  m  16?  23.33  37.4   59 354  10  64
   2024 07 26 19:20  01 13 34.56    -01 23 35.4   381064 1.0163 107.3  m  16?  23.37  37.4   59 349  10  64
   2024 07 26 19:30  01 13 44.04    -01 20 29.4   381082 1.0163 107.2  m  16?  23.43  37.5   59 344  10  64
   2024 07 26 19:40  01 13 53.56    -01 17 23.2   381110 1.0163 107.2 Am  16?  23.50  37.6   58 340  10  64
   2024 07 26 19:50  01 14 03.14    -01 14 16.7   381148 1.0163 107.1 Am  16?  23.59  37.7   57 335  10  64
   2024 07 26 20:00  01 14 12.80    -01 11 09.9   381195 1.0163 107.1 Nm  16?  23.69  37.9   56 331  10  64
   2024 07 26 20:10  01 14 22.55    -01 08 02.9   381252 1.0163 107.0 Nm  16?  23.80  38.2   55 327  10  64
   2024 07 26 20:20  01 14 32.41    -01 04 55.6   381318 1.0163 107.0 Nm  16?  23.92  38.5   54 323  10  64
   2024 07 26 20:30  01 14 42.38    -01 01 48.1   381393 1.0163 106.9 Cm  16?  24.06  38.8   52 320  10  64
   2024 07 26 20:40  01 14 52.49    -00 58 40.4   381477 1.0163 106.9 Cm  16?  24.21  39.2   51 317  10  64
   ................
   2024 07 27 13:50  01 49 46.98    +04 40 04.0   384135 1.0159  97.4  m  16?  33.62  49.0    1  83   8  55
   2024 07 27 14:00  01 50 03.76    +04 43 45.0   383879 1.0159  97.3  m  16?  33.26  48.4    3  82   8  55
   2024 07 27 14:10  01 50 20.20    +04 47 26.5   383624 1.0158  97.3  m  16?  32.90  47.7    5  80   8  55
   2024 07 27 14:20  01 50 36.28    +04 51 08.5   383370 1.0158  97.2  m  16?  32.55  47.0    7  79   8  55
   2024 07 27 14:30  01 50 52.01    +04 54 50.9   383119 1.0158  97.1  m  16?  32.20  46.3    9  78   8  55
   2024 07 27 14:40  01 51 07.40    +04 58 33.8   382869 1.0158  97.0  m  16?  31.86  45.6   11  76   8  55
   2024 07 27 14:50  01 51 22.45    +05 02 17.1   382623 1.0158  97.0  m  16?  31.52  44.9   13  75   8  55
   2024 07 27 15:00  01 51 37.16    +05 06 00.9   382380 1.0158  96.9  m  16?  31.20  44.2   15  73   8  54
   2024 07 27 15:10  01 51 51.54    +05 09 44.9   382140 1.0158  96.8  m  16?  30.88  43.5   17  72   8  54
   2024 07 27 15:20  01 52 05.58    +05 13 29.4   381904 1.0158  96.7  m  16?  30.57  42.8   19  70   8  54
   2024 07 27 15:30  01 52 19.31    +05 17 14.2   381672 1.0158  96.7  m  16?  30.27  42.1   21  69   8  54
   2024 07 27 15:40  01 52 32.72    +05 20 59.2   381446 1.0158  96.6  m  16?  29.98  41.4   23  67   8  54
   2024 07 27 15:50  01 52 45.82    +05 24 44.6   381224 1.0158  96.5  m  16?  29.70  40.7   25  65   8  54
   2024 07 27 16:00  01 52 58.62    +05 28 30.2   381007 1.0158  96.5  m  16?  29.43  40.0   26  64   8  54
   2024 07 27 16:10  01 53 11.12    +05 32 16.0   380797 1.0158  96.4  m  16?  29.17  39.3   28  62   8  54
   2024 07 27 16:20  01 53 23.35    +05 36 02.0   380592 1.0158  96.4  m  16?  28.93  38.6   30  60   8  54
   2024 07 27 16:30  01 53 35.30    +05 39 48.2   380394 1.0158  96.3  m  16?  28.69  38.0   32  58   8  54
   2024 07 27 16:40  01 53 46.98    +05 43 34.5   380203 1.0158  96.2  m  16?  28.46  37.4   34  56   8  54
   2024 07 27 16:50  01 53 58.42    +05 47 21.0   380019 1.0158  96.2  m  16?  28.25  36.8   35  54   8  54
   2024 07 27 17:00  01 54 09.61    +05 51 07.5   379842 1.0158  96.1  m  16?  28.04  36.2   37  51   8  54
   2024 07 27 17:10  01 54 20.57    +05 54 54.1   379673 1.0158  96.1  m  16?  27.85  35.6   38  49   8  54
   2024 07 27 17:20  01 54 31.31    +05 58 40.8   379511 1.0158  96.0  m  16?  27.67  35.1   40  46   8  54
   2024 07 27 17:30  01 54 41.85    +06 02 27.4   379358 1.0158  95.9  m  16?  27.50  34.6   41  44   8  54
   2024 07 27 17:40  01 54 52.19    +06 06 14.0   379213 1.0158  95.9  m  16?  27.34  34.1   43  41   8  53
   2024 07 27 17:50  01 55 02.36    +06 10 00.6   379077 1.0158  95.8  m  16?  27.19  33.6   44  38   8  53
   2024 07 27 18:00  01 55 12.36    +06 13 47.1   378949 1.0157  95.8  m  16?  27.05  33.2   45  35   8  53
   2024 07 27 18:10  01 55 22.21    +06 17 33.5   378831 1.0157  95.7  m  16?  26.92  32.9   46  32   8  53
   2024 07 27 18:20  01 55 31.92    +06 21 19.8   378721 1.0157  95.7  m  16?  26.81  32.5   48  29   8  53
   2024 07 27 18:30  01 55 41.52    +06 25 06.0   378621 1.0157  95.6  m  16?  26.70  32.2   48  25   8  53
   2024 07 27 18:40  01 55 51.00    +06 28 51.9   378530 1.0157  95.6  m  16?  26.61  32.0   49  22   8  53
   2024 07 27 18:50  01 56 00.40    +06 32 37.7   378449 1.0157  95.5  m  16?  26.53  31.8   50  18   8  53
   2024 07 27 19:00  01 56 09.71    +06 36 23.3   378377 1.0157  95.5  m  16?  26.45  31.6   50  14   8  53
   2024 07 27 19:10  01 56 18.97    +06 40 08.6   378315 1.0157  95.4  m  16?  26.39  31.5   51  10   8  53
   2024 07 27 19:20  01 56 28.19    +06 43 53.7   378263 1.0157  95.4  m  16?  26.34  31.4   51   7   8  53
   2024 07 27 19:30  01 56 37.38    +06 47 38.5   378221 1.0157  95.3  m  16?  26.30  31.4   51   3   8  53
   2024 07 27 19:40  01 56 46.55    +06 51 23.1   378188 1.0157  95.3 At  16?  26.27  31.4   51 359   8  53
   2024 07 27 19:50  01 56 55.73    +06 55 07.3   378166 1.0157  95.2 Am  16?  26.25  31.5   51 355   8  53
   2024 07 27 20:00  01 57 04.93    +06 58 51.2   378153 1.0157  95.2 Nm  16?  26.25  31.6   51 351   8  53
   2024 07 27 20:10  01 57 14.16    +07 02 34.8   378149 1.0157  95.1 Nm  16?  26.25  31.7   50 347   7  53
   2024 07 27 20:20  01 57 23.45    +07 06 18.0   378156 1.0157  95.1 Nm  16?  26.27  31.9   50 343   7  53
   2024 07 27 20:30  01 57 32.80    +07 10 00.9   378172 1.0157  95.0 Cm  16?  26.30  32.2   49 340   7  53
   2024 07 27 20:40  01 57 42.24    +07 13 43.4   378198 1.0157  95.0 Cm  16?  26.34  32.5   48 336   7  53
   ................
   

Titan-3C RB (JPL-ID: -102770)

   Date (UTC) HH:MM   RA              Dec         delta   r     elong SM  mag  '/hr    PA   alt  az moo ill
   ---- -- -- -----  -------------   -----------  ------ ------ ----- --  --- ------ ------ --- --- --- ---
   2024 07 14 14:00  00 52 59.14    +13 01 46.8   116712 1.0166  94.9  m  13?  84.25  97.5    0  74 167  55
   2024 07 14 14:10  00 53 55.92    +12 59 56.0   116322 1.0166  94.7  m  13?  83.08  97.7    2  73 167  55
   2024 07 14 14:20  00 54 51.88    +12 58 03.5   115925 1.0166  94.6  m  13?  81.94  98.0    3  72 168  55
   2024 07 14 14:30  00 55 47.03    +12 56 09.0   115521 1.0166  94.4  m  13?  80.80  98.2    5  70 168  55
   2024 07 14 14:40  00 56 41.37    +12 54 12.5   115112 1.0166  94.2  m  13?  79.69  98.5    7  69 168  55
   2024 07 14 14:50  00 57 34.92    +12 52 13.8   114696 1.0166  94.0  m  13?  78.60  98.8    9  68 168  55
   2024 07 14 15:00  00 58 27.69    +12 50 12.7   114275 1.0166  93.8     13?  77.53  99.1   11  67 168  55
   2024 07 14 15:10  00 59 19.70    +12 48 09.0   113848 1.0166  93.7     13?  76.49  99.4   13  65 168  55
   2024 07 14 15:20  01 00 10.96    +12 46 02.7   113417 1.0166  93.5     13?  75.48  99.8   14  64 168  55
   2024 07 14 15:30  01 01 01.48    +12 43 53.4   112980 1.0166  93.3     13?  74.50 100.1   16  62 169  56
   2024 07 14 15:40  01 01 51.30    +12 41 41.2   112539 1.0165  93.2     13?  73.56 100.4   18  61 169  56
   2024 07 14 15:50  01 02 40.43    +12 39 25.8   112094 1.0165  93.0     13?  72.65 100.8   20  59 169  56
   2024 07 14 16:00  01 03 28.88    +12 37 07.1   111645 1.0165  92.8     13?  71.78 101.2   21  58 169  56
   2024 07 14 16:10  01 04 16.70    +12 34 44.9   111193 1.0165  92.7     13?  70.96 101.7   23  56 169  56
   2024 07 14 16:20  01 05 03.90    +12 32 19.0   110736 1.0165  92.5     13?  70.19 102.1   25  55 169  56
   2024 07 14 16:30  01 05 50.51    +12 29 49.4   110277 1.0165  92.4     13?  69.46 102.6   26  53 169  56
   2024 07 14 16:40  01 06 36.57    +12 27 15.8   109814 1.0165  92.2     13?  68.78 103.0   28  51 169  56
   2024 07 14 16:50  01 07 22.10    +12 24 38.2   109349 1.0165  92.1     13?  68.16 103.5   30  49 169  56
   2024 07 14 17:00  01 08 07.14    +12 21 56.3   108881 1.0165  91.9     13?  67.60 104.0   31  47 169  56
   2024 07 14 17:10  01 08 51.71    +12 19 10.1   108410 1.0165  91.8     13?  67.10 104.5   33  45 170  56
   2024 07 14 17:20  01 09 35.87    +12 16 19.4   107937 1.0165  91.6     13?  66.66 105.0   34  43 170  56
   2024 07 14 17:30  01 10 19.65    +12 13 24.1   107462 1.0165  91.5     13?  66.28 105.5   35  41 170  56
   2024 07 14 17:40  01 11 03.09    +12 10 24.0   106985 1.0165  91.4     13?  65.97 106.0   37  39 170  57
   2024 07 14 17:50  01 11 46.22    +12 07 19.0   106507 1.0165  91.2     13?  65.73 106.5   38  36 170  57
   2024 07 14 18:00  01 12 29.11    +12 04 09.0   106026 1.0165  91.1     13?  65.56 107.0   39  34 170  57
   2024 07 14 18:10  01 13 11.78    +12 00 53.8   105544 1.0165  91.0     13?  65.47 107.5   40  31 170  57
   2024 07 14 18:20  01 13 54.29    +11 57 33.5   105060 1.0165  90.8     13?  65.45 108.0   41  28 170  57
   2024 07 14 18:30  01 14 36.69    +11 54 07.8   104575 1.0165  90.7     13?  65.51 108.5   42  26 170  57
   2024 07 14 18:40  01 15 19.03    +11 50 36.6   104088 1.0165  90.6     13?  65.65 109.0   43  23 170  57
   2024 07 14 18:50  01 16 01.36    +11 46 59.9   103600 1.0165  90.4     13?  65.87 109.4   44  20 170  57
   2024 07 14 19:00  01 16 43.73    +11 43 17.5   103111 1.0165  90.3     13?  66.17 109.9   45  17 170  57
   2024 07 14 19:10  01 17 26.20    +11 39 29.4   102620 1.0165  90.2     13?  66.56 110.3   45  14 170  57
   2024 07 14 19:20  01 18 08.82    +11 35 35.5   102128 1.0165  90.0     13?  67.03 110.7   46  10 170  57
   2024 07 14 19:30  01 18 51.66    +11 31 35.7   101635 1.0165  89.9     13?  67.59 111.0   46   7 170  58
   2024 07 14 19:40  01 19 34.77    +11 27 29.9   101140 1.0165  89.8 A   13?  68.23 111.4   47   4 170  58
   2024 07 14 19:50  01 20 18.21    +11 23 18.1   100643 1.0165  89.6 A   13?  68.96 111.7   47   0 170  58
   2024 07 14 20:00  01 21 02.04    +11 19 00.1   100145 1.0165  89.5 At  13?  69.79 111.9   47 357 171  58
   2024 07 14 20:10  01 21 46.33    +11 14 36.0    99645 1.0165  89.4 N   13?  70.70 112.2   47 354 171  58
   2024 07 14 20:20  01 22 31.14    +11 10 05.7    99144 1.0165  89.2 N   13?  71.71 112.4   47 350 171  58
   2024 07 14 20:30  01 23 16.54    +11 05 29.1    98640 1.0165  89.1 N   13?  72.80 112.6   46 347 171  58
   2024 07 14 20:40  01 24 02.59    +11 00 46.1    98134 1.0164  89.0 C   13?  73.99 112.7   46 344 171  58
   2024 07 14 20:50  01 24 49.35    +10 55 56.8    97626 1.0164  88.8 C   13?  75.28 112.8   45 341 171  58
   ................
   2024 07 15 09:50  09 50 58.64    -01 47 49.0    11831 1.0164  39.6  r   9? 6576.2  79.8    7 272  68  63
   2024 07 15 10:00  11 10 13.33    +02 26 12.2    10463 1.0164  54.5  m   9? 7945.2  76.5   19 285  51  63
   2024 07 15 10:10  12 39 50.97    +08 07 35.9     9966 1.0164  73.1  m   8? 8402.6  75.3   31 304  35  63
   2024 07 15 10:20  14 07 58.88    +13 38 06.6    10453 1.0165  91.4  m   8? 7474.2  76.4   38 327  30  63
   2024 07 15 10:30  15 23 30.00    +17 38 27.7    11729 1.0165 106.0  e   9? 5906.1  78.7   40 348  37  63
   2024 07 15 10:40  16 23 18.48    +20 07 15.7    13482 1.0165 116.5  t   9? 4492.8  81.2   38   3  47  63
   2024 07 15 10:50  17 09 43.69    +21 34 38.4    15473 1.0165 123.5  m  10? 3446.1  83.3   35  14  55  64
   2024 07 15 11:00  17 46 09.09    +22 25 48.4    17558 1.0165 128.1  m  10? 2708.0  84.9   33  21  63  64
   2024 07 15 11:10  18 15 20.91    +22 55 57.3    19660 1.0165 131.0  m  10? 2184.8  86.3   31  25  69  64
   2024 07 15 11:20  18 39 17.21    +23 13 35.7    21742 1.0166 132.9  m  11? 1805.4  87.3   29  28  74  64
   2024 07 15 11:30  18 59 19.23    +23 23 31.4    23783 1.0166 134.0  m  11? 1522.7  88.2   28  31  78  64
   2024 07 15 11:40  19 16 23.19    +23 28 31.5    25774 1.0166 134.7  m  11? 1306.6  89.0   27  32  81  64
   2024 07 15 11:50  19 31 08.73    +23 30 16.9    27711 1.0166 134.9  m  11? 1137.4  89.7   26  33  84  64
   2024 07 15 12:00  19 44 04.42    +23 29 50.7    29595 1.0166 135.0  m  11? 1002.3  90.3   26  34  87  64
   2024 07 15 12:10  19 55 31.35    +23 27 53.4    31425 1.0166 134.9  m  11? 892.33  90.8   26  34  90  64
   2024 07 15 12:20  20 05 45.36    +23 24 52.2    33203 1.0166 134.6  m  12? 801.51  91.3   26  34  92  64
   2024 07 15 12:30  20 14 58.65    +23 21 05.4    34933 1.0166 134.3  m  12? 725.45  91.8   26  34  94  64
   2024 07 15 12:40  20 23 20.72    +23 16 45.6    36616 1.0166 134.0  m  12? 660.98  92.2   26  34  96  64
   2024 07 15 12:50  20 30 59.10    +23 12 02.0    38255 1.0166 133.6  m  12? 605.75  92.7   27  33  97  64
   2024 07 15 13:00  20 37 59.88    +23 07 00.8    39852 1.0166 133.2  m  12? 558.01  93.1   27  33  99  64
   2024 07 15 13:10  20 44 28.00    +23 01 46.7    41410 1.0166 132.8  m  12? 516.39  93.4   28  32 100  64
   2024 07 15 13:20  20 50 27.53    +22 56 23.1    42930 1.0167 132.4  m  12? 479.85  93.8   28  31 101  64
   2024 07 15 13:30  20 56 01.87    +22 50 52.4    44415 1.0167 132.0  m  12? 447.55  94.2   29  30 102  64
   2024 07 15 13:40  21 01 13.88    +22 45 16.5    45867 1.0167 131.5  m  12? 418.83  94.5   29  29 104  64
   2024 07 15 13:50  21 06 05.97    +22 39 36.8    47287 1.0167 131.1  m  12? 393.17  94.9   30  28 105  64
   2024 07 15 14:00  21 10 40.22    +22 33 54.2    48678 1.0167 130.7  m  12? 370.12  95.2   30  27 105  64
   2024 07 15 14:10  21 14 58.41    +22 28 09.4    50040 1.0167 130.3  m  12? 349.35  95.6   31  25 106  64
   2024 07 15 14:20  21 19 02.08    +22 22 23.0    51375 1.0167 130.0  m  12? 330.54  95.9   32  24 107  65
   2024 07 15 14:30  21 22 52.60    +22 16 35.3    52686 1.0167 129.6  m  12? 313.47  96.3   32  22 108  65
   2024 07 15 14:40  21 26 31.15    +22 10 46.7    53972 1.0167 129.2  m  12? 297.91  96.6   33  21 109  65
   2024 07 15 14:50  21 29 58.77    +22 04 57.3    55235 1.0167 128.9  m  13? 283.71  97.0   34  19 109  65
   2024 07 15 15:00  21 33 16.39    +21 59 07.2    56477 1.0167 128.5  m  13? 270.70  97.3   34  17 110  65
   2024 07 15 15:10  21 36 24.84    +21 53 16.6    57699 1.0167 128.2  m  13? 258.77  97.7   35  15 111  65
   2024 07 15 15:20  21 39 24.87    +21 47 25.4    58901 1.0167 127.9  m  13? 247.80  98.1   35  13 111  65
   2024 07 15 15:30  21 42 17.14    +21 41 33.8    60084 1.0167 127.6  m  13? 237.70  98.4   36  11 112  65
   2024 07 15 15:40  21 45 02.26    +21 35 41.7    61250 1.0167 127.3  m  13? 228.39  98.8   36   9 112  65
   2024 07 15 15:50  21 47 40.77    +21 29 49.1    62399 1.0167 127.0  m  13? 219.79  99.2   36   7 113  65
   2024 07 15 16:00  21 50 13.17    +21 23 56.0    63533 1.0167 126.7     13? 211.84  99.5   37   5 113  65
   2024 07 15 16:10  21 52 39.92    +21 18 02.5    64651 1.0167 126.4     13? 204.49  99.9   37   3 114  65
   2024 07 15 16:20  21 55 01.44    +21 12 08.4    65755 1.0167 126.2     13? 197.69 100.2   37   1 114  65
   2024 07 15 16:30  21 57 18.09    +21 06 13.9    66845 1.0167 125.9  t  13? 191.39 100.6   37 358 115  65
   2024 07 15 16:40  21 59 30.25    +21 00 18.8    67921 1.0167 125.7  e  13? 185.56 100.9   37 356 115  65
   2024 07 15 16:50  22 01 38.22    +20 54 23.3    68986 1.0167 125.4     13? 180.15 101.3   37 354 116  66
   2024 07 15 17:00  22 03 42.32    +20 48 27.3    70038 1.0167 125.2     13? 175.14 101.6   37 351 116  66
   2024 07 15 17:10  22 05 42.82    +20 42 30.8    71079 1.0167 124.9     13? 170.50 102.0   37 349 116  66
   2024 07 15 17:20  22 07 39.98    +20 36 33.8    72108 1.0167 124.7     13? 166.19 102.3   36 347 117  66
   2024 07 15 17:30  22 09 34.04    +20 30 36.5    73127 1.0167 124.5     13? 162.21 102.6   36 344 117  66
   2024 07 15 17:40  22 11 25.22    +20 24 38.8    74136 1.0167 124.3     13? 158.52 102.9   36 342 117  66
   2024 07 15 17:50  22 13 13.74    +20 18 40.8    75135 1.0167 124.0     13? 155.11 103.2   35 340 118  66
   2024 07 15 18:00  22 14 59.79    +20 12 42.5    76125 1.0167 123.8     13? 151.96 103.5   35 337 118  66
   2024 07 15 18:10  22 16 43.55    +20 06 44.0    77105 1.0167 123.6     13? 149.04 103.8   34 335 118  66
   2024 07 15 18:20  22 18 25.20    +20 00 45.4    78077 1.0167 123.4     13? 146.35 104.1   33 333 118  66
   2024 07 15 18:30  22 20 04.89    +19 54 46.7    79040 1.0167 123.2     13? 143.88 104.3   33 331 119  66
   2024 07 15 18:40  22 21 42.79    +19 48 48.0    79995 1.0167 123.0     13? 141.60 104.6   32 329 119  66
   2024 07 15 18:50  22 23 19.02    +19 42 49.4    80942 1.0167 122.8     13? 139.50 104.8   31 327 119  66
   2024 07 15 19:00  22 24 53.73    +19 36 51.0    81880 1.0167 122.6     13? 137.58 105.0   30 324 119  67
   2024 07 15 19:10  22 26 27.04    +19 30 52.9    82811 1.0167 122.4     13? 135.82 105.2   29 322 120  67
   2024 07 15 19:20  22 27 59.06    +19 24 55.1    83734 1.0167 122.2     13? 134.21 105.3   28 320 120  67
   2024 07 15 19:30  22 29 29.91    +19 18 57.8    84650 1.0167 122.1     13? 132.74 105.5   27 319 120  67
   2024 07 15 19:40  22 30 59.70    +19 13 01.1    85558 1.0167 121.9 A   13? 131.41 105.6   26 317 120  67
   2024 07 15 19:50  22 32 28.51    +19 07 05.1    86459 1.0167 121.7 A   13? 130.20 105.7   25 315 121  67
   2024 07 15 20:00  22 33 56.45    +19 01 09.8    87353 1.0167 121.5 A   13? 129.11 105.8   23 313 121  67
   2024 07 15 20:10  22 35 23.59    +18 55 15.5    88239 1.0167 121.3 N   13? 128.13 105.9   22 311 121  67
   2024 07 15 20:20  22 36 50.03    +18 49 22.1    89118 1.0167 121.1 N   13? 127.26 106.0   21 310 121  67
   2024 07 15 20:30  22 38 15.83    +18 43 29.9    89990 1.0167 120.9 N   13? 126.48 106.0   20 308 122  67
   2024 07 15 20:40  22 39 41.07    +18 37 38.8    90855 1.0167 120.7 C   13? 125.78 106.1   18 307 122  67
   2024 07 15 20:50  22 41 05.81    +18 31 49.2    91712 1.0167 120.6 C   13? 125.18 106.1   17 305 122  68
   ................
   2024 07 16 14:00  00 58 39.24    +12 43 01.2   115563 1.0165  95.7  m  13?  85.95  97.8    0  74 145  74
   2024 07 16 14:10  00 59 37.07    +12 41 03.3   115129 1.0165  95.5  m  13?  84.86  98.1    2  73 145  74
   2024 07 16 14:20  01 00 34.13    +12 39 03.4   114687 1.0165  95.3  m  13?  83.78  98.3    4  72 145  74
   2024 07 16 14:30  01 01 30.43    +12 37 01.5   114240 1.0165  95.1  m  13?  82.72  98.6    6  70 145  74
   2024 07 16 14:40  01 02 25.97    +12 34 57.4   113786 1.0165  94.9  m  13?  81.68  98.8    8  69 146  74
   2024 07 16 14:50  01 03 20.76    +12 32 50.8   113326 1.0165  94.7  m  13?  80.67  99.1   10  68 146  74
   2024 07 16 15:00  01 04 14.83    +12 30 41.7   112860 1.0165  94.6  m  13?  79.67  99.4   11  67 146  74
   2024 07 16 15:10  01 05 08.18    +12 28 29.9   112389 1.0165  94.4  m  13?  78.71  99.8   13  65 146  74
   2024 07 16 15:20  01 06 00.84    +12 26 15.2   111913 1.0164  94.2  m  13?  77.78 100.1   15  64 146  74
   2024 07 16 15:30  01 06 52.81    +12 23 57.5   111432 1.0164  94.0  m  13?  76.88 100.4   17  62 146  74
   2024 07 16 15:40  01 07 44.13    +12 21 36.5   110946 1.0164  93.9  m  13?  76.02 100.8   19  61 146  74
   2024 07 16 15:50  01 08 34.81    +12 19 12.2   110456 1.0164  93.7  m  13?  75.19 101.2   20  59 146  74
   2024 07 16 16:00  01 09 24.87    +12 16 44.4   109961 1.0164  93.5  m  13?  74.41 101.6   22  58 146  74
   2024 07 16 16:10  01 10 14.35    +12 14 12.9   109463 1.0164  93.4  m  13?  73.67 102.0   24  56 147  74
   2024 07 16 16:20  01 11 03.26    +12 11 37.6   108961 1.0164  93.2  m  13?  72.98 102.4   25  55 147  74
   2024 07 16 16:30  01 11 51.65    +12 08 58.3   108456 1.0164  93.0  m  13?  72.34 102.9   27  53 147  74
   2024 07 16 16:40  01 12 39.53    +12 06 14.8   107948 1.0164  92.9  m  13?  71.76 103.3   29  51 147  74
   2024 07 16 16:50  01 13 26.95    +12 03 27.1   107436 1.0164  92.7  m  13?  71.23 103.8   30  49 147  75
   2024 07 16 17:00  01 14 13.93    +12 00 34.9   106921 1.0164  92.6     13?  70.76 104.2   32  47 147  75
   2024 07 16 17:10  01 15 00.51    +11 57 38.1   106404 1.0164  92.4     13?  70.35 104.7   33  45 147  75
   2024 07 16 17:20  01 15 46.74    +11 54 36.6   105884 1.0164  92.3     13?  70.00 105.2   35  43 147  75
   2024 07 16 17:30  01 16 32.65    +11 51 30.2   105362 1.0164  92.1     13?  69.73 105.7   36  41 147  75
   2024 07 16 17:40  01 17 18.28    +11 48 18.8   104838 1.0164  92.0     13?  69.52 106.2   37  38 147  75
   2024 07 16 17:50  01 18 03.68    +11 45 02.2   104311 1.0164  91.8     13?  69.38 106.7   39  36 147  75
   2024 07 16 18:00  01 18 48.89    +11 41 40.4   103782 1.0164  91.7     13?  69.32 107.1   40  34 147  75
   2024 07 16 18:10  01 19 33.96    +11 38 13.2   103252 1.0164  91.6     13?  69.34 107.6   41  31 147  75
   2024 07 16 18:20  01 20 18.95    +11 34 40.5   102719 1.0164  91.4     13?  69.43 108.1   42  28 147  75
   2024 07 16 18:30  01 21 03.89    +11 31 02.1   102185 1.0164  91.3     13?  69.60 108.5   43  25 147  75
   2024 07 16 18:40  01 21 48.85    +11 27 17.9   101648 1.0164  91.1     13?  69.86 108.9   44  23 147  75
   2024 07 16 18:50  01 22 33.88    +11 23 27.9   101110 1.0164  91.0     13?  70.20 109.4   45  20 147  75
   2024 07 16 19:00  01 23 19.03    +11 19 31.9   100570 1.0164  90.9     13?  70.63 109.8   45  16 147  75
   2024 07 16 19:10  01 24 04.36    +11 15 29.9   100029 1.0164  90.7     13?  71.15 110.1   46  13 148  76
   2024 07 16 19:20  01 24 49.94    +11 11 21.6    99485 1.0164  90.6     13?  71.75 110.5   46  10 148  76
   2024 07 16 19:30  01 25 35.82    +11 07 07.1    98940 1.0164  90.4     13?  72.45 110.8   47   7 148  76
   2024 07 16 19:40  01 26 22.06    +11 02 46.2    98392 1.0164  90.3 A   13?  73.24 111.1   47   3 148  76
   2024 07 16 19:50  01 27 08.74    +10 58 18.9    97843 1.0164  90.1 A   13?  74.13 111.4   47   0 148  76
   2024 07 16 20:00  01 27 55.90    +10 53 45.1    97291 1.0164  90.0 At  13?  75.11 111.6   47 357 148  76
   2024 07 16 20:10  01 28 43.63    +10 49 04.6    96737 1.0163  89.9 N   13?  76.18 111.9   47 353 148  76
   2024 07 16 20:20  01 29 31.99    +10 44 17.4    96180 1.0163  89.7 N   13?  77.36 112.0   47 350 148  76
   2024 07 16 20:30  01 30 21.05    +10 39 23.5    95621 1.0163  89.6 N   13?  78.64 112.2   47 347 148  76
   2024 07 16 20:40  01 31 10.88    +10 34 22.8    95060 1.0163  89.4 C   13?  80.02 112.3   46 343 148  76
   2024 07 16 20:50  01 32 01.56    +10 29 15.2    94495 1.0163  89.3 C   13?  81.50 112.4   46 340 148  76
   ................
   2024 07 17 08:40  08 09 42.22    -05 21 31.7    14163 1.0162  27.0 Ar  10? 4622.3  86.4    1 264 113  81
   2024 07 17 08:50  09 08 27.88    -03 53 36.4    12014 1.0163  31.9  m  10? 6042.9  82.5   10 271 101  81
   2024 07 17 09:00  10 24 02.75    -00 40 30.8    10299 1.0163  44.0  m   9? 7756.5  78.6   22 283  85  81
   2024 07 17 09:10  11 55 41.77    +04 34 10.7     9377 1.0163  62.3  m   8? 8955.1  76.1   35 303  67  81
   2024 07 17 09:20  13 32 19.78    +10 34 08.7     9517 1.0163  82.7  m   8? 8509.0  76.1   43 330  51  81
   2024 07 17 09:30  14 58 04.25    +15 21 59.6    10625 1.0163 100.1  e   8? 6823.0  78.1   43 356  43  81
   2024 07 17 09:40  16 05 51.54    +18 25 35.5    12353 1.0164 112.8  t   9? 5113.7  80.4   39  14  43  81
   2024 07 17 09:50  16 57 34.96    +20 14 14.8    14389 1.0164 121.3  m   9? 3841.8  82.5   34  25  46  81
   2024 07 17 10:00  17 37 26.57    +21 18 48.0    16547 1.0164 126.9  m  10? 2965.5  84.1   30  32  51  81
   2024 07 17 10:10  18 08 56.05    +21 58 06.2    18728 1.0164 130.6  m  10? 2360.2  85.4   26  36  55  81
   2024 07 17 10:20  18 34 28.53    +22 22 30.3    20885 1.0164 132.9  m  11? 1930.7  86.4   24  39  59  81
   2024 07 17 10:30  18 55 40.91    +22 37 43.0    22994 1.0164 134.4  m  11? 1616.1  87.3   22  41  62  81
   2024 07 17 10:40  19 13 38.49    +22 47 01.4    25046 1.0164 135.3  m  11? 1378.9  88.1   21  43  65  81
   2024 07 17 10:50  19 29 06.35    +22 52 23.4    27038 1.0165 135.7  m  11? 1195.1  88.8   20  44  68  81
   2024 07 17 11:00  19 42 36.43    +22 55 03.0    28969 1.0165 135.9  m  11? 1049.5  89.3   20  44  70  81
   2024 07 17 11:10  19 54 31.97    +22 55 48.1    30840 1.0165 135.9  m  11? 931.79  89.9   19  45  73  81
   2024 07 17 11:20  20 05 10.26    +22 55 10.9    32655 1.0165 135.7  m  12? 835.06  90.3   19  45  74  81
   2024 07 17 11:30  20 14 44.48    +22 53 33.4    34416 1.0165 135.5  m  12? 754.38  90.8   19  45  76  81
   2024 07 17 11:40  20 23 24.83    +22 51 11.0    36126 1.0165 135.1  m  12? 686.21  91.2   19  45  78  82
   2024 07 17 11:50  20 31 19.35    +22 48 15.0    37787 1.0165 134.8  m  12? 627.96  91.6   20  44  79  82
   2024 07 17 12:00  20 38 34.50    +22 44 53.4    39402 1.0165 134.4  m  12? 577.70  92.0   20  44  81  82
   2024 07 17 12:10  20 45 15.49    +22 41 12.0    40975 1.0165 134.0  m  12? 533.95  92.3   21  43  82  82
   2024 07 17 12:20  20 51 26.61    +22 37 15.4    42507 1.0165 133.6  m  12? 495.56  92.7   21  42  83  82
   2024 07 17 12:30  20 57 11.43    +22 33 06.9    44001 1.0165 133.1  m  12? 461.66  93.0   22  42  84  82
   2024 07 17 12:40  21 02 32.93    +22 28 48.9    45458 1.0165 132.7  m  12? 431.53  93.4   23  41  85  82
   2024 07 17 12:50  21 07 33.65    +22 24 23.4    46881 1.0165 132.3  m  12? 404.59  93.7   24  40  86  82
   2024 07 17 13:00  21 12 15.73    +22 19 51.8    48272 1.0166 131.9  m  12? 380.40  94.0   24  39  87  82
   2024 07 17 13:10  21 16 41.04    +22 15 15.2    49633 1.0166 131.5  m  12? 358.57  94.3   25  38  88  82
   2024 07 17 13:20  21 20 51.16    +22 10 34.5    50964 1.0166 131.1  m  12? 338.80  94.7   26  36  88  82
   2024 07 17 13:30  21 24 47.51    +22 05 50.2    52268 1.0166 130.7  m  12? 320.82  95.0   27  35  89  82
   2024 07 17 13:40  21 28 31.31    +22 01 03.0    53546 1.0166 130.4  m  12? 304.42  95.3   28  34  90  82
   2024 07 17 13:50  21 32 03.63    +21 56 13.1    54799 1.0166 130.0  m  13? 289.42  95.7   29  32  90  82
   2024 07 17 14:00  21 35 25.45    +21 51 20.9    56028 1.0166 129.7  m  13? 275.66  96.0   29  31  91  82
   2024 07 17 14:10  21 38 37.60    +21 46 26.5    57236 1.0166 129.3  m  13? 263.01  96.3   30  29  92  82
   2024 07 17 14:20  21 41 40.86    +21 41 30.0    58422 1.0166 129.0  m  13? 251.36  96.7   31  28  92  82
   2024 07 17 14:30  21 44 35.91    +21 36 31.7    59589 1.0166 128.7  m  13? 240.61  97.1   32  26  93  82
   2024 07 17 14:40  21 47 23.38    +21 31 31.4    60736 1.0166 128.4  m  13? 230.67  97.4   32  24  93  82
   2024 07 17 14:50  21 50 03.82    +21 26 29.4    61865 1.0166 128.1  m  13? 221.46  97.8   33  22  94  82
   2024 07 17 15:00  21 52 37.75    +21 21 25.6    62977 1.0166 127.8  m  13? 212.94  98.1   34  20  94  82
   2024 07 17 15:10  21 55 05.63    +21 16 20.1    64073 1.0166 127.5  m  13? 205.03  98.5   34  18  94  82
   2024 07 17 15:20  21 57 27.90    +21 11 12.8    65153 1.0166 127.2  m  13? 197.69  98.9   35  16  95  82
   2024 07 17 15:30  21 59 44.95    +21 06 03.8    66218 1.0166 127.0  m  13? 190.87  99.3   36  14  95  82
   2024 07 17 15:40  22 01 57.13    +21 00 53.0    67270 1.0166 126.7  m  13? 184.53  99.6   36  12  96  82
   2024 07 17 15:50  22 04 04.80    +20 55 40.6    68307 1.0166 126.5  m  13? 178.64 100.0   37  10  96  82
   2024 07 17 16:00  22 06 08.25    +20 50 26.4    69332 1.0166 126.2  m  13? 173.16 100.3   37   7  96  83
   2024 07 17 16:10  22 08 07.77    +20 45 10.5    70345 1.0166 126.0  m  13? 168.07 100.7   37   5  97  83
   2024 07 17 16:20  22 10 03.64    +20 39 53.0    71346 1.0166 125.8  m  13? 163.33 101.1   37   3  97  83
   2024 07 17 16:30  22 11 56.10    +20 34 33.8    72337 1.0166 125.5  m  13? 158.93 101.5   38   0  97  83
   2024 07 17 16:40  22 13 45.40    +20 29 13.0    73316 1.0166 125.3  t  13? 154.85 101.9   38 358  97  83
   2024 07 17 16:50  22 15 31.74    +20 23 50.6    74285 1.0166 125.1  e  13? 151.05 102.2   38 355  98  83
   2024 07 17 17:00  22 17 15.34    +20 18 26.6    75245 1.0166 124.9  m  13? 147.54 102.6   38 353  98  83
   2024 07 17 17:10  22 18 56.39    +20 13 01.2    76196 1.0166 124.7  m  13? 144.28 102.9   37 351  98  83
   2024 07 17 17:20  22 20 35.06    +20 07 34.3    77137 1.0166 124.5  m  13? 141.26 103.3   37 348  98  83
   2024 07 17 17:30  22 22 11.54    +20 02 06.0    78070 1.0166 124.3  m  13? 138.47 103.6   37 346  99  83
   2024 07 17 17:40  22 23 45.99    +19 56 36.5    78994 1.0166 124.1  m  13? 135.89 103.9   36 343  99  83
   2024 07 17 17:50  22 25 18.54    +19 51 05.7    79911 1.0166 123.9  m  13? 133.52 104.2   36 341  99  83
   2024 07 17 18:00  22 26 49.36    +19 45 33.7    80820 1.0166 123.8     13? 131.33 104.5   35 338  99  83
   2024 07 17 18:10  22 28 18.57    +19 40 00.7    81721 1.0166 123.6     13? 129.33 104.8   35 336  99  83
   2024 07 17 18:20  22 29 46.31    +19 34 26.7    82616 1.0166 123.4     13? 127.49 105.1   34 334 100  83
   2024 07 17 18:30  22 31 12.69    +19 28 51.9    83503 1.0166 123.2     13? 125.81 105.3   33 331 100  83
   2024 07 17 18:40  22 32 37.83    +19 23 16.3    84383 1.0166 123.1     13? 124.28 105.6   33 329 100  83
   2024 07 17 18:50  22 34 01.84    +19 17 40.0    85256 1.0166 122.9     13? 122.89 105.8   32 327 100  83
   2024 07 17 19:00  22 35 24.82    +19 12 03.2    86123 1.0166 122.7     13? 121.64 106.0   31 325 100  84
   2024 07 17 19:10  22 36 46.87    +19 06 25.9    86984 1.0166 122.5     13? 120.50 106.1   30 323 100  84
   2024 07 17 19:20  22 38 08.08    +19 00 48.4    87838 1.0166 122.4     13? 119.49 106.3   29 321 101  84
   2024 07 17 19:30  22 39 28.53    +18 55 10.6    88685 1.0166 122.2     13? 118.59 106.4   28 319 101  84
   2024 07 17 19:40  22 40 48.32    +18 49 32.8    89527 1.0166 122.0 A   13? 117.79 106.6   26 317 101  84
   2024 07 17 19:50  22 42 07.50    +18 43 55.0    90362 1.0166 121.9 A   13? 117.08 106.6   25 315 101  84
   2024 07 17 20:00  22 43 26.17    +18 38 17.4    91190 1.0166 121.7 A   13? 116.47 106.7   24 313 101  84
   2024 07 17 20:10  22 44 44.38    +18 32 40.2    92013 1.0166 121.5 N   13? 115.95 106.8   23 311 101  84
   2024 07 17 20:20  22 46 02.21    +18 27 03.3    92829 1.0166 121.4 N   13? 115.50 106.8   21 310 101  84
   2024 07 17 20:30  22 47 19.70    +18 21 27.1    93639 1.0166 121.2 N   13? 115.14 106.9   20 308 102  84
   2024 07 17 20:40  22 48 36.93    +18 15 51.5    94442 1.0166 121.0 C   13? 114.84 106.9   19 306 102  84
   2024 07 17 20:50  22 49 53.94    +18 10 16.8    95239 1.0166 120.9 C   13? 114.61 106.8   17 305 102  84
   ................
   2024 07 18 13:50  01 03 24.22    +12 25 51.1   114629 1.0164  96.6  r  13?  89.17  97.9    0  75 120  89
   2024 07 18 14:00  01 04 24.16    +12 23 47.3   114157 1.0164  96.4  m  13?  88.14  98.2    1  74 120  89
   2024 07 18 14:10  01 05 23.37    +12 21 41.5   113677 1.0164  96.2  m  13?  87.13  98.4    3  73 121  89
   2024 07 18 14:20  01 06 21.86    +12 19 33.7   113190 1.0163  96.0  m  13?  86.14  98.6    5  72 121  89
   2024 07 18 14:30  01 07 19.64    +12 17 23.5   112697 1.0163  95.8  m  13?  85.16  98.9    7  70 121  89
   2024 07 18 14:40  01 08 16.72    +12 15 11.0   112197 1.0163  95.6  m  13?  84.21  99.2    8  69 121  89
   2024 07 18 14:50  01 09 13.12    +12 12 55.8   111691 1.0163  95.4  m  13?  83.28  99.5   10  68 121  89
   2024 07 18 15:00  01 10 08.84    +12 10 37.9   111180 1.0163  95.3  m  13?  82.37  99.8   12  67 121  89
   2024 07 18 15:10  01 11 03.90    +12 08 17.0   110662 1.0163  95.1  m  13?  81.50 100.0   14  65 121  89
   2024 07 18 15:20  01 11 58.32    +12 05 53.1   110140 1.0163  94.9  m  13?  80.66 100.4   16  64 121  90
   2024 07 18 15:30  01 12 52.12    +12 03 25.9   109612 1.0163  94.7  m  13?  79.85 100.7   17  62 122  90
   2024 07 18 15:40  01 13 45.32    +12 00 55.3   109080 1.0163  94.5  m  13?  79.08 101.1   19  61 122  90
   2024 07 18 15:50  01 14 37.94    +11 58 21.1   108543 1.0163  94.4  m  13?  78.35 101.5   21  59 122  90
   2024 07 18 16:00  01 15 30.01    +11 55 43.1   108001 1.0163  94.2  m  13?  77.66 101.9   23  58 122  90
   2024 07 18 16:10  01 16 21.56    +11 53 01.3   107456 1.0163  94.0  m  13?  77.02 102.3   24  56 122  90
   2024 07 18 16:20  01 17 12.61    +11 50 15.3   106906 1.0163  93.8  m  13?  76.43 102.7   26  55 122  90
   2024 07 18 16:30  01 18 03.19    +11 47 25.1   106353 1.0163  93.7  m  13?  75.90 103.1   28  53 122  90
   2024 07 18 16:40  01 18 53.34    +11 44 30.5   105796 1.0163  93.5  m  13?  75.42 103.5   29  51 122  90
   2024 07 18 16:50  01 19 43.09    +11 41 31.4   105236 1.0163  93.4  m  13?  75.00 104.0   31  49 122  90
   2024 07 18 17:00  01 20 32.47    +11 38 27.5   104673 1.0163  93.2  m  13?  74.63 104.4   32  47 122  90
   2024 07 18 17:10  01 21 21.53    +11 35 18.7   104107 1.0163  93.0  m  13?  74.34 104.9   34  45 122  90
   2024 07 18 17:20  01 22 10.31    +11 32 05.0   103538 1.0163  92.9  m  13?  74.11 105.3   35  43 122  90
   2024 07 18 17:30  01 22 58.84    +11 28 46.0   102966 1.0163  92.7  m  13?  73.95 105.8   36  41 123  90
   2024 07 18 17:40  01 23 47.17    +11 25 21.8   102391 1.0163  92.6  m  13?  73.86 106.3   38  38 123  90
   2024 07 18 17:50  01 24 35.35    +11 21 52.0   101814 1.0163  92.4  m  13?  73.85 106.7   39  36 123  90
   2024 07 18 18:00  01 25 23.43    +11 18 16.7   101235 1.0163  92.3  m  13?  73.92 107.1   40  33 123  90
   2024 07 18 18:10  01 26 11.45    +11 14 35.6   100653 1.0163  92.1  m  13?  74.07 107.6   41  31 123  90
   2024 07 18 18:20  01 26 59.47    +11 10 48.6   100068 1.0163  92.0  m  13?  74.30 108.0   42  28 123  90
   2024 07 18 18:30  01 27 47.54    +11 06 55.6    99481 1.0163  91.8  m  13?  74.61 108.4   43  25 123  90
   2024 07 18 18:40  01 28 35.71    +11 02 56.4    98892 1.0163  91.7  m  13?  75.01 108.8   44  22 123  90
   2024 07 18 18:50  01 29 24.05    +10 58 51.0    98301 1.0163  91.5  m  13?  75.51 109.2   45  19 123  90
   2024 07 18 19:00  01 30 12.62    +10 54 39.1    97707 1.0162  91.3  m  13?  76.09 109.6   46  16 123  90
   2024 07 18 19:10  01 31 01.47    +10 50 20.8    97111 1.0162  91.2     13?  76.77 109.9   46  13 123  90
   2024 07 18 19:20  01 31 50.68    +10 45 55.8    96513 1.0162  91.0     13?  77.55 110.2   47  10 123  91
   2024 07 18 19:30  01 32 40.30    +10 41 24.1    95912 1.0162  90.9     13?  78.42 110.5   47   7 123  91
   2024 07 18 19:40  01 33 30.40    +10 36 45.5    95308 1.0162  90.7 A   13?  79.39 110.8   47   3 123  91
   2024 07 18 19:50  01 34 21.05    +10 31 59.9    94701 1.0162  90.6 A   13?  80.47 111.0   48   0 123  91
   2024 07 18 20:00  01 35 12.33    +10 27 07.3    94092 1.0162  90.4 At  13?  81.65 111.3   48 356 123  91
   2024 07 18 20:10  01 36 04.29    +10 22 07.4    93480 1.0162  90.3 N   13?  82.94 111.4   48 353 123  91
   2024 07 18 20:20  01 36 57.03    +10 17 00.3    92865 1.0162  90.1 N   13?  84.33 111.6   47 350 123  91
   2024 07 18 20:30  01 37 50.62    +10 11 45.8    92246 1.0162  89.9 N   13?  85.84 111.7   47 346 123  91
   2024 07 18 20:40  01 38 45.12    +10 06 23.9    91623 1.0162  89.8 C   13?  87.46 111.9   47 343 123  91
   2024 07 18 20:50  01 39 40.63    +10 00 54.3    90997 1.0162  89.6 C   13?  89.19 111.9   46 340 124  91
   ................
   2024 07 19 07:30  07 00 09.65    -06 05 10.9    16801 1.0161  30.0 Cr  10? 3267.3  91.8    0 262 142  94
   2024 07 19 07:40  07 41 36.17    -06 06 44.6    14423 1.0161  27.1 Cm  10? 4207.7  88.8    6 266 138  94
   2024 07 19 07:50  08 35 43.50    -05 20 49.0    12161 1.0161  27.9 Nm  10? 5583.1  85.0   15 273 129  94
   2024 07 19 08:00  09 47 23.58    -03 04 45.8    10233 1.0161  36.3 Nm   9? 7446.8  80.9   27 284 117  94
   2024 07 19 08:10  11 18 57.40    +01 23 34.6     9005 1.0161  53.2 Nm   9? 9204.6  77.5   40 303 100  94
   2024 07 19 08:20  13 01 35.31    +07 26 00.0     8857 1.0162  74.8 Am   8? 9332.3  76.4   48 335  80  94
   2024 07 19 08:30  14 35 57.22    +12 49 19.9     9817 1.0162  94.6 At   8? 7640.1  77.7   45   7  64  94
   2024 07 19 08:40  15 50 37.34    +16 25 20.5    11530 1.0162 109.3 Am   9? 5667.2  79.7   38  26  54  94
   2024 07 19 08:50  16 46 47.24    +18 35 55.2    13618 1.0162 119.2  m   9? 4187.2  81.6   31  36  50  94
   2024 07 19 09:00  17 29 26.76    +19 55 22.3    15850 1.0162 125.8  m  10? 3187.6  83.1   25  43  48  94
   2024 07 19 09:10  18 02 47.17    +20 45 27.8    18109 1.0163 130.1  m  10? 2511.7  84.4   21  46  49  94
   2024 07 19 09:20  18 29 37.67    +21 18 06.4    20339 1.0163 132.9  m  10? 2040.3  85.4   18  49  49  94
   2024 07 19 09:30  18 51 48.20    +21 39 51.9    22515 1.0163 134.7  m  11? 1699.4  86.3   15  51  51  94
   2024 07 19 09:40  19 10 31.24    +21 54 30.9    24626 1.0163 135.9  m  11? 1444.8  87.0   14  52  52  94
   2024 07 19 09:50  19 26 36.01    +22 04 20.4    26670 1.0163 136.5  m  11? 1248.9  87.7   13  53  54  94
   2024 07 19 10:00  19 40 36.97    +22 10 47.1    28647 1.0163 136.8  m  11? 1094.6  88.3   12  54  55  94
   2024 07 19 10:10  19 52 58.93    +22 14 48.2    30559 1.0163 136.9  m  11? 970.40  88.8   11  54  56  94
   2024 07 19 10:20  20 04 00.27    +22 17 02.3    32409 1.0164 136.8  m  12? 868.64  89.3   11  54  58  94
   2024 07 19 10:30  20 13 54.88    +22 17 56.4    34201 1.0164 136.6  m  12? 783.97  89.7   11  54  59  94
   2024 07 19 10:40  20 22 53.48    +22 17 49.8    35938 1.0164 136.4  m  12? 712.58  90.1   11  54  60  94
   2024 07 19 10:50  20 31 04.50    +22 16 56.6    37622 1.0164 136.0  m  12? 651.67  90.5   12  54  61  95
   2024 07 19 11:00  20 38 34.67    +22 15 27.1    39258 1.0164 135.7  m  12? 599.16  90.9   12  53  62  95
   2024 07 19 11:10  20 45 29.41    +22 13 29.0    40847 1.0164 135.3  m  12? 553.49  91.2   13  53  63  95
   2024 07 19 11:20  20 51 53.20    +22 11 08.3    42392 1.0164 134.9  m  12? 513.45  91.6   13  52  64  95
   2024 07 19 11:30  20 57 49.73    +22 08 29.3    43897 1.0164 134.5  m  12? 478.08  91.9   14  51  65  95
   2024 07 19 11:40  21 03 22.08    +22 05 35.6    45362 1.0164 134.0  m  12? 446.64  92.2   15  51  65  95
   2024 07 19 11:50  21 08 32.87    +22 02 29.8    46791 1.0164 133.6  m  12? 418.53  92.5   16  50  66  95
   2024 07 19 12:00  21 13 24.32    +21 59 14.1    48185 1.0164 133.2  m  12? 393.26  92.8   17  49  67  95
   2024 07 19 12:10  21 17 58.34    +21 55 50.0    49546 1.0164 132.8  m  12? 370.45  93.1   18  48  67  95
   2024 07 19 12:20  21 22 16.59    +21 52 18.9    50876 1.0164 132.4  m  12? 349.76  93.4   19  47  68  95
   2024 07 19 12:30  21 26 20.48    +21 48 41.8    52177 1.0164 132.0  m  12? 330.92  93.7   19  46  69  95
   2024 07 19 12:40  21 30 11.29    +21 44 59.4    53449 1.0164 131.6  m  13? 313.71  94.0   20  45  69  95
   2024 07 19 12:50  21 33 50.13    +21 41 12.4    54695 1.0164 131.3  m  13? 297.95  94.3   21  44  70  95
   2024 07 19 13:00  21 37 17.97    +21 37 21.3    55915 1.0164 130.9  m  13? 283.46  94.6   23  43  70  95
   2024 07 19 13:10  21 40 35.68    +21 33 26.4    57111 1.0164 130.6  m  13? 270.11  94.9   24  41  71  95
   2024 07 19 13:20  21 43 44.05    +21 29 28.0    58285 1.0165 130.2  m  13? 257.78  95.3   25  40  71  95
   2024 07 19 13:30  21 46 43.78    +21 25 26.3    59436 1.0165 129.9  m  13? 246.37  95.6   26  39  72  95
   2024 07 19 13:40  21 49 35.50    +21 21 21.6    60567 1.0165 129.6  m  13? 235.80  95.9   27  37  72  95
   2024 07 19 13:50  21 52 19.78    +21 17 13.8    61679 1.0165 129.3  m  13? 225.99  96.2   28  36  72  95
   2024 07 19 14:00  21 54 57.16    +21 13 03.3    62771 1.0165 129.0  m  13? 216.86  96.6   29  34  73  95
   2024 07 19 14:10  21 57 28.10    +21 08 49.9    63846 1.0165 128.7  m  13? 208.37  96.9   29  32  73  95
   2024 07 19 14:20  21 59 53.03    +21 04 33.7    64904 1.0165 128.4  m  13? 200.46  97.3   30  31  73  95
   2024 07 19 14:30  22 02 12.37    +21 00 14.8    65946 1.0165 128.1  m  13? 193.09  97.7   31  29  74  95
   2024 07 19 14:40  22 04 26.49    +20 55 53.2    66973 1.0165 127.8  m  13? 186.21  98.0   32  27  74  95
   2024 07 19 14:50  22 06 35.71    +20 51 29.0    67985 1.0165 127.6  m  13? 179.79  98.4   33  25  74  95
   2024 07 19 15:00  22 08 40.37    +20 47 02.0    68983 1.0165 127.3  m  13? 173.79  98.8   34  23  75  95
   2024 07 19 15:10  22 10 40.76    +20 42 32.4    69968 1.0165 127.1  m  13? 168.19  99.2   34  21  75  95
   2024 07 19 15:20  22 12 37.15    +20 38 00.1    70940 1.0165 126.9  m  13? 162.97  99.6   35  19  75  95
   2024 07 19 15:30  22 14 29.80    +20 33 25.2    71901 1.0165 126.6  m  13? 158.09 100.0   36  16  75  95
   2024 07 19 15:40  22 16 18.95    +20 28 47.6    72850 1.0165 126.4  m  13? 153.54 100.3   36  14  76  95
   2024 07 19 15:50  22 18 04.83    +20 24 07.4    73788 1.0165 126.2  m  13? 149.29 100.7   37  12  76  95
   2024 07 19 16:00  22 19 47.65    +20 19 24.6    74716 1.0165 126.0  m  13? 145.33 101.1   37   9  76  95
   2024 07 19 16:10  22 21 27.61    +20 14 39.3    75635 1.0165 125.8  m  13? 141.65 101.6   38   7  76  95
   2024 07 19 16:20  22 23 04.90    +20 09 51.4    76543 1.0165 125.6  m  13? 138.22 102.0   38   4  76  95
   2024 07 19 16:30  22 24 39.70    +20 05 01.1    77443 1.0165 125.4  m  13? 135.03 102.3   38   2  76  95
   2024 07 19 16:40  22 26 12.19    +20 00 08.3    78334 1.0165 125.2  t  13? 132.07 102.7   38 359  77  95
   2024 07 19 16:50  22 27 42.51    +19 55 13.1    79218 1.0165 125.0  e  13? 129.33 103.1   38 357  77  95
   2024 07 19 17:00  22 29 10.82    +19 50 15.6    80093 1.0165 124.9  m  13? 126.79 103.5   38 354  77  95
   2024 07 19 17:10  22 30 37.27    +19 45 15.9    80961 1.0165 124.7  m  13? 124.45 103.9   38 352  77  95
   2024 07 19 17:20  22 32 01.99    +19 40 14.0    81821 1.0165 124.5  m  13? 122.29 104.2   38 349  77  95
   2024 07 19 17:30  22 33 25.12    +19 35 09.9    82675 1.0165 124.4  m  13? 120.30 104.6   37 346  77  95
   2024 07 19 17:40  22 34 46.77    +19 30 03.9    83522 1.0165 124.2  m  13? 118.48 104.9   37 344  77  95
   2024 07 19 17:50  22 36 07.07    +19 24 55.9    84362 1.0165 124.0  m  13? 116.82 105.2   37 341  78  95
   2024 07 19 18:00  22 37 26.13    +19 19 46.2    85196 1.0165 123.9  m  13? 115.30 105.5   36 339  78  95
   2024 07 19 18:10  22 38 44.06    +19 14 34.7    86024 1.0165 123.7  m  13? 113.93 105.8   35 336  78  95
   2024 07 19 18:20  22 40 00.94    +19 09 21.6    86846 1.0165 123.6  m  13? 112.68 106.1   35 334  78  96
   2024 07 19 18:30  22 41 16.90    +19 04 07.1    87663 1.0165 123.4  m  13? 111.57 106.3   34 332  78  96
   2024 07 19 18:40  22 42 32.00    +18 58 51.1    88473 1.0165 123.2  m  13? 110.57 106.5   33 329  78  96
   2024 07 19 18:50  22 43 46.35    +18 53 34.0    89279 1.0165 123.1  m  13? 109.69 106.7   32 327  78  96
   2024 07 19 19:00  22 45 00.02    +18 48 15.7    90078 1.0165 122.9  m  13? 108.91 106.9   31 325  78  96
   2024 07 19 19:10  22 46 13.10    +18 42 56.4    90872 1.0165 122.8  m  13? 108.23 107.1   30 323  78  96
   2024 07 19 19:20  22 47 25.66    +18 37 36.3    91661 1.0165 122.6  m  13? 107.65 107.2   29 321  78  96
   2024 07 19 19:30  22 48 37.77    +18 32 15.4    92445 1.0165 122.5  m  13? 107.16 107.3   28 319  79  96
   2024 07 19 19:40  22 49 49.49    +18 26 54.0    93223 1.0165 122.3 Am  13? 106.75 107.4   27 317  79  96
   2024 07 19 19:50  22 51 00.90    +18 21 32.1    93995 1.0165 122.2 Am  13? 106.42 107.5   26 315  79  96
   2024 07 19 20:00  22 52 12.04    +18 16 09.9    94762 1.0165 122.0 Am  13? 106.16 107.6   24 313  79  96
   2024 07 19 20:10  22 53 22.99    +18 10 47.6    95524 1.0165 121.9 N   14? 105.98 107.6   23 311  79  96
   2024 07 19 20:20  22 54 33.78    +18 05 25.2    96280 1.0165 121.7 N   14? 105.86 107.6   22 310  79  96
   2024 07 19 20:30  22 55 44.48    +18 00 02.9    97031 1.0165 121.6 N   14? 105.81 107.6   20 308  79  96
   2024 07 19 20:40  22 56 55.13    +17 54 40.9    97776 1.0165 121.4 C   14? 105.81 107.6   19 306  79  96
   2024 07 19 20:50  22 58 05.78    +17 49 19.3    98515 1.0165 121.3 C   14? 105.86 107.6   17 305  79  96
   ................
   2024 07 20 13:50  01 09 12.54    +12 05 57.1   113023 1.0162  97.4  r  13?  91.73  98.3    0  75  94  98
   2024 07 20 14:00  01 10 14.10    +12 03 44.3   112504 1.0162  97.1  m  13?  90.80  98.5    2  74  94  98
   2024 07 20 14:10  01 11 14.99    +12 01 29.3   111977 1.0162  96.9  m  13?  89.88  98.7    3  73  94  98
   2024 07 20 14:20  01 12 15.22    +11 59 12.1   111444 1.0162  96.7  m  13?  88.98  99.0    5  72  94  98
   2024 07 20 14:30  01 13 14.80    +11 56 52.3   110903 1.0162  96.5  m  13?  88.10  99.2    7  70  94  98
   2024 07 20 14:40  01 14 13.74    +11 54 29.8   110356 1.0162  96.3  m  13?  87.24  99.5    9  69  95  98
   2024 07 20 14:50  01 15 12.05    +11 52 04.5   109802 1.0162  96.1  m  13?  86.41  99.8   11  68  95  98
   2024 07 20 15:00  01 16 09.76    +11 49 36.2   109243 1.0162  95.9  m  13?  85.60 100.1   13  67  95  98
   2024 07 20 15:10  01 17 06.87    +11 47 04.7   108678 1.0162  95.7  m  13?  84.83 100.4   14  65  95  98
   2024 07 20 15:20  01 18 03.41    +11 44 29.9   108107 1.0162  95.6  m  13?  84.09 100.7   16  64  95  98
   2024 07 20 15:30  01 18 59.40    +11 41 51.5   107531 1.0162  95.4  m  13?  83.39 101.0   18  62  95  98
   2024 07 20 15:40  01 19 54.85    +11 39 09.5   106950 1.0162  95.2  m  13?  82.73 101.4   20  61  95  98
   2024 07 20 15:50  01 20 49.80    +11 36 23.5   106364 1.0162  95.0  m  13?  82.11 101.8   21  59  95  98
   2024 07 20 16:00  01 21 44.27    +11 33 33.6   105773 1.0162  94.8  m  13?  81.54 102.2   23  58  95  98
   2024 07 20 16:10  01 22 38.29    +11 30 39.4   105178 1.0162  94.6  m  13?  81.02 102.5   25  56  96  98
   2024 07 20 16:20  01 23 31.89    +11 27 40.8   104579 1.0162  94.5  m  13?  80.55 102.9   26  55  96  99
   2024 07 20 16:30  01 24 25.09    +11 24 37.7   103976 1.0162  94.3  m  13?  80.14 103.4   28  53  96  99
   2024 07 20 16:40  01 25 17.94    +11 21 29.9   103369 1.0162  94.1  m  13?  79.78 103.8   30  51  96  99
   2024 07 20 16:50  01 26 10.48    +11 18 17.1   102758 1.0162  93.9  m  13?  79.49 104.2   31  49  96  99
   2024 07 20 17:00  01 27 02.73    +11 14 59.3   102144 1.0162  93.8  m  13?  79.26 104.6   33  47  96  99
   2024 07 20 17:10  01 27 54.74    +11 11 36.3   101526 1.0161  93.6  m  13?  79.10 105.0   34  45  96  99
   2024 07 20 17:20  01 28 46.56    +11 08 07.9   100905 1.0161  93.4  m  13?  79.01 105.5   36  43  96  99
   2024 07 20 17:30  01 29 38.23    +11 04 33.9   100281 1.0161  93.3  m  13?  79.00 105.9   37  41  96  99
   2024 07 20 17:40  01 30 29.79    +11 00 54.2    99653 1.0161  93.1  m  13?  79.06 106.3   38  38  96  99
   2024 07 20 17:50  01 31 21.29    +10 57 08.6    99023 1.0161  92.9  m  13?  79.20 106.7   40  36  96  99
   2024 07 20 18:00  01 32 12.79    +10 53 17.0    98389 1.0161  92.8  m  13?  79.43 107.2   41  33  97  99
   2024 07 20 18:10  01 33 04.34    +10 49 19.1    97753 1.0161  92.6  m  13?  79.74 107.6   42  31  97  99
   2024 07 20 18:20  01 33 56.00    +10 45 15.0    97113 1.0161  92.4  m  13?  80.14 108.0   43  28  97  99
   2024 07 20 18:30  01 34 47.82    +10 41 04.3    96471 1.0161  92.3  m  13?  80.63 108.3   44  25  97  99
   2024 07 20 18:40  01 35 39.86    +10 36 47.0    95826 1.0161  92.1  m  13?  81.22 108.7   45  22  97  99
   2024 07 20 18:50  01 36 32.19    +10 32 22.8    95178 1.0161  91.9  m  13?  81.90 109.0   46  19  97  99
   2024 07 20 19:00  01 37 24.87    +10 27 51.8    94527 1.0161  91.8  m  13?  82.69 109.4   46  16  97  99
   2024 07 20 19:10  01 38 17.97    +10 23 13.6    93873 1.0161  91.6  m  13?  83.57 109.7   47  13  97  99
   2024 07 20 19:20  01 39 11.56    +10 18 28.2    93215 1.0161  91.4  m  13?  84.56 110.0   47  10  97  99
   2024 07 20 19:30  01 40 05.70    +10 13 35.4    92555 1.0161  91.3  m  13?  85.66 110.2   48   6  97  99
   2024 07 20 19:40  01 41 00.47    +10 08 35.2    91891 1.0161  91.1 Am  13?  86.87 110.5   48   3  97  99
   2024 07 20 19:50  01 41 55.95    +10 03 27.2    91223 1.0161  90.9 Am  13?  88.20 110.7   48   0  97  99
   2024 07 20 20:00  01 42 52.22    +09 58 11.5    90552 1.0161  90.7 At  13?  89.64 110.9   48 356  97  99
   2024 07 20 20:10  01 43 49.36    +09 52 47.8    89877 1.0161  90.6 Nm  13?  91.20 111.0   48 353  97  99
   2024 07 20 20:20  01 44 47.44    +09 47 16.1    89198 1.0161  90.4 Nm  13?  92.88 111.2   48 350  97  99
   2024 07 20 20:30  01 45 46.55    +09 41 36.1    88515 1.0161  90.2 Nm  13?  94.69 111.3   48 346  98  99
   2024 07 20 20:40  01 46 46.79    +09 35 47.8    87827 1.0161  90.0 Cm  13?  96.62 111.4   47 343  98  99
   2024 07 20 20:50  01 47 48.24    +09 29 51.0    87135 1.0161  89.8 Cm  13?  98.69 111.4   47 340  98  99
   ................
   2024 07 21 07:30  14 15 17.56    +10 05 29.2     9241 1.0160  89.2 Ct   8? 8344.7  77.4   46  18  91  99
   2024 07 21 07:40  15 35 48.84    +14 11 48.6    10937 1.0161 105.7 Cm   8? 6162.4  79.0   35  37  76  99
   2024 07 21 07:50  16 35 46.01    +16 45 45.2    13073 1.0161 116.9 Nm   9? 4499.7  80.7   26  47  65  99
   2024 07 21 08:00  17 20 49.81    +18 22 10.0    15375 1.0161 124.4 Nm  10? 3392.4  82.1   19  52  59  99
   2024 07 21 08:10  17 55 47.86    +19 24 54.3    17708 1.0161 129.3 Nm  10? 2655.2  83.2   14  55  54  99
   2024 07 21 08:20  18 23 49.46    +20 07 16.9    20007 1.0161 132.7 Am  10? 2147.1  84.2   11  58  51  99
   2024 07 21 08:30  18 46 54.96    +20 36 43.2    22246 1.0161 134.9 Am  11? 1782.9  85.1    8  59  49  99
   2024 07 21 08:40  19 06 22.45    +20 57 33.6    24414 1.0162 136.3 Am  11? 1512.4  85.9    6  60  48  99
   2024 07 21 08:50  19 23 04.37    +21 12 27.9    26509 1.0162 137.2  m  11? 1305.4  86.6    4  61  47  99
   2024 07 21 09:00  19 37 37.16    +21 23 09.1    28530 1.0162 137.7  m  11? 1142.8  87.2    3  61  46  99
   2024 07 21 09:10  19 50 26.94    +21 30 45.7    30483 1.0162 137.9  m  11? 1012.2  87.7    3  62  46  99
   2024 07 21 09:20  20 01 52.94    +21 36 04.9    32369 1.0162 137.9  m  12? 905.51  88.2    3  62  46  99
   2024 07 21 09:30  20 12 09.69    +21 39 40.0    34193 1.0162 137.8  m  12? 816.86  88.7    2  62  46  99
   2024 07 21 09:40  20 21 28.37    +21 41 55.2    35958 1.0162 137.6  m  12? 742.22  89.1    3  62  46  99
   2024 07 21 09:50  20 29 57.74    +21 43 08.1    37667 1.0162 137.3  m  12? 678.60  89.5    3  61  46  99
   2024 07 21 10:00  20 37 44.79    +21 43 32.0    39325 1.0162 137.0  m  12? 623.81  89.9    3  61  47  99
   2024 07 21 10:10  20 44 55.18    +21 43 16.9    40934 1.0162 136.6  m  12? 576.18  90.2    4  61  47  99
   2024 07 21 10:20  20 51 33.51    +21 42 30.5    42496 1.0162 136.3  m  12? 534.43  90.5    4  60  47  99
   2024 07 21 10:30  20 57 43.62    +21 41 18.7    44015 1.0163 135.8  m  12? 497.56  90.8    5  60  47  99
   2024 07 21 10:40  21 03 28.69    +21 39 46.2    45492 1.0163 135.4  m  12? 464.79  91.2    6  59  48  99
   2024 07 21 10:50  21 08 51.43    +21 37 56.7    46931 1.0163 135.0  m  12? 435.49  91.4    7  59  48  99
   2024 07 21 11:00  21 13 54.12    +21 35 52.9    48332 1.0163 134.6  m  12? 409.14  91.7    8  58  48  99
   2024 07 21 11:10  21 18 38.74    +21 33 37.3    49699 1.0163 134.2  m  12? 385.33  92.0    9  57  48  99
   2024 07 21 11:20  21 23 06.98    +21 31 11.5    51032 1.0163 133.8  m  12? 363.72  92.3   10  56  49  99
   2024 07 21 11:30  21 27 20.32    +21 28 37.1    52334 1.0163 133.4  m  13? 344.03  92.6   11  55  49  99
   2024 07 21 11:40  21 31 20.05    +21 25 55.3    53605 1.0163 133.0  m  13? 326.02  92.8   12  55  49  99
   2024 07 21 11:50  21 35 07.31    +21 23 06.9    54848 1.0163 132.6  m  13? 309.49  93.1   13  54  50  99
   2024 07 21 12:00  21 38 43.09    +21 20 12.7    56064 1.0163 132.2  m  13? 294.28  93.4   14  53  50  99
   2024 07 21 12:10  21 42 08.30    +21 17 13.4    57254 1.0163 131.9  m  13? 280.23  93.6   15  51  50  99
   2024 07 21 12:20  21 45 23.73    +21 14 09.3    58419 1.0163 131.5  m  13? 267.24  93.9   16  50  50  99
   2024 07 21 12:30  21 48 30.09    +21 11 00.8    59561 1.0163 131.2  m  13? 255.19  94.2   18  49  51  99
   2024 07 21 12:40  21 51 28.04    +21 07 48.3    60680 1.0163 130.8  m  13? 243.99  94.5   19  48  51  99
   2024 07 21 12:50  21 54 18.15    +21 04 32.0    61778 1.0163 130.5  m  13? 233.57  94.8   20  47  51  99
   2024 07 21 13:00  21 57 00.96    +21 01 12.0    62856 1.0163 130.2  m  13? 223.85  95.1   21  45  51  99
   2024 07 21 13:10  21 59 36.95    +20 57 48.4    63914 1.0163 129.9  m  13? 214.77  95.4   22  44  51  99
   2024 07 21 13:20  22 02 06.55    +20 54 21.5    64954 1.0163 129.6  m  13? 206.29  95.7   24  43  52  99
   2024 07 21 13:30  22 04 30.19    +20 50 51.1    65976 1.0163 129.3  m  13? 198.35  96.1   25  41  52  99
   2024 07 21 13:40  22 06 48.23    +20 47 17.5    66982 1.0163 129.0  m  13? 190.92  96.4   26  40  52  99
   2024 07 21 13:50  22 09 01.03    +20 43 40.6    67971 1.0163 128.8  m  13? 183.95  96.8   27  38  52  99
   2024 07 21 14:00  22 11 08.89    +20 40 00.4    68946 1.0163 128.5  m  13? 177.41  97.1   28  36  52  99
   2024 07 21 14:10  22 13 12.13    +20 36 17.0    69906 1.0163 128.3  m  13? 171.28  97.5   29  34  53  99
   2024 07 21 14:20  22 15 11.02    +20 32 30.3    70852 1.0163 128.0  m  13? 165.53  97.9   30  33  53  99
   2024 07 21 14:30  22 17 05.82    +20 28 40.4    71785 1.0163 127.8  m  13? 160.14  98.3   31  31  53  99
   2024 07 21 14:40  22 18 56.79    +20 24 47.2    72705 1.0163 127.6  m  13? 155.08  98.6   32  29  53  99
   2024 07 21 14:50  22 20 44.13    +20 20 50.7    73614 1.0163 127.3  m  13? 150.33  99.1   33  27  53  99
   2024 07 21 15:00  22 22 28.09    +20 16 51.0    74512 1.0163 127.1  m  13? 145.88  99.5   34  25  53  99
   2024 07 21 15:10  22 24 08.85    +20 12 48.1    75398 1.0163 126.9  m  13? 141.71  99.9   34  22  53  99
   2024 07 21 15:20  22 25 46.62    +20 08 41.9    76275 1.0163 126.7  m  13? 137.80 100.3   35  20  53  99
   2024 07 21 15:30  22 27 21.58    +20 04 32.5    77142 1.0163 126.5  m  13? 134.15 100.7   36  18  54  99
   2024 07 21 15:40  22 28 53.89    +20 00 19.8    78000 1.0163 126.3  m  13? 130.74 101.1   36  15  54  99
   2024 07 21 15:50  22 30 23.74    +19 56 04.0    78848 1.0163 126.1  m  13? 127.55 101.5   37  13  54  99
   2024 07 21 16:00  22 31 51.26    +19 51 45.0    79689 1.0164 126.0  m  13? 124.58 102.0   37  11  54  99
   2024 07 21 16:10  22 33 16.63    +19 47 22.9    80521 1.0164 125.8  m  13? 121.82 102.4   38   8  54  99
   2024 07 21 16:20  22 34 39.97    +19 42 57.6    81346 1.0164 125.6  m  13? 119.25 102.8   38   6  54  99
   2024 07 21 16:30  22 36 01.43    +19 38 29.3    82164 1.0164 125.5  m  13? 116.87 103.2   38   3  54  99
   2024 07 21 16:40  22 37 21.13    +19 33 58.1    82975 1.0164 125.3  m  13? 114.67 103.7   39   0  54  99
   2024 07 21 16:50  22 38 39.21    +19 29 23.9    83779 1.0164 125.1  t  13? 112.64 104.1   39 358  54  99
   2024 07 21 17:00  22 39 55.77    +19 24 46.8    84577 1.0164 125.0  e  13? 110.78 104.5   39 355  54  99
   2024 07 21 17:10  22 41 10.95    +19 20 07.0    85369 1.0164 124.8  m  13? 109.07 104.8   38 352  54  99
   2024 07 21 17:20  22 42 24.83    +19 15 24.5    86155 1.0164 124.7  m  13? 107.50 105.2   38 350  54  99
   2024 07 21 17:30  22 43 37.54    +19 10 39.4    86936 1.0164 124.5  m  13? 106.08 105.6   38 347  54  99
   2024 07 21 17:40  22 44 49.17    +19 05 51.7    87711 1.0164 124.4  m  13? 104.79 105.9   38 344  54  99
   2024 07 21 17:50  22 45 59.82    +19 01 01.7    88481 1.0164 124.2  m  13? 103.63 106.2   37 342  54  99
   2024 07 21 18:00  22 47 09.57    +18 56 09.4    89245 1.0164 124.1  m  13? 102.59 106.5   37 339  54  99
   2024 07 21 18:10  22 48 18.53    +18 51 14.8    90005 1.0164 124.0  m  13? 101.67 106.8   36 337  55  99
   2024 07 21 18:20  22 49 26.77    +18 46 18.3    90760 1.0164 123.8  m  13? 100.85 107.1   35 334  55  99
   2024 07 21 18:30  22 50 34.37    +18 41 19.7    91511 1.0164 123.7  m  13? 100.15 107.3   35 332  55  99
   2024 07 21 18:40  22 51 41.41    +18 36 19.4    92256 1.0164 123.5  m  13?  99.54 107.5   34 330  55  99
   2024 07 21 18:50  22 52 47.96    +18 31 17.4    92997 1.0164 123.4  m  13?  99.02 107.7   33 327  55  99
   2024 07 21 19:00  22 53 54.10    +18 26 13.8    93734 1.0164 123.3  m  14?  98.59 107.9   32 325  55  99
   2024 07 21 19:10  22 54 59.89    +18 21 08.8    94466 1.0164 123.1  m  14?  98.25 108.0   31 323  55  99
   2024 07 21 19:20  22 56 05.40    +18 16 02.6    95193 1.0164 123.0  m  14?  97.99 108.2   30 321  55  99
   2024 07 21 19:30  22 57 10.68    +18 10 55.2    95916 1.0163 122.9  m  14?  97.81 108.3   28 319  55  99
   2024 07 21 19:40  22 58 15.80    +18 05 46.9    96634 1.0163 122.7 Am  14?  97.69 108.3   27 317  55  99
   2024 07 21 19:50  22 59 20.80    +18 00 37.7    97348 1.0163 122.6 Am  14?  97.64 108.4   26 315  55  99
   2024 07 21 20:00  23 00 25.75    +17 55 27.8    98056 1.0163 122.5 Am  14?  97.66 108.4   25 313  55  99
   2024 07 21 20:10  23 01 30.68    +17 50 17.4    98761 1.0163 122.3 Nm  14?  97.73 108.4   23 311  55  99
   2024 07 21 20:20  23 02 35.65    +17 45 06.6    99460 1.0163 122.2 Nm  14?  97.87 108.4   22 309  55  99
   2024 07 21 20:30  23 03 40.70    +17 39 55.5   100154 1.0163 122.0 Nm  14?  98.05 108.4   21 308  55  99
   2024 07 21 20:40  23 04 45.86    +17 34 44.4   100843 1.0163 121.9 Cm  14?  98.28 108.4   19 306  55  99
   2024 07 21 20:50  23 05 51.19    +17 29 33.3   101527 1.0163 121.8 Cm  14?  98.56 108.3   18 304  55  99
   ................
   2024 07 22 13:50  01 15 08.29    +11 44 49.0   111191 1.0161  98.1  m  13?  94.74  98.7    0  75  66  97
   2024 07 22 14:00  01 16 11.76    +11 42 25.3   110624 1.0161  97.8  m  13?  93.91  98.9    2  74  66  97
   2024 07 22 14:10  01 17 14.63    +11 39 59.1   110049 1.0161  97.6  m  13?  93.10  99.1    4  73  66  97
   2024 07 22 14:20  01 18 16.90    +11 37 30.4   109467 1.0161  97.4  m  13?  92.30  99.4    6  72  66  97
   2024 07 22 14:30  01 19 18.60    +11 34 58.9   108878 1.0161  97.2  m  13?  91.53  99.6    8  70  67  97
   2024 07 22 14:40  01 20 19.72    +11 32 24.4   108282 1.0161  97.0  m  13?  90.79  99.9   10  69  67  97
   2024 07 22 14:50  01 21 20.30    +11 29 46.8   107680 1.0161  96.8  m  13?  90.07 100.2   11  68  67  97
   2024 07 22 15:00  01 22 20.34    +11 27 05.9   107072 1.0160  96.6  m  13?  89.38 100.5   13  67  67  97
   2024 07 22 15:10  01 23 19.86    +11 24 21.5   106457 1.0160  96.4  m  13?  88.73 100.8   15  65  67  97
   2024 07 22 15:20  01 24 18.89    +11 21 33.4   105837 1.0160  96.2  m  13?  88.11 101.1   17  64  67  97
   2024 07 22 15:30  01 25 17.44    +11 18 41.5   105211 1.0160  96.0  m  13?  87.54 101.4   19  62  67  97
   2024 07 22 15:40  01 26 15.54    +11 15 45.6   104579 1.0160  95.8  m  13?  87.01 101.8   20  61  67  97
   2024 07 22 15:50  01 27 13.22    +11 12 45.4   103943 1.0160  95.6  m  13?  86.52 102.1   22  59  68  97
   2024 07 22 16:00  01 28 10.50    +11 09 40.9   103302 1.0160  95.4  m  13?  86.09 102.5   24  58  68  97
   2024 07 22 16:10  01 29 07.42    +11 06 31.8   102655 1.0160  95.2  m  13?  85.71 102.9   25  56  68  97
   2024 07 22 16:20  01 30 04.01    +11 03 17.9   102005 1.0160  95.0  m  13?  85.38 103.3   27  55  68  97
   2024 07 22 16:30  01 31 00.30    +10 59 59.1   101350 1.0160  94.8  m  13?  85.11 103.7   29  53  68  97
   2024 07 22 16:40  01 31 56.33    +10 56 35.1   100690 1.0160  94.7  m  13?  84.91 104.0   30  51  68  97
   2024 07 22 16:50  01 32 52.14    +10 53 05.8   100026 1.0160  94.5  m  13?  84.78 104.4   32  49  68  97
   2024 07 22 17:00  01 33 47.78    +10 49 31.1    99359 1.0160  94.3  m  13?  84.71 104.9   33  47  68  97
   2024 07 22 17:10  01 34 43.28    +10 45 50.6    98687 1.0160  94.1  m  13?  84.72 105.3   35  45  68  97
   2024 07 22 17:20  01 35 38.69    +10 42 04.3    98012 1.0160  93.9  m  13?  84.80 105.7   36  43  69  97
   2024 07 22 17:30  01 36 34.06    +10 38 12.0    97333 1.0160  93.7  m  13?  84.97 106.1   37  41  69  97
   2024 07 22 17:40  01 37 29.44    +10 34 13.4    96650 1.0160  93.6  m  13?  85.21 106.4   39  38  69  97
   2024 07 22 17:50  01 38 24.88    +10 30 08.4    95964 1.0160  93.4  m  13?  85.55 106.8   40  36  69  97
   2024 07 22 18:00  01 39 20.45    +10 25 56.9    95274 1.0160  93.2  m  13?  85.97 107.2   41  33  69  97
   2024 07 22 18:10  01 40 16.20    +10 21 38.5    94580 1.0160  93.0  m  13?  86.49 107.6   42  31  69  97
   2024 07 22 18:20  01 41 12.19    +10 17 13.3    93883 1.0160  92.8  m  13?  87.11 107.9   43  28  69  97
   2024 07 22 18:30  01 42 08.48    +10 12 40.9    93182 1.0160  92.7  m  13?  87.82 108.3   44  25  69  97
   2024 07 22 18:40  01 43 05.14    +10 08 01.2    92478 1.0160  92.5  m  13?  88.64 108.6   45  22  69  97
   2024 07 22 18:50  01 44 02.24    +10 03 14.1    91770 1.0160  92.3  m  13?  89.57 108.9   46  19  69  97
   2024 07 22 19:00  01 44 59.85    +09 58 19.3    91058 1.0160  92.1  m  13?  90.61 109.2   47  16  70  97
   2024 07 22 19:10  01 45 58.05    +09 53 16.6    90343 1.0159  91.9  m  13?  91.76 109.5   47  13  70  97
   2024 07 22 19:20  01 46 56.91    +09 48 06.0    89623 1.0159  91.7  m  13?  93.03 109.7   48  10  70  97
   2024 07 22 19:30  01 47 56.51    +09 42 47.2    88899 1.0159  91.5  m  13?  94.43 110.0   48   7  70  97
   2024 07 22 19:40  01 48 56.93    +09 37 20.0    88171 1.0159  91.4 Am  13?  95.94 110.2   48   3  70  97
   2024 07 22 19:50  01 49 58.27    +09 31 44.2    87439 1.0159  91.2 Am  13?  97.59 110.4   49   0  70  97
   2024 07 22 20:00  01 51 00.61    +09 25 59.7    86702 1.0159  91.0 At  13?  99.37 110.5   49 356  70  97
   2024 07 22 20:10  01 52 04.03    +09 20 06.3    85960 1.0159  90.8 Nm  13? 101.29 110.7   49 353  70  97
   2024 07 22 20:20  01 53 08.64    +09 14 03.8    85212 1.0159  90.5 Nm  13? 103.35 110.8   48 350  70  97
   2024 07 22 20:30  01 54 14.54    +09 07 52.0    84460 1.0159  90.3 Nm  12? 105.56 110.9   48 346  70  97
   2024 07 22 20:40  01 55 21.82    +09 01 30.7    83702 1.0159  90.1 Cm  12? 107.92 110.9   48 343  71  97
   2024 07 22 20:50  01 56 30.59    +08 54 59.6    82938 1.0159  89.9 Cm  12? 110.44 111.0   47 340  71  97
   ................
   2024 07 23 07:30  18 38 57.58    +19 31 01.4    21954 1.0160 134.4 C   11? 1897.7  83.9    0  66  60  94
   ................
   2024 07 23 10:10  21 18 12.90    +21 11 29.1    49911 1.0161 135.7  m  12? 404.74  91.1    0  65  38  94
   2024 07 23 10:20  21 22 54.06    +21 09 59.6    51255 1.0161 135.3  m  13? 382.03  91.3    0  64  37  94
   2024 07 23 10:30  21 27 19.65    +21 08 18.7    52566 1.0161 134.9  m  13? 361.32  91.6    1  63  37  94
   2024 07 23 10:40  21 31 31.00    +21 06 28.1    53845 1.0161 134.5  m  13? 342.38  91.8    3  62  37  94
   2024 07 23 10:50  21 35 29.30    +21 04 29.2    55093 1.0161 134.1  m  13? 324.98  92.1    4  62  36  93
   2024 07 23 11:00  21 39 15.58    +21 02 23.0    56312 1.0161 133.7  m  13? 308.96  92.3    5  61  36  93
   2024 07 23 11:10  21 42 50.78    +21 00 10.3    57504 1.0161 133.3  m  13? 294.15  92.6    6  60  36  93
   2024 07 23 11:20  21 46 15.71    +20 57 51.8    58669 1.0162 132.9  m  13? 280.43  92.8    7  59  36  93
   2024 07 23 11:30  21 49 31.12    +20 55 28.1    59808 1.0162 132.6  m  13? 267.69  93.1    9  58  35  93
   2024 07 23 11:40  21 52 37.67    +20 52 59.7    60924 1.0162 132.2  m  13? 255.82  93.3   10  57  35  93
   2024 07 23 11:50  21 55 35.96    +20 50 26.8    62016 1.0162 131.9  m  13? 244.76  93.6   11  56  35  93
   2024 07 23 12:00  21 58 26.53    +20 47 49.8    63086 1.0162 131.6  m  13? 234.42  93.8   12  55  35  93
   2024 07 23 12:10  22 01 09.89    +20 45 08.9    64136 1.0162 131.2  m  13? 224.74  94.1   14  54  35  93
   2024 07 23 12:20  22 03 46.47    +20 42 24.3    65165 1.0162 130.9  m  13? 215.66  94.4   15  53  35  93
   2024 07 23 12:30  22 06 16.70    +20 39 36.1    66175 1.0162 130.6  m  13? 207.15  94.7   16  51  35  93
   2024 07 23 12:40  22 08 40.96    +20 36 44.3    67166 1.0162 130.3  m  13? 199.14  94.9   18  50  35  93
   2024 07 23 12:50  22 10 59.60    +20 33 49.0    68140 1.0162 130.1  m  13? 191.61  95.2   19  49  34  93
   2024 07 23 13:00  22 13 12.95    +20 30 50.3    69097 1.0162 129.8  m  13? 184.52  95.6   20  47  34  93
   2024 07 23 13:10  22 15 21.31    +20 27 48.2    70038 1.0162 129.5  m  13? 177.84  95.9   22  46  34  93
   2024 07 23 13:20  22 17 24.96    +20 24 42.7    70964 1.0162 129.3  m  13? 171.55  96.2   23  44  34  93
   2024 07 23 13:30  22 19 24.17    +20 21 33.8    71876 1.0162 129.0  m  13? 165.62  96.6   24  43  34  93
   2024 07 23 13:40  22 21 19.18    +20 18 21.4    72773 1.0162 128.8  m  13? 160.02  96.9   25  41  34  93
   2024 07 23 13:50  22 23 10.23    +20 15 05.6    73657 1.0162 128.5  m  13? 154.75  97.3   26  40  34  93
   2024 07 23 14:00  22 24 57.54    +20 11 46.4    74529 1.0162 128.3  m  13? 149.77  97.7   28  38  34  93
   2024 07 23 14:10  22 26 41.32    +20 08 23.6    75389 1.0162 128.1  m  13? 145.08  98.1   29  36  34  93
   2024 07 23 14:20  22 28 21.75    +20 04 57.4    76237 1.0162 127.9  m  13? 140.66  98.5   30  34  34  93
   2024 07 23 14:30  22 29 59.03    +20 01 27.6    77075 1.0162 127.7  m  13? 136.50  98.9   31  32  34  93
   2024 07 23 14:40  22 31 33.34    +19 57 54.2    77903 1.0162 127.5  m  13? 132.58  99.3   32  30  34  93
   2024 07 23 14:50  22 33 04.83    +19 54 17.3    78720 1.0162 127.3  m  13? 128.90  99.7   33  28  34  93
   2024 07 23 15:00  22 34 33.68    +19 50 36.8    79528 1.0162 127.1  m  13? 125.44 100.1   34  26  34  93
   2024 07 23 15:10  22 36 00.04    +19 46 52.7    80328 1.0162 126.9  m  13? 122.20 100.6   35  24  33  93
   2024 07 23 15:20  22 37 24.04    +19 43 05.0    81119 1.0162 126.7  m  13? 119.16 101.0   35  21  33  93
   2024 07 23 15:30  22 38 45.84    +19 39 13.7    81902 1.0162 126.6  m  13? 116.31 101.5   36  19  33  93
   2024 07 23 15:40  22 40 05.57    +19 35 18.8    82678 1.0162 126.4  m  13? 113.66 101.9   37  17  33  93
   2024 07 23 15:50  22 41 23.36    +19 31 20.4    83447 1.0162 126.2  m  13? 111.18 102.4   37  14  33  93
   2024 07 23 16:00  22 42 39.33    +19 27 18.5    84208 1.0162 126.1  m  13? 108.88 102.8   38  12  33  93
   2024 07 23 16:10  22 43 53.60    +19 23 13.1    84964 1.0162 125.9  m  13? 106.74 103.3   38   9  33  93
   2024 07 23 16:20  22 45 06.29    +19 19 04.2    85713 1.0162 125.8  m  13? 104.77 103.8   38   6  33  93
   2024 07 23 16:30  22 46 17.51    +19 14 51.9    86456 1.0162 125.6  m  13? 102.95 104.2   39   4  33  92
   2024 07 23 16:40  22 47 27.36    +19 10 36.3    87194 1.0162 125.5  m  13? 101.28 104.6   39   1  33  92
   2024 07 23 16:50  22 48 35.96    +19 06 17.4    87927 1.0162 125.3  t  13?  99.74 105.1   39 358  33  92
   2024 07 23 17:00  22 49 43.39    +19 01 55.3    88654 1.0162 125.2  e  13?  98.35 105.5   39 356  33  92
   2024 07 23 17:10  22 50 49.76    +18 57 30.1    89377 1.0162 125.1  m  13?  97.08 105.9   39 353  33  92
   2024 07 23 17:20  22 51 55.15    +18 53 01.8    90095 1.0162 124.9  m  13?  95.94 106.3   39 350  33  92
   2024 07 23 17:30  22 52 59.67    +18 48 30.6    90808 1.0162 124.8  m  13?  94.92 106.6   38 347  33  92
   2024 07 23 17:40  22 54 03.38    +18 43 56.5    91517 1.0162 124.7  m  13?  94.01 107.0   38 345  33  92
   2024 07 23 17:50  22 55 06.37    +18 39 19.7    92222 1.0162 124.5  m  13?  93.21 107.3   38 342  32  92
   2024 07 23 18:00  22 56 08.73    +18 34 40.3    92923 1.0162 124.4  m  14?  92.52 107.6   37 339  32  92
   2024 07 23 18:10  22 57 10.53    +18 29 58.3    93619 1.0162 124.3  m  14?  91.93 107.9   36 337  32  92
   2024 07 23 18:20  22 58 11.85    +18 25 14.0    94312 1.0162 124.2  m  14?  91.43 108.1   36 334  32  92
   2024 07 23 18:30  22 59 12.74    +18 20 27.3    95001 1.0162 124.1  m  14?  91.02 108.3   35 332  32  92
   2024 07 23 18:40  23 00 13.29    +18 15 38.6    95687 1.0162 123.9  m  14?  90.69 108.6   34 330  32  92
   2024 07 23 18:50  23 01 13.55    +18 10 47.8    96368 1.0162 123.8  m  14?  90.45 108.7   33 327  32  92
   2024 07 23 19:00  23 02 13.59    +18 05 55.2    97046 1.0162 123.7  m  14?  90.29 108.9   32 325  32  92
   2024 07 23 19:10  23 03 13.46    +18 01 00.9    97719 1.0162 123.6  m  14?  90.20 109.0   31 323  32  92
   2024 07 23 19:20  23 04 13.23    +17 56 05.0    98389 1.0162 123.4  m  14?  90.18 109.1   30 321  32  92
   2024 07 23 19:30  23 05 12.94    +17 51 07.7    99055 1.0162 123.3  m  14?  90.22 109.2   29 319  32  92
   2024 07 23 19:40  23 06 12.65    +17 46 09.1    99718 1.0162 123.2 Am  14?  90.33 109.3   28 316  32  92
   2024 07 23 19:50  23 07 12.41    +17 41 09.3   100376 1.0162 123.1 Am  14?  90.50 109.3   26 315  32  92
   2024 07 23 20:00  23 08 12.25    +17 36 08.6   101030 1.0162 122.9 Am  14?  90.72 109.3   25 313  32  92
   2024 07 23 20:10  23 09 12.24    +17 31 07.1   101680 1.0162 122.8 Nm  14?  90.99 109.3   24 311  31  92
   2024 07 23 20:20  23 10 12.39    +17 26 04.9   102325 1.0162 122.7 Nm  14?  91.31 109.3   22 309  31  92
   2024 07 23 20:30  23 11 12.77    +17 21 02.2   102966 1.0162 122.6 Nm  14?  91.68 109.2   21 307  31  92
   2024 07 23 20:40  23 12 13.39    +17 15 59.1   103603 1.0162 122.4 Cm  14?  92.09 109.1   19 306  31  92
   2024 07 23 20:50  23 13 14.31    +17 10 55.7   104235 1.0162 122.3 Cm  14?  92.54 109.1   18 304  31  92
   ................
   2024 07 24 13:40  01 20 11.12    +11 24 50.1   109750 1.0159  98.9  r  13?  99.06  98.9    0  76  37  86
   2024 07 24 13:50  01 21 17.42    +11 22 16.1   109142 1.0159  98.7  m  13?  98.33  99.1    1  75  38  86
   2024 07 24 14:00  01 22 23.19    +11 19 39.5   108526 1.0159  98.5  m  13?  97.61  99.3    3  74  38  86
   2024 07 24 14:10  01 23 28.43    +11 17 00.1   107903 1.0159  98.3  m  13?  96.92  99.6    5  73  38  86
   2024 07 24 14:20  01 24 33.16    +11 14 17.9   107272 1.0159  98.0  m  13?  96.25  99.8    6  72  38  86
   2024 07 24 14:30  01 25 37.39    +11 11 32.5   106634 1.0159  97.8  m  13?  95.61 100.0    8  70  38  86
   2024 07 24 14:40  01 26 41.14    +11 08 43.8   105989 1.0159  97.6  m  13?  95.00 100.3   10  69  38  86
   2024 07 24 14:50  01 27 44.42    +11 05 51.7   105337 1.0159  97.4  m  13?  94.41 100.6   12  68  38  86
   2024 07 24 15:00  01 28 47.25    +11 02 55.9   104678 1.0159  97.2  m  13?  93.87 100.9   14  67  39  86
   2024 07 24 15:10  01 29 49.65    +10 59 56.2   104013 1.0159  97.0  m  13?  93.36 101.2   15  65  39  86
   2024 07 24 15:20  01 30 51.65    +10 56 52.5   103342 1.0159  96.8  m  13?  92.89 101.5   17  64  39  85
   2024 07 24 15:30  01 31 53.27    +10 53 44.6   102665 1.0159  96.6  m  13?  92.46 101.8   19  63  39  85
   2024 07 24 15:40  01 32 54.54    +10 50 32.2   101982 1.0159  96.3  m  13?  92.09 102.2   21  61  39  85
   2024 07 24 15:50  01 33 55.48    +10 47 15.2   101294 1.0159  96.1  m  13?  91.76 102.5   22  60  39  85
   2024 07 24 16:00  01 34 56.14    +10 43 53.4   100601 1.0159  95.9  m  13?  91.49 102.9   24  58  39  85
   2024 07 24 16:10  01 35 56.53    +10 40 26.6    99902 1.0159  95.7  m  13?  91.28 103.2   26  56  39  85
   2024 07 24 16:20  01 36 56.70    +10 36 54.5    99198 1.0159  95.5  m  13?  91.13 103.6   27  55  40  85
   2024 07 24 16:30  01 37 56.69    +10 33 17.0    98489 1.0158  95.3  m  13?  91.05 104.0   29  53  40  85
   2024 07 24 16:40  01 38 56.54    +10 29 33.9    97776 1.0158  95.1  m  13?  91.03 104.3   31  51  40  85
   2024 07 24 16:50  01 39 56.29    +10 25 45.0    97058 1.0158  94.9  m  13?  91.09 104.7   32  49  40  85
   2024 07 24 17:00  01 40 55.98    +10 21 50.0    96335 1.0158  94.7  m  13?  91.22 105.1   34  47  40  85
   2024 07 24 17:10  01 41 55.68    +10 17 48.8    95608 1.0158  94.5  m  13?  91.44 105.5   35  45  40  85
   2024 07 24 17:20  01 42 55.41    +10 13 41.2    94876 1.0158  94.3  m  13?  91.74 105.8   37  43  40  85
   2024 07 24 17:30  01 43 55.25    +10 09 26.9    94140 1.0158  94.1  m  13?  92.13 106.2   38  41  40  85
   2024 07 24 17:40  01 44 55.25    +10 05 05.7    93400 1.0158  93.9  m  13?  92.61 106.6   39  39  41  85
   2024 07 24 17:50  01 45 55.46    +10 00 37.5    92655 1.0158  93.7  m  13?  93.19 106.9   41  36  41  85
   2024 07 24 18:00  01 46 55.96    +09 56 02.1    91907 1.0158  93.6  m  13?  93.87 107.3   42  34  41  85
   2024 07 24 18:10  01 47 56.80    +09 51 19.1    91153 1.0158  93.4  m  13?  94.65 107.6   43  31  41  85
   2024 07 24 18:20  01 48 58.05    +09 46 28.5    90396 1.0158  93.2  m  13?  95.54 107.9   44  28  41  85
   2024 07 24 18:30  01 49 59.79    +09 41 29.9    89634 1.0158  93.0  m  13?  96.55 108.2   45  26  41  85
   2024 07 24 18:40  01 51 02.08    +09 36 23.2    88867 1.0158  92.7  m  13?  97.67 108.5   46  23  41  85
   2024 07 24 18:50  01 52 05.02    +09 31 08.2    88096 1.0158  92.5  m  13?  98.91 108.8   47  20  42  85
   2024 07 24 19:00  01 53 08.67    +09 25 44.6    87321 1.0158  92.3  m  13? 100.28 109.1   47  17  42  85
   2024 07 24 19:10  01 54 13.13    +09 20 12.3    86540 1.0158  92.1  m  13? 101.79 109.3   48  13  42  85
   2024 07 24 19:20  01 55 18.48    +09 14 30.9    85755 1.0158  91.9  m  13? 103.43 109.5   48  10  42  85
   2024 07 24 19:30  01 56 24.81    +09 08 40.3    84964 1.0158  91.7  m  13? 105.21 109.7   49   7  42  85
   2024 07 24 19:40  01 57 32.23    +09 02 40.2    84168 1.0158  91.5 Am  12? 107.13 109.9   49   3  42  84
   2024 07 24 19:50  01 58 40.82    +08 56 30.3    83366 1.0158  91.3 Am  12? 109.21 110.1   49   0  42  84
   2024 07 24 20:00  01 59 50.70    +08 50 10.5    82559 1.0158  91.0 At  12? 111.45 110.2   49 357  43  84
   2024 07 24 20:10  02 01 01.97    +08 43 40.5    81746 1.0158  90.8 Ne  12? 113.86 110.3   49 353  43  84
   2024 07 24 20:20  02 02 14.75    +08 36 59.9    80926 1.0157  90.6 Nm  12? 116.43 110.4   49 350  43  84
   2024 07 24 20:30  02 03 29.15    +08 30 08.6    80099 1.0157  90.3 Nm  12? 119.19 110.5   49 347  43  84
   2024 07 24 20:40  02 04 45.30    +08 23 06.2    79265 1.0157  90.1 Cm  12? 122.13 110.5   48 343  43  84
   2024 07 24 20:50  02 06 03.33    +08 15 52.4    78424 1.0157  89.8 Cm  12? 125.27 110.5   48 340  44  84
   ................
   2024 07 25 10:30  21 49 17.12    +20 39 00.4    60026 1.0160 134.1  r  13? 284.36  92.2    0  65  37  78
   2024 07 25 10:40  21 52 35.00    +20 37 07.2    61148 1.0160 133.8     13? 271.74  92.4    0  65  37  78
   2024 07 25 10:50  21 55 44.14    +20 35 09.2    62245 1.0160 133.4     13? 259.95  92.6    2  64  36  78
   2024 07 25 11:00  21 58 45.09    +20 33 06.7    63318 1.0160 133.1     13? 248.92  92.8    3  63  36  78
   2024 07 25 11:10  22 01 38.38    +20 31 00.1    64368 1.0160 132.7     13? 238.59  93.0    4  62  35  78
   2024 07 25 11:20  22 04 24.47    +20 28 49.6    65396 1.0160 132.4     13? 228.88  93.3    6  61  34  78
   2024 07 25 11:30  22 07 03.80    +20 26 35.5    66404 1.0160 132.1     13? 219.74  93.5    7  60  34  78
   2024 07 25 11:40  22 09 36.75    +20 24 17.9    67391 1.0160 131.8  m  13? 211.14  93.7    9  59  34  78
   2024 07 25 11:50  22 12 03.70    +20 21 56.9    68359 1.0160 131.5  m  13? 203.03  94.0   10  58  33  77
   2024 07 25 12:00  22 14 24.97    +20 19 32.6    69308 1.0160 131.2  m  13? 195.37  94.2   11  56  33  77
   2024 07 25 12:10  22 16 40.89    +20 17 05.0    70239 1.0160 130.9  m  13? 188.13  94.5   13  55  32  77
   2024 07 25 12:20  22 18 51.72    +20 14 34.2    71154 1.0160 130.6  m  13? 181.28  94.8   14  54  32  77
   2024 07 25 12:30  22 20 57.76    +20 12 00.2    72053 1.0160 130.4  m  13? 174.80  95.1   16  53  31  77
   2024 07 25 12:40  22 22 59.24    +20 09 23.0    72936 1.0160 130.1  m  13? 168.66  95.4   17  51  31  77
   2024 07 25 12:50  22 24 56.41    +20 06 42.5    73804 1.0160 129.9  m  13? 162.85  95.7   18  50  31  77
   2024 07 25 13:00  22 26 49.48    +20 03 58.6    74658 1.0160 129.6  m  13? 157.34  96.0   20  49  30  77
   2024 07 25 13:10  22 28 38.66    +20 01 11.5    75499 1.0160 129.4  m  13? 152.12  96.3   21  47  30  77
   2024 07 25 13:20  22 30 24.16    +19 58 21.0    76326 1.0160 129.2  m  13? 147.17  96.7   22  46  30  77
   2024 07 25 13:30  22 32 06.16    +19 55 27.1    77142 1.0160 128.9  m  13? 142.48  97.0   24  44  29  77
   2024 07 25 13:40  22 33 44.84    +19 52 29.7    77946 1.0160 128.7  m  13? 138.04  97.4   25  42  29  77
   2024 07 25 13:50  22 35 20.36    +19 49 28.8    78739 1.0160 128.5  m  13? 133.84  97.8   26  41  29  77
   2024 07 25 14:00  22 36 52.89    +19 46 24.3    79521 1.0160 128.3  m  13? 129.86  98.2   27  39  29  77
   2024 07 25 14:10  22 38 22.59    +19 43 16.2    80293 1.0160 128.1  m  13? 126.10  98.6   29  37  28  77
   2024 07 25 14:20  22 39 49.60    +19 40 04.5    81056 1.0160 127.9  m  13? 122.55  99.1   30  35  28  77
   2024 07 25 14:30  22 41 14.07    +19 36 49.1    81809 1.0160 127.7  m  13? 119.19  99.5   31  33  28  76
   2024 07 25 14:40  22 42 36.12    +19 33 29.9    82554 1.0160 127.6  m  13? 116.04  99.9   32  31  27  76
   2024 07 25 14:50  22 43 55.90    +19 30 07.0    83291 1.0160 127.4  m  13? 113.06 100.4   33  29  27  76
   2024 07 25 15:00  22 45 13.53    +19 26 40.3    84021 1.0160 127.2  m  13? 110.27 100.8   34  27  27  76
   2024 07 25 15:10  22 46 29.13    +19 23 09.9    84742 1.0160 127.1  m  13? 107.65 101.3   35  25  27  76
   2024 07 25 15:20  22 47 42.83    +19 19 35.6    85458 1.0160 126.9  m  13? 105.20 101.8   35  22  26  76
   2024 07 25 15:30  22 48 54.73    +19 15 57.6    86166 1.0160 126.8  m  13? 102.90 102.3   36  20  26  76
   2024 07 25 15:40  22 50 04.94    +19 12 15.7    86868 1.0160 126.6  m  13? 100.77 102.7   37  17  26  76
   2024 07 25 15:50  22 51 13.58    +19 08 30.1    87565 1.0160 126.5  m  13?  98.79 103.2   38  15  26  76
   2024 07 25 16:00  22 52 20.74    +19 04 40.8    88256 1.0160 126.3  m  13?  96.95 103.7   38  12  25  76
   2024 07 25 16:10  22 53 26.54    +19 00 47.7    88942 1.0160 126.2  m  13?  95.26 104.2   38  10  25  76
   2024 07 25 16:20  22 54 31.06    +18 56 51.0    89622 1.0160 126.1  m  13?  93.70 104.7   39   7  25  76
   2024 07 25 16:30  22 55 34.40    +18 52 50.6    90298 1.0160 125.9  m  13?  92.27 105.1   39   4  25  76
   2024 07 25 16:40  22 56 36.65    +18 48 46.6    90970 1.0160 125.8  m  14?  90.98 105.6   39   1  25  76
   2024 07 25 16:50  22 57 37.90    +18 44 39.2    91637 1.0160 125.7  t  14?  89.80 106.0   39 359  24  76
   2024 07 25 17:00  22 58 38.24    +18 40 28.3    92300 1.0160 125.6  e  14?  88.74 106.5   39 356  24  76
   2024 07 25 17:10  22 59 37.75    +18 36 14.0    92960 1.0160 125.4  m  14?  87.80 106.9   39 353  24  76
   2024 07 25 17:20  23 00 36.51    +18 31 56.5    93615 1.0160 125.3  m  14?  86.96 107.3   39 350  24  76
   2024 07 25 17:30  23 01 34.61    +18 27 35.7    94267 1.0160 125.2  m  14?  86.23 107.6   39 348  24  76
   2024 07 25 17:40  23 02 32.10    +18 23 11.9    94916 1.0160 125.1  m  14?  85.61 108.0   38 345  23  76
   2024 07 25 17:50  23 03 29.08    +18 18 45.1    95561 1.0160 125.0  m  14?  85.07 108.3   38 342  23  76
   2024 07 25 18:00  23 04 25.61    +18 14 15.5    96203 1.0160 124.9  m  14?  84.63 108.6   37 339  23  75
   2024 07 25 18:10  23 05 21.75    +18 09 43.1    96842 1.0160 124.7  m  14?  84.28 108.9   37 337  23  75
   2024 07 25 18:20  23 06 17.58    +18 05 08.1    97477 1.0160 124.6  m  14?  84.02 109.1   36 334  22  75
   2024 07 25 18:30  23 07 13.15    +18 00 30.6    98110 1.0160 124.5  m  14?  83.83 109.3   35 332  22  75
   2024 07 25 18:40  23 08 08.53    +17 55 50.7    98739 1.0160 124.4  m  14?  83.72 109.5   34 329  22  75
   2024 07 25 18:50  23 09 03.78    +17 51 08.6    99365 1.0160 124.3  m  14?  83.68 109.7   33 327  22  75
   2024 07 25 19:00  23 09 58.95    +17 46 24.4    99988 1.0160 124.2  m  14?  83.72 109.8   32 325  22  75
   2024 07 25 19:10  23 10 54.10    +17 41 38.2   100608 1.0160 124.1  m  14?  83.81 110.0   31 322  21  75
   2024 07 25 19:20  23 11 49.27    +17 36 50.3   101225 1.0160 124.0  m  14?  83.98 110.0   30 320  21  75
   2024 07 25 19:30  23 12 44.52    +17 32 00.7   101838 1.0160 123.9  m  14?  84.20 110.1   29 318  21  75
   2024 07 25 19:40  23 13 39.89    +17 27 09.6   102448 1.0160 123.7 Am  14?  84.47 110.1   28 316  21  75
   2024 07 25 19:50  23 14 35.42    +17 22 17.2   103054 1.0160 123.6 Am  14?  84.80 110.1   26 314  21  75
   2024 07 25 20:00  23 15 31.17    +17 17 23.5   103657 1.0160 123.5 Am  14?  85.18 110.1   25 312  20  75
   2024 07 25 20:10  23 16 27.16    +17 12 28.9   104256 1.0160 123.4 Nm  14?  85.61 110.1   24 310  20  75
   2024 07 25 20:20  23 17 23.45    +17 07 33.3   104851 1.0160 123.3 Nm  14?  86.08 110.0   22 309  20  75
   2024 07 25 20:30  23 18 20.05    +17 02 37.0   105442 1.0160 123.2 Cm  14?  86.59 110.0   21 307  20  75
   2024 07 25 20:40  23 19 17.01    +16 57 40.1   106029 1.0160 123.0 Cm  14?  87.14 109.9   19 305  20  75
   ................
   2024 07 26 13:40  01 26 37.87    +11 01 24.5   107510 1.0157  99.5  r  13? 103.35  99.3    0  76  10  66
   2024 07 26 13:50  01 27 46.96    +10 58 36.4   106853 1.0157  99.3  m  13? 102.76  99.5    1  75  10  66
   2024 07 26 14:00  01 28 55.60    +10 55 45.4   106188 1.0157  99.1  m  13? 102.19  99.7    3  74  10  66
   2024 07 26 14:10  01 30 03.81    +10 52 51.2   105515 1.0157  98.8  m  13? 101.65 100.0    5  73  10  66
   2024 07 26 14:20  01 31 11.61    +10 49 53.8   104834 1.0157  98.6  m  13? 101.13 100.2    7  72  10  66
   2024 07 26 14:30  01 32 19.00    +10 46 52.9   104146 1.0157  98.4  m  13? 100.64 100.4    9  71  10  66
   2024 07 26 14:40  01 33 26.01    +10 43 48.3   103450 1.0157  98.1  m  13? 100.19 100.7   11  69  10  66
   2024 07 26 14:50  01 34 32.66    +10 40 39.8   102747 1.0157  97.9  m  13?  99.77 101.0   12  68  10  66
   2024 07 26 15:00  01 35 38.97    +10 37 27.2   102037 1.0157  97.7  m  13?  99.39 101.3   14  67  11  66
   2024 07 26 15:10  01 36 44.96    +10 34 10.3   101321 1.0157  97.5  m  13?  99.06 101.6   16  66  11  66
   2024 07 26 15:20  01 37 50.65    +10 30 48.9   100598 1.0157  97.2  m  13?  98.77 101.9   18  64  11  66
   2024 07 26 15:30  01 38 56.09    +10 27 22.9    99868 1.0157  97.0  m  13?  98.53 102.2   19  63  11  66
   2024 07 26 15:40  01 40 01.30    +10 23 51.9    99133 1.0157  96.8  m  13?  98.35 102.5   21  61  11  65
   2024 07 26 15:50  01 41 06.30    +10 20 15.7    98391 1.0157  96.6  m  13?  98.22 102.9   23  60  11  65
   2024 07 26 16:00  01 42 11.15    +10 16 34.3    97644 1.0157  96.4  m  13?  98.16 103.2   25  58  12  65
   2024 07 26 16:10  01 43 15.87    +10 12 47.2    96891 1.0157  96.1  m  13?  98.16 103.5   26  57  12  65
   2024 07 26 16:20  01 44 20.51    +10 08 54.4    96132 1.0157  95.9  m  13?  98.23 103.9   28  55  12  65
   2024 07 26 16:30  01 45 25.11    +10 04 55.5    95368 1.0157  95.7  m  13?  98.37 104.2   30  53  12  65
   2024 07 26 16:40  01 46 29.72    +10 00 50.4    94598 1.0157  95.5  m  13?  98.60 104.6   31  52  12  65
   2024 07 26 16:50  01 47 34.39    +09 56 38.9    93823 1.0157  95.3  m  13?  98.90 104.9   33  50  12  65
   2024 07 26 17:00  01 48 39.16    +09 52 20.6    93043 1.0157  95.0  m  13?  99.29 105.3   34  48  13  65
   2024 07 26 17:10  01 49 44.10    +09 47 55.4    92258 1.0156  94.8  m  13?  99.78 105.6   36  46  13  65
   2024 07 26 17:20  01 50 49.26    +09 43 23.1    91467 1.0156  94.6  m  13? 100.36 105.9   37  44  13  65
   2024 07 26 17:30  01 51 54.70    +09 38 43.3    90672 1.0156  94.4  m  13? 101.04 106.3   38  41  13  65
   2024 07 26 17:40  01 53 00.50    +09 33 55.9    89871 1.0156  94.2  m  13? 101.82 106.6   40  39  13  65
   2024 07 26 17:50  01 54 06.71    +09 29 00.6    89065 1.0156  94.0  m  13? 102.72 106.9   41  37  14  65
   2024 07 26 18:00  01 55 13.41    +09 23 57.1    88254 1.0156  93.7  m  13? 103.73 107.2   42  34  14  65
   2024 07 26 18:10  01 56 20.67    +09 18 45.3    87438 1.0156  93.5  m  13? 104.86 107.5   43  32  14  65
   2024 07 26 18:20  01 57 28.58    +09 13 24.7    86617 1.0156  93.3  m  13? 106.12 107.8   44  29  14  65
   2024 07 26 18:30  01 58 37.22    +09 07 55.3    85790 1.0156  93.1  m  13? 107.51 108.1   45  26  14  65
   2024 07 26 18:40  01 59 46.67    +09 02 16.6    84957 1.0156  92.8  m  13? 109.04 108.3   46  23  15  65
   2024 07 26 18:50  02 00 57.03    +08 56 28.5    84119 1.0156  92.6  m  12? 110.71 108.6   47  20  15  64
   2024 07 26 19:00  02 02 08.39    +08 50 30.6    83276 1.0156  92.4  m  12? 112.53 108.8   48  17  15  64
   2024 07 26 19:10  02 03 20.85    +08 44 22.7    82426 1.0156  92.1  m  12? 114.51 109.0   48  14  15  64
   2024 07 26 19:20  02 04 34.52    +08 38 04.4    81570 1.0156  91.9  m  12? 116.65 109.2   49  11  16  64
   2024 07 26 19:30  02 05 49.51    +08 31 35.4    80708 1.0156  91.6  m  12? 118.96 109.4   49   8  16  64
   2024 07 26 19:40  02 07 05.93    +08 24 55.5    79839 1.0156  91.4 Am  12? 121.46 109.5   50   4  16  64
   2024 07 26 19:50  02 08 23.91    +08 18 04.2    78963 1.0156  91.1 Am  12? 124.14 109.6   50   1  16  64
   2024 07 26 20:00  02 09 43.57    +08 11 01.3    78080 1.0156  90.9 Nt  12? 127.02 109.7   50 357  17  64
   2024 07 26 20:10  02 11 05.05    +08 03 46.3    77189 1.0156  90.6 Ne  12? 130.11 109.8   50 354  17  64
   2024 07 26 20:20  02 12 28.49    +07 56 19.0    76290 1.0156  90.3 Nm  12? 133.41 109.9   50 351  17  64
   2024 07 26 20:30  02 13 54.04    +07 48 38.8    75383 1.0156  90.0 Cm  12? 136.94 109.9   50 347  18  64
   2024 07 26 20:40  02 15 21.85    +07 40 45.4    74467 1.0156  89.7 Cm  12? 140.72 110.0   49 344  18  64
   ................
   2024 07 27 10:50  22 11 54.73    +20 07 06.4    68587 1.0158 133.1     13? 217.69  93.0    0  65  49  57
   2024 07 27 11:00  22 14 26.07    +20 05 10.2    69539 1.0158 132.8     13? 209.46  93.2    2  64  49  56
   2024 07 27 11:10  22 16 51.68    +20 03 11.1    70471 1.0158 132.5     13? 201.66  93.4    3  63  48  56
   2024 07 27 11:20  22 19 11.85    +20 01 09.0    71384 1.0158 132.2     13? 194.27  93.6    5  62  48  56
   2024 07 27 11:30  22 21 26.85    +19 59 04.1    72279 1.0158 131.9     13? 187.25  93.8    6  61  47  56
   2024 07 27 11:40  22 23 36.95    +19 56 56.3    73157 1.0158 131.6     13? 180.59  94.0    8  60  47  56
   2024 07 27 11:50  22 25 42.39    +19 54 45.7    74019 1.0159 131.4     13? 174.25  94.3    9  59  46  56
   2024 07 27 12:00  22 27 43.40    +19 52 32.2    74864 1.0159 131.1     13? 168.23  94.5   11  58  46  56
   2024 07 27 12:10  22 29 40.18    +19 50 15.7    75695 1.0159 130.9     13? 162.49  94.8   12  56  46  56
   2024 07 27 12:20  22 31 32.93    +19 47 56.4    76511 1.0159 130.6     13? 157.04  95.1   14  55  45  56
   2024 07 27 12:30  22 33 21.86    +19 45 34.0    77313 1.0159 130.4     13? 151.84  95.4   15  54  45  56
   2024 07 27 12:40  22 35 07.12    +19 43 08.6    78102 1.0159 130.1     13? 146.89  95.7   17  53  45  56
   2024 07 27 12:50  22 36 48.91    +19 40 40.0    78878 1.0159 129.9     13? 142.18  96.0   18  51  44  55
   2024 07 27 13:00  22 38 27.37    +19 38 08.2    79642 1.0159 129.7     13? 137.70  96.3   19  50  44  55
   2024 07 27 13:10  22 40 02.66    +19 35 33.2    80394 1.0159 129.5     13? 133.43  96.7   21  48  44  55
   2024 07 27 13:20  22 41 34.94    +19 32 54.7    81136 1.0159 129.3     13? 129.37  97.1   22  47  43  55
   2024 07 27 13:30  22 43 04.34    +19 30 12.9    81867 1.0159 129.1     13? 125.51  97.4   24  45  43  55
   2024 07 27 13:40  22 44 31.00    +19 27 27.6    82588 1.0159 128.9     13? 121.84  97.8   25  43  43  55
   2024 07 27 13:50  22 45 55.05    +19 24 38.7    83299 1.0159 128.7  m  13? 118.36  98.2   26  42  43  55
   2024 07 27 14:00  22 47 16.62    +19 21 46.2    84002 1.0159 128.5  m  13? 115.06  98.7   27  40  42  55
   2024 07 27 14:10  22 48 35.83    +19 18 50.0    84696 1.0159 128.4  m  13? 111.93  99.1   29  38  42  55
   2024 07 27 14:20  22 49 52.79    +19 15 50.0    85382 1.0159 128.2  m  13? 108.98  99.6   30  36  42  55
   2024 07 27 14:30  22 51 07.64    +19 12 46.3    86060 1.0159 128.0  m  13? 106.19 100.0   31  34  42  55
   2024 07 27 14:40  22 52 20.46    +19 09 38.7    86731 1.0159 127.9  m  13? 103.56 100.5   32  32  41  55
   2024 07 27 14:50  22 53 31.39    +19 06 27.3    87396 1.0159 127.7  m  13? 101.08 100.9   33  30  41  55
   2024 07 27 15:00  22 54 40.51    +19 03 12.0    88054 1.0159 127.6  m  13?  98.75 101.4   34  27  41  54
   2024 07 27 15:10  22 55 47.93    +18 59 52.8    88705 1.0159 127.4  m  13?  96.58 101.9   35  25  41  54
   2024 07 27 15:20  22 56 53.76    +18 56 29.6    89351 1.0159 127.3  m  14?  94.54 102.4   36  23  41  54
   2024 07 27 15:30  22 57 58.08    +18 53 02.5    89992 1.0159 127.1  m  14?  92.65 102.9   37  20  40  54
   2024 07 27 15:40  22 59 01.00    +18 49 31.5    90628 1.0159 127.0  m  14?  90.89 103.5   37  18  40  54
   2024 07 27 15:50  23 00 02.61    +18 45 56.6    91259 1.0159 126.9  m  14?  89.26 104.0   38  15  40  54
   2024 07 27 16:00  23 01 02.99    +18 42 17.8    91885 1.0159 126.8  m  14?  87.77 104.5   38  13  40  54
   2024 07 27 16:10  23 02 02.24    +18 38 35.1    92507 1.0159 126.6  m  14?  86.39 105.0   39  10  40  54
   2024 07 27 16:20  23 03 00.43    +18 34 48.5    93125 1.0159 126.5  m  14?  85.14 105.5   39   7  39  54
   2024 07 27 16:30  23 03 57.66    +18 30 58.2    93740 1.0159 126.4  m  14?  84.00 106.0   39   4  39  54
   2024 07 27 16:40  23 04 54.01    +18 27 04.2    94350 1.0159 126.3  m  14?  82.98 106.4   40   2  39  54
   2024 07 27 16:50  23 05 49.54    +18 23 06.4    94958 1.0159 126.2  t  14?  82.07 106.9   40 359  39  54
   2024 07 27 17:00  23 06 44.35    +18 19 05.1    95562 1.0159 126.1  e  14?  81.26 107.3   40 356  39  54
   2024 07 27 17:10  23 07 38.51    +18 15 00.2    96163 1.0159 125.9  m  14?  80.56 107.7   40 353  39  54
   2024 07 27 17:20  23 08 32.09    +18 10 51.9    96761 1.0159 125.8  m  14?  79.95 108.1   39 350  38  54
   2024 07 27 17:30  23 09 25.15    +18 06 40.3    97356 1.0159 125.7  m  14?  79.44 108.5   39 347  38  54
   2024 07 27 17:40  23 10 17.78    +18 02 25.4    97949 1.0159 125.6  m  14?  79.03 108.9   39 345  38  53
   2024 07 27 17:50  23 11 10.03    +17 58 07.3    98538 1.0159 125.5  m  14?  78.69 109.2   38 342  38  53
   2024 07 27 18:00  23 12 01.97    +17 53 46.2    99126 1.0159 125.4  m  14?  78.45 109.5   38 339  38  53
   2024 07 27 18:10  23 12 53.66    +17 49 22.2    99710 1.0159 125.3  m  14?  78.28 109.7   37 337  38  53
   2024 07 27 18:20  23 13 45.17    +17 44 55.4   100292 1.0159 125.2  m  14?  78.19 110.0   36 334  37  53
   2024 07 27 18:30  23 14 36.55    +17 40 25.9   100872 1.0159 125.1  m  14?  78.18 110.2   35 331  37  53
   2024 07 27 18:40  23 15 27.86    +17 35 53.8   101449 1.0159 125.0  m  14?  78.23 110.4   35 329  37  53
   2024 07 27 18:50  23 16 19.15    +17 31 19.4   102023 1.0159 124.9  m  14?  78.35 110.5   34 327  37  53
   2024 07 27 19:00  23 17 10.47    +17 26 42.7   102595 1.0159 124.8  m  14?  78.54 110.6   33 324  37  53
   2024 07 27 19:10  23 18 01.88    +17 22 03.9   103164 1.0159 124.7  m  14?  78.78 110.7   31 322  37  53
   2024 07 27 19:20  23 18 53.42    +17 17 23.1   103730 1.0159 124.6  m  14?  79.09 110.8   30 320  36  53
   2024 07 27 19:30  23 19 45.14    +17 12 40.4   104293 1.0159 124.5  m  14?  79.44 110.8   29 318  36  53
   2024 07 27 19:40  23 20 37.07    +17 07 56.1   104854 1.0159 124.4 Am  14?  79.85 110.8   28 316  36  53
   2024 07 27 19:50  23 21 29.27    +17 03 10.3   105411 1.0159 124.3 Am  14?  80.31 110.8   27 314  36  53
   2024 07 27 20:00  23 22 21.77    +16 58 23.1   105965 1.0159 124.2 Nm  14?  80.82 110.8   25 312  36  53
   2024 07 27 20:10  23 23 14.61    +16 53 34.7   106516 1.0159 124.1 Nm  14?  81.37 110.7   24 310  36  53
   2024 07 27 20:20  23 24 07.83    +16 48 45.2   107063 1.0159 124.0 Nm  14?  81.96 110.6   22 308  36  53
   2024 07 27 20:30  23 25 01.45    +16 43 54.8   107606 1.0159 123.8 Cm  14?  82.58 110.5   21 307  35  53
   2024 07 27 20:40  23 25 55.50    +16 39 03.7   108146 1.0159 123.7 Cm  14?  83.25 110.4   19 305  35  53
   ................
   

Gaia (JPL-ID: -139479)

   Date (UTC) HH:MM   RA              Dec         delta   r     elong SM  mag  '/hr    PA   alt  az moo ill
   ---- -- -- -----  -------------   -----------  ------ ------ ----- --  --- ------ ------ --- --- --- ---
   2024 07 14 07:30  20 01 13.47    -26 49 00.4   0.0096 1.0259 172.1 Cm  20?   4.47 100.1    0 121  90  53
   2024 07 14 07:40  20 01 16.70    -26 49 08.5   0.0095 1.0259 172.1 Cm  20?   4.33 100.7    2 119  90  53
   2024 07 14 07:50  20 01 19.82    -26 49 16.7   0.0095 1.0259 172.0 Nm  20?   4.19 101.3    4 118  90  53
   2024 07 14 08:00  20 01 22.84    -26 49 25.1   0.0095 1.0259 172.0 Nm  20?   4.05 101.8    6 117  90  53
   2024 07 14 08:10  20 01 25.74    -26 49 33.6   0.0095 1.0259 172.0 Nm  20?   3.91 102.4    8 116  90  53
   2024 07 14 08:20  20 01 28.53    -26 49 42.1   0.0095 1.0259 172.0 Am  20?   3.76 103.0   10 115  90  53
   2024 07 14 08:30  20 01 31.21    -26 49 50.7   0.0095 1.0259 172.0 Am  20?   3.62 103.6   12 113  90  53
   2024 07 14 08:40  20 01 33.78    -26 49 59.3   0.0095 1.0259 172.0 Am  20?   3.47 104.1   14 112  90  53
   2024 07 14 08:50  20 01 36.24    -26 50 07.9   0.0095 1.0259 172.0  m  20?   3.33 104.7   16 111  90  53
   2024 07 14 09:00  20 01 38.59    -26 50 16.4   0.0095 1.0259 172.0  m  20?   3.18 105.3   18 110  90  53
   2024 07 14 09:10  20 01 40.82    -26 50 24.9   0.0095 1.0259 172.0  m  20?   3.03 105.9   20 109  90  53
   2024 07 14 09:20  20 01 42.94    -26 50 33.2   0.0095 1.0259 172.0  m  20?   2.89 106.5   22 108  90  54
   2024 07 14 09:30  20 01 44.96    -26 50 41.4   0.0095 1.0259 172.0  m  20?   2.74 107.1   24 107  90  54
   2024 07 14 09:40  20 01 46.86    -26 50 49.5   0.0095 1.0259 172.0  m  20?   2.60 107.6   26 106  90  54
   2024 07 14 09:50  20 01 48.66    -26 50 57.4   0.0095 1.0259 172.0  m  20?   2.46 108.2   28 105  90  54
   2024 07 14 10:00  20 01 50.35    -26 51 05.0   0.0095 1.0259 172.0  m  20?   2.32 108.8   30 104  90  54
   2024 07 14 10:10  20 01 51.93    -26 51 12.4   0.0095 1.0259 172.0  m  20?   2.18 109.3   32 103  90  54
   2024 07 14 10:20  20 01 53.42    -26 51 19.5   0.0095 1.0259 172.0  m  20?   2.04 109.8   34 102  90  54
   2024 07 14 10:30  20 01 54.80    -26 51 26.4   0.0095 1.0259 172.0  m  20?   1.90 110.3   36 101  90  54
   2024 07 14 10:40  20 01 56.08    -26 51 32.9   0.0095 1.0259 172.0  m  20?   1.77 110.8   38 100  89  54
   2024 07 14 10:50  20 01 57.27    -26 51 39.0   0.0095 1.0259 172.0  m  20?   1.64 111.2   40  99  89  54
   2024 07 14 11:00  20 01 58.36    -26 51 44.7   0.0095 1.0259 172.0  m  20?   1.51 111.5   43  98  89  54
   2024 07 14 11:10  20 01 59.36    -26 51 50.1   0.0095 1.0259 172.0  m  20?   1.38 111.7   45  97  89  54
   2024 07 14 11:20  20 02 00.27    -26 51 55.0   0.0095 1.0259 172.0  m  20?   1.26 111.8   47  96  89  54
   2024 07 14 11:30  20 02 01.10    -26 51 59.5   0.0095 1.0259 172.0  m  20?   1.13 111.8   49  95  89  54
   2024 07 14 11:40  20 02 01.85    -26 52 03.5   0.0095 1.0259 172.0  m  20?   1.02 111.5   51  94  89  54
   2024 07 14 11:50  20 02 02.51    -26 52 07.0   0.0095 1.0259 172.0  m  20?   0.90 110.9   53  93  89  54
   2024 07 14 12:00  20 02 03.11    -26 52 10.0   0.0095 1.0259 172.0  m  20?   0.79 109.9   55  92  89  54
   2024 07 14 12:10  20 02 03.63    -26 52 12.5   0.0095 1.0259 172.0  m  20?   0.69 108.4   57  91  89  54
   2024 07 14 12:20  20 02 04.09    -26 52 14.4   0.0095 1.0259 172.0  m  20?   0.59 105.9   60  90  89  54
   2024 07 14 12:30  20 02 04.48    -26 52 15.7   0.0095 1.0259 172.0  m  20?   0.50 102.1   62  88  89  54
   2024 07 14 12:40  20 02 04.81    -26 52 16.5   0.0095 1.0259 172.0  m  20?   0.41  96.3   64  87  89  54
   2024 07 14 12:50  20 02 05.09    -26 52 16.7   0.0095 1.0259 172.0  m  20?   0.34  87.4   66  85  89  54
   2024 07 14 13:00  20 02 05.32    -26 52 16.2   0.0095 1.0259 172.0  m  20?   0.29  74.3   68  84  89  55
   2024 07 14 13:10  20 02 05.50    -26 52 15.1   0.0095 1.0259 172.0  m  20?   0.26  57.0   70  81  89  55
   2024 07 14 13:20  20 02 05.65    -26 52 13.4   0.0095 1.0259 172.0  m  20?   0.26  38.7   72  79  88  55
   2024 07 14 13:30  20 02 05.75    -26 52 11.0   0.0095 1.0259 172.0  m  20?   0.29  23.7   74  76  88  55
   2024 07 14 13:40  20 02 05.82    -26 52 08.0   0.0095 1.0259 172.0  m  20?   0.34  13.2   77  73  88  55
   2024 07 14 13:50  20 02 05.87    -26 52 04.3   0.0095 1.0259 172.0  m  20?   0.40   6.5   79  68  88  55
   2024 07 14 14:00  20 02 05.90    -26 52 00.0   0.0095 1.0259 172.0  m  20?   0.47   2.3   81  62  88  55
   2024 07 14 14:10  20 02 05.90    -26 51 54.9   0.0095 1.0259 172.0  m  20?   0.54 359.8   82  52  88  55
   2024 07 14 14:20  20 02 05.90    -26 51 49.2   0.0095 1.0259 172.1  m  20?   0.61 358.6   84  38  88  55
   2024 07 14 14:30  20 02 05.88    -26 51 42.8   0.0095 1.0259 172.1  m  20?   0.67 358.1   85  15  88  55
   2024 07 14 14:40  20 02 05.87    -26 51 35.7   0.0095 1.0259 172.1  t  20?   0.74 358.3   85 347  88  55
   2024 07 14 14:50  20 02 05.86    -26 51 28.0   0.0095 1.0259 172.1  m  20?   0.81 358.8   84 323  88  55
   2024 07 14 15:00  20 02 05.85    -26 51 19.5   0.0095 1.0259 172.1     20?   0.88 359.8   83 308  88  55
   2024 07 14 15:10  20 02 05.86    -26 51 10.4   0.0095 1.0259 172.1     20?   0.95   1.0   81 298  88  55
   2024 07 14 15:20  20 02 05.88    -26 51 00.6   0.0095 1.0259 172.1     20?   1.01   2.4   79 291  88  55
   2024 07 14 15:30  20 02 05.93    -26 50 50.2   0.0095 1.0259 172.1     20?   1.08   4.0   77 287  87  56
   2024 07 14 15:40  20 02 06.00    -26 50 39.0   0.0095 1.0259 172.1     20?   1.15   5.7   75 283  87  56
   2024 07 14 15:50  20 02 06.10    -26 50 27.2   0.0095 1.0259 172.1     20?   1.22   7.5   73 280  87  56
   2024 07 14 16:00  20 02 06.24    -26 50 14.8   0.0095 1.0259 172.1     20?   1.29   9.4   70 278  87  56
   2024 07 14 16:10  20 02 06.42    -26 50 01.8   0.0095 1.0259 172.1     20?   1.36  11.4   68 276  87  56
   2024 07 14 16:20  20 02 06.65    -26 49 48.1   0.0095 1.0259 172.1     20?   1.44  13.4   66 274  87  56
   2024 07 14 16:30  20 02 06.93    -26 49 33.8   0.0095 1.0259 172.1     20?   1.51  15.4   64 272  87  56
   2024 07 14 16:40  20 02 07.26    -26 49 18.9   0.0095 1.0259 172.1     20?   1.59  17.5   62 271  87  56
   2024 07 14 16:50  20 02 07.65    -26 49 03.4   0.0095 1.0259 172.1     20?   1.67  19.5   60 270  87  56
   2024 07 14 17:00  20 02 08.10    -26 48 47.4   0.0095 1.0259 172.1     20?   1.75  21.6   58 268  87  56
   2024 07 14 17:10  20 02 08.62    -26 48 30.9   0.0095 1.0259 172.1     20?   1.84  23.6   56 267  86  56
   2024 07 14 17:20  20 02 09.21    -26 48 13.8   0.0095 1.0259 172.2     20?   1.93  25.7   53 266  86  56
   2024 07 14 17:30  20 02 09.87    -26 47 56.2   0.0095 1.0259 172.2     20?   2.02  27.7   51 265  86  56
   2024 07 14 17:40  20 02 10.62    -26 47 38.1   0.0095 1.0259 172.2     20?   2.11  29.6   49 264  86  57
   2024 07 14 17:50  20 02 11.44    -26 47 19.5   0.0095 1.0259 172.2     20?   2.21  31.5   47 263  86  57
   2024 07 14 18:00  20 02 12.35    -26 47 00.5   0.0095 1.0259 172.2     20?   2.31  33.4   45 262  86  57
   2024 07 14 18:10  20 02 13.34    -26 46 41.1   0.0095 1.0259 172.2     20?   2.41  35.3   43 261  86  57
   2024 07 14 18:20  20 02 14.43    -26 46 21.3   0.0095 1.0259 172.2     20?   2.51  37.0   41 260  86  57
   2024 07 14 18:30  20 02 15.61    -26 46 01.1   0.0095 1.0259 172.2     20?   2.62  38.8   39 259  86  57
   2024 07 14 18:40  20 02 16.89    -26 45 40.6   0.0095 1.0259 172.2     20?   2.73  40.5   36 258  86  57
   2024 07 14 18:50  20 02 18.26    -26 45 19.7   0.0095 1.0259 172.2     20?   2.84  42.1   34 257  85  57
   2024 07 14 19:00  20 02 19.74    -26 44 58.6   0.0095 1.0259 172.2     20?   2.95  43.7   32 256  85  57
   2024 07 14 19:10  20 02 21.31    -26 44 37.2   0.0095 1.0259 172.2     20?   3.07  45.3   30 255  85  57
   2024 07 14 19:20  20 02 23.00    -26 44 15.6   0.0095 1.0259 172.2     20?   3.18  46.8   28 254  85  57
   2024 07 14 19:30  20 02 24.79    -26 43 53.7   0.0095 1.0259 172.2     20?   3.30  48.2   26 253  85  58
   2024 07 14 19:40  20 02 26.68    -26 43 31.7   0.0095 1.0259 172.2 A   20?   3.42  49.6   24 252  85  58
   2024 07 14 19:50  20 02 28.69    -26 43 09.5   0.0095 1.0259 172.2 A   20?   3.54  51.0   22 251  85  58
   2024 07 14 20:00  20 02 30.80    -26 42 47.2   0.0095 1.0259 172.2 A   20?   3.67  52.3   20 250  85  58
   2024 07 14 20:10  20 02 33.02    -26 42 24.8   0.0095 1.0259 172.2 N   20?   3.79  53.6   18 249  85  58
   2024 07 14 20:20  20 02 35.36    -26 42 02.3   0.0095 1.0259 172.2 N   20?   3.92  54.8   16 248  85  58
   2024 07 14 20:30  20 02 37.81    -26 41 39.8   0.0096 1.0259 172.2 N   20?   4.04  56.0   14 247  84  58
   2024 07 14 20:40  20 02 40.37    -26 41 17.2   0.0096 1.0259 172.2 C   20?   4.16  57.1   12 246  84  58
   2024 07 14 20:50  20 02 43.03    -26 40 54.7   0.0096 1.0259 172.2 C   20?   4.29  58.3   10 245  84  58
   ................
   2024 07 15 07:30  20 07 21.08    -26 31 53.5   0.0096 1.0259 171.8 Cm  20?   4.47  99.2    0 121  80  63
   2024 07 15 07:40  20 07 24.32    -26 32 00.8   0.0096 1.0259 171.8 Cm  20?   4.34  99.7    2 119  79  63
   2024 07 15 07:50  20 07 27.44    -26 32 08.3   0.0096 1.0259 171.8 Nm  20?   4.19 100.2    4 118  79  63
   2024 07 15 08:00  20 07 30.46    -26 32 15.9   0.0096 1.0259 171.8 Nm  20?   4.05 100.7    6 117  79  63
   2024 07 15 08:10  20 07 33.37    -26 32 23.6   0.0096 1.0259 171.7 Nm  20?   3.91 101.3    7 116  79  63
   2024 07 15 08:20  20 07 36.17    -26 32 31.4   0.0096 1.0259 171.7 Am  20?   3.77 101.8    9 115  79  63
   2024 07 15 08:30  20 07 38.86    -26 32 39.3   0.0096 1.0259 171.7 Am  20?   3.62 102.4   11 113  79  63
   2024 07 15 08:40  20 07 41.44    -26 32 47.2   0.0096 1.0259 171.7 Am  20?   3.47 102.9   13 112  79  63
   2024 07 15 08:50  20 07 43.91    -26 32 55.0   0.0096 1.0259 171.7  m  20?   3.33 103.5   15 111  79  63
   2024 07 15 09:00  20 07 46.26    -26 33 02.9   0.0096 1.0259 171.7  m  20?   3.18 104.0   17 110  79  63
   2024 07 15 09:10  20 07 48.51    -26 33 10.6   0.0096 1.0259 171.7  m  20?   3.04 104.5   19 109  79  63
   2024 07 15 09:20  20 07 50.64    -26 33 18.3   0.0096 1.0259 171.7  m  20?   2.89 105.1   21 108  79  63
   2024 07 15 09:30  20 07 52.66    -26 33 25.8   0.0096 1.0259 171.7  m  20?   2.74 105.6   23 107  79  63
   2024 07 15 09:40  20 07 54.58    -26 33 33.2   0.0096 1.0259 171.7  m  20?   2.60 106.1   25 106  79  63
   2024 07 15 09:50  20 07 56.38    -26 33 40.4   0.0096 1.0259 171.7  m  20?   2.46 106.6   27 105  79  63
   2024 07 15 10:00  20 07 58.08    -26 33 47.3   0.0096 1.0259 171.7  m  20?   2.32 107.1   29 104  79  63
   2024 07 15 10:10  20 07 59.68    -26 33 54.1   0.0095 1.0259 171.7  m  20?   2.17 107.5   31 103  79  63
   2024 07 15 10:20  20 08 01.17    -26 34 00.5   0.0095 1.0259 171.7  m  20?   2.04 107.9   34 102  79  63
   2024 07 15 10:30  20 08 02.56    -26 34 06.7   0.0095 1.0259 171.7  m  20?   1.90 108.3   36 101  79  63
   2024 07 15 10:40  20 08 03.86    -26 34 12.6   0.0095 1.0259 171.7  m  20?   1.76 108.7   38 100  79  63
   2024 07 15 10:50  20 08 05.05    -26 34 18.1   0.0095 1.0259 171.7  m  20?   1.63 108.9   40  99  79  64
   2024 07 15 11:00  20 08 06.16    -26 34 23.3   0.0095 1.0259 171.7  m  20?   1.50 109.1   42  98  79  64
   2024 07 15 11:10  20 08 07.17    -26 34 28.0   0.0095 1.0259 171.7  m  20?   1.37 109.2   44  97  78  64
   2024 07 15 11:20  20 08 08.09    -26 34 32.4   0.0095 1.0259 171.7  m  20?   1.25 109.1   46  96  78  64
   2024 07 15 11:30  20 08 08.93    -26 34 36.2   0.0095 1.0259 171.7  m  20?   1.13 108.8   48  95  78  64
   2024 07 15 11:40  20 08 09.68    -26 34 39.7   0.0095 1.0259 171.7  m  20?   1.01 108.2   50  94  78  64
   2024 07 15 11:50  20 08 10.36    -26 34 42.6   0.0095 1.0259 171.7  m  20?   0.90 107.3   53  93  78  64
   2024 07 15 12:00  20 08 10.96    -26 34 45.1   0.0095 1.0259 171.7  m  20?   0.79 105.9   55  92  78  64
   2024 07 15 12:10  20 08 11.49    -26 34 47.0   0.0095 1.0259 171.7  m  20?   0.69 103.8   57  91  78  64
   2024 07 15 12:20  20 08 11.95    -26 34 48.4   0.0095 1.0259 171.7  m  20?   0.59 100.7   59  89  78  64
   2024 07 15 12:30  20 08 12.35    -26 34 49.2   0.0095 1.0259 171.7  m  20?   0.50  96.1   61  88  78  64
   2024 07 15 12:40  20 08 12.69    -26 34 49.5   0.0095 1.0259 171.7  m  20?   0.42  89.3   63  87  78  64
   2024 07 15 12:50  20 08 12.98    -26 34 49.1   0.0095 1.0259 171.7  m  20?   0.35  79.4   65  85  78  64
   2024 07 15 13:00  20 08 13.21    -26 34 48.2   0.0095 1.0259 171.7  m  20?   0.31  65.9   68  83  78  64
   2024 07 15 13:10  20 08 13.40    -26 34 46.6   0.0095 1.0259 171.7  m  20?   0.29  49.7   70  81  78  64
   2024 07 15 13:20  20 08 13.54    -26 34 44.4   0.0095 1.0259 171.7  m  20?   0.30  33.8   72  79  78  64
   2024 07 15 13:30  20 08 13.65    -26 34 41.6   0.0095 1.0259 171.7  m  20?   0.34  20.9   74  76  78  64
   2024 07 15 13:40  20 08 13.73    -26 34 38.2   0.0095 1.0259 171.7  m  20?   0.39  11.8   76  72  78  64
   2024 07 15 13:50  20 08 13.77    -26 34 34.0   0.0095 1.0259 171.8  m  20?   0.45   5.8   78  68  77  64
   2024 07 15 14:00  20 08 13.80    -26 34 29.2   0.0095 1.0259 171.8  m  20?   0.51   1.9   80  62  77  64
   2024 07 15 14:10  20 08 13.80    -26 34 23.8   0.0095 1.0259 171.8  m  20?   0.58 359.5   82  53  77  64
   2024 07 15 14:20  20 08 13.79    -26 34 17.7   0.0095 1.0259 171.8  m  20?   0.65 358.2   83  40  77  65
   2024 07 15 14:30  20 08 13.78    -26 34 10.9   0.0095 1.0259 171.8  m  20?   0.71 357.7   84  20  77  65
   2024 07 15 14:40  20 08 13.76    -26 34 03.4   0.0095 1.0259 171.8  t  20?   0.78 357.8   85 353  77  65
   2024 07 15 14:50  20 08 13.74    -26 33 55.2   0.0095 1.0259 171.8  m  20?   0.85 358.3   84 329  77  65
   2024 07 15 15:00  20 08 13.72    -26 33 46.4   0.0095 1.0259 171.8  m  20?   0.92 359.1   83 312  77  65
   2024 07 15 15:10  20 08 13.72    -26 33 36.9   0.0095 1.0259 171.8  m  20?   0.98   0.3   81 302  77  65
   2024 07 15 15:20  20 08 13.74    -26 33 26.8   0.0095 1.0259 171.8  m  20?   1.05   1.6   79 294  77  65
   2024 07 15 15:30  20 08 13.77    -26 33 16.0   0.0095 1.0259 171.8  m  20?   1.12   3.1   77 289  77  65
   2024 07 15 15:40  20 08 13.83    -26 33 04.5   0.0095 1.0259 171.8  m  20?   1.18   4.8   75 285  77  65
   2024 07 15 15:50  20 08 13.92    -26 32 52.4   0.0095 1.0259 171.8  m  20?   1.25   6.5   73 282  77  65
   2024 07 15 16:00  20 08 14.05    -26 32 39.6   0.0095 1.0259 171.8     20?   1.32   8.4   71 279  76  65
   2024 07 15 16:10  20 08 14.22    -26 32 26.2   0.0095 1.0259 171.8     20?   1.39  10.3   69 277  76  65
   2024 07 15 16:20  20 08 14.43    -26 32 12.2   0.0095 1.0259 171.8     20?   1.47  12.2   67 275  76  65
   2024 07 15 16:30  20 08 14.68    -26 31 57.6   0.0095 1.0259 171.8     20?   1.54  14.3   64 273  76  65
   2024 07 15 16:40  20 08 15.00    -26 31 42.4   0.0095 1.0259 171.8     20?   1.61  16.3   62 272  76  65
   2024 07 15 16:50  20 08 15.37    -26 31 26.6   0.0095 1.0259 171.9     20?   1.69  18.3   60 270  76  66
   2024 07 15 17:00  20 08 15.80    -26 31 10.3   0.0095 1.0259 171.9     20?   1.77  20.4   58 269  76  66
   2024 07 15 17:10  20 08 16.29    -26 30 53.4   0.0095 1.0259 171.9     20?   1.86  22.4   56 268  76  66
   2024 07 15 17:20  20 08 16.86    -26 30 36.0   0.0095 1.0259 171.9     20?   1.94  24.5   54 267  76  66
   2024 07 15 17:30  20 08 17.50    -26 30 18.1   0.0095 1.0259 171.9     20?   2.03  26.5   52 266  76  66
   2024 07 15 17:40  20 08 18.22    -26 29 59.7   0.0095 1.0259 171.9     20?   2.12  28.4   49 265  76  66
   2024 07 15 17:50  20 08 19.01    -26 29 40.9   0.0095 1.0259 171.9     20?   2.21  30.4   47 263  75  66
   2024 07 15 18:00  20 08 19.89    -26 29 21.6   0.0095 1.0259 171.9     20?   2.31  32.3   45 262  75  66
   2024 07 15 18:10  20 08 20.86    -26 29 01.9   0.0095 1.0259 171.9     20?   2.41  34.1   43 261  75  66
   2024 07 15 18:20  20 08 21.92    -26 28 41.7   0.0096 1.0259 171.9     20?   2.51  36.0   41 260  75  66
   2024 07 15 18:30  20 08 23.07    -26 28 21.3   0.0096 1.0259 171.9     20?   2.62  37.7   39 259  75  66
   2024 07 15 18:40  20 08 24.31    -26 28 00.4   0.0096 1.0259 171.9     20?   2.72  39.4   37 258  75  66
   2024 07 15 18:50  20 08 25.65    -26 27 39.3   0.0096 1.0259 171.9     20?   2.83  41.1   35 257  75  66
   2024 07 15 19:00  20 08 27.09    -26 27 17.9   0.0096 1.0259 171.9     20?   2.94  42.7   33 257  75  67
   2024 07 15 19:10  20 08 28.64    -26 26 56.1   0.0096 1.0259 171.9     20?   3.06  44.3   31 256  75  67
   2024 07 15 19:20  20 08 30.28    -26 26 34.2   0.0096 1.0259 171.9     20?   3.17  45.8   28 255  75  67
   2024 07 15 19:30  20 08 32.03    -26 26 12.0   0.0096 1.0259 171.9     20?   3.29  47.3   26 254  74  67
   2024 07 15 19:40  20 08 33.89    -26 25 49.7   0.0096 1.0259 171.9 A   20?   3.41  48.7   24 253  74  67
   2024 07 15 19:50  20 08 35.86    -26 25 27.2   0.0096 1.0259 171.9 A   20?   3.53  50.1   22 252  74  67
   2024 07 15 20:00  20 08 37.93    -26 25 04.5   0.0096 1.0259 171.9 A   20?   3.65  51.5   20 251  74  67
   2024 07 15 20:10  20 08 40.12    -26 24 41.8   0.0096 1.0259 171.9 N   20?   3.77  52.7   18 249  74  67
   2024 07 15 20:20  20 08 42.41    -26 24 19.0   0.0096 1.0259 171.9 N   20?   3.90  54.0   16 248  74  67
   2024 07 15 20:30  20 08 44.82    -26 23 56.1   0.0096 1.0259 171.9 N   20?   4.02  55.2   14 247  74  67
   2024 07 15 20:40  20 08 47.34    -26 23 33.3   0.0096 1.0259 171.9 C   20?   4.14  56.4   12 246  74  67
   2024 07 15 20:50  20 08 49.96    -26 23 10.4   0.0096 1.0259 171.9 C   20?   4.27  57.5   10 245  74  68
   ................
   2024 07 16 07:30  20 13 26.22    -26 13 29.8   0.0096 1.0259 171.5 Cr  20?   4.48  98.2    0 121  68  72
   2024 07 16 07:40  20 13 29.45    -26 13 36.4   0.0096 1.0259 171.5 Cm  20?   4.34  98.7    1 119  68  72
   2024 07 16 07:50  20 13 32.58    -26 13 43.1   0.0096 1.0259 171.5 Nm  20?   4.20  99.2    3 118  68  72
   2024 07 16 08:00  20 13 35.61    -26 13 50.0   0.0096 1.0259 171.5 Nm  20?   4.05  99.7    5 117  68  72
   2024 07 16 08:10  20 13 38.52    -26 13 57.0   0.0096 1.0259 171.4 Nm  20?   3.91 100.2    7 116  68  72
   2024 07 16 08:20  20 13 41.32    -26 14 04.0   0.0096 1.0259 171.4 Am  20?   3.77 100.7    9 115  68  72
   2024 07 16 08:30  20 13 44.02    -26 14 11.2   0.0096 1.0259 171.4 Am  20?   3.62 101.2   11 113  68  72
   2024 07 16 08:40  20 13 46.60    -26 14 18.3   0.0096 1.0259 171.4 Am  20?   3.47 101.7   13 112  68  72
   2024 07 16 08:50  20 13 49.07    -26 14 25.4   0.0096 1.0259 171.4  m  20?   3.33 102.2   15 111  68  72
   2024 07 16 09:00  20 13 51.43    -26 14 32.6   0.0096 1.0259 171.4  m  20?   3.18 102.7   17 110  68  72
   2024 07 16 09:10  20 13 53.68    -26 14 39.6   0.0096 1.0259 171.4  m  20?   3.04 103.2   19 109  68  72
   2024 07 16 09:20  20 13 55.82    -26 14 46.6   0.0096 1.0259 171.4  m  20?   2.89 103.6   21 108  68  72
   2024 07 16 09:30  20 13 57.85    -26 14 53.4   0.0096 1.0259 171.4  m  20?   2.74 104.1   23 107  68  73
   2024 07 16 09:40  20 13 59.78    -26 15 00.1   0.0096 1.0259 171.4  m  20?   2.60 104.5   25 106  68  73
   2024 07 16 09:50  20 14 01.59    -26 15 06.6   0.0096 1.0259 171.4  m  20?   2.45 105.0   27 105  68  73
   2024 07 16 10:00  20 14 03.30    -26 15 12.9   0.0096 1.0259 171.4  m  20?   2.31 105.4   29 104  68  73
   2024 07 16 10:10  20 14 04.90    -26 15 19.0   0.0096 1.0259 171.4  m  20?   2.17 105.7   31 103  68  73
   2024 07 16 10:20  20 14 06.41    -26 15 24.8   0.0096 1.0259 171.4  m  20?   2.03 106.1   33 102  68  73
   2024 07 16 10:30  20 14 07.81    -26 15 30.4   0.0096 1.0259 171.4  m  20?   1.89 106.4   35 101  68  73
   2024 07 16 10:40  20 14 09.11    -26 15 35.6   0.0096 1.0259 171.4  m  20?   1.76 106.6   37 100  68  73
   2024 07 16 10:50  20 14 10.31    -26 15 40.5   0.0096 1.0259 171.4  m  20?   1.63 106.7   39  99  68  73
   2024 07 16 11:00  20 14 11.42    -26 15 45.0   0.0096 1.0259 171.4  m  20?   1.50 106.7   41  98  67  73
   2024 07 16 11:10  20 14 12.44    -26 15 49.2   0.0096 1.0259 171.4  m  20?   1.37 106.6   44  97  67  73
   2024 07 16 11:20  20 14 13.37    -26 15 52.9   0.0096 1.0259 171.4  m  20?   1.24 106.3   46  96  67  73
   2024 07 16 11:30  20 14 14.22    -26 15 56.3   0.0096 1.0259 171.4  m  20?   1.12 105.8   48  95  67  73
   2024 07 16 11:40  20 14 14.98    -26 15 59.1   0.0096 1.0259 171.4  m  20?   1.01 105.0   50  94  67  73
   2024 07 16 11:50  20 14 15.66    -26 16 01.5   0.0096 1.0259 171.4  m  20?   0.89 103.7   52  93  67  73
   2024 07 16 12:00  20 14 16.27    -26 16 03.4   0.0096 1.0259 171.4  m  20?   0.79 101.9   54  92  67  73
   2024 07 16 12:10  20 14 16.81    -26 16 04.8   0.0096 1.0259 171.4  m  20?   0.68  99.3   56  90  67  73
   2024 07 16 12:20  20 14 17.27    -26 16 05.7   0.0096 1.0259 171.4  m  20?   0.59  95.6   58  89  67  73
   2024 07 16 12:30  20 14 17.68    -26 16 06.0   0.0096 1.0259 171.4  m  20?   0.50  90.2   61  88  67  73
   2024 07 16 12:40  20 14 18.02    -26 16 05.7   0.0096 1.0259 171.4  m  20?   0.43  82.6   63  86  67  73
   2024 07 16 12:50  20 14 18.31    -26 16 04.9   0.0096 1.0258 171.4  m  20?   0.37  72.1   65  85  67  73
   2024 07 16 13:00  20 14 18.54    -26 16 03.5   0.0096 1.0258 171.4  m  20?   0.33  58.7   67  83  67  73
   2024 07 16 13:10  20 14 18.73    -26 16 01.4   0.0096 1.0258 171.4  m  20?   0.32  43.7   69  81  67  73
   2024 07 16 13:20  20 14 18.88    -26 15 58.8   0.0096 1.0258 171.4  m  20?   0.34  29.7   71  78  67  73
   2024 07 16 13:30  20 14 18.99    -26 15 55.5   0.0096 1.0258 171.4  m  20?   0.38  18.5   73  76  67  73
   2024 07 16 13:40  20 14 19.06    -26 15 51.6   0.0096 1.0258 171.5  m  20?   0.43  10.5   75  72  67  73
   2024 07 16 13:50  20 14 19.11    -26 15 47.0   0.0096 1.0258 171.5  m  20?   0.49   5.0   77  68  66  74
   2024 07 16 14:00  20 14 19.13    -26 15 41.8   0.0096 1.0258 171.5  m  20?   0.55   1.4   79  62  66  74
   2024 07 16 14:10  20 14 19.13    -26 15 36.0   0.0096 1.0258 171.5  m  20?   0.62 359.1   81  54  66  74
   2024 07 16 14:20  20 14 19.12    -26 15 29.4   0.0096 1.0258 171.5  m  20?   0.69 357.8   83  41  66  74
   2024 07 16 14:30  20 14 19.10    -26 15 22.2   0.0096 1.0258 171.5  m  20?   0.75 357.2   84  23  66  74
   2024 07 16 14:40  20 14 19.07    -26 15 14.4   0.0096 1.0258 171.5  t  20?   0.82 357.2   84 359  66  74
   2024 07 16 14:50  20 14 19.04    -26 15 05.9   0.0096 1.0258 171.5  m  20?   0.89 357.7   84 335  66  74
   2024 07 16 15:00  20 14 19.02    -26 14 56.7   0.0096 1.0258 171.5  m  20?   0.95 358.4   83 317  66  74
   2024 07 16 15:10  20 14 19.01    -26 14 46.8   0.0096 1.0258 171.5  m  20?   1.02 359.5   81 305  66  74
   2024 07 16 15:20  20 14 19.01    -26 14 36.3   0.0096 1.0258 171.5  m  20?   1.08   0.8   79 297  66  74
   2024 07 16 15:30  20 14 19.04    -26 14 25.2   0.0096 1.0258 171.5  m  20?   1.15   2.2   77 291  66  74
   2024 07 16 15:40  20 14 19.08    -26 14 13.4   0.0096 1.0258 171.5  m  20?   1.22   3.8   75 287  66  74
   2024 07 16 15:50  20 14 19.16    -26 14 00.9   0.0096 1.0258 171.5  m  20?   1.28   5.5   73 283  66  74
   2024 07 16 16:00  20 14 19.27    -26 13 47.8   0.0096 1.0258 171.5  m  20?   1.35   7.3   71 281  65  74
   2024 07 16 16:10  20 14 19.42    -26 13 34.1   0.0096 1.0258 171.5  m  20?   1.42   9.2   69 278  65  74
   2024 07 16 16:20  20 14 19.61    -26 13 19.8   0.0096 1.0258 171.5  m  20?   1.49  11.1   67 276  65  74
   2024 07 16 16:30  20 14 19.85    -26 13 04.9   0.0096 1.0258 171.6  m  20?   1.56  13.1   65 274  65  74
   2024 07 16 16:40  20 14 20.15    -26 12 49.4   0.0096 1.0258 171.6  m  20?   1.64  15.1   63 273  65  74
   2024 07 16 16:50  20 14 20.49    -26 12 33.3   0.0096 1.0258 171.6  m  20?   1.71  17.1   61 271  65  75
   2024 07 16 17:00  20 14 20.90    -26 12 16.7   0.0096 1.0258 171.6     20?   1.79  19.2   58 270  65  75
   2024 07 16 17:10  20 14 21.38    -26 11 59.5   0.0096 1.0258 171.6     20?   1.87  21.2   56 269  65  75
   2024 07 16 17:20  20 14 21.92    -26 11 41.9   0.0096 1.0258 171.6     20?   1.95  23.3   54 268  65  75
   2024 07 16 17:30  20 14 22.53    -26 11 23.7   0.0096 1.0258 171.6     20?   2.04  25.3   52 266  65  75
   2024 07 16 17:40  20 14 23.22    -26 11 05.0   0.0096 1.0258 171.6     20?   2.13  27.3   50 265  65  75
   2024 07 16 17:50  20 14 23.99    -26 10 45.9   0.0096 1.0258 171.6     20?   2.22  29.2   48 264  64  75
   2024 07 16 18:00  20 14 24.84    -26 10 26.3   0.0096 1.0258 171.6     20?   2.31  31.2   46 263  64  75
   2024 07 16 18:10  20 14 25.78    -26 10 06.3   0.0096 1.0258 171.6     20?   2.41  33.0   43 262  64  75
   2024 07 16 18:20  20 14 26.80    -26 09 45.9   0.0096 1.0258 171.6     20?   2.51  34.9   41 261  64  75
   2024 07 16 18:30  20 14 27.92    -26 09 25.2   0.0096 1.0258 171.6     20?   2.61  36.7   39 260  64  75
   2024 07 16 18:40  20 14 29.13    -26 09 04.1   0.0096 1.0258 171.6     20?   2.72  38.4   37 259  64  75
   2024 07 16 18:50  20 14 30.43    -26 08 42.7   0.0096 1.0258 171.6     20?   2.83  40.1   35 258  64  75
   2024 07 16 19:00  20 14 31.84    -26 08 20.9   0.0096 1.0258 171.6     20?   2.94  41.8   33 257  64  75
   2024 07 16 19:10  20 14 33.35    -26 07 58.9   0.0096 1.0258 171.6     20?   3.05  43.4   31 256  64  76
   2024 07 16 19:20  20 14 34.96    -26 07 36.7   0.0096 1.0258 171.6     20?   3.16  44.9   29 255  64  76
   2024 07 16 19:30  20 14 36.67    -26 07 14.3   0.0096 1.0258 171.6     20?   3.28  46.4   27 254  63  76
   2024 07 16 19:40  20 14 38.49    -26 06 51.6   0.0096 1.0258 171.6 A   20?   3.40  47.9   25 253  63  76
   2024 07 16 19:50  20 14 40.42    -26 06 28.8   0.0096 1.0258 171.6 A   20?   3.51  49.3   23 252  63  76
   2024 07 16 20:00  20 14 42.45    -26 06 05.9   0.0096 1.0258 171.6 A   20?   3.63  50.6   21 251  63  76
   2024 07 16 20:10  20 14 44.60    -26 05 42.9   0.0096 1.0258 171.6 N   20?   3.75  51.9   19 250  63  76
   2024 07 16 20:20  20 14 46.85    -26 05 19.8   0.0096 1.0258 171.6 N   20?   3.88  53.2   17 249  63  76
   2024 07 16 20:30  20 14 49.21    -26 04 56.6   0.0096 1.0258 171.6 N   20?   4.00  54.5   15 248  63  76
   2024 07 16 20:40  20 14 51.69    -26 04 33.4   0.0096 1.0258 171.6 C   20?   4.12  55.6   13 247  63  76
   2024 07 16 20:50  20 14 54.27    -26 04 10.2   0.0096 1.0258 171.6 C   20?   4.24  56.8   11 246  63  76
   ................
   2024 07 17 07:40  20 19 31.79    -25 53 57.5   0.0096 1.0258 171.2 Cm  20?   4.34  97.7    1 119  57  81
   2024 07 17 07:50  20 19 34.92    -25 54 03.5   0.0096 1.0258 171.2 Nm  20?   4.19  98.2    2 118  57  81
   2024 07 17 08:00  20 19 37.94    -25 54 09.7   0.0096 1.0258 171.1 Nm  20?   4.05  98.7    4 117  57  81
   2024 07 17 08:10  20 19 40.85    -25 54 15.9   0.0096 1.0258 171.1 Nm  20?   3.91  99.1    6 116  57  81
   2024 07 17 08:20  20 19 43.66    -25 54 22.3   0.0096 1.0258 171.1 Am  20?   3.76  99.6    8 115  57  81
   2024 07 17 08:30  20 19 46.35    -25 54 28.6   0.0096 1.0258 171.1 Am  20?   3.62 100.0   10 113  57  81
   2024 07 17 08:40  20 19 48.94    -25 54 35.1   0.0096 1.0258 171.1 Am  20?   3.47 100.5   12 112  57  81
   2024 07 17 08:50  20 19 51.41    -25 54 41.5   0.0096 1.0258 171.1  m  20?   3.33 100.9   14 111  57  81
   2024 07 17 09:00  20 19 53.78    -25 54 47.9   0.0096 1.0258 171.1  m  20?   3.18 101.4   16 110  57  81
   2024 07 17 09:10  20 19 56.03    -25 54 54.2   0.0096 1.0258 171.1  m  20?   3.03 101.8   18 109  57  81
   2024 07 17 09:20  20 19 58.18    -25 55 00.5   0.0096 1.0258 171.1  m  20?   2.89 102.2   20 108  57  81
   2024 07 17 09:30  20 20 00.21    -25 55 06.7   0.0096 1.0258 171.1  m  20?   2.74 102.7   22 107  56  81
   2024 07 17 09:40  20 20 02.14    -25 55 12.7   0.0096 1.0258 171.1  m  20?   2.60 103.0   24 106  56  81
   2024 07 17 09:50  20 20 03.96    -25 55 18.5   0.0096 1.0258 171.1  m  20?   2.45 103.4   26 105  56  81
   2024 07 17 10:00  20 20 05.67    -25 55 24.2   0.0096 1.0258 171.1  m  20?   2.31 103.7   28 104  56  81
   2024 07 17 10:10  20 20 07.28    -25 55 29.6   0.0096 1.0258 171.1  m  20?   2.17 104.0   30 103  56  81
   2024 07 17 10:20  20 20 08.79    -25 55 34.8   0.0096 1.0258 171.1  m  20?   2.03 104.2   32 102  56  81
   2024 07 17 10:30  20 20 10.19    -25 55 39.7   0.0096 1.0258 171.1  m  20?   1.89 104.4   35 101  56  81
   2024 07 17 10:40  20 20 11.50    -25 55 44.3   0.0096 1.0258 171.1  m  20?   1.75 104.5   37 100  56  81
   2024 07 17 10:50  20 20 12.71    -25 55 48.6   0.0096 1.0258 171.1  m  20?   1.62 104.5   39  99  56  81
   2024 07 17 11:00  20 20 13.82    -25 55 52.5   0.0096 1.0258 171.1  m  20?   1.49 104.4   41  98  56  81
   2024 07 17 11:10  20 20 14.85    -25 55 56.1   0.0096 1.0258 171.1  m  20?   1.36 104.1   43  97  56  81
   2024 07 17 11:20  20 20 15.78    -25 55 59.2   0.0096 1.0258 171.1  m  20?   1.24 103.6   45  96  56  81
   2024 07 17 11:30  20 20 16.63    -25 56 02.0   0.0096 1.0258 171.1  m  20?   1.12 102.9   47  95  56  81
   2024 07 17 11:40  20 20 17.40    -25 56 04.3   0.0096 1.0258 171.1  m  20?   1.00 101.8   49  94  56  82
   2024 07 17 11:50  20 20 18.09    -25 56 06.1   0.0096 1.0258 171.1  m  20?   0.89 100.2   52  92  56  82
   2024 07 17 12:00  20 20 18.70    -25 56 07.5   0.0096 1.0258 171.1  m  20?   0.78  98.0   54  91  56  82
   2024 07 17 12:10  20 20 19.24    -25 56 08.3   0.0096 1.0258 171.1  m  20?   0.68  94.9   56  90  56  82
   2024 07 17 12:20  20 20 19.71    -25 56 08.7   0.0096 1.0258 171.1  m  20?   0.59  90.6   58  89  56  82
   2024 07 17 12:30  20 20 20.11    -25 56 08.5   0.0096 1.0258 171.1  m  20?   0.51  84.5   60  87  56  82
   2024 07 17 12:40  20 20 20.46    -25 56 07.7   0.0096 1.0258 171.1  m  20?   0.44  76.3   62  86  55  82
   2024 07 17 12:50  20 20 20.75    -25 56 06.4   0.0096 1.0258 171.1  m  20?   0.39  65.4   64  84  55  82
   2024 07 17 13:00  20 20 20.99    -25 56 04.5   0.0096 1.0258 171.1  m  20?   0.36  52.3   66  82  55  82
   2024 07 17 13:10  20 20 21.17    -25 56 02.0   0.0096 1.0258 171.1  m  20?   0.36  38.6   69  80  55  82
   2024 07 17 13:20  20 20 21.32    -25 55 58.9   0.0096 1.0258 171.1  m  20?   0.38  26.1   71  78  55  82
   2024 07 17 13:30  20 20 21.42    -25 55 55.2   0.0096 1.0258 171.2  m  20?   0.42  16.3   73  75  55  82
   2024 07 17 13:40  20 20 21.50    -25 55 50.8   0.0096 1.0258 171.2  m  20?   0.47   9.1   75  72  55  82
   2024 07 17 13:50  20 20 21.54    -25 55 45.9   0.0096 1.0258 171.2  m  20?   0.53   4.0   77  67  55  82
   2024 07 17 14:00  20 20 21.55    -25 55 40.2   0.0096 1.0258 171.2  m  20?   0.59   0.6   79  62  55  82
   2024 07 17 14:10  20 20 21.55    -25 55 34.0   0.0096 1.0258 171.2  m  20?   0.66 358.4   81  54  55  82
   2024 07 17 14:20  20 20 21.53    -25 55 27.0   0.0096 1.0258 171.2  m  20?   0.73 357.2   82  43  55  82
   2024 07 17 14:30  20 20 21.50    -25 55 19.5   0.0096 1.0258 171.2  m  20?   0.79 356.6   83  26  55  82
   2024 07 17 14:40  20 20 21.47    -25 55 11.2   0.0096 1.0258 171.2  m  20?   0.86 356.5   84   4  55  82
   2024 07 17 14:50  20 20 21.43    -25 55 02.4   0.0096 1.0258 171.2  t  20?   0.92 356.9   84 341  55  82
   2024 07 17 15:00  20 20 21.40    -25 54 52.8   0.0096 1.0258 171.2  m  20?   0.99 357.6   83 322  55  82
   2024 07 17 15:10  20 20 21.38    -25 54 42.6   0.0096 1.0258 171.2  m  20?   1.05 358.6   81 309  54  82
   2024 07 17 15:20  20 20 21.37    -25 54 31.8   0.0096 1.0258 171.2  m  20?   1.12 359.8   80 300  54  82
   2024 07 17 15:30  20 20 21.38    -25 54 20.3   0.0096 1.0258 171.2  m  20?   1.18   1.2   78 294  54  82
   2024 07 17 15:40  20 20 21.41    -25 54 08.2   0.0096 1.0258 171.2  m  20?   1.25   2.7   76 289  54  82
   2024 07 17 15:50  20 20 21.47    -25 53 55.4   0.0096 1.0258 171.2  m  20?   1.31   4.4   74 285  54  82
   2024 07 17 16:00  20 20 21.57    -25 53 42.0   0.0096 1.0258 171.2  m  20?   1.38   6.2   71 282  54  83
   2024 07 17 16:10  20 20 21.70    -25 53 28.0   0.0096 1.0258 171.2  m  20?   1.45   8.0   69 280  54  83
   2024 07 17 16:20  20 20 21.87    -25 53 13.4   0.0096 1.0258 171.3  m  20?   1.51   9.9   67 278  54  83
   2024 07 17 16:30  20 20 22.09    -25 52 58.2   0.0096 1.0258 171.3  m  20?   1.58  11.9   65 276  54  83
   2024 07 17 16:40  20 20 22.36    -25 52 42.4   0.0096 1.0258 171.3  m  20?   1.66  13.9   63 274  54  83
   2024 07 17 16:50  20 20 22.69    -25 52 26.1   0.0096 1.0258 171.3  m  20?   1.73  15.9   61 272  54  83
   2024 07 17 17:00  20 20 23.07    -25 52 09.2   0.0096 1.0258 171.3  m  20?   1.81  18.0   59 271  54  83
   2024 07 17 17:10  20 20 23.52    -25 51 51.8   0.0096 1.0258 171.3  m  20?   1.88  20.0   57 270  54  83
   2024 07 17 17:20  20 20 24.03    -25 51 33.8   0.0096 1.0258 171.3  m  20?   1.97  22.1   54 268  53  83
   2024 07 17 17:30  20 20 24.62    -25 51 15.4   0.0096 1.0258 171.3  m  20?   2.05  24.1   52 267  53  83
   2024 07 17 17:40  20 20 25.28    -25 50 56.4   0.0096 1.0258 171.3  m  20?   2.14  26.1   50 266  53  83
   2024 07 17 17:50  20 20 26.02    -25 50 37.1   0.0096 1.0258 171.3  m  20?   2.22  28.1   48 265  53  83
   2024 07 17 18:00  20 20 26.84    -25 50 17.2   0.0096 1.0258 171.3     20?   2.32  30.0   46 264  53  83
   2024 07 17 18:10  20 20 27.74    -25 49 57.0   0.0096 1.0258 171.3     20?   2.41  31.9   44 263  53  83
   2024 07 17 18:20  20 20 28.73    -25 49 36.4   0.0096 1.0258 171.3     20?   2.51  33.8   42 262  53  83
   2024 07 17 18:30  20 20 29.82    -25 49 15.4   0.0096 1.0258 171.3     20?   2.61  35.6   40 261  53  83
   2024 07 17 18:40  20 20 30.99    -25 48 54.0   0.0096 1.0258 171.3     20?   2.71  37.4   37 260  53  83
   2024 07 17 18:50  20 20 32.26    -25 48 32.4   0.0096 1.0258 171.3     20?   2.82  39.1   35 259  53  83
   2024 07 17 19:00  20 20 33.63    -25 48 10.4   0.0096 1.0258 171.3     20?   2.93  40.8   33 258  53  84
   2024 07 17 19:10  20 20 35.10    -25 47 48.1   0.0096 1.0258 171.3     20?   3.04  42.4   31 257  52  84
   2024 07 17 19:20  20 20 36.67    -25 47 25.7   0.0096 1.0258 171.3     20?   3.15  44.0   29 256  52  84
   2024 07 17 19:30  20 20 38.35    -25 47 03.0   0.0096 1.0258 171.3     20?   3.26  45.5   27 255  52  84
   2024 07 17 19:40  20 20 40.12    -25 46 40.1   0.0096 1.0258 171.3 A   20?   3.38  47.0   25 254  52  84
   2024 07 17 19:50  20 20 42.01    -25 46 17.0   0.0096 1.0258 171.3 A   20?   3.49  48.4   23 253  52  84
   2024 07 17 20:00  20 20 44.00    -25 45 53.8   0.0096 1.0258 171.4 A   20?   3.61  49.8   21 252  52  84
   2024 07 17 20:10  20 20 46.10    -25 45 30.5   0.0096 1.0258 171.4 N   20?   3.73  51.2   19 251  52  84
   2024 07 17 20:20  20 20 48.31    -25 45 07.1   0.0096 1.0258 171.4 N   20?   3.85  52.4   17 250  52  84
   2024 07 17 20:30  20 20 50.63    -25 44 43.7   0.0096 1.0258 171.4 N   20?   3.97  53.7   15 248  52  84
   2024 07 17 20:40  20 20 53.06    -25 44 20.2   0.0096 1.0258 171.4 C   20?   4.10  54.9   13 247  51  84
   2024 07 17 20:50  20 20 55.60    -25 43 56.8   0.0096 1.0258 171.4 C   20?   4.22  56.1   11 246  51  84
   ................
   2024 07 18 07:40  20 25 30.96    -25 33 07.1   0.0096 1.0258 170.9 Cm  20?   4.33  96.7    0 119  45  88
   2024 07 18 07:50  20 25 34.08    -25 33 12.4   0.0096 1.0258 170.8 Nm  20?   4.19  97.2    2 118  45  88
   2024 07 18 08:00  20 25 37.10    -25 33 17.8   0.0096 1.0258 170.8 Nm  20?   4.05  97.6    4 117  45  88
   2024 07 18 08:10  20 25 40.01    -25 33 23.3   0.0096 1.0258 170.8 Nm  20?   3.91  98.1    6 116  45  88
   2024 07 18 08:20  20 25 42.81    -25 33 28.9   0.0096 1.0258 170.8 Am  20?   3.76  98.5    8 114  45  88
   2024 07 18 08:30  20 25 45.50    -25 33 34.6   0.0096 1.0258 170.8 Am  20?   3.62  98.9   10 113  45  88
   2024 07 18 08:40  20 25 48.09    -25 33 40.3   0.0096 1.0258 170.8 Am  20?   3.47  99.4   12 112  45  88
   2024 07 18 08:50  20 25 50.56    -25 33 46.0   0.0096 1.0258 170.8  m  20?   3.32  99.8   14 111  45  88
   2024 07 18 09:00  20 25 52.92    -25 33 51.7   0.0096 1.0258 170.8  m  20?   3.18 100.1   16 110  45  88
   2024 07 18 09:10  20 25 55.18    -25 33 57.4   0.0096 1.0258 170.8  m  20?   3.03 100.5   18 109  45  88
   2024 07 18 09:20  20 25 57.32    -25 34 03.0   0.0096 1.0258 170.8  m  20?   2.88 100.9   20 108  45  88
   2024 07 18 09:30  20 25 59.36    -25 34 08.4   0.0096 1.0258 170.8  m  20?   2.74 101.2   22 107  45  89
   2024 07 18 09:40  20 26 01.29    -25 34 13.8   0.0096 1.0258 170.8  m  20?   2.59 101.6   24 106  45  89
   2024 07 18 09:50  20 26 03.11    -25 34 19.0   0.0096 1.0258 170.8  m  20?   2.45 101.8   26 105  45  89
   2024 07 18 10:00  20 26 04.82    -25 34 24.0   0.0096 1.0258 170.8  m  20?   2.30 102.1   28 104  45  89
   2024 07 18 10:10  20 26 06.43    -25 34 28.7   0.0096 1.0258 170.8  m  20?   2.16 102.3   30 103  44  89
   2024 07 18 10:20  20 26 07.94    -25 34 33.3   0.0096 1.0258 170.8  m  20?   2.02 102.4   32 102  44  89
   2024 07 18 10:30  20 26 09.35    -25 34 37.6   0.0096 1.0258 170.8  m  20?   1.88 102.5   34 101  44  89
   2024 07 18 10:40  20 26 10.66    -25 34 41.6   0.0096 1.0258 170.8  m  20?   1.75 102.5   36 100  44  89
   2024 07 18 10:50  20 26 11.87    -25 34 45.2   0.0096 1.0258 170.8  m  20?   1.61 102.4   38  99  44  89
   2024 07 18 11:00  20 26 12.99    -25 34 48.6   0.0096 1.0258 170.8  m  20?   1.48 102.1   40  98  44  89
   2024 07 18 11:10  20 26 14.01    -25 34 51.5   0.0096 1.0257 170.8  m  20?   1.36 101.7   42  97  44  89
   2024 07 18 11:20  20 26 14.95    -25 34 54.1   0.0096 1.0257 170.8  m  20?   1.23 101.0   45  95  44  89
   2024 07 18 11:30  20 26 15.80    -25 34 56.3   0.0096 1.0257 170.8  m  20?   1.11 100.0   47  94  44  89
   2024 07 18 11:40  20 26 16.57    -25 34 58.0   0.0096 1.0257 170.8  m  20?   1.00  98.7   49  93  44  89
   2024 07 18 11:50  20 26 17.26    -25 34 59.3   0.0096 1.0257 170.8  m  20?   0.89  96.8   51  92  44  89
   2024 07 18 12:00  20 26 17.87    -25 35 00.2   0.0096 1.0257 170.8  m  20?   0.78  94.1   53  91  44  89
   2024 07 18 12:10  20 26 18.41    -25 35 00.5   0.0096 1.0257 170.8  m  20?   0.68  90.6   55  90  44  89
   2024 07 18 12:20  20 26 18.88    -25 35 00.3   0.0096 1.0257 170.8  m  20?   0.59  85.7   57  88  44  89
   2024 07 18 12:30  20 26 19.29    -25 34 59.6   0.0096 1.0257 170.8  m  20?   0.52  79.1   60  87  44  89
   2024 07 18 12:40  20 26 19.63    -25 34 58.4   0.0096 1.0257 170.8  m  20?   0.45  70.3   62  85  44  89
   2024 07 18 12:50  20 26 19.92    -25 34 56.6   0.0096 1.0257 170.8  m  20?   0.41  59.3   64  84  44  89
   2024 07 18 13:00  20 26 20.15    -25 34 54.2   0.0096 1.0257 170.8  m  20?   0.39  46.7   66  82  44  89
   2024 07 18 13:10  20 26 20.34    -25 34 51.3   0.0096 1.0257 170.8  m  20?   0.39  34.0   68  80  43  89
   2024 07 18 13:20  20 26 20.48    -25 34 47.7   0.0096 1.0257 170.8  m  20?   0.42  22.9   70  77  43  89
   2024 07 18 13:30  20 26 20.58    -25 34 43.6   0.0096 1.0257 170.8  m  20?   0.46  14.0   72  75  43  89
   2024 07 18 13:40  20 26 20.65    -25 34 38.8   0.0096 1.0257 170.9  m  20?   0.51   7.5   74  71  43  89
   2024 07 18 13:50  20 26 20.68    -25 34 33.4   0.0096 1.0257 170.9  m  20?   0.57   2.9   76  67  43  89
   2024 07 18 14:00  20 26 20.69    -25 34 27.4   0.0096 1.0257 170.9  m  20?   0.63 359.7   78  61  43  89
   2024 07 18 14:10  20 26 20.68    -25 34 20.7   0.0096 1.0257 170.9  m  20?   0.70 357.6   80  54  43  89
   2024 07 18 14:20  20 26 20.65    -25 34 13.4   0.0096 1.0257 170.9  m  20?   0.76 356.4   82  43  43  89
   2024 07 18 14:30  20 26 20.62    -25 34 05.5   0.0096 1.0257 170.9  m  20?   0.83 355.8   83  28  43  89
   2024 07 18 14:40  20 26 20.57    -25 33 56.9   0.0096 1.0257 170.9  m  20?   0.89 355.7   84   8  43  89
   2024 07 18 14:50  20 26 20.52    -25 33 47.7   0.0096 1.0257 170.9  t  20?   0.96 356.0   84 346  43  89
   2024 07 18 15:00  20 26 20.48    -25 33 37.8   0.0096 1.0257 170.9  m  20?   1.02 356.7   83 327  43  89
   2024 07 18 15:10  20 26 20.44    -25 33 27.3   0.0096 1.0257 170.9  m  20?   1.09 357.6   81 313  43  89
   2024 07 18 15:20  20 26 20.42    -25 33 16.1   0.0096 1.0257 170.9  m  20?   1.15 358.7   80 303  43  90
   2024 07 18 15:30  20 26 20.41    -25 33 04.3   0.0096 1.0257 170.9  m  20?   1.21   0.1   78 296  43  90
   2024 07 18 15:40  20 26 20.43    -25 32 51.9   0.0096 1.0257 170.9  m  20?   1.28   1.6   76 291  43  90
   2024 07 18 15:50  20 26 20.47    -25 32 38.8   0.0096 1.0257 170.9  m  20?   1.34   3.2   74 287  42  90
   2024 07 18 16:00  20 26 20.54    -25 32 25.2   0.0096 1.0257 170.9  m  20?   1.40   5.0   72 284  42  90
   2024 07 18 16:10  20 26 20.66    -25 32 10.9   0.0096 1.0257 170.9  m  20?   1.47   6.8   70 281  42  90
   2024 07 18 16:20  20 26 20.81    -25 31 56.0   0.0096 1.0257 171.0  m  20?   1.54   8.7   68 279  42  90
   2024 07 18 16:30  20 26 21.00    -25 31 40.5   0.0096 1.0257 171.0  m  20?   1.60  10.6   65 277  42  90
   2024 07 18 16:40  20 26 21.25    -25 31 24.5   0.0096 1.0257 171.0  m  20?   1.67  12.6   63 275  42  90
   2024 07 18 16:50  20 26 21.55    -25 31 07.9   0.0096 1.0257 171.0  m  20?   1.75  14.7   61 273  42  90
   2024 07 18 17:00  20 26 21.91    -25 30 50.8   0.0096 1.0257 171.0  m  20?   1.82  16.7   59 272  42  90
   2024 07 18 17:10  20 26 22.33    -25 30 33.1   0.0096 1.0257 171.0  m  20?   1.90  18.8   57 271  42  90
   2024 07 18 17:20  20 26 22.82    -25 30 14.9   0.0096 1.0257 171.0  m  20?   1.97  20.8   55 269  42  90
   2024 07 18 17:30  20 26 23.37    -25 29 56.2   0.0096 1.0257 171.0  m  20?   2.06  22.9   53 268  42  90
   2024 07 18 17:40  20 26 24.00    -25 29 37.1   0.0096 1.0257 171.0  m  20?   2.14  24.9   50 267  42  90
   2024 07 18 17:50  20 26 24.71    -25 29 17.5   0.0096 1.0257 171.0  m  20?   2.23  26.9   48 266  41  90
   2024 07 18 18:00  20 26 25.50    -25 28 57.4   0.0096 1.0257 171.0  m  20?   2.32  28.8   46 265  41  90
   2024 07 18 18:10  20 26 26.37    -25 28 37.0   0.0096 1.0257 171.0  m  20?   2.41  30.8   44 263  41  90
   2024 07 18 18:20  20 26 27.32    -25 28 16.1   0.0096 1.0257 171.0  m  20?   2.50  32.7   42 262  41  90
   2024 07 18 18:30  20 26 28.37    -25 27 54.9   0.0096 1.0257 171.0  m  20?   2.60  34.5   40 261  41  90
   2024 07 18 18:40  20 26 29.51    -25 27 33.3   0.0096 1.0257 171.0  m  20?   2.70  36.3   38 260  41  90
   2024 07 18 18:50  20 26 30.74    -25 27 11.4   0.0096 1.0257 171.0  m  20?   2.81  38.1   36 259  41  90
   2024 07 18 19:00  20 26 32.07    -25 26 49.2   0.0096 1.0257 171.0  m  20?   2.91  39.8   34 258  41  90
   2024 07 18 19:10  20 26 33.50    -25 26 26.8   0.0096 1.0257 171.0     20?   3.02  41.4   31 257  41  90
   2024 07 18 19:20  20 26 35.03    -25 26 04.1   0.0096 1.0257 171.0     20?   3.13  43.1   29 256  41  91
   2024 07 18 19:30  20 26 36.66    -25 25 41.1   0.0096 1.0257 171.0     20?   3.24  44.6   27 255  41  91
   2024 07 18 19:40  20 26 38.40    -25 25 18.0   0.0096 1.0257 171.0 A   20?   3.36  46.1   25 254  40  91
   2024 07 18 19:50  20 26 40.24    -25 24 54.7   0.0096 1.0257 171.0 A   20?   3.47  47.6   23 253  40  91
   2024 07 18 20:00  20 26 42.19    -25 24 31.3   0.0096 1.0257 171.1 A   20?   3.59  49.0   21 252  40  91
   2024 07 18 20:10  20 26 44.25    -25 24 07.8   0.0096 1.0257 171.1 N   20?   3.71  50.4   19 251  40  91
   2024 07 18 20:20  20 26 46.41    -25 23 44.1   0.0096 1.0257 171.1 N   20?   3.83  51.7   17 250  40  91
   2024 07 18 20:30  20 26 48.68    -25 23 20.5   0.0096 1.0257 171.1 N   20?   3.95  53.0   15 249  40  91
   2024 07 18 20:40  20 26 51.07    -25 22 56.8   0.0096 1.0257 171.1 C   20?   4.07  54.2   13 248  40  91
   2024 07 18 20:50  20 26 53.56    -25 22 33.0   0.0096 1.0257 171.1 C   20?   4.19  55.4   11 247  40  91
   ................
   2024 07 19 07:40  20 31 26.54    -25 11 08.4   0.0097 1.0257 170.5 Cr  20?   4.32  95.8    0 119  33  94
   2024 07 19 07:50  20 31 29.65    -25 11 12.9   0.0096 1.0257 170.5 Nm  20?   4.18  96.2    1 118  33  94
   2024 07 19 08:00  20 31 32.66    -25 11 17.6   0.0096 1.0257 170.5 Nm  20?   4.04  96.6    3 117  33  94
   2024 07 19 08:10  20 31 35.57    -25 11 22.5   0.0096 1.0257 170.5 Nm  20?   3.90  97.1    5 116  33  94
   2024 07 19 08:20  20 31 38.36    -25 11 27.4   0.0096 1.0257 170.5 Am  20?   3.75  97.5    7 114  33  94
   2024 07 19 08:30  20 31 41.05    -25 11 32.4   0.0096 1.0257 170.5 Am  20?   3.61  97.8    9 113  33  94
   2024 07 19 08:40  20 31 43.63    -25 11 37.4   0.0096 1.0257 170.5 Am  20?   3.46  98.2   11 112  33  94
   2024 07 19 08:50  20 31 46.10    -25 11 42.4   0.0096 1.0257 170.5  m  20?   3.31  98.6   13 111  33  94
   2024 07 19 09:00  20 31 48.46    -25 11 47.4   0.0096 1.0257 170.5  m  20?   3.17  99.0   15 110  33  94
   2024 07 19 09:10  20 31 50.71    -25 11 52.4   0.0096 1.0257 170.5  m  20?   3.02  99.3   17 109  33  94
   2024 07 19 09:20  20 31 52.85    -25 11 57.3   0.0096 1.0257 170.5  m  20?   2.87  99.6   19 108  33  94
   2024 07 19 09:30  20 31 54.88    -25 12 02.1   0.0096 1.0257 170.5  m  20?   2.73  99.9   21 107  33  94
   2024 07 19 09:40  20 31 56.80    -25 12 06.8   0.0096 1.0257 170.5  m  20?   2.58 100.1   23 106  32  94
   2024 07 19 09:50  20 31 58.62    -25 12 11.3   0.0096 1.0257 170.5  m  20?   2.44 100.3   25 105  32  94
   2024 07 19 10:00  20 32 00.34    -25 12 15.7   0.0096 1.0257 170.5  m  20?   2.29 100.5   27 104  32  94
   2024 07 19 10:10  20 32 01.95    -25 12 19.8   0.0096 1.0257 170.5  m  20?   2.15 100.6   29 103  32  94
   2024 07 19 10:20  20 32 03.45    -25 12 23.7   0.0096 1.0257 170.5  m  20?   2.01 100.7   31 101  32  94
   2024 07 19 10:30  20 32 04.86    -25 12 27.4   0.0096 1.0257 170.5  m  20?   1.87 100.7   33 100  32  94
   2024 07 19 10:40  20 32 06.17    -25 12 30.8   0.0096 1.0257 170.5  m  20?   1.74 100.6   36  99  32  94
   2024 07 19 10:50  20 32 07.38    -25 12 33.9   0.0096 1.0257 170.5  m  20?   1.60 100.3   38  98  32  95
   2024 07 19 11:00  20 32 08.49    -25 12 36.6   0.0096 1.0257 170.5  m  20?   1.47  99.9   40  97  32  95
   2024 07 19 11:10  20 32 09.52    -25 12 39.0   0.0096 1.0257 170.5  m  20?   1.35  99.3   42  96  32  95
   2024 07 19 11:20  20 32 10.45    -25 12 41.0   0.0096 1.0257 170.5  m  20?   1.22  98.4   44  95  32  95
   2024 07 19 11:30  20 32 11.30    -25 12 42.7   0.0096 1.0257 170.5  m  20?   1.10  97.2   46  94  32  95
   2024 07 19 11:40  20 32 12.07    -25 12 43.9   0.0096 1.0257 170.5  m  20?   0.99  95.6   48  93  32  95
   2024 07 19 11:50  20 32 12.75    -25 12 44.6   0.0096 1.0257 170.5  m  20?   0.88  93.4   50  92  32  95
   2024 07 19 12:00  20 32 13.36    -25 12 44.9   0.0096 1.0257 170.5  m  20?   0.78  90.4   53  91  32  95
   2024 07 19 12:10  20 32 13.90    -25 12 44.7   0.0096 1.0257 170.5  m  20?   0.68  86.3   55  89  32  95
   2024 07 19 12:20  20 32 14.37    -25 12 44.1   0.0096 1.0257 170.5  m  20?   0.60  80.9   57  88  32  95
   2024 07 19 12:30  20 32 14.77    -25 12 42.9   0.0096 1.0257 170.5  m  20?   0.52  73.8   59  87  31  95
   2024 07 19 12:40  20 32 15.11    -25 12 41.2   0.0096 1.0257 170.5  m  20?   0.47  64.6   61  85  31  95
   2024 07 19 12:50  20 32 15.39    -25 12 38.9   0.0096 1.0257 170.5  m  20?   0.43  53.6   63  83  31  95
   2024 07 19 13:00  20 32 15.62    -25 12 36.1   0.0096 1.0257 170.5  m  20?   0.42  41.5   65  81  31  95
   2024 07 19 13:10  20 32 15.80    -25 12 32.7   0.0096 1.0257 170.5  m  20?   0.42  29.8   67  79  31  95
   2024 07 19 13:20  20 32 15.93    -25 12 28.7   0.0096 1.0257 170.5  m  20?   0.45  19.7   70  77  31  95
   2024 07 19 13:30  20 32 16.02    -25 12 24.2   0.0096 1.0257 170.5  m  20?   0.50  11.7   72  74  31  95
   2024 07 19 13:40  20 32 16.08    -25 12 19.0   0.0096 1.0257 170.5  m  20?   0.55   5.8   74  71  31  95
   2024 07 19 13:50  20 32 16.11    -25 12 13.2   0.0096 1.0257 170.6  m  20?   0.61   1.5   76  66  31  95
   2024 07 19 14:00  20 32 16.11    -25 12 06.8   0.0096 1.0257 170.6  m  20?   0.67 358.5   78  61  31  95
   2024 07 19 14:10  20 32 16.09    -25 11 59.8   0.0096 1.0257 170.6  m  20?   0.74 356.5   79  54  31  95
   2024 07 19 14:20  20 32 16.05    -25 11 52.1   0.0096 1.0257 170.6  m  20?   0.80 355.3   81  44  31  95
   2024 07 19 14:30  20 32 16.00    -25 11 43.8   0.0096 1.0257 170.6  m  20?   0.86 354.8   82  30  31  95
   2024 07 19 14:40  20 32 15.94    -25 11 34.9   0.0096 1.0257 170.6  m  20?   0.93 354.7   83  12  31  95
   2024 07 19 14:50  20 32 15.87    -25 11 25.3   0.0096 1.0257 170.6  t  20?   0.99 355.0   83 351  31  95
   2024 07 19 15:00  20 32 15.81    -25 11 15.1   0.0096 1.0257 170.6  m  20?   1.05 355.6   83 332  31  95
   2024 07 19 15:10  20 32 15.76    -25 11 04.3   0.0096 1.0257 170.6  m  20?   1.12 356.5   81 317  31  95
   2024 07 19 15:20  20 32 15.72    -25 10 52.8   0.0096 1.0257 170.6  m  20?   1.18 357.6   80 307  30  95
   2024 07 19 15:30  20 32 15.70    -25 10 40.8   0.0096 1.0257 170.6  m  20?   1.24 358.9   78 299  30  95
   2024 07 19 15:40  20 32 15.69    -25 10 28.0   0.0096 1.0257 170.6  m  20?   1.30   0.4   76 294  30  95
   2024 07 19 15:50  20 32 15.71    -25 10 14.7   0.0096 1.0257 170.6  m  20?   1.36   2.0   74 289  30  95
   2024 07 19 16:00  20 32 15.77    -25 10 00.8   0.0096 1.0257 170.6  m  20?   1.43   3.7   72 286  30  95
   2024 07 19 16:10  20 32 15.85    -25 09 46.2   0.0096 1.0257 170.6  m  20?   1.49   5.5   70 283  30  95
   2024 07 19 16:20  20 32 15.98    -25 09 31.1   0.0096 1.0257 170.7  m  20?   1.56   7.3   68 280  30  95
   2024 07 19 16:30  20 32 16.15    -25 09 15.4   0.0096 1.0257 170.7  m  20?   1.62   9.3   66 278  30  95
   2024 07 19 16:40  20 32 16.37    -25 08 59.1   0.0096 1.0257 170.7  m  20?   1.69  11.3   64 276  30  95
   2024 07 19 16:50  20 32 16.65    -25 08 42.3   0.0096 1.0257 170.7  m  20?   1.76  13.3   61 274  30  95
   2024 07 19 17:00  20 32 16.98    -25 08 24.9   0.0096 1.0257 170.7  m  20?   1.83  15.4   59 273  30  95
   2024 07 19 17:10  20 32 17.37    -25 08 07.1   0.0096 1.0257 170.7  m  20?   1.90  17.4   57 271  30  95
   2024 07 19 17:20  20 32 17.82    -25 07 48.7   0.0096 1.0257 170.7  m  20?   1.98  19.5   55 270  30  95
   2024 07 19 17:30  20 32 18.35    -25 07 29.8   0.0096 1.0257 170.7  m  20?   2.06  21.6   53 269  29  95
   2024 07 19 17:40  20 32 18.94    -25 07 10.4   0.0096 1.0257 170.7  m  20?   2.14  23.6   51 268  29  95
   2024 07 19 17:50  20 32 19.62    -25 06 50.6   0.0096 1.0257 170.7  m  20?   2.22  25.6   49 266  29  95
   2024 07 19 18:00  20 32 20.37    -25 06 30.4   0.0096 1.0257 170.7  m  20?   2.31  27.6   47 265  29  95
   2024 07 19 18:10  20 32 21.20    -25 06 09.7   0.0096 1.0257 170.7  m  20?   2.40  29.6   44 264  29  95
   2024 07 19 18:20  20 32 22.12    -25 05 48.7   0.0096 1.0257 170.7  m  20?   2.49  31.5   42 263  29  96
   2024 07 19 18:30  20 32 23.13    -25 05 27.3   0.0096 1.0257 170.7  m  20?   2.59  33.4   40 262  29  96
   2024 07 19 18:40  20 32 24.23    -25 05 05.5   0.0096 1.0257 170.7  m  20?   2.69  35.2   38 261  29  96
   2024 07 19 18:50  20 32 25.42    -25 04 43.4   0.0096 1.0257 170.7  m  20?   2.79  37.0   36 260  29  96
   2024 07 19 19:00  20 32 26.71    -25 04 21.0   0.0096 1.0257 170.7  m  20?   2.89  38.8   34 259  29  96
   2024 07 19 19:10  20 32 28.10    -25 03 58.4   0.0096 1.0257 170.7  m  20?   3.00  40.5   32 258  29  96
   2024 07 19 19:20  20 32 29.58    -25 03 35.5   0.0096 1.0257 170.7  m  20?   3.11  42.1   30 257  28  96
   2024 07 19 19:30  20 32 31.17    -25 03 12.4   0.0096 1.0257 170.7  m  20?   3.22  43.7   28 256  28  96
   2024 07 19 19:40  20 32 32.86    -25 02 49.1   0.0096 1.0257 170.7 Am  20?   3.33  45.2   25 255  28  96
   2024 07 19 19:50  20 32 34.66    -25 02 25.6   0.0096 1.0257 170.7 Am  20?   3.44  46.7   23 254  28  96
   2024 07 19 20:00  20 32 36.56    -25 02 02.0   0.0096 1.0257 170.7 Am  20?   3.56  48.2   21 253  28  96
   2024 07 19 20:10  20 32 38.57    -25 01 38.2   0.0096 1.0257 170.8 N   20?   3.68  49.6   19 252  28  96
   2024 07 19 20:20  20 32 40.69    -25 01 14.4   0.0096 1.0257 170.8 N   20?   3.79  50.9   17 251  28  96
   2024 07 19 20:30  20 32 42.91    -25 00 50.5   0.0096 1.0257 170.8 N   20?   3.91  52.2   15 250  28  96
   2024 07 19 20:40  20 32 45.25    -25 00 26.6   0.0097 1.0257 170.8 C   20?   4.03  53.5   13 248  28  96
   2024 07 19 20:50  20 32 47.69    -25 00 02.7   0.0097 1.0257 170.8 C   20?   4.15  54.7   11 247  28  96
   ................
   2024 07 20 07:50  20 37 21.17    -24 48 09.1   0.0097 1.0256 170.2 Nm  20?   4.17  95.3    1 118  21  98
   2024 07 20 08:00  20 37 24.17    -24 48 13.1   0.0097 1.0256 170.2 Nm  20?   4.03  95.7    3 117  21  98
   2024 07 20 08:10  20 37 27.06    -24 48 17.2   0.0097 1.0256 170.2 Nm  20?   3.89  96.1    5 115  21  98
   2024 07 20 08:20  20 37 29.84    -24 48 21.5   0.0097 1.0256 170.2 Am  20?   3.74  96.4    6 114  21  98
   2024 07 20 08:30  20 37 32.52    -24 48 25.8   0.0097 1.0256 170.2 Am  20?   3.60  96.8    8 113  20  98
   2024 07 20 08:40  20 37 35.09    -24 48 30.1   0.0097 1.0256 170.2 Am  20?   3.45  97.1   10 112  20  98
   2024 07 20 08:50  20 37 37.55    -24 48 34.5   0.0097 1.0256 170.2  m  20?   3.30  97.5   12 111  20  98
   2024 07 20 09:00  20 37 39.90    -24 48 38.8   0.0097 1.0256 170.2  m  20?   3.16  97.8   14 110  20  98
   2024 07 20 09:10  20 37 42.14    -24 48 43.1   0.0097 1.0256 170.2  m  20?   3.01  98.1   16 109  20  98
   2024 07 20 09:20  20 37 44.27    -24 48 47.4   0.0097 1.0256 170.2  m  20?   2.86  98.3   18 108  20  98
   2024 07 20 09:30  20 37 46.30    -24 48 51.5   0.0097 1.0256 170.2  m  20?   2.72  98.6   20 106  20  98
   2024 07 20 09:40  20 37 48.22    -24 48 55.6   0.0097 1.0256 170.2  m  20?   2.57  98.8   22 105  20  98
   2024 07 20 09:50  20 37 50.03    -24 48 59.5   0.0097 1.0256 170.2  m  20?   2.43  98.9   25 104  20  98
   2024 07 20 10:00  20 37 51.73    -24 49 03.2   0.0097 1.0256 170.2  m  20?   2.28  99.0   27 103  20  98
   2024 07 20 10:10  20 37 53.34    -24 49 06.8   0.0097 1.0256 170.2  m  20?   2.14  99.1   29 102  20  98
   2024 07 20 10:20  20 37 54.84    -24 49 10.1   0.0097 1.0256 170.2  m  20?   2.00  99.1   31 101  20  98
   2024 07 20 10:30  20 37 56.24    -24 49 13.1   0.0096 1.0256 170.2  m  20?   1.86  98.9   33 100  20  98
   2024 07 20 10:40  20 37 57.54    -24 49 15.9   0.0096 1.0256 170.2  m  20?   1.73  98.7   35  99  20  98
   2024 07 20 10:50  20 37 58.74    -24 49 18.4   0.0096 1.0256 170.2  m  20?   1.59  98.3   37  98  19  98
   2024 07 20 11:00  20 37 59.85    -24 49 20.6   0.0096 1.0256 170.2  m  20?   1.46  97.8   39  97  19  98
   2024 07 20 11:10  20 38 00.87    -24 49 22.4   0.0096 1.0256 170.2  m  20?   1.34  97.0   41  96  19  98
   2024 07 20 11:20  20 38 01.80    -24 49 23.9   0.0096 1.0256 170.2  m  20?   1.21  95.9   43  95  19  98
   2024 07 20 11:30  20 38 02.65    -24 49 25.0   0.0096 1.0256 170.2  m  20?   1.09  94.5   46  94  19  98
   2024 07 20 11:40  20 38 03.40    -24 49 25.7   0.0096 1.0256 170.2  m  20?   0.98  92.6   48  93  19  98
   2024 07 20 11:50  20 38 04.08    -24 49 25.9   0.0096 1.0256 170.2  m  20?   0.87  90.0   50  91  19  98
   2024 07 20 12:00  20 38 04.69    -24 49 25.7   0.0096 1.0256 170.2  m  20?   0.77  86.7   52  90  19  98
   2024 07 20 12:10  20 38 05.22    -24 49 25.0   0.0096 1.0256 170.2  m  20?   0.68  82.2   54  89  19  98
   2024 07 20 12:20  20 38 05.68    -24 49 23.9   0.0096 1.0256 170.2  m  20?   0.60  76.3   56  88  19  98
   2024 07 20 12:30  20 38 06.07    -24 49 22.2   0.0096 1.0256 170.2  m  20?   0.53  68.6   58  86  19  98
   2024 07 20 12:40  20 38 06.40    -24 49 20.0   0.0096 1.0256 170.2  m  20?   0.48  59.2   61  85  19  98
   2024 07 20 12:50  20 38 06.67    -24 49 17.3   0.0096 1.0256 170.2  m  20?   0.45  48.2   63  83  19  98
   2024 07 20 13:00  20 38 06.89    -24 49 14.1   0.0096 1.0256 170.2  m  20?   0.44  36.6   65  81  19  98
   2024 07 20 13:10  20 38 07.06    -24 49 10.3   0.0096 1.0256 170.2  m  20?   0.46  25.7   67  79  19  98
   2024 07 20 13:20  20 38 07.19    -24 49 05.9   0.0096 1.0256 170.2  m  20?   0.49  16.5   69  76  19  98
   2024 07 20 13:30  20 38 07.27    -24 49 00.9   0.0096 1.0256 170.2  m  20?   0.53   9.2   71  74  19  98
   2024 07 20 13:40  20 38 07.31    -24 48 55.4   0.0096 1.0256 170.2  m  20?   0.59   3.8   73  70  18  98
   2024 07 20 13:50  20 38 07.33    -24 48 49.2   0.0096 1.0256 170.3  m  20?   0.65 359.8   75  66  18  98
   2024 07 20 14:00  20 38 07.31    -24 48 42.4   0.0096 1.0256 170.3  m  20?   0.71 357.0   77  61  18  98
   2024 07 20 14:10  20 38 07.28    -24 48 35.1   0.0096 1.0256 170.3  m  20?   0.77 355.2   79  54  18  98
   2024 07 20 14:20  20 38 07.22    -24 48 27.1   0.0096 1.0256 170.3  m  20?   0.83 354.0   81  44  18  98
   2024 07 20 14:30  20 38 07.16    -24 48 18.4   0.0096 1.0256 170.3  m  20?   0.90 353.5   82  32  18  98
   2024 07 20 14:40  20 38 07.08    -24 48 09.2   0.0096 1.0256 170.3  m  20?   0.96 353.4   83  15  18  98
   2024 07 20 14:50  20 38 07.00    -24 47 59.3   0.0096 1.0256 170.3  t  20?   1.02 353.7   83 355  18  98
   2024 07 20 15:00  20 38 06.92    -24 47 48.8   0.0096 1.0256 170.3  m  20?   1.09 354.3   82 336  18  98
   2024 07 20 15:10  20 38 06.85    -24 47 37.7   0.0096 1.0256 170.3  m  20?   1.15 355.2   81 321  18  98
   2024 07 20 15:20  20 38 06.79    -24 47 26.0   0.0096 1.0256 170.3  m  20?   1.21 356.3   80 310  18  98
   2024 07 20 15:30  20 38 06.74    -24 47 13.6   0.0096 1.0256 170.3  m  20?   1.27 357.5   78 302  18  98
   2024 07 20 15:40  20 38 06.71    -24 47 00.7   0.0096 1.0256 170.3  m  20?   1.33 358.9   76 296  18  98
   2024 07 20 15:50  20 38 06.71    -24 46 47.1   0.0096 1.0256 170.3  m  20?   1.39   0.6   74 291  18  98
   2024 07 20 16:00  20 38 06.74    -24 46 32.9   0.0096 1.0256 170.3  m  20?   1.45   2.3   72 287  18  98
   2024 07 20 16:10  20 38 06.80    -24 46 18.1   0.0096 1.0256 170.3  m  20?   1.51   4.0   70 284  17  98
   2024 07 20 16:20  20 38 06.90    -24 46 02.8   0.0096 1.0256 170.4  m  20?   1.57   5.9   68 282  17  99
   2024 07 20 16:30  20 38 07.04    -24 45 46.9   0.0096 1.0256 170.4  m  20?   1.64   7.8   66 279  17  99
   2024 07 20 16:40  20 38 07.23    -24 45 30.4   0.0096 1.0256 170.4  m  20?   1.70   9.8   64 277  17  99
   2024 07 20 16:50  20 38 07.48    -24 45 13.4   0.0096 1.0256 170.4  m  20?   1.77  11.9   62 276  17  99
   2024 07 20 17:00  20 38 07.78    -24 44 55.8   0.0096 1.0256 170.4  m  20?   1.84  13.9   60 274  17  99
   2024 07 20 17:10  20 38 08.13    -24 44 37.7   0.0096 1.0256 170.4  m  20?   1.91  16.0   57 272  17  99
   2024 07 20 17:20  20 38 08.56    -24 44 19.1   0.0096 1.0256 170.4  m  20?   1.98  18.1   55 271  17  99
   2024 07 20 17:30  20 38 09.05    -24 44 00.1   0.0096 1.0256 170.4  m  20?   2.06  20.2   53 270  17  99
   2024 07 20 17:40  20 38 09.61    -24 43 40.5   0.0096 1.0256 170.4  m  20?   2.14  22.3   51 268  17  99
   2024 07 20 17:50  20 38 10.24    -24 43 20.6   0.0096 1.0256 170.4  m  20?   2.22  24.3   49 267  17  99
   2024 07 20 18:00  20 38 10.96    -24 43 00.2   0.0096 1.0256 170.4  m  20?   2.30  26.4   47 266  17  99
   2024 07 20 18:10  20 38 11.75    -24 42 39.3   0.0096 1.0256 170.4  m  20?   2.39  28.4   45 265  17  99
   2024 07 20 18:20  20 38 12.63    -24 42 18.1   0.0096 1.0256 170.4  m  20?   2.48  30.3   43 264  17  99
   2024 07 20 18:30  20 38 13.60    -24 41 56.6   0.0097 1.0256 170.4  m  20?   2.57  32.3   40 263  16  99
   2024 07 20 18:40  20 38 14.66    -24 41 34.7   0.0097 1.0256 170.4  m  20?   2.67  34.1   38 262  16  99
   2024 07 20 18:50  20 38 15.80    -24 41 12.4   0.0097 1.0256 170.4  m  20?   2.77  36.0   36 261  16  99
   2024 07 20 19:00  20 38 17.05    -24 40 49.9   0.0097 1.0256 170.4  m  20?   2.87  37.7   34 260  16  99
   2024 07 20 19:10  20 38 18.39    -24 40 27.1   0.0097 1.0256 170.4  m  20?   2.98  39.5   32 258  16  99
   2024 07 20 19:20  20 38 19.83    -24 40 04.0   0.0097 1.0256 170.4  m  20?   3.08  41.1   30 257  16  99
   2024 07 20 19:30  20 38 21.37    -24 39 40.8   0.0097 1.0256 170.4  m  20?   3.19  42.8   28 256  16  99
   2024 07 20 19:40  20 38 23.02    -24 39 17.3   0.0097 1.0256 170.4 Am  20?   3.30  44.3   26 255  16  99
   2024 07 20 19:50  20 38 24.77    -24 38 53.7   0.0097 1.0256 170.4 Am  20?   3.41  45.9   24 254  16  99
   2024 07 20 20:00  20 38 26.62    -24 38 29.9   0.0097 1.0256 170.4 Am  20?   3.53  47.3   22 253  16  99
   2024 07 20 20:10  20 38 28.58    -24 38 06.0   0.0097 1.0256 170.4 Nm  20?   3.64  48.8   19 252  16  99
   2024 07 20 20:20  20 38 30.64    -24 37 42.0   0.0097 1.0256 170.4 Nm  20?   3.76  50.1   17 251  15  99
   2024 07 20 20:30  20 38 32.82    -24 37 17.9   0.0097 1.0256 170.4 Nm  20?   3.88  51.5   15 250  15  99
   2024 07 20 20:40  20 38 35.10    -24 36 53.8   0.0097 1.0256 170.4 Cm  20?   3.99  52.8   13 249  15  99
   2024 07 20 20:50  20 38 37.49    -24 36 29.7   0.0097 1.0256 170.4 Cm  20?   4.11  54.0   11 248  15  99
   ................
   2024 07 21 07:50  20 43 08.11    -24 24 05.3   0.0097 1.0256 169.9 Nm  20?   4.16  94.4    0 118   8  99
   2024 07 21 08:00  20 43 11.09    -24 24 08.6   0.0097 1.0256 169.9 Nm  20?   4.01  94.8    2 117   8  99
   2024 07 21 08:10  20 43 13.96    -24 24 12.1   0.0097 1.0256 169.9 Nm  20?   3.87  95.1    4 115   8  99
   2024 07 21 08:20  20 43 16.73    -24 24 15.6   0.0097 1.0256 169.9 Am  20?   3.73  95.4    6 114   8  99
   2024 07 21 08:30  20 43 19.39    -24 24 19.3   0.0097 1.0256 169.9 Am  20?   3.58  95.8    8 113   8  99
   2024 07 21 08:40  20 43 21.95    -24 24 23.0   0.0097 1.0256 169.9 Am  20?   3.43  96.1   10 112   8  99
   2024 07 21 08:50  20 43 24.39    -24 24 26.7   0.0097 1.0256 169.9  m  20?   3.29  96.4   12 111   8  99
   2024 07 21 09:00  20 43 26.73    -24 24 30.4   0.0097 1.0256 169.9  m  20?   3.14  96.6   14 110   8  99
   2024 07 21 09:10  20 43 28.96    -24 24 34.1   0.0097 1.0256 169.9  m  20?   2.99  96.9   16 108   8  99
   2024 07 21 09:20  20 43 31.08    -24 24 37.7   0.0097 1.0256 169.9  m  20?   2.85  97.1   18 107   8  99
   2024 07 21 09:30  20 43 33.09    -24 24 41.2   0.0097 1.0256 169.9  m  20?   2.70  97.3   20 106   8  99
   2024 07 21 09:40  20 43 35.00    -24 24 44.6   0.0097 1.0256 169.9  m  20?   2.55  97.4   22 105   8  99
   2024 07 21 09:50  20 43 36.80    -24 24 47.9   0.0097 1.0256 169.9  m  20?   2.41  97.5   24 104   8  99
   2024 07 21 10:00  20 43 38.49    -24 24 51.1   0.0097 1.0256 169.9  m  20?   2.27  97.6   26 103   8  99
   2024 07 21 10:10  20 43 40.08    -24 24 54.0   0.0097 1.0256 169.9  m  20?   2.12  97.6   28 102   7  99
   2024 07 21 10:20  20 43 41.57    -24 24 56.7   0.0097 1.0256 169.9  m  20?   1.98  97.4   30 101   7  99
   2024 07 21 10:30  20 43 42.96    -24 24 59.2   0.0097 1.0256 169.9  m  20?   1.84  97.2   32 100   7  99
   2024 07 21 10:40  20 43 44.25    -24 25 01.4   0.0097 1.0256 169.9  m  20?   1.71  96.9   34  99   7  99
   2024 07 21 10:50  20 43 45.45    -24 25 03.4   0.0097 1.0256 169.9  m  20?   1.58  96.4   37  98   7  99
   2024 07 21 11:00  20 43 46.55    -24 25 05.0   0.0097 1.0256 169.9  m  20?   1.45  95.7   39  97   7  99
   2024 07 21 11:10  20 43 47.56    -24 25 06.3   0.0097 1.0256 169.9  m  20?   1.32  94.8   41  96   7  99
   2024 07 21 11:20  20 43 48.48    -24 25 07.2   0.0097 1.0256 169.9  m  20?   1.20  93.5   43  95   7  99
   2024 07 21 11:30  20 43 49.31    -24 25 07.8   0.0097 1.0256 169.9  m  20?   1.08  91.8   45  93   7  99
   2024 07 21 11:40  20 43 50.06    -24 25 08.0   0.0097 1.0256 169.9  m  20?   0.97  89.7   47  92   7  99
   2024 07 21 11:50  20 43 50.73    -24 25 07.7   0.0097 1.0256 169.9  m  20?   0.86  86.8   49  91   7  99
   2024 07 21 12:00  20 43 51.32    -24 25 07.0   0.0097 1.0256 169.9  m  20?   0.76  83.0   51  90   7  99
   2024 07 21 12:10  20 43 51.83    -24 25 05.9   0.0097 1.0256 169.9  m  20?   0.67  78.1   54  89   7  99
   2024 07 21 12:20  20 43 52.28    -24 25 04.3   0.0097 1.0256 169.9  m  20?   0.59  71.7   56  87   6  99
   2024 07 21 12:30  20 43 52.66    -24 25 02.2   0.0097 1.0256 169.9  m  20?   0.53  63.6   58  86   6  99
   2024 07 21 12:40  20 43 52.98    -24 24 59.6   0.0097 1.0256 169.9  m  20?   0.49  53.8   60  84   6  99
   2024 07 21 12:50  20 43 53.24    -24 24 56.4   0.0097 1.0256 169.9  m  20?   0.46  42.9   62  82   6  99
   2024 07 21 13:00  20 43 53.45    -24 24 52.8   0.0097 1.0256 169.9  m  20?   0.46  31.8   64  80   6  99
   2024 07 21 13:10  20 43 53.60    -24 24 48.5   0.0097 1.0256 169.9  m  20?   0.48  21.6   66  78   6  99
   2024 07 21 13:20  20 43 53.71    -24 24 43.8   0.0097 1.0256 169.9  m  20?   0.52  13.1   68  76   6  99
   2024 07 21 13:30  20 43 53.78    -24 24 38.4   0.0097 1.0256 169.9  m  20?   0.57   6.5   71  73   6  99
   2024 07 21 13:40  20 43 53.81    -24 24 32.5   0.0097 1.0256 169.9  m  20?   0.62   1.5   73  70   6  99
   2024 07 21 13:50  20 43 53.80    -24 24 26.0   0.0097 1.0256 170.0  m  20?   0.68 357.8   75  65   6  99
   2024 07 21 14:00  20 43 53.77    -24 24 18.9   0.0097 1.0256 170.0  m  20?   0.74 355.2   76  60   6  99
   2024 07 21 14:10  20 43 53.72    -24 24 11.2   0.0097 1.0256 170.0  m  20?   0.81 353.5   78  54   6  99
   2024 07 21 14:20  20 43 53.65    -24 24 02.9   0.0097 1.0256 170.0  m  20?   0.87 352.5   80  45   6  99
   2024 07 21 14:30  20 43 53.56    -24 23 53.9   0.0097 1.0256 170.0  m  20?   0.93 352.0   81  33   6  99
   2024 07 21 14:40  20 43 53.46    -24 23 44.4   0.0097 1.0256 170.0  m  20?   0.99 351.9   82  17   6  99
   2024 07 21 14:50  20 43 53.36    -24 23 34.2   0.0097 1.0256 170.0  t  20?   1.06 352.2   83 359   6  99
   2024 07 21 15:00  20 43 53.26    -24 23 23.5   0.0097 1.0256 170.0  m  20?   1.12 352.8   82 341   6  99
   2024 07 21 15:10  20 43 53.16    -24 23 12.1   0.0097 1.0256 170.0  m  20?   1.18 353.7   81 325   6  99
   2024 07 21 15:20  20 43 53.07    -24 23 00.1   0.0097 1.0256 170.0  m  20?   1.23 354.7   80 314   5  99
   2024 07 21 15:30  20 43 53.00    -24 22 47.5   0.0097 1.0256 170.0  m  20?   1.29 356.0   78 305   5  99
   2024 07 21 15:40  20 43 52.95    -24 22 34.3   0.0097 1.0256 170.0  m  20?   1.35 357.4   76 298   5  99
   2024 07 21 15:50  20 43 52.92    -24 22 20.5   0.0097 1.0256 170.0  m  20?   1.41 359.0   74 293   5  99
   2024 07 21 16:00  20 43 52.92    -24 22 06.1   0.0097 1.0256 170.0  m  20?   1.47   0.7   72 289   5  99
   2024 07 21 16:10  20 43 52.95    -24 21 51.2   0.0097 1.0256 170.0  m  20?   1.53   2.5   70 286   5  99
   2024 07 21 16:20  20 43 53.02    -24 21 35.6   0.0097 1.0256 170.1  m  20?   1.59   4.3   68 283   5  99
   2024 07 21 16:30  20 43 53.13    -24 21 19.5   0.0097 1.0255 170.1  m  20?   1.65   6.3   66 281   5  99
   2024 07 21 16:40  20 43 53.29    -24 21 02.8   0.0097 1.0255 170.1  m  20?   1.71   8.3   64 279   5  99
   2024 07 21 16:50  20 43 53.50    -24 20 45.6   0.0097 1.0255 170.1  m  20?   1.78  10.3   62 277   5  99
   2024 07 21 17:00  20 43 53.77    -24 20 27.9   0.0097 1.0255 170.1  m  20?   1.84  12.4   60 275   5  99
   2024 07 21 17:10  20 43 54.09    -24 20 09.7   0.0097 1.0255 170.1  m  20?   1.91  14.5   58 273   5  99
   2024 07 21 17:20  20 43 54.47    -24 19 51.0   0.0097 1.0255 170.1  m  20?   1.98  16.6   56 272   5  99
   2024 07 21 17:30  20 43 54.92    -24 19 31.7   0.0097 1.0255 170.1  m  20?   2.05  18.8   53 271   5  99
   2024 07 21 17:40  20 43 55.45    -24 19 12.1   0.0097 1.0255 170.1  m  20?   2.13  20.9   51 269   5  99
   2024 07 21 17:50  20 43 56.04    -24 18 52.0   0.0097 1.0255 170.1  m  20?   2.21  23.0   49 268   4  99
   2024 07 21 18:00  20 43 56.72    -24 18 31.4   0.0097 1.0255 170.1  m  20?   2.29  25.0   47 267   4  99
   2024 07 21 18:10  20 43 57.47    -24 18 10.5   0.0097 1.0255 170.1  m  20?   2.38  27.1   45 266   4  99
   2024 07 21 18:20  20 43 58.30    -24 17 49.2   0.0097 1.0255 170.1  m  20?   2.46  29.1   43 264   4  99
   2024 07 21 18:30  20 43 59.23    -24 17 27.5   0.0097 1.0255 170.1  m  20?   2.56  31.0   41 263   4  99
   2024 07 21 18:40  20 44 00.24    -24 17 05.4   0.0097 1.0255 170.1  m  20?   2.65  33.0   38 262   4  99
   2024 07 21 18:50  20 44 01.34    -24 16 43.1   0.0097 1.0255 170.1  m  20?   2.75  34.8   36 261   4  99
   2024 07 21 19:00  20 44 02.54    -24 16 20.4   0.0097 1.0255 170.1  m  20?   2.84  36.7   34 260   4  99
   2024 07 21 19:10  20 44 03.84    -24 15 57.5   0.0097 1.0255 170.1  m  20?   2.95  38.4   32 259   4  99
   2024 07 21 19:20  20 44 05.23    -24 15 34.4   0.0097 1.0255 170.1  m  20?   3.05  40.2   30 258   4  99
   2024 07 21 19:30  20 44 06.72    -24 15 11.0   0.0097 1.0255 170.1  m  20?   3.16  41.8   28 257   4  99
   2024 07 21 19:40  20 44 08.31    -24 14 47.4   0.0097 1.0255 170.1 Am  20?   3.27  43.4   26 256   4  99
   2024 07 21 19:50  20 44 10.01    -24 14 23.6   0.0097 1.0255 170.1 Am  20?   3.38  45.0   24 255   4  99
   2024 07 21 20:00  20 44 11.81    -24 13 59.7   0.0097 1.0255 170.1 Am  20?   3.49  46.5   22 254   4  99
   2024 07 21 20:10  20 44 13.72    -24 13 35.7   0.0097 1.0255 170.1 Nm  20?   3.60  48.0   20 253   4  99
   2024 07 21 20:20  20 44 15.73    -24 13 11.6   0.0097 1.0255 170.1 Nm  20?   3.72  49.4   18 252   4  99
   2024 07 21 20:30  20 44 17.85    -24 12 47.4   0.0097 1.0255 170.2 Nm  20?   3.83  50.7   16 251   3  99
   2024 07 21 20:40  20 44 20.08    -24 12 23.2   0.0097 1.0255 170.2 Cm  20?   3.95  52.0   14 250   3  99
   2024 07 21 20:50  20 44 22.41    -24 11 59.0   0.0097 1.0255 170.1 Cm  20?   4.07  53.3   12 248   3  99
   ................
   2024 07 22 07:50  20 48 49.91    -23 59 06.3   0.0097 1.0255 169.6 Nr  20?   4.13  93.5    0 118   5  98
   2024 07 22 08:00  20 48 52.87    -23 59 09.0   0.0097 1.0255 169.6 N   20?   3.99  93.9    2 116   5  98
   2024 07 22 08:10  20 48 55.72    -23 59 11.8   0.0097 1.0255 169.6 Nm  20?   3.85  94.2    3 115   5  98
   2024 07 22 08:20  20 48 58.47    -23 59 14.8   0.0097 1.0255 169.6 Am  20?   3.70  94.5    5 114   5  98
   2024 07 22 08:30  20 49 01.11    -23 59 17.8   0.0097 1.0255 169.6 Am  20?   3.56  94.8    7 113   5  98
   2024 07 22 08:40  20 49 03.65    -23 59 20.8   0.0097 1.0255 169.6 Am  20?   3.41  95.1    9 112   5  98
   2024 07 22 08:50  20 49 06.07    -23 59 23.9   0.0097 1.0255 169.6  m  20?   3.27  95.3   11 110   5  98
   2024 07 22 09:00  20 49 08.39    -23 59 27.0   0.0097 1.0255 169.6  m  20?   3.12  95.6   13 109   6  98
   2024 07 22 09:10  20 49 10.60    -23 59 30.1   0.0097 1.0255 169.6  m  20?   2.97  95.8   15 108   6  98
   2024 07 22 09:20  20 49 12.70    -23 59 33.1   0.0097 1.0255 169.6  m  20?   2.82  95.9   17 107   6  98
   2024 07 22 09:30  20 49 14.70    -23 59 36.0   0.0097 1.0255 169.6  m  20?   2.68  96.1   19 106   6  98
   2024 07 22 09:40  20 49 16.59    -23 59 38.9   0.0097 1.0255 169.6  m  20?   2.53  96.2   21 105   6  98
   2024 07 22 09:50  20 49 18.37    -23 59 41.6   0.0097 1.0255 169.6  m  20?   2.39  96.2   23 104   6  98
   2024 07 22 10:00  20 49 20.05    -23 59 44.1   0.0097 1.0255 169.6  m  20?   2.24  96.2   26 103   6  98
   2024 07 22 10:10  20 49 21.63    -23 59 46.5   0.0097 1.0255 169.6  m  20?   2.10  96.1   28 102   6  98
   2024 07 22 10:20  20 49 23.10    -23 59 48.7   0.0097 1.0255 169.6  m  20?   1.96  95.9   30 101   6  98
   2024 07 22 10:30  20 49 24.47    -23 59 50.6   0.0097 1.0255 169.6  m  20?   1.82  95.6   32 100   6  98
   2024 07 22 10:40  20 49 25.75    -23 59 52.3   0.0097 1.0255 169.6  m  20?   1.69  95.1   34  99   6  98
   2024 07 22 10:50  20 49 26.93    -23 59 53.7   0.0097 1.0255 169.6  m  20?   1.56  94.5   36  98   6  98
   2024 07 22 11:00  20 49 28.01    -23 59 54.8   0.0097 1.0255 169.6  m  20?   1.43  93.7   38  96   6  98
   2024 07 22 11:10  20 49 29.00    -23 59 55.6   0.0097 1.0255 169.6  m  20?   1.30  92.6   40  95   6  98
   2024 07 22 11:20  20 49 29.91    -23 59 56.0   0.0097 1.0255 169.6  m  20?   1.18  91.1   42  94   7  98
   2024 07 22 11:30  20 49 30.72    -23 59 56.1   0.0097 1.0255 169.6  m  20?   1.06  89.2   45  93   7  98
   2024 07 22 11:40  20 49 31.46    -23 59 55.8   0.0097 1.0255 169.6  m  20?   0.95  86.8   47  92   7  98
   2024 07 22 11:50  20 49 32.11    -23 59 55.1   0.0097 1.0255 169.6  m  20?   0.85  83.6   49  91   7  98
   2024 07 22 12:00  20 49 32.69    -23 59 53.9   0.0097 1.0255 169.6  m  20?   0.75  79.4   51  89   7  98
   2024 07 22 12:10  20 49 33.19    -23 59 52.3   0.0097 1.0255 169.6  m  20?   0.66  74.0   53  88   7  98
   2024 07 22 12:20  20 49 33.62    -23 59 50.3   0.0097 1.0255 169.6  m  20?   0.59  67.1   55  87   7  98
   2024 07 22 12:30  20 49 33.98    -23 59 47.7   0.0097 1.0255 169.6  m  20?   0.53  58.5   57  85   7  98
   2024 07 22 12:40  20 49 34.28    -23 59 44.7   0.0097 1.0255 169.6  m  20?   0.50  48.5   60  84   7  98
   2024 07 22 12:50  20 49 34.53    -23 59 41.2   0.0097 1.0255 169.6  m  20?   0.48  37.6   62  82   7  98
   2024 07 22 13:00  20 49 34.71    -23 59 37.1   0.0097 1.0255 169.6  m  20?   0.49  26.9   64  80   7  98
   2024 07 22 13:10  20 49 34.85    -23 59 32.5   0.0097 1.0255 169.6  m  20?   0.51  17.4   66  78   7  98
   2024 07 22 13:20  20 49 34.94    -23 59 27.4   0.0097 1.0255 169.6  m  20?   0.55   9.6   68  75   8  98
   2024 07 22 13:30  20 49 34.99    -23 59 21.7   0.0097 1.0255 169.6  m  20?   0.60   3.5   70  72   8  98
   2024 07 22 13:40  20 49 35.00    -23 59 15.4   0.0097 1.0255 169.6  m  20?   0.66 358.9   72  69   8  98
   2024 07 22 13:50  20 49 34.97    -23 59 08.6   0.0097 1.0255 169.7  m  20?   0.71 355.5   74  65   8  97
   2024 07 22 14:00  20 49 34.92    -23 59 01.2   0.0097 1.0255 169.7  m  20?   0.78 353.2   76  60   8  97
   2024 07 22 14:10  20 49 34.84    -23 58 53.2   0.0097 1.0255 169.7  m  20?   0.84 351.6   78  53   8  97
   2024 07 22 14:20  20 49 34.75    -23 58 44.6   0.0097 1.0255 169.7  m  20?   0.90 350.7   79  45   8  97
   2024 07 22 14:30  20 49 34.63    -23 58 35.3   0.0097 1.0255 169.7  m  20?   0.96 350.2   81  34   8  97
   2024 07 22 14:40  20 49 34.51    -23 58 25.5   0.0097 1.0255 169.7  m  20?   1.03 350.2   82  19   8  97
   2024 07 22 14:50  20 49 34.38    -23 58 15.1   0.0097 1.0255 169.7  m  20?   1.09 350.5   82   2   8  97
   2024 07 22 15:00  20 49 34.26    -23 58 04.1   0.0097 1.0255 169.7  t  20?   1.14 351.1   82 344   8  97
   2024 07 22 15:10  20 49 34.13    -23 57 52.5   0.0097 1.0255 169.7  m  20?   1.20 352.0   81 329   8  97
   2024 07 22 15:20  20 49 34.02    -23 57 40.3   0.0097 1.0255 169.7  m  20?   1.26 353.0   80 317   8  97
   2024 07 22 15:30  20 49 33.92    -23 57 27.5   0.0097 1.0255 169.7  m  20?   1.32 354.3   78 308   8  97
   2024 07 22 15:40  20 49 33.83    -23 57 14.1   0.0097 1.0255 169.7  m  20?   1.37 355.7   76 301   8  97
   2024 07 22 15:50  20 49 33.77    -23 57 00.1   0.0097 1.0255 169.7  m  20?   1.43 357.2   75 296   8  97
   2024 07 22 16:00  20 49 33.74    -23 56 45.5   0.0097 1.0255 169.7  m  20?   1.49 358.9   73 291   8  97
   2024 07 22 16:10  20 49 33.74    -23 56 30.4   0.0097 1.0255 169.7  m  20?   1.54   0.7   71 288   9  97
   2024 07 22 16:20  20 49 33.78    -23 56 14.7   0.0097 1.0255 169.8  m  20?   1.60   2.6   68 285   9  97
   2024 07 22 16:30  20 49 33.85    -23 55 58.4   0.0097 1.0255 169.8  m  20?   1.66   4.6   66 282   9  97
   2024 07 22 16:40  20 49 33.97    -23 55 41.6   0.0097 1.0255 169.8  m  20?   1.72   6.6   64 280   9  97
   2024 07 22 16:50  20 49 34.15    -23 55 24.3   0.0097 1.0255 169.8  m  20?   1.78   8.7   62 278   9  97
   2024 07 22 17:00  20 49 34.37    -23 55 06.4   0.0097 1.0255 169.8  m  20?   1.84  10.8   60 276   9  97
   2024 07 22 17:10  20 49 34.66    -23 54 48.1   0.0097 1.0255 169.8  m  20?   1.91  12.9   58 274   9  97
   2024 07 22 17:20  20 49 35.00    -23 54 29.2   0.0097 1.0255 169.8  m  20?   1.98  15.1   56 273   9  97
   2024 07 22 17:30  20 49 35.41    -23 54 09.9   0.0097 1.0255 169.8  m  20?   2.05  17.2   54 271   9  97
   2024 07 22 17:40  20 49 35.89    -23 53 50.1   0.0097 1.0255 169.8  m  20?   2.12  19.4   52 270   9  97
   2024 07 22 17:50  20 49 36.44    -23 53 29.9   0.0097 1.0255 169.8  m  20?   2.20  21.5   49 269   9  97
   2024 07 22 18:00  20 49 37.07    -23 53 09.3   0.0097 1.0255 169.8  m  20?   2.28  23.6   47 268   9  97
   2024 07 22 18:10  20 49 37.78    -23 52 48.2   0.0097 1.0255 169.8  m  20?   2.36  25.7   45 266  10  97
   2024 07 22 18:20  20 49 38.57    -23 52 26.8   0.0097 1.0255 169.8  m  20?   2.44  27.8   43 265  10  97
   2024 07 22 18:30  20 49 39.45    -23 52 05.1   0.0097 1.0255 169.8  m  20?   2.53  29.8   41 264  10  97
   2024 07 22 18:40  20 49 40.41    -23 51 42.9   0.0097 1.0255 169.8  m  20?   2.62  31.7   39 263  10  97
   2024 07 22 18:50  20 49 41.47    -23 51 20.5   0.0097 1.0255 169.8  m  20?   2.72  33.7   37 262  10  97
   2024 07 22 19:00  20 49 42.61    -23 50 57.8   0.0097 1.0255 169.8  m  20?   2.81  35.5   34 261  10  97
   2024 07 22 19:10  20 49 43.86    -23 50 34.8   0.0097 1.0255 169.8  m  20?   2.91  37.4   32 260  10  97
   2024 07 22 19:20  20 49 45.20    -23 50 11.6   0.0097 1.0255 169.8  m  20?   3.01  39.1   30 259  10  97
   2024 07 22 19:30  20 49 46.64    -23 49 48.1   0.0097 1.0255 169.8  m  20?   3.12  40.8   28 258  10  97
   2024 07 22 19:40  20 49 48.18    -23 49 24.5   0.0097 1.0255 169.9 Am  20?   3.23  42.5   26 257  10  97
   2024 07 22 19:50  20 49 49.82    -23 49 00.6   0.0097 1.0255 169.9 Am  20?   3.34  44.1   24 256  10  97
   2024 07 22 20:00  20 49 51.57    -23 48 36.6   0.0097 1.0255 169.9 Am  20?   3.45  45.6   22 255  10  97
   2024 07 22 20:10  20 49 53.42    -23 48 12.5   0.0097 1.0255 169.9 Nm  20?   3.56  47.1   20 253  10  97
   2024 07 22 20:20  20 49 55.37    -23 47 48.4   0.0097 1.0255 169.9 Nm  20?   3.67  48.6   18 252  10  97
   2024 07 22 20:30  20 49 57.44    -23 47 24.1   0.0097 1.0255 169.9 Nm  20?   3.79  50.0   16 251  10  97
   2024 07 22 20:40  20 49 59.61    -23 46 59.8   0.0097 1.0255 169.9 Cm  20?   3.90  51.3   14 250  10  97
   2024 07 22 20:50  20 50 01.88    -23 46 35.4   0.0097 1.0255 169.9 Cm  20?   4.02  52.6   12 249  10  97
   ................
   2024 07 23 07:50  20 54 26.01    -23 33 17.5   0.0097 1.0254 169.3 Nr  20?   4.11  92.7    0 118  17  94
   2024 07 23 08:00  20 54 28.94    -23 33 19.6   0.0097 1.0254 169.3 N   20?   3.96  93.0    1 116  18  94
   2024 07 23 08:10  20 54 31.77    -23 33 21.9   0.0097 1.0254 169.3 N   20?   3.82  93.3    3 115  18  94
   2024 07 23 08:20  20 54 34.49    -23 33 24.2   0.0097 1.0254 169.3 A   20?   3.68  93.6    5 114  18  94
   2024 07 23 08:30  20 54 37.10    -23 33 26.6   0.0097 1.0254 169.3 A   20?   3.53  93.9    7 113  18  94
   2024 07 23 08:40  20 54 39.61    -23 33 29.1   0.0097 1.0254 169.3 A   20?   3.38  94.1    9 111  18  94
   2024 07 23 08:50  20 54 42.01    -23 33 31.6   0.0097 1.0254 169.3     20?   3.24  94.3   11 110  18  94
   2024 07 23 09:00  20 54 44.31    -23 33 34.1   0.0097 1.0254 169.3     20?   3.09  94.5   13 109  18  94
   2024 07 23 09:10  20 54 46.49    -23 33 36.6   0.0097 1.0254 169.3     20?   2.94  94.7   15 108  18  94
   2024 07 23 09:20  20 54 48.57    -23 33 39.0   0.0097 1.0254 169.3  m  20?   2.80  94.8   17 107  18  94
   2024 07 23 09:30  20 54 50.55    -23 33 41.4   0.0097 1.0254 169.3  m  20?   2.65  94.9   19 106  18  94
   2024 07 23 09:40  20 54 52.41    -23 33 43.7   0.0097 1.0254 169.3  m  20?   2.50  95.0   21 105  19  94
   2024 07 23 09:50  20 54 54.18    -23 33 45.8   0.0097 1.0254 169.3  m  20?   2.36  94.9   23 104  19  94
   2024 07 23 10:00  20 54 55.83    -23 33 47.8   0.0097 1.0254 169.3  m  20?   2.22  94.8   25 103  19  94
   2024 07 23 10:10  20 54 57.39    -23 33 49.7   0.0097 1.0254 169.3  m  20?   2.07  94.7   27 102  19  94
   2024 07 23 10:20  20 54 58.84    -23 33 51.3   0.0097 1.0254 169.3  m  20?   1.93  94.4   29 100  19  94
   2024 07 23 10:30  20 55 00.19    -23 33 52.7   0.0097 1.0254 169.3  m  20?   1.80  94.0   31  99  19  94
   2024 07 23 10:40  20 55 01.45    -23 33 53.9   0.0097 1.0254 169.3  m  20?   1.66  93.5   33  98  19  94
   2024 07 23 10:50  20 55 02.61    -23 33 54.8   0.0097 1.0254 169.3  m  20?   1.53  92.7   36  97  19  93
   2024 07 23 11:00  20 55 03.67    -23 33 55.4   0.0097 1.0254 169.3  m  20?   1.40  91.8   38  96  19  93
   2024 07 23 11:10  20 55 04.64    -23 33 55.7   0.0097 1.0254 169.3  m  20?   1.27  90.5   40  95  19  93
   2024 07 23 11:20  20 55 05.53    -23 33 55.6   0.0097 1.0254 169.3  m  20?   1.15  88.8   42  94  19  93
   2024 07 23 11:30  20 55 06.32    -23 33 55.2   0.0097 1.0254 169.3  m  20?   1.04  86.7   44  93  19  93
   2024 07 23 11:40  20 55 07.03    -23 33 54.5   0.0097 1.0254 169.3  m  20?   0.93  83.9   46  92  20  93
   2024 07 23 11:50  20 55 07.67    -23 33 53.3   0.0097 1.0254 169.3  m  20?   0.83  80.3   48  90  20  93
   2024 07 23 12:00  20 55 08.22    -23 33 51.7   0.0097 1.0254 169.3  m  20?   0.73  75.7   50  89  20  93
   2024 07 23 12:10  20 55 08.70    -23 33 49.7   0.0097 1.0254 169.3  m  20?   0.65  69.8   53  88  20  93
   2024 07 23 12:20  20 55 09.11    -23 33 47.3   0.0097 1.0254 169.3  m  20?   0.58  62.3   55  86  20  93
   2024 07 23 12:30  20 55 09.45    -23 33 44.3   0.0097 1.0254 169.3  m  20?   0.53  53.3   57  85  20  93
   2024 07 23 12:40  20 55 09.73    -23 33 40.9   0.0097 1.0254 169.3  m  20?   0.50  43.0   59  83  20  93
   2024 07 23 12:50  20 55 09.95    -23 33 37.0   0.0097 1.0254 169.3  m  20?   0.49  32.2   61  81  20  93
   2024 07 23 13:00  20 55 10.12    -23 33 32.6   0.0097 1.0254 169.3  m  20?   0.50  22.0   63  79  20  93
   2024 07 23 13:10  20 55 10.23    -23 33 27.6   0.0097 1.0254 169.3  m  20?   0.53  13.1   65  77  20  93
   2024 07 23 13:20  20 55 10.30    -23 33 22.2   0.0097 1.0254 169.3  m  20?   0.58   5.9   67  75  20  93
   2024 07 23 13:30  20 55 10.32    -23 33 16.2   0.0097 1.0254 169.4  m  20?   0.63   0.3   69  72  20  93
   2024 07 23 13:40  20 55 10.30    -23 33 09.6   0.0097 1.0254 169.4  m  20?   0.69 356.0   71  68  20  93
   2024 07 23 13:50  20 55 10.25    -23 33 02.4   0.0097 1.0254 169.4  m  20?   0.75 353.0   73  64  21  93
   2024 07 23 14:00  20 55 10.18    -23 32 54.7   0.0097 1.0254 169.4  m  20?   0.81 350.8   75  59  21  93
   2024 07 23 14:10  20 55 10.07    -23 32 46.4   0.0097 1.0254 169.4  m  20?   0.87 349.4   77  53  21  93
   2024 07 23 14:20  20 55 09.95    -23 32 37.6   0.0097 1.0254 169.4  m  20?   0.93 348.6   79  45  21  93
   2024 07 23 14:30  20 55 09.81    -23 32 28.1   0.0097 1.0254 169.4  m  20?   1.00 348.2   80  34  21  93
   2024 07 23 14:40  20 55 09.66    -23 32 18.1   0.0097 1.0254 169.4  m  20?   1.06 348.2   81  21  21  93
   2024 07 23 14:50  20 55 09.50    -23 32 07.4   0.0097 1.0254 169.4  m  20?   1.11 348.6   82   5  21  93
   2024 07 23 15:00  20 55 09.34    -23 31 56.2   0.0097 1.0254 169.4  t  20?   1.17 349.2   82 348  21  93
   2024 07 23 15:10  20 55 09.19    -23 31 44.4   0.0097 1.0254 169.4  m  20?   1.23 350.0   81 333  21  93
   2024 07 23 15:20  20 55 09.04    -23 31 32.0   0.0097 1.0254 169.4  m  20?   1.28 351.1   80 320  21  93
   2024 07 23 15:30  20 55 08.90    -23 31 19.0   0.0097 1.0254 169.4  m  20?   1.34 352.4   78 311  21  93
   2024 07 23 15:40  20 55 08.79    -23 31 05.4   0.0097 1.0254 169.4  m  20?   1.39 353.8   76 304  21  93
   2024 07 23 15:50  20 55 08.69    -23 30 51.3   0.0097 1.0254 169.4  m  20?   1.45 355.3   75 298  21  93
   2024 07 23 16:00  20 55 08.62    -23 30 36.5   0.0097 1.0254 169.5  m  20?   1.50 357.0   73 293  21  93
   2024 07 23 16:10  20 55 08.59    -23 30 21.3   0.0097 1.0254 169.5  m  20?   1.56 358.8   71 289  22  93
   2024 07 23 16:20  20 55 08.58    -23 30 05.4   0.0097 1.0254 169.5  m  20?   1.61   0.7   69 286  22  93
   2024 07 23 16:30  20 55 08.62    -23 29 49.0   0.0097 1.0254 169.5  m  20?   1.67   2.7   67 284  22  92
   2024 07 23 16:40  20 55 08.71    -23 29 32.1   0.0097 1.0254 169.5  m  20?   1.72   4.8   64 281  22  92
   2024 07 23 16:50  20 55 08.84    -23 29 14.7   0.0097 1.0254 169.5  m  20?   1.78   6.9   62 279  22  92
   2024 07 23 17:00  20 55 09.02    -23 28 56.7   0.0097 1.0254 169.5  m  20?   1.84   9.0   60 277  22  92
   2024 07 23 17:10  20 55 09.26    -23 28 38.3   0.0097 1.0254 169.5  m  20?   1.91  11.2   58 275  22  92
   2024 07 23 17:20  20 55 09.56    -23 28 19.4   0.0097 1.0254 169.5  m  20?   1.97  13.3   56 274  22  92
   2024 07 23 17:30  20 55 09.93    -23 28 00.0   0.0097 1.0254 169.5  m  20?   2.04  15.5   54 272  22  92
   2024 07 23 17:40  20 55 10.36    -23 27 40.1   0.0097 1.0254 169.5  m  20?   2.11  17.7   52 271  22  92
   2024 07 23 17:50  20 55 10.87    -23 27 19.8   0.0097 1.0254 169.5  m  20?   2.18  19.9   50 270  22  92
   2024 07 23 18:00  20 55 11.45    -23 26 59.1   0.0097 1.0254 169.5  m  20?   2.26  22.1   47 268  22  92
   2024 07 23 18:10  20 55 12.11    -23 26 38.1   0.0097 1.0254 169.5  m  20?   2.34  24.2   45 267  22  92
   2024 07 23 18:20  20 55 12.85    -23 26 16.6   0.0097 1.0254 169.5  m  20?   2.42  26.4   43 266  22  92
   2024 07 23 18:30  20 55 13.68    -23 25 54.8   0.0097 1.0254 169.5  m  20?   2.50  28.4   41 265  23  92
   2024 07 23 18:40  20 55 14.59    -23 25 32.6   0.0097 1.0254 169.5  m  20?   2.59  30.5   39 264  23  92
   2024 07 23 18:50  20 55 15.60    -23 25 10.2   0.0097 1.0254 169.6  m  20?   2.68  32.4   37 263  23  92
   2024 07 23 19:00  20 55 16.69    -23 24 47.4   0.0097 1.0254 169.6  m  20?   2.78  34.4   35 262  23  92
   2024 07 23 19:10  20 55 17.88    -23 24 24.4   0.0097 1.0254 169.6  m  20?   2.87  36.2   33 260  23  92
   2024 07 23 19:20  20 55 19.17    -23 24 01.1   0.0097 1.0254 169.6  m  20?   2.97  38.1   30 259  23  92
   2024 07 23 19:30  20 55 20.55    -23 23 37.6   0.0097 1.0254 169.6  m  20?   3.08  39.8   28 258  23  92
   2024 07 23 19:40  20 55 22.04    -23 23 13.9   0.0097 1.0254 169.6 Am  20?   3.18  41.5   26 257  23  92
   2024 07 23 19:50  20 55 23.62    -23 22 50.1   0.0097 1.0254 169.6 Am  20?   3.29  43.2   24 256  23  92
   2024 07 23 20:00  20 55 25.31    -23 22 26.1   0.0097 1.0254 169.6 Am  20?   3.40  44.8   22 255  23  92
   2024 07 23 20:10  20 55 27.10    -23 22 01.9   0.0097 1.0254 169.6 Nm  20?   3.51  46.3   20 254  23  92
   2024 07 23 20:20  20 55 29.00    -23 21 37.7   0.0097 1.0254 169.6 Nm  20?   3.62  47.8   18 253  23  92
   2024 07 23 20:30  20 55 31.01    -23 21 13.4   0.0097 1.0254 169.6 Nm  20?   3.73  49.2   16 252  23  92
   2024 07 23 20:40  20 55 33.11    -23 20 49.0   0.0097 1.0254 169.6 Cm  20?   3.85  50.6   14 251  24  92
   2024 07 23 20:50  20 55 35.33    -23 20 24.6   0.0097 1.0254 169.6 Cm  20?   3.96  51.9   12 250  24  92
   ................
   2024 07 24 08:00  20 59 58.74    -23 06 46.1   0.0097 1.0254 169.0 N   20?   3.93  92.2    0 116  31  88
   2024 07 24 08:10  21 00 01.54    -23 06 47.7   0.0097 1.0254 169.0 N   20?   3.79  92.5    2 115  31  88
   2024 07 24 08:20  21 00 04.23    -23 06 49.5   0.0097 1.0254 169.0 A   20?   3.64  92.8    4 114  31  88
   2024 07 24 08:30  21 00 06.81    -23 06 51.4   0.0097 1.0254 169.0 A   20?   3.50  93.0    6 112  31  88
   2024 07 24 08:40  21 00 09.29    -23 06 53.3   0.0097 1.0254 169.0 A   20?   3.35  93.2    8 111  31  87
   2024 07 24 08:50  21 00 11.66    -23 06 55.2   0.0097 1.0254 169.0     20?   3.20  93.4   10 110  31  87
   2024 07 24 09:00  21 00 13.93    -23 06 57.2   0.0097 1.0254 169.0     20?   3.06  93.6   12 109  31  87
   2024 07 24 09:10  21 00 16.08    -23 06 59.1   0.0097 1.0254 169.0     20?   2.91  93.7   14 108  31  87
   2024 07 24 09:20  21 00 18.14    -23 07 01.0   0.0097 1.0253 169.0     20?   2.76  93.8   16 107  32  87
   2024 07 24 09:30  21 00 20.08    -23 07 02.9   0.0097 1.0253 169.0     20?   2.62  93.8   18 106  32  87
   2024 07 24 09:40  21 00 21.92    -23 07 04.6   0.0097 1.0253 169.0     20?   2.47  93.8   20 104  32  87
   2024 07 24 09:50  21 00 23.66    -23 07 06.2   0.0097 1.0253 169.0     20?   2.33  93.7   22 103  32  87
   2024 07 24 10:00  21 00 25.29    -23 07 07.7   0.0097 1.0253 169.0     20?   2.18  93.6   25 102  32  87
   2024 07 24 10:10  21 00 26.82    -23 07 09.0   0.0097 1.0253 169.0     20?   2.04  93.3   27 101  32  87
   2024 07 24 10:20  21 00 28.24    -23 07 10.2   0.0097 1.0253 169.0     20?   1.90  93.0   29 100  32  87
   2024 07 24 10:30  21 00 29.57    -23 07 11.1   0.0097 1.0253 169.0  m  20?   1.76  92.5   31  99  32  87
   2024 07 24 10:40  21 00 30.80    -23 07 11.8   0.0097 1.0253 169.0  m  20?   1.63  91.8   33  98  32  87
   2024 07 24 10:50  21 00 31.93    -23 07 12.2   0.0097 1.0253 169.0  m  20?   1.50  91.0   35  97  32  87
   2024 07 24 11:00  21 00 32.97    -23 07 12.3   0.0097 1.0253 169.0  m  20?   1.37  89.9   37  96  33  87
   2024 07 24 11:10  21 00 33.92    -23 07 12.2   0.0097 1.0253 169.0  m  20?   1.24  88.4   39  95  33  87
   2024 07 24 11:20  21 00 34.78    -23 07 11.7   0.0097 1.0253 169.0  m  20?   1.12  86.5   41  93  33  87
   2024 07 24 11:30  21 00 35.55    -23 07 10.9   0.0097 1.0253 169.0  m  20?   1.01  84.1   44  92  33  86
   2024 07 24 11:40  21 00 36.23    -23 07 09.7   0.0097 1.0253 169.0  m  20?   0.90  81.1   46  91  33  86
   2024 07 24 11:50  21 00 36.84    -23 07 08.1   0.0097 1.0253 169.0  m  20?   0.80  77.1   48  90  33  86
   2024 07 24 12:00  21 00 37.37    -23 07 06.1   0.0097 1.0253 169.0  m  20?   0.71  72.0   50  89  33  86
   2024 07 24 12:10  21 00 37.82    -23 07 03.7   0.0097 1.0253 169.0  m  20?   0.63  65.5   52  87  33  86
   2024 07 24 12:20  21 00 38.21    -23 07 00.8   0.0097 1.0253 169.0  m  20?   0.57  57.4   54  86  33  86
   2024 07 24 12:30  21 00 38.52    -23 06 57.5   0.0097 1.0253 169.0  m  20?   0.53  47.8   56  84  33  86
   2024 07 24 12:40  21 00 38.78    -23 06 53.8   0.0097 1.0253 169.0  m  20?   0.50  37.3   59  82  33  86
   2024 07 24 12:50  21 00 38.97    -23 06 49.5   0.0097 1.0253 169.0  m  20?   0.50  26.6   61  81  34  86
   2024 07 24 13:00  21 00 39.11    -23 06 44.8   0.0097 1.0253 169.1  m  20?   0.52  16.8   63  79  34  86
   2024 07 24 13:10  21 00 39.19    -23 06 39.5   0.0097 1.0253 169.1  m  20?   0.56   8.5   65  76  34  86
   2024 07 24 13:20  21 00 39.23    -23 06 33.7   0.0097 1.0253 169.1  m  20?   0.61   1.9   67  74  34  86
   2024 07 24 13:30  21 00 39.23    -23 06 27.4   0.0097 1.0253 169.1  m  20?   0.66 356.8   69  71  34  86
   2024 07 24 13:40  21 00 39.18    -23 06 20.5   0.0097 1.0253 169.1  m  20?   0.72 352.9   71  68  34  86
   2024 07 24 13:50  21 00 39.10    -23 06 13.1   0.0097 1.0253 169.1  m  20?   0.78 350.2   73  64  34  86
   2024 07 24 14:00  21 00 38.99    -23 06 05.2   0.0097 1.0253 169.1  m  20?   0.84 348.3   75  59  34  86
   2024 07 24 14:10  21 00 38.86    -23 05 56.6   0.0097 1.0253 169.1  m  20?   0.90 347.0   77  52  34  86
   2024 07 24 14:20  21 00 38.70    -23 05 47.5   0.0097 1.0253 169.1  m  20?   0.97 346.3   78  45  34  86
   2024 07 24 14:30  21 00 38.53    -23 05 37.8   0.0097 1.0253 169.1  m  20?   1.03 346.0   80  34  34  86
   2024 07 24 14:40  21 00 38.35    -23 05 27.6   0.0097 1.0253 169.1  m  20?   1.09 346.0   81  22  34  86
   2024 07 24 14:50  21 00 38.16    -23 05 16.7   0.0097 1.0253 169.1  m  20?   1.14 346.4   81   7  34  86
   2024 07 24 15:00  21 00 37.96    -23 05 05.3   0.0097 1.0253 169.1  t  20?   1.20 347.1   81 351  35  86
   2024 07 24 15:10  21 00 37.77    -23 04 53.3   0.0097 1.0253 169.1  m  20?   1.26 348.0   81 336  35  86
   2024 07 24 15:20  21 00 37.59    -23 04 40.8   0.0097 1.0253 169.1  m  20?   1.31 349.0   79 324  35  85
   2024 07 24 15:30  21 00 37.42    -23 04 27.6   0.0097 1.0253 169.2  m  20?   1.36 350.3   78 314  35  85
   2024 07 24 15:40  21 00 37.27    -23 04 13.9   0.0097 1.0253 169.2  m  20?   1.41 351.7   76 306  35  85
   2024 07 24 15:50  21 00 37.13    -23 03 59.6   0.0097 1.0253 169.2  m  20?   1.47 353.3   75 300  35  85
   2024 07 24 16:00  21 00 37.02    -23 03 44.8   0.0097 1.0253 169.2  m  20?   1.52 355.0   73 295  35  85
   2024 07 24 16:10  21 00 36.95    -23 03 29.4   0.0097 1.0253 169.2  m  20?   1.57 356.8   71 291  35  85
   2024 07 24 16:20  21 00 36.90    -23 03 13.5   0.0097 1.0253 169.2  m  20?   1.62 358.7   69 288  35  85
   2024 07 24 16:30  21 00 36.90    -23 02 57.0   0.0097 1.0253 169.2  m  20?   1.67   0.7   67 285  35  85
   2024 07 24 16:40  21 00 36.94    -23 02 40.0   0.0097 1.0253 169.2  m  20?   1.73   2.8   65 283  35  85
   2024 07 24 16:50  21 00 37.03    -23 02 22.5   0.0097 1.0253 169.2  m  20?   1.78   4.9   63 280  35  85
   2024 07 24 17:00  21 00 37.17    -23 02 04.5   0.0097 1.0253 169.2  m  20?   1.84   7.1   60 278  35  85
   2024 07 24 17:10  21 00 37.36    -23 01 46.0   0.0097 1.0253 169.2  m  20?   1.90   9.3   58 277  35  85
   2024 07 24 17:20  21 00 37.62    -23 01 27.0   0.0097 1.0253 169.2  m  20?   1.96  11.5   56 275  35  85
   2024 07 24 17:30  21 00 37.94    -23 01 07.5   0.0097 1.0253 169.2  m  20?   2.03  13.8   54 273  36  85
   2024 07 24 17:40  21 00 38.33    -23 00 47.7   0.0097 1.0253 169.2  m  20?   2.09  16.0   52 272  36  85
   2024 07 24 17:50  21 00 38.78    -23 00 27.4   0.0097 1.0253 169.2  m  20?   2.16  18.3   50 271  36  85
   2024 07 24 18:00  21 00 39.31    -23 00 06.6   0.0097 1.0253 169.3  m  20?   2.23  20.5   48 269  36  85
   2024 07 24 18:10  21 00 39.92    -22 59 45.5   0.0097 1.0253 169.3  m  20?   2.31  22.7   45 268  36  85
   2024 07 24 18:20  21 00 40.61    -22 59 24.1   0.0097 1.0253 169.3  m  20?   2.39  24.9   43 267  36  85
   2024 07 24 18:30  21 00 41.39    -22 59 02.2   0.0097 1.0253 169.3  m  20?   2.47  27.0   41 266  36  85
   2024 07 24 18:40  21 00 42.25    -22 58 40.1   0.0097 1.0253 169.3  m  20?   2.56  29.1   39 264  36  85
   2024 07 24 18:50  21 00 43.19    -22 58 17.6   0.0097 1.0253 169.3  m  20?   2.65  31.1   37 263  36  85
   2024 07 24 19:00  21 00 44.23    -22 57 54.9   0.0097 1.0253 169.3  m  20?   2.74  33.1   35 262  36  85
   2024 07 24 19:10  21 00 45.37    -22 57 31.8   0.0097 1.0253 169.3  m  20?   2.83  35.1   33 261  36  85
   2024 07 24 19:20  21 00 46.60    -22 57 08.6   0.0097 1.0253 169.3  m  20?   2.93  36.9   31 260  36  85
   2024 07 24 19:30  21 00 47.92    -22 56 45.1   0.0097 1.0253 169.3  m  20?   3.03  38.8   28 259  36  85
   2024 07 24 19:40  21 00 49.35    -22 56 21.4   0.0097 1.0253 169.3 Am  20?   3.13  40.5   26 258  36  84
   2024 07 24 19:50  21 00 50.88    -22 55 57.6   0.0097 1.0253 169.3 Am  20?   3.24  42.2   24 257  37  84
   2024 07 24 20:00  21 00 52.51    -22 55 33.6   0.0097 1.0253 169.3 Am  20?   3.34  43.9   22 256  37  84
   2024 07 24 20:10  21 00 54.24    -22 55 09.4   0.0097 1.0253 169.3 Nm  20?   3.45  45.4   20 255  37  84
   2024 07 24 20:20  21 00 56.08    -22 54 45.2   0.0097 1.0253 169.3 Nm  20?   3.56  47.0   18 254  37  84
   2024 07 24 20:30  21 00 58.02    -22 54 20.9   0.0097 1.0253 169.3 Nm  20?   3.68  48.4   16 252  37  84
   2024 07 24 20:40  21 01 00.07    -22 53 56.5   0.0097 1.0253 169.3 Cm  20?   3.79  49.9   14 251  37  84
   2024 07 24 20:50  21 01 02.22    -22 53 32.2   0.0097 1.0253 169.3 Cm  20?   3.90  51.2   12 250  37  84
   ................
   2024 07 25 08:00  21 05 21.77    -22 39 33.9   0.0098 1.0253 168.8 N   20?   3.89  91.5    0 116  44  79
   2024 07 25 08:10  21 05 24.53    -22 39 35.0   0.0098 1.0253 168.8 N   20?   3.75  91.7    2 115  44  79
   2024 07 25 08:20  21 05 27.18    -22 39 36.3   0.0098 1.0253 168.8 N   20?   3.60  92.0    4 113  44  79
   2024 07 25 08:30  21 05 29.73    -22 39 37.6   0.0098 1.0253 168.7 A   20?   3.46  92.2    6 112  44  79
   2024 07 25 08:40  21 05 32.18    -22 39 39.0   0.0098 1.0253 168.7 A   20?   3.31  92.3    8 111  44  79
   2024 07 25 08:50  21 05 34.52    -22 39 40.4   0.0098 1.0253 168.7     20?   3.17  92.5   10 110  44  79
   2024 07 25 09:00  21 05 36.75    -22 39 41.9   0.0098 1.0253 168.7     20?   3.02  92.6   12 109  44  79
   2024 07 25 09:10  21 05 38.87    -22 39 43.3   0.0097 1.0253 168.7     20?   2.87  92.7   14 108  45  79
   2024 07 25 09:20  21 05 40.89    -22 39 44.7   0.0097 1.0253 168.7     20?   2.73  92.8   16 106  45  79
   2024 07 25 09:30  21 05 42.81    -22 39 46.0   0.0097 1.0253 168.7     20?   2.58  92.8   18 105  45  78
   2024 07 25 09:40  21 05 44.61    -22 39 47.3   0.0097 1.0253 168.7     20?   2.43  92.7   20 104  45  78
   2024 07 25 09:50  21 05 46.32    -22 39 48.4   0.0097 1.0253 168.7     20?   2.29  92.6   22 103  45  78
   2024 07 25 10:00  21 05 47.92    -22 39 49.4   0.0097 1.0253 168.7     20?   2.15  92.4   24 102  45  78
   2024 07 25 10:10  21 05 49.42    -22 39 50.2   0.0097 1.0253 168.7     20?   2.00  92.0   26 101  45  78
   2024 07 25 10:20  21 05 50.81    -22 39 50.9   0.0097 1.0253 168.7     20?   1.86  91.6   28 100  45  78
   2024 07 25 10:30  21 05 52.11    -22 39 51.3   0.0097 1.0253 168.7     20?   1.73  91.0   30  99  45  78
   2024 07 25 10:40  21 05 53.31    -22 39 51.6   0.0097 1.0253 168.7     20?   1.59  90.3   32  98  46  78
   2024 07 25 10:50  21 05 54.41    -22 39 51.5   0.0097 1.0253 168.7     20?   1.46  89.3   35  97  46  78
   2024 07 25 11:00  21 05 55.42    -22 39 51.2   0.0097 1.0253 168.7     20?   1.33  88.0   37  95  46  78
   2024 07 25 11:10  21 05 56.34    -22 39 50.7   0.0097 1.0253 168.7     20?   1.21  86.4   39  94  46  78
   2024 07 25 11:20  21 05 57.17    -22 39 49.7   0.0097 1.0253 168.7     20?   1.09  84.3   41  93  46  78
   2024 07 25 11:30  21 05 57.91    -22 39 48.5   0.0097 1.0253 168.7     20?   0.98  81.6   43  92  46  78
   2024 07 25 11:40  21 05 58.57    -22 39 46.9   0.0097 1.0253 168.7  m  20?   0.87  78.1   45  91  46  78
   2024 07 25 11:50  21 05 59.14    -22 39 44.9   0.0097 1.0253 168.8  m  20?   0.77  73.7   47  89  46  77
   2024 07 25 12:00  21 05 59.64    -22 39 42.6   0.0097 1.0253 168.8  m  20?   0.69  68.0   49  88  46  77
   2024 07 25 12:10  21 06 00.07    -22 39 39.8   0.0097 1.0253 168.8  m  20?   0.62  60.9   52  87  46  77
   2024 07 25 12:20  21 06 00.42    -22 39 36.6   0.0097 1.0253 168.8  m  20?   0.56  52.2   54  85  47  77
   2024 07 25 12:30  21 06 00.71    -22 39 33.0   0.0097 1.0253 168.8  m  20?   0.52  42.1   56  84  47  77
   2024 07 25 12:40  21 06 00.93    -22 39 28.9   0.0097 1.0253 168.8  m  20?   0.51  31.3   58  82  47  77
   2024 07 25 12:50  21 06 01.09    -22 39 24.3   0.0097 1.0253 168.8  m  20?   0.52  20.9   60  80  47  77
   2024 07 25 13:00  21 06 01.20    -22 39 19.2   0.0097 1.0253 168.8  m  20?   0.54  11.6   62  78  47  77
   2024 07 25 13:10  21 06 01.25    -22 39 13.7   0.0097 1.0253 168.8  m  20?   0.58   3.9   64  76  47  77
   2024 07 25 13:20  21 06 01.26    -22 39 07.6   0.0097 1.0253 168.8  m  20?   0.63 357.8   66  73  47  77
   2024 07 25 13:30  21 06 01.22    -22 39 01.0   0.0097 1.0253 168.8  m  20?   0.69 353.1   68  70  47  77
   2024 07 25 13:40  21 06 01.14    -22 38 53.9   0.0097 1.0253 168.8  m  20?   0.75 349.7   70  67  47  77
   2024 07 25 13:50  21 06 01.03    -22 38 46.2   0.0097 1.0253 168.8  m  20?   0.81 347.2   72  63  47  77
   2024 07 25 14:00  21 06 00.89    -22 38 38.0   0.0097 1.0253 168.8  m  20?   0.88 345.5   74  58  47  77
   2024 07 25 14:10  21 06 00.72    -22 38 29.3   0.0097 1.0253 168.8  m  20?   0.94 344.4   76  52  48  77
   2024 07 25 14:20  21 06 00.53    -22 38 20.0   0.0097 1.0253 168.8  m  20?   1.00 343.8   78  44  48  77
   2024 07 25 14:30  21 06 00.32    -22 38 10.1   0.0097 1.0253 168.8  m  20?   1.06 343.6   79  35  48  76
   2024 07 25 14:40  21 06 00.10    -22 37 59.6   0.0097 1.0252 168.9  m  20?   1.12 343.7   80  23  48  76
   2024 07 25 14:50  21 05 59.87    -22 37 48.6   0.0097 1.0252 168.9  m  20?   1.17 344.1   81   8  48  76
   2024 07 25 15:00  21 05 59.64    -22 37 37.1   0.0097 1.0252 168.9  t  20?   1.23 344.8   81 353  48  76
   2024 07 25 15:10  21 05 59.41    -22 37 24.9   0.0097 1.0252 168.9  m  20?   1.28 345.7   80 339  48  76
   2024 07 25 15:20  21 05 59.19    -22 37 12.2   0.0097 1.0252 168.9  m  20?   1.33 346.8   79 327  48  76
   2024 07 25 15:30  21 05 58.98    -22 36 59.0   0.0097 1.0252 168.9  m  20?   1.38 348.1   78 316  48  76
   2024 07 25 15:40  21 05 58.79    -22 36 45.1   0.0097 1.0252 168.9  m  20?   1.43 349.5   76 309  48  76
   2024 07 25 15:50  21 05 58.61    -22 36 30.7   0.0097 1.0252 168.9  m  20?   1.48 351.1   75 302  48  76
   2024 07 25 16:00  21 05 58.46    -22 36 15.8   0.0097 1.0252 168.9  m  20?   1.53 352.8   73 297  48  76
   2024 07 25 16:10  21 05 58.34    -22 36 00.3   0.0097 1.0252 168.9  m  20?   1.58 354.6   71 293  48  76
   2024 07 25 16:20  21 05 58.26    -22 35 44.3   0.0097 1.0252 168.9  m  20?   1.63 356.6   69 289  49  76
   2024 07 25 16:30  21 05 58.21    -22 35 27.8   0.0097 1.0252 168.9  m  20?   1.68 358.6   67 286  49  76
   2024 07 25 16:40  21 05 58.21    -22 35 10.7   0.0097 1.0252 168.9  m  20?   1.73   0.7   65 284  49  76
   2024 07 25 16:50  21 05 58.25    -22 34 53.2   0.0097 1.0252 168.9  m  20?   1.78   2.9   63 282  49  76
   2024 07 25 17:00  21 05 58.34    -22 34 35.1   0.0097 1.0252 169.0  m  20?   1.84   5.1   61 279  49  76
   2024 07 25 17:10  21 05 58.49    -22 34 16.6   0.0097 1.0252 169.0  m  20?   1.89   7.3   58 278  49  76
   2024 07 25 17:20  21 05 58.69    -22 33 57.6   0.0097 1.0252 169.0  m  20?   1.95   9.6   56 276  49  76
   2024 07 25 17:30  21 05 58.96    -22 33 38.2   0.0097 1.0252 169.0  m  20?   2.01  11.9   54 274  49  76
   2024 07 25 17:40  21 05 59.30    -22 33 18.3   0.0097 1.0252 169.0  m  20?   2.07  14.2   52 273  49  76
   2024 07 25 17:50  21 05 59.71    -22 32 58.0   0.0097 1.0252 169.0  m  20?   2.14  16.5   50 271  49  76
   2024 07 25 18:00  21 06 00.19    -22 32 37.3   0.0097 1.0252 169.0  m  20?   2.21  18.8   48 270  49  75
   2024 07 25 18:10  21 06 00.74    -22 32 16.2   0.0097 1.0252 169.0  m  20?   2.28  21.1   46 269  49  75
   2024 07 25 18:20  21 06 01.38    -22 31 54.8   0.0097 1.0252 169.0  m  20?   2.36  23.3   43 267  49  75
   2024 07 25 18:30  21 06 02.10    -22 31 33.0   0.0097 1.0252 169.0  m  20?   2.44  25.5   41 266  49  75
   2024 07 25 18:40  21 06 02.90    -22 31 10.8   0.0097 1.0252 169.0  m  20?   2.52  27.7   39 265  49  75
   2024 07 25 18:50  21 06 03.79    -22 30 48.4   0.0097 1.0252 169.0  m  20?   2.60  29.8   37 264  50  75
   2024 07 25 19:00  21 06 04.78    -22 30 25.7   0.0097 1.0252 169.0  m  20?   2.69  31.9   35 263  50  75
   2024 07 25 19:10  21 06 05.85    -22 30 02.7   0.0097 1.0252 169.0  m  20?   2.79  33.9   33 262  50  75
   2024 07 25 19:20  21 06 07.02    -22 29 39.5   0.0097 1.0252 169.0  m  20?   2.88  35.8   31 261  50  75
   2024 07 25 19:30  21 06 08.29    -22 29 16.1   0.0097 1.0252 169.0  m  20?   2.98  37.7   29 260  50  75
   2024 07 25 19:40  21 06 09.66    -22 28 52.4   0.0097 1.0252 169.0 Am  20?   3.08  39.5   26 258  50  75
   2024 07 25 19:50  21 06 11.13    -22 28 28.6   0.0097 1.0252 169.0 Am  20?   3.18  41.3   24 257  50  75
   2024 07 25 20:00  21 06 12.69    -22 28 04.7   0.0098 1.0252 169.0 Am  20?   3.29  43.0   22 256  50  75
   2024 07 25 20:10  21 06 14.36    -22 27 40.6   0.0098 1.0252 169.0 Nm  20?   3.39  44.6   20 255  50  75
   2024 07 25 20:20  21 06 16.14    -22 27 16.4   0.0098 1.0252 169.0 Nm  20?   3.50  46.2   18 254  50  75
   2024 07 25 20:30  21 06 18.02    -22 26 52.1   0.0098 1.0252 169.0 Cm  20?   3.61  47.7   16 253  50  75
   2024 07 25 20:40  21 06 20.00    -22 26 27.8   0.0098 1.0252 169.0 Cm  20?   3.73  49.1   14 252  50  75
   ................
   2024 07 26 08:00  21 10 37.62    -22 11 48.5   0.0098 1.0252 168.5 Nr  20?   3.85  90.8    0 116  57  69
   2024 07 26 08:10  21 10 40.34    -22 11 49.1   0.0098 1.0252 168.5 N   20?   3.70  91.0    1 114  57  69
   2024 07 26 08:20  21 10 42.95    -22 11 49.8   0.0098 1.0252 168.5 N   20?   3.56  91.2    3 113  57  69
   2024 07 26 08:30  21 10 45.46    -22 11 50.7   0.0098 1.0252 168.5 A   20?   3.41  91.4    5 112  57  69
   2024 07 26 08:40  21 10 47.87    -22 11 51.6   0.0098 1.0252 168.5 A   20?   3.27  91.5    7 111  57  69
   2024 07 26 08:50  21 10 50.17    -22 11 52.5   0.0098 1.0252 168.5     20?   3.12  91.6    9 110  57  69
   2024 07 26 09:00  21 10 52.36    -22 11 53.5   0.0098 1.0252 168.5     20?   2.98  91.7   11 108  57  69
   2024 07 26 09:10  21 10 54.45    -22 11 54.4   0.0098 1.0252 168.5     20?   2.83  91.8   13 107  58  69
   2024 07 26 09:20  21 10 56.43    -22 11 55.3   0.0098 1.0252 168.5     20?   2.68  91.8   15 106  58  68
   2024 07 26 09:30  21 10 58.31    -22 11 56.2   0.0098 1.0252 168.5     20?   2.54  91.7   17 105  58  68
   2024 07 26 09:40  21 11 00.08    -22 11 57.0   0.0098 1.0252 168.5     20?   2.39  91.6   19 104  58  68
   2024 07 26 09:50  21 11 01.75    -22 11 57.6   0.0098 1.0252 168.5     20?   2.25  91.5   21 103  58  68
   2024 07 26 10:00  21 11 03.32    -22 11 58.2   0.0098 1.0252 168.5     20?   2.10  91.2   24 102  58  68
   2024 07 26 10:10  21 11 04.78    -22 11 58.6   0.0098 1.0252 168.5     20?   1.96  90.8   26 101  58  68
   2024 07 26 10:20  21 11 06.14    -22 11 58.8   0.0098 1.0252 168.5     20?   1.82  90.3   28  99  58  68
   2024 07 26 10:30  21 11 07.41    -22 11 58.8   0.0098 1.0252 168.5     20?   1.69  89.6   30  98  58  68
   2024 07 26 10:40  21 11 08.57    -22 11 58.6   0.0098 1.0252 168.5     20?   1.55  88.7   32  97  59  68
   2024 07 26 10:50  21 11 09.64    -22 11 58.2   0.0098 1.0252 168.5     20?   1.42  87.6   34  96  59  68
   2024 07 26 11:00  21 11 10.62    -22 11 57.4   0.0098 1.0252 168.5     20?   1.29  86.1   36  95  59  68
   2024 07 26 11:10  21 11 11.50    -22 11 56.5   0.0098 1.0252 168.5     20?   1.17  84.3   38  94  59  67
   2024 07 26 11:20  21 11 12.30    -22 11 55.2   0.0097 1.0252 168.5     20?   1.05  81.9   40  93  59  67
   2024 07 26 11:30  21 11 13.00    -22 11 53.5   0.0097 1.0252 168.5     20?   0.94  78.9   43  91  59  67
   2024 07 26 11:40  21 11 13.63    -22 11 51.6   0.0097 1.0252 168.5     20?   0.84  75.0   45  90  59  67
   2024 07 26 11:50  21 11 14.17    -22 11 49.2   0.0097 1.0252 168.5     20?   0.74  70.1   47  89  59  67
   2024 07 26 12:00  21 11 14.64    -22 11 46.5   0.0097 1.0252 168.5     20?   0.66  63.8   49  88  59  67
   2024 07 26 12:10  21 11 15.03    -22 11 43.4   0.0097 1.0252 168.5     20?   0.59  56.0   51  86  60  67
   2024 07 26 12:20  21 11 15.35    -22 11 39.9   0.0097 1.0252 168.5     20?   0.55  46.6   53  85  60  67
   2024 07 26 12:30  21 11 15.60    -22 11 35.9   0.0097 1.0252 168.5     20?   0.52  36.0   55  83  60  67
   2024 07 26 12:40  21 11 15.79    -22 11 31.5   0.0097 1.0252 168.5     20?   0.51  25.2   58  81  60  67
   2024 07 26 12:50  21 11 15.92    -22 11 26.6   0.0097 1.0252 168.5  m  20?   0.53  15.0   60  79  60  67
   2024 07 26 13:00  21 11 15.99    -22 11 21.3   0.0097 1.0252 168.5  m  20?   0.56   6.3   62  77  60  67
   2024 07 26 13:10  21 11 16.01    -22 11 15.4   0.0097 1.0252 168.5  m  20?   0.61 359.1   64  75  60  66
   2024 07 26 13:20  21 11 15.98    -22 11 09.1   0.0097 1.0252 168.5  m  20?   0.66 353.6   66  73  60  66
   2024 07 26 13:30  21 11 15.91    -22 11 02.3   0.0097 1.0252 168.6  m  20?   0.72 349.5   68  70  60  66
   2024 07 26 13:40  21 11 15.80    -22 10 54.9   0.0097 1.0252 168.6  m  20?   0.78 346.4   70  66  60  66
   2024 07 26 13:50  21 11 15.65    -22 10 47.1   0.0097 1.0252 168.6  m  20?   0.85 344.2   72  62  61  66
   2024 07 26 14:00  21 11 15.47    -22 10 38.6   0.0097 1.0252 168.6  m  20?   0.91 342.7   74  57  61  66
   2024 07 26 14:10  21 11 15.26    -22 10 29.7   0.0097 1.0252 168.6  m  20?   0.97 341.7   75  51  61  66
   2024 07 26 14:20  21 11 15.03    -22 10 20.2   0.0097 1.0252 168.6  m  20?   1.03 341.2   77  44  61  66
   2024 07 26 14:30  21 11 14.79    -22 10 10.1   0.0097 1.0252 168.6  m  20?   1.09 341.1   78  35  61  66
   2024 07 26 14:40  21 11 14.53    -22 09 59.6   0.0097 1.0252 168.6  m  20?   1.15 341.3   80  23  61  66
   2024 07 26 14:50  21 11 14.27    -22 09 48.4   0.0097 1.0252 168.6  m  20?   1.20 341.8   80  10  61  66
   2024 07 26 15:00  21 11 14.00    -22 09 36.7   0.0097 1.0252 168.6  t  20?   1.26 342.5   80 355  61  66
   2024 07 26 15:10  21 11 13.73    -22 09 24.4   0.0097 1.0252 168.6  m  20?   1.31 343.4   80 342  61  66
   2024 07 26 15:20  21 11 13.46    -22 09 11.6   0.0097 1.0252 168.6  m  20?   1.36 344.5   79 329  61  66
   2024 07 26 15:30  21 11 13.21    -22 08 58.3   0.0097 1.0252 168.6  m  20?   1.41 345.8   78 319  61  66
   2024 07 26 15:40  21 11 12.97    -22 08 44.3   0.0097 1.0252 168.6  m  20?   1.45 347.3   76 311  61  65
   2024 07 26 15:50  21 11 12.76    -22 08 29.9   0.0097 1.0252 168.7  m  20?   1.50 348.8   75 304  62  65
   2024 07 26 16:00  21 11 12.56    -22 08 14.9   0.0097 1.0252 168.7  m  20?   1.55 350.6   73 299  62  65
   2024 07 26 16:10  21 11 12.40    -22 07 59.4   0.0097 1.0252 168.7  m  20?   1.59 352.4   71 295  62  65
   2024 07 26 16:20  21 11 12.27    -22 07 43.3   0.0097 1.0252 168.7  m  20?   1.64 354.3   69 291  62  65
   2024 07 26 16:30  21 11 12.17    -22 07 26.7   0.0097 1.0252 168.7  m  20?   1.69 356.4   67 288  62  65
   2024 07 26 16:40  21 11 12.12    -22 07 09.7   0.0097 1.0252 168.7  m  20?   1.73 358.5   65 285  62  65
   2024 07 26 16:50  21 11 12.12    -22 06 52.1   0.0097 1.0252 168.7  m  20?   1.78   0.7   63 283  62  65
   2024 07 26 17:00  21 11 12.16    -22 06 34.1   0.0097 1.0252 168.7  m  20?   1.83   3.0   61 281  62  65
   2024 07 26 17:10  21 11 12.26    -22 06 15.5   0.0097 1.0252 168.7  m  20?   1.88   5.3   58 279  62  65
   2024 07 26 17:20  21 11 12.42    -22 05 56.6   0.0097 1.0252 168.7  m  20?   1.94   7.6   56 277  62  65
   2024 07 26 17:30  21 11 12.64    -22 05 37.1   0.0097 1.0252 168.7  m  20?   1.99  10.0   54 275  62  65
   2024 07 26 17:40  21 11 12.92    -22 05 17.3   0.0097 1.0252 168.7  m  20?   2.05  12.3   52 274  62  65
   2024 07 26 17:50  21 11 13.27    -22 04 57.0   0.0097 1.0252 168.7  m  20?   2.12  14.7   50 272  62  65
   2024 07 26 18:00  21 11 13.70    -22 04 36.4   0.0097 1.0252 168.7  m  20?   2.18  17.1   48 271  62  65
   2024 07 26 18:10  21 11 14.20    -22 04 15.3   0.0098 1.0252 168.7  m  20?   2.25  19.4   46 270  63  65
   2024 07 26 18:20  21 11 14.78    -22 03 53.9   0.0098 1.0252 168.7  m  20?   2.32  21.7   44 268  63  65
   2024 07 26 18:30  21 11 15.45    -22 03 32.2   0.0098 1.0251 168.8  m  20?   2.40  24.0   41 267  63  65
   2024 07 26 18:40  21 11 16.20    -22 03 10.1   0.0098 1.0251 168.8  m  20?   2.48  26.2   39 266  63  65
   2024 07 26 18:50  21 11 17.03    -22 02 47.8   0.0098 1.0251 168.8  m  20?   2.56  28.4   37 265  63  64
   2024 07 26 19:00  21 11 17.96    -22 02 25.1   0.0098 1.0251 168.8  m  20?   2.65  30.6   35 264  63  64
   2024 07 26 19:10  21 11 18.97    -22 02 02.2   0.0098 1.0251 168.8  m  20?   2.74  32.6   33 262  63  64
   2024 07 26 19:20  21 11 20.09    -22 01 39.1   0.0098 1.0251 168.8  m  20?   2.83  34.6   31 261  63  64
   2024 07 26 19:30  21 11 21.29    -22 01 15.7   0.0098 1.0251 168.8  m  20?   2.93  36.6   29 260  63  64
   2024 07 26 19:40  21 11 22.60    -22 00 52.2   0.0098 1.0251 168.8 Am  20?   3.02  38.5   26 259  63  64
   2024 07 26 19:50  21 11 24.00    -22 00 28.4   0.0098 1.0251 168.8 Am  20?   3.12  40.3   24 258  63  64
   2024 07 26 20:00  21 11 25.51    -22 00 04.6   0.0098 1.0251 168.8 Nm  20?   3.23  42.0   22 257  63  64
   2024 07 26 20:10  21 11 27.12    -21 59 40.6   0.0098 1.0251 168.8 Nm  20?   3.33  43.7   20 256  63  64
   2024 07 26 20:20  21 11 28.83    -21 59 16.5   0.0098 1.0251 168.8 Nm  20?   3.44  45.3   18 255  63  64
   2024 07 26 20:30  21 11 30.64    -21 58 52.3   0.0098 1.0251 168.8 Cm  20?   3.55  46.9   16 254  63  64
   2024 07 26 20:40  21 11 32.56    -21 58 28.1   0.0098 1.0251 168.8 Cm  20?   3.66  48.4   14 252  63  64
   ................
   2024 07 27 08:10  21 15 48.66    -21 43 34.9   0.0098 1.0251 168.3 N   20?   3.66  90.3    1 114  70  58
   2024 07 27 08:20  21 15 51.23    -21 43 35.2   0.0098 1.0251 168.3 N   20?   3.51  90.4    3 113  70  58
   2024 07 27 08:30  21 15 53.70    -21 43 35.6   0.0098 1.0251 168.2 A   20?   3.37  90.6    5 112  70  58
   2024 07 27 08:40  21 15 56.06    -21 43 36.0   0.0098 1.0251 168.2 A   20?   3.22  90.7    7 110  70  58
   2024 07 27 08:50  21 15 58.32    -21 43 36.5   0.0098 1.0251 168.2 A   20?   3.08  90.8    9 109  70  58
   2024 07 27 09:00  21 16 00.48    -21 43 37.0   0.0098 1.0251 168.2     20?   2.93  90.9   11 108  70  58
   2024 07 27 09:10  21 16 02.53    -21 43 37.5   0.0098 1.0251 168.2     20?   2.78  90.9   13 107  70  58
   2024 07 27 09:20  21 16 04.47    -21 43 37.9   0.0098 1.0251 168.2     20?   2.64  90.8   15 106  70  57
   2024 07 27 09:30  21 16 06.31    -21 43 38.4   0.0098 1.0251 168.2     20?   2.49  90.8   17 105  71  57
   2024 07 27 09:40  21 16 08.04    -21 43 38.7   0.0098 1.0251 168.2     20?   2.34  90.6   19 104  71  57
   2024 07 27 09:50  21 16 09.67    -21 43 38.9   0.0098 1.0251 168.2     20?   2.20  90.3   21 102  71  57
   2024 07 27 10:00  21 16 11.20    -21 43 39.0   0.0098 1.0251 168.2     20?   2.06  90.0   23 101  71  57
   2024 07 27 10:10  21 16 12.63    -21 43 39.0   0.0098 1.0251 168.2     20?   1.92  89.6   25 100  71  57
   2024 07 27 10:20  21 16 13.95    -21 43 38.8   0.0098 1.0251 168.2     20?   1.78  88.9   27  99  71  57
   2024 07 27 10:30  21 16 15.18    -21 43 38.4   0.0098 1.0251 168.2     20?   1.64  88.2   29  98  71  57
   2024 07 27 10:40  21 16 16.31    -21 43 37.8   0.0098 1.0251 168.2     20?   1.51  87.2   32  97  71  57
   2024 07 27 10:50  21 16 17.34    -21 43 36.9   0.0098 1.0251 168.2     20?   1.38  85.9   34  96  72  57
   2024 07 27 11:00  21 16 18.28    -21 43 35.9   0.0098 1.0251 168.2     20?   1.25  84.2   36  95  72  56
   2024 07 27 11:10  21 16 19.13    -21 43 34.5   0.0098 1.0251 168.2     20?   1.13  82.2   38  93  72  56
   2024 07 27 11:20  21 16 19.89    -21 43 32.8   0.0098 1.0251 168.2     20?   1.01  79.5   40  92  72  56
   2024 07 27 11:30  21 16 20.56    -21 43 30.8   0.0098 1.0251 168.3     20?   0.90  76.1   42  91  72  56
   2024 07 27 11:40  21 16 21.15    -21 43 28.5   0.0098 1.0251 168.3     20?   0.80  71.8   44  90  72  56
   2024 07 27 11:50  21 16 21.66    -21 43 25.8   0.0098 1.0251 168.3     20?   0.71  66.3   46  88  72  56
   2024 07 27 12:00  21 16 22.09    -21 43 22.8   0.0098 1.0251 168.3     20?   0.64  59.3   49  87  72  56
   2024 07 27 12:10  21 16 22.44    -21 43 19.3   0.0098 1.0251 168.3     20?   0.57  50.7   51  86  72  56
   2024 07 27 12:20  21 16 22.73    -21 43 15.5   0.0098 1.0251 168.3     20?   0.53  40.6   53  84  73  56
   2024 07 27 12:30  21 16 22.94    -21 43 11.2   0.0098 1.0251 168.3     20?   0.52  29.7   55  82  73  56
   2024 07 27 12:40  21 16 23.09    -21 43 06.5   0.0098 1.0251 168.3     20?   0.52  18.9   57  81  73  56
   2024 07 27 12:50  21 16 23.19    -21 43 01.4   0.0098 1.0251 168.3     20?   0.54   9.2   59  79  73  55
   2024 07 27 13:00  21 16 23.22    -21 42 55.8   0.0098 1.0251 168.3     20?   0.58   1.0   61  77  73  55
   2024 07 27 13:10  21 16 23.20    -21 42 49.7   0.0098 1.0251 168.3     20?   0.63 354.5   63  74  73  55
   2024 07 27 13:20  21 16 23.14    -21 42 43.1   0.0098 1.0251 168.3     20?   0.69 349.5   65  72  73  55
   2024 07 27 13:30  21 16 23.03    -21 42 36.1   0.0098 1.0251 168.3     20?   0.75 345.8   67  69  73  55
   2024 07 27 13:40  21 16 22.88    -21 42 28.5   0.0098 1.0251 168.3     20?   0.82 343.1   69  65  73  55
   2024 07 27 13:50  21 16 22.69    -21 42 20.4   0.0098 1.0251 168.3  m  20?   0.88 341.1   71  61  73  55
   2024 07 27 14:00  21 16 22.47    -21 42 11.8   0.0098 1.0251 168.3  m  20?   0.94 339.8   73  57  74  55
   2024 07 27 14:10  21 16 22.23    -21 42 02.7   0.0098 1.0251 168.3  m  20?   1.00 339.0   75  51  74  55
   2024 07 27 14:20  21 16 21.96    -21 41 53.1   0.0098 1.0251 168.4  m  20?   1.06 338.6   77  43  74  55
   2024 07 27 14:30  21 16 21.68    -21 41 42.9   0.0098 1.0251 168.4  m  20?   1.12 338.6   78  35  74  55
   2024 07 27 14:40  21 16 21.38    -21 41 32.1   0.0098 1.0251 168.4  m  20?   1.18 338.8   79  24  74  55
   2024 07 27 14:50  21 16 21.07    -21 41 20.9   0.0098 1.0251 168.4  m  20?   1.23 339.3   80  11  74  55
   2024 07 27 15:00  21 16 20.76    -21 41 09.0   0.0098 1.0251 168.4  t  20?   1.28 340.1   80 357  74  54
   2024 07 27 15:10  21 16 20.45    -21 40 56.7   0.0098 1.0251 168.4  m  20?   1.33 341.0   79 344  74  54
   2024 07 27 15:20  21 16 20.14    -21 40 43.8   0.0098 1.0251 168.4  m  20?   1.38 342.2   79 332  74  54
   2024 07 27 15:30  21 16 19.85    -21 40 30.3   0.0098 1.0251 168.4  m  20?   1.43 343.5   77 321  74  54
   2024 07 27 15:40  21 16 19.57    -21 40 16.4   0.0098 1.0251 168.4  m  20?   1.47 344.9   76 313  74  54
   2024 07 27 15:50  21 16 19.31    -21 40 01.8   0.0098 1.0251 168.4  m  20?   1.52 346.5   74 306  75  54
   2024 07 27 16:00  21 16 19.07    -21 39 46.8   0.0098 1.0251 168.4  m  20?   1.56 348.3   73 301  75  54
   2024 07 27 16:10  21 16 18.86    -21 39 31.3   0.0098 1.0251 168.4  m  20?   1.60 350.1   71 296  75  54
   2024 07 27 16:20  21 16 18.68    -21 39 15.2   0.0098 1.0251 168.4  m  20?   1.65 352.1   69 293  75  54
   2024 07 27 16:30  21 16 18.54    -21 38 58.6   0.0098 1.0251 168.5  m  20?   1.69 354.1   67 289  75  54
   2024 07 27 16:40  21 16 18.44    -21 38 41.5   0.0098 1.0251 168.5  m  20?   1.73 356.3   65 286  75  54
   2024 07 27 16:50  21 16 18.39    -21 38 24.0   0.0098 1.0251 168.5  m  20?   1.78 358.5   63 284  75  54
   2024 07 27 17:00  21 16 18.38    -21 38 06.0   0.0098 1.0251 168.5  m  20?   1.83   0.8   61 282  75  54
   2024 07 27 17:10  21 16 18.43    -21 37 47.5   0.0098 1.0251 168.5  m  20?   1.87   3.2   59 280  75  54
   2024 07 27 17:20  21 16 18.54    -21 37 28.5   0.0098 1.0251 168.5  m  20?   1.93   5.6   56 278  75  54
   2024 07 27 17:30  21 16 18.70    -21 37 09.1   0.0098 1.0251 168.5  m  20?   1.98   8.0   54 276  75  54
   2024 07 27 17:40  21 16 18.94    -21 36 49.4   0.0098 1.0251 168.5  m  20?   2.03  10.4   52 275  75  53
   2024 07 27 17:50  21 16 19.24    -21 36 29.2   0.0098 1.0251 168.5  m  20?   2.09  12.9   50 273  75  53
   2024 07 27 18:00  21 16 19.61    -21 36 08.6   0.0098 1.0251 168.5  m  20?   2.15  15.3   48 272  76  53
   2024 07 27 18:10  21 16 20.06    -21 35 47.6   0.0098 1.0251 168.5  m  20?   2.22  17.7   46 270  76  53
   2024 07 27 18:20  21 16 20.59    -21 35 26.3   0.0098 1.0251 168.5  m  20?   2.29  20.1   44 269  76  53
   2024 07 27 18:30  21 16 21.19    -21 35 04.6   0.0098 1.0251 168.5  m  20?   2.36  22.4   41 268  76  53
   2024 07 27 18:40  21 16 21.88    -21 34 42.7   0.0098 1.0251 168.5  m  20?   2.44  24.8   39 267  76  53
   2024 07 27 18:50  21 16 22.66    -21 34 20.4   0.0098 1.0251 168.5  m  20?   2.52  27.0   37 265  76  53
   2024 07 27 19:00  21 16 23.53    -21 33 57.9   0.0098 1.0251 168.5  m  20?   2.60  29.2   35 264  76  53
   2024 07 27 19:10  21 16 24.49    -21 33 35.1   0.0098 1.0251 168.5  m  20?   2.69  31.4   33 263  76  53
   2024 07 27 19:20  21 16 25.54    -21 33 12.0   0.0098 1.0251 168.5  m  20?   2.78  33.4   31 262  76  53
   2024 07 27 19:30  21 16 26.69    -21 32 48.8   0.0098 1.0251 168.5  m  20?   2.87  35.5   29 261  76  53
   2024 07 27 19:40  21 16 27.94    -21 32 25.4   0.0098 1.0251 168.5 Am  20?   2.97  37.4   27 260  76  53
   2024 07 27 19:50  21 16 29.28    -21 32 01.7   0.0098 1.0251 168.5 Am  20?   3.06  39.3   24 259  76  53
   2024 07 27 20:00  21 16 30.72    -21 31 38.0   0.0098 1.0251 168.5 Nm  20?   3.17  41.1   22 257  76  53
   2024 07 27 20:10  21 16 32.27    -21 31 14.1   0.0098 1.0251 168.6 Nm  20?   3.27  42.9   20 256  76  53
   2024 07 27 20:20  21 16 33.92    -21 30 50.1   0.0098 1.0251 168.6 Nm  20?   3.38  44.5   18 255  76  53
   2024 07 27 20:30  21 16 35.67    -21 30 26.1   0.0098 1.0251 168.6 Cm  20?   3.48  46.1   16 254  76  53
   2024 07 27 20:40  21 16 37.52    -21 30 02.0   0.0098 1.0251 168.6 Cm  20?   3.59  47.7   14 253  76  53
   ................
   

MMS-1 (JPL-ID: -140482)

   Date (UTC) HH:MM   RA              Dec         delta   r     elong SM  mag  '/hr    PA   alt  az moo ill
   ---- -- -- -----  -------------   -----------  ------ ------ ----- --  --- ------ ------ --- --- --- ---
   2024 07 14 07:50  21 16 28.70    -40 12 04.0    71116 1.0169 151.6 Nm  14? 187.25  79.9    0 138 101  53
   2024 07 14 08:00  21 19 05.45    -40 06 42.1    72444 1.0169 151.2 Nm  14? 178.34  79.5    1 137 101  53
   2024 07 14 08:10  21 21 34.40    -40 01 23.9    73746 1.0169 150.8 Nm  14? 169.96  79.1    2 136 102  53
   2024 07 14 08:20  21 23 56.04    -39 56 09.7    75023 1.0169 150.5 Am  14? 162.07  78.7    3 135 102  53
   2024 07 14 08:30  21 26 10.79    -39 50 59.8    76277 1.0169 150.2 Am  14? 154.62  78.3    4 134 102  53
   2024 07 14 08:40  21 28 19.03    -39 45 54.2    77507 1.0169 149.9 Am  14? 147.57  78.0    5 133 103  53
   2024 07 14 08:50  21 30 21.12    -39 40 52.9    78715 1.0169 149.6  m  14? 140.89  77.6    6 132 103  53
   2024 07 14 09:00  21 32 17.38    -39 35 56.0    79902 1.0170 149.3  m  14? 134.55  77.2    8 131 103  53
   2024 07 14 09:10  21 34 08.11    -39 31 03.2    81067 1.0170 149.0  m  14? 128.52  76.8    9 130 104  53
   2024 07 14 09:20  21 35 53.57    -39 26 14.5    82213 1.0170 148.7  m  14? 122.78  76.3   10 129 104  54
   2024 07 14 09:30  21 37 34.03    -39 21 29.5    83339 1.0170 148.5  m  14? 117.32  75.9   12 128 104  54
   2024 07 14 09:40  21 39 09.71    -39 16 48.0    84446 1.0170 148.2  m  14? 112.10  75.4   13 127 105  54
   2024 07 14 09:50  21 40 40.83    -39 12 09.7    85535 1.0170 148.0  m  14? 107.13  74.9   14 127 105  54
   2024 07 14 10:00  21 42 07.59    -39 07 34.4    86607 1.0170 147.8  m  14? 102.38  74.3   16 126 105  54
   2024 07 14 10:10  21 43 30.18    -39 03 01.6    87662 1.0170 147.6  m  14?  97.84  73.7   17 125 105  54
   2024 07 14 10:20  21 44 48.79    -38 58 31.1    88700 1.0170 147.4  m  14?  93.51  73.1   19 124 105  54
   2024 07 14 10:30  21 46 03.56    -38 54 02.4    89724 1.0170 147.2  m  14?  89.37  72.4   20 123 106  54
   2024 07 14 10:40  21 47 14.68    -38 49 35.3    90732 1.0170 147.0  m  14?  85.42  71.6   22 122 106  54
   2024 07 14 10:50  21 48 22.27    -38 45 09.2    91726 1.0170 146.8  m  14?  81.65  70.8   23 122 106  54
   2024 07 14 11:00  21 49 26.49    -38 40 44.0    92706 1.0170 146.7  m  14?  78.05  70.0   25 121 106  54
   2024 07 14 11:10  21 50 27.48    -38 36 19.1    93673 1.0170 146.5  m  14?  74.63  69.0   27 120 106  54
   2024 07 14 11:20  21 51 25.35    -38 31 54.2    94627 1.0170 146.4  m  14?  71.37  68.0   28 119 106  54
   2024 07 14 11:30  21 52 20.24    -38 27 28.9    95570 1.0170 146.2  m  14?  68.28  66.9   30 119 107  54
   2024 07 14 11:40  21 53 12.27    -38 23 02.9    96501 1.0170 146.1  m  14?  65.35  65.8   32 118 107  54
   2024 07 14 11:50  21 54 01.55    -38 18 35.8    97421 1.0170 146.0  m  14?  62.59  64.5   33 117 107  54
   2024 07 14 12:00  21 54 48.20    -38 14 07.3    98330 1.0171 145.9  m  14?  59.98  63.1   35 116 107  54
   2024 07 14 12:10  21 55 32.32    -38 09 36.9    99230 1.0171 145.7  m  14?  57.53  61.7   37 116 107  54
   2024 07 14 12:20  21 56 14.02    -38 05 04.4   100121 1.0171 145.6  m  14?  55.24  60.1   39 115 107  54
   2024 07 14 12:30  21 56 53.41    -38 00 29.5   101003 1.0171 145.5  m  14?  53.12  58.5   40 115 107  54
   2024 07 14 12:40  21 57 30.59    -37 55 51.7   101877 1.0171 145.5  m  14?  51.15  56.7   42 114 107  54
   2024 07 14 12:50  21 58 05.65    -37 51 10.9   102743 1.0171 145.4  m  14?  49.34  54.9   44 114 107  54
   2024 07 14 13:00  21 58 38.70    -37 46 26.7   103602 1.0171 145.3  m  14?  47.69  52.9   46 113 107  55
   2024 07 14 13:10  21 59 09.83    -37 41 38.8   104454 1.0171 145.2  m  14?  46.21  50.9   48 113 107  55
   2024 07 14 13:20  21 59 39.13    -37 36 47.1   105299 1.0171 145.2  m  14?  44.87  48.9   50 112 108  55
   2024 07 14 13:30  22 00 06.69    -37 31 51.2   106139 1.0171 145.1  m  14?  43.69  46.8   51 112 108  55
   2024 07 14 13:40  22 00 32.62    -37 26 50.9   106973 1.0171 145.1  m  14?  42.67  44.6   53 111 108  55
   2024 07 14 13:50  22 00 56.99    -37 21 46.1   107803 1.0171 145.0  m  14?  41.79  42.4   55 111 108  55
   2024 07 14 14:00  22 01 19.90    -37 16 36.4   108628 1.0171 145.0  m  14?  41.05  40.3   57 111 108  55
   2024 07 14 14:10  22 01 41.44    -37 11 21.9   109449 1.0171 144.9  m  14?  40.45  38.1   59 111 108  55
   2024 07 14 14:20  22 02 01.68    -37 06 02.2   110265 1.0171 144.9  m  14?  39.98  36.0   61 110 108  55
   2024 07 14 14:30  22 02 20.72    -37 00 37.3   111079 1.0171 144.9  m  14?  39.62  34.0   63 110 108  55
   2024 07 14 14:40  22 02 38.65    -36 55 07.1   111890 1.0171 144.8  m  14?  39.38  32.0   65 110 108  55
   2024 07 14 14:50  22 02 55.53    -36 49 31.4   112697 1.0171 144.8  m  14?  39.25  30.1   67 111 108  55
   2024 07 14 15:00  22 03 11.46    -36 43 50.2   113503 1.0171 144.8     15?  39.20  28.4   69 111 108  55
   2024 07 14 15:10  22 03 26.51    -36 38 03.4   114306 1.0171 144.8     15?  39.24  26.7   71 112 108  55
   2024 07 14 15:20  22 03 40.77    -36 32 11.0   115108 1.0171 144.8     15?  39.35  25.2   73 113 108  55
   2024 07 14 15:30  22 03 54.31    -36 26 13.0   115909 1.0171 144.7     15?  39.53  23.8   75 114 108  56
   2024 07 14 15:40  22 04 07.20    -36 20 09.3   116708 1.0171 144.7     15?  39.77  22.5   77 116 108  56
   2024 07 14 15:50  22 04 19.53    -36 14 00.0   117506 1.0171 144.7     15?  40.05  21.4   79 119 108  56
   2024 07 14 16:00  22 04 31.36    -36 07 45.2   118303 1.0171 144.7     15?  40.38  20.4   80 123 108  56
   2024 07 14 16:10  22 04 42.77    -36 01 24.8   119100 1.0172 144.7     15?  40.74  19.5   82 130 108  56
   2024 07 14 16:20  22 04 53.83    -35 54 59.0   119897 1.0172 144.7     15?  41.12  18.8   84 141 108  56
   2024 07 14 16:30  22 05 04.60    -35 48 27.8   120693 1.0172 144.7     15?  41.53  18.2   85 159 108  56
   2024 07 14 16:40  22 05 15.15    -35 41 51.3   121490 1.0172 144.7  t  15?  41.96  17.7   85 184 108  56
   2024 07 14 16:50  22 05 25.55    -35 35 09.8   122287 1.0172 144.7     15?  42.40  17.3   85 209 108  56
   2024 07 14 17:00  22 05 35.85    -35 28 23.3   123084 1.0172 144.7     15?  42.85  17.0   83 226 108  56
   2024 07 14 17:10  22 05 46.12    -35 21 31.9   123881 1.0172 144.7     15?  43.31  16.9   82 236 108  56
   2024 07 14 17:20  22 05 56.42    -35 14 35.9   124679 1.0172 144.7     15?  43.77  16.8   80 243 108  56
   2024 07 14 17:30  22 06 06.80    -35 07 35.5   125478 1.0172 144.7     15?  44.23  16.8   78 247 108  56
   2024 07 14 17:40  22 06 17.32    -35 00 30.7   126277 1.0172 144.7     15?  44.69  17.0   76 250 108  57
   2024 07 14 17:50  22 06 28.03    -34 53 21.9   127077 1.0172 144.7     15?  45.15  17.1   74 251 108  57
   2024 07 14 18:00  22 06 38.98    -34 46 09.2   127877 1.0172 144.7     15?  45.61  17.4   72 253 108  57
   2024 07 14 18:10  22 06 50.21    -34 38 53.0   128679 1.0172 144.7     15?  46.07  17.8   70 254 108  57
   2024 07 14 18:20  22 07 01.78    -34 31 33.3   129480 1.0172 144.6     15?  46.52  18.2   68 254 108  57
   2024 07 14 18:30  22 07 13.72    -34 24 10.5   130283 1.0172 144.6     15?  46.96  18.7   66 255 108  57
   2024 07 14 18:40  22 07 26.08    -34 16 44.8   131086 1.0172 144.6     15?  47.41  19.2   64 255 108  57
   2024 07 14 18:50  22 07 38.90    -34 09 16.5   131889 1.0172 144.6     15?  47.84  19.8   62 255 108  57
   2024 07 14 19:00  22 07 52.20    -34 01 45.8   132693 1.0172 144.6     15?  48.28  20.4   60 255 108  57
   2024 07 14 19:10  22 08 06.02    -33 54 13.1   133497 1.0172 144.6     15?  48.71  21.1   58 255 108  57
   2024 07 14 19:20  22 08 20.41    -33 46 38.5   134302 1.0172 144.5     15?  49.13  21.8   56 255 108  57
   2024 07 14 19:30  22 08 35.37    -33 39 02.4   135106 1.0172 144.5     15?  49.55  22.6   54 254 108  58
   2024 07 14 19:40  22 08 50.95    -33 31 25.1   135910 1.0172 144.5 A   15?  49.97  23.4   52 254 108  58
   2024 07 14 19:50  22 09 07.16    -33 23 46.8   136714 1.0172 144.5 A   15?  50.39  24.3   50 254 108  58
   2024 07 14 20:00  22 09 24.03    -33 16 07.7   137518 1.0172 144.4 A   15?  50.80  25.1   48 253 108  58
   2024 07 14 20:10  22 09 41.58    -33 08 28.3   138321 1.0172 144.4 N   15?  51.21  26.0   46 253 108  58
   2024 07 14 20:20  22 09 59.82    -33 00 48.8   139123 1.0172 144.4 N   15?  51.62  26.9   44 252 108  58
   2024 07 14 20:30  22 10 18.77    -32 53 09.3   139925 1.0172 144.3 N   15?  52.03  27.9   42 252 108  58
   2024 07 14 20:40  22 10 38.45    -32 45 30.3   140725 1.0172 144.3 C   15?  52.43  28.8   40 251 108  58
   2024 07 14 20:50  22 10 58.86    -32 37 52.1   141523 1.0172 144.2 C   15?  52.83  29.8   38 251 108  58
   ................
   2024 07 15 10:20  22 57 53.03    -26 26 53.3   179508 1.0173 134.7  m  15?  32.00  72.5    0 120 113  63
   2024 07 15 10:30  22 58 15.31    -26 25 18.1   179549 1.0173 134.6  m  15?  30.86  72.1    2 119 114  63
   2024 07 15 10:40  22 58 36.71    -26 23 44.1   179583 1.0173 134.5  m  15?  29.71  71.6    3 118 114  63
   2024 07 15 10:50  22 58 57.24    -26 22 10.9   179611 1.0173 134.4  m  15?  28.57  71.0    5 117 114  64
   2024 07 15 11:00  22 59 16.87    -26 20 38.3   179633 1.0173 134.4  m  15?  27.43  70.3    7 116 114  64
   2024 07 15 11:10  22 59 35.62    -26 19 06.2   179650 1.0173 134.3  m  15?  26.30  69.5    9 114 114  64
   2024 07 15 11:20  22 59 53.48    -26 17 34.3   179662 1.0173 134.2  m  15?  25.18  68.6   11 113 114  64
   2024 07 15 11:30  23 00 10.44    -26 16 02.4   179670 1.0173 134.2  m  15?  24.08  67.5   13 112 114  64
   2024 07 15 11:40  23 00 26.52    -26 14 30.3   179673 1.0173 134.1  m  15?  22.99  66.3   15 111 114  64
   2024 07 15 11:50  23 00 41.70    -26 12 57.7   179673 1.0173 134.1  m  15?  21.93  64.9   17 110 114  64
   2024 07 15 12:00  23 00 56.00    -26 11 24.5   179669 1.0173 134.0  m  15?  20.90  63.4   19 109 114  64
   2024 07 15 12:10  23 01 09.42    -26 09 50.5   179663 1.0173 134.0  m  15?  19.90  61.6   20 108 114  64
   2024 07 15 12:20  23 01 21.97    -26 08 15.4   179653 1.0173 133.9  m  15?  18.94  59.6   22 107 114  64
   2024 07 15 12:30  23 01 33.65    -26 06 39.1   179642 1.0173 133.9  m  15?  18.02  57.4   24 106 114  64
   2024 07 15 12:40  23 01 44.48    -26 05 01.2   179629 1.0173 133.8  m  15?  17.16  54.9   26 105 114  64
   2024 07 15 12:50  23 01 54.45    -26 03 21.7   179614 1.0173 133.8  m  15?  16.36  52.1   29 104 114  64
   2024 07 15 13:00  23 02 03.60    -26 01 40.3   179598 1.0173 133.8  m  15?  15.63  49.0   31 103 114  64
   2024 07 15 13:10  23 02 11.93    -25 59 56.7   179582 1.0173 133.8  m  15?  14.97  45.6   33 102 114  64
   2024 07 15 13:20  23 02 19.45    -25 58 10.9   179565 1.0173 133.7  m  15?  14.40  42.0   35 101 114  64
   2024 07 15 13:30  23 02 26.19    -25 56 22.6   179548 1.0173 133.7  m  15?  13.93  38.1   37 100 113  64
   2024 07 15 13:40  23 02 32.15    -25 54 31.6   179532 1.0173 133.7  m  15?  13.55  33.9   39  99 113  64
   2024 07 15 13:50  23 02 37.37    -25 52 37.8   179516 1.0173 133.7  m  15?  13.28  29.7   41  98 113  64
   2024 07 15 14:00  23 02 41.86    -25 50 40.9   179502 1.0173 133.7  m  15?  13.11  25.3   43  97 113  64
   2024 07 15 14:10  23 02 45.65    -25 48 40.8   179489 1.0173 133.6  m  15?  13.04  21.0   45  95 113  64
   2024 07 15 14:20  23 02 48.75    -25 46 37.3   179478 1.0173 133.6  m  15?  13.08  16.7   47  94 113  65
   2024 07 15 14:30  23 02 51.20    -25 44 30.3   179469 1.0173 133.6  m  15?  13.21  12.7   49  93 113  65
   2024 07 15 14:40  23 02 53.02    -25 42 19.5   179463 1.0173 133.6  m  15?  13.42   8.9   51  92 113  65
   2024 07 15 14:50  23 02 54.24    -25 40 04.9   179459 1.0173 133.6  m  15?  13.71   5.3   54  91 113  65
   2024 07 15 15:00  23 02 54.88    -25 37 46.3   179458 1.0173 133.6  m  15?  14.07   2.1   56  89 113  65
   2024 07 15 15:10  23 02 54.99    -25 35 23.6   179461 1.0173 133.6  m  15?  14.48 359.2   58  88 113  65
   2024 07 15 15:20  23 02 54.58    -25 32 56.7   179467 1.0173 133.6  m  15?  14.93 356.6   60  86 113  65
   2024 07 15 15:30  23 02 53.70    -25 30 25.4   179477 1.0173 133.6  m  15?  15.42 354.4   62  85 113  65
   2024 07 15 15:40  23 02 52.37    -25 27 49.7   179491 1.0173 133.6  m  15?  15.93 352.5   64  83 113  65
   2024 07 15 15:50  23 02 50.63    -25 25 09.4   179509 1.0173 133.6  m  15?  16.46 350.9   66  81 113  65
   2024 07 15 16:00  23 02 48.51    -25 22 24.4   179532 1.0173 133.7     15?  17.00 349.5   68  79 113  65
   2024 07 15 16:10  23 02 46.05    -25 19 34.8   179559 1.0173 133.7     15?  17.55 348.4   71  76 113  65
   2024 07 15 16:20  23 02 43.30    -25 16 40.4   179591 1.0173 133.7     15?  18.10 347.5   73  73 113  65
   2024 07 15 16:30  23 02 40.27    -25 13 41.1   179628 1.0173 133.7     15?  18.65 346.8   75  69 113  65
   2024 07 15 16:40  23 02 37.02    -25 10 37.0   179670 1.0173 133.7     15?  19.19 346.3   77  64 113  65
   2024 07 15 16:50  23 02 33.57    -25 07 28.0   179718 1.0173 133.7     15?  19.72 345.9   78  58 112  66
   2024 07 15 17:00  23 02 29.98    -25 04 14.1   179771 1.0173 133.7     15?  20.24 345.8   80  49 112  66
   2024 07 15 17:10  23 02 26.26    -25 00 55.2   179829 1.0173 133.7     15?  20.75 345.8   82  37 112  66
   2024 07 15 17:20  23 02 22.48    -24 57 31.5   179892 1.0173 133.8     15?  21.25 345.9   83  21 112  66
   2024 07 15 17:30  23 02 18.66    -24 54 02.8   179961 1.0173 133.8     15?  21.73 346.1   83   2 112  66
   2024 07 15 17:40  23 02 14.84    -24 50 29.2   180036 1.0173 133.8  t  15?  22.20 346.5   83 342 112  66
   2024 07 15 17:50  23 02 11.06    -24 46 50.8   180116 1.0173 133.8     15?  22.65 347.0   82 326 112  66
   2024 07 15 18:00  23 02 07.36    -24 43 07.5   180202 1.0173 133.8     15?  23.09 347.6   80 314 112  66
   2024 07 15 18:10  23 02 03.78    -24 39 19.5   180293 1.0173 133.8     15?  23.51 348.2   79 305 112  66
   2024 07 15 18:20  23 02 00.36    -24 35 26.8   180390 1.0173 133.8     15?  23.92 349.0   77 299 112  66
   2024 07 15 18:30  23 01 57.12    -24 31 29.6   180492 1.0173 133.8     15?  24.32 349.9   75 294 112  66
   2024 07 15 18:40  23 01 54.12    -24 27 27.7   180600 1.0173 133.9     15?  24.71 350.8   73 290 112  66
   2024 07 15 18:50  23 01 51.38    -24 23 21.5   180712 1.0173 133.9     15?  25.08 351.9   71 286 112  66
   2024 07 15 19:00  23 01 48.95    -24 19 10.9   180830 1.0173 133.9     15?  25.45 353.0   68 284 112  67
   2024 07 15 19:10  23 01 46.84    -24 14 56.1   180953 1.0173 133.9     15?  25.81 354.1   66 281 111  67
   2024 07 15 19:20  23 01 45.11    -24 10 37.2   181080 1.0173 133.9     15?  26.16 355.4   64 279 111  67
   2024 07 15 19:30  23 01 43.78    -24 06 14.4   181213 1.0173 133.9     15?  26.51 356.7   62 277 111  67
   2024 07 15 19:40  23 01 42.87    -24 01 47.7   181349 1.0173 133.9 A   15?  26.86 358.0   60 276 111  67
   2024 07 15 19:50  23 01 42.44    -23 57 17.3   181490 1.0173 133.9 A   15?  27.21 359.4   58 274 111  67
   2024 07 15 20:00  23 01 42.49    -23 52 43.4   181635 1.0173 133.9 A   15?  27.56   0.9   56 273 111  67
   2024 07 15 20:10  23 01 43.07    -23 48 06.1   181784 1.0172 133.9 N   15?  27.91   2.4   53 272 111  67
   2024 07 15 20:20  23 01 44.19    -23 43 25.6   181936 1.0172 133.9 N   15?  28.27   3.9   51 270 111  67
   2024 07 15 20:30  23 01 45.89    -23 38 42.0   182092 1.0172 133.9 N   15?  28.63   5.5   49 269 111  67
   2024 07 15 20:40  23 01 48.18    -23 33 55.5   182250 1.0172 133.8 C   15?  29.00   7.1   47 268 111  67
   2024 07 15 20:50  23 01 51.10    -23 29 06.3   182411 1.0172 133.8 C   15?  29.38   8.7   45 267 111  68
   ................
   2024 07 16 11:20  23 37 46.47    -17 29 37.5   172039 1.0171 125.0  r  15?  35.34  59.8    0 110 114  73
   2024 07 16 11:30  23 38 07.43    -17 26 39.1   171475 1.0171 124.9  m  15?  34.49  58.8    1 109 114  73
   2024 07 16 11:40  23 38 27.66    -17 23 39.9   170905 1.0170 124.8  m  15?  33.65  57.7    3 107 114  73
   2024 07 16 11:50  23 38 47.14    -17 20 39.7   170329 1.0170 124.7  m  15?  32.82  56.6    5 106 114  73
   2024 07 16 12:00  23 39 05.88    -17 17 38.2   169749 1.0170 124.6  m  15?  32.00  55.3    7 105 114  73
   2024 07 16 12:10  23 39 23.85    -17 14 35.3   169163 1.0170 124.6  m  15?  31.20  54.0    9 104 114  73
   2024 07 16 12:20  23 39 41.06    -17 11 30.9   168574 1.0170 124.5  m  15?  30.43  52.5   11 102 114  73
   2024 07 16 12:30  23 39 57.50    -17 08 24.7   167980 1.0170 124.4  m  15?  29.68  50.9   13 101 114  73
   2024 07 16 12:40  23 40 13.17    -17 05 16.6   167382 1.0170 124.3  m  15?  28.96  49.3   15 100 114  73
   2024 07 16 12:50  23 40 28.06    -17 02 06.4   166782 1.0170 124.3  m  15?  28.27  47.5   17  99 114  73
   2024 07 16 13:00  23 40 42.17    -16 58 53.9   166178 1.0170 124.2  m  15?  27.63  45.5   19  98 114  73
   2024 07 16 13:10  23 40 55.51    -16 55 39.0   165572 1.0170 124.2  m  15?  27.04  43.5   21  96 114  73
   2024 07 16 13:20  23 41 08.08    -16 52 21.5   164964 1.0170 124.1  m  15?  26.50  41.4   24  95 114  73
   2024 07 16 13:30  23 41 19.88    -16 49 01.1   164354 1.0170 124.1  m  15?  26.01  39.2   26  94 114  73
   2024 07 16 13:40  23 41 30.91    -16 45 37.8   163743 1.0170 124.0  m  15?  25.58  36.8   28  93 114  73
   2024 07 16 13:50  23 41 41.19    -16 42 11.3   163131 1.0170 124.0  m  15?  25.22  34.4   30  91 114  74
   2024 07 16 14:00  23 41 50.71    -16 38 41.4   162518 1.0170 123.9  m  15?  24.92  32.0   32  90 114  74
   2024 07 16 14:10  23 41 59.50    -16 35 08.1   161905 1.0170 123.9  m  15?  24.69  29.5   34  89 114  74
   2024 07 16 14:20  23 42 07.56    -16 31 31.1   161292 1.0170 123.8  m  15?  24.53  26.9   36  87 114  74
   2024 07 16 14:30  23 42 14.91    -16 27 50.2   160680 1.0170 123.8  m  15?  24.45  24.4   38  86 114  74
   2024 07 16 14:40  23 42 21.56    -16 24 05.3   160068 1.0170 123.8  m  15?  24.44  21.9   40  84 114  74
   2024 07 16 14:50  23 42 27.53    -16 20 16.3   159457 1.0170 123.7  m  15?  24.49  19.4   42  83 114  74
   2024 07 16 15:00  23 42 32.84    -16 16 22.9   158848 1.0170 123.7  m  15?  24.62  17.0   44  81 114  74
   2024 07 16 15:10  23 42 37.50    -16 12 25.1   158240 1.0170 123.7  m  15?  24.81  14.7   46  79 114  74
   2024 07 16 15:20  23 42 41.54    -16 08 22.6   157634 1.0170 123.6  m  15?  25.06  12.5   48  78 114  74
   2024 07 16 15:30  23 42 44.99    -16 04 15.3   157031 1.0170 123.6  m  15?  25.37  10.4   50  76 114  74
   2024 07 16 15:40  23 42 47.85    -16 00 03.1   156430 1.0170 123.6  m  15?  25.73   8.4   52  74 114  74
   2024 07 16 15:50  23 42 50.17    -15 55 45.8   155832 1.0170 123.6  m  15?  26.14   6.6   54  71 114  74
   2024 07 16 16:00  23 42 51.97    -15 51 23.3   155236 1.0170 123.5  m  15?  26.59   4.9   56  69 114  74
   2024 07 16 16:10  23 42 53.28    -15 46 55.5   154644 1.0170 123.5  m  15?  27.07   3.4   58  66 114  74
   2024 07 16 16:20  23 42 54.13    -15 42 22.3   154056 1.0170 123.5  m  15?  27.59   2.0   60  63 114  74
   2024 07 16 16:30  23 42 54.55    -15 37 43.5   153471 1.0170 123.5  m  15?  28.14   0.7   62  60 114  74
   2024 07 16 16:40  23 42 54.58    -15 32 59.1   152889 1.0169 123.5  m  15?  28.71 359.6   64  56 114  74
   2024 07 16 16:50  23 42 54.25    -15 28 08.9   152312 1.0169 123.5  m  15?  29.29 358.6   66  52 114  75
   2024 07 16 17:00  23 42 53.59    -15 23 12.9   151739 1.0169 123.5     15?  29.90 357.8   67  47 114  75
   2024 07 16 17:10  23 42 52.65    -15 18 11.0   151170 1.0169 123.4     15?  30.51 357.1   69  42 114  75
   2024 07 16 17:20  23 42 51.45    -15 13 03.1   150605 1.0169 123.4     15?  31.13 356.5   70  36 114  75
   2024 07 16 17:30  23 42 50.05    -15 07 49.0   150044 1.0169 123.4     15?  31.75 356.1   71  30 113  75
   2024 07 16 17:40  23 42 48.48    -15 02 28.9   149488 1.0169 123.4     15?  32.38 355.8   72  22 113  75
   2024 07 16 17:50  23 42 46.78    -14 57 02.6   148936 1.0169 123.4     15?  33.01 355.6   73  14 113  75
   2024 07 16 18:00  23 42 44.99    -14 51 30.0   148389 1.0169 123.4     15?  33.64 355.5   73   6 113  75
   2024 07 16 18:10  23 42 43.16    -14 45 51.2   147846 1.0169 123.4  t  14?  34.27 355.6   73 357 113  75
   2024 07 16 18:20  23 42 41.33    -14 40 06.1   147308 1.0169 123.4     14?  34.90 355.7   73 349 113  75
   2024 07 16 18:30  23 42 39.54    -14 34 14.7   146774 1.0169 123.3     14?  35.52 355.9   72 341 113  75
   2024 07 16 18:40  23 42 37.84    -14 28 17.0   146244 1.0169 123.3     14?  36.14 356.2   71 334 113  75
   2024 07 16 18:50  23 42 36.27    -14 22 12.9   145719 1.0169 123.3     14?  36.76 356.6   70 327 113  75
   2024 07 16 19:00  23 42 34.88    -14 16 02.5   145198 1.0169 123.3     14?  37.38 357.1   69 321 113  75
   2024 07 16 19:10  23 42 33.70    -14 09 45.8   144680 1.0169 123.3     14?  37.99 357.7   67 316 113  76
   2024 07 16 19:20  23 42 32.80    -14 03 22.8   144167 1.0169 123.3     14?  38.61 358.4   65 311 113  76
   2024 07 16 19:30  23 42 32.20    -13 56 53.5   143658 1.0169 123.2     14?  39.22 359.1   64 307 113  76
   2024 07 16 19:40  23 42 31.96    -13 50 17.9   143151 1.0169 123.2 A   14?  39.84 359.9   62 304 113  76
   2024 07 16 19:50  23 42 32.11    -13 43 36.1   142649 1.0169 123.2 A   14?  40.47   0.8   60 300 113  76
   2024 07 16 20:00  23 42 32.71    -13 36 48.2   142149 1.0169 123.2 A   14?  41.10   1.8   58 298 113  76
   2024 07 16 20:10  23 42 33.80    -13 29 54.1   141653 1.0169 123.1 N   14?  41.74   2.8   56 295 113  76
   2024 07 16 20:20  23 42 35.42    -13 22 53.9   141159 1.0169 123.1 N   14?  42.39   3.8   54 293 113  76
   2024 07 16 20:30  23 42 37.61    -13 15 47.7   140667 1.0169 123.1 N   14?  43.06   4.9   52 290 113  76
   2024 07 16 20:40  23 42 40.41    -13 08 35.5   140177 1.0169 123.0 C   14?  43.74   6.0   50 288 113  76
   2024 07 16 20:50  23 42 43.87    -13 01 17.4   139690 1.0168 123.0 C   14?  44.43   7.2   48 286 113  76
   ................
   2024 07 17 15:40  14 15 38.49    -30 15 28.7    16088 1.0164 106.0  r   9? 4554.6 129.9    3 236  26  82
   2024 07 17 15:50  14 58 33.52    -37 02 39.8    17878 1.0164 116.1  m  10? 3551.1 124.0   12 234  20  82
   2024 07 17 16:00  15 37 22.64    -41 35 33.0    19867 1.0164 123.8  m  10? 2797.3 117.9   20 232  18  83
   2024 07 17 16:10  16 11 56.00    -44 33 15.5    21958 1.0164 129.9  m  11? 2243.6 111.9   25 231  19  83
   2024 07 17 16:20  16 42 18.50    -46 25 44.3    24092 1.0164 134.6  m  11? 1835.4 106.4   29 230  21  83
   2024 07 17 16:30  17 08 48.34    -47 34 05.6    26236 1.0165 138.4  m  11? 1530.1 101.4   32 230  24  83
   2024 07 17 16:40  17 31 51.20    -48 12 41.2    28370 1.0165 141.4  m  11? 1297.5  97.0   34 230  27  83
   2024 07 17 16:50  17 51 54.94    -48 31 09.9    30483 1.0165 143.9  m  12? 1117.0  93.1   36 230  29  83
   2024 07 17 17:00  18 09 26.17    -48 36 00.0    32569 1.0165 146.0  m  12? 974.53  89.6   37 230  31  83
   2024 07 17 17:10  18 24 48.64    -48 31 33.0    34624 1.0165 147.8  m  12? 860.15  86.6   38 230  33  83
   2024 07 17 17:20  18 38 22.71    -48 20 46.3    36648 1.0165 149.2  m  12? 766.98  83.8   38 230  35  83
   2024 07 17 17:30  18 50 25.47    -48 05 41.4    38640 1.0165 150.5  m  12? 690.10  81.4   39 231  37  83
   2024 07 17 17:40  19 01 11.12    -47 47 42.6    40600 1.0165 151.6  e  12? 625.91  79.3   39 231  38  83
   2024 07 17 17:50  19 10 51.36    -47 27 48.4    42529 1.0166 152.5  m  13? 571.74  77.3   39 231  40  83
   2024 07 17 18:00  19 19 35.87    -47 06 40.1    44429 1.0166 153.2     13? 525.60  75.5   38 232  41  83
   2024 07 17 18:10  19 27 32.63    -46 44 47.1    46299 1.0166 153.9     13? 485.95  73.9   38 232  42  83
   2024 07 17 18:20  19 34 48.27    -46 22 30.1    48142 1.0166 154.5     13? 451.62  72.5   38 233  43  83
   2024 07 17 18:30  19 41 28.33    -46 00 04.1    49959 1.0166 155.0     13? 421.68  71.2   37 233  44  83
   2024 07 17 18:40  19 47 37.41    -45 37 39.8    51749 1.0166 155.4     13? 395.40  70.0   36 233  45  83
   2024 07 17 18:50  19 53 19.41    -45 15 24.7    53515 1.0166 155.7     13? 372.21  68.9   35 234  46  83
   2024 07 17 19:00  19 58 37.63    -44 53 24.4    55258 1.0166 156.0     13? 351.62  67.9   34 234  47  84
   2024 07 17 19:10  20 03 34.87    -44 31 42.6    56978 1.0166 156.3     13? 333.25  67.0   33 234  47  84
   2024 07 17 19:20  20 08 13.52    -44 10 22.1    58676 1.0167 156.5     13? 316.79  66.2   32 234  48  84
   2024 07 17 19:30  20 12 35.63    -43 49 24.6    60354 1.0167 156.7     13? 301.98  65.5   31 234  49  84
   2024 07 17 19:40  20 16 42.98    -43 28 51.3    62011 1.0167 156.8 A   14? 288.59  64.8   30 234  49  84
   2024 07 17 19:50  20 20 37.10    -43 08 43.0    63648 1.0167 156.9 A   14? 276.44  64.2   29 234  50  84
   2024 07 17 20:00  20 24 19.34    -42 48 59.9    65266 1.0167 157.0 A   14? 265.38  63.7   28 234  51  84
   2024 07 17 20:10  20 27 50.86    -42 29 42.2    66866 1.0167 157.0 N   14? 255.28  63.2   27 234  51  84
   2024 07 17 20:20  20 31 12.69    -42 10 49.8    68448 1.0167 157.1 N   14? 246.02  62.8   25 234  52  84
   2024 07 17 20:30  20 34 25.72    -41 52 22.6    70013 1.0167 157.1 N   14? 237.51  62.4   24 234  52  84
   2024 07 17 20:40  20 37 30.77    -41 34 20.2    71561 1.0167 157.1 C   14? 229.67  62.1   23 234  53  84
   2024 07 17 20:50  20 40 28.53    -41 16 42.3    73092 1.0167 157.0 C   14? 222.42  61.8   21 234  53  84
   ................
   2024 07 18 09:20  22 29 27.60    -31 39 43.0   145525 1.0170 143.2  m  15?  48.43  75.3    0 127  69  88
   2024 07 18 09:30  22 30 03.70    -31 37 42.0   145973 1.0170 143.1  m  15?  46.77  75.1    1 126  69  89
   2024 07 18 09:40  22 30 38.48    -31 35 43.5   146412 1.0170 143.0  m  15?  45.11  74.9    3 125  69  89
   2024 07 18 09:50  22 31 11.97    -31 33 47.1   146843 1.0170 142.9  m  15?  43.47  74.6    4 124  69  89
   2024 07 18 10:00  22 31 44.15    -31 31 52.5   147265 1.0170 142.8  m  15?  41.84  74.2    6 123  69  89
   2024 07 18 10:10  22 32 15.03    -31 29 59.6   147680 1.0170 142.7  m  15?  40.22  73.8    8 121  69  89
   2024 07 18 10:20  22 32 44.63    -31 28 08.0   148086 1.0170 142.6  m  15?  38.63  73.3    9 120  69  89
   2024 07 18 10:30  22 33 12.95    -31 26 17.3   148486 1.0170 142.5  m  15?  37.05  72.7   11 119  69  89
   2024 07 18 10:40  22 33 39.99    -31 24 27.4   148879 1.0171 142.4  m  15?  35.50  72.0   13 118  69  89
   2024 07 18 10:50  22 34 05.77    -31 22 38.0   149265 1.0171 142.3  m  15?  33.97  71.2   15 117  70  89
   2024 07 18 11:00  22 34 30.30    -31 20 48.7   149646 1.0171 142.2  m  15?  32.47  70.3   17 116  70  89
   2024 07 18 11:10  22 34 53.59    -31 18 59.2   150020 1.0171 142.2  m  15?  31.01  69.3   18 115  70  89
   2024 07 18 11:20  22 35 15.65    -31 17 09.3   150390 1.0171 142.1  m  15?  29.58  68.1   20 114  70  89
   2024 07 18 11:30  22 35 36.51    -31 15 18.8   150755 1.0171 142.0  m  15?  28.20  66.8   22 113  70  89
   2024 07 18 11:40  22 35 56.17    -31 13 27.2   151115 1.0171 142.0  m  15?  26.87  65.3   24 112  70  89
   2024 07 18 11:50  22 36 14.66    -31 11 34.4   151471 1.0171 141.9  m  15?  25.59  63.7   26 111  70  89
   2024 07 18 12:00  22 36 32.00    -31 09 40.0   151823 1.0171 141.8  m  15?  24.37  61.8   28 110  70  89
   2024 07 18 12:10  22 36 48.21    -31 07 43.9   152173 1.0171 141.8  m  15?  23.21  59.7   30 110  70  89
   2024 07 18 12:20  22 37 03.31    -31 05 45.7   152519 1.0171 141.8  m  15?  22.13  57.4   32 109  70  89
   2024 07 18 12:30  22 37 17.32    -31 03 45.2   152863 1.0171 141.7  m  15?  21.13  54.9   34 108  70  89
   2024 07 18 12:40  22 37 30.28    -31 01 42.2   153204 1.0171 141.7  m  15?  20.21  52.1   36 107  70  89
   2024 07 18 12:50  22 37 42.21    -30 59 36.3   153544 1.0171 141.6  m  15?  19.39  49.0   38 106  70  89
   2024 07 18 13:00  22 37 53.13    -30 57 27.4   153883 1.0171 141.6  m  15?  18.68  45.7   40 105  70  89
   2024 07 18 13:10  22 38 03.09    -30 55 15.2   154220 1.0171 141.6  m  15?  18.07  42.3   42 104  70  89
   2024 07 18 13:20  22 38 12.10    -30 52 59.5   154557 1.0171 141.6  m  15?  17.57  38.6   44 104  70  89
   2024 07 18 13:30  22 38 20.21    -30 50 40.1   154893 1.0171 141.5  m  15?  17.20  34.9   46 103  70  89
   2024 07 18 13:40  22 38 27.45    -30 48 16.9   155230 1.0171 141.5  m  15?  16.94  31.0   48 102  70  89
   2024 07 18 13:50  22 38 33.85    -30 45 49.5   155567 1.0171 141.5  m  15?  16.79  27.2   50 101  70  89
   2024 07 18 14:00  22 38 39.45    -30 43 17.8   155904 1.0171 141.5  m  15?  16.75  23.5   52 100  70  89
   2024 07 18 14:10  22 38 44.29    -30 40 41.6   156243 1.0171 141.5  m  15?  16.82  19.9   54  99  70  89
   2024 07 18 14:20  22 38 48.40    -30 38 00.9   156583 1.0171 141.5  m  15?  16.99  16.5   56  99  70  89
   2024 07 18 14:30  22 38 51.84    -30 35 15.3   156924 1.0171 141.5  m  15?  17.23  13.3   58  98  70  89
   2024 07 18 14:40  22 38 54.63    -30 32 24.9   157268 1.0171 141.5  m  15?  17.56  10.4   60  97  69  89
   2024 07 18 14:50  22 38 56.82    -30 29 29.4   157613 1.0171 141.5  m  15?  17.94   7.7   62  96  69  89
   2024 07 18 15:00  22 38 58.46    -30 26 28.8   157961 1.0171 141.5  m  15?  18.38   5.4   65  95  69  89
   2024 07 18 15:10  22 38 59.58    -30 23 22.9   158311 1.0171 141.5  m  15?  18.86   3.3   67  94  69  89
   2024 07 18 15:20  22 39 00.24    -30 20 11.7   158665 1.0171 141.5  m  15?  19.37   1.5   69  93  69  90
   2024 07 18 15:30  22 39 00.46    -30 16 55.1   159021 1.0171 141.5  m  15?  19.90 359.9   71  92  69  90
   2024 07 18 15:40  22 39 00.31    -30 13 33.0   159381 1.0171 141.5  m  15?  20.46 358.6   73  90  69  90
   2024 07 18 15:50  22 38 59.83    -30 10 05.4   159744 1.0171 141.5  m  15?  21.02 357.6   75  89  69  90
   2024 07 18 16:00  22 38 59.05    -30 06 32.3   160110 1.0171 141.5  m  15?  21.60 356.7   77  87  69  90
   2024 07 18 16:10  22 38 58.03    -30 02 53.6   160481 1.0171 141.6  m  15?  22.17 356.0   79  85  69  90
   2024 07 18 16:20  22 38 56.81    -29 59 09.4   160855 1.0171 141.6  m  15?  22.74 355.6   82  82  69  90
   2024 07 18 16:30  22 38 55.44    -29 55 19.6   161233 1.0171 141.6  m  15?  23.30 355.3   84  76  69  90
   2024 07 18 16:40  22 38 53.96    -29 51 24.3   161616 1.0171 141.6  m  15?  23.86 355.1   86  67  69  90
   2024 07 18 16:50  22 38 52.42    -29 47 23.4   162002 1.0171 141.6  m  15?  24.41 355.1   87  39  69  90
   2024 07 18 17:00  22 38 50.87    -29 43 17.2   162393 1.0171 141.6  t  15?  24.95 355.2   88 332  69  90
   2024 07 18 17:10  22 38 49.34    -29 39 05.6   162788 1.0171 141.6  m  15?  25.48 355.4   86 299  69  90
   2024 07 18 17:20  22 38 47.88    -29 34 48.7   163187 1.0171 141.7  m  15?  25.99 355.8   84 287  69  90
   2024 07 18 17:30  22 38 46.53    -29 30 26.6   163591 1.0171 141.7  m  15?  26.49 356.2   82 282  69  90
   2024 07 18 17:40  22 38 45.34    -29 25 59.4   163999 1.0171 141.7  m  15?  26.98 356.8   80 278  69  90
   2024 07 18 17:50  22 38 44.34    -29 21 27.2   164411 1.0171 141.7  m  15?  27.46 357.4   78 276  69  90
   2024 07 18 18:00  22 38 43.59    -29 16 50.2   164827 1.0171 141.7  m  15?  27.93 358.2   75 274  68  90
   2024 07 18 18:10  22 38 43.11    -29 12 08.4   165247 1.0171 141.7  m  15?  28.39 359.0   73 273  68  90
   2024 07 18 18:20  22 38 42.94    -29 07 22.0   165672 1.0171 141.7  m  15?  28.83 359.9   71 271  68  90
   2024 07 18 18:30  22 38 43.13    -29 02 31.3   166100 1.0171 141.7  m  15?  29.27   0.9   69 270  68  90
   2024 07 18 18:40  22 38 43.71    -28 57 36.2   166533 1.0171 141.7  m  15?  29.70   1.9   67 269  68  90
   2024 07 18 18:50  22 38 44.71    -28 52 37.1   166969 1.0171 141.8  m  15?  30.12   3.0   65 268  68  90
   2024 07 18 19:00  22 38 46.16    -28 47 34.1   167408 1.0171 141.8  m  15?  30.54   4.1   63 267  68  90
   2024 07 18 19:10  22 38 48.10    -28 42 27.4   167851 1.0171 141.8     15?  30.96   5.3   60 266  68  90
   2024 07 18 19:20  22 38 50.56    -28 37 17.2   168298 1.0171 141.8     15?  31.37   6.5   58 265  68  91
   2024 07 18 19:30  22 38 53.57    -28 32 03.7   168747 1.0171 141.8     15?  31.78   7.8   56 264  68  91
   2024 07 18 19:40  22 38 57.15    -28 26 47.0   169199 1.0171 141.8 A   15?  32.19   9.1   54 263  68  91
   2024 07 18 19:50  22 39 01.33    -28 21 27.5   169654 1.0171 141.7 A   15?  32.60  10.4   52 263  68  91
   2024 07 18 20:00  22 39 06.13    -28 16 05.3   170111 1.0171 141.7 A   15?  33.02  11.7   50 262  68  91
   2024 07 18 20:10  22 39 11.58    -28 10 40.6   170570 1.0171 141.7 N   15?  33.44  13.1   48 261  68  91
   2024 07 18 20:20  22 39 17.70    -28 05 13.8   171031 1.0171 141.7 N   15?  33.86  14.5   45 260  68  91
   2024 07 18 20:30  22 39 24.50    -27 59 44.9   171494 1.0171 141.7 N   15?  34.29  16.0   43 259  68  91
   2024 07 18 20:40  22 39 32.00    -27 54 14.2   171958 1.0171 141.7 C   15?  34.72  17.4   41 259  68  91
   2024 07 18 20:50  22 39 40.22    -27 48 42.0   172423 1.0171 141.7 C   15?  35.16  18.8   39 258  68  91
   ................
   2024 07 19 10:30  23 16 03.89    -22 28 43.0   186900 1.0171 133.6  r  15?  29.86  68.0    0 116  69  94
   2024 07 19 10:40  23 16 23.45    -22 26 51.3   186662 1.0171 133.5  m  15?  28.87  67.3    1 115  69  94
   2024 07 19 10:50  23 16 42.25    -22 25 00.0   186419 1.0171 133.4  m  15?  27.88  66.5    3 114  69  95
   2024 07 19 11:00  23 17 00.27    -22 23 09.0   186170 1.0171 133.4  m  15?  26.89  65.6    5 112  69  95
   2024 07 19 11:10  23 17 17.52    -22 21 18.1   185916 1.0170 133.3  m  15?  25.91  64.6    7 111  69  95
   2024 07 19 11:20  23 17 33.97    -22 19 27.1   185657 1.0170 133.3  m  15?  24.94  63.5    8 110  69  95
   2024 07 19 11:30  23 17 49.64    -22 17 35.9   185394 1.0170 133.2  m  15?  23.98  62.3   10 109  69  95
   2024 07 19 11:40  23 18 04.51    -22 15 44.1   185127 1.0170 133.1  m  15?  23.04  60.9   12 108  69  95
   2024 07 19 11:50  23 18 18.59    -22 13 51.8   184856 1.0170 133.1  m  15?  22.12  59.4   14 107  69  95
   2024 07 19 12:00  23 18 31.87    -22 11 58.6   184582 1.0170 133.0  m  15?  21.23  57.6   16 105  69  95
   2024 07 19 12:10  23 18 44.36    -22 10 04.5   184305 1.0170 133.0  m  15?  20.37  55.7   18 104  69  95
   2024 07 19 12:20  23 18 56.05    -22 08 09.1   184026 1.0170 132.9  m  15?  19.55  53.6   20 103  69  95
   2024 07 19 12:30  23 19 06.96    -22 06 12.4   183745 1.0170 132.9  m  15?  18.78  51.3   22 102  69  95
   2024 07 19 12:40  23 19 17.08    -22 04 14.1   183462 1.0170 132.9  m  15?  18.05  48.7   24 101  69  95
   2024 07 19 12:50  23 19 26.42    -22 02 14.1   183178 1.0170 132.8  m  15?  17.39  45.9   27 100  69  95
   2024 07 19 13:00  23 19 35.00    -22 00 12.2   182893 1.0170 132.8  m  15?  16.79  42.9   29  99  69  95
   2024 07 19 13:10  23 19 42.81    -21 58 08.2   182608 1.0170 132.8  m  15?  16.26  39.7   31  98  69  95
   2024 07 19 13:20  23 19 49.88    -21 56 01.9   182322 1.0170 132.7  m  15?  15.81  36.3   33  96  69  95
   2024 07 19 13:30  23 19 56.21    -21 53 53.1   182037 1.0170 132.7  m  15?  15.45  32.7   35  95  69  95
   2024 07 19 13:40  23 20 01.82    -21 51 41.8   181753 1.0170 132.7  m  15?  15.17  29.0   37  94  69  95
   2024 07 19 13:50  23 20 06.73    -21 49 27.7   181469 1.0170 132.7  m  15?  14.98  25.3   39  93  69  95
   2024 07 19 14:00  23 20 10.94    -21 47 10.6   181187 1.0170 132.7  m  15?  14.89  21.5   41  92  69  95
   2024 07 19 14:10  23 20 14.49    -21 44 50.4   180906 1.0170 132.7  m  15?  14.88  17.7   43  90  69  95
   2024 07 19 14:20  23 20 17.38    -21 42 27.0   180628 1.0170 132.6  m  15?  14.95  14.1   45  89  68  95
   2024 07 19 14:30  23 20 19.64    -21 40 00.2   180352 1.0170 132.6  m  15?  15.11  10.6   47  88  68  95
   2024 07 19 14:40  23 20 21.30    -21 37 29.8   180078 1.0170 132.6  m  15?  15.34   7.3   50  86  68  95
   2024 07 19 14:50  23 20 22.38    -21 34 55.7   179808 1.0170 132.6  m  15?  15.63   4.2   52  85  68  95
   2024 07 19 15:00  23 20 22.90    -21 32 17.8   179540 1.0170 132.6  m  15?  15.98   1.4   54  83  68  95
   2024 07 19 15:10  23 20 22.89    -21 29 35.9   179277 1.0170 132.6  m  15?  16.38 358.8   56  81  68  95
   2024 07 19 15:20  23 20 22.38    -21 26 50.0   179017 1.0170 132.6  m  15?  16.82 356.5   58  79  68  95
   2024 07 19 15:30  23 20 21.39    -21 23 59.9   178761 1.0170 132.6  m  15?  17.29 354.5   60  77  68  95
   2024 07 19 15:40  23 20 19.96    -21 21 05.5   178509 1.0170 132.6  m  15?  17.79 352.7   62  75  68  95
   2024 07 19 15:50  23 20 18.12    -21 18 06.7   178262 1.0170 132.6  m  15?  18.31 351.2   64  72  68  95
   2024 07 19 16:00  23 20 15.90    -21 15 03.4   178019 1.0170 132.6  m  15?  18.83 349.9   66  69  68  95
   2024 07 19 16:10  23 20 13.34    -21 11 55.6   177781 1.0170 132.7  m  15?  19.37 348.8   68  66  68  95
   2024 07 19 16:20  23 20 10.46    -21 08 43.2   177548 1.0170 132.7  m  15?  19.91 347.9   70  62  68  95
   2024 07 19 16:30  23 20 07.31    -21 05 26.1   177321 1.0170 132.7  m  15?  20.45 347.1   72  57  68  95
   2024 07 19 16:40  23 20 03.91    -21 02 04.3   177098 1.0170 132.7  m  15?  20.98 346.6   74  52  68  95
   2024 07 19 16:50  23 20 00.31    -20 58 37.7   176881 1.0170 132.7  m  15?  21.51 346.2   75  45  68  95
   2024 07 19 17:00  23 19 56.54    -20 55 06.3   176670 1.0170 132.7  m  15?  22.03 346.0   77  37  68  95
   2024 07 19 17:10  23 19 52.64    -20 51 30.1   176464 1.0170 132.7  m  15?  22.54 345.9   78  27  68  95
   2024 07 19 17:20  23 19 48.65    -20 47 49.0   176264 1.0170 132.7  m  15?  23.03 345.9   79  15  68  95
   2024 07 19 17:30  23 19 44.60    -20 44 03.0   176069 1.0170 132.7  m  15?  23.52 346.1   79   3  67  95
   2024 07 19 17:40  23 19 40.54    -20 40 12.2   175880 1.0170 132.7  t  15?  23.99 346.4   79 350  67  95
   2024 07 19 17:50  23 19 36.49    -20 36 16.6   175697 1.0170 132.8  m  15?  24.44 346.7   78 339  67  95
   2024 07 19 18:00  23 19 32.51    -20 32 16.2   175519 1.0170 132.8  m  15?  24.89 347.2   77 328  67  95
   2024 07 19 18:10  23 19 28.63    -20 28 11.0   175347 1.0170 132.8  m  15?  25.32 347.8   76 320  67  95
   2024 07 19 18:20  23 19 24.88    -20 24 01.0   175181 1.0170 132.8  m  15?  25.73 348.5   74 312  67  96
   2024 07 19 18:30  23 19 21.31    -20 19 46.4   175020 1.0170 132.8  m  15?  26.14 349.3   72 307  67  96
   2024 07 19 18:40  23 19 17.95    -20 15 27.2   174865 1.0170 132.8  m  15?  26.53 350.2   71 302  67  96
   2024 07 19 18:50  23 19 14.83    -20 11 03.3   174714 1.0170 132.8  m  15?  26.92 351.1   69 298  67  96
   2024 07 19 19:00  23 19 12.01    -20 06 35.1   174569 1.0170 132.8  m  15?  27.30 352.2   67 294  67  96
   2024 07 19 19:10  23 19 09.51    -20 02 02.4   174429 1.0169 132.8  m  15?  27.67 353.3   65 291  67  96
   2024 07 19 19:20  23 19 07.36    -19 57 25.4   174294 1.0169 132.8  m  15?  28.04 354.4   63 288  67  96
   2024 07 19 19:30  23 19 05.61    -19 52 44.2   174163 1.0169 132.8  m  15?  28.40 355.7   61 286  67  96
   2024 07 19 19:40  23 19 04.28    -19 47 58.9   174037 1.0169 132.8 Am  15?  28.77 357.0   58 284  66  96
   2024 07 19 19:50  23 19 03.41    -19 43 09.6   173915 1.0169 132.8 Am  15?  29.13 358.3   56 282  66  96
   2024 07 19 20:00  23 19 03.04    -19 38 16.4   173797 1.0169 132.8 Am  15?  29.51 359.7   54 280  66  96
   2024 07 19 20:10  23 19 03.18    -19 33 19.5   173683 1.0169 132.8 N   15?  29.88   1.3   52 278  66  96
   2024 07 19 20:20  23 19 03.88    -19 28 19.0   173572 1.0169 132.8 N   15?  30.26   2.8   50 277  66  96
   2024 07 19 20:30  23 19 05.16    -19 23 15.0   173464 1.0169 132.8 N   15?  30.66   4.3   48 275  66  96
   2024 07 19 20:40  23 19 07.05    -19 18 07.7   173360 1.0169 132.8 C   15?  31.06   5.9   46 274  66  96
   2024 07 19 20:50  23 19 09.58    -19 12 57.1   173257 1.0169 132.7 C   15?  31.48   7.5   43 273  66  96
   ................
   2024 07 20 11:50  00 03 24.37    -10 54 08.9   134038 1.0166 120.9  m  14?  60.02  50.0    0 102  70  98
   2024 07 20 12:00  00 03 55.14    -10 47 40.8   133082 1.0166 120.7  m  14?  59.69  49.0    2 100  70  98
   2024 07 20 12:10  00 04 25.26    -10 41 06.8   132119 1.0166 120.6  m  14?  59.39  48.0    4  99  70  98
   2024 07 20 12:20  00 04 54.73    -10 34 26.5   131148 1.0166 120.5  m  14?  59.11  46.9    6  98  70  98
   2024 07 20 12:30  00 05 23.52    -10 27 39.7   130169 1.0166 120.3  m  14?  58.87  45.8    8  96  70  98
   2024 07 20 12:40  00 05 51.63    -10 20 46.0   129185 1.0166 120.2  m  14?  58.66  44.6   10  95  70  98
   2024 07 20 12:50  00 06 19.06    -10 13 45.2   128194 1.0166 120.0  m  14?  58.50  43.4   12  94  70  98
   2024 07 20 13:00  00 06 45.80    -10 06 36.9   127197 1.0166 119.9  m  14?  58.38  42.2   14  93  70  98
   2024 07 20 13:10  00 07 11.85    -09 59 20.8   126194 1.0165 119.8  m  14?  58.30  40.9   16  91  70  98
   2024 07 20 13:20  00 07 37.19    -09 51 56.5   125186 1.0165 119.6  m  14?  58.28  39.6   18  90  70  98
   2024 07 20 13:30  00 08 01.84    -09 44 23.8   124172 1.0165 119.5  m  14?  58.32  38.3   20  89  70  98
   2024 07 20 13:40  00 08 25.79    -09 36 42.2   123154 1.0165 119.4  m  14?  58.41  37.0   22  87  71  98
   2024 07 20 13:50  00 08 49.04    -09 28 51.4   122132 1.0165 119.3  m  14?  58.57  35.6   24  86  71  98
   2024 07 20 14:00  00 09 11.59    -09 20 51.1   121105 1.0165 119.1  m  14?  58.79  34.3   26  84  71  98
   2024 07 20 14:10  00 09 33.46    -09 12 40.9   120074 1.0165 119.0  m  14?  59.08  32.9   28  83  71  98
   2024 07 20 14:20  00 09 54.66    -09 04 20.4   119039 1.0165 118.9  m  14?  59.44  31.6   30  81  71  98
   2024 07 20 14:30  00 10 15.18    -08 55 49.3   118001 1.0165 118.8  m  14?  59.88  30.2   32  80  71  98
   2024 07 20 14:40  00 10 35.04    -08 47 07.0   116960 1.0165 118.7  m  14?  60.39  28.9   34  78  71  98
   2024 07 20 14:50  00 10 54.26    -08 38 13.3   115916 1.0165 118.6  m  14?  60.98  27.6   36  76  71  98
   2024 07 20 15:00  00 11 12.85    -08 29 07.8   114869 1.0165 118.4  m  14?  61.64  26.4   38  74  71  98
   2024 07 20 15:10  00 11 30.83    -08 19 49.9   113819 1.0165 118.3  m  14?  62.39  25.1   40  73  71  98
   2024 07 20 15:20  00 11 48.21    -08 10 19.3   112767 1.0165 118.2  m  14?  63.21  23.9   41  71  71  98
   2024 07 20 15:30  00 12 05.03    -08 00 35.6   111713 1.0165 118.1  m  14?  64.12  22.8   43  68  71  98
   2024 07 20 15:40  00 12 21.30    -07 50 38.3   110657 1.0165 118.0  m  14?  65.11  21.7   45  66  71  98
   2024 07 20 15:50  00 12 37.06    -07 40 27.0   109599 1.0165 117.9  m  14?  66.17  20.6   47  64  71  98
   2024 07 20 16:00  00 12 52.33    -07 30 01.1   108539 1.0165 117.8  m  14?  67.32  19.6   49  61  72  98
   2024 07 20 16:10  00 13 07.14    -07 19 20.3   107478 1.0164 117.7  m  14?  68.55  18.7   50  59  72  98
   2024 07 20 16:20  00 13 21.53    -07 08 24.0   106415 1.0164 117.5  m  14?  69.86  17.8   52  56  72  99
   2024 07 20 16:30  00 13 35.53    -06 57 11.7   105351 1.0164 117.4  m  14?  71.25  17.0   54  53  72  99
   2024 07 20 16:40  00 13 49.18    -06 45 43.0   104286 1.0164 117.3  m  14?  72.72  16.3   55  49  72  99
   2024 07 20 16:50  00 14 02.53    -06 33 57.2   103219 1.0164 117.2  m  14?  74.27  15.6   56  46  72  99
   2024 07 20 17:00  00 14 15.63    -06 21 53.9   102150 1.0164 117.1  m  14?  75.90  15.0   58  42  72  99
   2024 07 20 17:10  00 14 28.50    -06 09 32.5   101081 1.0164 117.0  m  13?  77.62  14.4   59  38  72  99
   2024 07 20 17:20  00 14 41.22    -05 56 52.4   100010 1.0164 116.9  m  13?  79.41  14.0   60  33  72  99
   2024 07 20 17:30  00 14 53.82    -05 43 52.9    98937 1.0164 116.8  m  13?  81.29  13.6   61  28  72  99
   2024 07 20 17:40  00 15 06.37    -05 30 33.6    97863 1.0164 116.6  m  13?  83.26  13.2   62  24  72  99
   2024 07 20 17:50  00 15 18.91    -05 16 53.6    96788 1.0164 116.5  m  13?  85.31  12.9   62  18  72  99
   2024 07 20 18:00  00 15 31.53    -05 02 52.4    95710 1.0164 116.4  m  13?  87.46  12.7   63  13  72  99
   2024 07 20 18:10  00 15 44.27    -04 48 29.3    94631 1.0164 116.3  m  13?  89.69  12.5   63   8  72  99
   2024 07 20 18:20  00 15 57.20    -04 33 43.4    93549 1.0164 116.1  e  13?  92.03  12.4   63   2  72  99
   2024 07 20 18:30  00 16 10.39    -04 18 34.0    92466 1.0164 116.0  t  13?  94.46  12.4   62 357  73  99
   2024 07 20 18:40  00 16 23.92    -04 03 00.3    91379 1.0164 115.9  m  13?  97.00  12.4   62 352  73  99
   2024 07 20 18:50  00 16 37.86    -03 47 01.4    90290 1.0163 115.7  m  13?  99.66  12.5   61 346  73  99
   2024 07 20 19:00  00 16 52.30    -03 30 36.4    89198 1.0163 115.6  m  13? 102.43  12.6   60 342  73  99
   2024 07 20 19:10  00 17 07.30    -03 13 44.4    88102 1.0163 115.4  m  13? 105.33  12.8   59 337  73  99
   2024 07 20 19:20  00 17 22.96    -02 56 24.2    87002 1.0163 115.3  m  13? 108.36  13.0   58 333  73  99
   2024 07 20 19:30  00 17 39.37    -02 38 34.8    85898 1.0163 115.1  m  13? 111.54  13.2   57 329  73  99
   2024 07 20 19:40  00 17 56.62    -02 20 15.0    84789 1.0163 114.9 Am  13? 114.87  13.5   56 325  73  99
   2024 07 20 19:50  00 18 14.81    -02 01 23.6    83675 1.0163 114.7 Am  13? 118.37  13.9   54 322  73  99
   2024 07 20 20:00  00 18 34.03    -01 41 59.1    82555 1.0163 114.6 Am  13? 122.04  14.2   53 319  73  99
   2024 07 20 20:10  00 18 54.40    -01 22 00.1    81429 1.0163 114.4 Nm  13? 125.91  14.6   51 316  73  99
   2024 07 20 20:20  00 19 16.02    -01 01 25.1    80296 1.0163 114.2 Nm  13? 129.99  15.1   49 313  74  99
   2024 07 20 20:30  00 19 39.01    -00 40 12.3    79156 1.0163 113.9 Nm  13? 134.29  15.5   47 310  74  99
   2024 07 20 20:40  00 20 03.49    -00 18 19.8    78008 1.0163 113.7 Cm  13? 138.84  16.0   46 308  74  99
   2024 07 20 20:50  00 20 29.58    +00 04 14.4    76851 1.0163 113.5 Cm  13? 143.66  16.5   44 306  74  99
   ................
   2024 07 21 07:30  20 57 47.55    -42 05 12.7    58401 1.0164 155.4 Cm  13? 251.52  81.3    5 136  20  99
   2024 07 21 07:40  21 01 24.21    -41 58 57.4    59943 1.0164 155.1 Cm  13? 236.62  80.7    6 136  20  99
   2024 07 21 07:50  21 04 47.51    -41 52 37.9    61451 1.0164 154.9 Nm  13? 222.96  80.0    7 135  21  99
   2024 07 21 08:00  21 07 58.55    -41 46 16.6    62927 1.0164 154.6 Nm  13? 210.40  79.4    8 134  21  99
   2024 07 21 08:10  21 10 58.30    -41 39 55.0    64371 1.0164 154.3 Nm  14? 198.79  78.8    9 133  21  99
   2024 07 21 08:20  21 13 47.62    -41 33 34.6    65786 1.0164 154.1 Am  14? 188.04  78.2   10 132  21  99
   2024 07 21 08:30  21 16 27.29    -41 27 16.1    67173 1.0164 153.8 Am  14? 178.05  77.6   11 131  22  99
   2024 07 21 08:40  21 18 57.98    -41 21 00.4    68532 1.0164 153.6 Am  14? 168.75  77.1   12 131  22  99
   2024 07 21 08:50  21 21 20.30    -41 14 47.8    69866 1.0165 153.4  m  14? 160.06  76.5   13 130  22  99
   2024 07 21 09:00  21 23 34.81    -41 08 38.6    71173 1.0165 153.1  m  14? 151.92  75.9   14 129  22  99
   2024 07 21 09:10  21 25 42.01    -41 02 32.8    72457 1.0165 152.9  m  14? 144.29  75.3   16 128  22  99
   2024 07 21 09:20  21 27 42.34    -40 56 30.7    73718 1.0165 152.7  m  14? 137.12  74.6   17 127  23  99
   2024 07 21 09:30  21 29 36.21    -40 50 31.9    74956 1.0165 152.5  m  14? 130.38  74.0   18 126  23  99
   2024 07 21 09:40  21 31 24.00    -40 44 36.4    76173 1.0165 152.3  m  14? 124.03  73.3   20 126  23  99
   2024 07 21 09:50  21 33 06.05    -40 38 44.0    77370 1.0165 152.2  m  14? 118.04  72.6   21 125  23  99
   2024 07 21 10:00  21 34 42.67    -40 32 54.4    78546 1.0165 152.0  m  14? 112.39  71.8   22 124  23  99
   2024 07 21 10:10  21 36 14.17    -40 27 07.3    79704 1.0165 151.8  m  14? 107.06  71.0   24 123  23  99
   2024 07 21 10:20  21 37 40.80    -40 21 22.4    80844 1.0165 151.7  m  14? 102.02  70.2   25 123  23  99
   2024 07 21 10:30  21 39 02.82    -40 15 39.2    81967 1.0165 151.5  m  14?  97.27  69.3   27 122  24  99
   2024 07 21 10:40  21 40 20.47    -40 09 57.6    83073 1.0165 151.4  m  14?  92.79  68.3   28 121  24  99
   2024 07 21 10:50  21 41 33.96    -40 04 17.0    84163 1.0165 151.3  m  14?  88.56  67.3   30 120  24  99
   2024 07 21 11:00  21 42 43.50    -39 58 37.2    85238 1.0165 151.1  m  14?  84.57  66.2   32 120  24  99
   2024 07 21 11:10  21 43 49.29    -39 52 57.7    86298 1.0166 151.0  m  14?  80.82  65.1   33 119  24  99
   2024 07 21 11:20  21 44 51.51    -39 47 18.1    87345 1.0166 150.9  m  14?  77.30  63.8   35 118  24  99
   2024 07 21 11:30  21 45 50.33    -39 41 38.1    88379 1.0166 150.8  m  14?  74.01  62.5   37 118  24  99
   2024 07 21 11:40  21 46 45.93    -39 35 57.3    89400 1.0166 150.7  m  14?  70.92  61.1   38 117  24  99
   2024 07 21 11:50  21 47 38.45    -39 30 15.3    90410 1.0166 150.7  m  14?  68.05  59.7   40 117  24  99
   2024 07 21 12:00  21 48 28.06    -39 24 31.8    91408 1.0166 150.6  m  14?  65.38  58.1   42 116  24  99
   2024 07 21 12:10  21 49 14.89    -39 18 46.4    92396 1.0166 150.5  m  14?  62.92  56.5   44 116  24  99
   2024 07 21 12:20  21 49 59.10    -39 12 58.9    93374 1.0166 150.4  m  14?  60.65  54.8   45 115  24  99
   2024 07 21 12:30  21 50 40.81    -39 07 08.8    94342 1.0166 150.4  m  14?  58.58  53.1   47 115  24  99
   2024 07 21 12:40  21 51 20.16    -39 01 15.9    95302 1.0166 150.3  m  14?  56.69  51.2   49 114  24  99
   2024 07 21 12:50  21 51 57.27    -38 55 20.0    96253 1.0166 150.3  m  14?  54.99  49.4   51 114  24  99
   2024 07 21 13:00  21 52 32.26    -38 49 20.7    97196 1.0166 150.2  m  14?  53.47  47.5   53 114  24  99
   2024 07 21 13:10  21 53 05.26    -38 43 17.8    98132 1.0166 150.2  m  14?  52.12  45.5   54 113  24  99
   2024 07 21 13:20  21 53 36.39    -38 37 11.1    99061 1.0166 150.2  m  14?  50.94  43.6   56 113  24  99
   2024 07 21 13:30  21 54 05.75    -38 31 00.3    99984 1.0166 150.1  m  14?  49.91  41.6   58 113  24  99
   2024 07 21 13:40  21 54 33.45    -38 24 45.4   100901 1.0166 150.1  m  14?  49.04  39.7   60 113  24  99
   2024 07 21 13:50  21 54 59.60    -38 18 26.0   101813 1.0166 150.1  m  14?  48.32  37.8   62 113  24  99
   2024 07 21 14:00  21 55 24.32    -38 12 02.1   102719 1.0166 150.1  m  14?  47.73  36.0   64 113  24  99
   2024 07 21 14:10  21 55 47.69    -38 05 33.6   103621 1.0166 150.1  m  14?  47.26  34.2   66 113  24  99
   2024 07 21 14:20  21 56 09.82    -37 59 00.3   104519 1.0167 150.1  m  14?  46.91  32.5   68 114  24  99
   2024 07 21 14:30  21 56 30.80    -37 52 22.1   105412 1.0167 150.1  m  14?  46.66  30.8   69 115  24  99
   2024 07 21 14:40  21 56 50.74    -37 45 39.1   106303 1.0167 150.0  m  15?  46.51  29.3   71 116  24  99
   2024 07 21 14:50  21 57 09.72    -37 38 51.1   107190 1.0167 150.0  m  15?  46.44  27.9   73 117  24  99
   2024 07 21 15:00  21 57 27.84    -37 31 58.1   108074 1.0167 150.1  m  15?  46.45  26.6   75 119  24  99
   2024 07 21 15:10  21 57 45.18    -37 25 00.2   108956 1.0167 150.1  m  15?  46.53  25.4   77 122  24  99
   2024 07 21 15:20  21 58 01.82    -37 17 57.3   109836 1.0167 150.1  m  15?  46.66  24.3   79 126  24  99
   2024 07 21 15:30  21 58 17.86    -37 10 49.4   110713 1.0167 150.1  m  15?  46.85  23.3   80 131  24  99
   2024 07 21 15:40  21 58 33.37    -37 03 36.8   111589 1.0167 150.1  m  15?  47.08  22.5   82 140  24  99
   2024 07 21 15:50  21 58 48.42    -36 56 19.3   112464 1.0167 150.1  m  15?  47.34  21.7   83 152  24  99
   2024 07 21 16:00  21 59 03.11    -36 48 57.2   113337 1.0167 150.1  m  15?  47.63  21.1   84 170  24  99
   2024 07 21 16:10  21 59 17.49    -36 41 30.5   114209 1.0167 150.1  t  15?  47.95  20.6   84 191  24  99
   2024 07 21 16:20  21 59 31.64    -36 33 59.4   115080 1.0167 150.1  m  15?  48.29  20.2   83 209  24  99
   2024 07 21 16:30  21 59 45.63    -36 26 24.0   115950 1.0167 150.2  m  15?  48.64  19.9   82 223  24  99
   2024 07 21 16:40  21 59 59.53    -36 18 44.4   116820 1.0167 150.2  m  15?  49.00  19.7   81 233  24  99
   2024 07 21 16:50  22 00 13.40    -36 11 00.9   117689 1.0167 150.2  m  15?  49.38  19.5   79 239  24  99
   2024 07 21 17:00  22 00 27.29    -36 03 13.7   118558 1.0167 150.2  m  15?  49.76  19.5   77 243  24  99
   2024 07 21 17:10  22 00 41.28    -35 55 22.8   119427 1.0167 150.2  m  15?  50.14  19.6   75 246  24  99
   2024 07 21 17:20  22 00 55.40    -35 47 28.6   120295 1.0167 150.2  m  15?  50.53  19.7   74 249  24  99
   2024 07 21 17:30  22 01 09.73    -35 39 31.3   121163 1.0167 150.2  m  15?  50.91  19.9   72 250  24  99
   2024 07 21 17:40  22 01 24.30    -35 31 31.1   122031 1.0167 150.3  m  15?  51.30  20.2   70 251  24  99
   2024 07 21 17:50  22 01 39.17    -35 23 28.2   122898 1.0167 150.3  m  15?  51.68  20.5   68 252  24  99
   2024 07 21 18:00  22 01 54.37    -35 15 23.0   123765 1.0167 150.3  m  15?  52.06  20.9   66 253  24  99
   2024 07 21 18:10  22 02 09.96    -35 07 15.6   124633 1.0167 150.3  m  15?  52.44  21.4   64 253  24  99
   2024 07 21 18:20  22 02 25.98    -34 59 06.3   125499 1.0167 150.3  m  15?  52.82  21.9   62 253  24  99
   2024 07 21 18:30  22 02 42.45    -34 50 55.4   126366 1.0167 150.3  m  15?  53.19  22.5   60 253  24  99
   2024 07 21 18:40  22 02 59.42    -34 42 43.1   127231 1.0167 150.3  m  15?  53.56  23.1   58 253  23  99
   2024 07 21 18:50  22 03 16.92    -34 34 29.8   128097 1.0168 150.3  m  15?  53.93  23.7   56 253  23  99
   2024 07 21 19:00  22 03 34.98    -34 26 15.7   128961 1.0168 150.3  m  15?  54.29  24.4   54 253  23  99
   2024 07 21 19:10  22 03 53.62    -34 18 01.1   129825 1.0168 150.3  m  15?  54.65  25.2   52 253  23  99
   2024 07 21 19:20  22 04 12.88    -34 09 46.3   130688 1.0168 150.3  m  15?  55.01  25.9   50 252  23  99
   2024 07 21 19:30  22 04 32.76    -34 01 31.5   131550 1.0168 150.2  m  15?  55.37  26.7   48 252  23  99
   2024 07 21 19:40  22 04 53.30    -33 53 17.1   132411 1.0168 150.2 Am  15?  55.72  27.5   46 252  23  99
   2024 07 21 19:50  22 05 14.51    -33 45 03.3   133270 1.0168 150.2 Am  15?  56.07  28.4   44 251  23  99
   2024 07 21 20:00  22 05 36.41    -33 36 50.4   134128 1.0168 150.2 Am  15?  56.42  29.2   42 251  23  99
   2024 07 21 20:10  22 05 59.01    -33 28 38.6   134984 1.0168 150.2 Nm  15?  56.77  30.1   40 250  23  99
   2024 07 21 20:20  22 06 22.31    -33 20 28.3   135837 1.0168 150.1 Nm  15?  57.11  31.0   38 250  23  99
   2024 07 21 20:30  22 06 46.34    -33 12 19.7   136689 1.0168 150.1 Nm  15?  57.46  31.9   36 249  23  99
   2024 07 21 20:40  22 07 11.09    -33 04 13.1   137538 1.0168 150.1 Cm  15?  57.80  32.8   34 249  23  99
   2024 07 21 20:50  22 07 36.58    -32 56 08.7   138384 1.0168 150.0 Cm  15?  58.14  33.8   32 248  23  99
   ................
   2024 07 22 09:50  22 55 23.20    -26 54 30.1   177367 1.0169 141.1  m  15?  32.09  72.7    0 121  24  98
   2024 07 22 10:00  22 55 45.71    -26 52 55.1   177446 1.0169 141.0  m  15?  30.91  72.3    2 120  24  98
   2024 07 22 10:10  22 56 07.33    -26 51 21.2   177518 1.0169 140.9  m  15?  29.74  71.7    4 118  24  98
   2024 07 22 10:20  22 56 28.04    -26 49 48.2   177584 1.0169 140.9  m  15?  28.57  71.1    5 117  24  98
   2024 07 22 10:30  22 56 47.84    -26 48 15.8   177644 1.0169 140.8  m  15?  27.41  70.4    7 116  24  98
   2024 07 22 10:40  22 57 06.72    -26 46 44.0   177699 1.0169 140.7  m  15?  26.25  69.6    9 115  24  98
   2024 07 22 10:50  22 57 24.70    -26 45 12.5   177749 1.0169 140.7  m  15?  25.11  68.7   11 114  24  98
   2024 07 22 11:00  22 57 41.76    -26 43 41.0   177794 1.0169 140.6  m  15?  23.98  67.6   13 113  24  98
   2024 07 22 11:10  22 57 57.91    -26 42 09.3   177835 1.0169 140.6  m  15?  22.87  66.4   15 112  24  98
   2024 07 22 11:20  22 58 13.15    -26 40 37.2   177872 1.0169 140.5  m  15?  21.79  65.0   17 111  24  98
   2024 07 22 11:30  22 58 27.49    -26 39 04.5   177906 1.0169 140.5  m  15?  20.74  63.4   19 109  24  98
   2024 07 22 11:40  22 58 40.93    -26 37 31.0   177936 1.0169 140.4  m  15?  19.72  61.7   21 108  24  98
   2024 07 22 11:50  22 58 53.48    -26 35 56.4   177964 1.0169 140.4  m  15?  18.74  59.6   23 107  24  98
   2024 07 22 12:00  22 59 05.14    -26 34 20.6   177990 1.0169 140.3  m  15?  17.81  57.3   25 106  24  98
   2024 07 22 12:10  22 59 15.93    -26 32 43.3   178014 1.0169 140.3  m  15?  16.93  54.8   27 105  24  98
   2024 07 22 12:20  22 59 25.85    -26 31 04.4   178036 1.0169 140.3  m  15?  16.12  51.9   29 104  24  98
   2024 07 22 12:30  22 59 34.93    -26 29 23.5   178057 1.0169 140.3  m  15?  15.38  48.7   31 103  24  98
   2024 07 22 12:40  22 59 43.18    -26 27 40.5   178077 1.0169 140.2  m  15?  14.72  45.2   33 102  24  98
   2024 07 22 12:50  22 59 50.60    -26 25 55.2   178097 1.0169 140.2  m  15?  14.15  41.5   35 101  24  98
   2024 07 22 13:00  22 59 57.23    -26 24 07.5   178117 1.0169 140.2  m  15?  13.68  37.4   37 100  24  98
   2024 07 22 13:10  23 00 03.07    -26 22 17.0   178138 1.0169 140.2  m  15?  13.31  33.2   39  99  24  98
   2024 07 22 13:20  23 00 08.16    -26 20 23.6   178159 1.0169 140.2  m  15?  13.04  28.7   41  98  24  98
   2024 07 22 13:30  23 00 12.50    -26 18 27.2   178181 1.0169 140.1  m  15?  12.89  24.3   43  97  24  98
   2024 07 22 13:40  23 00 16.13    -26 16 27.5   178204 1.0169 140.1  m  15?  12.84  19.8   45  96  24  98
   2024 07 22 13:50  23 00 19.07    -26 14 24.5   178229 1.0169 140.1  m  15?  12.90  15.5   47  95  24  97
   2024 07 22 14:00  23 00 21.34    -26 12 17.8   178256 1.0169 140.1  m  15?  13.05  11.3   49  94  24  97
   2024 07 22 14:10  23 00 22.98    -26 10 07.4   178286 1.0169 140.1  m  15?  13.29   7.5   52  93  24  97
   2024 07 22 14:20  23 00 24.00    -26 07 53.2   178318 1.0169 140.1  m  15?  13.60   3.9   54  91  24  97
   2024 07 22 14:30  23 00 24.45    -26 05 34.9   178353 1.0169 140.1  m  15?  13.98   0.7   56  90  24  97
   2024 07 22 14:40  23 00 24.35    -26 03 12.4   178392 1.0169 140.1  m  15?  14.41 357.8   58  89  24  97
   2024 07 22 14:50  23 00 23.73    -26 00 45.7   178434 1.0169 140.2  m  15?  14.89 355.2   60  87  24  97
   2024 07 22 15:00  23 00 22.63    -25 58 14.6   178479 1.0169 140.2  m  15?  15.39 353.0   62  86  24  97
   2024 07 22 15:10  23 00 21.08    -25 55 39.0   178529 1.0169 140.2  m  15?  15.92 351.2   64  84  24  97
   2024 07 22 15:20  23 00 19.12    -25 52 58.8   178583 1.0169 140.2  m  15?  16.47 349.6   66  82  23  97
   2024 07 22 15:30  23 00 16.77    -25 50 14.0   178641 1.0169 140.2  m  15?  17.02 348.2   69  80  23  97
   2024 07 22 15:40  23 00 14.09    -25 47 24.4   178704 1.0169 140.2  m  15?  17.58 347.1   71  77  23  97
   2024 07 22 15:50  23 00 11.09    -25 44 29.9   178771 1.0169 140.2  m  15?  18.14 346.3   73  74  23  97
   2024 07 22 16:00  23 00 07.84    -25 41 30.7   178843 1.0169 140.2  m  15?  18.70 345.6   75  70  23  97
   2024 07 22 16:10  23 00 04.35    -25 38 26.5   178921 1.0169 140.3  m  15?  19.24 345.2   77  66  23  97
   2024 07 22 16:20  23 00 00.67    -25 35 17.4   179003 1.0169 140.3  m  15?  19.78 344.9   79  60  23  97
   2024 07 22 16:30  22 59 56.83    -25 32 03.4   179091 1.0169 140.3  m  15?  20.31 344.7   80  51  23  97
   2024 07 22 16:40  22 59 52.89    -25 28 44.4   179185 1.0169 140.3  m  15?  20.82 344.8   82  39  23  97
   2024 07 22 16:50  22 59 48.87    -25 25 20.5   179283 1.0169 140.3  m  15?  21.31 344.9   83  23  23  97
   2024 07 22 17:00  22 59 44.81    -25 21 51.6   179387 1.0169 140.4  m  15?  21.80 345.2   83   2  23  97
   2024 07 22 17:10  22 59 40.76    -25 18 17.8   179497 1.0169 140.4  t  15?  22.26 345.6   83 341  23  97
   2024 07 22 17:20  22 59 36.75    -25 14 39.2   179612 1.0169 140.4  m  15?  22.71 346.1   82 324  23  97
   2024 07 22 17:30  22 59 32.82    -25 10 55.7   179732 1.0169 140.4  m  15?  23.15 346.7   81 312  23  97
   2024 07 22 17:40  22 59 29.01    -25 07 07.5   179858 1.0169 140.4  m  15?  23.57 347.4   79 303  23  97
   2024 07 22 17:50  22 59 25.36    -25 03 14.5   179990 1.0169 140.5  m  15?  23.97 348.2   77 297  22  97
   2024 07 22 18:00  22 59 21.90    -24 59 17.0   180127 1.0169 140.5  m  15?  24.36 349.1   75 292  22  97
   2024 07 22 18:10  22 59 18.68    -24 55 15.0   180269 1.0169 140.5  m  15?  24.74 350.0   73 288  22  97
   2024 07 22 18:20  22 59 15.72    -24 51 08.5   180416 1.0169 140.5  m  15?  25.11 351.1   71 285  22  97
   2024 07 22 18:30  22 59 13.07    -24 46 57.7   180568 1.0169 140.5  m  15?  25.47 352.2   69 282  22  97
   2024 07 22 18:40  22 59 10.75    -24 42 42.7   180726 1.0169 140.5  m  15?  25.82 353.4   67 280  22  97
   2024 07 22 18:50  22 59 08.81    -24 38 23.6   180888 1.0169 140.5  m  15?  26.17 354.6   64 278  22  97
   2024 07 22 19:00  22 59 07.26    -24 34 00.6   181054 1.0169 140.5  m  15?  26.51 355.9   62 277  22  97
   2024 07 22 19:10  22 59 06.16    -24 29 33.8   181225 1.0169 140.6  m  15?  26.84 357.3   60 275  22  97
   2024 07 22 19:20  22 59 05.51    -24 25 03.3   181401 1.0169 140.6  m  15?  27.18 358.7   58 273  22  97
   2024 07 22 19:30  22 59 05.37    -24 20 29.3   181580 1.0169 140.6  m  15?  27.52   0.2   56 272  22  97
   2024 07 22 19:40  22 59 05.74    -24 15 51.9   181763 1.0169 140.6 Am  15?  27.86   1.7   54 271  22  97
   2024 07 22 19:50  22 59 06.67    -24 11 11.4   181950 1.0169 140.6 Am  15?  28.20   3.3   51 270  22  97
   2024 07 22 20:00  22 59 08.17    -24 06 27.9   182140 1.0169 140.6 Am  15?  28.55   4.8   49 268  22  97
   2024 07 22 20:10  22 59 10.27    -24 01 41.5   182332 1.0169 140.6 Nm  15?  28.91   6.5   47 267  21  97
   2024 07 22 20:20  22 59 12.99    -23 56 52.5   182528 1.0169 140.5 Nm  15?  29.27   8.1   45 266  21  97
   2024 07 22 20:30  22 59 16.35    -23 52 01.0   182726 1.0169 140.5 Nm  15?  29.65   9.7   43 265  21  97
   2024 07 22 20:40  22 59 20.37    -23 47 07.1   182926 1.0168 140.5 Cm  15?  30.04  11.4   41 264  21  97
   2024 07 22 20:50  22 59 25.08    -23 42 11.2   183128 1.0168 140.5 Cm  15?  30.44  13.1   38 263  21  97
   ................
   2024 07 23 10:50  23 34 15.07    -18 06 14.5   175317 1.0167 132.2  m  15?  33.05  60.3    0 110  20  93
   2024 07 23 11:00  23 34 34.82    -18 03 30.1   174794 1.0167 132.2  m  15?  32.18  59.3    2 109  20  93
   2024 07 23 11:10  23 34 53.83    -18 00 45.0   174265 1.0167 132.1  m  15?  31.32  58.2    4 108  20  93
   2024 07 23 11:20  23 35 12.08    -17 57 59.1   173732 1.0167 132.0  m  15?  30.47  57.0    6 107  20  93
   2024 07 23 11:30  23 35 29.58    -17 55 12.1   173193 1.0167 131.9  m  15?  29.63  55.7    8 105  20  93
   2024 07 23 11:40  23 35 46.32    -17 52 24.0   172649 1.0167 131.9  m  15?  28.81  54.3   10 104  20  93
   2024 07 23 11:50  23 36 02.28    -17 49 34.5   172102 1.0167 131.8  m  15?  28.02  52.7   12 103  20  93
   2024 07 23 12:00  23 36 17.47    -17 46 43.5   171550 1.0167 131.7  m  15?  27.25  51.0   14 102  20  93
   2024 07 23 12:10  23 36 31.89    -17 43 50.8   170996 1.0166 131.7  m  15?  26.52  49.2   16 100  20  93
   2024 07 23 12:20  23 36 45.52    -17 40 56.2   170438 1.0166 131.6  m  15?  25.82  47.3   18  99  20  93
   2024 07 23 12:30  23 36 58.38    -17 37 59.5   169878 1.0166 131.6  m  15?  25.17  45.2   20  98  20  93
   2024 07 23 12:40  23 37 10.46    -17 35 00.6   169315 1.0166 131.5  m  15?  24.57  43.0   22  97  20  93
   2024 07 23 12:50  23 37 21.77    -17 31 59.4   168751 1.0166 131.5  m  15?  24.02  40.7   24  96  20  93
   2024 07 23 13:00  23 37 32.31    -17 28 55.5   168185 1.0166 131.4  m  15?  23.53  38.3   26  94  20  93
   2024 07 23 13:10  23 37 42.09    -17 25 48.9   167618 1.0166 131.4  m  15?  23.11  35.7   28  93  20  93
   2024 07 23 13:20  23 37 51.11    -17 22 39.3   167050 1.0166 131.4  m  15?  22.75  33.1   30  92  20  93
   2024 07 23 13:30  23 37 59.38    -17 19 26.7   166482 1.0166 131.3  m  15?  22.46  30.4   32  91  20  93
   2024 07 23 13:40  23 38 06.92    -17 16 10.8   165914 1.0166 131.3  m  15?  22.25  27.7   34  89  20  93
   2024 07 23 13:50  23 38 13.73    -17 12 51.5   165346 1.0166 131.3  m  15?  22.11  24.9   37  88  20  93
   2024 07 23 14:00  23 38 19.84    -17 09 28.5   164779 1.0166 131.2  m  15?  22.05  22.1   39  86  20  93
   2024 07 23 14:10  23 38 25.25    -17 06 01.8   164213 1.0166 131.2  m  15?  22.06  19.4   41  85  20  93
   2024 07 23 14:20  23 38 29.99    -17 02 31.2   163648 1.0166 131.2  m  15?  22.15  16.7   43  83  20  93
   2024 07 23 14:30  23 38 34.07    -16 58 56.6   163085 1.0166 131.2  m  15?  22.30  14.1   45  82  20  93
   2024 07 23 14:40  23 38 37.51    -16 55 17.7   162524 1.0166 131.1  m  15?  22.52  11.7   47  80  20  93
   2024 07 23 14:50  23 38 40.34    -16 51 34.4   161965 1.0166 131.1  m  15?  22.80   9.3   49  78  20  93
   2024 07 23 15:00  23 38 42.57    -16 47 46.7   161409 1.0166 131.1  m  15?  23.13   7.1   51  76  20  93
   2024 07 23 15:10  23 38 44.24    -16 43 54.3   160855 1.0166 131.1  m  15?  23.51   5.0   53  74  20  93
   2024 07 23 15:20  23 38 45.37    -16 39 57.1   160305 1.0166 131.1  m  15?  23.94   3.1   55  72  19  93
   2024 07 23 15:30  23 38 45.98    -16 35 55.1   159758 1.0166 131.1  m  15?  24.41   1.4   57  70  19  93
   2024 07 23 15:40  23 38 46.11    -16 31 48.0   159214 1.0166 131.1  m  15?  24.91 359.8   59  67  19  93
   2024 07 23 15:50  23 38 45.79    -16 27 35.8   158674 1.0166 131.0  m  15?  25.44 358.3   61  64  19  93
   2024 07 23 16:00  23 38 45.05    -16 23 18.4   158138 1.0166 131.0  m  15?  25.98 357.1   63  61  19  93
   2024 07 23 16:10  23 38 43.93    -16 18 55.7   157606 1.0166 131.0  m  15?  26.55 356.0   65  57  19  93
   2024 07 23 16:20  23 38 42.45    -16 14 27.5   157078 1.0166 131.0  m  15?  27.13 355.1   66  53  19  93
   2024 07 23 16:30  23 38 40.65    -16 09 53.9   156554 1.0166 131.0  m  15?  27.72 354.3   68  48  19  92
   2024 07 23 16:40  23 38 38.57    -16 05 14.7   156035 1.0166 131.0  m  15?  28.32 353.6   70  43  19  92
   2024 07 23 16:50  23 38 36.26    -16 00 29.8   155521 1.0165 131.0  m  15?  28.92 353.1   71  36  19  92
   2024 07 23 17:00  23 38 33.74    -15 55 39.3   155011 1.0165 131.0  m  15?  29.52 352.7   72  29  19  92
   2024 07 23 17:10  23 38 31.05    -15 50 43.0   154506 1.0165 131.0  m  15?  30.12 352.5   73  22  19  92
   2024 07 23 17:20  23 38 28.24    -15 45 40.9   154006 1.0165 131.0  m  15?  30.71 352.4   73  13  19  92
   2024 07 23 17:30  23 38 25.35    -15 40 33.0   153510 1.0165 131.0  m  15?  31.30 352.3   74   5  19  92
   2024 07 23 17:40  23 38 22.42    -15 35 19.3   153019 1.0165 131.0  t  15?  31.89 352.4   74 356  19  92
   2024 07 23 17:50  23 38 19.49    -15 29 59.7   152534 1.0165 131.0  m  15?  32.47 352.6   73 347  19  92
   2024 07 23 18:00  23 38 16.61    -15 24 34.2   152052 1.0165 131.0  m  15?  33.04 352.9   73 339  19  92
   2024 07 23 18:10  23 38 13.81    -15 19 02.9   151576 1.0165 131.0  m  15?  33.60 353.3   72 331  18  92
   2024 07 23 18:20  23 38 11.14    -15 13 25.6   151104 1.0165 131.0  m  15?  34.16 353.8   70 325  18  92
   2024 07 23 18:30  23 38 08.65    -15 07 42.6   150636 1.0165 131.0  m  15?  34.71 354.3   69 319  18  92
   2024 07 23 18:40  23 38 06.37    -15 01 53.6   150173 1.0165 131.0  m  15?  35.26 355.0   67 314  18  92
   2024 07 23 18:50  23 38 04.35    -14 55 58.9   149714 1.0165 131.0  m  15?  35.81 355.7   66 309  18  92
   2024 07 23 19:00  23 38 02.63    -14 49 58.5   149260 1.0165 131.0  m  15?  36.35 356.5   64 305  18  92
   2024 07 23 19:10  23 38 01.26    -14 43 52.2   148809 1.0165 131.0  m  15?  36.89 357.4   62 302  18  92
   2024 07 23 19:20  23 38 00.28    -14 37 40.4   148362 1.0165 130.9  m  15?  37.43 358.3   60 298  18  92
   2024 07 23 19:30  23 37 59.73    -14 31 22.9   147918 1.0165 130.9  m  15?  37.98 359.3   58 296  18  92
   2024 07 23 19:40  23 37 59.65    -14 24 59.8   147478 1.0165 130.9 Am  15?  38.53   0.5   56 293  18  92
   2024 07 23 19:50  23 38 00.08    -14 18 31.3   147041 1.0165 130.9 Am  15?  39.09   1.6   54 291  18  92
   2024 07 23 20:00  23 38 01.06    -14 11 57.3   146606 1.0165 130.9 Am  15?  39.66   2.8   52 289  18  92
   2024 07 23 20:10  23 38 02.64    -14 05 18.0   146174 1.0165 130.8 Nm  15?  40.25   4.0   50 287  18  92
   2024 07 23 20:20  23 38 04.85    -13 58 33.4   145744 1.0165 130.8 Nm  15?  40.85   5.3   48 285  18  92
   2024 07 23 20:30  23 38 07.73    -13 51 43.6   145316 1.0165 130.8 Nm  15?  41.46   6.6   46 283  17  92
   2024 07 23 20:40  23 38 11.31    -13 44 48.7   144890 1.0165 130.7 Cm  15?  42.10   8.0   44 281  17  92
   2024 07 23 20:50  23 38 15.63    -13 37 48.8   144464 1.0165 130.7 Cm  15?  42.76   9.3   41 280  17  92
   ................
   2024 07 24 17:00  15 23 07.12    -36 11 59.9    19919 1.0158 114.5  r  10? 3153.5 122.3    0 226 107  85
   2024 07 24 17:10  15 57 49.17    -40 05 15.3    21926 1.0159 121.6  m  10? 2536.8 116.6    6 226  99  85
   2024 07 24 17:20  16 28 47.67    -42 41 21.2    24011 1.0159 127.2  m  11? 2074.9 111.2   11 226  93  85
   2024 07 24 17:30  16 56 11.91    -44 23 24.2    26132 1.0159 131.8  m  11? 1726.5 106.1   14 226  88  85
   2024 07 24 17:40  17 20 19.22    -45 27 53.8    28261 1.0159 135.5  m  11? 1460.2 101.6   17 226  84  85
   2024 07 24 17:50  17 41 31.15    -46 06 19.6    30381 1.0159 138.7  m  11? 1253.4  97.6   19 227  80  85
   2024 07 24 18:00  18 00 10.24    -46 26 37.6    32484 1.0159 141.3  m  12? 1090.2  94.0   21 227  77  85
   2024 07 24 18:10  18 16 37.86    -46 34 16.4    34563 1.0160 143.6  m  12? 959.34  90.8   22 227  74  85
   2024 07 24 18:20  18 31 13.19    -46 33 03.6    36615 1.0160 145.5  m  12? 853.01  87.9   22 228  72  85
   2024 07 24 18:30  18 44 12.88    -46 25 38.1    38639 1.0160 147.2  m  12? 765.45  85.3   23 228  70  85
   2024 07 24 18:40  18 55 51.09    -46 13 51.4    40633 1.0160 148.6  m  12? 692.48  83.1   23 228  68  85
   2024 07 24 18:50  19 06 19.72    -45 59 02.9    42598 1.0160 149.9  e  13? 631.04  81.0   23 229  66  85
   2024 07 24 19:00  19 15 48.77    -45 42 09.2    44534 1.0160 151.1  m  13? 578.79  79.2   23 229  64  85
   2024 07 24 19:10  19 24 26.56    -45 23 51.1    46442 1.0160 152.1  m  13? 533.96  77.6   22 229  63  85
   2024 07 24 19:20  19 32 20.08    -45 04 38.4    48322 1.0160 152.9  m  13? 495.21  76.1   22 229  62  85
   2024 07 24 19:30  19 39 35.17    -44 44 52.6    50175 1.0161 153.7  m  13? 461.45  74.8   21 230  60  85
   2024 07 24 19:40  19 46 16.76    -44 24 49.6    52002 1.0161 154.4 Am  13? 431.85  73.5   21 230  59  84
   2024 07 24 19:50  19 52 29.01    -44 04 41.0    53804 1.0161 155.0 Am  13? 405.73  72.5   20 230  58  84
   2024 07 24 20:00  19 58 15.45    -43 44 35.5    55581 1.0161 155.6 Am  13? 382.56  71.5   19 230  57  84
   2024 07 24 20:10  20 03 39.07    -43 24 39.3    57335 1.0161 156.1 Nm  13? 361.90  70.6   18 230  56  84
   2024 07 24 20:20  20 08 42.46    -43 04 57.1    59065 1.0161 156.5 Nm  13? 343.38  69.8   17 229  55  84
   2024 07 24 20:30  20 13 27.83    -42 45 32.2    60773 1.0161 156.9 Nm  13? 326.71  69.1   16 229  55  84
   2024 07 24 20:40  20 17 57.07    -42 26 27.1    62459 1.0161 157.2 Cm  14? 311.64  68.4   15 229  54  84
   2024 07 24 20:50  20 22 11.86    -42 07 43.4    64124 1.0161 157.5 Cm  14? 297.96  67.9   14 229  53  84
   ................
   2024 07 25 08:50  22 26 35.98    -32 18 53.7   139153 1.0165 148.8     15?  51.14  74.8    0 128  36  79
   2024 07 25 09:00  22 27 14.22    -32 16 42.0   139664 1.0165 148.7     15?  49.35  74.6    1 127  36  79
   2024 07 25 09:10  22 27 51.05    -32 14 33.0   140166 1.0165 148.6     15?  47.56  74.3    3 125  36  79
   2024 07 25 09:20  22 28 26.45    -32 12 26.4   140658 1.0165 148.5     15?  45.80  74.0    5 124  36  79
   2024 07 25 09:30  22 29 00.46    -32 10 21.9   141142 1.0165 148.4     15?  44.05  73.6    6 123  36  78
   2024 07 25 09:40  22 29 33.06    -32 08 19.1   141618 1.0165 148.3     15?  42.32  73.1    8 122  36  78
   2024 07 25 09:50  22 30 04.28    -32 06 17.8   142085 1.0165 148.2     15?  40.62  72.6   10 121  36  78
   2024 07 25 10:00  22 30 34.12    -32 04 17.7   142545 1.0165 148.1     15?  38.94  72.0   11 120  36  78
   2024 07 25 10:10  22 31 02.59    -32 02 18.3   142997 1.0165 148.0     15?  37.29  71.3   13 119  36  78
   2024 07 25 10:20  22 31 29.71    -32 00 19.6   143443 1.0165 147.9     15?  35.67  70.5   15 118  36  78
   2024 07 25 10:30  22 31 55.50    -31 58 21.1   143882 1.0165 147.9     15?  34.09  69.5   17 117  36  78
   2024 07 25 10:40  22 32 19.96    -31 56 22.5   144315 1.0165 147.8     15?  32.55  68.5   19 116  36  78
   2024 07 25 10:50  22 32 43.12    -31 54 23.5   144742 1.0165 147.7     15?  31.05  67.3   20 115  36  78
   2024 07 25 11:00  22 33 05.00    -31 52 24.0   145164 1.0165 147.7     15?  29.60  65.9   22 114  36  78
   2024 07 25 11:10  22 33 25.61    -31 50 23.4   145581 1.0165 147.6     15?  28.20  64.4   24 113  36  78
   2024 07 25 11:20  22 33 44.98    -31 48 21.7   145994 1.0165 147.5     15?  26.86  62.7   26 112  36  78
   2024 07 25 11:30  22 34 03.13    -31 46 18.4   146402 1.0165 147.5     15?  25.59  60.8   28 111  36  78
   2024 07 25 11:40  22 34 20.08    -31 44 13.3   146807 1.0165 147.4  m  15?  24.39  58.7   30 110  36  78
   2024 07 25 11:50  22 34 35.86    -31 42 06.2   147209 1.0165 147.4  m  15?  23.27  56.4   32 109  36  77
   2024 07 25 12:00  22 34 50.50    -31 39 56.7   147607 1.0165 147.4  m  15?  22.23  53.8   34 109  36  77
   2024 07 25 12:10  22 35 04.03    -31 37 44.7   148003 1.0165 147.3  m  15?  21.29  51.0   36 108  36  77
   2024 07 25 12:20  22 35 16.47    -31 35 29.8   148397 1.0165 147.3  m  15?  20.45  48.0   38 107  36  77
   2024 07 25 12:30  22 35 27.86    -31 33 11.8   148789 1.0165 147.3  m  15?  19.71  44.7   40 106  36  77
   2024 07 25 12:40  22 35 38.24    -31 30 50.5   149180 1.0166 147.3  m  15?  19.09  41.3   42 105  36  77
   2024 07 25 12:50  22 35 47.63    -31 28 25.6   149570 1.0166 147.2  m  15?  18.59  37.7   44 104  36  77
   2024 07 25 13:00  22 35 56.07    -31 25 56.9   149959 1.0166 147.2  m  15?  18.21  34.0   46 104  36  77
   2024 07 25 13:10  22 36 03.59    -31 23 24.3   150347 1.0166 147.2  m  15?  17.95  30.3   48 103  36  77
   2024 07 25 13:20  22 36 10.25    -31 20 47.5   150736 1.0166 147.2  m  15?  17.81  26.5   50 102  36  77
   2024 07 25 13:30  22 36 16.07    -31 18 06.3   151125 1.0166 147.2  m  15?  17.78  22.9   52 101  36  77
   2024 07 25 13:40  22 36 21.10    -31 15 20.5   151515 1.0166 147.2  m  15?  17.85  19.4   54 100  36  77
   2024 07 25 13:50  22 36 25.38    -31 12 30.1   151905 1.0166 147.2  m  15?  18.02  16.1   56 100  36  77
   2024 07 25 14:00  22 36 28.94    -31 09 34.7   152297 1.0166 147.2  m  15?  18.28  13.0   58  99  36  77
   2024 07 25 14:10  22 36 31.84    -31 06 34.4   152690 1.0166 147.2  m  15?  18.60  10.2   60  98  36  77
   2024 07 25 14:20  22 36 34.12    -31 03 28.9   153086 1.0166 147.2  m  15?  19.00   7.6   62  97  36  77
   2024 07 25 14:30  22 36 35.82    -31 00 18.2   153483 1.0166 147.2  m  15?  19.44   5.3   65  96  36  76
   2024 07 25 14:40  22 36 36.99    -30 57 02.2   153882 1.0166 147.2  m  15?  19.93   3.3   67  95  36  76
   2024 07 25 14:50  22 36 37.67    -30 53 40.7   154284 1.0166 147.3  m  15?  20.45   1.6   69  94  36  76
   2024 07 25 15:00  22 36 37.92    -30 50 13.7   154689 1.0166 147.3  m  15?  20.99   0.1   71  93  36  76
   2024 07 25 15:10  22 36 37.77    -30 46 41.2   155097 1.0166 147.3  m  15?  21.55 358.7   73  92  36  76
   2024 07 25 15:20  22 36 37.28    -30 43 03.0   155508 1.0166 147.3  m  15?  22.13 357.7   75  91  36  76
   2024 07 25 15:30  22 36 36.49    -30 39 19.3   155922 1.0166 147.3  m  15?  22.70 356.9   77  90  36  76
   2024 07 25 15:40  22 36 35.44    -30 35 29.9   156340 1.0166 147.4  m  15?  23.28 356.2   80  88  36  76
   2024 07 25 15:50  22 36 34.20    -30 31 34.9   156761 1.0166 147.4  m  15?  23.86 355.7   82  85  36  76
   2024 07 25 16:00  22 36 32.80    -30 27 34.2   157186 1.0166 147.4  m  15?  24.43 355.4   84  82  36  76
   2024 07 25 16:10  22 36 31.29    -30 23 28.0   157614 1.0166 147.4  m  15?  25.00 355.3   86  74  36  76
   2024 07 25 16:20  22 36 29.72    -30 19 16.2   158047 1.0166 147.4  m  15?  25.55 355.3   88  51  36  76
   2024 07 25 16:30  22 36 28.13    -30 14 58.9   158484 1.0166 147.5  t  15?  26.09 355.4   88 323  36  76
   2024 07 25 16:40  22 36 26.57    -30 10 36.2   158924 1.0166 147.5  m  15?  26.62 355.6   86 291  36  76
   2024 07 25 16:50  22 36 25.09    -30 06 08.1   159369 1.0166 147.5  m  15?  27.14 355.9   84 282  36  76
   2024 07 25 17:00  22 36 23.72    -30 01 34.9   159818 1.0166 147.5  m  15?  27.65 356.4   82 278  37  76
   2024 07 25 17:10  22 36 22.51    -29 56 56.5   160270 1.0166 147.6  m  15?  28.14 356.9   80 275  37  76
   2024 07 25 17:20  22 36 21.51    -29 52 13.1   160727 1.0166 147.6  m  15?  28.62 357.6   78 274  37  76
   2024 07 25 17:30  22 36 20.75    -29 47 24.8   161188 1.0166 147.6  m  15?  29.08 358.3   76 272  37  76
   2024 07 25 17:40  22 36 20.28    -29 42 31.8   161652 1.0166 147.6  m  15?  29.54 359.1   73 271  37  76
   2024 07 25 17:50  22 36 20.13    -29 37 34.3   162121 1.0166 147.7  m  15?  29.98 359.9   71 270  37  76
   2024 07 25 18:00  22 36 20.35    -29 32 32.3   162593 1.0166 147.7  m  15?  30.42   0.9   69 269  37  75
   2024 07 25 18:10  22 36 20.96    -29 27 26.1   163069 1.0166 147.7  m  15?  30.85   1.9   67 268  37  75
   2024 07 25 18:20  22 36 22.00    -29 22 15.9   163549 1.0166 147.7  m  15?  31.27   3.0   65 267  37  75
   2024 07 25 18:30  22 36 23.51    -29 17 01.8   164031 1.0166 147.7  m  15?  31.68   4.1   63 266  37  75
   2024 07 25 18:40  22 36 25.52    -29 11 44.1   164517 1.0166 147.7  m  15?  32.09   5.2   61 265  37  75
   2024 07 25 18:50  22 36 28.06    -29 06 22.9   165006 1.0166 147.8  m  15?  32.50   6.4   58 264  37  75
   2024 07 25 19:00  22 36 31.16    -29 00 58.4   165498 1.0166 147.8  m  15?  32.90   7.7   56 263  37  75
   2024 07 25 19:10  22 36 34.84    -28 55 31.0   165993 1.0166 147.8  m  15?  33.30   9.0   54 263  37  75
   2024 07 25 19:20  22 36 39.13    -28 50 00.7   166490 1.0166 147.8  m  15?  33.71  10.3   52 262  37  75
   2024 07 25 19:30  22 36 44.06    -28 44 27.9   166989 1.0166 147.8  m  15?  34.11  11.6   50 261  37  75
   2024 07 25 19:40  22 36 49.64    -28 38 52.7   167490 1.0166 147.8 Am  15?  34.52  13.0   48 260  37  75
   2024 07 25 19:50  22 36 55.90    -28 33 15.3   167993 1.0166 147.8 Am  15?  34.93  14.4   46 260  36  75
   2024 07 25 20:00  22 37 02.86    -28 27 36.1   168497 1.0166 147.8 Am  15?  35.34  15.8   43 259  36  75
   2024 07 25 20:10  22 37 10.53    -28 21 55.3   169003 1.0166 147.8 Nm  15?  35.76  17.2   41 258  36  75
   2024 07 25 20:20  22 37 18.93    -28 16 13.0   169509 1.0166 147.7 Nm  15?  36.19  18.6   39 257  36  75
   2024 07 25 20:30  22 37 28.07    -28 10 29.5   170016 1.0166 147.7 Cm  15?  36.62  20.0   37 256  36  75
   2024 07 25 20:40  22 37 37.97    -28 04 45.1   170523 1.0166 147.7 Cm  15?  37.06  21.5   35 256  36  75
   ................
   2024 07 26 10:00  23 13 47.21    -22 52 19.6   187198 1.0166 140.2  r  15?  29.16  68.0    0 117  35  68
   2024 07 26 10:10  23 14 06.40    -22 50 30.7   186999 1.0166 140.1     15?  28.16  67.3    1 115  35  68
   2024 07 26 10:20  23 14 24.82    -22 48 42.3   186794 1.0166 140.1     15?  27.16  66.6    3 114  35  68
   2024 07 26 10:30  23 14 42.46    -22 46 54.2   186584 1.0166 140.0     15?  26.16  65.7    5 113  35  68
   2024 07 26 10:40  23 14 59.32    -22 45 06.2   186368 1.0166 139.9     15?  25.17  64.7    7 112  35  68
   2024 07 26 10:50  23 15 15.37    -22 43 18.2   186148 1.0166 139.9     15?  24.19  63.5    9 110  35  68
   2024 07 26 11:00  23 15 30.63    -22 41 30.0   185924 1.0166 139.8     15?  23.22  62.3   11 109  35  68
   2024 07 26 11:10  23 15 45.09    -22 39 41.4   185695 1.0166 139.8     15?  22.27  60.8   13 108  35  67
   2024 07 26 11:20  23 15 58.75    -22 37 52.2   185463 1.0166 139.7     15?  21.35  59.2   15 107  35  67
   2024 07 26 11:30  23 16 11.61    -22 36 02.3   185228 1.0166 139.7     15?  20.45  57.4   17 106  35  67
   2024 07 26 11:40  23 16 23.67    -22 34 11.3   184990 1.0166 139.6     15?  19.59  55.4   19 105  35  67
   2024 07 26 11:50  23 16 34.93    -22 32 19.3   184749 1.0166 139.6     15?  18.77  53.2   21 104  35  67
   2024 07 26 12:00  23 16 45.39    -22 30 25.9   184507 1.0166 139.6     15?  17.99  50.8   23 103  36  67
   2024 07 26 12:10  23 16 55.07    -22 28 31.0   184263 1.0166 139.5     15?  17.27  48.1   25 101  36  67
   2024 07 26 12:20  23 17 03.97    -22 26 34.4   184018 1.0166 139.5     15?  16.61  45.2   27 100  36  67
   2024 07 26 12:30  23 17 12.10    -22 24 36.0   183772 1.0166 139.5     15?  16.02  42.0   29  99  36  67
   2024 07 26 12:40  23 17 19.46    -22 22 35.4   183525 1.0166 139.5     15?  15.51  38.6   31  98  36  67
   2024 07 26 12:50  23 17 26.08    -22 20 32.7   183279 1.0165 139.4  m  15?  15.08  35.0   33  97  36  67
   2024 07 26 13:00  23 17 31.95    -22 18 27.5   183032 1.0165 139.4  m  15?  14.73  31.2   35  96  36  67
   2024 07 26 13:10  23 17 37.11    -22 16 19.8   182787 1.0165 139.4  m  15?  14.48  27.3   37  95  36  66
   2024 07 26 13:20  23 17 41.56    -22 14 09.3   182542 1.0165 139.4  m  15?  14.32  23.4   39  93  36  66
   2024 07 26 13:30  23 17 45.32    -22 11 55.9   182299 1.0165 139.4  m  15?  14.25  19.4   41  92  36  66
   2024 07 26 13:40  23 17 48.41    -22 09 39.4   182058 1.0165 139.4  m  15?  14.28  15.5   43  91  36  66
   2024 07 26 13:50  23 17 50.85    -22 07 19.7   181818 1.0165 139.4  m  15?  14.39  11.8   46  90  36  66
   2024 07 26 14:00  23 17 52.66    -22 04 56.6   181581 1.0165 139.4  m  15?  14.58   8.2   48  88  36  66
   2024 07 26 14:10  23 17 53.86    -22 02 30.0   181347 1.0165 139.4  m  15?  14.84   4.8   50  87  36  66
   2024 07 26 14:20  23 17 54.49    -21 59 59.7   181116 1.0165 139.4  m  15?  15.17   1.7   52  85  36  66
   2024 07 26 14:30  23 17 54.56    -21 57 25.7   180888 1.0165 139.4  m  15?  15.55 358.9   54  84  36  66
   2024 07 26 14:40  23 17 54.10    -21 54 47.7   180663 1.0165 139.4  m  15?  15.97 356.3   56  82  36  66
   2024 07 26 14:50  23 17 53.15    -21 52 05.7   180442 1.0165 139.4  m  15?  16.44 354.1   58  80  36  66
   2024 07 26 15:00  23 17 51.72    -21 49 19.6   180226 1.0165 139.4  m  15?  16.93 352.1   60  78  36  66
   2024 07 26 15:10  23 17 49.85    -21 46 29.2   180013 1.0165 139.4  m  15?  17.44 350.3   62  76  36  66
   2024 07 26 15:20  23 17 47.58    -21 43 34.5   179806 1.0165 139.4  m  15?  17.97 348.9   64  73  37  66
   2024 07 26 15:30  23 17 44.93    -21 40 35.3   179602 1.0165 139.4  m  15?  18.51 347.6   66  70  37  66
   2024 07 26 15:40  23 17 41.94    -21 37 31.7   179404 1.0165 139.4  m  15?  19.05 346.6   68  67  37  65
   2024 07 26 15:50  23 17 38.64    -21 34 23.4   179211 1.0165 139.4  m  15?  19.60 345.7   70  63  37  65
   2024 07 26 16:00  23 17 35.06    -21 31 10.6   179023 1.0165 139.5  m  15?  20.14 345.0   72  58  37  65
   2024 07 26 16:10  23 17 31.25    -21 27 53.0   178840 1.0165 139.5  m  15?  20.67 344.5   74  53  37  65
   2024 07 26 16:20  23 17 27.24    -21 24 30.8   178663 1.0165 139.5  m  15?  21.20 344.2   76  46  37  65
   2024 07 26 16:30  23 17 23.06    -21 21 03.7   178491 1.0165 139.5  m  15?  21.71 344.0   77  38  37  65
   2024 07 26 16:40  23 17 18.75    -21 17 31.9   178325 1.0165 139.5  m  15?  22.21 344.0   78  28  37  65
   2024 07 26 16:50  23 17 14.36    -21 13 55.4   178165 1.0165 139.5  m  15?  22.70 344.1   79  16  37  65
   2024 07 26 17:00  23 17 09.91    -21 10 14.0   178011 1.0165 139.6  m  15?  23.18 344.3   79   3  37  65
   2024 07 26 17:10  23 17 05.45    -21 06 27.8   177862 1.0165 139.6  t  15?  23.63 344.6   79 350  37  65
   2024 07 26 17:20  23 17 01.02    -21 02 36.9   177719 1.0165 139.6  m  15?  24.08 345.0   78 338  37  65
   2024 07 26 17:30  23 16 56.64    -20 58 41.3   177581 1.0165 139.6  m  15?  24.51 345.6   77 327  37  65
   2024 07 26 17:40  23 16 52.37    -20 54 40.9   177450 1.0165 139.6  m  15?  24.92 346.2   76 318  37  65
   2024 07 26 17:50  23 16 48.24    -20 50 35.9   177324 1.0165 139.6  m  15?  25.32 346.9   74 311  37  65
   2024 07 26 18:00  23 16 44.28    -20 46 26.3   177203 1.0165 139.7  m  15?  25.71 347.7   73 305  37  65
   2024 07 26 18:10  23 16 40.54    -20 42 12.1   177088 1.0165 139.7  m  15?  26.08 348.7   71 301  37  65
   2024 07 26 18:20  23 16 37.04    -20 37 53.5   176978 1.0165 139.7  m  15?  26.45 349.6   69 296  37  65
   2024 07 26 18:30  23 16 33.84    -20 33 30.5   176874 1.0165 139.7  m  15?  26.80 350.7   67 293  37  65
   2024 07 26 18:40  23 16 30.95    -20 29 03.2   176775 1.0165 139.7  m  15?  27.15 351.8   65 290  37  65
   2024 07 26 18:50  23 16 28.42    -20 24 31.7   176680 1.0165 139.7  m  15?  27.49 353.0   63 287  37  64
   2024 07 26 19:00  23 16 26.28    -20 19 56.1   176590 1.0165 139.7  m  15?  27.83 354.3   61 285  37  64
   2024 07 26 19:10  23 16 24.57    -20 15 16.4   176505 1.0165 139.7  m  15?  28.17 355.6   59 283  37  64
   2024 07 26 19:20  23 16 23.31    -20 10 33.0   176424 1.0165 139.7  m  15?  28.51 357.0   57 281  37  64
   2024 07 26 19:30  23 16 22.54    -20 05 45.7   176348 1.0165 139.7  m  15?  28.85 358.5   54 279  37  64
   2024 07 26 19:40  23 16 22.30    -20 00 54.8   176275 1.0165 139.7 Am  15?  29.20   0.0   52 278  37  64
   2024 07 26 19:50  23 16 22.59    -19 56 00.5   176205 1.0165 139.7 Am  15?  29.55   1.5   50 276  37  64
   2024 07 26 20:00  23 16 23.47    -19 51 02.7   176139 1.0165 139.7 Nm  15?  29.92   3.1   48 275  37  64
   2024 07 26 20:10  23 16 24.95    -19 46 01.8   176076 1.0165 139.7 Nm  15?  30.29   4.7   46 273  37  64
   2024 07 26 20:20  23 16 27.05    -19 40 57.8   176015 1.0165 139.7 Nm  15?  30.68   6.4   44 272  37  64
   2024 07 26 20:30  23 16 29.81    -19 35 50.8   175957 1.0164 139.7 Cm  15?  31.08   8.0   41 271  37  64
   2024 07 26 20:40  23 16 33.24    -19 30 41.1   175901 1.0164 139.7 Cm  15?  31.49   9.7   39 269  37  64
   ................
   2024 07 27 11:10  23 57 38.45    -11 58 06.8   142243 1.0161 129.0  r  15?  52.82  51.2    0 103  34  56
   2024 07 27 11:20  23 58 06.17    -11 52 32.6   141362 1.0161 128.9     15?  52.33  50.1    1 102  34  56
   2024 07 27 11:30  23 58 33.21    -11 46 54.0   140474 1.0161 128.8     15?  51.86  49.1    3 101  34  56
   2024 07 27 11:40  23 58 59.55    -11 41 10.8   139579 1.0161 128.7     15?  51.41  47.9    5 100  34  56
   2024 07 27 11:50  23 59 25.19    -11 35 22.8   138677 1.0161 128.5     14?  50.98  46.7    7  98  34  56
   2024 07 27 12:00  23 59 50.10    -11 29 29.7   137770 1.0161 128.4     14?  50.58  45.5    9  97  34  56
   2024 07 27 12:10  00 00 14.29    -11 23 31.3   136856 1.0161 128.3     14?  50.22  44.2   11  96  34  56
   2024 07 27 12:20  00 00 37.75    -11 17 27.3   135937 1.0161 128.2     14?  49.90  42.8   13  94  34  56
   2024 07 27 12:30  00 01 00.47    -11 11 17.5   135013 1.0161 128.1     14?  49.62  41.5   15  93  34  56
   2024 07 27 12:40  00 01 22.44    -11 05 01.6   134084 1.0161 128.0     14?  49.38  40.0   17  92  34  56
   2024 07 27 12:50  00 01 43.67    -10 58 39.2   133151 1.0161 127.9     14?  49.20  38.6   19  90  34  55
   2024 07 27 13:00  00 02 04.16    -10 52 10.3   132213 1.0161 127.8     14?  49.06  37.1   21  89  34  55
   2024 07 27 13:10  00 02 23.89    -10 45 34.4   131271 1.0161 127.7     14?  48.99  35.6   23  88  33  55
   2024 07 27 13:20  00 02 42.89    -10 38 51.3   130326 1.0161 127.6     14?  48.97  34.1   25  86  33  55
   2024 07 27 13:30  00 03 01.15    -10 32 00.8   129378 1.0160 127.5     14?  49.02  32.5   27  85  33  55
   2024 07 27 13:40  00 03 18.67    -10 25 02.5   128426 1.0160 127.4     14?  49.13  31.0   29  83  33  55
   2024 07 27 13:50  00 03 35.47    -10 17 56.2   127472 1.0160 127.3  m  14?  49.30  29.4   31  82  33  55
   2024 07 27 14:00  00 03 51.55    -10 10 41.5   126516 1.0160 127.2  m  14?  49.55  27.9   33  80  33  55
   2024 07 27 14:10  00 04 06.93    -10 03 18.2   125557 1.0160 127.1  m  14?  49.86  26.4   35  79  33  55
   2024 07 27 14:20  00 04 21.61    -09 55 45.9   124597 1.0160 127.0  m  14?  50.24  24.9   37  77  33  55
   2024 07 27 14:30  00 04 35.62    -09 48 04.5   123635 1.0160 126.9  m  14?  50.69  23.5   39  75  33  55
   2024 07 27 14:40  00 04 48.97    -09 40 13.5   122672 1.0160 126.9  m  14?  51.22  22.1   41  73  33  55
   2024 07 27 14:50  00 05 01.68    -09 32 12.7   121707 1.0160 126.8  m  14?  51.81  20.7   43  71  33  55
   2024 07 27 15:00  00 05 13.78    -09 24 01.8   120742 1.0160 126.7  m  14?  52.47  19.4   45  69  33  54
   2024 07 27 15:10  00 05 25.27    -09 15 40.5   119776 1.0160 126.6  m  14?  53.19  18.1   47  67  33  54
   2024 07 27 15:20  00 05 36.20    -09 07 08.4   118810 1.0160 126.5  m  14?  53.99  17.0   49  64  33  54
   2024 07 27 15:30  00 05 46.59    -08 58 25.2   117843 1.0160 126.5  m  14?  54.84  15.8   50  62  33  54
   2024 07 27 15:40  00 05 56.46    -08 49 30.7   116876 1.0160 126.4  m  14?  55.76  14.8   52  59  33  54
   2024 07 27 15:50  00 06 05.85    -08 40 24.5   115909 1.0160 126.3  m  14?  56.74  13.8   54  56  33  54
   2024 07 27 16:00  00 06 14.80    -08 31 06.3   114942 1.0160 126.2  m  14?  57.77  12.9   56  53  33  54
   2024 07 27 16:10  00 06 23.34    -08 21 35.8   113975 1.0160 126.2  m  14?  58.87  12.1   57  49  33  54
   2024 07 27 16:20  00 06 31.50    -08 11 52.6   113008 1.0160 126.1  m  14?  60.02  11.4   58  46  33  54
   2024 07 27 16:30  00 06 39.34    -08 01 56.4   112042 1.0159 126.0  m  14?  61.22  10.7   60  42  33  54
   2024 07 27 16:40  00 06 46.88    -07 51 46.9   111076 1.0159 125.9  m  14?  62.47  10.1   61  37  33  54
   2024 07 27 16:50  00 06 54.19    -07 41 23.8   110110 1.0159 125.9  m  14?  63.78   9.6   62  32  33  54
   2024 07 27 17:00  00 07 01.29    -07 30 46.6   109145 1.0159 125.8  m  14?  65.14   9.2   63  27  33  54
   2024 07 27 17:10  00 07 08.25    -07 19 55.1   108179 1.0159 125.7  m  14?  66.54   8.8   64  22  32  54
   2024 07 27 17:20  00 07 15.12    -07 08 48.9   107215 1.0159 125.6  m  14?  68.00   8.6   64  16  32  54
   2024 07 27 17:30  00 07 21.94    -06 57 27.6   106250 1.0159 125.5  m  14?  69.50   8.4   65  11  32  54
   2024 07 27 17:40  00 07 28.77    -06 45 50.9   105285 1.0159 125.5  m  14?  71.06   8.2   65   5  32  53
   2024 07 27 17:50  00 07 35.68    -06 33 58.4   104321 1.0159 125.4  t  14?  72.67   8.2   65 359  32  53
   2024 07 27 18:00  00 07 42.71    -06 21 49.6   103356 1.0159 125.3  m  14?  74.33   8.2   64 353  32  53
   2024 07 27 18:10  00 07 49.93    -06 09 24.2   102390 1.0159 125.2  m  14?  76.04   8.2   64 348  32  53
   2024 07 27 18:20  00 07 57.41    -05 56 41.7   101424 1.0159 125.1  m  14?  77.81   8.4   63 342  32  53
   2024 07 27 18:30  00 08 05.21    -05 43 41.8   100458 1.0159 125.0  m  14?  79.64   8.6   62 337  32  53
   2024 07 27 18:40  00 08 13.39    -05 30 24.0    99490 1.0159 124.9  m  14?  81.53   8.8   61 332  32  53
   2024 07 27 18:50  00 08 22.03    -05 16 47.7    98521 1.0159 124.8  m  14?  83.48   9.1   60 328  32  53
   2024 07 27 19:00  00 08 31.19    -05 02 52.5    97550 1.0158 124.7  m  14?  85.51   9.5   58 324  32  53
   2024 07 27 19:10  00 08 40.95    -04 48 37.8    96577 1.0158 124.6  m  14?  87.61   9.9   57 320  31  53
   2024 07 27 19:20  00 08 51.38    -04 34 03.2    95602 1.0158 124.5  m  14?  89.80  10.3   55 317  31  53
   2024 07 27 19:30  00 09 02.57    -04 19 08.0    94625 1.0158 124.4  m  14?  92.06  10.8   54 314  31  53
   2024 07 27 19:40  00 09 14.58    -04 03 51.6    93644 1.0158 124.2 Am  14?  94.43  11.4   52 311  31  53
   2024 07 27 19:50  00 09 27.50    -03 48 13.4    92659 1.0158 124.1 Am  13?  96.89  11.9   50 308  31  53
   2024 07 27 20:00  00 09 41.40    -03 32 12.6    91671 1.0158 123.9 Nm  13?  99.45  12.5   48 305  31  53
   2024 07 27 20:10  00 09 56.39    -03 15 48.6    90678 1.0158 123.8 Nm  13? 102.13  13.2   46 303  31  53
   2024 07 27 20:20  00 10 12.53    -02 59 00.4    89680 1.0158 123.6 Nm  13? 104.94  13.8   44 301  31  53
   2024 07 27 20:30  00 10 29.93    -02 41 47.3    88676 1.0158 123.5 Cm  13? 107.88  14.5   42 299  30  53
   2024 07 27 20:40  00 10 48.67    -02 24 08.2    87666 1.0158 123.3 Cm  13? 110.96  15.2   40 297  30  53
   ................
   

MMS-2 (JPL-ID: -140483)

   Date (UTC) HH:MM   RA              Dec         delta   r     elong SM  mag  '/hr    PA   alt  az moo ill
   ---- -- -- -----  -------------   -----------  ------ ------ ----- --  --- ------ ------ --- --- --- ---
   2024 07 14 07:40  21 12 46.41    -40 22 09.6    69123 1.0169 152.0 Cm  14? 199.67  80.4    0 139 100  53
   2024 07 14 07:50  21 15 34.13    -40 16 43.1    70487 1.0169 151.7 Nm  14? 189.94  80.0    0 138 101  53
   2024 07 14 08:00  21 18 13.32    -40 11 19.5    71824 1.0169 151.3 Nm  14? 180.82  79.6    1 137 101  53
   2024 07 14 08:10  21 20 44.52    -40 05 59.3    73135 1.0169 150.9 Nm  14? 172.25  79.2    2 136 102  53
   2024 07 14 08:20  21 23 08.23    -40 00 42.9    74422 1.0169 150.6 Am  14? 164.19  78.8    3 135 102  53
   2024 07 14 08:30  21 25 24.89    -39 55 30.6    75684 1.0169 150.3 Am  14? 156.58  78.4    4 134 102  53
   2024 07 14 08:40  21 27 34.90    -39 50 22.5    76923 1.0169 149.9 Am  14? 149.39  78.0    5 133 103  53
   2024 07 14 08:50  21 29 38.63    -39 45 18.7    78139 1.0169 149.6  m  14? 142.58  77.6    7 132 103  53
   2024 07 14 09:00  21 31 36.41    -39 40 19.1    79334 1.0170 149.3  m  14? 136.12  77.2    8 131 103  53
   2024 07 14 09:10  21 33 28.55    -39 35 23.7    80507 1.0170 149.1  m  14? 129.99  76.8    9 130 104  53
   2024 07 14 09:20  21 35 15.32    -39 30 32.2    81660 1.0170 148.8  m  14? 124.15  76.3   10 129 104  54
   2024 07 14 09:30  21 36 57.00    -39 25 44.4    82793 1.0170 148.5  m  14? 118.60  75.9   12 128 104  54
   2024 07 14 09:40  21 38 33.82    -39 21 00.2    83908 1.0170 148.3  m  14? 113.31  75.4   13 127 104  54
   2024 07 14 09:50  21 40 06.01    -39 16 19.2    85004 1.0170 148.1  m  14? 108.26  74.9   14 127 105  54
   2024 07 14 10:00  21 41 33.77    -39 11 41.1    86083 1.0170 147.8  m  14? 103.44  74.3   16 126 105  54
   2024 07 14 10:10  21 42 57.29    -39 07 05.5    87144 1.0170 147.6  m  14?  98.84  73.7   17 125 105  54
   2024 07 14 10:20  21 44 16.77    -39 02 32.2    88189 1.0170 147.4  m  14?  94.45  73.1   19 124 105  54
   2024 07 14 10:30  21 45 32.37    -38 58 00.8    89219 1.0170 147.2  m  14?  90.26  72.4   20 123 106  54
   2024 07 14 10:40  21 46 44.25    -38 53 30.9    90233 1.0170 147.1  m  14?  86.26  71.6   22 122 106  54
   2024 07 14 10:50  21 47 52.56    -38 49 02.2    91233 1.0170 146.9  m  14?  82.45  70.8   23 122 106  54
   2024 07 14 11:00  21 48 57.46    -38 44 34.2    92219 1.0170 146.7  m  14?  78.81  70.0   25 121 106  54
   2024 07 14 11:10  21 49 59.09    -38 40 06.6    93192 1.0170 146.6  m  14?  75.35  69.0   27 120 106  54
   2024 07 14 11:20  21 50 57.56    -38 35 39.1    94152 1.0170 146.4  m  14?  72.06  68.0   28 119 106  54
   2024 07 14 11:30  21 51 53.02    -38 31 11.2    95100 1.0170 146.3  m  14?  68.93  66.9   30 119 106  54
   2024 07 14 11:40  21 52 45.58    -38 26 42.6    96037 1.0170 146.1  m  14?  65.97  65.7   32 118 107  54
   2024 07 14 11:50  21 53 35.37    -38 22 12.9    96962 1.0170 146.0  m  14?  63.18  64.5   33 117 107  54
   2024 07 14 12:00  21 54 22.50    -38 17 41.7    97878 1.0171 145.9  m  14?  60.55  63.1   35 117 107  54
   2024 07 14 12:10  21 55 07.07    -38 13 08.8    98783 1.0171 145.8  m  14?  58.08  61.7   37 116 107  54
   2024 07 14 12:20  21 55 49.21    -38 08 33.7    99679 1.0171 145.7  m  14?  55.77  60.1   39 115 107  54
   2024 07 14 12:30  21 56 29.00    -38 03 56.2   100566 1.0171 145.6  m  14?  53.62  58.5   40 115 107  54
   2024 07 14 12:40  21 57 06.57    -37 59 16.0   101444 1.0171 145.5  m  14?  51.64  56.7   42 114 107  54
   2024 07 14 12:50  21 57 42.00    -37 54 32.6   102315 1.0171 145.4  m  14?  49.81  54.9   44 114 107  54
   2024 07 14 13:00  21 58 15.40    -37 49 46.0   103179 1.0171 145.4  m  14?  48.15  53.0   46 113 107  55
   2024 07 14 13:10  21 58 46.86    -37 44 55.6   104035 1.0171 145.3  m  14?  46.64  51.0   48 113 107  55
   2024 07 14 13:20  21 59 16.48    -37 40 01.4   104886 1.0171 145.2  m  14?  45.30  48.9   50 112 107  55
   2024 07 14 13:30  21 59 44.36    -37 35 03.1   105730 1.0171 145.2  m  14?  44.11  46.8   52 112 107  55
   2024 07 14 13:40  22 00 10.58    -37 30 00.4   106569 1.0171 145.1  m  14?  43.07  44.7   53 111 108  55
   2024 07 14 13:50  22 00 35.23    -37 24 53.2   107403 1.0171 145.1  m  14?  42.18  42.5   55 111 108  55
   2024 07 14 14:00  22 00 58.42    -37 19 41.1   108232 1.0171 145.0  m  14?  41.43  40.4   57 111 108  55
   2024 07 14 14:10  22 01 20.21    -37 14 24.2   109057 1.0171 145.0  m  14?  40.82  38.2   59 111 108  55
   2024 07 14 14:20  22 01 40.71    -37 09 02.2   109878 1.0171 144.9  m  14?  40.33  36.1   61 110 108  55
   2024 07 14 14:30  22 02 00.00    -37 03 35.0   110696 1.0171 144.9  m  14?  39.97  34.1   63 110 108  55
   2024 07 14 14:40  22 02 18.16    -36 58 02.4   111510 1.0171 144.9  m  14?  39.72  32.2   65 111 108  55
   2024 07 14 14:50  22 02 35.27    -36 52 24.4   112322 1.0171 144.9  m  14?  39.58  30.3   67 111 108  55
   2024 07 14 15:00  22 02 51.42    -36 46 40.9   113132 1.0171 144.8     14?  39.52  28.5   69 111 108  55
   2024 07 14 15:10  22 03 06.69    -36 40 51.9   113939 1.0171 144.8     15?  39.55  26.9   71 112 108  55
   2024 07 14 15:20  22 03 21.16    -36 34 57.2   114745 1.0171 144.8     15?  39.66  25.4   73 113 108  55
   2024 07 14 15:30  22 03 34.91    -36 28 57.0   115549 1.0171 144.8     15?  39.83  24.0   75 114 108  56
   2024 07 14 15:40  22 03 48.01    -36 22 51.1   116352 1.0171 144.8     15?  40.06  22.7   77 116 108  56
   2024 07 14 15:50  22 04 00.53    -36 16 39.6   117154 1.0171 144.8     15?  40.34  21.6   79 119 108  56
   2024 07 14 16:00  22 04 12.56    -36 10 22.6   117955 1.0171 144.8     15?  40.66  20.6   80 124 108  56
   2024 07 14 16:10  22 04 24.16    -36 04 00.0   118755 1.0171 144.8     15?  41.01  19.7   82 131 108  56
   2024 07 14 16:20  22 04 35.40    -35 57 32.1   119555 1.0172 144.8     15?  41.40  19.0   84 142 108  56
   2024 07 14 16:30  22 04 46.36    -35 50 58.8   120355 1.0172 144.7     15?  41.80  18.4   85 160 108  56
   2024 07 14 16:40  22 04 57.09    -35 44 20.3   121155 1.0172 144.7  t  15?  42.22  17.9   85 185 108  56
   2024 07 14 16:50  22 05 07.67    -35 37 36.7   121956 1.0172 144.7     15?  42.66  17.5   85 209 108  56
   2024 07 14 17:00  22 05 18.15    -35 30 48.1   122756 1.0172 144.7     15?  43.11  17.2   83 226 108  56
   2024 07 14 17:10  22 05 28.60    -35 23 54.8   123557 1.0172 144.7     15?  43.56  17.1   82 236 108  56
   2024 07 14 17:20  22 05 39.08    -35 16 56.8   124358 1.0172 144.7     15?  44.02  17.0   80 243 108  56
   2024 07 14 17:30  22 05 49.63    -35 09 54.4   125160 1.0172 144.7     15?  44.48  17.0   78 247 108  56
   2024 07 14 17:40  22 06 00.32    -35 02 47.7   125962 1.0172 144.7     15?  44.94  17.1   76 249 108  57
   2024 07 14 17:50  22 06 11.21    -34 55 37.0   126765 1.0172 144.7     15?  45.39  17.3   74 251 108  57
   2024 07 14 18:00  22 06 22.32    -34 48 22.5   127569 1.0172 144.7     15?  45.85  17.6   72 253 108  57
   2024 07 14 18:10  22 06 33.73    -34 41 04.4   128373 1.0172 144.7     15?  46.30  17.9   70 254 108  57
   2024 07 14 18:20  22 06 45.46    -34 33 42.9   129178 1.0172 144.7     15?  46.75  18.3   68 254 108  57
   2024 07 14 18:30  22 06 57.58    -34 26 18.3   129983 1.0172 144.7     15?  47.20  18.8   66 255 108  57
   2024 07 14 18:40  22 07 10.10    -34 18 50.9   130789 1.0172 144.7     15?  47.64  19.4   64 255 108  57
   2024 07 14 18:50  22 07 23.08    -34 11 20.9   131595 1.0172 144.7     15?  48.07  19.9   62 255 108  57
   2024 07 14 19:00  22 07 36.55    -34 03 48.6   132402 1.0172 144.6     15?  48.50  20.6   60 255 108  57
   2024 07 14 19:10  22 07 50.54    -33 56 14.2   133209 1.0172 144.6     15?  48.93  21.3   58 255 108  57
   2024 07 14 19:20  22 08 05.08    -33 48 38.0   134016 1.0172 144.6     15?  49.35  22.0   56 255 108  57
   2024 07 14 19:30  22 08 20.21    -33 41 00.3   134824 1.0172 144.6     15?  49.77  22.8   54 254 108  58
   2024 07 14 19:40  22 08 35.95    -33 33 21.4   135631 1.0172 144.5 A   15?  50.19  23.6   52 254 108  58
   2024 07 14 19:50  22 08 52.33    -33 25 41.6   136437 1.0172 144.5 A   15?  50.61  24.4   50 254 108  58
   2024 07 14 20:00  22 09 09.36    -33 18 01.1   137244 1.0172 144.5 A   15?  51.02  25.3   48 253 108  58
   2024 07 14 20:10  22 09 27.06    -33 10 20.2   138049 1.0172 144.4 N   15?  51.43  26.1   46 253 108  58
   2024 07 14 20:20  22 09 45.47    -33 02 39.2   138854 1.0172 144.4 N   15?  51.83  27.1   44 252 108  58
   2024 07 14 20:30  22 10 04.58    -32 54 58.4   139658 1.0172 144.4 N   15?  52.24  28.0   42 252 108  58
   2024 07 14 20:40  22 10 24.41    -32 47 18.1   140461 1.0172 144.3 C   15?  52.64  28.9   40 251 108  58
   2024 07 14 20:50  22 10 44.98    -32 39 38.5   141262 1.0172 144.3 C   15?  53.04  29.9   38 251 108  58
   ................
   2024 07 15 10:20  22 57 46.33    -26 28 07.9   179400 1.0173 134.7  m  15?  32.02  72.6    0 120 113  63
   2024 07 15 10:30  22 58 08.62    -26 26 32.9   179443 1.0173 134.6  m  15?  30.87  72.1    2 119 113  63
   2024 07 15 10:40  22 58 30.04    -26 24 58.8   179478 1.0173 134.5  m  15?  29.73  71.6    3 118 114  63
   2024 07 15 10:50  22 58 50.58    -26 23 25.7   179508 1.0173 134.5  m  15?  28.58  71.0    5 117 114  64
   2024 07 15 11:00  22 59 10.23    -26 21 53.2   179532 1.0173 134.4  m  15?  27.44  70.3    7 116 114  64
   2024 07 15 11:10  22 59 28.99    -26 20 21.1   179551 1.0173 134.3  m  15?  26.31  69.5    9 114 114  64
   2024 07 15 11:20  22 59 46.86    -26 18 49.2   179565 1.0173 134.3  m  15?  25.19  68.6   11 113 114  64
   2024 07 15 11:30  23 00 03.83    -26 17 17.3   179574 1.0173 134.2  m  15?  24.09  67.5   13 112 114  64
   2024 07 15 11:40  23 00 19.92    -26 15 45.2   179579 1.0173 134.1  m  15?  23.00  66.3   15 111 114  64
   2024 07 15 11:50  23 00 35.11    -26 14 12.7   179580 1.0173 134.1  m  15?  21.94  64.9   17 110 114  64
   2024 07 15 12:00  23 00 49.42    -26 12 39.6   179578 1.0173 134.0  m  15?  20.90  63.4   19 109 114  64
   2024 07 15 12:10  23 01 02.85    -26 11 05.6   179573 1.0173 134.0  m  15?  19.90  61.6   21 108 114  64
   2024 07 15 12:20  23 01 15.40    -26 09 30.5   179566 1.0173 133.9  m  15?  18.94  59.6   23 107 114  64
   2024 07 15 12:30  23 01 27.09    -26 07 54.2   179556 1.0173 133.9  m  15?  18.03  57.4   25 106 114  64
   2024 07 15 12:40  23 01 37.92    -26 06 16.4   179544 1.0173 133.9  m  15?  17.16  54.9   27 105 114  64
   2024 07 15 12:50  23 01 47.90    -26 04 36.9   179531 1.0173 133.8  m  15?  16.36  52.1   29 104 114  64
   2024 07 15 13:00  23 01 57.05    -26 02 55.5   179517 1.0173 133.8  m  15?  15.63  49.0   31 103 114  64
   2024 07 15 13:10  23 02 05.38    -26 01 11.9   179502 1.0173 133.8  m  15?  14.97  45.6   33 102 114  64
   2024 07 15 13:20  23 02 12.91    -25 59 26.1   179487 1.0173 133.8  m  15?  14.41  42.0   35 101 113  64
   2024 07 15 13:30  23 02 19.64    -25 57 37.9   179472 1.0173 133.7  m  15?  13.93  38.1   37 100 113  64
   2024 07 15 13:40  23 02 25.61    -25 55 46.9   179458 1.0173 133.7  m  15?  13.55  33.9   39  99 113  64
   2024 07 15 13:50  23 02 30.83    -25 53 53.0   179444 1.0173 133.7  m  15?  13.28  29.7   41  98 113  64
   2024 07 15 14:00  23 02 35.33    -25 51 56.1   179431 1.0173 133.7  m  15?  13.11  25.3   43  97 113  64
   2024 07 15 14:10  23 02 39.11    -25 49 56.0   179420 1.0173 133.7  m  15?  13.04  21.0   45  96 113  64
   2024 07 15 14:20  23 02 42.22    -25 47 52.5   179411 1.0173 133.7  m  15?  13.08  16.7   47  94 113  65
   2024 07 15 14:30  23 02 44.67    -25 45 45.5   179403 1.0173 133.7  m  15?  13.21  12.7   49  93 113  65
   2024 07 15 14:40  23 02 46.49    -25 43 34.7   179399 1.0173 133.7  m  15?  13.42   8.9   51  92 113  65
   2024 07 15 14:50  23 02 47.71    -25 41 20.1   179397 1.0173 133.6  m  15?  13.71   5.3   54  91 113  65
   2024 07 15 15:00  23 02 48.36    -25 39 01.5   179398 1.0173 133.6  m  15?  14.07   2.1   56  89 113  65
   2024 07 15 15:10  23 02 48.46    -25 36 38.8   179402 1.0173 133.6  m  15?  14.48 359.2   58  88 113  65
   2024 07 15 15:20  23 02 48.05    -25 34 11.8   179410 1.0173 133.7  m  15?  14.93 356.7   60  86 113  65
   2024 07 15 15:30  23 02 47.17    -25 31 40.5   179421 1.0173 133.7  m  15?  15.42 354.4   62  85 113  65
   2024 07 15 15:40  23 02 45.84    -25 29 04.7   179437 1.0173 133.7  m  15?  15.93 352.5   64  83 113  65
   2024 07 15 15:50  23 02 44.10    -25 26 24.4   179457 1.0173 133.7  m  15?  16.46 350.9   66  81 113  65
   2024 07 15 16:00  23 02 41.99    -25 23 39.4   179481 1.0173 133.7     15?  17.01 349.5   68  79 113  65
   2024 07 15 16:10  23 02 39.54    -25 20 49.7   179510 1.0173 133.7     15?  17.55 348.4   71  76 113  65
   2024 07 15 16:20  23 02 36.78    -25 17 55.3   179544 1.0173 133.7     15?  18.10 347.5   73  73 113  65
   2024 07 15 16:30  23 02 33.76    -25 14 56.0   179582 1.0173 133.7     15?  18.65 346.8   75  69 113  65
   2024 07 15 16:40  23 02 30.51    -25 11 51.8   179626 1.0173 133.7     15?  19.19 346.3   77  64 112  65
   2024 07 15 16:50  23 02 27.07    -25 08 42.7   179675 1.0173 133.7     15?  19.73 346.0   78  58 112  66
   2024 07 15 17:00  23 02 23.47    -25 05 28.8   179730 1.0173 133.8     15?  20.25 345.8   80  49 112  66
   2024 07 15 17:10  23 02 19.77    -25 02 09.9   179789 1.0173 133.8     15?  20.76 345.8   82  37 112  66
   2024 07 15 17:20  23 02 15.99    -24 58 46.0   179855 1.0173 133.8     15?  21.25 345.9   83  21 112  66
   2024 07 15 17:30  23 02 12.17    -24 55 17.3   179925 1.0173 133.8     15?  21.74 346.2   83   2 112  66
   2024 07 15 17:40  23 02 08.36    -24 51 43.6   180002 1.0173 133.8  t  15?  22.20 346.5   83 342 112  66
   2024 07 15 17:50  23 02 04.59    -24 48 05.2   180084 1.0173 133.8     15?  22.65 347.0   82 326 112  66
   2024 07 15 18:00  23 02 00.89    -24 44 21.9   180171 1.0173 133.8     15?  23.09 347.6   80 314 112  66
   2024 07 15 18:10  23 01 57.32    -24 40 33.8   180264 1.0173 133.8     15?  23.52 348.3   79 305 112  66
   2024 07 15 18:20  23 01 53.90    -24 36 41.1   180362 1.0173 133.9     15?  23.93 349.1   77 298 112  66
   2024 07 15 18:30  23 01 50.68    -24 32 43.7   180466 1.0173 133.9     15?  24.32 349.9   75 293 112  66
   2024 07 15 18:40  23 01 47.68    -24 28 41.8   180575 1.0173 133.9     15?  24.71 350.9   73 289 112  66
   2024 07 15 18:50  23 01 44.95    -24 24 35.5   180689 1.0173 133.9     15?  25.09 351.9   71 286 112  66
   2024 07 15 19:00  23 01 42.53    -24 20 24.9   180809 1.0173 133.9     15?  25.45 353.0   68 284 111  67
   2024 07 15 19:10  23 01 40.43    -24 16 10.0   180933 1.0173 133.9     15?  25.81 354.2   66 281 111  67
   2024 07 15 19:20  23 01 38.71    -24 11 51.1   181062 1.0173 133.9     15?  26.17 355.4   64 279 111  67
   2024 07 15 19:30  23 01 37.39    -24 07 28.2   181196 1.0173 133.9     15?  26.52 356.7   62 277 111  67
   2024 07 15 19:40  23 01 36.50    -24 03 01.4   181334 1.0173 133.9 A   15?  26.86 358.0   60 276 111  67
   2024 07 15 19:50  23 01 36.07    -23 58 31.0   181477 1.0173 133.9 A   15?  27.21 359.4   58 274 111  67
   2024 07 15 20:00  23 01 36.14    -23 53 57.1   181623 1.0173 133.9 A   15?  27.56   0.9   56 273 111  67
   2024 07 15 20:10  23 01 36.73    -23 49 19.7   181774 1.0172 133.9 N   15?  27.91   2.4   53 272 111  67
   2024 07 15 20:20  23 01 37.87    -23 44 39.1   181927 1.0172 133.9 N   15?  28.27   4.0   51 270 111  67
   2024 07 15 20:30  23 01 39.58    -23 39 55.5   182085 1.0172 133.9 N   15?  28.64   5.5   49 269 111  67
   2024 07 15 20:40  23 01 41.89    -23 35 09.0   182245 1.0172 133.9 C   15?  29.01   7.1   47 268 111  67
   2024 07 15 20:50  23 01 44.81    -23 30 19.8   182407 1.0172 133.8 C   15?  29.39   8.8   45 267 111  68
   ................
   2024 07 16 11:20  23 37 39.66    -17 31 13.7   172169 1.0171 125.0  r  15?  35.26  59.8    0 110 114  73
   2024 07 16 11:30  23 38 00.58    -17 28 16.0   171606 1.0171 124.9  m  15?  34.41  58.8    1 109 114  73
   2024 07 16 11:40  23 38 20.77    -17 25 17.4   171038 1.0170 124.8  m  15?  33.57  57.8    3 107 114  73
   2024 07 16 11:50  23 38 40.22    -17 22 17.7   170464 1.0170 124.7  m  15?  32.74  56.6    5 106 114  73
   2024 07 16 12:00  23 38 58.91    -17 19 16.8   169886 1.0170 124.7  m  15?  31.92  55.4    7 105 114  73
   2024 07 16 12:10  23 39 16.85    -17 16 14.6   169302 1.0170 124.6  m  15?  31.12  54.0    9 104 114  73
   2024 07 16 12:20  23 39 34.02    -17 13 10.8   168714 1.0170 124.5  m  15?  30.34  52.5   11 102 114  73
   2024 07 16 12:30  23 39 50.42    -17 10 05.2   168122 1.0170 124.4  m  15?  29.59  51.0   13 101 114  73
   2024 07 16 12:40  23 40 06.05    -17 06 57.8   167526 1.0170 124.4  m  15?  28.87  49.3   15 100 114  73
   2024 07 16 12:50  23 40 20.90    -17 03 48.2   166927 1.0170 124.3  m  15?  28.19  47.5   17  99 114  73
   2024 07 16 13:00  23 40 34.98    -17 00 36.4   166326 1.0170 124.3  m  15?  27.55  45.6   19  98 114  73
   2024 07 16 13:10  23 40 48.28    -16 57 22.1   165722 1.0170 124.2  m  15?  26.95  43.5   21  96 114  73
   2024 07 16 13:20  23 41 00.81    -16 54 05.3   165115 1.0170 124.1  m  15?  26.41  41.4   24  95 114  73
   2024 07 16 13:30  23 41 12.57    -16 50 45.6   164507 1.0170 124.1  m  15?  25.92  39.2   26  94 114  73
   2024 07 16 13:40  23 41 23.56    -16 47 22.9   163898 1.0170 124.0  m  15?  25.49  36.8   28  93 114  73
   2024 07 16 13:50  23 41 33.80    -16 43 57.1   163288 1.0170 124.0  m  15?  25.13  34.4   30  91 114  74
   2024 07 16 14:00  23 41 43.29    -16 40 28.0   162677 1.0170 123.9  m  15?  24.83  31.9   32  90 114  74
   2024 07 16 14:10  23 41 52.04    -16 36 55.4   162066 1.0170 123.9  m  15?  24.60  29.4   34  89 114  74
   2024 07 16 14:20  23 42 00.06    -16 33 19.1   161455 1.0170 123.9  m  15?  24.44  26.9   36  87 114  74
   2024 07 16 14:30  23 42 07.38    -16 29 39.0   160845 1.0170 123.8  m  15?  24.36  24.4   38  86 114  74
   2024 07 16 14:40  23 42 13.99    -16 25 54.8   160235 1.0170 123.8  m  15?  24.35  21.8   40  84 114  74
   2024 07 16 14:50  23 42 19.92    -16 22 06.6   159626 1.0170 123.8  m  15?  24.40  19.4   42  83 114  74
   2024 07 16 15:00  23 42 25.20    -16 18 14.0   159019 1.0170 123.7  m  15?  24.53  17.0   44  81 114  74
   2024 07 16 15:10  23 42 29.82    -16 14 16.9   158413 1.0170 123.7  m  15?  24.72  14.6   46  79 114  74
   2024 07 16 15:20  23 42 33.83    -16 10 15.2   157809 1.0170 123.7  m  15?  24.97  12.4   48  78 114  74
   2024 07 16 15:30  23 42 37.24    -16 06 08.7   157208 1.0170 123.6  m  15?  25.28  10.3   51  76 114  74
   2024 07 16 15:40  23 42 40.07    -16 01 57.3   156609 1.0170 123.6  m  15?  25.64   8.3   53  74 114  74
   2024 07 16 15:50  23 42 42.36    -15 57 40.8   156013 1.0170 123.6  m  15?  26.05   6.5   55  71 114  74
   2024 07 16 16:00  23 42 44.13    -15 53 19.2   155420 1.0170 123.6  m  15?  26.50   4.8   57  69 114  74
   2024 07 16 16:10  23 42 45.41    -15 48 52.3   154830 1.0170 123.6  m  15?  26.99   3.3   58  66 114  74
   2024 07 16 16:20  23 42 46.23    -15 44 19.9   154243 1.0170 123.5  m  15?  27.50   1.9   60  63 114  74
   2024 07 16 16:30  23 42 46.62    -15 39 42.0   153660 1.0170 123.5  m  15?  28.05   0.6   62  60 114  74
   2024 07 16 16:40  23 42 46.62    -15 34 58.5   153081 1.0169 123.5  m  15?  28.62 359.5   64  56 114  74
   2024 07 16 16:50  23 42 46.25    -15 30 09.2   152506 1.0169 123.5  m  15?  29.20 358.5   66  52 114  75
   2024 07 16 17:00  23 42 45.57    -15 25 14.1   151935 1.0169 123.5     15?  29.80 357.7   67  47 114  75
   2024 07 16 17:10  23 42 44.60    -15 20 13.1   151368 1.0169 123.5     15?  30.42 357.0   69  42 114  75
   2024 07 16 17:20  23 42 43.38    -15 15 06.1   150805 1.0169 123.5     15?  31.04 356.5   70  36 113  75
   2024 07 16 17:30  23 42 41.95    -15 09 53.1   150247 1.0169 123.5     15?  31.66 356.0   71  29 113  75
   2024 07 16 17:40  23 42 40.35    -15 04 33.9   149693 1.0169 123.4     15?  32.29 355.7   72  22 113  75
   2024 07 16 17:50  23 42 38.63    -14 59 08.6   149144 1.0169 123.4     15?  32.92 355.5   73  14 113  75
   2024 07 16 18:00  23 42 36.82    -14 53 37.1   148599 1.0169 123.4     15?  33.54 355.5   73   6 113  75
   2024 07 16 18:10  23 42 34.97    -14 47 59.3   148058 1.0169 123.4  t  14?  34.17 355.5   73 357 113  75
   2024 07 16 18:20  23 42 33.11    -14 42 15.3   147522 1.0169 123.4     14?  34.79 355.6   73 349 113  75
   2024 07 16 18:30  23 42 31.30    -14 36 25.0   146990 1.0169 123.4     14?  35.42 355.8   72 341 113  75
   2024 07 16 18:40  23 42 29.58    -14 30 28.3   146463 1.0169 123.4     14?  36.03 356.2   71 334 113  75
   2024 07 16 18:50  23 42 27.99    -14 24 25.4   145940 1.0169 123.4     14?  36.65 356.6   70 327 113  75
   2024 07 16 19:00  23 42 26.57    -14 18 16.1   145421 1.0169 123.3     14?  37.26 357.1   69 321 113  75
   2024 07 16 19:10  23 42 25.38    -14 12 00.6   144906 1.0169 123.3     14?  37.88 357.7   67 316 113  76
   2024 07 16 19:20  23 42 24.45    -14 05 38.7   144395 1.0169 123.3     14?  38.49 358.3   65 311 113  76
   2024 07 16 19:30  23 42 23.83    -13 59 10.6   143888 1.0169 123.3     14?  39.10 359.1   64 307 113  76
   2024 07 16 19:40  23 42 23.57    -13 52 36.3   143384 1.0169 123.3 A   14?  39.72 359.9   62 304 113  76
   2024 07 16 19:50  23 42 23.70    -13 45 55.8   142884 1.0169 123.2 A   14?  40.34   0.8   60 300 113  76
   2024 07 16 20:00  23 42 24.28    -13 39 09.1   142387 1.0169 123.2 A   14?  40.97   1.7   58 297 113  76
   2024 07 16 20:10  23 42 25.35    -13 32 16.3   141893 1.0169 123.2 N   14?  41.61   2.7   56 295 113  76
   2024 07 16 20:20  23 42 26.94    -13 25 17.5   141401 1.0169 123.1 N   14?  42.25   3.8   54 292 113  76
   2024 07 16 20:30  23 42 29.11    -13 18 12.7   140912 1.0169 123.1 N   14?  42.92   4.9   52 290 113  76
   2024 07 16 20:40  23 42 31.89    -13 11 01.9   140425 1.0169 123.1 C   14?  43.59   6.0   50 288 112  76
   2024 07 16 20:50  23 42 35.33    -13 03 45.2   139940 1.0168 123.0 C   14?  44.29   7.2   48 286 112  76
   ................
   2024 07 17 15:50  14 42 30.30    -34 30 35.3    17218 1.0164 112.5  m  10? 3903.3 126.4    8 234  22  82
   2024 07 17 16:00  15 22 45.96    -39 50 45.4    19140 1.0164 121.0  m  10? 3061.7 120.3   16 233  18  83
   2024 07 17 16:10  15 58 50.40    -43 22 02.7    21196 1.0164 127.7  m  10? 2439.7 114.3   22 231  18  83
   2024 07 17 16:20  16 30 42.61    -45 37 48.0    23315 1.0164 132.9  m  11? 1982.0 108.6   27 230  20  83
   2024 07 17 16:30  16 58 35.99    -47 02 09.9    25456 1.0164 137.0  m  11? 1641.4 103.4   30 230  23  83
   2024 07 17 16:40  17 22 53.60    -47 51 46.7    27594 1.0165 140.3  m  11? 1383.6  98.8   32 230  25  83
   2024 07 17 16:50  17 44 02.52    -48 17 52.9    29714 1.0165 143.0  m  12? 1184.8  94.7   34 230  28  83
   2024 07 17 17:00  18 02 29.76    -48 28 01.5    31810 1.0165 145.3  m  12? 1028.8  91.1   36 230  30  83
   2024 07 17 17:10  18 18 40.00    -48 27 17.8    33877 1.0165 147.2  m  12? 904.25  87.9   37 230  32  83
   2024 07 17 17:20  18 32 54.73    -48 19 08.7    35913 1.0165 148.7  m  12? 803.36  85.1   37 230  34  83
   2024 07 17 17:30  18 45 32.13    -48 05 55.4    37918 1.0165 150.1  m  12? 720.48  82.5   38 230  36  83
   2024 07 17 17:40  18 56 47.36    -47 49 15.8    39891 1.0165 151.2  m  12? 651.57  80.3   38 231  38  83
   2024 07 17 17:50  19 06 52.99    -47 30 17.7    41832 1.0166 152.2  e  13? 593.64  78.2   38 231  39  83
   2024 07 17 18:00  19 15 59.39    -47 09 49.0    43744 1.0166 153.0     13? 544.46  76.4   38 232  40  83
   2024 07 17 18:10  19 24 15.12    -46 48 23.4    45626 1.0166 153.7     13? 502.33  74.7   37 232  41  83
   2024 07 17 18:20  19 31 47.29    -46 26 25.1    47481 1.0166 154.3     13? 465.95  73.2   37 233  43  83
   2024 07 17 18:30  19 38 41.82    -46 04 11.3    49308 1.0166 154.9     13? 434.31  71.9   36 233  44  83
   2024 07 17 18:40  19 45 03.65    -45 41 54.4    51110 1.0166 155.3     13? 406.60  70.6   36 233  45  83
   2024 07 17 18:50  19 50 56.93    -45 19 43.2    52886 1.0166 155.7     13? 382.19  69.5   35 233  45  83
   2024 07 17 19:00  19 56 25.19    -44 57 44.2    54639 1.0166 156.0     13? 360.56  68.5   34 234  46  84
   2024 07 17 19:10  20 01 31.38    -44 36 01.8    56368 1.0166 156.3     13? 341.31  67.6   33 234  47  84
   2024 07 17 19:20  20 06 18.06    -44 14 39.3    58076 1.0166 156.5     13? 324.08  66.7   32 234  48  84
   2024 07 17 19:30  20 10 47.41    -43 53 38.7    59762 1.0167 156.7     13? 308.60  66.0   31 234  48  84
   2024 07 17 19:40  20 15 01.30    -43 33 01.7    61428 1.0167 156.8 A   14? 294.62  65.3   30 234  49  84
   2024 07 17 19:50  20 19 01.36    -43 12 49.0    63074 1.0167 156.9 A   14? 281.96  64.6   29 234  50  84
   2024 07 17 20:00  20 22 49.00    -42 53 01.3    64700 1.0167 157.0 A   14? 270.45  64.1   28 234  50  84
   2024 07 17 20:10  20 26 25.45    -42 33 38.8    66308 1.0167 157.1 N   14? 259.95  63.6   26 234  51  84
   2024 07 17 20:20  20 29 51.80    -42 14 41.5    67898 1.0167 157.1 N   14? 250.34  63.2   25 234  51  84
   2024 07 17 20:30  20 33 09.00    -41 56 09.2    69470 1.0167 157.1 N   14? 241.51  62.8   24 234  52  84
   2024 07 17 20:40  20 36 17.87    -41 38 01.8    71025 1.0167 157.1 C   14? 233.38  62.4   23 234  52  84
   2024 07 17 20:50  20 39 19.16    -41 20 19.0    72563 1.0167 157.1 C   14? 225.87  62.1   21 233  53  84
   ................
   2024 07 18 09:20  22 29 17.36    -31 41 19.7   145272 1.0170 143.2  m  15?  48.55  75.3    0 127  69  88
   2024 07 18 09:30  22 29 53.55    -31 39 18.4   145722 1.0170 143.1  m  15?  46.88  75.1    1 126  69  89
   2024 07 18 09:40  22 30 28.43    -31 37 19.6   146164 1.0170 143.0  m  15?  45.22  74.9    3 125  69  89
   2024 07 18 09:50  22 31 02.01    -31 35 22.9   146597 1.0170 142.9  m  15?  43.57  74.6    4 124  69  89
   2024 07 18 10:00  22 31 34.28    -31 33 28.1   147021 1.0170 142.8  m  15?  41.94  74.2    6 123  69  89
   2024 07 18 10:10  22 32 05.25    -31 31 34.9   147438 1.0170 142.7  m  15?  40.32  73.8    8 121  69  89
   2024 07 18 10:20  22 32 34.92    -31 29 43.1   147847 1.0170 142.6  m  15?  38.72  73.3    9 120  69  89
   2024 07 18 10:30  22 33 03.31    -31 27 52.2   148249 1.0170 142.5  m  15?  37.14  72.7   11 119  69  89
   2024 07 18 10:40  22 33 30.43    -31 26 02.0   148644 1.0171 142.4  m  15?  35.58  72.0   13 118  69  89
   2024 07 18 10:50  22 33 56.28    -31 24 12.3   149033 1.0171 142.3  m  15?  34.05  71.2   15 117  69  89
   2024 07 18 11:00  22 34 20.87    -31 22 22.7   149416 1.0171 142.3  m  15?  32.55  70.3   17 116  70  89
   2024 07 18 11:10  22 34 44.22    -31 20 33.0   149793 1.0171 142.2  m  15?  31.08  69.3   18 115  70  89
   2024 07 18 11:20  22 35 06.34    -31 18 42.9   150164 1.0171 142.1  m  15?  29.65  68.1   20 114  70  89
   2024 07 18 11:30  22 35 27.26    -31 16 52.0   150531 1.0171 142.0  m  15?  28.27  66.8   22 113  70  89
   2024 07 18 11:40  22 35 46.97    -31 15 00.2   150894 1.0171 142.0  m  15?  26.93  65.3   24 112  70  89
   2024 07 18 11:50  22 36 05.51    -31 13 07.1   151252 1.0171 141.9  m  15?  25.65  63.7   26 111  70  89
   2024 07 18 12:00  22 36 22.90    -31 11 12.5   151607 1.0171 141.9  m  15?  24.43  61.8   28 110  70  89
   2024 07 18 12:10  22 36 39.15    -31 09 16.0   151958 1.0171 141.8  m  15?  23.27  59.7   30 110  70  89
   2024 07 18 12:20  22 36 54.30    -31 07 17.6   152307 1.0171 141.8  m  15?  22.19  57.4   32 109  70  89
   2024 07 18 12:30  22 37 08.35    -31 05 16.8   152653 1.0171 141.7  m  15?  21.18  54.9   34 108  70  89
   2024 07 18 12:40  22 37 21.35    -31 03 13.4   152996 1.0171 141.7  m  15?  20.27  52.1   36 107  70  89
   2024 07 18 12:50  22 37 33.31    -31 01 07.2   153338 1.0171 141.7  m  15?  19.45  49.0   38 106  70  89
   2024 07 18 13:00  22 37 44.27    -30 58 58.0   153679 1.0171 141.6  m  15?  18.73  45.8   40 105  70  89
   2024 07 18 13:10  22 37 54.26    -30 56 45.5   154019 1.0171 141.6  m  15?  18.12  42.3   42 104  70  89
   2024 07 18 13:20  22 38 03.31    -30 54 29.5   154358 1.0171 141.6  m  15?  17.62  38.6   44 104  70  89
   2024 07 18 13:30  22 38 11.45    -30 52 09.8   154696 1.0171 141.6  m  15?  17.24  34.9   46 103  70  89
   2024 07 18 13:40  22 38 18.71    -30 49 46.1   155035 1.0171 141.6  m  15?  16.98  31.1   48 102  70  89
   2024 07 18 13:50  22 38 25.14    -30 47 18.4   155374 1.0171 141.5  m  15?  16.84  27.3   50 101  70  89
   2024 07 18 14:00  22 38 30.77    -30 44 46.3   155713 1.0171 141.5  m  15?  16.80  23.5   52 100  70  89
   2024 07 18 14:10  22 38 35.64    -30 42 09.8   156054 1.0171 141.5  m  15?  16.87  19.9   54  99  70  89
   2024 07 18 14:20  22 38 39.78    -30 39 28.7   156396 1.0171 141.5  m  15?  17.03  16.5   56  99  70  89
   2024 07 18 14:30  22 38 43.24    -30 36 42.8   156739 1.0171 141.5  m  15?  17.28  13.4   58  98  69  89
   2024 07 18 14:40  22 38 46.06    -30 33 51.9   157085 1.0171 141.5  m  15?  17.60  10.5   60  97  69  89
   2024 07 18 14:50  22 38 48.27    -30 30 56.1   157432 1.0171 141.5  m  15?  17.98   7.8   62  96  69  89
   2024 07 18 15:00  22 38 49.94    -30 27 55.0   157782 1.0171 141.5  m  15?  18.42   5.5   65  95  69  89
   2024 07 18 15:10  22 38 51.08    -30 24 48.8   158135 1.0171 141.5  m  15?  18.90   3.4   67  94  69  89
   2024 07 18 15:20  22 38 51.76    -30 21 37.2   158490 1.0171 141.5  m  15?  19.41   1.6   69  93  69  90
   2024 07 18 15:30  22 38 52.01    -30 18 20.1   158848 1.0171 141.5  m  15?  19.95   0.1   71  92  69  90
   2024 07 18 15:40  22 38 51.88    -30 14 57.6   159210 1.0171 141.5  m  15?  20.50 358.7   73  90  69  90
   2024 07 18 15:50  22 38 51.42    -30 11 29.6   159575 1.0171 141.6  m  15?  21.07 357.7   75  89  69  90
   2024 07 18 16:00  22 38 50.67    -30 07 56.1   159943 1.0171 141.6  m  15?  21.64 356.8   77  87  69  90
   2024 07 18 16:10  22 38 49.67    -30 04 17.0   160316 1.0171 141.6  m  15?  22.21 356.1   79  85  69  90
   2024 07 18 16:20  22 38 48.48    -30 00 32.3   160692 1.0171 141.6  m  15?  22.78 355.7   82  82  69  90
   2024 07 18 16:30  22 38 47.13    -29 56 42.1   161072 1.0171 141.6  m  15?  23.35 355.3   84  77  69  90
   2024 07 18 16:40  22 38 45.68    -29 52 46.3   161456 1.0171 141.6  m  15?  23.90 355.2   86  67  69  90
   2024 07 18 16:50  22 38 44.16    -29 48 45.1   161845 1.0171 141.6  m  15?  24.45 355.2   87  39  69  90
   2024 07 18 17:00  22 38 42.63    -29 44 38.4   162237 1.0171 141.7  t  15?  24.99 355.3   88 331  69  90
   2024 07 18 17:10  22 38 41.13    -29 40 26.3   162634 1.0171 141.7  m  15?  25.52 355.5   86 298  69  90
   2024 07 18 17:20  22 38 39.69    -29 36 09.0   163035 1.0171 141.7  m  15?  26.03 355.9   84 287  69  90
   2024 07 18 17:30  22 38 38.37    -29 31 46.4   163441 1.0171 141.7  m  15?  26.54 356.3   82 282  69  90
   2024 07 18 17:40  22 38 37.21    -29 27 18.8   163851 1.0171 141.7  m  15?  27.03 356.9   80 278  69  90
   2024 07 18 17:50  22 38 36.24    -29 22 46.1   164265 1.0171 141.7  m  15?  27.51 357.5   78 276  68  90
   2024 07 18 18:00  22 38 35.52    -29 18 08.6   164683 1.0171 141.7  m  15?  27.97 358.3   75 274  68  90
   2024 07 18 18:10  22 38 35.07    -29 13 26.4   165105 1.0171 141.8  m  15?  28.43 359.1   73 272  68  90
   2024 07 18 18:20  22 38 34.93    -29 08 39.6   165531 1.0171 141.8  m  15?  28.88   0.0   71 271  68  90
   2024 07 18 18:30  22 38 35.15    -29 03 48.4   165961 1.0171 141.8  m  15?  29.31   1.0   69 270  68  90
   2024 07 18 18:40  22 38 35.76    -28 58 52.9   166396 1.0171 141.8  m  15?  29.75   2.0   67 269  68  90
   2024 07 18 18:50  22 38 36.79    -28 53 53.4   166833 1.0171 141.8  m  15?  30.17   3.0   65 268  68  90
   2024 07 18 19:00  22 38 38.28    -28 48 50.0   167275 1.0171 141.8  m  15?  30.59   4.2   62 267  68  90
   2024 07 18 19:10  22 38 40.26    -28 43 42.8   167719 1.0171 141.8     15?  31.00   5.3   60 266  68  90
   2024 07 18 19:20  22 38 42.75    -28 38 32.2   168167 1.0171 141.8     15?  31.42   6.6   58 265  68  91
   2024 07 18 19:30  22 38 45.79    -28 33 18.2   168618 1.0171 141.8     15?  31.83   7.8   56 264  68  91
   2024 07 18 19:40  22 38 49.41    -28 28 01.2   169072 1.0171 141.8 A   15?  32.24   9.1   54 263  68  91
   2024 07 18 19:50  22 38 53.63    -28 22 41.2   169529 1.0171 141.8 A   15?  32.65  10.5   52 263  68  91
   2024 07 18 20:00  22 38 58.47    -28 17 18.6   169987 1.0171 141.8 A   15?  33.07  11.8   50 262  68  91
   2024 07 18 20:10  22 39 03.95    -28 11 53.6   170448 1.0171 141.8 N   15?  33.49  13.2   48 261  68  91
   2024 07 18 20:20  22 39 10.11    -28 06 26.3   170911 1.0171 141.7 N   15?  33.91  14.6   45 260  68  91
   2024 07 18 20:30  22 39 16.95    -28 00 57.0   171375 1.0171 141.7 N   15?  34.34  16.0   43 259  68  91
   2024 07 18 20:40  22 39 24.49    -27 55 26.0   171841 1.0171 141.7 C   15?  34.77  17.4   41 259  68  91
   2024 07 18 20:50  22 39 32.75    -27 49 53.4   172308 1.0171 141.7 C   15?  35.21  18.9   39 258  67  91
   ................
   2024 07 19 10:30  23 15 58.37    -22 29 51.6   186902 1.0171 133.6  r  15?  29.84  68.0    0 116  69  94
   2024 07 19 10:40  23 16 17.93    -22 28 00.1   186666 1.0171 133.5  m  15?  28.85  67.3    1 115  69  94
   2024 07 19 10:50  23 16 36.72    -22 26 09.0   186424 1.0171 133.5  m  15?  27.86  66.5    3 114  69  95
   2024 07 19 11:00  23 16 54.73    -22 24 18.2   186176 1.0171 133.4  m  15?  26.87  65.7    5 112  69  95
   2024 07 19 11:10  23 17 11.97    -22 22 27.4   185924 1.0170 133.3  m  15?  25.89  64.7    7 111  69  95
   2024 07 19 11:20  23 17 28.42    -22 20 36.6   185666 1.0170 133.3  m  15?  24.92  63.6    8 110  69  95
   2024 07 19 11:30  23 17 44.08    -22 18 45.6   185404 1.0170 133.2  m  15?  23.96  62.3   10 109  69  95
   2024 07 19 11:40  23 17 58.95    -22 16 54.0   185139 1.0170 133.2  m  15?  23.02  60.9   12 108  69  95
   2024 07 19 11:50  23 18 13.02    -22 15 01.9   184869 1.0170 133.1  m  15?  22.10  59.4   14 107  69  95
   2024 07 19 12:00  23 18 26.29    -22 13 08.9   184597 1.0170 133.1  m  15?  21.21  57.7   16 105  69  95
   2024 07 19 12:10  23 18 38.77    -22 11 14.9   184322 1.0170 133.0  m  15?  20.35  55.7   18 104  69  95
   2024 07 19 12:20  23 18 50.45    -22 09 19.8   184044 1.0170 133.0  m  15?  19.53  53.6   20 103  69  95
   2024 07 19 12:30  23 19 01.35    -22 07 23.2   183764 1.0170 132.9  m  15?  18.75  51.3   22 102  69  95
   2024 07 19 12:40  23 19 11.46    -22 05 25.1   183483 1.0170 132.9  m  15?  18.03  48.7   24 101  69  95
   2024 07 19 12:50  23 19 20.79    -22 03 25.3   183200 1.0170 132.9  m  15?  17.36  46.0   27 100  69  95
   2024 07 19 13:00  23 19 29.36    -22 01 23.6   182917 1.0170 132.8  m  15?  16.77  42.9   29  99  69  95
   2024 07 19 13:10  23 19 37.16    -21 59 19.8   182633 1.0170 132.8  m  15?  16.24  39.7   31  98  69  95
   2024 07 19 13:20  23 19 44.22    -21 57 13.7   182349 1.0170 132.8  m  15?  15.79  36.3   33  96  69  95
   2024 07 19 13:30  23 19 50.54    -21 55 05.1   182066 1.0170 132.8  m  15?  15.42  32.7   35  95  69  95
   2024 07 19 13:40  23 19 56.14    -21 52 54.0   181783 1.0170 132.7  m  15?  15.15  29.0   37  94  69  95
   2024 07 19 13:50  23 20 01.04    -21 50 40.0   181501 1.0170 132.7  m  15?  14.96  25.2   39  93  69  95
   2024 07 19 14:00  23 20 05.24    -21 48 23.2   181220 1.0170 132.7  m  15?  14.86  21.4   41  92  69  95
   2024 07 19 14:10  23 20 08.78    -21 46 03.2   180941 1.0170 132.7  m  15?  14.86  17.7   43  90  68  95
   2024 07 19 14:20  23 20 11.66    -21 43 39.9   180664 1.0170 132.7  m  15?  14.93  14.0   45  89  68  95
   2024 07 19 14:30  23 20 13.92    -21 41 13.3   180389 1.0170 132.7  m  15?  15.09  10.6   48  88  68  95
   2024 07 19 14:40  23 20 15.57    -21 38 43.1   180117 1.0170 132.7  m  15?  15.32   7.3   50  86  68  95
   2024 07 19 14:50  23 20 16.64    -21 36 09.2   179848 1.0170 132.7  m  15?  15.61   4.2   52  85  68  95
   2024 07 19 15:00  23 20 17.15    -21 33 31.5   179583 1.0170 132.7  m  15?  15.97   1.4   54  83  68  95
   2024 07 19 15:10  23 20 17.13    -21 30 49.8   179320 1.0170 132.7  m  15?  16.37 358.8   56  81  68  95
   2024 07 19 15:20  23 20 16.61    -21 28 04.0   179062 1.0170 132.7  m  15?  16.80 356.5   58  79  68  95
   2024 07 19 15:30  23 20 15.62    -21 25 14.1   178808 1.0170 132.7  m  15?  17.28 354.5   60  77  68  95
   2024 07 19 15:40  23 20 14.18    -21 22 19.9   178557 1.0170 132.7  m  15?  17.77 352.7   62  75  68  95
   2024 07 19 15:50  23 20 12.34    -21 19 21.3   178312 1.0170 132.7  m  15?  18.29 351.1   64  72  68  95
   2024 07 19 16:00  23 20 10.11    -21 16 18.3   178070 1.0170 132.7  m  15?  18.82 349.8   66  69  68  95
   2024 07 19 16:10  23 20 07.54    -21 13 10.6   177834 1.0170 132.7  m  15?  19.35 348.7   68  66  68  95
   2024 07 19 16:20  23 20 04.66    -21 09 58.4   177603 1.0170 132.7  m  15?  19.89 347.8   70  62  68  95
   2024 07 19 16:30  23 20 01.50    -21 06 41.5   177377 1.0170 132.7  m  15?  20.43 347.1   72  57  68  95
   2024 07 19 16:40  23 19 58.10    -21 03 19.9   177156 1.0170 132.7  m  15?  20.96 346.6   74  52  68  95
   2024 07 19 16:50  23 19 54.50    -20 59 53.5   176941 1.0170 132.7  m  15?  21.49 346.2   75  45  68  95
   2024 07 19 17:00  23 19 50.72    -20 56 22.3   176731 1.0170 132.7  m  15?  22.01 345.9   77  37  68  95
   2024 07 19 17:10  23 19 46.82    -20 52 46.2   176526 1.0170 132.7  m  15?  22.52 345.8   78  27  68  95
   2024 07 19 17:20  23 19 42.83    -20 49 05.4   176328 1.0170 132.8  m  15?  23.01 345.9   79  15  67  95
   2024 07 19 17:30  23 19 38.78    -20 45 19.6   176135 1.0170 132.8  m  15?  23.50 346.1   79   3  67  95
   2024 07 19 17:40  23 19 34.71    -20 41 29.0   175947 1.0170 132.8  t  15?  23.97 346.3   79 350  67  95
   2024 07 19 17:50  23 19 30.67    -20 37 33.6   175766 1.0170 132.8  m  15?  24.42 346.7   78 338  67  95
   2024 07 19 18:00  23 19 26.69    -20 33 33.4   175590 1.0170 132.8  m  15?  24.87 347.2   77 328  67  95
   2024 07 19 18:10  23 19 22.80    -20 29 28.4   175419 1.0170 132.8  m  15?  25.30 347.8   76 319  67  95
   2024 07 19 18:20  23 19 19.05    -20 25 18.7   175255 1.0170 132.8  m  15?  25.71 348.5   74 312  67  96
   2024 07 19 18:30  23 19 15.48    -20 21 04.3   175095 1.0170 132.8  m  15?  26.12 349.3   72 306  67  96
   2024 07 19 18:40  23 19 12.12    -20 16 45.2   174941 1.0170 132.8  m  15?  26.51 350.2   71 302  67  96
   2024 07 19 18:50  23 19 09.01    -20 12 21.6   174793 1.0170 132.8  m  15?  26.90 351.1   69 297  67  96
   2024 07 19 19:00  23 19 06.19    -20 07 53.6   174649 1.0170 132.8  m  15?  27.28 352.2   67 294  67  96
   2024 07 19 19:10  23 19 03.68    -20 03 21.1   174511 1.0169 132.8  m  15?  27.65 353.3   65 291  67  96
   2024 07 19 19:20  23 19 01.54    -19 58 44.4   174377 1.0169 132.8  m  15?  28.01 354.4   63 288  67  96
   2024 07 19 19:30  23 18 59.79    -19 54 03.4   174248 1.0169 132.8  m  15?  28.38 355.7   61 286  67  96
   2024 07 19 19:40  23 18 58.47    -19 49 18.3   174123 1.0169 132.8 Am  15?  28.74 357.0   58 284  66  96
   2024 07 19 19:50  23 18 57.60    -19 44 29.3   174003 1.0169 132.8 Am  15?  29.11 358.3   56 282  66  96
   2024 07 19 20:00  23 18 57.23    -19 39 36.4   173886 1.0169 132.8 Am  15?  29.48 359.8   54 280  66  96
   2024 07 19 20:10  23 18 57.38    -19 34 39.8   173774 1.0169 132.8 N   15?  29.85   1.3   52 278  66  96
   2024 07 19 20:20  23 18 58.08    -19 29 39.5   173665 1.0169 132.8 N   15?  30.24   2.8   50 277  66  96
   2024 07 19 20:30  23 18 59.37    -19 24 35.8   173558 1.0169 132.8 N   15?  30.63   4.3   48 275  66  96
   2024 07 19 20:40  23 19 01.26    -19 19 28.7   173455 1.0169 132.8 C   15?  31.04   5.9   46 274  66  96
   2024 07 19 20:50  23 19 03.79    -19 14 18.4   173355 1.0169 132.8 C   15?  31.46   7.5   43 273  66  96
   ................
   2024 07 20 11:50  00 03 14.04    -10 56 51.1   134302 1.0166 120.9  m  14?  59.72  50.0    0 102  69  98
   2024 07 20 12:00  00 03 44.67    -10 50 25.2   133348 1.0166 120.8  m  14?  59.39  49.0    2 100  70  98
   2024 07 20 12:10  00 04 14.65    -10 43 53.4   132387 1.0166 120.7  m  14?  59.08  48.0    4  99  70  98
   2024 07 20 12:20  00 04 43.97    -10 37 15.4   131418 1.0166 120.5  m  14?  58.79  46.9    6  98  70  98
   2024 07 20 12:30  00 05 12.62    -10 30 30.9   130443 1.0166 120.4  m  14?  58.54  45.8    8  97  70  98
   2024 07 20 12:40  00 05 40.59    -10 23 39.7   129461 1.0166 120.2  m  14?  58.33  44.6   10  95  70  98
   2024 07 20 12:50  00 06 07.87    -10 16 41.4   128473 1.0166 120.1  m  14?  58.16  43.4   12  94  70  98
   2024 07 20 13:00  00 06 34.46    -10 09 35.6   127478 1.0166 120.0  m  14?  58.03  42.2   14  93  70  98
   2024 07 20 13:10  00 07 00.35    -10 02 22.2   126478 1.0165 119.8  m  14?  57.95  40.9   16  91  70  98
   2024 07 20 13:20  00 07 25.54    -09 55 00.6   125473 1.0165 119.7  m  14?  57.92  39.6   18  90  70  98
   2024 07 20 13:30  00 07 50.02    -09 47 30.7   124463 1.0165 119.6  m  14?  57.94  38.3   20  89  70  98
   2024 07 20 13:40  00 08 13.81    -09 39 52.0   123447 1.0165 119.5  m  14?  58.03  36.9   22  87  70  98
   2024 07 20 13:50  00 08 36.90    -09 32 04.3   122428 1.0165 119.3  m  14?  58.18  35.6   24  86  71  98
   2024 07 20 14:00  00 08 59.29    -09 24 07.0   121404 1.0165 119.2  m  14?  58.39  34.2   26  84  71  98
   2024 07 20 14:10  00 09 21.00    -09 16 00.0   120376 1.0165 119.1  m  14?  58.67  32.9   28  83  71  98
   2024 07 20 14:20  00 09 42.02    -09 07 42.8   119344 1.0165 119.0  m  14?  59.02  31.5   30  81  71  98
   2024 07 20 14:30  00 10 02.37    -08 59 15.0   118309 1.0165 118.9  m  14?  59.45  30.2   32  80  71  98
   2024 07 20 14:40  00 10 22.06    -08 50 36.2   117271 1.0165 118.7  m  14?  59.95  28.9   34  78  71  98
   2024 07 20 14:50  00 10 41.10    -08 41 46.1   116230 1.0165 118.6  m  14?  60.53  27.6   36  76  71  98
   2024 07 20 15:00  00 10 59.51    -08 32 44.2   115186 1.0165 118.5  m  14?  61.19  26.3   38  74  71  98
   2024 07 20 15:10  00 11 17.31    -08 23 30.2   114140 1.0165 118.4  m  14?  61.92  25.0   40  73  71  98
   2024 07 20 15:20  00 11 34.52    -08 14 03.6   113092 1.0165 118.3  m  14?  62.73  23.8   41  71  71  98
   2024 07 20 15:30  00 11 51.15    -08 04 24.0   112041 1.0165 118.2  m  14?  63.63  22.7   43  68  71  98
   2024 07 20 15:40  00 12 07.24    -07 54 30.9   110988 1.0165 118.1  m  14?  64.60  21.6   45  66  71  98
   2024 07 20 15:50  00 12 22.80    -07 44 24.0   109934 1.0165 118.0  m  14?  65.65  20.5   47  64  71  98
   2024 07 20 16:00  00 12 37.88    -07 34 02.7   108878 1.0165 117.8  m  14?  66.79  19.5   49  61  71  98
   2024 07 20 16:10  00 12 52.49    -07 23 26.6   107820 1.0164 117.7  m  14?  68.00  18.6   50  59  72  98
   2024 07 20 16:20  00 13 06.68    -07 12 35.2   106761 1.0164 117.6  m  14?  69.29  17.7   52  56  72  99
   2024 07 20 16:30  00 13 20.49    -07 01 28.0   105701 1.0164 117.5  m  14?  70.67  16.9   54  53  72  99
   2024 07 20 16:40  00 13 33.94    -06 50 04.5   104639 1.0164 117.4  m  14?  72.12  16.2   55  49  72  99
   2024 07 20 16:50  00 13 47.08    -06 38 24.2   103576 1.0164 117.3  m  14?  73.65  15.5   57  46  72  99
   2024 07 20 17:00  00 13 59.96    -06 26 26.5   102512 1.0164 117.2  m  14?  75.26  14.9   58  42  72  99
   2024 07 20 17:10  00 14 12.63    -06 14 11.0   101446 1.0164 117.1  m  14?  76.95  14.3   59  38  72  99
   2024 07 20 17:20  00 14 25.13    -06 01 37.0   100379 1.0164 117.0  m  13?  78.73  13.8   60  33  72  99
   2024 07 20 17:30  00 14 37.51    -05 48 43.9    99311 1.0164 116.8  m  13?  80.58  13.4   61  28  72  99
   2024 07 20 17:40  00 14 49.83    -05 35 31.2    98241 1.0164 116.7  m  13?  82.52  13.1   62  23  72  99
   2024 07 20 17:50  00 15 02.15    -05 21 58.2    97170 1.0164 116.6  m  13?  84.55  12.8   62  18  72  99
   2024 07 20 18:00  00 15 14.52    -05 08 04.2    96097 1.0164 116.5  m  13?  86.66  12.6   63  13  72  99
   2024 07 20 18:10  00 15 27.02    -04 53 48.5    95022 1.0164 116.4  m  13?  88.86  12.4   63   7  72  99
   2024 07 20 18:20  00 15 39.71    -04 39 10.5    93945 1.0164 116.2  e  13?  91.16  12.3   63   2  72  99
   2024 07 20 18:30  00 15 52.65    -04 24 09.3    92866 1.0164 116.1  t  13?  93.56  12.3   62 357  72  99
   2024 07 20 18:40  00 16 05.92    -04 08 44.2    91784 1.0164 116.0  m  13?  96.06  12.3   62 351  72  99
   2024 07 20 18:50  00 16 19.60    -03 52 54.3    90700 1.0164 115.8  m  13?  98.67  12.4   61 346  73  99
   2024 07 20 19:00  00 16 33.75    -03 36 38.7    89612 1.0163 115.7  m  13? 101.40  12.5   61 341  73  99
   2024 07 20 19:10  00 16 48.47    -03 19 56.4    88521 1.0163 115.5  m  13? 104.25  12.7   60 337  73  99
   2024 07 20 19:20  00 17 03.84    -03 02 46.6    87427 1.0163 115.4  m  13? 107.23  12.9   58 333  73  99
   2024 07 20 19:30  00 17 19.95    -02 45 08.0    86328 1.0163 115.2  m  13? 110.35  13.1   57 329  73  99
   2024 07 20 19:40  00 17 36.88    -02 26 59.6    85224 1.0163 115.0 Am  13? 113.62  13.4   56 325  73  99
   2024 07 20 19:50  00 17 54.74    -02 08 20.1    84116 1.0163 114.9 Am  13? 117.05  13.8   54 321  73  99
   2024 07 20 20:00  00 18 13.62    -01 49 08.2    83002 1.0163 114.7 Am  13? 120.66  14.1   53 318  73  99
   2024 07 20 20:10  00 18 33.63    -01 29 22.5    81881 1.0163 114.5 Nm  13? 124.45  14.6   51 315  73  99
   2024 07 20 20:20  00 18 54.88    -01 09 01.4    80755 1.0163 114.3 Nm  13? 128.45  15.0   49 313  73  99
   2024 07 20 20:30  00 19 17.47    -00 48 03.3    79620 1.0163 114.1 Nm  13? 132.67  15.4   47 310  74  99
   2024 07 20 20:40  00 19 41.54    -00 26 26.5    78478 1.0163 113.8 Cm  13? 137.12  15.9   46 308  74  99
   2024 07 20 20:50  00 20 07.19    -00 04 08.8    77328 1.0163 113.6 Cm  13? 141.83  16.4   44 306  74  99
   ................
   2024 07 21 07:30  20 56 36.60    -42 10 20.1    57767 1.0164 155.5 Cm  13? 256.03  81.5    5 136  20  99
   2024 07 21 07:40  21 00 17.43    -42 04 03.8    59320 1.0164 155.2 Cm  13? 240.68  80.8    6 136  20  99
   2024 07 21 07:50  21 03 44.49    -41 57 42.5    60840 1.0164 154.9 Nm  13? 226.63  80.1    7 135  20  99
   2024 07 21 08:00  21 06 58.92    -41 51 18.8    62327 1.0164 154.6 Nm  13? 213.73  79.5    8 134  21  99
   2024 07 21 08:10  21 10 01.75    -41 44 54.4    63782 1.0164 154.4 Nm  14? 201.82  78.9    9 133  21  99
   2024 07 21 08:20  21 12 53.87    -41 38 30.8    65207 1.0164 154.1 Am  14? 190.81  78.3   10 132  21  99
   2024 07 21 08:30  21 15 36.09    -41 32 08.9    66603 1.0164 153.9 Am  14? 180.59  77.7   11 131  21  99
   2024 07 21 08:40  21 18 09.11    -41 25 49.5    67972 1.0164 153.6 Am  14? 171.07  77.1   12 131  22  99
   2024 07 21 08:50  21 20 33.57    -41 19 33.1    69314 1.0165 153.4  m  14? 162.20  76.5   13 130  22  99
   2024 07 21 09:00  21 22 50.03    -41 13 20.0    70631 1.0165 153.2  m  14? 153.89  75.9   14 129  22  99
   2024 07 21 09:10  21 24 59.03    -41 07 10.4    71923 1.0165 153.0  m  14? 146.12  75.3   16 128  22  99
   2024 07 21 09:20  21 27 01.01    -41 01 04.2    73191 1.0165 152.8  m  14? 138.81  74.7   17 127  22  99
   2024 07 21 09:30  21 28 56.41    -40 55 01.5    74438 1.0165 152.6  m  14? 131.95  74.0   18 126  23  99
   2024 07 21 09:40  21 30 45.62    -40 49 02.1    75662 1.0165 152.4  m  14? 125.49  73.3   20 126  23  99
   2024 07 21 09:50  21 32 28.98    -40 43 05.8    76866 1.0165 152.2  m  14? 119.41  72.6   21 125  23  99
   2024 07 21 10:00  21 34 06.82    -40 37 12.2    78050 1.0165 152.0  m  14? 113.67  71.8   23 124  23  99
   2024 07 21 10:10  21 35 39.44    -40 31 21.3    79215 1.0165 151.9  m  14? 108.25  71.0   24 123  23  99
   2024 07 21 10:20  21 37 07.13    -40 25 32.5    80361 1.0165 151.7  m  14? 103.15  70.2   26 123  23  99
   2024 07 21 10:30  21 38 30.13    -40 19 45.6    81490 1.0165 151.6  m  14?  98.33  69.3   27 122  23  99
   2024 07 21 10:40  21 39 48.69    -40 14 00.2    82603 1.0165 151.4  m  14?  93.78  68.3   29 121  24  99
   2024 07 21 10:50  21 41 03.04    -40 08 16.0    83699 1.0165 151.3  m  14?  89.50  67.3   30 120  24  99
   2024 07 21 11:00  21 42 13.38    -40 02 32.5    84780 1.0165 151.2  m  14?  85.46  66.2   32 120  24  99
   2024 07 21 11:10  21 43 19.92    -39 56 49.4    85847 1.0165 151.1  m  14?  81.67  65.1   33 119  24  99
   2024 07 21 11:20  21 44 22.85    -39 51 06.3    86900 1.0166 151.0  m  14?  78.11  63.8   35 119  24  99
   2024 07 21 11:30  21 45 22.33    -39 45 22.8    87939 1.0166 150.9  m  14?  74.77  62.5   37 118  24  99
   2024 07 21 11:40  21 46 18.55    -39 39 38.6    88966 1.0166 150.8  m  14?  71.65  61.2   38 117  24  99
   2024 07 21 11:50  21 47 11.66    -39 33 53.2    89981 1.0166 150.7  m  14?  68.75  59.7   40 117  24  99
   2024 07 21 12:00  21 48 01.82    -39 28 06.4    90985 1.0166 150.6  m  14?  66.05  58.2   42 116  24  99
   2024 07 21 12:10  21 48 49.19    -39 22 17.7    91978 1.0166 150.5  m  14?  63.56  56.5   44 116  24  99
   2024 07 21 12:20  21 49 33.89    -39 16 26.9    92960 1.0166 150.5  m  14?  61.26  54.9   45 115  24  99
   2024 07 21 12:30  21 50 16.07    -39 10 33.6    93934 1.0166 150.4  m  14?  59.16  53.1   47 115  24  99
   2024 07 21 12:40  21 50 55.87    -39 04 37.6    94898 1.0166 150.4  m  14?  57.26  51.3   49 114  24  99
   2024 07 21 12:50  21 51 33.40    -38 58 38.6    95854 1.0166 150.3  m  14?  55.53  49.4   51 114  24  99
   2024 07 21 13:00  21 52 08.80    -38 52 36.2    96802 1.0166 150.3  m  14?  53.99  47.5   53 114  24  99
   2024 07 21 13:10  21 52 42.19    -38 46 30.3    97742 1.0166 150.2  m  14?  52.62  45.6   54 114  24  99
   2024 07 21 13:20  21 53 13.69    -38 40 20.5    98676 1.0166 150.2  m  14?  51.43  43.7   56 113  24  99
   2024 07 21 13:30  21 53 43.40    -38 34 06.8    99603 1.0166 150.2  m  14?  50.39  41.7   58 113  24  99
   2024 07 21 13:40  21 54 11.44    -38 27 49.0   100525 1.0166 150.1  m  14?  49.50  39.8   60 113  24  99
   2024 07 21 13:50  21 54 37.92    -38 21 26.7   101440 1.0166 150.1  m  14?  48.76  37.9   62 113  24  99
   2024 07 21 14:00  21 55 02.95    -38 15 00.0   102351 1.0166 150.1  m  14?  48.16  36.1   64 113  24  99
   2024 07 21 14:10  21 55 26.62    -38 08 28.7   103257 1.0166 150.1  m  14?  47.68  34.3   66 114  24  99
   2024 07 21 14:20  21 55 49.05    -38 01 52.6   104159 1.0166 150.1  m  14?  47.31  32.6   68 114  24  99
   2024 07 21 14:30  21 56 10.32    -37 55 11.7   105056 1.0167 150.1  m  14?  47.06  31.0   70 115  24  99
   2024 07 21 14:40  21 56 30.53    -37 48 26.0   105951 1.0167 150.1  m  14?  46.89  29.5   71 116  24  99
   2024 07 21 14:50  21 56 49.78    -37 41 35.3   106842 1.0167 150.1  m  15?  46.82  28.1   73 117  24  99
   2024 07 21 15:00  21 57 08.15    -37 34 39.8   107730 1.0167 150.1  m  15?  46.82  26.7   75 119  24  99
   2024 07 21 15:10  21 57 25.74    -37 27 39.2   108615 1.0167 150.1  m  15?  46.88  25.5   77 122  24  99
   2024 07 21 15:20  21 57 42.64    -37 20 33.8   109498 1.0167 150.1  m  15?  47.01  24.5   79 126  24  99
   2024 07 21 15:30  21 57 58.91    -37 13 23.5   110380 1.0167 150.1  m  15?  47.19  23.5   80 132  24  99
   2024 07 21 15:40  21 58 14.65    -37 06 08.3   111259 1.0167 150.1  m  15?  47.41  22.7   82 140  24  99
   2024 07 21 15:50  21 58 29.94    -36 58 48.5   112137 1.0167 150.1  m  15?  47.66  21.9   83 153  24  99
   2024 07 21 16:00  21 58 44.85    -36 51 24.0   113014 1.0167 150.1  m  15?  47.95  21.3   84 170  24  99
   2024 07 21 16:10  21 58 59.45    -36 43 54.9   113889 1.0167 150.2  t  15?  48.26  20.8   84 191  24  99
   2024 07 21 16:20  21 59 13.82    -36 36 21.5   114764 1.0167 150.2  m  15?  48.59  20.4   83 210  24  99
   2024 07 21 16:30  21 59 28.03    -36 28 43.8   115637 1.0167 150.2  m  15?  48.94  20.1   82 223  24  99
   2024 07 21 16:40  21 59 42.14    -36 21 02.0   116510 1.0167 150.2  m  15?  49.30  19.8   81 233  24  99
   2024 07 21 16:50  21 59 56.21    -36 13 16.3   117383 1.0167 150.2  m  15?  49.66  19.7   79 239  24  99
   2024 07 21 17:00  22 00 10.31    -36 05 26.8   118255 1.0167 150.2  m  15?  50.04  19.7   77 243  24  99
   2024 07 21 17:10  22 00 24.50    -35 57 33.9   119126 1.0167 150.3  m  15?  50.42  19.7   75 246  24  99
   2024 07 21 17:20  22 00 38.83    -35 49 37.6   119997 1.0167 150.3  m  15?  50.80  19.9   73 248  24  99
   2024 07 21 17:30  22 00 53.35    -35 41 38.2   120868 1.0167 150.3  m  15?  51.18  20.1   72 250  24  99
   2024 07 21 17:40  22 01 08.12    -35 33 36.0   121739 1.0167 150.3  m  15?  51.56  20.3   70 251  24  99
   2024 07 21 17:50  22 01 23.18    -35 25 31.2   122609 1.0167 150.3  m  15?  51.94  20.7   68 252  24  99
   2024 07 21 18:00  22 01 38.58    -35 17 24.0   123480 1.0167 150.3  m  15?  52.32  21.1   66 252  24  99
   2024 07 21 18:10  22 01 54.36    -35 09 14.7   124349 1.0167 150.3  m  15?  52.70  21.5   64 253  24  99
   2024 07 21 18:20  22 02 10.56    -35 01 03.5   125219 1.0167 150.3  m  15?  53.07  22.0   62 253  24  99
   2024 07 21 18:30  22 02 27.23    -34 52 50.8   126088 1.0167 150.3  m  15?  53.44  22.6   60 253  23  99
   2024 07 21 18:40  22 02 44.38    -34 44 36.8   126957 1.0167 150.3  m  15?  53.81  23.2   58 253  23  99
   2024 07 21 18:50  22 03 02.06    -34 36 21.8   127825 1.0168 150.3  m  15?  54.17  23.9   56 253  23  99
   2024 07 21 19:00  22 03 20.30    -34 28 06.0   128692 1.0168 150.3  m  15?  54.53  24.6   54 253  23  99
   2024 07 21 19:10  22 03 39.13    -34 19 49.7   129559 1.0168 150.3  m  15?  54.89  25.3   52 253  23  99
   2024 07 21 19:20  22 03 58.56    -34 11 33.3   130424 1.0168 150.3  m  15?  55.25  26.0   50 252  23  99
   2024 07 21 19:30  22 04 18.62    -34 03 17.0   131288 1.0168 150.3  m  15?  55.60  26.8   48 252  23  99
   2024 07 21 19:40  22 04 39.34    -33 55 01.0   132152 1.0168 150.3 Am  15?  55.95  27.6   46 252  23  99
   2024 07 21 19:50  22 05 00.73    -33 46 45.7   133013 1.0168 150.2 Am  15?  56.30  28.5   44 251  23  99
   2024 07 21 20:00  22 05 22.79    -33 38 31.3   133873 1.0168 150.2 Am  15?  56.65  29.3   42 251  23  99
   2024 07 21 20:10  22 05 45.56    -33 30 18.2   134732 1.0168 150.2 Nm  15?  56.99  30.2   40 250  23  99
   2024 07 21 20:20  22 06 09.04    -33 22 06.5   135588 1.0168 150.2 Nm  15?  57.34  31.1   38 250  23  99
   2024 07 21 20:30  22 06 33.24    -33 13 56.6   136442 1.0168 150.1 Nm  15?  57.68  32.0   36 249  23  99
   2024 07 21 20:40  22 06 58.16    -33 05 48.6   137293 1.0168 150.1 Cm  15?  58.02  32.9   34 249  23  99
   2024 07 21 20:50  22 07 23.81    -32 57 43.0   138142 1.0168 150.1 Cm  15?  58.35  33.9   32 248  23  99
   ................
   2024 07 22 09:50  22 55 17.32    -26 55 34.6   177259 1.0169 141.1  m  15?  32.10  72.7    0 121  24  98
   2024 07 22 10:00  22 55 39.85    -26 53 59.6   177339 1.0169 141.0  m  15?  30.93  72.3    2 120  24  98
   2024 07 22 10:10  22 56 01.48    -26 52 25.7   177413 1.0169 141.0  m  15?  29.76  71.8    4 118  24  98
   2024 07 22 10:20  22 56 22.21    -26 50 52.7   177480 1.0169 140.9  m  15?  28.59  71.2    6 117  24  98
   2024 07 22 10:30  22 56 42.02    -26 49 20.4   177542 1.0169 140.8  m  15?  27.42  70.5    7 116  24  98
   2024 07 22 10:40  22 57 00.93    -26 47 48.6   177598 1.0169 140.8  m  15?  26.26  69.7    9 115  24  98
   2024 07 22 10:50  22 57 18.92    -26 46 17.0   177650 1.0169 140.7  m  15?  25.12  68.7   11 114  24  98
   2024 07 22 11:00  22 57 35.99    -26 44 45.5   177696 1.0169 140.6  m  15?  23.99  67.7   13 113  24  98
   2024 07 22 11:10  22 57 52.15    -26 43 13.9   177739 1.0169 140.6  m  15?  22.88  66.4   15 112  24  98
   2024 07 22 11:20  22 58 07.41    -26 41 41.8   177778 1.0169 140.5  m  15?  21.80  65.0   17 111  24  98
   2024 07 22 11:30  22 58 21.75    -26 40 09.1   177813 1.0169 140.5  m  15?  20.74  63.5   19 109  24  98
   2024 07 22 11:40  22 58 35.20    -26 38 35.6   177845 1.0169 140.4  m  15?  19.72  61.7   21 108  24  98
   2024 07 22 11:50  22 58 47.75    -26 37 01.0   177874 1.0169 140.4  m  15?  18.74  59.6   23 107  24  98
   2024 07 22 12:00  22 58 59.42    -26 35 25.2   177901 1.0169 140.4  m  15?  17.81  57.3   25 106  24  98
   2024 07 22 12:10  22 59 10.22    -26 33 47.9   177927 1.0169 140.3  m  15?  16.94  54.8   27 105  24  98
   2024 07 22 12:20  22 59 20.15    -26 32 09.0   177950 1.0169 140.3  m  15?  16.13  51.9   29 104  24  98
   2024 07 22 12:30  22 59 29.24    -26 30 28.1   177973 1.0169 140.3  m  15?  15.39  48.7   31 103  24  98
   2024 07 22 12:40  22 59 37.49    -26 28 45.1   177995 1.0169 140.3  m  15?  14.73  45.3   33 102  24  98
   2024 07 22 12:50  22 59 44.92    -26 26 59.8   178016 1.0169 140.2  m  15?  14.15  41.5   35 101  24  98
   2024 07 22 13:00  22 59 51.55    -26 25 12.0   178038 1.0169 140.2  m  15?  13.68  37.4   37 100  24  98
   2024 07 22 13:10  22 59 57.40    -26 23 21.5   178059 1.0169 140.2  m  15?  13.31  33.2   39  99  24  98
   2024 07 22 13:20  23 00 02.48    -26 21 28.1   178082 1.0169 140.2  m  15?  13.05  28.7   41  98  24  98
   2024 07 22 13:30  23 00 06.83    -26 19 31.7   178105 1.0169 140.2  m  15?  12.89  24.3   43  97  24  98
   2024 07 22 13:40  23 00 10.46    -26 17 32.0   178130 1.0169 140.2  m  15?  12.85  19.8   45  96  24  98
   2024 07 22 13:50  23 00 13.40    -26 15 28.9   178157 1.0169 140.2  m  15?  12.90  15.5   47  95  24  97
   2024 07 22 14:00  23 00 15.68    -26 13 22.2   178186 1.0169 140.2  m  15?  13.06  11.3   50  94  24  97
   2024 07 22 14:10  23 00 17.32    -26 11 11.8   178217 1.0169 140.2  m  15?  13.30   7.5   52  93  24  97
   2024 07 22 14:20  23 00 18.35    -26 08 57.5   178250 1.0169 140.2  m  15?  13.61   3.9   54  91  24  97
   2024 07 22 14:30  23 00 18.80    -26 06 39.2   178287 1.0169 140.2  m  15?  13.99   0.7   56  90  24  97
   2024 07 22 14:40  23 00 18.70    -26 04 16.7   178327 1.0169 140.2  m  15?  14.42 357.8   58  89  24  97
   2024 07 22 14:50  23 00 18.08    -26 01 49.9   178370 1.0169 140.2  m  15?  14.89 355.3   60  87  24  97
   2024 07 22 15:00  23 00 16.98    -25 59 18.7   178417 1.0169 140.2  m  15?  15.40 353.1   62  86  24  97
   2024 07 22 15:10  23 00 15.43    -25 56 43.1   178468 1.0169 140.2  m  15?  15.93 351.2   64  84  24  97
   2024 07 22 15:20  23 00 13.47    -25 54 02.8   178524 1.0169 140.2  m  15?  16.47 349.6   67  82  23  97
   2024 07 22 15:30  23 00 11.13    -25 51 17.9   178583 1.0169 140.2  m  15?  17.03 348.2   69  80  23  97
   2024 07 22 15:40  23 00 08.45    -25 48 28.2   178648 1.0169 140.2  m  15?  17.59 347.2   71  77  23  97
   2024 07 22 15:50  23 00 05.46    -25 45 33.8   178717 1.0169 140.3  m  15?  18.15 346.3   73  74  23  97
   2024 07 22 16:00  23 00 02.20    -25 42 34.4   178790 1.0169 140.3  m  15?  18.70 345.7   75  70  23  97
   2024 07 22 16:10  22 59 58.72    -25 39 30.2   178869 1.0169 140.3  m  15?  19.25 345.2   77  66  23  97
   2024 07 22 16:20  22 59 55.04    -25 36 21.0   178953 1.0169 140.3  m  15?  19.79 344.9   79  60  23  97
   2024 07 22 16:30  22 59 51.21    -25 33 06.9   179043 1.0169 140.3  m  15?  20.31 344.8   80  51  23  97
   2024 07 22 16:40  22 59 47.27    -25 29 47.9   179137 1.0169 140.3  m  15?  20.82 344.8   82  39  23  97
   2024 07 22 16:50  22 59 43.26    -25 26 23.8   179237 1.0169 140.4  m  15?  21.32 344.9   83  22  23  97
   2024 07 22 17:00  22 59 39.21    -25 22 54.9   179343 1.0169 140.4  m  15?  21.80 345.2   83   2  23  97
   2024 07 22 17:10  22 59 35.16    -25 19 21.0   179454 1.0169 140.4  t  15?  22.27 345.6   83 341  23  97
   2024 07 22 17:20  22 59 31.16    -25 15 42.3   179570 1.0169 140.4  m  15?  22.72 346.1   82 324  23  97
   2024 07 22 17:30  22 59 27.24    -25 11 58.7   179692 1.0169 140.4  m  15?  23.15 346.7   81 312  23  97
   2024 07 22 17:40  22 59 23.44    -25 08 10.4   179820 1.0169 140.5  m  15?  23.57 347.4   79 303  23  97
   2024 07 22 17:50  22 59 19.79    -25 04 17.4   179953 1.0169 140.5  m  15?  23.98 348.2   77 297  22  97
   2024 07 22 18:00  22 59 16.34    -25 00 19.8   180091 1.0169 140.5  m  15?  24.37 349.1   75 292  22  97
   2024 07 22 18:10  22 59 13.13    -24 56 17.7   180234 1.0169 140.5  m  15?  24.75 350.1   73 288  22  97
   2024 07 22 18:20  22 59 10.18    -24 52 11.1   180383 1.0169 140.5  m  15?  25.12 351.1   71 285  22  97
   2024 07 22 18:30  22 59 07.54    -24 48 00.2   180537 1.0169 140.5  m  15?  25.48 352.2   69 282  22  97
   2024 07 22 18:40  22 59 05.23    -24 43 45.2   180696 1.0169 140.6  m  15?  25.83 353.4   67 280  22  97
   2024 07 22 18:50  22 59 03.30    -24 39 26.0   180859 1.0169 140.6  m  15?  26.17 354.6   64 278  22  97
   2024 07 22 19:00  22 59 01.76    -24 35 02.9   181027 1.0169 140.6  m  15?  26.51 356.0   62 276  22  97
   2024 07 22 19:10  22 59 00.67    -24 30 36.0   181200 1.0169 140.6  m  15?  26.85 357.3   60 275  22  97
   2024 07 22 19:20  22 59 00.04    -24 26 05.5   181376 1.0169 140.6  m  15?  27.19 358.7   58 273  22  97
   2024 07 22 19:30  22 58 59.90    -24 21 31.4   181557 1.0169 140.6  m  15?  27.52   0.3   56 272  22  97
   2024 07 22 19:40  22 59 00.29    -24 16 54.0   181741 1.0169 140.6 Am  15?  27.86   1.8   54 271  22  97
   2024 07 22 19:50  22 59 01.23    -24 12 13.4   181929 1.0169 140.6 Am  15?  28.21   3.3   51 270  22  97
   2024 07 22 20:00  22 59 02.74    -24 07 29.8   182121 1.0169 140.6 Am  15?  28.56   4.9   49 268  22  97
   2024 07 22 20:10  22 59 04.85    -24 02 43.4   182315 1.0169 140.6 Nm  15?  28.91   6.5   47 267  21  97
   2024 07 22 20:20  22 59 07.59    -23 57 54.3   182512 1.0169 140.6 Nm  15?  29.28   8.1   45 266  21  97
   2024 07 22 20:30  22 59 10.96    -23 53 02.7   182711 1.0169 140.6 Nm  15?  29.66   9.8   43 265  21  97
   2024 07 22 20:40  22 59 15.00    -23 48 08.8   182912 1.0168 140.5 Cm  15?  30.05  11.4   41 264  21  97
   2024 07 22 20:50  22 59 19.72    -23 43 12.9   183116 1.0168 140.5 Cm  15?  30.45  13.1   38 263  21  97
   ................
   2024 07 23 10:50  23 34 09.53    -18 07 32.6   175415 1.0167 132.3  m  15?  32.99  60.3    0 110  20  93
   2024 07 23 11:00  23 34 29.25    -18 04 48.6   174894 1.0167 132.2  m  15?  32.12  59.3    2 109  20  93
   2024 07 23 11:10  23 34 48.23    -18 02 04.0   174367 1.0167 132.1  m  15?  31.26  58.2    4 108  20  93
   2024 07 23 11:20  23 35 06.46    -17 59 18.5   173835 1.0167 132.0  m  15?  30.41  57.0    6 107  20  93
   2024 07 23 11:30  23 35 23.93    -17 56 32.0   173297 1.0167 132.0  m  15?  29.57  55.7    8 105  20  93
   2024 07 23 11:40  23 35 40.63    -17 53 44.3   172755 1.0167 131.9  m  15?  28.75  54.3   10 104  20  93
   2024 07 23 11:50  23 35 56.57    -17 50 55.3   172209 1.0167 131.8  m  15?  27.96  52.7   12 103  20  93
   2024 07 23 12:00  23 36 11.74    -17 48 04.8   171660 1.0167 131.8  m  15?  27.19  51.1   14 102  20  93
   2024 07 23 12:10  23 36 26.12    -17 45 12.5   171106 1.0166 131.7  m  15?  26.46  49.2   16 100  20  93
   2024 07 23 12:20  23 36 39.73    -17 42 18.4   170550 1.0166 131.7  m  15?  25.76  47.3   18  99  20  93
   2024 07 23 12:30  23 36 52.56    -17 39 22.2   169991 1.0166 131.6  m  15?  25.11  45.2   20  98  20  93
   2024 07 23 12:40  23 37 04.62    -17 36 23.8   169430 1.0166 131.6  m  15?  24.51  43.0   22  97  20  93
   2024 07 23 12:50  23 37 15.90    -17 33 23.0   168868 1.0166 131.5  m  15?  23.96  40.7   24  96  20  93
   2024 07 23 13:00  23 37 26.41    -17 30 19.7   168303 1.0166 131.5  m  15?  23.47  38.3   26  94  20  93
   2024 07 23 13:10  23 37 36.16    -17 27 13.6   167738 1.0166 131.4  m  15?  23.04  35.7   28  93  20  93
   2024 07 23 13:20  23 37 45.15    -17 24 04.5   167172 1.0166 131.4  m  15?  22.69  33.1   30  92  20  93
   2024 07 23 13:30  23 37 53.40    -17 20 52.4   166605 1.0166 131.3  m  15?  22.40  30.4   32  91  20  93
   2024 07 23 13:40  23 38 00.91    -17 17 37.1   166039 1.0166 131.3  m  15?  22.19  27.6   35  89  20  93
   2024 07 23 13:50  23 38 07.70    -17 14 18.3   165473 1.0166 131.3  m  15?  22.05  24.9   37  88  20  93
   2024 07 23 14:00  23 38 13.78    -17 10 55.9   164907 1.0166 131.3  m  15?  21.99  22.1   39  86  20  93
   2024 07 23 14:10  23 38 19.17    -17 07 29.7   164343 1.0166 131.2  m  15?  22.00  19.3   41  85  20  93
   2024 07 23 14:20  23 38 23.88    -17 03 59.7   163780 1.0166 131.2  m  15?  22.08  16.7   43  83  20  93
   2024 07 23 14:30  23 38 27.93    -17 00 25.6   163218 1.0166 131.2  m  15?  22.24  14.1   45  82  20  93
   2024 07 23 14:40  23 38 31.35    -16 56 47.2   162659 1.0166 131.2  m  15?  22.45  11.6   47  80  20  93
   2024 07 23 14:50  23 38 34.15    -16 53 04.6   162102 1.0166 131.1  m  15?  22.73   9.2   49  78  20  93
   2024 07 23 15:00  23 38 36.36    -16 49 17.4   161547 1.0166 131.1  m  15?  23.07   7.0   51  76  20  93
   2024 07 23 15:10  23 38 38.01    -16 45 25.6   160995 1.0166 131.1  m  15?  23.45   5.0   53  74  20  93
   2024 07 23 15:20  23 38 39.11    -16 41 29.0   160447 1.0166 131.1  m  15?  23.88   3.1   55  72  19  93
   2024 07 23 15:30  23 38 39.71    -16 37 27.6   159901 1.0166 131.1  m  15?  24.35   1.3   57  70  19  93
   2024 07 23 15:40  23 38 39.82    -16 33 21.1   159359 1.0166 131.1  m  15?  24.85 359.7   59  67  19  93
   2024 07 23 15:50  23 38 39.48    -16 29 09.6   158821 1.0166 131.1  m  15?  25.37 358.3   61  64  19  93
   2024 07 23 16:00  23 38 38.72    -16 24 52.8   158286 1.0166 131.1  m  15?  25.92 357.0   63  61  19  93
   2024 07 23 16:10  23 38 37.57    -16 20 30.7   157756 1.0166 131.1  m  15?  26.49 355.9   65  57  19  93
   2024 07 23 16:20  23 38 36.07    -16 16 03.2   157230 1.0166 131.1  m  15?  27.07 355.0   66  53  19  93
   2024 07 23 16:30  23 38 34.26    -16 11 30.2   156708 1.0166 131.1  m  15?  27.66 354.2   68  48  19  92
   2024 07 23 16:40  23 38 32.17    -16 06 51.7   156191 1.0166 131.1  m  15?  28.26 353.6   70  43  19  92
   2024 07 23 16:50  23 38 29.83    -16 02 07.5   155679 1.0166 131.1  m  15?  28.85 353.1   71  36  19  92
   2024 07 23 17:00  23 38 27.30    -15 57 17.7   155171 1.0165 131.1  m  15?  29.45 352.7   72  29  19  92
   2024 07 23 17:10  23 38 24.60    -15 52 22.1   154667 1.0165 131.1  m  15?  30.05 352.4   73  22  19  92
   2024 07 23 17:20  23 38 21.77    -15 47 20.7   154169 1.0165 131.1  m  15?  30.65 352.3   73  13  19  92
   2024 07 23 17:30  23 38 18.87    -15 42 13.5   153675 1.0165 131.0  m  15?  31.23 352.3   74   4  19  92
   2024 07 23 17:40  23 38 15.92    -15 37 00.5   153186 1.0165 131.0  t  15?  31.82 352.4   74 356  19  92
   2024 07 23 17:50  23 38 12.98    -15 31 41.7   152702 1.0165 131.0  m  15?  32.39 352.6   73 347  19  92
   2024 07 23 18:00  23 38 10.08    -15 26 17.0   152223 1.0165 131.0  m  15?  32.96 352.9   73 339  18  92
   2024 07 23 18:10  23 38 07.27    -15 20 46.4   151748 1.0165 131.0  m  15?  33.53 353.2   72 331  18  92
   2024 07 23 18:20  23 38 04.59    -15 15 09.9   151278 1.0165 131.0  m  15?  34.08 353.7   70 325  18  92
   2024 07 23 18:30  23 38 02.08    -15 09 27.7   150813 1.0165 131.0  m  15?  34.63 354.3   69 319  18  92
   2024 07 23 18:40  23 37 59.79    -15 03 39.6   150351 1.0165 131.0  m  15?  35.18 354.9   67 314  18  92
   2024 07 23 18:50  23 37 57.76    -14 57 45.7   149895 1.0165 131.0  m  15?  35.72 355.7   66 309  18  92
   2024 07 23 19:00  23 37 56.03    -14 51 46.1   149442 1.0165 131.0  m  15?  36.26 356.5   64 305  18  92
   2024 07 23 19:10  23 37 54.65    -14 45 40.7   148993 1.0165 131.0  m  15?  36.80 357.4   62 302  18  92
   2024 07 23 19:20  23 37 53.66    -14 39 29.7   148548 1.0165 131.0  m  15?  37.35 358.3   60 298  18  92
   2024 07 23 19:30  23 37 53.09    -14 33 13.1   148106 1.0165 131.0  m  15?  37.89 359.3   58 296  18  92
   2024 07 23 19:40  23 37 53.00    -14 26 51.0   147668 1.0165 130.9 Am  15?  38.44   0.4   56 293  18  92
   2024 07 23 19:50  23 37 53.42    -14 20 23.4   147232 1.0165 130.9 Am  15?  39.00   1.6   54 291  18  92
   2024 07 23 20:00  23 37 54.39    -14 13 50.3   146800 1.0165 130.9 Am  15?  39.57   2.8   52 288  18  92
   2024 07 23 20:10  23 37 55.96    -14 07 12.0   146370 1.0165 130.9 Nm  15?  40.15   4.0   50 287  18  92
   2024 07 23 20:20  23 37 58.15    -14 00 28.4   145942 1.0165 130.8 Nm  15?  40.74   5.3   48 285  18  92
   2024 07 23 20:30  23 38 01.01    -13 53 39.6   145516 1.0165 130.8 Nm  15?  41.36   6.6   46 283  17  92
   2024 07 23 20:40  23 38 04.58    -13 46 45.7   145091 1.0165 130.8 Cm  15?  41.99   7.9   44 281  17  92
   2024 07 23 20:50  23 38 08.89    -13 39 46.9   144668 1.0165 130.7 Cm  15?  42.65   9.3   41 280  17  92
   ................
   2024 07 24 17:10  15 46 50.26    -38 47 43.7    21286 1.0158 119.4  r  10? 2723.4 118.5    4 226 102  85
   2024 07 24 17:20  16 18 57.66    -41 47 10.8    23350 1.0159 125.5  m  11? 2215.7 113.0    9 226  95  85
   2024 07 24 17:30  16 47 27.79    -43 45 44.7    25462 1.0159 130.4  m  11? 1833.8 107.9   13 226  90  85
   2024 07 24 17:40  17 12 35.63    -45 01 52.7    27590 1.0159 134.4  m  11? 1543.2 103.2   16 226  85  85
   2024 07 24 17:50  17 34 41.59    -45 48 32.1    29714 1.0159 137.7  m  11? 1318.6  99.0   18 227  81  85
   2024 07 24 18:00  17 54 07.97    -46 14 40.8    31823 1.0159 140.5  m  12? 1142.2  95.3   20 227  78  85
   2024 07 24 18:10  18 11 16.52    -46 26 30.5    33911 1.0159 142.9  m  12? 1001.5  91.9   21 227  75  85
   2024 07 24 18:20  18 26 27.08    -46 28 18.5    35972 1.0160 144.9  m  12? 887.63  89.0   22 228  73  85
   2024 07 24 18:30  18 39 57.02    -46 23 04.1    38006 1.0160 146.7  m  12? 794.24  86.3   22 228  70  85
   2024 07 24 18:40  18 52 01.23    -46 12 53.1    40010 1.0160 148.2  m  12? 716.71  84.0   22 228  68  85
   2024 07 24 18:50  19 02 52.28    -45 59 14.6    41986 1.0160 149.6  e  12? 651.63  81.8   22 229  67  85
   2024 07 24 19:00  19 12 40.70    -45 43 12.2    43932 1.0160 150.8  m  13? 596.45  80.0   22 229  65  85
   2024 07 24 19:10  19 21 35.31    -45 25 31.9    45850 1.0160 151.8  m  13? 549.24  78.3   22 229  64  85
   2024 07 24 19:20  19 29 43.51    -45 06 46.6    47739 1.0160 152.7  m  13? 508.52  76.7   22 229  62  85
   2024 07 24 19:30  19 37 11.46    -44 47 20.8    49602 1.0160 153.5  m  13? 473.14  75.3   21 229  61  85
   2024 07 24 19:40  19 44 04.38    -44 27 32.0    51438 1.0161 154.3 Am  13? 442.18  74.1   20 229  60  84
   2024 07 24 19:50  19 50 26.64    -44 07 33.5    53249 1.0161 154.9 Am  13? 414.91  73.0   20 229  59  84
   2024 07 24 20:00  19 56 21.97    -43 47 34.7    55035 1.0161 155.5 Am  13? 390.76  72.0   19 229  58  84
   2024 07 24 20:10  20 01 53.54    -43 27 42.8    56797 1.0161 156.0 Nm  13? 369.26  71.0   18 229  57  84
   2024 07 24 20:20  20 07 04.04    -43 08 03.0    58535 1.0161 156.4 Nm  13? 350.02  70.2   17 229  56  84
   2024 07 24 20:30  20 11 55.79    -42 48 39.1    60251 1.0161 156.8 Nm  13? 332.73  69.5   16 229  55  84
   2024 07 24 20:40  20 16 30.82    -42 29 33.8    61945 1.0161 157.2 Cm  14? 317.11  68.8   15 229  54  84
   2024 07 24 20:50  20 20 50.83    -42 10 49.2    63617 1.0161 157.5 Cm  14? 302.95  68.2   14 229  53  84
   ................
   2024 07 25 08:50  22 26 26.52    -32 20 22.6   138911 1.0165 148.8     15?  51.27  74.8    0 128  36  79
   2024 07 25 09:00  22 27 04.87    -32 18 10.7   139425 1.0165 148.7     15?  49.47  74.6    2 127  36  79
   2024 07 25 09:10  22 27 41.79    -32 16 01.4   139929 1.0165 148.6     15?  47.68  74.3    3 125  36  79
   2024 07 25 09:20  22 28 17.30    -32 13 54.5   140423 1.0165 148.5     15?  45.91  74.0    5 124  36  79
   2024 07 25 09:30  22 28 51.39    -32 11 49.6   140909 1.0165 148.4     15?  44.16  73.6    6 123  36  78
   2024 07 25 09:40  22 29 24.08    -32 09 46.6   141387 1.0165 148.3     15?  42.43  73.1    8 122  36  78
   2024 07 25 09:50  22 29 55.38    -32 07 45.0   141856 1.0165 148.2     15?  40.72  72.6   10 121  36  78
   2024 07 25 10:00  22 30 25.30    -32 05 44.5   142318 1.0165 148.1     15?  39.04  72.0   12 120  36  78
   2024 07 25 10:10  22 30 53.85    -32 03 44.9   142773 1.0165 148.0     15?  37.38  71.3   13 119  36  78
   2024 07 25 10:20  22 31 21.05    -32 01 45.8   143221 1.0165 147.9     15?  35.76  70.5   15 118  36  78
   2024 07 25 10:30  22 31 46.90    -31 59 47.0   143662 1.0165 147.9     15?  34.18  69.5   17 117  36  78
   2024 07 25 10:40  22 32 11.43    -31 57 48.1   144097 1.0165 147.8     15?  32.63  68.5   19 116  36  78
   2024 07 25 10:50  22 32 34.65    -31 55 48.9   144526 1.0165 147.7     15?  31.13  67.3   21 115  36  78
   2024 07 25 11:00  22 32 56.59    -31 53 49.0   144951 1.0165 147.7     15?  29.67  65.9   22 114  36  78
   2024 07 25 11:10  22 33 17.25    -31 51 48.1   145370 1.0165 147.6     15?  28.27  64.4   24 113  36  78
   2024 07 25 11:20  22 33 36.67    -31 49 46.0   145784 1.0165 147.6     15?  26.93  62.7   26 112  36  78
   2024 07 25 11:30  22 33 54.87    -31 47 42.4   146195 1.0165 147.5     15?  25.66  60.8   28 111  36  78
   2024 07 25 11:40  22 34 11.87    -31 45 37.1   146602 1.0165 147.5  m  15?  24.45  58.7   30 110  36  78
   2024 07 25 11:50  22 34 27.70    -31 43 29.6   147005 1.0165 147.4  m  15?  23.33  56.4   32 109  36  77
   2024 07 25 12:00  22 34 42.38    -31 41 19.8   147406 1.0165 147.4  m  15?  22.29  53.8   34 109  36  77
   2024 07 25 12:10  22 34 55.95    -31 39 07.4   147804 1.0165 147.4  m  15?  21.35  51.0   36 108  36  77
   2024 07 25 12:20  22 35 08.44    -31 36 52.2   148200 1.0165 147.3  m  15?  20.51  48.0   38 107  36  77
   2024 07 25 12:30  22 35 19.86    -31 34 33.8   148594 1.0165 147.3  m  15?  19.77  44.7   40 106  36  77
   2024 07 25 12:40  22 35 30.27    -31 32 12.1   148987 1.0165 147.3  m  15?  19.15  41.3   42 105  36  77
   2024 07 25 12:50  22 35 39.70    -31 29 46.9   149379 1.0166 147.3  m  15?  18.65  37.7   44 104  36  77
   2024 07 25 13:00  22 35 48.17    -31 27 17.9   149769 1.0166 147.2  m  15?  18.26  34.0   46 104  36  77
   2024 07 25 13:10  22 35 55.73    -31 24 44.9   150160 1.0166 147.2  m  15?  18.00  30.3   48 103  36  77
   2024 07 25 13:20  22 36 02.42    -31 22 07.6   150551 1.0166 147.2  m  15?  17.86  26.6   50 102  36  77
   2024 07 25 13:30  22 36 08.27    -31 19 26.1   150941 1.0166 147.2  m  15?  17.83  22.9   52 101  36  77
   2024 07 25 13:40  22 36 13.32    -31 16 39.9   151333 1.0166 147.2  m  15?  17.90  19.5   54 100  36  77
   2024 07 25 13:50  22 36 17.63    -31 13 49.1   151725 1.0166 147.2  m  15?  18.07  16.1   56 100  36  77
   2024 07 25 14:00  22 36 21.22    -31 10 53.3   152119 1.0166 147.2  m  15?  18.32  13.1   58  99  36  77
   2024 07 25 14:10  22 36 24.15    -31 07 52.6   152514 1.0166 147.2  m  15?  18.65  10.2   60  98  36  77
   2024 07 25 14:20  22 36 26.45    -31 04 46.7   152911 1.0166 147.2  m  15?  19.04   7.7   63  97  36  77
   2024 07 25 14:30  22 36 28.18    -31 01 35.6   153310 1.0166 147.2  m  15?  19.49   5.4   65  96  36  76
   2024 07 25 14:40  22 36 29.37    -30 58 19.1   153712 1.0166 147.3  m  15?  19.97   3.4   67  95  36  76
   2024 07 25 14:50  22 36 30.08    -30 54 57.2   154116 1.0166 147.3  m  15?  20.49   1.6   69  94  36  76
   2024 07 25 15:00  22 36 30.34    -30 51 29.8   154522 1.0166 147.3  m  15?  21.04   0.1   71  93  36  76
   2024 07 25 15:10  22 36 30.22    -30 47 56.8   154932 1.0166 147.3  m  15?  21.60 358.8   73  92  36  76
   2024 07 25 15:20  22 36 29.75    -30 44 18.2   155344 1.0166 147.3  m  15?  22.17 357.8   75  91  36  76
   2024 07 25 15:30  22 36 28.98    -30 40 34.0   155760 1.0166 147.4  m  15?  22.75 356.9   77  90  36  76
   2024 07 25 15:40  22 36 27.97    -30 36 44.2   156180 1.0166 147.4  m  15?  23.33 356.3   80  88  36  76
   2024 07 25 15:50  22 36 26.75    -30 32 48.7   156603 1.0166 147.4  m  15?  23.90 355.8   82  86  36  76
   2024 07 25 16:00  22 36 25.37    -30 28 47.6   157029 1.0166 147.4  m  15?  24.48 355.5   84  82  36  76
   2024 07 25 16:10  22 36 23.89    -30 24 40.9   157460 1.0166 147.4  m  15?  25.04 355.4   86  75  36  76
   2024 07 25 16:20  22 36 22.34    -30 20 28.6   157894 1.0166 147.5  m  15?  25.59 355.3   88  51  36  76
   2024 07 25 16:30  22 36 20.78    -30 16 10.9   158333 1.0166 147.5  t  15?  26.14 355.4   88 322  36  76
   2024 07 25 16:40  22 36 19.24    -30 11 47.7   158775 1.0166 147.5  m  15?  26.67 355.7   86 290  37  76
   2024 07 25 16:50  22 36 17.79    -30 07 19.2   159221 1.0166 147.5  m  15?  27.18 356.0   84 282  37  76
   2024 07 25 17:00  22 36 16.45    -30 02 45.5   159672 1.0166 147.6  m  15?  27.69 356.5   82 278  37  76
   2024 07 25 17:10  22 36 15.27    -29 58 06.6   160126 1.0166 147.6  m  15?  28.18 357.0   80 275  37  76
   2024 07 25 17:20  22 36 14.29    -29 53 22.8   160584 1.0166 147.6  m  15?  28.66 357.6   78 273  37  76
   2024 07 25 17:30  22 36 13.56    -29 48 34.1   161047 1.0166 147.6  m  15?  29.13 358.4   76 272  37  76
   2024 07 25 17:40  22 36 13.12    -29 43 40.6   161513 1.0166 147.7  m  15?  29.58 359.2   73 271  37  76
   2024 07 25 17:50  22 36 13.00    -29 38 42.6   161983 1.0166 147.7  m  15?  30.03   0.1   71 270  37  76
   2024 07 25 18:00  22 36 13.25    -29 33 40.2   162457 1.0166 147.7  m  15?  30.47   1.0   69 269  37  75
   2024 07 25 18:10  22 36 13.89    -29 28 33.6   162935 1.0166 147.7  m  15?  30.89   2.0   67 268  37  75
   2024 07 25 18:20  22 36 14.97    -29 23 22.9   163416 1.0166 147.7  m  15?  31.31   3.0   65 267  37  75
   2024 07 25 18:30  22 36 16.51    -29 18 08.4   163900 1.0166 147.8  m  15?  31.73   4.2   63 266  37  75
   2024 07 25 18:40  22 36 18.55    -29 12 50.2   164387 1.0166 147.8  m  15?  32.14   5.3   60 265  37  75
   2024 07 25 18:50  22 36 21.12    -29 07 28.5   164878 1.0166 147.8  m  15?  32.54   6.5   58 264  37  75
   2024 07 25 19:00  22 36 24.26    -29 02 03.7   165371 1.0166 147.8  m  15?  32.95   7.8   56 263  37  75
   2024 07 25 19:10  22 36 27.97    -28 56 35.8   165868 1.0166 147.8  m  15?  33.35   9.0   54 263  37  75
   2024 07 25 19:20  22 36 32.30    -28 51 05.1   166366 1.0166 147.8  m  15?  33.76  10.3   52 262  37  75
   2024 07 25 19:30  22 36 37.26    -28 45 31.8   166867 1.0166 147.8  m  15?  34.16  11.7   50 261  37  75
   2024 07 25 19:40  22 36 42.88    -28 39 56.2   167369 1.0166 147.8 Am  15?  34.57  13.0   48 260  37  75
   2024 07 25 19:50  22 36 49.18    -28 34 18.5   167874 1.0166 147.8 Am  15?  34.98  14.4   46 260  37  75
   2024 07 25 20:00  22 36 56.18    -28 28 38.9   168380 1.0166 147.8 Am  15?  35.39  15.8   43 259  37  75
   2024 07 25 20:10  22 37 03.89    -28 22 57.7   168886 1.0166 147.8 Nm  15?  35.82  17.2   41 258  36  75
   2024 07 25 20:20  22 37 12.33    -28 17 15.0   169394 1.0166 147.8 Nm  15?  36.24  18.7   39 257  36  75
   2024 07 25 20:30  22 37 21.51    -28 11 31.2   169903 1.0166 147.8 Cm  15?  36.67  20.1   37 256  36  75
   2024 07 25 20:40  22 37 31.44    -28 05 46.4   170411 1.0166 147.7 Cm  15?  37.11  21.5   35 256  36  75
   ................
   2024 07 26 10:00  23 13 42.59    -22 53 16.8   187186 1.0166 140.2  r  15?  29.15  68.1    0 117  35  68
   2024 07 26 10:10  23 14 01.78    -22 51 28.0   186988 1.0166 140.2     15?  28.15  67.4    1 115  35  68
   2024 07 26 10:20  23 14 20.20    -22 49 39.7   186785 1.0166 140.1     15?  27.14  66.6    3 114  35  68
   2024 07 26 10:30  23 14 37.84    -22 47 51.7   186576 1.0166 140.0     15?  26.15  65.7    5 113  35  68
   2024 07 26 10:40  23 14 54.69    -22 46 03.9   186362 1.0166 140.0     15?  25.15  64.7    7 112  35  68
   2024 07 26 10:50  23 15 10.74    -22 44 16.0   186143 1.0166 139.9     15?  24.17  63.6    9 110  35  68
   2024 07 26 11:00  23 15 26.00    -22 42 28.0   185919 1.0166 139.9     15?  23.21  62.3   11 109  35  68
   2024 07 26 11:10  23 15 40.45    -22 40 39.5   185692 1.0166 139.8     15?  22.26  60.9   13 108  35  67
   2024 07 26 11:20  23 15 54.10    -22 38 50.5   185461 1.0166 139.8     15?  21.33  59.3   15 107  35  67
   2024 07 26 11:30  23 16 06.96    -22 37 00.7   185227 1.0166 139.7     15?  20.43  57.5   17 106  35  67
   2024 07 26 11:40  23 16 19.01    -22 35 09.9   184991 1.0166 139.7     15?  19.57  55.5   19 105  35  67
   2024 07 26 11:50  23 16 30.26    -22 33 18.0   184752 1.0166 139.6     15?  18.75  53.3   21 104  35  67
   2024 07 26 12:00  23 16 40.72    -22 31 24.7   184510 1.0166 139.6     15?  17.98  50.8   23 103  36  67
   2024 07 26 12:10  23 16 50.39    -22 29 30.0   184268 1.0166 139.6     15?  17.26  48.1   25 101  36  67
   2024 07 26 12:20  23 16 59.29    -22 27 33.5   184024 1.0166 139.5     15?  16.60  45.2   27 100  36  67
   2024 07 26 12:30  23 17 07.41    -22 25 35.2   183779 1.0166 139.5     15?  16.01  42.0   29  99  36  67
   2024 07 26 12:40  23 17 14.77    -22 23 34.8   183534 1.0166 139.5     15?  15.49  38.6   31  98  36  67
   2024 07 26 12:50  23 17 21.37    -22 21 32.2   183289 1.0165 139.5  m  15?  15.06  35.0   33  97  36  67
   2024 07 26 13:00  23 17 27.25    -22 19 27.2   183044 1.0165 139.4  m  15?  14.72  31.2   35  96  36  67
   2024 07 26 13:10  23 17 32.39    -22 17 19.6   182799 1.0165 139.4  m  15?  14.46  27.3   37  95  36  66
   2024 07 26 13:20  23 17 36.84    -22 15 09.2   182556 1.0165 139.4  m  15?  14.30  23.4   39  93  36  66
   2024 07 26 13:30  23 17 40.59    -22 12 55.9   182314 1.0165 139.4  m  15?  14.24  19.4   41  92  36  66
   2024 07 26 13:40  23 17 43.67    -22 10 39.6   182074 1.0165 139.4  m  15?  14.26  15.5   43  91  36  66
   2024 07 26 13:50  23 17 46.11    -22 08 20.0   181836 1.0165 139.4  m  15?  14.37  11.7   46  90  36  66
   2024 07 26 14:00  23 17 47.91    -22 05 57.1   181600 1.0165 139.4  m  15?  14.57   8.2   48  88  36  66
   2024 07 26 14:10  23 17 49.11    -22 03 30.6   181367 1.0165 139.4  m  15?  14.83   4.8   50  87  36  66
   2024 07 26 14:20  23 17 49.73    -22 01 00.5   181137 1.0165 139.4  m  15?  15.16   1.7   52  85  36  66
   2024 07 26 14:30  23 17 49.80    -21 58 26.6   180911 1.0165 139.4  m  15?  15.54 358.8   54  84  36  66
   2024 07 26 14:40  23 17 49.34    -21 55 48.8   180687 1.0165 139.4  m  15?  15.96 356.3   56  82  36  66
   2024 07 26 14:50  23 17 48.37    -21 53 06.9   180468 1.0165 139.4  m  15?  16.43 354.0   58  80  36  66
   2024 07 26 15:00  23 17 46.94    -21 50 20.9   180253 1.0165 139.4  m  15?  16.92 352.1   60  78  36  66
   2024 07 26 15:10  23 17 45.07    -21 47 30.6   180042 1.0165 139.4  m  15?  17.43 350.3   62  76  37  66
   2024 07 26 15:20  23 17 42.79    -21 44 36.0   179835 1.0165 139.4  m  15?  17.96 348.8   64  73  37  66
   2024 07 26 15:30  23 17 40.14    -21 41 37.0   179633 1.0165 139.4  m  15?  18.50 347.6   66  70  37  66
   2024 07 26 15:40  23 17 37.14    -21 38 33.5   179436 1.0165 139.4  m  15?  19.04 346.5   68  67  37  65
   2024 07 26 15:50  23 17 33.84    -21 35 25.4   179244 1.0165 139.5  m  15?  19.59 345.7   70  63  37  65
   2024 07 26 16:00  23 17 30.26    -21 32 12.7   179058 1.0165 139.5  m  15?  20.13 345.0   72  58  37  65
   2024 07 26 16:10  23 17 26.45    -21 28 55.3   178876 1.0165 139.5  m  15?  20.66 344.5   74  53  37  65
   2024 07 26 16:20  23 17 22.43    -21 25 33.1   178701 1.0165 139.5  m  15?  21.19 344.2   76  46  37  65
   2024 07 26 16:30  23 17 18.25    -21 22 06.2   178530 1.0165 139.5  m  15?  21.70 344.0   77  38  37  65
   2024 07 26 16:40  23 17 13.94    -21 18 34.6   178366 1.0165 139.5  m  15?  22.20 344.0   78  28  37  65
   2024 07 26 16:50  23 17 09.55    -21 14 58.1   178207 1.0165 139.6  m  15?  22.69 344.1   79  16  37  65
   2024 07 26 17:00  23 17 05.10    -21 11 16.9   178053 1.0165 139.6  m  15?  23.16 344.3   79   3  37  65
   2024 07 26 17:10  23 17 00.64    -21 07 30.9   177906 1.0165 139.6  t  15?  23.62 344.6   79 350  37  65
   2024 07 26 17:20  23 16 56.21    -21 03 40.1   177764 1.0165 139.6  m  15?  24.06 345.0   78 338  37  65
   2024 07 26 17:30  23 16 51.83    -20 59 44.6   177628 1.0165 139.6  m  15?  24.49 345.6   77 327  37  65
   2024 07 26 17:40  23 16 47.56    -20 55 44.4   177498 1.0165 139.6  m  15?  24.91 346.2   76 318  37  65
   2024 07 26 17:50  23 16 43.43    -20 51 39.5   177373 1.0165 139.7  m  15?  25.31 346.9   74 311  37  65
   2024 07 26 18:00  23 16 39.47    -20 47 30.1   177254 1.0165 139.7  m  15?  25.69 347.7   73 305  37  65
   2024 07 26 18:10  23 16 35.73    -20 43 16.1   177140 1.0165 139.7  m  15?  26.07 348.7   71 300  37  65
   2024 07 26 18:20  23 16 32.24    -20 38 57.6   177032 1.0165 139.7  m  15?  26.43 349.6   69 296  37  65
   2024 07 26 18:30  23 16 29.04    -20 34 34.8   176929 1.0165 139.7  m  15?  26.79 350.7   67 293  37  65
   2024 07 26 18:40  23 16 26.15    -20 30 07.6   176831 1.0165 139.7  m  15?  27.14 351.8   65 290  37  65
   2024 07 26 18:50  23 16 23.63    -20 25 36.2   176738 1.0165 139.7  m  15?  27.48 353.0   63 287  37  64
   2024 07 26 19:00  23 16 21.49    -20 21 00.8   176649 1.0165 139.7  m  15?  27.82 354.3   61 285  37  64
   2024 07 26 19:10  23 16 19.78    -20 16 21.4   176565 1.0165 139.7  m  15?  28.16 355.6   59 283  37  64
   2024 07 26 19:20  23 16 18.53    -20 11 38.0   176486 1.0165 139.7  m  15?  28.49 357.0   56 281  37  64
   2024 07 26 19:30  23 16 17.76    -20 06 51.0   176410 1.0165 139.7  m  15?  28.84 358.5   54 279  37  64
   2024 07 26 19:40  23 16 17.52    -20 02 00.3   176339 1.0165 139.7 Am  15?  29.18   0.0   52 278  37  64
   2024 07 26 19:50  23 16 17.82    -19 57 06.1   176270 1.0165 139.7 Am  15?  29.54   1.5   50 276  37  64
   2024 07 26 20:00  23 16 18.70    -19 52 08.6   176206 1.0165 139.7 Nm  15?  29.90   3.1   48 275  37  64
   2024 07 26 20:10  23 16 20.18    -19 47 07.8   176144 1.0165 139.7 Nm  15?  30.27   4.7   46 273  37  64
   2024 07 26 20:20  23 16 22.29    -19 42 04.0   176085 1.0165 139.7 Nm  15?  30.66   6.4   44 272  37  64
   2024 07 26 20:30  23 16 25.05    -19 36 57.2   176028 1.0165 139.7 Cm  15?  31.06   8.0   41 271  37  64
   2024 07 26 20:40  23 16 28.49    -19 31 47.7   175973 1.0164 139.7 Cm  15?  31.47   9.7   39 269  37  64
   ................
   2024 07 27 11:10  23 57 30.76    -12 00 08.7   142445 1.0161 129.1  r  15?  52.63  51.2    0 104  34  56
   2024 07 27 11:20  23 57 58.39    -11 54 35.9   141567 1.0161 128.9     15?  52.13  50.2    1 102  34  56
   2024 07 27 11:30  23 58 25.34    -11 48 58.8   140680 1.0161 128.8     15?  51.66  49.1    3 101  34  56
   2024 07 27 11:40  23 58 51.59    -11 43 17.1   139788 1.0161 128.7     15?  51.20  47.9    5 100  34  56
   2024 07 27 11:50  23 59 17.13    -11 37 30.6   138888 1.0161 128.6     14?  50.77  46.7    7  98  34  56
   2024 07 27 12:00  23 59 41.95    -11 31 39.1   137983 1.0161 128.5     14?  50.37  45.5    9  97  34  56
   2024 07 27 12:10  00 00 06.05    -11 25 42.3   137071 1.0161 128.4     14?  50.01  44.2   11  96  34  56
   2024 07 27 12:20  00 00 29.41    -11 19 40.0   136154 1.0161 128.2     14?  49.68  42.9   13  94  34  56
   2024 07 27 12:30  00 00 52.03    -11 13 31.8   135232 1.0161 128.1     14?  49.39  41.5   15  93  34  56
   2024 07 27 12:40  00 01 13.90    -11 07 17.6   134305 1.0161 128.0     14?  49.15  40.0   17  92  34  56
   2024 07 27 12:50  00 01 35.04    -11 00 57.1   133374 1.0161 127.9     14?  48.96  38.6   19  90  34  55
   2024 07 27 13:00  00 01 55.42    -10 54 30.0   132439 1.0161 127.8     14?  48.83  37.1   21  89  34  55
   2024 07 27 13:10  00 02 15.06    -10 47 56.0   131499 1.0161 127.7     14?  48.74  35.6   23  88  34  55
   2024 07 27 13:20  00 02 33.95    -10 41 14.9   130556 1.0161 127.6     14?  48.72  34.0   25  86  34  55
   2024 07 27 13:30  00 02 52.11    -10 34 26.3   129610 1.0160 127.5     14?  48.76  32.5   27  85  33  55
   2024 07 27 13:40  00 03 09.53    -10 27 30.0   128661 1.0160 127.4     14?  48.87  30.9   29  83  33  55
   2024 07 27 13:50  00 03 26.23    -10 20 25.8   127709 1.0160 127.3  m  14?  49.04  29.4   31  82  33  55
   2024 07 27 14:00  00 03 42.20    -10 13 13.2   126755 1.0160 127.2  m  14?  49.28  27.9   33  80  33  55
   2024 07 27 14:10  00 03 57.48    -10 05 52.1   125799 1.0160 127.2  m  14?  49.59  26.4   35  79  33  55
   2024 07 27 14:20  00 04 12.06    -09 58 22.2   124841 1.0160 127.1  m  14?  49.97  24.9   37  77  33  55
   2024 07 27 14:30  00 04 25.96    -09 50 43.0   123882 1.0160 127.0  m  14?  50.41  23.4   39  75  33  55
   2024 07 27 14:40  00 04 39.20    -09 42 54.5   122921 1.0160 126.9  m  14?  50.93  22.0   41  73  33  55
   2024 07 27 14:50  00 04 51.81    -09 34 56.1   121960 1.0160 126.8  m  14?  51.52  20.6   43  71  33  55
   2024 07 27 15:00  00 05 03.79    -09 26 47.8   120997 1.0160 126.7  m  14?  52.17  19.3   45  69  33  54
   2024 07 27 15:10  00 05 15.18    -09 18 29.0   120033 1.0160 126.7  m  14?  52.89  18.1   47  67  33  54
   2024 07 27 15:20  00 05 26.00    -09 09 59.6   119070 1.0160 126.6  m  14?  53.68  16.9   49  64  33  54
   2024 07 27 15:30  00 05 36.27    -09 01 19.2   118105 1.0160 126.5  m  14?  54.53  15.8   51  62  33  54
   2024 07 27 15:40  00 05 46.04    -08 52 27.6   117141 1.0160 126.4  m  14?  55.44  14.7   52  59  33  54
   2024 07 27 15:50  00 05 55.32    -08 43 24.3   116177 1.0160 126.4  m  14?  56.41  13.7   54  56  33  54
   2024 07 27 16:00  00 06 04.15    -08 34 09.2   115213 1.0160 126.3  m  14?  57.44  12.8   56  53  33  54
   2024 07 27 16:10  00 06 12.58    -08 24 41.7   114249 1.0160 126.2  m  14?  58.52  12.0   57  49  33  54
   2024 07 27 16:20  00 06 20.63    -08 15 01.8   113285 1.0160 126.1  m  14?  59.66  11.3   59  46  33  54
   2024 07 27 16:30  00 06 28.35    -08 05 09.0   112321 1.0159 126.1  m  14?  60.86  10.6   60  42  33  54
   2024 07 27 16:40  00 06 35.79    -07 55 02.9   111358 1.0159 126.0  m  14?  62.10  10.0   61  37  33  54
   2024 07 27 16:50  00 06 42.97    -07 44 43.3   110395 1.0159 125.9  m  14?  63.40   9.5   62  32  33  54
   2024 07 27 17:00  00 06 49.97    -07 34 09.9   109433 1.0159 125.8  m  14?  64.74   9.1   63  27  33  54
   2024 07 27 17:10  00 06 56.81    -07 23 22.2   108471 1.0159 125.8  m  14?  66.13   8.7   64  22  33  54
   2024 07 27 17:20  00 07 03.55    -07 12 19.9   107509 1.0159 125.7  m  14?  67.58   8.5   64  16  32  54
   2024 07 27 17:30  00 07 10.26    -07 01 02.7   106548 1.0159 125.6  m  14?  69.07   8.3   65  11  32  54
   2024 07 27 17:40  00 07 16.97    -06 49 30.2   105586 1.0159 125.5  e  14?  70.61   8.1   65   5  32  53
   2024 07 27 17:50  00 07 23.75    -06 37 42.0   104625 1.0159 125.4  t  14?  72.20   8.1   65 359  32  53
   2024 07 27 18:00  00 07 30.66    -06 25 37.8   103663 1.0159 125.4  m  14?  73.84   8.1   64 353  32  53
   2024 07 27 18:10  00 07 37.75    -06 13 17.1   102702 1.0159 125.3  m  14?  75.54   8.2   64 347  32  53
   2024 07 27 18:20  00 07 45.10    -06 00 39.5   101739 1.0159 125.2  m  14?  77.29   8.3   63 342  32  53
   2024 07 27 18:30  00 07 52.76    -05 47 44.6   100776 1.0159 125.1  m  14?  79.10   8.5   62 337  32  53
   2024 07 27 18:40  00 08 00.81    -05 34 32.0    99812 1.0159 125.0  m  14?  80.97   8.7   61 332  32  53
   2024 07 27 18:50  00 08 09.31    -05 21 01.2    98846 1.0159 124.9  m  14?  82.90   9.0   60 328  32  53
   2024 07 27 19:00  00 08 18.33    -05 07 11.7    97879 1.0158 124.8  m  14?  84.91   9.4   58 324  32  53
   2024 07 27 19:10  00 08 27.95    -04 53 02.9    96910 1.0158 124.7  m  14?  86.98   9.8   57 320  32  53
   2024 07 27 19:20  00 08 38.23    -04 38 34.5    95939 1.0158 124.6  m  14?  89.14  10.3   55 317  31  53
   2024 07 27 19:30  00 08 49.26    -04 23 45.7    94965 1.0158 124.4  m  14?  91.38  10.8   54 313  31  53
   2024 07 27 19:40  00 09 01.11    -04 08 35.9    93988 1.0158 124.3 Am  14?  93.71  11.3   52 310  31  53
   2024 07 27 19:50  00 09 13.86    -03 53 04.7    93008 1.0158 124.2 Am  14?  96.14  11.9   50 308  31  53
   2024 07 27 20:00  00 09 27.60    -03 37 11.1    92023 1.0158 124.0 Nm  13?  98.67  12.5   48 305  31  53
   2024 07 27 20:10  00 09 42.40    -03 20 54.6    91035 1.0158 123.9 Nm  13? 101.32  13.1   46 303  31  53
   2024 07 27 20:20  00 09 58.36    -03 04 14.4    90041 1.0158 123.7 Nm  13? 104.09  13.8   44 301  31  53
   2024 07 27 20:30  00 10 15.56    -02 47 09.5    89041 1.0158 123.6 Cm  13? 106.98  14.5   42 299  30  53
   2024 07 27 20:40  00 10 34.09    -02 29 39.2    88036 1.0158 123.4 Cm  13? 110.02  15.2   40 297  30  53
   ................
   

MMS-3 (JPL-ID: -140484)

   Date (UTC) HH:MM   RA              Dec         delta   r     elong SM  mag  '/hr    PA   alt  az moo ill
   ---- -- -- -----  -------------   -----------  ------ ------ ----- --  --- ------ ------ --- --- --- ---
   2024 07 14 07:40  21 13 03.18    -40 20 59.5    69315 1.0169 152.0 Cm  14? 198.78  80.4    0 139 100  53
   2024 07 14 07:50  21 15 50.10    -40 15 33.5    70676 1.0169 151.6 Nm  14? 189.12  80.0    0 138 101  53
   2024 07 14 08:00  21 18 28.55    -40 10 10.4    72011 1.0169 151.3 Nm  14? 180.06  79.6    1 137 101  53
   2024 07 14 08:10  21 20 59.09    -40 04 50.8    73319 1.0169 150.9 Nm  14? 171.56  79.2    2 136 102  53
   2024 07 14 08:20  21 23 22.17    -39 59 35.0    74603 1.0169 150.6 Am  14? 163.54  78.8    3 135 102  53
   2024 07 14 08:30  21 25 38.26    -39 54 23.4    75862 1.0169 150.2 Am  14? 155.98  78.4    4 134 102  53
   2024 07 14 08:40  21 27 47.74    -39 49 16.1    77099 1.0169 149.9 Am  14? 148.84  78.0    5 133 103  53
   2024 07 14 08:50  21 29 50.97    -39 44 13.1    78313 1.0169 149.6  m  14? 142.07  77.6    6 132 103  53
   2024 07 14 09:00  21 31 48.30    -39 39 14.3    79505 1.0170 149.3  m  14? 135.64  77.2    8 131 103  53
   2024 07 14 09:10  21 33 40.01    -39 34 19.6    80676 1.0170 149.0  m  14? 129.54  76.8    9 130 104  53
   2024 07 14 09:20  21 35 26.39    -39 29 29.0    81827 1.0170 148.8  m  14? 123.74  76.3   10 129 104  54
   2024 07 14 09:30  21 37 07.71    -39 24 42.1    82958 1.0170 148.5  m  14? 118.21  75.9   12 128 104  54
   2024 07 14 09:40  21 38 44.18    -39 19 58.6    84070 1.0170 148.3  m  14? 112.94  75.4   13 127 104  54
   2024 07 14 09:50  21 40 16.05    -39 15 18.4    85164 1.0170 148.0  m  14? 107.91  74.9   14 127 105  54
   2024 07 14 10:00  21 41 43.51    -39 10 41.2    86241 1.0170 147.8  m  14? 103.12  74.3   16 126 105  54
   2024 07 14 10:10  21 43 06.75    -39 06 06.5    87300 1.0170 147.6  m  14?  98.54  73.7   17 125 105  54
   2024 07 14 10:20  21 44 25.97    -39 01 34.0    88344 1.0170 147.4  m  14?  94.16  73.1   19 124 105  54
   2024 07 14 10:30  21 45 41.32    -38 57 03.4    89371 1.0170 147.2  m  14?  89.99  72.4   20 123 106  54
   2024 07 14 10:40  21 46 52.97    -38 52 34.3    90384 1.0170 147.0  m  14?  86.00  71.6   22 122 106  54
   2024 07 14 10:50  21 48 01.07    -38 48 06.4    91382 1.0170 146.9  m  14?  82.20  70.8   23 122 106  54
   2024 07 14 11:00  21 49 05.76    -38 43 39.2    92367 1.0170 146.7  m  14?  78.58  70.0   25 121 106  54
   2024 07 14 11:10  21 50 07.19    -38 39 12.5    93338 1.0170 146.5  m  14?  75.13  69.0   27 120 106  54
   2024 07 14 11:20  21 51 05.48    -38 34 45.7    94296 1.0170 146.4  m  14?  71.85  68.0   28 119 106  54
   2024 07 14 11:30  21 52 00.77    -38 30 18.6    95243 1.0170 146.3  m  14?  68.73  66.9   30 119 106  54
   2024 07 14 11:40  21 52 53.17    -38 25 50.8    96178 1.0170 146.1  m  14?  65.78  65.7   32 118 107  54
   2024 07 14 11:50  21 53 42.81    -38 21 21.9    97101 1.0170 146.0  m  14?  63.00  64.5   33 117 107  54
   2024 07 14 12:00  21 54 29.79    -38 16 51.5    98015 1.0171 145.9  m  14?  60.37  63.1   35 117 107  54
   2024 07 14 12:10  21 55 14.23    -38 12 19.3    98919 1.0171 145.8  m  14?  57.91  61.7   37 116 107  54
   2024 07 14 12:20  21 55 56.23    -38 07 45.0    99813 1.0171 145.7  m  14?  55.61  60.1   39 115 107  54
   2024 07 14 12:30  21 56 35.90    -38 03 08.3   100699 1.0171 145.6  m  14?  53.47  58.5   40 115 107  54
   2024 07 14 12:40  21 57 13.35    -37 58 28.8   101576 1.0171 145.5  m  14?  51.49  56.7   42 114 107  54
   2024 07 14 12:50  21 57 48.67    -37 53 46.2   102445 1.0171 145.4  m  14?  49.67  54.9   44 114 107  54
   2024 07 14 13:00  21 58 21.96    -37 49 00.2   103307 1.0171 145.3  m  14?  48.01  53.0   46 113 107  55
   2024 07 14 13:10  21 58 53.32    -37 44 10.7   104163 1.0171 145.3  m  14?  46.51  51.0   48 113 107  55
   2024 07 14 13:20  21 59 22.85    -37 39 17.2   105012 1.0171 145.2  m  14?  45.17  48.9   50 112 107  55
   2024 07 14 13:30  21 59 50.63    -37 34 19.6   105855 1.0171 145.2  m  14?  43.98  46.8   52 112 108  55
   2024 07 14 13:40  22 00 16.76    -37 29 17.6   106692 1.0171 145.1  m  14?  42.95  44.7   53 111 108  55
   2024 07 14 13:50  22 00 41.33    -37 24 11.1   107525 1.0171 145.1  m  14?  42.06  42.5   55 111 108  55
   2024 07 14 14:00  22 01 04.43    -37 18 59.8   108353 1.0171 145.0  m  14?  41.31  40.3   57 111 108  55
   2024 07 14 14:10  22 01 26.14    -37 13 43.5   109177 1.0171 145.0  m  14?  40.71  38.2   59 111 108  55
   2024 07 14 14:20  22 01 46.57    -37 08 22.2   109997 1.0171 144.9  m  14?  40.23  36.1   61 110 108  55
   2024 07 14 14:30  22 02 05.78    -37 02 55.7   110813 1.0171 144.9  m  14?  39.87  34.1   63 110 108  55
   2024 07 14 14:40  22 02 23.86    -36 57 23.8   111627 1.0171 144.9  m  14?  39.62  32.1   65 111 108  55
   2024 07 14 14:50  22 02 40.91    -36 51 46.5   112437 1.0171 144.8  m  14?  39.48  30.2   67 111 108  55
   2024 07 14 15:00  22 02 56.99    -36 46 03.7   113246 1.0171 144.8     14?  39.43  28.5   69 111 108  55
   2024 07 14 15:10  22 03 12.19    -36 40 15.3   114052 1.0171 144.8     15?  39.46  26.8   71 112 108  55
   2024 07 14 15:20  22 03 26.60    -36 34 21.3   114857 1.0171 144.8     15?  39.57  25.3   73 113 108  55
   2024 07 14 15:30  22 03 40.28    -36 28 21.7   115660 1.0171 144.8     15?  39.74  23.9   75 114 108  56
   2024 07 14 15:40  22 03 53.32    -36 22 16.5   116461 1.0171 144.8     15?  39.97  22.7   77 116 108  56
   2024 07 14 15:50  22 04 05.78    -36 16 05.6   117262 1.0171 144.8     15?  40.25  21.5   79 119 108  56
   2024 07 14 16:00  22 04 17.75    -36 09 49.2   118062 1.0171 144.7     15?  40.58  20.5   80 123 108  56
   2024 07 14 16:10  22 04 29.29    -36 03 27.3   118862 1.0171 144.7     15?  40.93  19.7   82 130 108  56
   2024 07 14 16:20  22 04 40.48    -35 57 00.0   119661 1.0172 144.7     15?  41.31  18.9   84 142 108  56
   2024 07 14 16:30  22 04 51.38    -35 50 27.3   120460 1.0172 144.7     15?  41.72  18.3   85 160 108  56
   2024 07 14 16:40  22 05 02.05    -35 43 49.5   121259 1.0172 144.7  t  15?  42.15  17.8   85 185 108  56
   2024 07 14 16:50  22 05 12.58    -35 37 06.5   122058 1.0172 144.7     15?  42.58  17.4   85 209 108  56
   2024 07 14 17:00  22 05 23.00    -35 30 18.5   122858 1.0172 144.7     15?  43.03  17.2   83 226 108  56
   2024 07 14 17:10  22 05 33.40    -35 23 25.7   123658 1.0172 144.7     15?  43.48  17.0   82 236 108  56
   2024 07 14 17:20  22 05 43.82    -35 16 28.3   124458 1.0172 144.7     15?  43.94  16.9   80 243 108  56
   2024 07 14 17:30  22 05 54.33    -35 09 26.5   125259 1.0172 144.7     15?  44.40  17.0   78 247 108  56
   2024 07 14 17:40  22 06 04.97    -35 02 20.4   126060 1.0172 144.7     15?  44.86  17.1   76 249 108  57
   2024 07 14 17:50  22 06 15.79    -34 55 10.2   126862 1.0172 144.7     15?  45.32  17.3   74 251 108  57
   2024 07 14 18:00  22 06 26.86    -34 47 56.2   127665 1.0172 144.7     15?  45.78  17.5   72 253 108  57
   2024 07 14 18:10  22 06 38.22    -34 40 38.7   128468 1.0172 144.7     15?  46.23  17.9   70 254 108  57
   2024 07 14 18:20  22 06 49.90    -34 33 17.7   129272 1.0172 144.7     15?  46.68  18.3   68 254 108  57
   2024 07 14 18:30  22 07 01.96    -34 25 53.7   130077 1.0172 144.7     15?  47.13  18.8   66 255 108  57
   2024 07 14 18:40  22 07 14.44    -34 18 26.7   130882 1.0172 144.7     15?  47.57  19.3   64 255 108  57
   2024 07 14 18:50  22 07 27.36    -34 10 57.2   131688 1.0172 144.6     15?  48.00  19.9   62 255 108  57
   2024 07 14 19:00  22 07 40.78    -34 03 25.4   132494 1.0172 144.6     15?  48.44  20.5   60 255 108  57
   2024 07 14 19:10  22 07 54.72    -33 55 51.5   133300 1.0172 144.6     15?  48.86  21.2   58 255 108  57
   2024 07 14 19:20  22 08 09.22    -33 48 15.8   134106 1.0172 144.6     15?  49.29  21.9   56 255 108  57
   2024 07 14 19:30  22 08 24.30    -33 40 38.5   134913 1.0172 144.6     15?  49.71  22.7   54 254 108  58
   2024 07 14 19:40  22 08 39.99    -33 33 00.1   135719 1.0172 144.5 A   15?  50.13  23.5   52 254 108  58
   2024 07 14 19:50  22 08 56.32    -33 25 20.7   136525 1.0172 144.5 A   15?  50.54  24.3   50 254 108  58
   2024 07 14 20:00  22 09 13.30    -33 17 40.6   137331 1.0172 144.5 A   15?  50.95  25.2   48 253 108  58
   2024 07 14 20:10  22 09 30.96    -33 10 00.2   138135 1.0172 144.4 N   15?  51.36  26.1   46 253 108  58
   2024 07 14 20:20  22 09 49.31    -33 02 19.6   138940 1.0172 144.4 N   15?  51.77  27.0   44 252 108  58
   2024 07 14 20:30  22 10 08.37    -32 54 39.2   139743 1.0172 144.4 N   15?  52.17  27.9   42 252 108  58
   2024 07 14 20:40  22 10 28.16    -32 46 59.3   140545 1.0172 144.3 C   15?  52.58  28.9   40 251 108  58
   2024 07 14 20:50  22 10 48.68    -32 39 20.0   141345 1.0172 144.3 C   15?  52.98  29.9   38 251 108  58
   ................
   2024 07 15 10:20  22 57 47.78    -26 27 59.7   179444 1.0173 134.7  m  15?  32.01  72.6    0 120 113  63
   2024 07 15 10:30  22 58 10.06    -26 26 24.7   179486 1.0173 134.6  m  15?  30.86  72.1    2 119 113  63
   2024 07 15 10:40  22 58 31.47    -26 24 50.7   179521 1.0173 134.5  m  15?  29.72  71.6    3 118 114  63
   2024 07 15 10:50  22 58 52.00    -26 23 17.5   179550 1.0173 134.4  m  15?  28.57  71.0    5 117 114  64
   2024 07 15 11:00  22 59 11.64    -26 21 45.0   179574 1.0173 134.4  m  15?  27.43  70.3    7 116 114  64
   2024 07 15 11:10  22 59 30.40    -26 20 12.9   179592 1.0173 134.3  m  15?  26.30  69.5    9 114 114  64
   2024 07 15 11:20  22 59 48.26    -26 18 41.1   179606 1.0173 134.2  m  15?  25.18  68.6   11 113 114  64
   2024 07 15 11:30  23 00 05.23    -26 17 09.2   179615 1.0173 134.2  m  15?  24.08  67.5   13 112 114  64
   2024 07 15 11:40  23 00 21.31    -26 15 37.1   179619 1.0173 134.1  m  15?  22.99  66.3   15 111 114  64
   2024 07 15 11:50  23 00 36.50    -26 14 04.6   179620 1.0173 134.1  m  15?  21.93  64.9   17 110 114  64
   2024 07 15 12:00  23 00 50.80    -26 12 31.5   179618 1.0173 134.0  m  15?  20.90  63.4   19 109 114  64
   2024 07 15 12:10  23 01 04.22    -26 10 57.5   179613 1.0173 134.0  m  15?  19.90  61.6   21 108 114  64
   2024 07 15 12:20  23 01 16.77    -26 09 22.5   179605 1.0173 133.9  m  15?  18.94  59.6   23 107 114  64
   2024 07 15 12:30  23 01 28.45    -26 07 46.2   179594 1.0173 133.9  m  15?  18.02  57.4   25 106 114  64
   2024 07 15 12:40  23 01 39.28    -26 06 08.4   179582 1.0173 133.9  m  15?  17.16  54.9   27 105 114  64
   2024 07 15 12:50  23 01 49.26    -26 04 28.9   179569 1.0173 133.8  m  15?  16.36  52.1   29 104 114  64
   2024 07 15 13:00  23 01 58.40    -26 02 47.5   179554 1.0173 133.8  m  15?  15.62  49.0   31 103 114  64
   2024 07 15 13:10  23 02 06.73    -26 01 04.0   179539 1.0173 133.8  m  15?  14.97  45.6   33 102 114  64
   2024 07 15 13:20  23 02 14.25    -25 59 18.2   179524 1.0173 133.7  m  15?  14.40  42.0   35 101 113  64
   2024 07 15 13:30  23 02 20.99    -25 57 30.0   179508 1.0173 133.7  m  15?  13.92  38.1   37 100 113  64
   2024 07 15 13:40  23 02 26.95    -25 55 39.0   179493 1.0173 133.7  m  15?  13.55  33.9   39  99 113  64
   2024 07 15 13:50  23 02 32.17    -25 53 45.2   179479 1.0173 133.7  m  15?  13.27  29.7   41  98 113  64
   2024 07 15 14:00  23 02 36.66    -25 51 48.3   179466 1.0173 133.7  m  15?  13.10  25.3   43  97 113  64
   2024 07 15 14:10  23 02 40.44    -25 49 48.2   179455 1.0173 133.7  m  15?  13.04  21.0   45  96 113  64
   2024 07 15 14:20  23 02 43.55    -25 47 44.8   179445 1.0173 133.7  m  15?  13.08  16.7   47  94 113  65
   2024 07 15 14:30  23 02 45.99    -25 45 37.7   179437 1.0173 133.6  m  15?  13.21  12.7   49  93 113  65
   2024 07 15 14:40  23 02 47.81    -25 43 27.0   179432 1.0173 133.6  m  15?  13.42   8.9   51  92 113  65
   2024 07 15 14:50  23 02 49.03    -25 41 12.4   179430 1.0173 133.6  m  15?  13.71   5.3   54  91 113  65
   2024 07 15 15:00  23 02 49.67    -25 38 53.9   179430 1.0173 133.6  m  15?  14.07   2.1   56  89 113  65
   2024 07 15 15:10  23 02 49.78    -25 36 31.2   179434 1.0173 133.6  m  15?  14.48 359.2   58  88 113  65
   2024 07 15 15:20  23 02 49.37    -25 34 04.2   179441 1.0173 133.6  m  15?  14.93 356.6   60  86 113  65
   2024 07 15 15:30  23 02 48.48    -25 31 32.9   179453 1.0173 133.7  m  15?  15.42 354.4   62  85 113  65
   2024 07 15 15:40  23 02 47.15    -25 28 57.2   179468 1.0173 133.7  m  15?  15.93 352.5   64  83 113  65
   2024 07 15 15:50  23 02 45.41    -25 26 16.9   179487 1.0173 133.7  m  15?  16.46 350.9   66  81 113  65
   2024 07 15 16:00  23 02 43.29    -25 23 31.9   179511 1.0173 133.7     15?  17.00 349.5   68  79 113  65
   2024 07 15 16:10  23 02 40.84    -25 20 42.3   179540 1.0173 133.7     15?  17.55 348.4   71  76 113  65
   2024 07 15 16:20  23 02 38.08    -25 17 47.8   179573 1.0173 133.7     15?  18.10 347.5   73  73 113  65
   2024 07 15 16:30  23 02 35.05    -25 14 48.6   179612 1.0173 133.7     15?  18.65 346.8   75  69 113  65
   2024 07 15 16:40  23 02 31.80    -25 11 44.5   179655 1.0173 133.7     15?  19.19 346.3   77  64 112  65
   2024 07 15 16:50  23 02 28.36    -25 08 35.4   179704 1.0173 133.7     15?  19.72 346.0   78  58 112  66
   2024 07 15 17:00  23 02 24.76    -25 05 21.5   179758 1.0173 133.7     15?  20.25 345.8   80  49 112  66
   2024 07 15 17:10  23 02 21.05    -25 02 02.6   179817 1.0173 133.8     15?  20.75 345.8   82  37 112  66
   2024 07 15 17:20  23 02 17.27    -24 58 38.8   179882 1.0173 133.8     15?  21.25 345.9   83  21 112  66
   2024 07 15 17:30  23 02 13.45    -24 55 10.1   179953 1.0173 133.8     15?  21.73 346.1   83   2 112  66
   2024 07 15 17:40  23 02 09.63    -24 51 36.5   180029 1.0173 133.8  t  15?  22.20 346.5   83 342 112  66
   2024 07 15 17:50  23 02 05.86    -24 47 58.1   180110 1.0173 133.8     15?  22.65 347.0   82 326 112  66
   2024 07 15 18:00  23 02 02.16    -24 44 14.8   180197 1.0173 133.8     15?  23.09 347.6   80 314 112  66
   2024 07 15 18:10  23 01 58.59    -24 40 26.8   180290 1.0173 133.8     15?  23.51 348.3   79 305 112  66
   2024 07 15 18:20  23 01 55.16    -24 36 34.1   180388 1.0173 133.9     15?  23.92 349.0   77 298 112  66
   2024 07 15 18:30  23 01 51.94    -24 32 36.8   180491 1.0173 133.9     15?  24.32 349.9   75 293 112  66
   2024 07 15 18:40  23 01 48.94    -24 28 34.9   180600 1.0173 133.9     15?  24.71 350.9   73 290 112  66
   2024 07 15 18:50  23 01 46.21    -24 24 28.7   180714 1.0173 133.9     15?  25.08 351.9   71 286 112  66
   2024 07 15 19:00  23 01 43.77    -24 20 18.1   180833 1.0173 133.9     15?  25.45 353.0   68 284 111  67
   2024 07 15 19:10  23 01 41.68    -24 16 03.3   180957 1.0173 133.9     15?  25.81 354.1   66 281 111  67
   2024 07 15 19:20  23 01 39.95    -24 11 44.4   181086 1.0173 133.9     15?  26.16 355.4   64 279 111  67
   2024 07 15 19:30  23 01 38.62    -24 07 21.5   181219 1.0173 133.9     15?  26.51 356.7   62 277 111  67
   2024 07 15 19:40  23 01 37.73    -24 02 54.8   181357 1.0173 133.9 A   15?  26.86 358.0   60 276 111  67
   2024 07 15 19:50  23 01 37.30    -23 58 24.4   181499 1.0173 133.9 A   15?  27.21 359.4   58 274 111  67
   2024 07 15 20:00  23 01 37.36    -23 53 50.5   181645 1.0173 133.9 A   15?  27.56   0.9   56 273 111  67
   2024 07 15 20:10  23 01 37.95    -23 49 13.2   181795 1.0172 133.9 N   15?  27.91   2.4   53 272 111  67
   2024 07 15 20:20  23 01 39.08    -23 44 32.6   181949 1.0172 133.9 N   15?  28.27   4.0   51 270 111  67
   2024 07 15 20:30  23 01 40.78    -23 39 49.0   182106 1.0172 133.9 N   15?  28.63   5.5   49 269 111  67
   2024 07 15 20:40  23 01 43.09    -23 35 02.6   182265 1.0172 133.9 C   15?  29.00   7.1   47 268 111  67
   2024 07 15 20:50  23 01 46.01    -23 30 13.3   182428 1.0172 133.8 C   15?  29.38   8.7   45 267 111  68
   ................
   2024 07 16 11:20  23 37 40.56    -17 31 05.6   172164 1.0171 125.0  r  15?  35.27  59.8    0 110 114  73
   2024 07 16 11:30  23 38 01.48    -17 28 07.8   171602 1.0171 124.9  m  15?  34.42  58.8    1 109 114  73
   2024 07 16 11:40  23 38 21.68    -17 25 09.1   171033 1.0170 124.8  m  15?  33.58  57.8    3 107 114  73
   2024 07 16 11:50  23 38 41.13    -17 22 09.4   170459 1.0170 124.7  m  15?  32.74  56.6    5 106 114  73
   2024 07 16 12:00  23 38 59.82    -17 19 08.5   169880 1.0170 124.7  m  15?  31.93  55.4    7 105 114  73
   2024 07 16 12:10  23 39 17.76    -17 16 06.1   169296 1.0170 124.6  m  15?  31.13  54.0    9 104 114  73
   2024 07 16 12:20  23 39 34.93    -17 13 02.2   168708 1.0170 124.5  m  15?  30.35  52.5   11 102 114  73
   2024 07 16 12:30  23 39 51.34    -17 09 56.6   168115 1.0170 124.4  m  15?  29.60  51.0   13 101 114  73
   2024 07 16 12:40  23 40 06.97    -17 06 49.1   167519 1.0170 124.4  m  15?  28.88  49.3   15 100 114  73
   2024 07 16 12:50  23 40 21.82    -17 03 39.5   166920 1.0170 124.3  m  15?  28.19  47.5   17  99 114  73
   2024 07 16 13:00  23 40 35.90    -17 00 27.6   166318 1.0170 124.2  m  15?  27.55  45.6   19  98 114  73
   2024 07 16 13:10  23 40 49.20    -16 57 13.2   165714 1.0170 124.2  m  15?  26.96  43.5   21  96 114  73
   2024 07 16 13:20  23 41 01.73    -16 53 56.3   165107 1.0170 124.1  m  15?  26.41  41.4   24  95 114  73
   2024 07 16 13:30  23 41 13.49    -16 50 36.5   164499 1.0170 124.1  m  15?  25.93  39.2   26  94 114  73
   2024 07 16 13:40  23 41 24.49    -16 47 13.8   163890 1.0170 124.0  m  15?  25.50  36.8   28  93 114  73
   2024 07 16 13:50  23 41 34.73    -16 43 47.9   163279 1.0170 124.0  m  15?  25.13  34.4   30  91 114  74
   2024 07 16 14:00  23 41 44.22    -16 40 18.7   162668 1.0170 123.9  m  15?  24.84  31.9   32  90 114  74
   2024 07 16 14:10  23 41 52.97    -16 36 46.0   162057 1.0170 123.9  m  15?  24.61  29.4   34  89 114  74
   2024 07 16 14:20  23 42 01.00    -16 33 09.7   161445 1.0170 123.9  m  15?  24.45  26.9   36  87 114  74
   2024 07 16 14:30  23 42 08.32    -16 29 29.4   160834 1.0170 123.8  m  15?  24.37  24.4   38  86 114  74
   2024 07 16 14:40  23 42 14.93    -16 25 45.2   160224 1.0170 123.8  m  15?  24.36  21.8   40  84 114  74
   2024 07 16 14:50  23 42 20.87    -16 21 56.9   159615 1.0170 123.8  m  15?  24.41  19.4   42  83 114  74
   2024 07 16 15:00  23 42 26.14    -16 18 04.2   159008 1.0170 123.7  m  15?  24.54  17.0   44  81 114  74
   2024 07 16 15:10  23 42 30.77    -16 14 07.0   158402 1.0170 123.7  m  15?  24.73  14.6   46  79 114  74
   2024 07 16 15:20  23 42 34.78    -16 10 05.2   157798 1.0170 123.7  m  15?  24.98  12.4   48  78 114  74
   2024 07 16 15:30  23 42 38.19    -16 05 58.6   157196 1.0170 123.6  m  15?  25.29  10.3   51  76 114  74
   2024 07 16 15:40  23 42 41.03    -16 01 47.1   156597 1.0170 123.6  m  15?  25.65   8.4   53  74 114  74
   2024 07 16 15:50  23 42 43.32    -15 57 30.6   156000 1.0170 123.6  m  15?  26.06   6.5   55  71 114  74
   2024 07 16 16:00  23 42 45.09    -15 53 08.9   155407 1.0170 123.6  m  15?  26.51   4.8   57  69 114  74
   2024 07 16 16:10  23 42 46.37    -15 48 41.8   154817 1.0170 123.6  m  15?  27.00   3.3   58  66 114  74
   2024 07 16 16:20  23 42 47.19    -15 44 09.4   154230 1.0170 123.5  m  15?  27.51   1.9   60  63 114  74
   2024 07 16 16:30  23 42 47.58    -15 39 31.4   153647 1.0170 123.5  m  15?  28.06   0.6   62  60 114  74
   2024 07 16 16:40  23 42 47.58    -15 34 47.8   153067 1.0169 123.5  m  15?  28.63 359.5   64  56 114  74
   2024 07 16 16:50  23 42 47.22    -15 29 58.4   152492 1.0169 123.5  m  15?  29.21 358.5   66  52 114  75
   2024 07 16 17:00  23 42 46.54    -15 25 03.2   151920 1.0169 123.5     15?  29.81 357.7   67  47 114  75
   2024 07 16 17:10  23 42 45.57    -15 20 02.1   151353 1.0169 123.5     15?  30.43 357.0   69  42 114  75
   2024 07 16 17:20  23 42 44.35    -15 14 55.0   150790 1.0169 123.5     15?  31.05 356.5   70  36 113  75
   2024 07 16 17:30  23 42 42.92    -15 09 41.8   150231 1.0169 123.5     15?  31.67 356.0   71  29 113  75
   2024 07 16 17:40  23 42 41.32    -15 04 22.6   149677 1.0169 123.4     15?  32.30 355.7   72  22 113  75
   2024 07 16 17:50  23 42 39.60    -14 58 57.1   149127 1.0169 123.4     15?  32.93 355.5   73  14 113  75
   2024 07 16 18:00  23 42 37.79    -14 53 25.5   148582 1.0169 123.4     15?  33.56 355.5   73   6 113  75
   2024 07 16 18:10  23 42 35.94    -14 47 47.6   148041 1.0169 123.4  t  14?  34.18 355.5   73 357 113  75
   2024 07 16 18:20  23 42 34.09    -14 42 03.5   147505 1.0169 123.4     14?  34.81 355.6   73 349 113  75
   2024 07 16 18:30  23 42 32.27    -14 36 13.0   146973 1.0169 123.4     14?  35.43 355.8   72 341 113  75
   2024 07 16 18:40  23 42 30.55    -14 30 16.2   146445 1.0169 123.4     14?  36.05 356.2   71 334 113  75
   2024 07 16 18:50  23 42 28.96    -14 24 13.1   145921 1.0169 123.3     14?  36.66 356.6   70 327 113  75
   2024 07 16 19:00  23 42 27.55    -14 18 03.8   145402 1.0169 123.3     14?  37.28 357.1   69 321 113  75
   2024 07 16 19:10  23 42 26.35    -14 11 48.1   144887 1.0169 123.3     14?  37.89 357.7   67 316 113  76
   2024 07 16 19:20  23 42 25.42    -14 05 26.1   144376 1.0169 123.3     14?  38.50 358.3   65 311 113  76
   2024 07 16 19:30  23 42 24.81    -13 58 57.9   143868 1.0169 123.3     14?  39.12 359.1   64 307 113  76
   2024 07 16 19:40  23 42 24.54    -13 52 23.4   143364 1.0169 123.2 A   14?  39.73 359.9   62 304 113  76
   2024 07 16 19:50  23 42 24.68    -13 45 42.7   142864 1.0169 123.2 A   14?  40.36   0.8   60 300 113  76
   2024 07 16 20:00  23 42 25.26    -13 38 55.9   142366 1.0169 123.2 A   14?  40.98   1.7   58 297 113  76
   2024 07 16 20:10  23 42 26.32    -13 32 03.0   141872 1.0169 123.2 N   14?  41.62   2.7   56 295 113  76
   2024 07 16 20:20  23 42 27.92    -13 25 04.0   141380 1.0169 123.1 N   14?  42.27   3.8   54 292 113  76
   2024 07 16 20:30  23 42 30.09    -13 17 59.0   140890 1.0169 123.1 N   14?  42.93   4.9   52 290 113  76
   2024 07 16 20:40  23 42 32.87    -13 10 48.0   140403 1.0169 123.1 C   14?  43.61   6.0   50 288 112  76
   2024 07 16 20:50  23 42 36.31    -13 03 31.2   139917 1.0168 123.0 C   14?  44.30   7.2   48 286 112  76
   ................
   2024 07 17 15:50  14 44 13.80    -34 48 06.2    17289 1.0164 112.9  m  10? 3863.3 126.2    9 234  21  82
   2024 07 17 16:00  15 24 20.03    -40 02 55.7    19219 1.0164 121.4  m  10? 3031.6 120.1   17 232  18  83
   2024 07 17 16:10  16 00 14.58    -43 30 24.3    21279 1.0164 127.9  m  10? 2417.4 114.0   22 231  18  83
   2024 07 17 16:20  16 31 57.03    -45 43 31.2    23400 1.0164 133.1  m  11? 1965.4 108.4   27 230  20  83
   2024 07 17 16:30  16 59 41.31    -47 06 04.3    25541 1.0164 137.1  m  11? 1628.8 103.2   30 230  23  83
   2024 07 17 16:40  17 23 50.76    -47 54 26.5    27678 1.0165 140.4  m  11? 1373.9  98.7   33 230  26  83
   2024 07 17 16:50  17 44 52.58    -48 19 41.2    29798 1.0165 143.1  m  12? 1177.2  94.6   35 230  28  83
   2024 07 17 17:00  18 03 13.72    -48 29 14.1    31893 1.0165 145.4  m  12? 1022.7  91.0   36 230  30  83
   2024 07 17 17:10  18 19 18.77    -48 28 05.5    33959 1.0165 147.2  m  12? 899.34  87.8   37 230  33  83
   2024 07 17 17:20  18 33 29.09    -48 19 38.7    35994 1.0165 148.8  m  12? 799.32  84.9   38 230  34  83
   2024 07 17 17:30  18 46 02.74    -48 06 13.1    37997 1.0165 150.1  m  12? 717.12  82.4   38 231  36  83
   2024 07 17 17:40  18 57 14.79    -47 49 24.7    39968 1.0165 151.3  m  12? 648.74  80.2   38 231  38  83
   2024 07 17 17:50  19 07 17.68    -47 30 20.4    41908 1.0166 152.2  e  13? 591.23  78.1   38 231  39  83
   2024 07 17 18:00  19 16 21.73    -47 09 47.3    43819 1.0166 153.0     13? 542.38  76.3   38 232  40  83
   2024 07 17 18:10  19 24 35.42    -46 48 18.6    45700 1.0166 153.7     13? 500.53  74.7   38 232  42  83
   2024 07 17 18:20  19 32 05.83    -46 26 18.2    47553 1.0166 154.4     13? 464.38  73.2   37 233  43  83
   2024 07 17 18:30  19 38 58.82    -46 04 03.1    49379 1.0166 154.9     13? 432.93  71.8   36 233  44  83
   2024 07 17 18:40  19 45 19.29    -45 41 45.3    51180 1.0166 155.3     13? 405.38  70.6   36 233  45  83
   2024 07 17 18:50  19 51 11.38    -45 19 33.7    52955 1.0166 155.7     13? 381.10  69.5   35 234  45  83
   2024 07 17 19:00  19 56 38.57    -44 57 34.5    54707 1.0166 156.0     13? 359.59  68.4   34 234  46  84
   2024 07 17 19:10  20 01 43.82    -44 35 52.1    56435 1.0166 156.3     13? 340.43  67.5   33 234  47  84
   2024 07 17 19:20  20 06 29.65    -44 14 29.7    58142 1.0166 156.5     13? 323.29  66.7   32 234  48  84
   2024 07 17 19:30  20 10 58.23    -43 53 29.5    59827 1.0167 156.7     13? 307.88  65.9   31 234  48  84
   2024 07 17 19:40  20 15 11.44    -43 32 52.8    61492 1.0167 156.8 A   14? 293.97  65.2   30 234  49  84
   2024 07 17 19:50  20 19 10.87    -43 12 40.5    63137 1.0167 156.9 A   14? 281.37  64.6   29 234  50  84
   2024 07 17 20:00  20 22 57.95    -42 52 53.3    64762 1.0167 157.0 A   14? 269.90  64.0   28 234  50  84
   2024 07 17 20:10  20 26 33.88    -42 33 31.2    66370 1.0167 157.1 N   14? 259.45  63.6   26 234  51  84
   2024 07 17 20:20  20 29 59.76    -42 14 34.4    67958 1.0167 157.1 N   14? 249.87  63.1   25 234  51  84
   2024 07 17 20:30  20 33 16.52    -41 56 02.6    69530 1.0167 157.1 N   14? 241.08  62.7   24 234  52  84
   2024 07 17 20:40  20 36 24.99    -41 37 55.7    71084 1.0167 157.1 C   14? 232.98  62.4   23 234  52  84
   2024 07 17 20:50  20 39 25.92    -41 20 13.4    72621 1.0167 157.1 C   14? 225.50  62.1   21 233  53  84
   ................
   2024 07 18 09:20  22 29 17.97    -31 41 25.9   145304 1.0170 143.2  m  15?  48.54  75.3    0 127  69  88
   2024 07 18 09:30  22 29 54.15    -31 39 24.6   145754 1.0170 143.1  m  15?  46.87  75.1    1 126  69  89
   2024 07 18 09:40  22 30 29.02    -31 37 25.9   146195 1.0170 143.0  m  15?  45.21  74.9    3 125  69  89
   2024 07 18 09:50  22 31 02.59    -31 35 29.3   146628 1.0170 142.9  m  15?  43.56  74.6    4 124  69  89
   2024 07 18 10:00  22 31 34.84    -31 33 34.5   147053 1.0170 142.8  m  15?  41.92  74.2    6 123  69  89
   2024 07 18 10:10  22 32 05.80    -31 31 41.4   147469 1.0170 142.7  m  15?  40.30  73.8    8 121  69  89
   2024 07 18 10:20  22 32 35.47    -31 29 49.5   147878 1.0170 142.6  m  15?  38.70  73.3    9 120  69  89
   2024 07 18 10:30  22 33 03.85    -31 27 58.7   148280 1.0170 142.5  m  15?  37.12  72.7   11 119  69  89
   2024 07 18 10:40  22 33 30.95    -31 26 08.6   148675 1.0171 142.4  m  15?  35.57  72.0   13 118  69  89
   2024 07 18 10:50  22 33 56.79    -31 24 18.9   149063 1.0171 142.3  m  15?  34.04  71.2   15 117  69  89
   2024 07 18 11:00  22 34 21.38    -31 22 29.3   149446 1.0171 142.3  m  15?  32.54  70.3   17 116  70  89
   2024 07 18 11:10  22 34 44.72    -31 20 39.7   149823 1.0171 142.2  m  15?  31.07  69.3   18 115  70  89
   2024 07 18 11:20  22 35 06.83    -31 18 49.6   150194 1.0171 142.1  m  15?  29.64  68.1   20 114  70  89
   2024 07 18 11:30  22 35 27.74    -31 16 58.8   150561 1.0171 142.0  m  15?  28.26  66.8   22 113  70  89
   2024 07 18 11:40  22 35 47.45    -31 15 07.0   150923 1.0171 142.0  m  15?  26.92  65.3   24 112  70  89
   2024 07 18 11:50  22 36 05.98    -31 13 13.9   151281 1.0171 141.9  m  15?  25.64  63.7   26 111  70  89
   2024 07 18 12:00  22 36 23.36    -31 11 19.3   151636 1.0171 141.9  m  15?  24.42  61.8   28 110  70  89
   2024 07 18 12:10  22 36 39.60    -31 09 23.0   151987 1.0171 141.8  m  15?  23.26  59.7   30 110  70  89
   2024 07 18 12:20  22 36 54.74    -31 07 24.5   152336 1.0171 141.8  m  15?  22.18  57.4   32 109  70  89
   2024 07 18 12:30  22 37 08.79    -31 05 23.8   152681 1.0171 141.7  m  15?  21.17  54.9   34 108  70  89
   2024 07 18 12:40  22 37 21.78    -31 03 20.4   153025 1.0171 141.7  m  15?  20.26  52.1   36 107  70  89
   2024 07 18 12:50  22 37 33.74    -31 01 14.3   153367 1.0171 141.7  m  15?  19.44  49.0   38 106  70  89
   2024 07 18 13:00  22 37 44.69    -30 59 05.1   153707 1.0171 141.6  m  15?  18.72  45.7   40 105  70  89
   2024 07 18 13:10  22 37 54.67    -30 56 52.7   154047 1.0171 141.6  m  15?  18.11  42.3   42 104  70  89
   2024 07 18 13:20  22 38 03.72    -30 54 36.7   154386 1.0171 141.6  m  15?  17.62  38.6   44 104  70  89
   2024 07 18 13:30  22 38 11.85    -30 52 17.0   154724 1.0171 141.6  m  15?  17.24  34.9   46 103  70  89
   2024 07 18 13:40  22 38 19.11    -30 49 53.4   155063 1.0171 141.5  m  15?  16.98  31.1   48 102  70  89
   2024 07 18 13:50  22 38 25.53    -30 47 25.7   155401 1.0171 141.5  m  15?  16.83  27.3   50 101  70  89
   2024 07 18 14:00  22 38 31.16    -30 44 53.7   155741 1.0171 141.5  m  15?  16.79  23.5   52 100  70  89
   2024 07 18 14:10  22 38 36.02    -30 42 17.2   156081 1.0171 141.5  m  15?  16.86  19.9   54  99  70  89
   2024 07 18 14:20  22 38 40.16    -30 39 36.2   156423 1.0171 141.5  m  15?  17.02  16.5   56  99  70  89
   2024 07 18 14:30  22 38 43.61    -30 36 50.3   156767 1.0171 141.5  m  15?  17.27  13.4   58  98  69  89
   2024 07 18 14:40  22 38 46.43    -30 33 59.5   157112 1.0171 141.5  m  15?  17.59  10.4   60  97  69  89
   2024 07 18 14:50  22 38 48.64    -30 31 03.7   157459 1.0171 141.5  m  15?  17.98   7.8   62  96  69  89
   2024 07 18 15:00  22 38 50.29    -30 28 02.7   157809 1.0171 141.5  m  15?  18.42   5.5   65  95  69  89
   2024 07 18 15:10  22 38 51.44    -30 24 56.5   158161 1.0171 141.5  m  15?  18.89   3.4   67  94  69  89
   2024 07 18 15:20  22 38 52.11    -30 21 44.9   158516 1.0171 141.5  m  15?  19.41   1.6   69  93  69  90
   2024 07 18 15:30  22 38 52.36    -30 18 27.9   158875 1.0171 141.5  m  15?  19.94   0.1   71  92  69  90
   2024 07 18 15:40  22 38 52.22    -30 15 05.5   159236 1.0171 141.5  m  15?  20.50 358.7   73  90  69  90
   2024 07 18 15:50  22 38 51.76    -30 11 37.5   159601 1.0171 141.6  m  15?  21.06 357.6   75  89  69  90
   2024 07 18 16:00  22 38 51.00    -30 08 04.0   159970 1.0171 141.6  m  15?  21.63 356.8   77  87  69  90
   2024 07 18 16:10  22 38 50.00    -30 04 24.9   160342 1.0171 141.6  m  15?  22.20 356.1   79  85  69  90
   2024 07 18 16:20  22 38 48.80    -30 00 40.3   160718 1.0171 141.6  m  15?  22.78 355.6   82  82  69  90
   2024 07 18 16:30  22 38 47.45    -29 56 50.1   161098 1.0171 141.6  m  15?  23.34 355.3   84  77  69  90
   2024 07 18 16:40  22 38 45.99    -29 52 54.4   161482 1.0171 141.6  m  15?  23.90 355.2   86  67  69  90
   2024 07 18 16:50  22 38 44.47    -29 48 53.2   161870 1.0171 141.6  m  15?  24.45 355.2   87  39  69  90
   2024 07 18 17:00  22 38 42.94    -29 44 46.6   162263 1.0171 141.7  t  15?  24.99 355.3   88 331  69  90
   2024 07 18 17:10  22 38 41.43    -29 40 34.6   162660 1.0171 141.7  m  15?  25.51 355.5   86 298  69  90
   2024 07 18 17:20  22 38 39.99    -29 36 17.3   163061 1.0171 141.7  m  15?  26.03 355.9   84 287  69  90
   2024 07 18 17:30  22 38 38.67    -29 31 54.7   163466 1.0171 141.7  m  15?  26.53 356.3   82 282  69  90
   2024 07 18 17:40  22 38 37.50    -29 27 27.1   163876 1.0171 141.7  m  15?  27.02 356.9   80 278  69  90
   2024 07 18 17:50  22 38 36.53    -29 22 54.5   164289 1.0171 141.7  m  15?  27.50 357.5   78 276  68  90
   2024 07 18 18:00  22 38 35.80    -29 18 17.1   164708 1.0171 141.7  m  15?  27.97 358.2   75 274  68  90
   2024 07 18 18:10  22 38 35.35    -29 13 34.9   165130 1.0171 141.7  m  15?  28.43 359.1   73 272  68  90
   2024 07 18 18:20  22 38 35.21    -29 08 48.2   165556 1.0171 141.8  m  15?  28.87 359.9   71 271  68  90
   2024 07 18 18:30  22 38 35.43    -29 03 57.0   165986 1.0171 141.8  m  15?  29.31   0.9   69 270  68  90
   2024 07 18 18:40  22 38 36.03    -28 59 01.6   166420 1.0171 141.8  m  15?  29.74   2.0   67 269  68  90
   2024 07 18 18:50  22 38 37.06    -28 54 02.1   166858 1.0171 141.8  m  15?  30.17   3.0   65 268  68  90
   2024 07 18 19:00  22 38 38.54    -28 48 58.7   167299 1.0171 141.8  m  15?  30.58   4.2   62 267  68  90
   2024 07 18 19:10  22 38 40.51    -28 43 51.6   167744 1.0171 141.8     15?  31.00   5.3   60 266  68  90
   2024 07 18 19:20  22 38 43.00    -28 38 41.0   168192 1.0171 141.8     15?  31.41   6.6   58 265  68  91
   2024 07 18 19:30  22 38 46.04    -28 33 27.0   168642 1.0171 141.8     15?  31.82   7.8   56 264  68  91
   2024 07 18 19:40  22 38 49.65    -28 28 10.0   169096 1.0171 141.8 A   15?  32.24   9.1   54 263  68  91
   2024 07 18 19:50  22 38 53.86    -28 22 50.1   169553 1.0171 141.8 A   15?  32.65  10.4   52 263  68  91
   2024 07 18 20:00  22 38 58.70    -28 17 27.6   170011 1.0171 141.8 A   15?  33.06  11.8   50 262  68  91
   2024 07 18 20:10  22 39 04.18    -28 12 02.6   170472 1.0171 141.8 N   15?  33.48  13.2   48 261  68  91
   2024 07 18 20:20  22 39 10.33    -28 06 35.3   170935 1.0171 141.7 N   15?  33.90  14.6   45 260  68  91
   2024 07 18 20:30  22 39 17.16    -28 01 06.1   171399 1.0171 141.7 N   15?  34.33  16.0   43 259  68  91
   2024 07 18 20:40  22 39 24.70    -27 55 35.1   171864 1.0171 141.7 C   15?  34.76  17.4   41 259  68  91
   2024 07 18 20:50  22 39 32.96    -27 50 02.6   172331 1.0171 141.7 C   15?  35.20  18.9   39 258  67  91
   ................
   2024 07 19 10:30  23 15 58.15    -22 30 02.7   186922 1.0171 133.6  r  15?  29.83  68.0    0 116  69  94
   2024 07 19 10:40  23 16 17.70    -22 28 11.2   186686 1.0171 133.5  m  15?  28.84  67.3    1 115  69  94
   2024 07 19 10:50  23 16 36.49    -22 26 20.2   186444 1.0171 133.5  m  15?  27.85  66.5    3 114  69  95
   2024 07 19 11:00  23 16 54.50    -22 24 29.4   186197 1.0171 133.4  m  15?  26.86  65.7    5 112  69  95
   2024 07 19 11:10  23 17 11.74    -22 22 38.7   185944 1.0170 133.3  m  15?  25.88  64.7    7 111  69  95
   2024 07 19 11:20  23 17 28.18    -22 20 47.9   185687 1.0170 133.3  m  15?  24.91  63.6    8 110  69  95
   2024 07 19 11:30  23 17 43.84    -22 18 56.9   185425 1.0170 133.2  m  15?  23.95  62.3   10 109  69  95
   2024 07 19 11:40  23 17 58.70    -22 17 05.4   185159 1.0170 133.2  m  15?  23.01  60.9   12 108  69  95
   2024 07 19 11:50  23 18 12.76    -22 15 13.2   184890 1.0170 133.1  m  15?  22.09  59.4   14 107  69  95
   2024 07 19 12:00  23 18 26.03    -22 13 20.3   184618 1.0170 133.1  m  15?  21.20  57.7   16 105  69  95
   2024 07 19 12:10  23 18 38.51    -22 11 26.3   184342 1.0170 133.0  m  15?  20.34  55.7   18 104  69  95
   2024 07 19 12:20  23 18 50.19    -22 09 31.2   184065 1.0170 133.0  m  15?  19.52  53.6   20 103  69  95
   2024 07 19 12:30  23 19 01.08    -22 07 34.7   183785 1.0170 132.9  m  15?  18.75  51.3   22 102  69  95
   2024 07 19 12:40  23 19 11.19    -22 05 36.6   183504 1.0170 132.9  m  15?  18.02  48.7   24 101  69  95
   2024 07 19 12:50  23 19 20.52    -22 03 36.8   183221 1.0170 132.9  m  15?  17.36  46.0   27 100  69  95
   2024 07 19 13:00  23 19 29.08    -22 01 35.1   182938 1.0170 132.8  m  15?  16.76  42.9   29  99  69  95
   2024 07 19 13:10  23 19 36.88    -21 59 31.3   182654 1.0170 132.8  m  15?  16.23  39.7   31  98  69  95
   2024 07 19 13:20  23 19 43.93    -21 57 25.3   182370 1.0170 132.8  m  15?  15.78  36.3   33  96  69  95
   2024 07 19 13:30  23 19 50.25    -21 55 16.7   182086 1.0170 132.8  m  15?  15.42  32.7   35  95  69  95
   2024 07 19 13:40  23 19 55.85    -21 53 05.6   181803 1.0170 132.7  m  15?  15.14  29.0   37  94  69  95
   2024 07 19 13:50  23 20 00.74    -21 50 51.7   181521 1.0170 132.7  m  15?  14.96  25.2   39  93  69  95
   2024 07 19 14:00  23 20 04.94    -21 48 34.9   181241 1.0170 132.7  m  15?  14.86  21.4   41  92  69  95
   2024 07 19 14:10  23 20 08.48    -21 46 14.9   180962 1.0170 132.7  m  15?  14.85  17.7   43  90  68  95
   2024 07 19 14:20  23 20 11.36    -21 43 51.7   180685 1.0170 132.7  m  15?  14.93  14.0   45  89  68  95
   2024 07 19 14:30  23 20 13.61    -21 41 25.1   180410 1.0170 132.7  m  15?  15.09  10.5   48  88  68  95
   2024 07 19 14:40  23 20 15.26    -21 38 54.9   180138 1.0170 132.7  m  15?  15.32   7.3   50  86  68  95
   2024 07 19 14:50  23 20 16.33    -21 36 21.0   179869 1.0170 132.7  m  15?  15.61   4.2   52  85  68  95
   2024 07 19 15:00  23 20 16.83    -21 33 43.3   179604 1.0170 132.7  m  15?  15.96   1.4   54  83  68  95
   2024 07 19 15:10  23 20 16.81    -21 31 01.7   179342 1.0170 132.7  m  15?  16.36 358.8   56  81  68  95
   2024 07 19 15:20  23 20 16.29    -21 28 16.0   179083 1.0170 132.7  m  15?  16.80 356.5   58  79  68  95
   2024 07 19 15:30  23 20 15.29    -21 25 26.1   178829 1.0170 132.7  m  15?  17.27 354.5   60  77  68  95
   2024 07 19 15:40  23 20 13.86    -21 22 31.9   178578 1.0170 132.7  m  15?  17.77 352.7   62  75  68  95
   2024 07 19 15:50  23 20 12.01    -21 19 33.3   178333 1.0170 132.7  m  15?  18.29 351.1   64  72  68  95
   2024 07 19 16:00  23 20 09.78    -21 16 30.3   178092 1.0170 132.7  m  15?  18.81 349.8   66  69  68  95
   2024 07 19 16:10  23 20 07.21    -21 13 22.7   177855 1.0170 132.7  m  15?  19.35 348.7   68  66  68  95
   2024 07 19 16:20  23 20 04.32    -21 10 10.5   177624 1.0170 132.7  m  15?  19.89 347.8   70  62  68  95
   2024 07 19 16:30  23 20 01.16    -21 06 53.6   177398 1.0170 132.7  m  15?  20.43 347.1   72  57  68  95
   2024 07 19 16:40  23 19 57.76    -21 03 32.0   177177 1.0170 132.7  m  15?  20.96 346.5   74  52  68  95
   2024 07 19 16:50  23 19 54.15    -21 00 05.7   176962 1.0170 132.7  m  15?  21.49 346.2   75  45  68  95
   2024 07 19 17:00  23 19 50.38    -20 56 34.5   176752 1.0170 132.7  m  15?  22.01 345.9   77  37  68  95
   2024 07 19 17:10  23 19 46.47    -20 52 58.5   176548 1.0170 132.7  m  15?  22.52 345.8   78  27  68  95
   2024 07 19 17:20  23 19 42.48    -20 49 17.6   176349 1.0170 132.8  m  15?  23.01 345.9   79  15  67  95
   2024 07 19 17:30  23 19 38.42    -20 45 31.9   176156 1.0170 132.8  m  15?  23.49 346.0   79   3  67  95
   2024 07 19 17:40  23 19 34.36    -20 41 41.4   175969 1.0170 132.8  t  15?  23.96 346.3   79 350  67  95
   2024 07 19 17:50  23 19 30.31    -20 37 46.0   175787 1.0170 132.8  m  15?  24.42 346.7   78 338  67  95
   2024 07 19 18:00  23 19 26.33    -20 33 45.8   175611 1.0170 132.8  m  15?  24.86 347.2   77 328  67  95
   2024 07 19 18:10  23 19 22.44    -20 29 40.8   175441 1.0170 132.8  m  15?  25.29 347.8   76 319  67  95
   2024 07 19 18:20  23 19 18.69    -20 25 31.1   175276 1.0170 132.8  m  15?  25.71 348.5   74 312  67  96
   2024 07 19 18:30  23 19 15.11    -20 21 16.7   175117 1.0170 132.8  m  15?  26.12 349.3   72 306  67  96
   2024 07 19 18:40  23 19 11.75    -20 16 57.7   174963 1.0170 132.8  m  15?  26.51 350.2   71 302  67  96
   2024 07 19 18:50  23 19 08.64    -20 12 34.2   174815 1.0170 132.8  m  15?  26.90 351.1   69 297  67  96
   2024 07 19 19:00  23 19 05.81    -20 08 06.1   174671 1.0170 132.8  m  15?  27.27 352.2   67 294  67  96
   2024 07 19 19:10  23 19 03.31    -20 03 33.7   174533 1.0170 132.8  m  15?  27.64 353.3   65 291  67  96
   2024 07 19 19:20  23 19 01.16    -19 58 57.0   174399 1.0169 132.8  m  15?  28.01 354.4   63 288  67  96
   2024 07 19 19:30  23 18 59.41    -19 54 16.0   174270 1.0169 132.8  m  15?  28.38 355.7   61 286  67  96
   2024 07 19 19:40  23 18 58.09    -19 49 31.0   174146 1.0169 132.8 Am  15?  28.74 357.0   58 284  66  96
   2024 07 19 19:50  23 18 57.22    -19 44 42.0   174025 1.0169 132.8 Am  15?  29.11 358.3   56 282  66  96
   2024 07 19 20:00  23 18 56.84    -19 39 49.1   173909 1.0169 132.8 Am  15?  29.48 359.8   54 280  66  96
   2024 07 19 20:10  23 18 56.99    -19 34 52.5   173796 1.0169 132.8 N   15?  29.85   1.3   52 278  66  96
   2024 07 19 20:20  23 18 57.69    -19 29 52.3   173687 1.0169 132.8 N   15?  30.23   2.8   50 277  66  96
   2024 07 19 20:30  23 18 58.97    -19 24 48.6   173581 1.0169 132.8 N   15?  30.63   4.3   48 275  66  96
   2024 07 19 20:40  23 19 00.86    -19 19 41.6   173478 1.0169 132.8 C   15?  31.03   5.9   46 274  66  96
   2024 07 19 20:50  23 19 03.39    -19 14 31.3   173377 1.0169 132.8 C   15?  31.45   7.5   43 273  66  96
   ................
   2024 07 20 11:50  00 03 12.84    -10 57 11.7   134334 1.0166 121.0  m  14?  59.69  50.0    0 102  69  98
   2024 07 20 12:00  00 03 43.45    -10 50 46.0   133381 1.0166 120.8  m  14?  59.35  49.0    2 100  70  98
   2024 07 20 12:10  00 04 13.41    -10 44 14.4   132420 1.0166 120.7  m  14?  59.04  48.0    4  99  70  98
   2024 07 20 12:20  00 04 42.71    -10 37 36.6   131452 1.0166 120.5  m  14?  58.76  46.9    6  98  70  98
   2024 07 20 12:30  00 05 11.34    -10 30 52.4   130477 1.0166 120.4  m  14?  58.51  45.8    8  97  70  98
   2024 07 20 12:40  00 05 39.29    -10 24 01.4   129495 1.0166 120.2  m  14?  58.29  44.6   10  95  70  98
   2024 07 20 12:50  00 06 06.55    -10 17 03.3   128507 1.0166 120.1  m  14?  58.12  43.4   12  94  70  98
   2024 07 20 13:00  00 06 33.12    -10 09 57.9   127513 1.0166 120.0  m  14?  57.99  42.2   14  93  70  98
   2024 07 20 13:10  00 06 58.99    -10 02 44.7   126513 1.0165 119.8  m  14?  57.91  40.9   16  91  70  98
   2024 07 20 13:20  00 07 24.16    -09 55 23.4   125508 1.0165 119.7  m  14?  57.88  39.6   18  90  70  98
   2024 07 20 13:30  00 07 48.62    -09 47 53.7   124498 1.0165 119.6  m  14?  57.90  38.3   20  89  70  98
   2024 07 20 13:40  00 08 12.39    -09 40 15.3   123483 1.0165 119.5  m  14?  57.99  36.9   22  87  70  98
   2024 07 20 13:50  00 08 35.46    -09 32 27.9   122463 1.0165 119.3  m  14?  58.13  35.6   24  86  71  98
   2024 07 20 14:00  00 08 57.83    -09 24 30.9   121439 1.0165 119.2  m  14?  58.35  34.2   26  84  71  98
   2024 07 20 14:10  00 09 19.51    -09 16 24.2   120412 1.0165 119.1  m  14?  58.63  32.9   28  83  71  98
   2024 07 20 14:20  00 09 40.51    -09 08 07.3   119381 1.0165 119.0  m  14?  58.98  31.5   30  81  71  98
   2024 07 20 14:30  00 10 00.84    -08 59 39.8   118346 1.0165 118.9  m  14?  59.40  30.2   32  80  71  98
   2024 07 20 14:40  00 10 20.51    -08 51 01.4   117308 1.0165 118.7  m  14?  59.91  28.8   34  78  71  98
   2024 07 20 14:50  00 10 39.53    -08 42 11.6   116267 1.0165 118.6  m  14?  60.48  27.5   36  76  71  98
   2024 07 20 15:00  00 10 57.92    -08 33 10.1   115224 1.0165 118.5  m  14?  61.14  26.3   38  74  71  98
   2024 07 20 15:10  00 11 15.69    -08 23 56.5   114178 1.0165 118.4  m  14?  61.87  25.0   40  73  71  98
   2024 07 20 15:20  00 11 32.87    -08 14 30.3   113130 1.0165 118.3  m  14?  62.68  23.8   41  71  71  98
   2024 07 20 15:30  00 11 49.48    -08 04 51.1   112079 1.0165 118.2  m  14?  63.58  22.7   43  68  71  98
   2024 07 20 15:40  00 12 05.54    -07 54 58.4   111027 1.0165 118.1  m  14?  64.55  21.6   45  66  71  98
   2024 07 20 15:50  00 12 21.09    -07 44 51.9   109973 1.0165 118.0  m  14?  65.60  20.5   47  64  71  98
   2024 07 20 16:00  00 12 36.14    -07 34 31.1   108917 1.0165 117.9  m  14?  66.73  19.5   49  61  71  98
   2024 07 20 16:10  00 12 50.73    -07 23 55.4   107860 1.0164 117.7  m  14?  67.94  18.6   50  59  72  98
   2024 07 20 16:20  00 13 04.89    -07 13 04.5   106801 1.0164 117.6  m  14?  69.24  17.7   52  56  72  99
   2024 07 20 16:30  00 13 18.67    -07 01 57.8   105741 1.0164 117.5  m  14?  70.61  16.9   54  53  72  99
   2024 07 20 16:40  00 13 32.10    -06 50 34.8   104680 1.0164 117.4  m  14?  72.06  16.1   55  49  72  99
   2024 07 20 16:50  00 13 45.21    -06 38 55.1   103617 1.0164 117.3  m  14?  73.59  15.5   57  46  72  99
   2024 07 20 17:00  00 13 58.07    -06 26 58.0   102553 1.0164 117.2  m  14?  75.20  14.8   58  42  72  99
   2024 07 20 17:10  00 14 10.70    -06 14 43.0   101488 1.0164 117.1  m  14?  76.89  14.3   59  38  72  99
   2024 07 20 17:20  00 14 23.17    -06 02 09.6   100421 1.0164 117.0  m  13?  78.66  13.8   60  33  72  99
   2024 07 20 17:30  00 14 35.53    -05 49 17.2    99353 1.0164 116.9  m  13?  80.51  13.4   61  28  72  99
   2024 07 20 17:40  00 14 47.82    -05 36 05.1    98284 1.0164 116.7  m  13?  82.45  13.1   62  23  72  99
   2024 07 20 17:50  00 15 00.11    -05 22 32.8    97213 1.0164 116.6  m  13?  84.47  12.8   62  18  72  99
   2024 07 20 18:00  00 15 12.46    -05 08 39.5    96141 1.0164 116.5  m  13?  86.58  12.6   63  13  72  99
   2024 07 20 18:10  00 15 24.92    -04 54 24.6    95066 1.0164 116.4  m  13?  88.78  12.4   63   7  72  99
   2024 07 20 18:20  00 15 37.58    -04 39 47.4    93990 1.0164 116.2  e  13?  91.07  12.3   63   2  72  99
   2024 07 20 18:30  00 15 50.49    -04 24 47.0    92911 1.0164 116.1  t  13?  93.47  12.3   62 357  72  99
   2024 07 20 18:40  00 16 03.73    -04 09 22.7    91830 1.0164 116.0  m  13?  95.96  12.3   62 351  72  99
   2024 07 20 18:50  00 16 17.37    -03 53 33.7    90746 1.0164 115.8  m  13?  98.57  12.3   61 346  73  99
   2024 07 20 19:00  00 16 31.49    -03 37 19.0    89659 1.0163 115.7  m  13? 101.29  12.5   61 341  73  99
   2024 07 20 19:10  00 16 46.17    -03 20 37.8    88569 1.0163 115.5  m  13? 104.14  12.6   60 337  73  99
   2024 07 20 19:20  00 17 01.51    -03 03 29.0    87475 1.0163 115.4  m  13? 107.11  12.9   58 333  73  99
   2024 07 20 19:30  00 17 17.57    -02 45 51.5    86376 1.0163 115.2  m  13? 110.23  13.1   57 329  73  99
   2024 07 20 19:40  00 17 34.47    -02 27 44.2    85273 1.0163 115.1 Am  13? 113.49  13.4   56 325  73  99
   2024 07 20 19:50  00 17 52.29    -02 09 05.9    84165 1.0163 114.9 Am  13? 116.92  13.8   54 321  73  99
   2024 07 20 20:00  00 18 11.13    -01 49 55.3    83052 1.0163 114.7 Am  13? 120.52  14.1   53 318  73  99
   2024 07 20 20:10  00 18 31.09    -01 30 10.9    81932 1.0163 114.5 Nm  13? 124.30  14.5   51 315  73  99
   2024 07 20 20:20  00 18 52.29    -01 09 51.2    80806 1.0163 114.3 Nm  13? 128.29  15.0   49 313  73  99
   2024 07 20 20:30  00 19 14.84    -00 48 54.7    79672 1.0163 114.1 Nm  13? 132.50  15.4   47 310  74  99
   2024 07 20 20:40  00 19 38.85    -00 27 19.4    78531 1.0163 113.9 Cm  13? 136.94  15.9   46 308  74  99
   2024 07 20 20:50  00 20 04.45    -00 05 03.4    77381 1.0163 113.6 Cm  13? 141.64  16.4   44 306  74  99
   ................
   2024 07 21 07:30  20 56 27.80    -42 11 18.1    57696 1.0164 155.5 Cm  13? 256.54  81.5    5 136  20  99
   2024 07 21 07:40  21 00 09.13    -42 05 01.7    59251 1.0164 155.2 Cm  13? 241.14  80.8    6 136  20  99
   2024 07 21 07:50  21 03 36.63    -41 58 40.2    60772 1.0164 154.9 Nm  13? 227.05  80.1    7 135  20  99
   2024 07 21 08:00  21 06 51.46    -41 52 16.2    62260 1.0164 154.6 Nm  13? 214.10  79.5    8 134  21  99
   2024 07 21 08:10  21 09 54.66    -41 45 51.4    63716 1.0164 154.4 Nm  14? 202.16  78.9    9 133  21  99
   2024 07 21 08:20  21 12 47.11    -41 39 27.4    65143 1.0164 154.1 Am  14? 191.12  78.3   10 132  21  99
   2024 07 21 08:30  21 15 29.63    -41 33 05.1    66540 1.0164 153.9 Am  14? 180.87  77.7   11 131  21  99
   2024 07 21 08:40  21 18 02.92    -41 26 45.3    67910 1.0164 153.6 Am  14? 171.33  77.1   12 131  22  99
   2024 07 21 08:50  21 20 27.63    -41 20 28.4    69253 1.0164 153.4  m  14? 162.43  76.5   13 130  22  99
   2024 07 21 09:00  21 22 44.33    -41 14 14.8    70570 1.0165 153.2  m  14? 154.11  75.9   14 129  22  99
   2024 07 21 09:10  21 24 53.54    -41 08 04.7    71864 1.0165 153.0  m  14? 146.32  75.3   16 128  22  99
   2024 07 21 09:20  21 26 55.72    -41 01 58.1    73133 1.0165 152.8  m  14? 139.00  74.7   17 127  22  99
   2024 07 21 09:30  21 28 51.30    -40 55 54.9    74380 1.0165 152.6  m  14? 132.13  74.0   18 126  23  99
   2024 07 21 09:40  21 30 40.67    -40 49 55.0    75606 1.0165 152.4  m  14? 125.65  73.3   20 126  23  99
   2024 07 21 09:50  21 32 24.18    -40 43 58.2    76810 1.0165 152.2  m  14? 119.56  72.6   21 125  23  99
   2024 07 21 10:00  21 34 02.17    -40 38 04.2    77995 1.0165 152.0  m  14? 113.81  71.8   23 124  23  99
   2024 07 21 10:10  21 35 34.92    -40 32 12.7    79161 1.0165 151.9  m  14? 108.39  71.0   24 123  23  99
   2024 07 21 10:20  21 37 02.73    -40 26 23.5    80308 1.0165 151.7  m  14? 103.27  70.2   26 123  23  99
   2024 07 21 10:30  21 38 25.85    -40 20 36.1    81438 1.0165 151.6  m  14?  98.44  69.3   27 122  23  99
   2024 07 21 10:40  21 39 44.52    -40 14 50.3    82551 1.0165 151.4  m  14?  93.89  68.3   29 121  24  99
   2024 07 21 10:50  21 40 58.97    -40 09 05.6    83649 1.0165 151.3  m  14?  89.60  67.3   30 120  24  99
   2024 07 21 11:00  21 42 09.40    -40 03 21.7    84730 1.0165 151.2  m  14?  85.56  66.2   32 120  24  99
   2024 07 21 11:10  21 43 16.03    -39 57 38.1    85798 1.0165 151.1  m  14?  81.76  65.1   33 119  24  99
   2024 07 21 11:20  21 44 19.03    -39 51 54.6    86851 1.0166 151.0  m  14?  78.20  63.8   35 119  24  99
   2024 07 21 11:30  21 45 18.59    -39 46 10.7    87891 1.0166 150.9  m  14?  74.85  62.5   37 118  24  99
   2024 07 21 11:40  21 46 14.88    -39 40 26.0    88919 1.0166 150.8  m  14?  71.73  61.2   38 117  24  99
   2024 07 21 11:50  21 47 08.06    -39 34 40.2    89934 1.0166 150.7  m  14?  68.82  59.7   40 117  24  99
   2024 07 21 12:00  21 47 58.29    -39 28 53.0    90939 1.0166 150.6  m  14?  66.12  58.2   42 116  24  99
   2024 07 21 12:10  21 48 45.71    -39 23 03.9    91932 1.0166 150.5  m  14?  63.63  56.5   44 116  24  99
   2024 07 21 12:20  21 49 30.47    -39 17 12.7    92916 1.0166 150.5  m  14?  61.33  54.9   45 115  24  99
   2024 07 21 12:30  21 50 12.71    -39 11 19.0    93890 1.0166 150.4  m  14?  59.23  53.1   47 115  24  99
   2024 07 21 12:40  21 50 52.55    -39 05 22.6    94855 1.0166 150.4  m  14?  57.32  51.3   49 114  24  99
   2024 07 21 12:50  21 51 30.14    -38 59 23.2    95811 1.0166 150.3  m  14?  55.59  49.4   51 114  24  99
   2024 07 21 13:00  21 52 05.58    -38 53 20.4    96760 1.0166 150.3  m  14?  54.05  47.5   53 114  24  99
   2024 07 21 13:10  21 52 39.02    -38 47 14.1    97701 1.0166 150.2  m  14?  52.68  45.6   54 114  24  99
   2024 07 21 13:20  21 53 10.55    -38 41 04.0    98635 1.0166 150.2  m  14?  51.48  43.7   56 113  24  99
   2024 07 21 13:30  21 53 40.30    -38 34 50.0    99563 1.0166 150.2  m  14?  50.44  41.7   58 113  24  99
   2024 07 21 13:40  21 54 08.38    -38 28 31.7   100485 1.0166 150.1  m  14?  49.56  39.8   60 113  24  99
   2024 07 21 13:50  21 54 34.90    -38 22 09.1   101401 1.0166 150.1  m  14?  48.81  37.9   62 113  24  99
   2024 07 21 14:00  21 54 59.97    -38 15 42.0   102312 1.0166 150.1  m  14?  48.21  36.1   64 113  24  99
   2024 07 21 14:10  21 55 23.67    -38 09 10.3   103219 1.0166 150.1  m  14?  47.73  34.3   66 114  24  99
   2024 07 21 14:20  21 55 46.13    -38 02 33.9   104121 1.0166 150.1  m  14?  47.36  32.6   68 114  24  99
   2024 07 21 14:30  21 56 07.43    -37 55 52.7   105019 1.0167 150.1  m  14?  47.10  31.0   70 115  24  99
   2024 07 21 14:40  21 56 27.67    -37 49 06.6   105914 1.0167 150.1  m  14?  46.94  29.5   71 116  24  99
   2024 07 21 14:50  21 56 46.95    -37 42 15.6   106805 1.0167 150.1  m  15?  46.86  28.1   73 117  24  99
   2024 07 21 15:00  21 57 05.36    -37 35 19.7   107694 1.0167 150.1  m  15?  46.86  26.8   75 119  24  99
   2024 07 21 15:10  21 57 22.97    -37 28 18.8   108580 1.0167 150.1  m  15?  46.93  25.6   77 122  24  99
   2024 07 21 15:20  21 57 39.89    -37 21 13.1   109464 1.0167 150.1  m  15?  47.05  24.5   79 126  24  99
   2024 07 21 15:30  21 57 56.20    -37 14 02.4   110345 1.0167 150.1  m  15?  47.23  23.5   80 132  24  99
   2024 07 21 15:40  21 58 11.96    -37 06 47.0   111225 1.0167 150.1  m  15?  47.45  22.7   82 140  24  99
   2024 07 21 15:50  21 58 27.28    -36 59 26.8   112104 1.0167 150.1  m  15?  47.70  21.9   83 153  24  99
   2024 07 21 16:00  21 58 42.21    -36 52 02.0   112981 1.0167 150.2  m  15?  47.99  21.3   84 171  24  99
   2024 07 21 16:10  21 58 56.84    -36 44 32.6   113857 1.0167 150.2  t  15?  48.30  20.8   84 191  24  99
   2024 07 21 16:20  21 59 11.23    -36 36 58.9   114731 1.0167 150.2  m  15?  48.63  20.4   83 210  24  99
   2024 07 21 16:30  21 59 25.46    -36 29 20.9   115606 1.0167 150.2  m  15?  48.97  20.1   82 223  24  99
   2024 07 21 16:40  21 59 39.60    -36 21 38.8   116479 1.0167 150.2  m  15?  49.33  19.9   81 233  24  99
   2024 07 21 16:50  21 59 53.69    -36 13 52.8   117352 1.0167 150.2  m  15?  49.70  19.7   79 239  24  99
   2024 07 21 17:00  22 00 07.82    -36 06 03.0   118224 1.0167 150.2  m  15?  50.08  19.7   77 243  24  99
   2024 07 21 17:10  22 00 22.03    -35 58 09.8   119096 1.0167 150.3  m  15?  50.45  19.8   75 246  24  99
   2024 07 21 17:20  22 00 36.38    -35 50 13.2   119968 1.0167 150.3  m  15?  50.83  19.9   73 248  24  99
   2024 07 21 17:30  22 00 50.92    -35 42 13.6   120839 1.0167 150.3  m  15?  51.22  20.1   72 250  24  99
   2024 07 21 17:40  22 01 05.71    -35 34 11.1   121710 1.0167 150.3  m  15?  51.60  20.4   70 251  24  99
   2024 07 21 17:50  22 01 20.80    -35 26 06.0   122581 1.0167 150.3  m  15?  51.98  20.7   68 252  24  99
   2024 07 21 18:00  22 01 36.22    -35 17 58.5   123452 1.0167 150.3  m  15?  52.36  21.1   66 252  24  99
   2024 07 21 18:10  22 01 52.02    -35 09 49.0   124322 1.0167 150.3  m  15?  52.73  21.6   64 253  24  99
   2024 07 21 18:20  22 02 08.25    -35 01 37.6   125192 1.0167 150.3  m  15?  53.10  22.1   62 253  24  99
   2024 07 21 18:30  22 02 24.93    -34 53 24.6   126061 1.0167 150.3  m  15?  53.47  22.6   60 253  23  99
   2024 07 21 18:40  22 02 42.11    -34 45 10.4   126930 1.0167 150.3  m  15?  53.84  23.2   58 253  23  99
   2024 07 21 18:50  22 02 59.81    -34 36 55.1   127798 1.0168 150.3  m  15?  54.20  23.9   56 253  23  99
   2024 07 21 19:00  22 03 18.07    -34 28 39.1   128666 1.0168 150.3  m  15?  54.56  24.6   54 253  23  99
   2024 07 21 19:10  22 03 36.92    -34 20 22.6   129533 1.0168 150.3  m  15?  54.92  25.3   52 253  23  99
   2024 07 21 19:20  22 03 56.37    -34 12 05.9   130399 1.0168 150.3  m  15?  55.28  26.0   50 252  23  99
   2024 07 21 19:30  22 04 16.46    -34 03 49.4   131264 1.0168 150.3  m  15?  55.63  26.8   48 252  23  99
   2024 07 21 19:40  22 04 37.19    -33 55 33.2   132127 1.0168 150.3 Am  15?  55.98  27.7   46 252  23  99
   2024 07 21 19:50  22 04 58.60    -33 47 17.7   132989 1.0168 150.3 Am  15?  56.33  28.5   44 251  23  99
   2024 07 21 20:00  22 05 20.69    -33 39 03.1   133850 1.0168 150.2 Am  15?  56.68  29.3   42 251  23  99
   2024 07 21 20:10  22 05 43.47    -33 30 49.8   134708 1.0168 150.2 Nm  15?  57.02  30.2   40 250  23  99
   2024 07 21 20:20  22 06 06.97    -33 22 37.9   135565 1.0168 150.2 Nm  15?  57.36  31.1   38 250  23  99
   2024 07 21 20:30  22 06 31.19    -33 14 27.8   136419 1.0168 150.1 Nm  15?  57.70  32.0   36 249  23  99
   2024 07 21 20:40  22 06 56.13    -33 06 19.7   137270 1.0168 150.1 Cm  15?  58.04  32.9   34 249  23  99
   2024 07 21 20:50  22 07 21.80    -32 58 13.8   138119 1.0168 150.1 Cm  15?  58.38  33.9   32 248  23  99
   ................
   2024 07 22 09:50  22 55 16.01    -26 56 01.8   177258 1.0169 141.1  m  15?  32.10  72.7    0 121  24  98
   2024 07 22 10:00  22 55 38.54    -26 54 26.8   177338 1.0169 141.0  m  15?  30.93  72.3    2 120  24  98
   2024 07 22 10:10  22 56 00.17    -26 52 53.0   177412 1.0169 141.0  m  15?  29.75  71.8    4 118  24  98
   2024 07 22 10:20  22 56 20.90    -26 51 20.0   177480 1.0169 140.9  m  15?  28.58  71.2    6 117  24  98
   2024 07 22 10:30  22 56 40.71    -26 49 47.7   177542 1.0169 140.8  m  15?  27.42  70.5    7 116  24  98
   2024 07 22 10:40  22 56 59.61    -26 48 15.9   177599 1.0169 140.8  m  15?  26.26  69.7    9 115  24  98
   2024 07 22 10:50  22 57 17.60    -26 46 44.4   177651 1.0169 140.7  m  15?  25.11  68.7   11 114  24  98
   2024 07 22 11:00  22 57 34.67    -26 45 12.9   177698 1.0169 140.7  m  15?  23.99  67.7   13 113  24  98
   2024 07 22 11:10  22 57 50.83    -26 43 41.3   177740 1.0169 140.6  m  15?  22.88  66.4   15 112  24  98
   2024 07 22 11:20  22 58 06.08    -26 42 09.2   177779 1.0169 140.5  m  15?  21.79  65.0   17 111  24  98
   2024 07 22 11:30  22 58 20.43    -26 40 36.6   177815 1.0169 140.5  m  15?  20.74  63.5   19 109  24  98
   2024 07 22 11:40  22 58 33.87    -26 39 03.1   177847 1.0169 140.5  m  15?  19.72  61.7   21 108  24  98
   2024 07 22 11:50  22 58 46.42    -26 37 28.6   177877 1.0169 140.4  m  15?  18.74  59.6   23 107  24  98
   2024 07 22 12:00  22 58 58.09    -26 35 52.8   177904 1.0169 140.4  m  15?  17.81  57.3   25 106  24  98
   2024 07 22 12:10  22 59 08.88    -26 34 15.5   177930 1.0169 140.3  m  15?  16.93  54.8   27 105  24  98
   2024 07 22 12:20  22 59 18.81    -26 32 36.5   177954 1.0169 140.3  m  15?  16.12  51.9   29 104  24  98
   2024 07 22 12:30  22 59 27.89    -26 30 55.7   177977 1.0169 140.3  m  15?  15.38  48.7   31 103  24  98
   2024 07 22 12:40  22 59 36.14    -26 29 12.7   177999 1.0169 140.3  m  15?  14.72  45.3   33 102  24  98
   2024 07 22 12:50  22 59 43.57    -26 27 27.5   178021 1.0169 140.2  m  15?  14.15  41.5   35 101  24  98
   2024 07 22 13:00  22 59 50.20    -26 25 39.7   178042 1.0169 140.2  m  15?  13.68  37.4   37 100  24  98
   2024 07 22 13:10  22 59 56.04    -26 23 49.2   178064 1.0169 140.2  m  15?  13.31  33.1   39  99  24  98
   2024 07 22 13:20  23 00 01.13    -26 21 55.8   178087 1.0169 140.2  m  15?  13.04  28.7   41  98  24  98
   2024 07 22 13:30  23 00 05.47    -26 19 59.4   178111 1.0169 140.2  m  15?  12.89  24.2   43  97  24  98
   2024 07 22 13:40  23 00 09.10    -26 17 59.7   178136 1.0169 140.2  m  15?  12.84  19.8   45  96  24  98
   2024 07 22 13:50  23 00 12.04    -26 15 56.7   178163 1.0169 140.2  m  15?  12.90  15.5   47  95  24  97
   2024 07 22 14:00  23 00 14.31    -26 13 50.0   178192 1.0169 140.2  m  15?  13.05  11.3   50  94  24  97
   2024 07 22 14:10  23 00 15.95    -26 11 39.6   178224 1.0169 140.2  m  15?  13.29   7.5   52  93  24  97
   2024 07 22 14:20  23 00 16.98    -26 09 25.3   178258 1.0169 140.2  m  15?  13.61   3.9   54  91  24  97
   2024 07 22 14:30  23 00 17.42    -26 07 07.0   178295 1.0169 140.2  m  15?  13.99   0.7   56  90  24  97
   2024 07 22 14:40  23 00 17.32    -26 04 44.5   178335 1.0169 140.2  m  15?  14.42 357.8   58  89  24  97
   2024 07 22 14:50  23 00 16.70    -26 02 17.7   178379 1.0169 140.2  m  15?  14.89 355.2   60  87  24  97
   2024 07 22 15:00  23 00 15.60    -25 59 46.6   178426 1.0169 140.2  m  15?  15.40 353.0   62  86  24  97
   2024 07 22 15:10  23 00 14.05    -25 57 10.9   178477 1.0169 140.2  m  15?  15.93 351.2   64  84  24  97
   2024 07 22 15:20  23 00 12.09    -25 54 30.7   178533 1.0169 140.2  m  15?  16.47 349.6   67  82  23  97
   2024 07 22 15:30  23 00 09.75    -25 51 45.8   178593 1.0169 140.2  m  15?  17.03 348.2   69  80  23  97
   2024 07 22 15:40  23 00 07.06    -25 48 56.1   178657 1.0169 140.2  m  15?  17.59 347.2   71  77  23  97
   2024 07 22 15:50  23 00 04.07    -25 46 01.6   178727 1.0169 140.3  m  15?  18.15 346.3   73  74  23  97
   2024 07 22 16:00  23 00 00.81    -25 43 02.3   178801 1.0169 140.3  m  15?  18.70 345.6   75  70  23  97
   2024 07 22 16:10  22 59